<?xml version='1.0' encoding='UTF-8'?><gpx version="1.1" creator="JPX - https://github.com/jenetics/jpx" xmlns="http://www.topografix.com/GPX/1/1"><trk><trkseg><trkpt lat="42.79546231276076" lon="11.132746141082613"><ele>12.999999999999998</ele><time>2026-04-06T08:44:29.998Z</time></trkpt><trkpt lat="42.79553247146604" lon="11.132808273593362"><ele>13.0</ele><time>2026-04-06T08:44:31.998Z</time></trkpt><trkpt lat="42.795541690693874" lon="11.132896900363173"><ele>13.0</ele><time>2026-04-06T08:44:34.998Z</time></trkpt><trkpt lat="42.7956125831078" lon="11.133012899691916"><ele>13.0</ele><time>2026-04-06T08:44:36.998Z</time></trkpt><trkpt lat="42.79568281663842" lon="11.133057560222044"><ele>12.999999999999998</ele><time>2026-04-06T08:44:37.998Z</time></trkpt><trkpt lat="42.795767882899284" lon="11.13308932062575"><ele>13.0</ele><time>2026-04-06T08:44:38.998Z</time></trkpt><trkpt lat="42.7958658509863" lon="11.133134540907"><ele>13.0</ele><time>2026-04-06T08:44:39.998Z</time></trkpt><trkpt lat="42.7959626815447" lon="11.133186676606286"><ele>13.0</ele><time>2026-04-06T08:44:40.998Z</time></trkpt><trkpt lat="42.79606453880997" lon="11.133248468643329"><ele>13.0</ele><time>2026-04-06T08:44:41.998Z</time></trkpt><trkpt lat="42.79617405519915" lon="11.133307978643185"><ele>13.0</ele><time>2026-04-06T08:44:42.998Z</time></trkpt><trkpt lat="42.79629030688262" lon="11.133364316020751"><ele>13.0</ele><time>2026-04-06T08:44:43.998Z</time></trkpt><trkpt lat="42.796413086843465" lon="11.133419782143708"><ele>13.0</ele><time>2026-04-06T08:44:44.998Z</time></trkpt><trkpt lat="42.79653592243821" lon="11.13347903456758"><ele>13.0</ele><time>2026-04-06T08:44:45.998Z</time></trkpt><trkpt lat="42.79665908158678" lon="11.133540870835478"><ele>13.0</ele><time>2026-04-06T08:44:46.998Z</time></trkpt><trkpt lat="42.79678777112399" lon="11.133610423057865"><ele>13.0</ele><time>2026-04-06T08:44:47.998Z</time></trkpt><trkpt lat="42.79691840131231" lon="11.133677311130855"><ele>13.0</ele><time>2026-04-06T08:44:48.998Z</time></trkpt><trkpt lat="42.797050143689155" lon="11.133744986540854"><ele>13.0</ele><time>2026-04-06T08:44:49.998Z</time></trkpt><trkpt lat="42.797186460129005" lon="11.13381252128523"><ele>13.0</ele><time>2026-04-06T08:44:50.998Z</time></trkpt><trkpt lat="42.79732333189073" lon="11.133879373957"><ele>13.0</ele><time>2026-04-06T08:44:51.998Z</time></trkpt><trkpt lat="42.79746263239293" lon="11.13395045865022"><ele>13.0</ele><time>2026-04-06T08:44:52.998Z</time></trkpt><trkpt lat="42.79760466534949" lon="11.134023156495257"><ele>13.0</ele><time>2026-04-06T08:44:53.998Z</time></trkpt><trkpt lat="42.79774843689391" lon="11.134093909118468"><ele>13.333333333333332</ele><time>2026-04-06T08:44:54.998Z</time></trkpt><trkpt lat="42.79789436015318" lon="11.134163284465767"><ele>13.666666666666668</ele><time>2026-04-06T08:44:55.998Z</time></trkpt><trkpt lat="42.798040876058614" lon="11.1342315432314"><ele>14.0</ele><time>2026-04-06T08:44:56.998Z</time></trkpt><trkpt lat="42.79818549322719" lon="11.134305093554525"><ele>14.0</ele><time>2026-04-06T08:44:57.998Z</time></trkpt><trkpt lat="42.79832910974074" lon="11.134375310115873"><ele>14.0</ele><time>2026-04-06T08:44:58.998Z</time></trkpt><trkpt lat="42.798473060763214" lon="11.134444789466798"><ele>14.0</ele><time>2026-04-06T08:45:00Z</time></trkpt><trkpt lat="42.79861574951331" lon="11.134513937045766"><ele>14.25</ele><time>2026-04-06T08:45:01Z</time></trkpt><trkpt lat="42.798751476713484" lon="11.134581013218524"><ele>14.5</ele><time>2026-04-06T08:45:02Z</time></trkpt><trkpt lat="42.79888406592463" lon="11.134646146188407"><ele>14.75</ele><time>2026-04-06T08:45:03Z</time></trkpt><trkpt lat="42.79900884832897" lon="11.134708793718389"><ele>15.0</ele><time>2026-04-06T08:45:04Z</time></trkpt><trkpt lat="42.79912889149151" lon="11.134775798956035"><ele>15.0</ele><time>2026-04-06T08:45:05Z</time></trkpt><trkpt lat="42.79923965444706" lon="11.134847507741489"><ele>15.0</ele><time>2026-04-06T08:45:06Z</time></trkpt><trkpt lat="42.799337700047964" lon="11.134931433926376"><ele>15.0</ele><time>2026-04-06T08:45:07Z</time></trkpt><trkpt lat="42.79943039193387" lon="11.135031223281779"><ele>15.0</ele><time>2026-04-06T08:45:08Z</time></trkpt><trkpt lat="42.79951031867259" lon="11.13514079706258"><ele>15.25</ele><time>2026-04-06T08:45:09Z</time></trkpt><trkpt lat="42.79958368677041" lon="11.13527225212207"><ele>15.5</ele><time>2026-04-06T08:45:10Z</time></trkpt><trkpt lat="42.79964582545388" lon="11.135414348009252"><ele>15.75</ele><time>2026-04-06T08:45:11Z</time></trkpt><trkpt lat="42.799725018726946" lon="11.135546285894142"><ele>16.0</ele><time>2026-04-06T08:45:12Z</time></trkpt><trkpt lat="42.79984384476706" lon="11.135671544024174"><ele>15.666666666666666</ele><time>2026-04-06T08:45:13Z</time></trkpt><trkpt lat="42.79998209493977" lon="11.135766300247095"><ele>15.333333333333332</ele><time>2026-04-06T08:45:14Z</time></trkpt><trkpt lat="42.800129245580166" lon="11.13582463858235"><ele>15.0</ele><time>2026-04-06T08:45:15Z</time></trkpt><trkpt lat="42.8002876815877" lon="11.135829891394044"><ele>15.0</ele><time>2026-04-06T08:45:16Z</time></trkpt><trkpt lat="42.80044331549627" lon="11.13579428969756"><ele>15.0</ele><time>2026-04-06T08:45:17Z</time></trkpt><trkpt lat="42.8005948689595" lon="11.135737241655763"><ele>15.0</ele><time>2026-04-06T08:45:17.999Z</time></trkpt><trkpt lat="42.80074556500865" lon="11.135707930513961"><ele>15.333333333333332</ele><time>2026-04-06T08:45:18.999Z</time></trkpt><trkpt lat="42.800899575550254" lon="11.135717816022362"><ele>15.666666666666666</ele><time>2026-04-06T08:45:19.999Z</time></trkpt><trkpt lat="42.80105336007779" lon="11.135774318585725"><ele>16.0</ele><time>2026-04-06T08:45:20.999Z</time></trkpt><trkpt lat="42.801202670651165" lon="11.135848729096985"><ele>16.0</ele><time>2026-04-06T08:45:21.999Z</time></trkpt><trkpt lat="42.80135369672452" lon="11.13592384877383"><ele>16.0</ele><time>2026-04-06T08:45:22.999Z</time></trkpt><trkpt lat="42.80150602626695" lon="11.13599940978842"><ele>16.0</ele><time>2026-04-06T08:45:23.999Z</time></trkpt><trkpt lat="42.80165708458394" lon="11.136074340229982"><ele>16.0</ele><time>2026-04-06T08:45:24.999Z</time></trkpt><trkpt lat="42.801807411480404" lon="11.13614943849455"><ele>16.0</ele><time>2026-04-06T08:45:25.999Z</time></trkpt><trkpt lat="42.80195168348751" lon="11.136221767064855"><ele>16.0</ele><time>2026-04-06T08:45:26.999Z</time></trkpt><trkpt lat="42.80209340544324" lon="11.136292817205005"><ele>16.25</ele><time>2026-04-06T08:45:27.999Z</time></trkpt><trkpt lat="42.80222725981608" lon="11.136359923053014"><ele>16.5</ele><time>2026-04-06T08:45:28.999Z</time></trkpt><trkpt lat="42.80236036584197" lon="11.13642928256364"><ele>16.75</ele><time>2026-04-06T08:45:29.999Z</time></trkpt><trkpt lat="42.80248894720315" lon="11.136497443967304"><ele>17.0</ele><time>2026-04-06T08:45:30.999Z</time></trkpt><trkpt lat="42.80261940847791" lon="11.136542499313746"><ele>17.5</ele><time>2026-04-06T08:45:31.999Z</time></trkpt><trkpt lat="42.802742992546136" lon="11.136605181062366"><ele>18.0</ele><time>2026-04-06T08:45:32.999Z</time></trkpt><trkpt lat="42.802871745225566" lon="11.136654491614173"><ele>18.5</ele><time>2026-04-06T08:45:33.999Z</time></trkpt><trkpt lat="42.80300819131376" lon="11.136715858042958"><ele>19.0</ele><time>2026-04-06T08:45:34.999Z</time></trkpt><trkpt lat="42.8031608651514" lon="11.136759182939262"><ele>19.0</ele><time>2026-04-06T08:45:35.999Z</time></trkpt><trkpt lat="42.803318038227765" lon="11.136802173821014"><ele>19.0</ele><time>2026-04-06T08:45:36.999Z</time></trkpt><trkpt lat="42.80348472049248" lon="11.136848112683303"><ele>19.0</ele><time>2026-04-06T08:45:37.999Z</time></trkpt><trkpt lat="42.803657540759964" lon="11.136897656180127"><ele>19.0</ele><time>2026-04-06T08:45:38.999Z</time></trkpt><trkpt lat="42.803824641119235" lon="11.136945559911915"><ele>19.0</ele><time>2026-04-06T08:45:39.999Z</time></trkpt><trkpt lat="42.80399136379845" lon="11.136993355372422"><ele>19.0</ele><time>2026-04-06T08:45:40.999Z</time></trkpt><trkpt lat="42.80415874546429" lon="11.13703213713163"><ele>19.0</ele><time>2026-04-06T08:45:41.999Z</time></trkpt><trkpt lat="42.804321164842875" lon="11.137079042967198"><ele>19.0</ele><time>2026-04-06T08:45:42.999Z</time></trkpt><trkpt lat="42.80448318813295" lon="11.137120320542262"><ele>19.0</ele><time>2026-04-06T08:45:43.999Z</time></trkpt><trkpt lat="42.8046468837928" lon="11.137162703980646"><ele>19.666666666666664</ele><time>2026-04-06T08:45:44.999Z</time></trkpt><trkpt lat="42.804805449457454" lon="11.137204227540998"><ele>20.333333333333332</ele><time>2026-04-06T08:45:45.999Z</time></trkpt><trkpt lat="42.80495027544584" lon="11.137265155823663"><ele>21.0</ele><time>2026-04-06T08:45:46.999Z</time></trkpt><trkpt lat="42.80509683806786" lon="11.1372835220681"><ele>21.0</ele><time>2026-04-06T08:45:47.999Z</time></trkpt><trkpt lat="42.805228462509994" lon="11.137343840039499"><ele>21.0</ele><time>2026-04-06T08:45:48.999Z</time></trkpt><trkpt lat="42.80535337186699" lon="11.137379170182212"><ele>21.0</ele><time>2026-04-06T08:45:49.999Z</time></trkpt><trkpt lat="42.80548182668027" lon="11.137394390004166"><ele>21.0</ele><time>2026-04-06T08:45:50.998Z</time></trkpt><trkpt lat="42.80559822418648" lon="11.137447163796338"><ele>21.0</ele><time>2026-04-06T08:45:51.998Z</time></trkpt><trkpt lat="42.80572070434538" lon="11.137460888924446"><ele>21.0</ele><time>2026-04-06T08:45:52.998Z</time></trkpt><trkpt lat="42.80583502814523" lon="11.13751202220193"><ele>21.0</ele><time>2026-04-06T08:45:53.998Z</time></trkpt><trkpt lat="42.80595778611871" lon="11.137528961674104"><ele>21.0</ele><time>2026-04-06T08:45:54.998Z</time></trkpt><trkpt lat="42.8060900430672" lon="11.13757112749105"><ele>21.25</ele><time>2026-04-06T08:45:55.998Z</time></trkpt><trkpt lat="42.80620053629666" lon="11.13759743677114"><ele>21.5</ele><time>2026-04-06T08:45:56.998Z</time></trkpt><trkpt lat="42.80634070748594" lon="11.137632923512202"><ele>21.75</ele><time>2026-04-06T08:45:57.998Z</time></trkpt><trkpt lat="42.8064780303339" lon="11.137690700043551"><ele>22.0</ele><time>2026-04-06T08:45:58.998Z</time></trkpt><trkpt lat="42.806619955646234" lon="11.137730539276802"><ele>22.0</ele><time>2026-04-06T08:45:59.998Z</time></trkpt><trkpt lat="42.80676756346307" lon="11.137772163940452"><ele>22.0</ele><time>2026-04-06T08:46:00.998Z</time></trkpt><trkpt lat="42.80691869399615" lon="11.137813565149585"><ele>22.0</ele><time>2026-04-06T08:46:01.998Z</time></trkpt><trkpt lat="42.80707059241522" lon="11.137854388543575"><ele>22.5</ele><time>2026-04-06T08:46:02.998Z</time></trkpt><trkpt lat="42.80721636617347" lon="11.137896700851085"><ele>23.0</ele><time>2026-04-06T08:46:03.998Z</time></trkpt><trkpt lat="42.8073576296225" lon="11.137946857596827"><ele>23.5</ele><time>2026-04-06T08:46:04.998Z</time></trkpt><trkpt lat="42.80749619172887" lon="11.138002286613826"><ele>24.0</ele><time>2026-04-06T08:46:05.998Z</time></trkpt><trkpt lat="42.807626517746506" lon="11.138057052371277"><ele>24.0</ele><time>2026-04-06T08:46:06.998Z</time></trkpt><trkpt lat="42.807755425178364" lon="11.138111221993478"><ele>24.0</ele><time>2026-04-06T08:46:07.998Z</time></trkpt><trkpt lat="42.807863644711105" lon="11.13815682397335"><ele>24.0</ele><time>2026-04-06T08:46:08.998Z</time></trkpt><trkpt lat="42.80797328670544" lon="11.138203570322764"><ele>24.0</ele><time>2026-04-06T08:46:09.998Z</time></trkpt><trkpt lat="42.80808843797469" lon="11.138229686961662"><ele>24.0</ele><time>2026-04-06T08:46:10.998Z</time></trkpt><trkpt lat="42.80819694864736" lon="11.138298677020618"><ele>24.0</ele><time>2026-04-06T08:46:11.998Z</time></trkpt><trkpt lat="42.8083081441133" lon="11.138344578492731"><ele>24.0</ele><time>2026-04-06T08:46:12.998Z</time></trkpt><trkpt lat="42.8084135799226" lon="11.138388729347321"><ele>24.0</ele><time>2026-04-06T08:46:13.998Z</time></trkpt><trkpt lat="42.80851670445667" lon="11.138431966430172"><ele>24.2</ele><time>2026-04-06T08:46:14.998Z</time></trkpt><trkpt lat="42.80861928575101" lon="11.138455840752812"><ele>24.4</ele><time>2026-04-06T08:46:15.998Z</time></trkpt><trkpt lat="42.808721409352586" lon="11.138486243754576"><ele>24.6</ele><time>2026-04-06T08:46:16.998Z</time></trkpt><trkpt lat="42.808825256535115" lon="11.13849195727519"><ele>24.8</ele><time>2026-04-06T08:46:17.998Z</time></trkpt><trkpt lat="42.80893342483466" lon="11.138489707806286"><ele>25.0</ele><time>2026-04-06T08:46:18.998Z</time></trkpt><trkpt lat="42.80903724873571" lon="11.13847191848633"><ele>25.0</ele><time>2026-04-06T08:46:19.998Z</time></trkpt><trkpt lat="42.80915071011981" lon="11.138468136356536"><ele>25.0</ele><time>2026-04-06T08:46:20.998Z</time></trkpt><trkpt lat="42.80927390357675" lon="11.138450629074747"><ele>25.0</ele><time>2026-04-06T08:46:21.998Z</time></trkpt><trkpt lat="42.80938807100934" lon="11.138432784940568"><ele>25.0</ele><time>2026-04-06T08:46:22.998Z</time></trkpt><trkpt lat="42.80950656108204" lon="11.138420458170168"><ele>25.0</ele><time>2026-04-06T08:46:23.998Z</time></trkpt><trkpt lat="42.80962386211952" lon="11.138403253698895"><ele>25.0</ele><time>2026-04-06T08:46:24.998Z</time></trkpt><trkpt lat="42.809738690802895" lon="11.13837828034712"><ele>25.0</ele><time>2026-04-06T08:46:25.998Z</time></trkpt><trkpt lat="42.80985075106074" lon="11.138343563002172"><ele>25.0</ele><time>2026-04-06T08:46:26.998Z</time></trkpt><trkpt lat="42.80995228256008" lon="11.138302253184483"><ele>25.0</ele><time>2026-04-06T08:46:27.998Z</time></trkpt><trkpt lat="42.81005448181542" lon="11.138242269034095"><ele>25.0</ele><time>2026-04-06T08:46:28.998Z</time></trkpt><trkpt lat="42.81015162612221" lon="11.13815590126064"><ele>25.0</ele><time>2026-04-06T08:46:29.998Z</time></trkpt><trkpt lat="42.81025450499801" lon="11.138064179547904"><ele>25.0</ele><time>2026-04-06T08:46:30.998Z</time></trkpt><trkpt lat="42.810357794460444" lon="11.13796728480266"><ele>25.5</ele><time>2026-04-06T08:46:31.998Z</time></trkpt><trkpt lat="42.81046863980012" lon="11.137877714200275"><ele>26.0</ele><time>2026-04-06T08:46:32.998Z</time></trkpt><trkpt lat="42.81057851103187" lon="11.137780930165729"><ele>26.5</ele><time>2026-04-06T08:46:33.998Z</time></trkpt><trkpt lat="42.810698506125554" lon="11.137688641603095"><ele>27.0</ele><time>2026-04-06T08:46:34.998Z</time></trkpt><trkpt lat="42.810813537001195" lon="11.13759002962989"><ele>27.0</ele><time>2026-04-06T08:46:35.998Z</time></trkpt><trkpt lat="42.81092642024831" lon="11.137489513271003"><ele>27.0</ele><time>2026-04-06T08:46:36.998Z</time></trkpt><trkpt lat="42.81104368877275" lon="11.137387810860812"><ele>27.0</ele><time>2026-04-06T08:46:37.998Z</time></trkpt><trkpt lat="42.81116655754676" lon="11.137289033571735"><ele>27.0</ele><time>2026-04-06T08:46:38.998Z</time></trkpt><trkpt lat="42.81128524146187" lon="11.13718265489903"><ele>26.75</ele><time>2026-04-06T08:46:39.998Z</time></trkpt><trkpt lat="42.81140432567462" lon="11.13707784753196"><ele>26.5</ele><time>2026-04-06T08:46:40.998Z</time></trkpt><trkpt lat="42.81151991842748" lon="11.136971657891388"><ele>26.25</ele><time>2026-04-06T08:46:41.998Z</time></trkpt><trkpt lat="42.81164629613974" lon="11.136860223352773"><ele>26.0</ele><time>2026-04-06T08:46:42.997Z</time></trkpt><trkpt lat="42.81176327449987" lon="11.136758244630675"><ele>26.25</ele><time>2026-04-06T08:46:43.997Z</time></trkpt><trkpt lat="42.81188743440098" lon="11.136657098447392"><ele>26.5</ele><time>2026-04-06T08:46:44.997Z</time></trkpt><trkpt lat="42.81201220807758" lon="11.136549610958314"><ele>26.75</ele><time>2026-04-06T08:46:45.997Z</time></trkpt><trkpt lat="42.812137627541105" lon="11.13644358415134"><ele>27.0</ele><time>2026-04-06T08:46:46.997Z</time></trkpt><trkpt lat="42.81225726934757" lon="11.136336791857033"><ele>27.0</ele><time>2026-04-06T08:46:47.997Z</time></trkpt><trkpt lat="42.812378407145125" lon="11.136227826881132"><ele>27.0</ele><time>2026-04-06T08:46:48.997Z</time></trkpt><trkpt lat="42.81250314953353" lon="11.136121492816734"><ele>27.0</ele><time>2026-04-06T08:46:49.997Z</time></trkpt><trkpt lat="42.812612660606305" lon="11.13602661450895"><ele>27.0</ele><time>2026-04-06T08:46:50.997Z</time></trkpt><trkpt lat="42.8126930748082" lon="11.135949200706749"><ele>27.0</ele><time>2026-04-06T08:46:51.997Z</time></trkpt><trkpt lat="42.812747149511694" lon="11.13590001537837"><ele>27.000000000000004</ele><time>2026-04-06T08:46:52.997Z</time></trkpt><trkpt lat="42.81284550590255" lon="11.135811597861908"><ele>27.000000000000004</ele><time>2026-04-06T08:46:54.997Z</time></trkpt><trkpt lat="42.812909230608255" lon="11.135757293779866"><ele>27.0</ele><time>2026-04-06T08:46:55.997Z</time></trkpt><trkpt lat="42.81300753816437" lon="11.135674670675963"><ele>27.0</ele><time>2026-04-06T08:46:57.997Z</time></trkpt><trkpt lat="42.81308502046598" lon="11.135630606740563"><ele>26.25</ele><time>2026-04-06T08:46:58.997Z</time></trkpt><trkpt lat="42.81318974278948" lon="11.135599577723518"><ele>25.5</ele><time>2026-04-06T08:46:59.997Z</time></trkpt><trkpt lat="42.81333700249776" lon="11.135581578062208"><ele>24.75</ele><time>2026-04-06T08:47:00.997Z</time></trkpt><trkpt lat="42.813485864516224" lon="11.13555593142575"><ele>24.0</ele><time>2026-04-06T08:47:01.997Z</time></trkpt><trkpt lat="42.813649810333565" lon="11.135530491752837"><ele>23.666666666666668</ele><time>2026-04-06T08:47:02.997Z</time></trkpt><trkpt lat="42.813813233627606" lon="11.135505425552116"><ele>23.333333333333336</ele><time>2026-04-06T08:47:03.997Z</time></trkpt><trkpt lat="42.813987832754485" lon="11.13546260385278"><ele>23.0</ele><time>2026-04-06T08:47:04.997Z</time></trkpt><trkpt lat="42.81416190732509" lon="11.135451141205998"><ele>23.333333333333336</ele><time>2026-04-06T08:47:05.999Z</time></trkpt><trkpt lat="42.81434643751719" lon="11.135426545323167"><ele>23.666666666666668</ele><time>2026-04-06T08:47:06.999Z</time></trkpt><trkpt lat="42.81453245341352" lon="11.135394760807845"><ele>24.0</ele><time>2026-04-06T08:47:07.999Z</time></trkpt><trkpt lat="42.81472253108054" lon="11.135361059777045"><ele>24.0</ele><time>2026-04-06T08:47:08.999Z</time></trkpt><trkpt lat="42.814914018851525" lon="11.13532697374275"><ele>24.0</ele><time>2026-04-06T08:47:09.999Z</time></trkpt><trkpt lat="42.815106853870084" lon="11.135290754859927"><ele>24.0</ele><time>2026-04-06T08:47:10.999Z</time></trkpt><trkpt lat="42.81529799914567" lon="11.135257789581138"><ele>24.0</ele><time>2026-04-06T08:47:11.999Z</time></trkpt><trkpt lat="42.81549104708241" lon="11.135219195543465"><ele>24.0</ele><time>2026-04-06T08:47:12.999Z</time></trkpt><trkpt lat="42.81568248195547" lon="11.13518394646958"><ele>24.0</ele><time>2026-04-06T08:47:13.999Z</time></trkpt><trkpt lat="42.815870941856176" lon="11.13516847005795"><ele>24.0</ele><time>2026-04-06T08:47:14.999Z</time></trkpt><trkpt lat="42.81606102864507" lon="11.135116858615918"><ele>24.0</ele><time>2026-04-06T08:47:15.999Z</time></trkpt><trkpt lat="42.81624930602375" lon="11.135085416271432"><ele>24.0</ele><time>2026-04-06T08:47:16.999Z</time></trkpt><trkpt lat="42.816438086596" lon="11.135057932706884"><ele>24.0</ele><time>2026-04-06T08:47:17.999Z</time></trkpt><trkpt lat="42.81662608606556" lon="11.135027801621366"><ele>24.0</ele><time>2026-04-06T08:47:18.999Z</time></trkpt><trkpt lat="42.81681342009838" lon="11.134998148536667"><ele>24.0</ele><time>2026-04-06T08:47:19.999Z</time></trkpt><trkpt lat="42.81699989414261" lon="11.134966315915946"><ele>24.0</ele><time>2026-04-06T08:47:20.999Z</time></trkpt><trkpt lat="42.81718298461818" lon="11.134934041710771"><ele>24.0</ele><time>2026-04-06T08:47:21.999Z</time></trkpt><trkpt lat="42.81736523257639" lon="11.134901411652617"><ele>24.0</ele><time>2026-04-06T08:47:22.999Z</time></trkpt><trkpt lat="42.81754422793865" lon="11.134868532137956"><ele>24.666666666666664</ele><time>2026-04-06T08:47:23.999Z</time></trkpt><trkpt lat="42.81772175457983" lon="11.134838994375855"><ele>25.333333333333332</ele><time>2026-04-06T08:47:24.999Z</time></trkpt><trkpt lat="42.817896082526154" lon="11.134811116556243"><ele>26.0</ele><time>2026-04-06T08:47:25.999Z</time></trkpt><trkpt lat="42.818067037429444" lon="11.134782579514608"><ele>26.0</ele><time>2026-04-06T08:47:26.999Z</time></trkpt><trkpt lat="42.81823446286127" lon="11.134757787227958"><ele>26.0</ele><time>2026-04-06T08:47:27.999Z</time></trkpt><trkpt lat="42.818399186048616" lon="11.134731612758854"><ele>26.0</ele><time>2026-04-06T08:47:28.999Z</time></trkpt><trkpt lat="42.818555356058184" lon="11.134705978843328"><ele>26.5</ele><time>2026-04-06T08:47:29.999Z</time></trkpt><trkpt lat="42.81869858324777" lon="11.134684659741177"><ele>27.0</ele><time>2026-04-06T08:47:30.999Z</time></trkpt><trkpt lat="42.818829120289124" lon="11.134659882056246"><ele>27.5</ele><time>2026-04-06T08:47:31.999Z</time></trkpt><trkpt lat="42.81894157172828" lon="11.13464217388837"><ele>28.0</ele><time>2026-04-06T08:47:32.999Z</time></trkpt><trkpt lat="42.819066956366264" lon="11.134618797991113"><ele>28.0</ele><time>2026-04-06T08:47:33.999Z</time></trkpt><trkpt lat="42.81920306869086" lon="11.134591479566405"><ele>28.0</ele><time>2026-04-06T08:47:34.999Z</time></trkpt><trkpt lat="42.81934509012275" lon="11.134564625227764"><ele>28.0</ele><time>2026-04-06T08:47:35.999Z</time></trkpt><trkpt lat="42.81949078493503" lon="11.13453849019838"><ele>28.0</ele><time>2026-04-06T08:47:36.999Z</time></trkpt><trkpt lat="42.819639372976205" lon="11.13451679126642"><ele>28.333333333333336</ele><time>2026-04-06T08:47:37.999Z</time></trkpt><trkpt lat="42.81979162890194" lon="11.13448726512567"><ele>28.666666666666664</ele><time>2026-04-06T08:47:38.999Z</time></trkpt><trkpt lat="42.81994520151169" lon="11.134458613803819"><ele>29.0</ele><time>2026-04-06T08:47:39.999Z</time></trkpt><trkpt lat="42.820099163982064" lon="11.134429575574941"><ele>28.666666666666664</ele><time>2026-04-06T08:47:40.999Z</time></trkpt><trkpt lat="42.820253227760226" lon="11.134406547431418"><ele>28.333333333333336</ele><time>2026-04-06T08:47:41.999Z</time></trkpt><trkpt lat="42.82041013672114" lon="11.134400775493923"><ele>28.0</ele><time>2026-04-06T08:47:42.999Z</time></trkpt><trkpt lat="42.82057025412594" lon="11.134415244675226"><ele>28.0</ele><time>2026-04-06T08:47:43.999Z</time></trkpt><trkpt lat="42.820731640170436" lon="11.134449942477975"><ele>28.0</ele><time>2026-04-06T08:47:44.999Z</time></trkpt><trkpt lat="42.82088504945053" lon="11.134518602485077"><ele>28.0</ele><time>2026-04-06T08:47:45.999Z</time></trkpt><trkpt lat="42.821043900082785" lon="11.13457503977349"><ele>28.666666666666668</ele><time>2026-04-06T08:47:46.999Z</time></trkpt><trkpt lat="42.82121224690799" lon="11.134634850882227"><ele>29.333333333333336</ele><time>2026-04-06T08:47:47.999Z</time></trkpt><trkpt lat="42.821384187290214" lon="11.134695074498637"><ele>30.0</ele><time>2026-04-06T08:47:48.999Z</time></trkpt><trkpt lat="42.821556713209375" lon="11.134755180887806"><ele>30.0</ele><time>2026-04-06T08:47:49.999Z</time></trkpt><trkpt lat="42.8217331120923" lon="11.134816312609324"><ele>30.0</ele><time>2026-04-06T08:47:50.999Z</time></trkpt><trkpt lat="42.821908926314514" lon="11.134877090005933"><ele>30.0</ele><time>2026-04-06T08:47:51.999Z</time></trkpt><trkpt lat="42.822087110643444" lon="11.13491864687983"><ele>30.666666666666664</ele><time>2026-04-06T08:47:52.999Z</time></trkpt><trkpt lat="42.82226203960588" lon="11.134982274660592"><ele>31.333333333333332</ele><time>2026-04-06T08:47:53.999Z</time></trkpt><trkpt lat="42.822436992974225" lon="11.13504223252582"><ele>32.0</ele><time>2026-04-06T08:47:54.999Z</time></trkpt><trkpt lat="42.82260992252341" lon="11.13510023212439"><ele>32.33333333333333</ele><time>2026-04-06T08:47:55.999Z</time></trkpt><trkpt lat="42.822774804363526" lon="11.135182751001317"><ele>32.666666666666664</ele><time>2026-04-06T08:47:56.999Z</time></trkpt><trkpt lat="42.82294282208783" lon="11.135227547646044"><ele>33.0</ele><time>2026-04-06T08:47:57.999Z</time></trkpt><trkpt lat="42.823101210024305" lon="11.135331110110323"><ele>33.0</ele><time>2026-04-06T08:47:58.999Z</time></trkpt><trkpt lat="42.823261818991334" lon="11.135428572306513"><ele>33.0</ele><time>2026-04-06T08:47:59.999Z</time></trkpt><trkpt lat="42.823421138259164" lon="11.135533343041024"><ele>33.0</ele><time>2026-04-06T08:48:00.999Z</time></trkpt><trkpt lat="42.82358459146658" lon="11.13562552681906"><ele>34.0</ele><time>2026-04-06T08:48:01.999Z</time></trkpt><trkpt lat="42.82373451429336" lon="11.135738824610959"><ele>35.0</ele><time>2026-04-06T08:48:02.999Z</time></trkpt><trkpt lat="42.82385895212086" lon="11.135876080808874"><ele>36.0</ele><time>2026-04-06T08:48:03.999Z</time></trkpt><trkpt lat="42.82398267200528" lon="11.13599571662068"><ele>36.0</ele><time>2026-04-06T08:48:04.999Z</time></trkpt><trkpt lat="42.82410593601992" lon="11.136118214304567"><ele>36.0</ele><time>2026-04-06T08:48:05.999Z</time></trkpt><trkpt lat="42.82423018453104" lon="11.136245407612313"><ele>36.0</ele><time>2026-04-06T08:48:06.999Z</time></trkpt><trkpt lat="42.824349028397535" lon="11.136374592341452"><ele>36.333333333333336</ele><time>2026-04-06T08:48:07.999Z</time></trkpt><trkpt lat="42.82446107663946" lon="11.136510964353096"><ele>36.66666666666667</ele><time>2026-04-06T08:48:08.999Z</time></trkpt><trkpt lat="42.82456236541972" lon="11.136668119302662"><ele>37.0</ele><time>2026-04-06T08:48:09.999Z</time></trkpt><trkpt lat="42.82464470687677" lon="11.136847040445247"><ele>37.0</ele><time>2026-04-06T08:48:10.999Z</time></trkpt><trkpt lat="42.82473357363887" lon="11.137026739189354"><ele>37.0</ele><time>2026-04-06T08:48:11.999Z</time></trkpt><trkpt lat="42.82480566985827" lon="11.137223969874045"><ele>37.0</ele><time>2026-04-06T08:48:12.999Z</time></trkpt><trkpt lat="42.824872788393094" lon="11.137427279992076"><ele>37.0</ele><time>2026-04-06T08:48:13.999Z</time></trkpt><trkpt lat="42.8249732522664" lon="11.137612100124342"><ele>37.0</ele><time>2026-04-06T08:48:14.999Z</time></trkpt><trkpt lat="42.825096109967774" lon="11.137782997130357"><ele>37.0</ele><time>2026-04-06T08:48:15.999Z</time></trkpt><trkpt lat="42.825243005592945" lon="11.137903087181758"><ele>36.66666666666667</ele><time>2026-04-06T08:48:16.999Z</time></trkpt><trkpt lat="42.825381556355985" lon="11.138032360140981"><ele>36.333333333333336</ele><time>2026-04-06T08:48:17.999Z</time></trkpt><trkpt lat="42.825519362114285" lon="11.13815672572835"><ele>36.0</ele><time>2026-04-06T08:48:18.999Z</time></trkpt><trkpt lat="42.8256493113365" lon="11.13827597081075"><ele>36.0</ele><time>2026-04-06T08:48:19.999Z</time></trkpt><trkpt lat="42.825784429220136" lon="11.13837662909573"><ele>36.0</ele><time>2026-04-06T08:48:20.999Z</time></trkpt><trkpt lat="42.82593025221027" lon="11.138426454780447"><ele>36.0</ele><time>2026-04-06T08:48:21.998Z</time></trkpt><trkpt lat="42.826085264563446" lon="11.138424519066835"><ele>37.0</ele><time>2026-04-06T08:48:22.998Z</time></trkpt><trkpt lat="42.82624216720069" lon="11.138373935252849"><ele>38.0</ele><time>2026-04-06T08:48:23.998Z</time></trkpt><trkpt lat="42.82639399663428" lon="11.13831067920797"><ele>39.0</ele><time>2026-04-06T08:48:24.998Z</time></trkpt><trkpt lat="42.82655378750235" lon="11.138289523587856"><ele>39.0</ele><time>2026-04-06T08:48:25.998Z</time></trkpt><trkpt lat="42.82670547270299" lon="11.138316702416533"><ele>39.0</ele><time>2026-04-06T08:48:26.998Z</time></trkpt><trkpt lat="42.82686151484862" lon="11.138408164810631"><ele>39.0</ele><time>2026-04-06T08:48:27.998Z</time></trkpt><trkpt lat="42.827013253784436" lon="11.138538567607833"><ele>38.0</ele><time>2026-04-06T08:48:28.998Z</time></trkpt><trkpt lat="42.827167619300994" lon="11.138674911092131"><ele>37.0</ele><time>2026-04-06T08:48:29.998Z</time></trkpt><trkpt lat="42.82732318864635" lon="11.138803746054208"><ele>36.0</ele><time>2026-04-06T08:48:30.998Z</time></trkpt><trkpt lat="42.82748716400993" lon="11.138934001478924"><ele>36.0</ele><time>2026-04-06T08:48:31.998Z</time></trkpt><trkpt lat="42.82765543326385" lon="11.139071932880066"><ele>36.0</ele><time>2026-04-06T08:48:32.998Z</time></trkpt><trkpt lat="42.82782706125647" lon="11.139213196171859"><ele>36.0</ele><time>2026-04-06T08:48:33.998Z</time></trkpt><trkpt lat="42.82800179186666" lon="11.139355482376171"><ele>36.0</ele><time>2026-04-06T08:48:34.998Z</time></trkpt><trkpt lat="42.8281785800105" lon="11.139503484504495"><ele>36.0</ele><time>2026-04-06T08:48:35.998Z</time></trkpt><trkpt lat="42.82835068975359" lon="11.139654405775916"><ele>36.0</ele><time>2026-04-06T08:48:36.998Z</time></trkpt><trkpt lat="42.8285256669484" lon="11.139814980934432"><ele>36.0</ele><time>2026-04-06T08:48:37.998Z</time></trkpt><trkpt lat="42.82870121460426" lon="11.139976446657755"><ele>36.0</ele><time>2026-04-06T08:48:38.998Z</time></trkpt><trkpt lat="42.82887757295739" lon="11.140140696522732"><ele>36.0</ele><time>2026-04-06T08:48:39.998Z</time></trkpt><trkpt lat="42.82905152016795" lon="11.14030725335501"><ele>36.0</ele><time>2026-04-06T08:48:40.998Z</time></trkpt><trkpt lat="42.82922049495908" lon="11.140467604992764"><ele>36.0</ele><time>2026-04-06T08:48:41.998Z</time></trkpt><trkpt lat="42.82939385141386" lon="11.140630132975756"><ele>36.0</ele><time>2026-04-06T08:48:42.998Z</time></trkpt><trkpt lat="42.82956542605439" lon="11.140792623079474"><ele>36.0</ele><time>2026-04-06T08:48:43.998Z</time></trkpt><trkpt lat="42.82973638221348" lon="11.140958309060306"><ele>36.0</ele><time>2026-04-06T08:48:44.998Z</time></trkpt><trkpt lat="42.82991016255339" lon="11.141126046402269"><ele>36.0</ele><time>2026-04-06T08:48:45.998Z</time></trkpt><trkpt lat="42.83008077382261" lon="11.141297397370092"><ele>36.333333333333336</ele><time>2026-04-06T08:48:46.998Z</time></trkpt><trkpt lat="42.83025106487864" lon="11.14147236480319"><ele>36.66666666666667</ele><time>2026-04-06T08:48:47.998Z</time></trkpt><trkpt lat="42.83042302308643" lon="11.141646908779597"><ele>37.0</ele><time>2026-04-06T08:48:48.998Z</time></trkpt><trkpt lat="42.830595362880466" lon="11.141822104698775"><ele>37.0</ele><time>2026-04-06T08:48:49.998Z</time></trkpt><trkpt lat="42.83076497235757" lon="11.142002413058586"><ele>37.0</ele><time>2026-04-06T08:48:50.998Z</time></trkpt><trkpt lat="42.83093620175636" lon="11.14218119114076"><ele>37.0</ele><time>2026-04-06T08:48:51.998Z</time></trkpt><trkpt lat="42.831095561823595" lon="11.142365813943176"><ele>38.0</ele><time>2026-04-06T08:48:52.998Z</time></trkpt><trkpt lat="42.83126295761544" lon="11.142549019109365"><ele>39.0</ele><time>2026-04-06T08:48:53.998Z</time></trkpt><trkpt lat="42.83143361931449" lon="11.142731917517224"><ele>40.0</ele><time>2026-04-06T08:48:54.998Z</time></trkpt><trkpt lat="42.83159987461122" lon="11.142924356410385"><ele>40.0</ele><time>2026-04-06T08:48:55.998Z</time></trkpt><trkpt lat="42.831768356181946" lon="11.143112540696615"><ele>40.0</ele><time>2026-04-06T08:48:56.998Z</time></trkpt><trkpt lat="42.83193638269987" lon="11.143303710022861"><ele>40.0</ele><time>2026-04-06T08:48:57.998Z</time></trkpt><trkpt lat="42.83210338542456" lon="11.143497330302976"><ele>40.333333333333336</ele><time>2026-04-06T08:48:58.998Z</time></trkpt><trkpt lat="42.83227434483731" lon="11.143693326172444"><ele>40.666666666666664</ele><time>2026-04-06T08:48:59.998Z</time></trkpt><trkpt lat="42.83244113581157" lon="11.143892057629374"><ele>41.0</ele><time>2026-04-06T08:49:00.998Z</time></trkpt><trkpt lat="42.832609599709436" lon="11.144093026452174"><ele>44.5</ele><time>2026-04-06T08:49:01.998Z</time></trkpt><trkpt lat="42.832778726930506" lon="11.1442952248767"><ele>48.0</ele><time>2026-04-06T08:49:02.998Z</time></trkpt><trkpt lat="42.83294587311409" lon="11.144501596694257"><ele>48.0</ele><time>2026-04-06T08:49:03.998Z</time></trkpt><trkpt lat="42.83311239386352" lon="11.144707079963698"><ele>48.0</ele><time>2026-04-06T08:49:04.998Z</time></trkpt><trkpt lat="42.833282135374866" lon="11.144910309227306"><ele>47.666666666666664</ele><time>2026-04-06T08:49:05.998Z</time></trkpt><trkpt lat="42.83345104441065" lon="11.145113562698011"><ele>47.33333333333333</ele><time>2026-04-06T08:49:06.998Z</time></trkpt><trkpt lat="42.83361943920985" lon="11.14531505415043"><ele>47.0</ele><time>2026-04-06T08:49:07.998Z</time></trkpt><trkpt lat="42.83378535456249" lon="11.145514656562236"><ele>46.0</ele><time>2026-04-06T08:49:08.998Z</time></trkpt><trkpt lat="42.83394947342446" lon="11.145712952964397"><ele>45.0</ele><time>2026-04-06T08:49:09.998Z</time></trkpt><trkpt lat="42.834111598336996" lon="11.14590697574695"><ele>44.0</ele><time>2026-04-06T08:49:10.998Z</time></trkpt><trkpt lat="42.83427253577703" lon="11.146100777051245"><ele>44.0</ele><time>2026-04-06T08:49:12Z</time></trkpt><trkpt lat="42.83443240200261" lon="11.146290373017527"><ele>44.0</ele><time>2026-04-06T08:49:13Z</time></trkpt><trkpt lat="42.83458988647353" lon="11.14647719344238"><ele>44.0</ele><time>2026-04-06T08:49:14Z</time></trkpt><trkpt lat="42.83474722399318" lon="11.146665545595821"><ele>44.0</ele><time>2026-04-06T08:49:15Z</time></trkpt><trkpt lat="42.83490576449445" lon="11.146851674780683"><ele>44.0</ele><time>2026-04-06T08:49:16Z</time></trkpt><trkpt lat="42.83505968263178" lon="11.147035991406899"><ele>44.0</ele><time>2026-04-06T08:49:17Z</time></trkpt><trkpt lat="42.83521262652927" lon="11.147219617979594"><ele>45.0</ele><time>2026-04-06T08:49:18Z</time></trkpt><trkpt lat="42.835364912654796" lon="11.147400813104843"><ele>46.0</ele><time>2026-04-06T08:49:19Z</time></trkpt><trkpt lat="42.83550713253703" lon="11.147569932840417"><ele>47.0</ele><time>2026-04-06T08:49:20Z</time></trkpt><trkpt lat="42.83563810869556" lon="11.147728319063546"><ele>47.0</ele><time>2026-04-06T08:49:21Z</time></trkpt><trkpt lat="42.835757964576764" lon="11.147872450629714"><ele>47.0</ele><time>2026-04-06T08:49:22Z</time></trkpt><trkpt lat="42.83586234399266" lon="11.147994688395169"><ele>47.0</ele><time>2026-04-06T08:49:23Z</time></trkpt><trkpt lat="42.835953000691006" lon="11.148101224446737"><ele>47.0</ele><time>2026-04-06T08:49:24Z</time></trkpt><trkpt lat="42.83602598829405" lon="11.148188637983456"><ele>46.666666666666664</ele><time>2026-04-06T08:49:25Z</time></trkpt><trkpt lat="42.83609521551976" lon="11.148237816040888"><ele>46.33333333333333</ele><time>2026-04-06T08:49:25.999Z</time></trkpt><trkpt lat="42.836162071953176" lon="11.14822501637735"><ele>46.0</ele><time>2026-04-06T08:49:26.999Z</time></trkpt><trkpt lat="42.836221675000445" lon="11.148168788766775"><ele>45.666666666666664</ele><time>2026-04-06T08:49:27.999Z</time></trkpt><trkpt lat="42.836271053867094" lon="11.148082035720428"><ele>45.333333333333336</ele><time>2026-04-06T08:49:28.999Z</time></trkpt><trkpt lat="42.83632362620636" lon="11.148010629206059"><ele>45.0</ele><time>2026-04-06T08:49:29.999Z</time></trkpt><trkpt lat="42.836405146007486" lon="11.147921916383256"><ele>45.8</ele><time>2026-04-06T08:49:30.999Z</time></trkpt><trkpt lat="42.836519975619105" lon="11.147863929791535"><ele>46.6</ele><time>2026-04-06T08:49:31.999Z</time></trkpt><trkpt lat="42.83660875531523" lon="11.147829978215647"><ele>47.400000000000006</ele><time>2026-04-06T08:49:32.999Z</time></trkpt><trkpt lat="42.83669866830009" lon="11.147852875736511"><ele>48.2</ele><time>2026-04-06T08:49:33.999Z</time></trkpt><trkpt lat="42.83678267720966" lon="11.147922000199486"><ele>49.0</ele><time>2026-04-06T08:49:34.999Z</time></trkpt><trkpt lat="42.836846048127505" lon="11.14803991389877"><ele>49.25</ele><time>2026-04-06T08:49:35.999Z</time></trkpt><trkpt lat="42.83688737014023" lon="11.14819549365824"><ele>49.5</ele><time>2026-04-06T08:49:36.999Z</time></trkpt><trkpt lat="42.83692783853212" lon="11.148360624849422"><ele>49.75</ele><time>2026-04-06T08:49:37.999Z</time></trkpt><trkpt lat="42.8369797092791" lon="11.148532761702706"><ele>50.0</ele><time>2026-04-06T08:49:38.999Z</time></trkpt><trkpt lat="42.83705388136966" lon="11.148708984618214"><ele>49.333333333333336</ele><time>2026-04-06T08:49:39.999Z</time></trkpt><trkpt lat="42.83715143392931" lon="11.14888397053402"><ele>48.66666666666667</ele><time>2026-04-06T08:49:40.999Z</time></trkpt><trkpt lat="42.837260801155324" lon="11.14904734528409"><ele>48.0</ele><time>2026-04-06T08:49:41.999Z</time></trkpt><trkpt lat="42.837387027395245" lon="11.149203753875298"><ele>48.0</ele><time>2026-04-06T08:49:42.999Z</time></trkpt><trkpt lat="42.837524560846205" lon="11.149357155116244"><ele>48.0</ele><time>2026-04-06T08:49:43.999Z</time></trkpt><trkpt lat="42.8376610919653" lon="11.149507560174001"><ele>48.0</ele><time>2026-04-06T08:49:44.999Z</time></trkpt><trkpt lat="42.83779532140638" lon="11.149656629025154"><ele>49.33333333333333</ele><time>2026-04-06T08:49:45.999Z</time></trkpt><trkpt lat="42.83793079633875" lon="11.149806782873208"><ele>50.666666666666664</ele><time>2026-04-06T08:49:46.999Z</time></trkpt><trkpt lat="42.83806976772659" lon="11.149953466007574"><ele>52.0</ele><time>2026-04-06T08:49:47.999Z</time></trkpt><trkpt lat="42.83821366767781" lon="11.150097043981022"><ele>52.0</ele><time>2026-04-06T08:49:48.999Z</time></trkpt><trkpt lat="42.83836500812105" lon="11.15023546041318"><ele>52.0</ele><time>2026-04-06T08:49:49.999Z</time></trkpt><trkpt lat="42.8385191534752" lon="11.150372181097797"><ele>52.0</ele><time>2026-04-06T08:49:50.999Z</time></trkpt><trkpt lat="42.838677334035715" lon="11.150508513977702"><ele>53.666666666666664</ele><time>2026-04-06T08:49:51.999Z</time></trkpt><trkpt lat="42.83883786356803" lon="11.150646639238337"><ele>55.33333333333333</ele><time>2026-04-06T08:49:52.999Z</time></trkpt><trkpt lat="42.838999437586544" lon="11.150790400331044"><ele>57.0</ele><time>2026-04-06T08:49:53.999Z</time></trkpt><trkpt lat="42.839165611308985" lon="11.150937936785501"><ele>59.0</ele><time>2026-04-06T08:49:54.999Z</time></trkpt><trkpt lat="42.839336361448126" lon="11.15108768144683"><ele>61.0</ele><time>2026-04-06T08:49:55.999Z</time></trkpt><trkpt lat="42.83951061145309" lon="11.151238172745956"><ele>63.0</ele><time>2026-04-06T08:49:56.999Z</time></trkpt><trkpt lat="42.83969099035872" lon="11.151391625219517"><ele>60.33333333333333</ele><time>2026-04-06T08:49:57.999Z</time></trkpt><trkpt lat="42.83987537282004" lon="11.151547093323686"><ele>57.666666666666664</ele><time>2026-04-06T08:49:58.999Z</time></trkpt><trkpt lat="42.84005635516812" lon="11.151699726864202"><ele>55.0</ele><time>2026-04-06T08:49:59.999Z</time></trkpt><trkpt lat="42.840238733292914" lon="11.15185451625156"><ele>55.0</ele><time>2026-04-06T08:50:00.999Z</time></trkpt><trkpt lat="42.84042183923044" lon="11.152011674632693"><ele>55.0</ele><time>2026-04-06T08:50:01.999Z</time></trkpt><trkpt lat="42.84060601486515" lon="11.152171647346373"><ele>55.0</ele><time>2026-04-06T08:50:02.999Z</time></trkpt><trkpt lat="42.840791766393124" lon="11.152328563576729"><ele>55.0</ele><time>2026-04-06T08:50:03.999Z</time></trkpt><trkpt lat="42.8409786474925" lon="11.152481611271226"><ele>55.0</ele><time>2026-04-06T08:50:04.999Z</time></trkpt><trkpt lat="42.84116505924275" lon="11.152629237035223"><ele>55.0</ele><time>2026-04-06T08:50:05.999Z</time></trkpt><trkpt lat="42.84135256792177" lon="11.152772387140063"><ele>55.0</ele><time>2026-04-06T08:50:06.999Z</time></trkpt><trkpt lat="42.84154142238467" lon="11.152911692905533"><ele>55.0</ele><time>2026-04-06T08:50:07.999Z</time></trkpt><trkpt lat="42.84173296068954" lon="11.153039712269765"><ele>55.0</ele><time>2026-04-06T08:50:08.999Z</time></trkpt><trkpt lat="42.841923661420495" lon="11.153164125317707"><ele>54.33333333333333</ele><time>2026-04-06T08:50:09.999Z</time></trkpt><trkpt lat="42.84211707207275" lon="11.153289854058464"><ele>53.66666666666667</ele><time>2026-04-06T08:50:10.999Z</time></trkpt><trkpt lat="42.84231013277364" lon="11.153413939548539"><ele>53.0</ele><time>2026-04-06T08:50:11.999Z</time></trkpt><trkpt lat="42.84250538763446" lon="11.153537853944501"><ele>53.66666666666667</ele><time>2026-04-06T08:50:12.999Z</time></trkpt><trkpt lat="42.84270381403862" lon="11.153661912292515"><ele>54.33333333333333</ele><time>2026-04-06T08:50:13.999Z</time></trkpt><trkpt lat="42.84290332317691" lon="11.153785132461918"><ele>55.0</ele><time>2026-04-06T08:50:14.999Z</time></trkpt><trkpt lat="42.843106159181566" lon="11.153909010927709"><ele>55.0</ele><time>2026-04-06T08:50:15.999Z</time></trkpt><trkpt lat="42.84331053038071" lon="11.154033833838048"><ele>55.0</ele><time>2026-04-06T08:50:16.999Z</time></trkpt><trkpt lat="42.84351639991367" lon="11.154159087899258"><ele>55.0</ele><time>2026-04-06T08:50:17.999Z</time></trkpt><trkpt lat="42.843720587765105" lon="11.15428865106371"><ele>55.5</ele><time>2026-04-06T08:50:18.999Z</time></trkpt><trkpt lat="42.84392314786752" lon="11.154425419388156"><ele>56.0</ele><time>2026-04-06T08:50:19.999Z</time></trkpt><trkpt lat="42.84412470237993" lon="11.15456955020327"><ele>56.0</ele><time>2026-04-06T08:50:20.999Z</time></trkpt><trkpt lat="42.84432630354281" lon="11.154713226365077"><ele>56.0</ele><time>2026-04-06T08:50:21.998Z</time></trkpt><trkpt lat="42.844530926538226" lon="11.154849843124962"><ele>56.0</ele><time>2026-04-06T08:50:22.998Z</time></trkpt><trkpt lat="42.844738804642084" lon="11.15497865229015"><ele>56.0</ele><time>2026-04-06T08:50:23.998Z</time></trkpt><trkpt lat="42.8449481516667" lon="11.155107949229318"><ele>56.0</ele><time>2026-04-06T08:50:24.998Z</time></trkpt><trkpt lat="42.84515698965727" lon="11.155235210598015"><ele>56.0</ele><time>2026-04-06T08:50:25.998Z</time></trkpt><trkpt lat="42.84536589926797" lon="11.155366519960493"><ele>56.0</ele><time>2026-04-06T08:50:26.998Z</time></trkpt><trkpt lat="42.84557536939157" lon="11.155499455230526"><ele>56.0</ele><time>2026-04-06T08:50:27.998Z</time></trkpt><trkpt lat="42.84578526771064" lon="11.155633161642807"><ele>56.5</ele><time>2026-04-06T08:50:28.998Z</time></trkpt><trkpt lat="42.84599488096535" lon="11.155767129129305"><ele>57.0</ele><time>2026-04-06T08:50:29.998Z</time></trkpt><trkpt lat="42.84620368742178" lon="11.155901716197574"><ele>57.0</ele><time>2026-04-06T08:50:30.998Z</time></trkpt><trkpt lat="42.84641125126325" lon="11.15603727505177"><ele>57.0</ele><time>2026-04-06T08:50:31.998Z</time></trkpt><trkpt lat="42.846617798665015" lon="11.156174711580297"><ele>58.0</ele><time>2026-04-06T08:50:32.998Z</time></trkpt><trkpt lat="42.84682369826678" lon="11.156307846613773"><ele>59.0</ele><time>2026-04-06T08:50:33.998Z</time></trkpt><trkpt lat="42.84703009994372" lon="11.156439922562091"><ele>59.0</ele><time>2026-04-06T08:50:34.998Z</time></trkpt><trkpt lat="42.84723490966299" lon="11.156570465655447"><ele>59.0</ele><time>2026-04-06T08:50:35.998Z</time></trkpt><trkpt lat="42.84743845931566" lon="11.156700828054705"><ele>60.0</ele><time>2026-04-06T08:50:36.998Z</time></trkpt><trkpt lat="42.8476415942172" lon="11.156831672304923"><ele>61.0</ele><time>2026-04-06T08:50:37.998Z</time></trkpt><trkpt lat="42.847843953214934" lon="11.156963275676363"><ele>62.0</ele><time>2026-04-06T08:50:38.998Z</time></trkpt><trkpt lat="42.84804738030056" lon="11.15709249403758"><ele>62.0</ele><time>2026-04-06T08:50:39.998Z</time></trkpt><trkpt lat="42.84825152942262" lon="11.157219042179504"><ele>62.0</ele><time>2026-04-06T08:50:40.998Z</time></trkpt><trkpt lat="42.848459188930505" lon="11.157335746017836"><ele>62.0</ele><time>2026-04-06T08:50:41.998Z</time></trkpt><trkpt lat="42.848671316512494" lon="11.157434013641023"><ele>62.66666666666667</ele><time>2026-04-06T08:50:42.998Z</time></trkpt><trkpt lat="42.84888897564964" lon="11.1575063274681"><ele>63.33333333333333</ele><time>2026-04-06T08:50:43.998Z</time></trkpt><trkpt lat="42.84910867268568" lon="11.157564417380218"><ele>64.0</ele><time>2026-04-06T08:50:44.998Z</time></trkpt><trkpt lat="42.84932960330412" lon="11.1576123566437"><ele>65.0</ele><time>2026-04-06T08:50:45.998Z</time></trkpt><trkpt lat="42.84954871898001" lon="11.157660321880273"><ele>66.0</ele><time>2026-04-06T08:50:46.998Z</time></trkpt><trkpt lat="42.84976329993015" lon="11.157720435417563"><ele>67.0</ele><time>2026-04-06T08:50:47.998Z</time></trkpt><trkpt lat="42.84996904817393" lon="11.157808341391164"><ele>68.33333333333333</ele><time>2026-04-06T08:50:48.998Z</time></trkpt><trkpt lat="42.85016086289976" lon="11.157932970597082"><ele>69.66666666666667</ele><time>2026-04-06T08:50:49.998Z</time></trkpt><trkpt lat="42.85033933490839" lon="11.158089801431741"><ele>71.0</ele><time>2026-04-06T08:50:50.998Z</time></trkpt><trkpt lat="42.8505109823494" lon="11.158263153835005"><ele>71.0</ele><time>2026-04-06T08:50:51.998Z</time></trkpt><trkpt lat="42.85068198029998" lon="11.158442513000967"><ele>71.0</ele><time>2026-04-06T08:50:52.998Z</time></trkpt><trkpt lat="42.850855507686376" lon="11.158620162601244"><ele>71.0</ele><time>2026-04-06T08:50:53.998Z</time></trkpt><trkpt lat="42.85103087210837" lon="11.158798300847169"><ele>72.0</ele><time>2026-04-06T08:50:54.998Z</time></trkpt><trkpt lat="42.85120927344424" lon="11.158977671180237"><ele>73.0</ele><time>2026-04-06T08:50:55.998Z</time></trkpt><trkpt lat="42.85138794739704" lon="11.159160006226061"><ele>74.0</ele><time>2026-04-06T08:50:56.998Z</time></trkpt><trkpt lat="42.85156776180175" lon="11.159346438146116"><ele>74.0</ele><time>2026-04-06T08:50:57.998Z</time></trkpt><trkpt lat="42.85174863093613" lon="11.159534014638663"><ele>74.0</ele><time>2026-04-06T08:50:58.998Z</time></trkpt><trkpt lat="42.85192971937981" lon="11.159719976682378"><ele>74.5</ele><time>2026-04-06T08:50:59.998Z</time></trkpt><trkpt lat="42.852111311639504" lon="11.159904010939377"><ele>75.0</ele><time>2026-04-06T08:51:00.998Z</time></trkpt><trkpt lat="42.85229154815803" lon="11.160089138473698"><ele>75.0</ele><time>2026-04-06T08:51:01.998Z</time></trkpt><trkpt lat="42.85247143165993" lon="11.160274350940131"><ele>75.0</ele><time>2026-04-06T08:51:02.998Z</time></trkpt><trkpt lat="42.85265068505603" lon="11.160455788683741"><ele>75.0</ele><time>2026-04-06T08:51:03.998Z</time></trkpt><trkpt lat="42.852832446598946" lon="11.160630017934942"><ele>76.0</ele><time>2026-04-06T08:51:04.998Z</time></trkpt><trkpt lat="42.853016729497845" lon="11.160796165625781"><ele>77.0</ele><time>2026-04-06T08:51:05.998Z</time></trkpt><trkpt lat="42.853203677626986" lon="11.160951965833975"><ele>78.0</ele><time>2026-04-06T08:51:06.998Z</time></trkpt><trkpt lat="42.853397531095155" lon="11.161095072573003"><ele>78.66666666666667</ele><time>2026-04-06T08:51:07.998Z</time></trkpt><trkpt lat="42.85359877010186" lon="11.161224648992174"><ele>79.33333333333334</ele><time>2026-04-06T08:51:08.998Z</time></trkpt><trkpt lat="42.85380657201461" lon="11.161335617966218"><ele>80.0</ele><time>2026-04-06T08:51:09.998Z</time></trkpt><trkpt lat="42.854021919644765" lon="11.161416448653407"><ele>80.0</ele><time>2026-04-06T08:51:10.998Z</time></trkpt><trkpt lat="42.85424398570158" lon="11.16147130414335"><ele>80.0</ele><time>2026-04-06T08:51:11.998Z</time></trkpt><trkpt lat="42.85446901390269" lon="11.16151453740177"><ele>79.5</ele><time>2026-04-06T08:51:12.998Z</time></trkpt><trkpt lat="42.85469452685217" lon="11.161556064139868"><ele>79.0</ele><time>2026-04-06T08:51:13.998Z</time></trkpt><trkpt lat="42.854920564945196" lon="11.161595580788367"><ele>80.5</ele><time>2026-04-06T08:51:14.998Z</time></trkpt><trkpt lat="42.85514540971768" lon="11.161635279351309"><ele>82.0</ele><time>2026-04-06T08:51:15.997Z</time></trkpt><trkpt lat="42.855370004248726" lon="11.161677940167557"><ele>82.0</ele><time>2026-04-06T08:51:16.999Z</time></trkpt><trkpt lat="42.8555937784348" lon="11.161720395354122"><ele>82.0</ele><time>2026-04-06T08:51:17.999Z</time></trkpt><trkpt lat="42.855816849304674" lon="11.16176236286842"><ele>82.33333333333333</ele><time>2026-04-06T08:51:18.999Z</time></trkpt><trkpt lat="42.85603974477962" lon="11.161801801344557"><ele>82.66666666666667</ele><time>2026-04-06T08:51:19.999Z</time></trkpt><trkpt lat="42.85625932159211" lon="11.161842935984682"><ele>83.0</ele><time>2026-04-06T08:51:20.999Z</time></trkpt><trkpt lat="42.85647716521324" lon="11.161897154482325"><ele>83.0</ele><time>2026-04-06T08:51:21.999Z</time></trkpt><trkpt lat="42.85669513291026" lon="11.161971010574783"><ele>83.0</ele><time>2026-04-06T08:51:22.999Z</time></trkpt><trkpt lat="42.856909541121766" lon="11.162061520391996"><ele>83.0</ele><time>2026-04-06T08:51:23.999Z</time></trkpt><trkpt lat="42.85711941359217" lon="11.16217664485152"><ele>84.0</ele><time>2026-04-06T08:51:24.999Z</time></trkpt><trkpt lat="42.8573307733486" lon="11.162289374680668"><ele>85.0</ele><time>2026-04-06T08:51:25.999Z</time></trkpt><trkpt lat="42.85754323518009" lon="11.162396347117902"><ele>87.5</ele><time>2026-04-06T08:51:26.999Z</time></trkpt><trkpt lat="42.8577587696498" lon="11.16250166929388"><ele>90.0</ele><time>2026-04-06T08:51:27.999Z</time></trkpt><trkpt lat="42.85797257450696" lon="11.162606635425455"><ele>90.0</ele><time>2026-04-06T08:51:28.999Z</time></trkpt><trkpt lat="42.858185872105786" lon="11.16271238273261"><ele>90.0</ele><time>2026-04-06T08:51:29.999Z</time></trkpt><trkpt lat="42.85839952718483" lon="11.16281946536202"><ele>91.0</ele><time>2026-04-06T08:51:30.999Z</time></trkpt><trkpt lat="42.858611968367605" lon="11.162925969607562"><ele>92.0</ele><time>2026-04-06T08:51:31.999Z</time></trkpt><trkpt lat="42.8588246767413" lon="11.163032906366803"><ele>92.0</ele><time>2026-04-06T08:51:32.999Z</time></trkpt><trkpt lat="42.859039019564946" lon="11.163138139522795"><ele>92.0</ele><time>2026-04-06T08:51:33.999Z</time></trkpt><trkpt lat="42.85925204409275" lon="11.163245395958567"><ele>95.5</ele><time>2026-04-06T08:51:34.999Z</time></trkpt><trkpt lat="42.85946397822858" lon="11.163353833626276"><ele>99.0</ele><time>2026-04-06T08:51:35.999Z</time></trkpt><trkpt lat="42.85967621697754" lon="11.163461789334008"><ele>99.0</ele><time>2026-04-06T08:51:36.999Z</time></trkpt><trkpt lat="42.859889203535815" lon="11.163567168661615"><ele>99.0</ele><time>2026-04-06T08:51:37.999Z</time></trkpt><trkpt lat="42.8601018433638" lon="11.163670555766817"><ele>99.5</ele><time>2026-04-06T08:51:38.999Z</time></trkpt><trkpt lat="42.86031530218479" lon="11.16377153181773"><ele>100.0</ele><time>2026-04-06T08:51:39.999Z</time></trkpt><trkpt lat="42.86052698776062" lon="11.163874417505289"><ele>100.0</ele><time>2026-04-06T08:51:40.999Z</time></trkpt><trkpt lat="42.86073826426937" lon="11.163979481275593"><ele>100.0</ele><time>2026-04-06T08:51:41.999Z</time></trkpt><trkpt lat="42.8609495817533" lon="11.164085305554678"><ele>101.33333333333334</ele><time>2026-04-06T08:51:42.999Z</time></trkpt><trkpt lat="42.86116095671624" lon="11.164189680296193"><ele>102.66666666666666</ele><time>2026-04-06T08:51:43.999Z</time></trkpt><trkpt lat="42.86137176090944" lon="11.16429442662488"><ele>104.0</ele><time>2026-04-06T08:51:44.999Z</time></trkpt><trkpt lat="42.86158344702736" lon="11.164403477667102"><ele>103.0</ele><time>2026-04-06T08:51:45.999Z</time></trkpt><trkpt lat="42.8617945662663" lon="11.1645059825124"><ele>102.0</ele><time>2026-04-06T08:51:46.999Z</time></trkpt><trkpt lat="42.86200814365471" lon="11.164608244866702"><ele>102.0</ele><time>2026-04-06T08:51:47.999Z</time></trkpt><trkpt lat="42.86222283068488" lon="11.164709866619178"><ele>102.0</ele><time>2026-04-06T08:51:48.999Z</time></trkpt><trkpt lat="42.86243762367792" lon="11.16480407860335"><ele>104.0</ele><time>2026-04-06T08:51:49.999Z</time></trkpt><trkpt lat="42.86265468678091" lon="11.164881440617132"><ele>106.0</ele><time>2026-04-06T08:51:50.999Z</time></trkpt><trkpt lat="42.86287463586653" lon="11.16493840401905"><ele>108.0</ele><time>2026-04-06T08:51:51.999Z</time></trkpt><trkpt lat="42.86309697137671" lon="11.164972748481157"><ele>108.0</ele><time>2026-04-06T08:51:52.999Z</time></trkpt><trkpt lat="42.863318200704455" lon="11.16499449986444"><ele>108.0</ele><time>2026-04-06T08:51:53.999Z</time></trkpt><trkpt lat="42.863538812118534" lon="11.16501433173362"><ele>108.0</ele><time>2026-04-06T08:51:54.999Z</time></trkpt><trkpt lat="42.863756622733604" lon="11.165062921443184"><ele>108.33333333333334</ele><time>2026-04-06T08:51:55.999Z</time></trkpt><trkpt lat="42.863971923711844" lon="11.165084605598087"><ele>108.66666666666667</ele><time>2026-04-06T08:51:56.999Z</time></trkpt><trkpt lat="42.864188519822164" lon="11.165085749035716"><ele>109.0</ele><time>2026-04-06T08:51:57.999Z</time></trkpt><trkpt lat="42.864399491786145" lon="11.165110642611005"><ele>110.66666666666667</ele><time>2026-04-06T08:51:58.999Z</time></trkpt><trkpt lat="42.864605728511776" lon="11.165133919896634"><ele>112.33333333333334</ele><time>2026-04-06T08:51:59.999Z</time></trkpt><trkpt lat="42.86480646027765" lon="11.165158223142868"><ele>114.0</ele><time>2026-04-06T08:52:00.999Z</time></trkpt><trkpt lat="42.86499433874843" lon="11.165182730021089"><ele>117.66666666666666</ele><time>2026-04-06T08:52:01.999Z</time></trkpt><trkpt lat="42.86517188876001" lon="11.165202540567618"><ele>121.33333333333333</ele><time>2026-04-06T08:52:02.999Z</time></trkpt><trkpt lat="42.865347272680125" lon="11.165204983897357"><ele>125.0</ele><time>2026-04-06T08:52:03.999Z</time></trkpt><trkpt lat="42.86552090510173" lon="11.16516544098266"><ele>125.0</ele><time>2026-04-06T08:52:04.999Z</time></trkpt><trkpt lat="42.86568919103651" lon="11.165084798309616"><ele>125.0</ele><time>2026-04-06T08:52:05.999Z</time></trkpt><trkpt lat="42.86585023719511" lon="11.164972143476403"><ele>125.0</ele><time>2026-04-06T08:52:06.999Z</time></trkpt><trkpt lat="42.8660063790123" lon="11.164843697957515"><ele>123.0</ele><time>2026-04-06T08:52:07.999Z</time></trkpt><trkpt lat="42.86616707451531" lon="11.16472807281012"><ele>121.0</ele><time>2026-04-06T08:52:08.999Z</time></trkpt><trkpt lat="42.866334239052435" lon="11.164632299764977"><ele>119.0</ele><time>2026-04-06T08:52:09.999Z</time></trkpt><trkpt lat="42.86650305695318" lon="11.164564067820352"><ele>119.0</ele><time>2026-04-06T08:52:10.999Z</time></trkpt><trkpt lat="42.86667475783904" lon="11.164528303083848"><ele>119.0</ele><time>2026-04-06T08:52:11.999Z</time></trkpt><trkpt lat="42.86684363591587" lon="11.164521310388022"><ele>119.0</ele><time>2026-04-06T08:52:12.999Z</time></trkpt><trkpt lat="42.86699963988531" lon="11.164561647818047"><ele>120.33333333333333</ele><time>2026-04-06T08:52:13.999Z</time></trkpt><trkpt lat="42.867151984149984" lon="11.164617527380456"><ele>121.66666666666666</ele><time>2026-04-06T08:52:14.999Z</time></trkpt><trkpt lat="42.86730203569592" lon="11.164694144062796"><ele>123.0</ele><time>2026-04-06T08:52:15.998Z</time></trkpt><trkpt lat="42.86745227517947" lon="11.164766122491182"><ele>123.0</ele><time>2026-04-06T08:52:16.998Z</time></trkpt><trkpt lat="42.867590995471296" lon="11.164890826856883"><ele>123.0</ele><time>2026-04-06T08:52:17.998Z</time></trkpt><trkpt lat="42.86772064006155" lon="11.165045082951815"><ele>123.0</ele><time>2026-04-06T08:52:18.998Z</time></trkpt><trkpt lat="42.867844133828385" lon="11.165215256149617"><ele>123.0</ele><time>2026-04-06T08:52:19.998Z</time></trkpt><trkpt lat="42.867969104017405" lon="11.16538785711301"><ele>123.0</ele><time>2026-04-06T08:52:20.998Z</time></trkpt><trkpt lat="42.868096104446536" lon="11.165562834131126"><ele>123.0</ele><time>2026-04-06T08:52:21.998Z</time></trkpt><trkpt lat="42.86822499500293" lon="11.165735123843945"><ele>123.66666666666666</ele><time>2026-04-06T08:52:22.998Z</time></trkpt><trkpt lat="42.86835372001409" lon="11.165902881170354"><ele>124.33333333333333</ele><time>2026-04-06T08:52:23.998Z</time></trkpt><trkpt lat="42.86847946033998" lon="11.16606655537724"><ele>125.0</ele><time>2026-04-06T08:52:24.998Z</time></trkpt><trkpt lat="42.868600752677715" lon="11.166225007305925"><ele>125.0</ele><time>2026-04-06T08:52:25.998Z</time></trkpt><trkpt lat="42.86871974381302" lon="11.166378371993982"><ele>125.0</ele><time>2026-04-06T08:52:26.998Z</time></trkpt><trkpt lat="42.8688355523504" lon="11.166532068016286"><ele>125.0</ele><time>2026-04-06T08:52:27.998Z</time></trkpt><trkpt lat="42.868941192880946" lon="11.166700765278051"><ele>128.33333333333331</ele><time>2026-04-06T08:52:28.998Z</time></trkpt><trkpt lat="42.8690311856635" lon="11.166894319697619"><ele>131.66666666666666</ele><time>2026-04-06T08:52:29.998Z</time></trkpt><trkpt lat="42.86910778377475" lon="11.167091162156868"><ele>135.0</ele><time>2026-04-06T08:52:30.998Z</time></trkpt><trkpt lat="42.86916834198486" lon="11.167289749446391"><ele>137.5</ele><time>2026-04-06T08:52:31.998Z</time></trkpt><trkpt lat="42.86921373613689" lon="11.167490574536172"><ele>140.0</ele><time>2026-04-06T08:52:32.998Z</time></trkpt><trkpt lat="42.86924234772724" lon="11.167677005202073"><ele>142.5</ele><time>2026-04-06T08:52:33.998Z</time></trkpt><trkpt lat="42.86925651422868" lon="11.167832236996455"><ele>145.0</ele><time>2026-04-06T08:52:34.998Z</time></trkpt><trkpt lat="42.86927099449399" lon="11.167989870170548"><ele>142.25</ele><time>2026-04-06T08:52:35.998Z</time></trkpt><trkpt lat="42.86929301841048" lon="11.168159354761537"><ele>139.5</ele><time>2026-04-06T08:52:36.998Z</time></trkpt><trkpt lat="42.869327545888304" lon="11.168341641079397"><ele>136.75</ele><time>2026-04-06T08:52:37.998Z</time></trkpt><trkpt lat="42.86936410892127" lon="11.168536650920402"><ele>134.0</ele><time>2026-04-06T08:52:38.998Z</time></trkpt><trkpt lat="42.86940493396476" lon="11.168738078556286"><ele>134.0</ele><time>2026-04-06T08:52:39.998Z</time></trkpt><trkpt lat="42.86947494885134" lon="11.168938509211875"><ele>134.0</ele><time>2026-04-06T08:52:40.998Z</time></trkpt><trkpt lat="42.86957264383111" lon="11.169126303616565"><ele>134.0</ele><time>2026-04-06T08:52:41.998Z</time></trkpt><trkpt lat="42.86969238396518" lon="11.169300745497912"><ele>137.0</ele><time>2026-04-06T08:52:42.998Z</time></trkpt><trkpt lat="42.869830658558" lon="11.169459997314345"><ele>140.0</ele><time>2026-04-06T08:52:43.998Z</time></trkpt><trkpt lat="42.869969175538536" lon="11.169618738980743"><ele>143.0</ele><time>2026-04-06T08:52:44.998Z</time></trkpt><trkpt lat="42.87010618960312" lon="11.169784430633605"><ele>144.33333333333331</ele><time>2026-04-06T08:52:45.998Z</time></trkpt><trkpt lat="42.87024096391753" lon="11.169954691129755"><ele>145.66666666666666</ele><time>2026-04-06T08:52:46.998Z</time></trkpt><trkpt lat="42.870377178918204" lon="11.17012709527851"><ele>147.0</ele><time>2026-04-06T08:52:47.998Z</time></trkpt><trkpt lat="42.87051133059179" lon="11.17030208112606"><ele>147.0</ele><time>2026-04-06T08:52:48.998Z</time></trkpt><trkpt lat="42.870647149050015" lon="11.170477760887342"><ele>147.0</ele><time>2026-04-06T08:52:49.998Z</time></trkpt><trkpt lat="42.870789810780614" lon="11.170647887424428"><ele>147.0</ele><time>2026-04-06T08:52:50.998Z</time></trkpt><trkpt lat="42.87093359084493" lon="11.170819345880483"><ele>147.66666666666666</ele><time>2026-04-06T08:52:51.998Z</time></trkpt><trkpt lat="42.871069886022426" lon="11.170996305583232"><ele>148.33333333333331</ele><time>2026-04-06T08:52:52.998Z</time></trkpt><trkpt lat="42.87119027174636" lon="11.171189208047345"><ele>149.0</ele><time>2026-04-06T08:52:53.998Z</time></trkpt><trkpt lat="42.871286354245434" lon="11.171409538100852"><ele>152.0</ele><time>2026-04-06T08:52:54.998Z</time></trkpt><trkpt lat="42.871355599023794" lon="11.171653009026317"><ele>155.0</ele><time>2026-04-06T08:52:55.998Z</time></trkpt><trkpt lat="42.871392818253284" lon="11.1719072078516"><ele>158.0</ele><time>2026-04-06T08:52:56.998Z</time></trkpt><trkpt lat="42.87139900000043" lon="11.172162196341032"><ele>160.33333333333331</ele><time>2026-04-06T08:52:57.998Z</time></trkpt><trkpt lat="42.87137459717974" lon="11.172414667202009"><ele>162.66666666666666</ele><time>2026-04-06T08:52:58.998Z</time></trkpt><trkpt lat="42.87131958814033" lon="11.1726574253996"><ele>165.0</ele><time>2026-04-06T08:52:59.998Z</time></trkpt><trkpt lat="42.87126306400544" lon="11.172897770194613"><ele>165.0</ele><time>2026-04-06T08:53:00.998Z</time></trkpt><trkpt lat="42.87124329865832" lon="11.173148004414651"><ele>165.0</ele><time>2026-04-06T08:53:01.998Z</time></trkpt><trkpt lat="42.87124514168533" lon="11.173399044791793"><ele>165.0</ele><time>2026-04-06T08:53:02.998Z</time></trkpt><trkpt lat="42.871248094542786" lon="11.173645430488968"><ele>167.33333333333334</ele><time>2026-04-06T08:53:03.998Z</time></trkpt><trkpt lat="42.871246922752135" lon="11.173878985191783"><ele>169.66666666666669</ele><time>2026-04-06T08:53:04.998Z</time></trkpt><trkpt lat="42.87126153166131" lon="11.174111014220845"><ele>172.0</ele><time>2026-04-06T08:53:05.998Z</time></trkpt><trkpt lat="42.871310258881714" lon="11.174338442228589"><ele>172.33333333333334</ele><time>2026-04-06T08:53:06.998Z</time></trkpt><trkpt lat="42.87139466546101" lon="11.174553441301226"><ele>172.66666666666666</ele><time>2026-04-06T08:53:07.998Z</time></trkpt><trkpt lat="42.87151663777133" lon="11.174748611047512"><ele>173.0</ele><time>2026-04-06T08:53:08.998Z</time></trkpt><trkpt lat="42.87163997364628" lon="11.17494508914957"><ele>171.33333333333331</ele><time>2026-04-06T08:53:09.998Z</time></trkpt><trkpt lat="42.87176339996402" lon="11.17515166416905"><ele>169.66666666666666</ele><time>2026-04-06T08:53:10.998Z</time></trkpt><trkpt lat="42.87188628290595" lon="11.175365500103855"><ele>168.0</ele><time>2026-04-06T08:53:11.998Z</time></trkpt><trkpt lat="42.872011349502074" lon="11.175587494661515"><ele>170.0</ele><time>2026-04-06T08:53:12.998Z</time></trkpt><trkpt lat="42.87213572926168" lon="11.175810122904064"><ele>172.0</ele><time>2026-04-06T08:53:13.997Z</time></trkpt><trkpt lat="42.87226096567976" lon="11.176038041566956"><ele>174.0</ele><time>2026-04-06T08:53:14.997Z</time></trkpt><trkpt lat="42.87238847476326" lon="11.1762604916404"><ele>174.0</ele><time>2026-04-06T08:53:15.997Z</time></trkpt><trkpt lat="42.87251556938193" lon="11.176484280876469"><ele>174.0</ele><time>2026-04-06T08:53:16.997Z</time></trkpt><trkpt lat="42.87264231152294" lon="11.176710333368812"><ele>174.0</ele><time>2026-04-06T08:53:17.997Z</time></trkpt><trkpt lat="42.872768026399974" lon="11.176929462570001"><ele>175.0</ele><time>2026-04-06T08:53:18.997Z</time></trkpt><trkpt lat="42.87289038272914" lon="11.177142247663125"><ele>176.0</ele><time>2026-04-06T08:53:19.997Z</time></trkpt><trkpt lat="42.87300760054214" lon="11.177346855114118"><ele>177.0</ele><time>2026-04-06T08:53:20.997Z</time></trkpt><trkpt lat="42.873111541391374" lon="11.177543780746994"><ele>177.0</ele><time>2026-04-06T08:53:21.997Z</time></trkpt><trkpt lat="42.87319591448624" lon="11.177748294569906"><ele>177.0</ele><time>2026-04-06T08:53:22.999Z</time></trkpt><trkpt lat="42.87324670269209" lon="11.177981619436904"><ele>177.0</ele><time>2026-04-06T08:53:23.999Z</time></trkpt><trkpt lat="42.8732415958665" lon="11.17821375780646"><ele>178.0</ele><time>2026-04-06T08:53:24.999Z</time></trkpt><trkpt lat="42.87317611556988" lon="11.178426163923971"><ele>179.0</ele><time>2026-04-06T08:53:25.999Z</time></trkpt><trkpt lat="42.87306588507479" lon="11.178587215110406"><ele>180.0</ele><time>2026-04-06T08:53:26.999Z</time></trkpt><trkpt lat="42.872917081831716" lon="11.178674622035308"><ele>180.0</ele><time>2026-04-06T08:53:27.999Z</time></trkpt><trkpt lat="42.87276806451802" lon="11.178760651918658"><ele>180.0</ele><time>2026-04-06T08:53:28.999Z</time></trkpt><trkpt lat="42.87262947508142" lon="11.178868055058828"><ele>180.0</ele><time>2026-04-06T08:53:29.999Z</time></trkpt><trkpt lat="42.87249485117038" lon="11.178999393071246"><ele>183.66666666666666</ele><time>2026-04-06T08:53:30.999Z</time></trkpt><trkpt lat="42.87236140315873" lon="11.179138484156233"><ele>187.33333333333331</ele><time>2026-04-06T08:53:31.999Z</time></trkpt><trkpt lat="42.87223507642821" lon="11.179288028037378"><ele>191.0</ele><time>2026-04-06T08:53:32.999Z</time></trkpt><trkpt lat="42.87212665828515" lon="11.179452835800543"><ele>191.0</ele><time>2026-04-06T08:53:33.999Z</time></trkpt><trkpt lat="42.87204154869608" lon="11.179640214429433"><ele>191.0</ele><time>2026-04-06T08:53:34.999Z</time></trkpt><trkpt lat="42.872000281901926" lon="11.17985008127734"><ele>191.0</ele><time>2026-04-06T08:53:35.999Z</time></trkpt><trkpt lat="42.87200623137538" lon="11.18005963580947"><ele>193.33333333333331</ele><time>2026-04-06T08:53:36.999Z</time></trkpt><trkpt lat="42.87205930095821" lon="11.180257718237709"><ele>195.66666666666666</ele><time>2026-04-06T08:53:37.999Z</time></trkpt><trkpt lat="42.87215775423288" lon="11.180444451798637"><ele>198.0</ele><time>2026-04-06T08:53:38.999Z</time></trkpt><trkpt lat="42.87224675463006" lon="11.180640893151919"><ele>197.66666666666669</ele><time>2026-04-06T08:53:39.999Z</time></trkpt><trkpt lat="42.87232762084991" lon="11.180854355043074"><ele>197.33333333333334</ele><time>2026-04-06T08:53:40.999Z</time></trkpt><trkpt lat="42.8724085902111" lon="11.181074172729627"><ele>197.0</ele><time>2026-04-06T08:53:41.999Z</time></trkpt><trkpt lat="42.87249481984598" lon="11.181290625503378"><ele>197.0</ele><time>2026-04-06T08:53:42.999Z</time></trkpt><trkpt lat="42.87258111655369" lon="11.181513517515612"><ele>197.0</ele><time>2026-04-06T08:53:43.999Z</time></trkpt><trkpt lat="42.87266594530381" lon="11.181738664333198"><ele>197.0</ele><time>2026-04-06T08:53:44.999Z</time></trkpt><trkpt lat="42.872750293447794" lon="11.181962309611693"><ele>198.66666666666669</ele><time>2026-04-06T08:53:45.999Z</time></trkpt><trkpt lat="42.872831736686074" lon="11.182186653853963"><ele>200.33333333333331</ele><time>2026-04-06T08:53:46.999Z</time></trkpt><trkpt lat="42.87289959354788" lon="11.182417305813983"><ele>202.0</ele><time>2026-04-06T08:53:47.999Z</time></trkpt><trkpt lat="42.87295140265385" lon="11.182650829518469"><ele>202.66666666666666</ele><time>2026-04-06T08:53:48.999Z</time></trkpt><trkpt lat="42.87298973054091" lon="11.182892170394574"><ele>203.33333333333331</ele><time>2026-04-06T08:53:49.999Z</time></trkpt><trkpt lat="42.87302222588151" lon="11.183141591792458"><ele>204.0</ele><time>2026-04-06T08:53:50.999Z</time></trkpt><trkpt lat="42.87305654245849" lon="11.183394081754713"><ele>202.66666666666669</ele><time>2026-04-06T08:53:51.999Z</time></trkpt><trkpt lat="42.87309277838201" lon="11.18364333048699"><ele>201.33333333333334</ele><time>2026-04-06T08:53:52.999Z</time></trkpt><trkpt lat="42.873135407005826" lon="11.183892348870788"><ele>200.0</ele><time>2026-04-06T08:53:53.999Z</time></trkpt><trkpt lat="42.87319228176163" lon="11.184138149255137"><ele>197.66666666666669</ele><time>2026-04-06T08:53:54.999Z</time></trkpt><trkpt lat="42.8732626051037" lon="11.184384451694585"><ele>195.33333333333331</ele><time>2026-04-06T08:53:55.999Z</time></trkpt><trkpt lat="42.87333635646354" lon="11.184636307564219"><ele>193.0</ele><time>2026-04-06T08:53:56.999Z</time></trkpt><trkpt lat="42.873407001780784" lon="11.18489324584726"><ele>193.66666666666666</ele><time>2026-04-06T08:53:57.999Z</time></trkpt><trkpt lat="42.87347704359256" lon="11.185148950176716"><ele>194.33333333333331</ele><time>2026-04-06T08:53:58.999Z</time></trkpt><trkpt lat="42.87354747329233" lon="11.185404443561954"><ele>195.0</ele><time>2026-04-06T08:53:59.999Z</time></trkpt><trkpt lat="42.87361838147525" lon="11.185658975732318"><ele>194.0</ele><time>2026-04-06T08:54:00.999Z</time></trkpt><trkpt lat="42.87368849259726" lon="11.185911529562338"><ele>193.0</ele><time>2026-04-06T08:54:01.999Z</time></trkpt><trkpt lat="42.873756946041375" lon="11.186163575586606"><ele>192.0</ele><time>2026-04-06T08:54:02.999Z</time></trkpt><trkpt lat="42.87382246779061" lon="11.186415098082513"><ele>191.33333333333334</ele><time>2026-04-06T08:54:03.999Z</time></trkpt><trkpt lat="42.87387846750799" lon="11.186667503512215"><ele>190.66666666666669</ele><time>2026-04-06T08:54:04.999Z</time></trkpt><trkpt lat="42.87390956693353" lon="11.186924963170163"><ele>190.0</ele><time>2026-04-06T08:54:05.999Z</time></trkpt><trkpt lat="42.87391632924293" lon="11.187184152001185"><ele>191.33333333333334</ele><time>2026-04-06T08:54:06.999Z</time></trkpt><trkpt lat="42.87389097884081" lon="11.187439534335542"><ele>192.66666666666669</ele><time>2026-04-06T08:54:07.999Z</time></trkpt><trkpt lat="42.87384025277038" lon="11.187685045668315"><ele>194.0</ele><time>2026-04-06T08:54:08.999Z</time></trkpt><trkpt lat="42.87379881413897" lon="11.187926847849393"><ele>194.0</ele><time>2026-04-06T08:54:09.999Z</time></trkpt><trkpt lat="42.8737985850619" lon="11.188167214818307"><ele>194.0</ele><time>2026-04-06T08:54:10.999Z</time></trkpt><trkpt lat="42.87384438258781" lon="11.188406673931958"><ele>194.0</ele><time>2026-04-06T08:54:11.999Z</time></trkpt><trkpt lat="42.87391638811749" lon="11.188642133531394"><ele>193.66666666666669</ele><time>2026-04-06T08:54:12.999Z</time></trkpt><trkpt lat="42.873997437334474" lon="11.18887963611769"><ele>193.33333333333331</ele><time>2026-04-06T08:54:13.999Z</time></trkpt><trkpt lat="42.87407386778319" lon="11.189124959360697"><ele>193.0</ele><time>2026-04-06T08:54:14.999Z</time></trkpt><trkpt lat="42.874144306410216" lon="11.18937698577763"><ele>193.0</ele><time>2026-04-06T08:54:15.999Z</time></trkpt><trkpt lat="42.87421323118773" lon="11.189633637186446"><ele>193.0</ele><time>2026-04-06T08:54:16.999Z</time></trkpt><trkpt lat="42.87428288086853" lon="11.189889685001578"><ele>193.0</ele><time>2026-04-06T08:54:17.999Z</time></trkpt><trkpt lat="42.87435343819749" lon="11.1901466237908"><ele>194.66666666666666</ele><time>2026-04-06T08:54:18.999Z</time></trkpt><trkpt lat="42.87441927712243" lon="11.190402334182034"><ele>196.33333333333331</ele><time>2026-04-06T08:54:19.998Z</time></trkpt><trkpt lat="42.87447775075337" lon="11.19065777335216"><ele>198.0</ele><time>2026-04-06T08:54:20.998Z</time></trkpt><trkpt lat="42.874527674778264" lon="11.1909027739479"><ele>199.33333333333331</ele><time>2026-04-06T08:54:21.998Z</time></trkpt><trkpt lat="42.87457837725747" lon="11.19114089290156"><ele>200.66666666666666</ele><time>2026-04-06T08:54:22.998Z</time></trkpt><trkpt lat="42.87462762872735" lon="11.191379530059832"><ele>202.0</ele><time>2026-04-06T08:54:23.998Z</time></trkpt><trkpt lat="42.87466390655199" lon="11.191627664256057"><ele>203.66666666666666</ele><time>2026-04-06T08:54:24.998Z</time></trkpt><trkpt lat="42.8746811876669" lon="11.1918836658838"><ele>205.33333333333331</ele><time>2026-04-06T08:54:25.998Z</time></trkpt><trkpt lat="42.87467212969025" lon="11.19214286733532"><ele>207.0</ele><time>2026-04-06T08:54:26.998Z</time></trkpt><trkpt lat="42.87466652569908" lon="11.192403990934901"><ele>207.0</ele><time>2026-04-06T08:54:27.998Z</time></trkpt><trkpt lat="42.874668930215606" lon="11.192660006830236"><ele>207.0</ele><time>2026-04-06T08:54:28.998Z</time></trkpt><trkpt lat="42.87467111242659" lon="11.192918190189413"><ele>207.0</ele><time>2026-04-06T08:54:29.998Z</time></trkpt><trkpt lat="42.87467572387438" lon="11.193176683632991"><ele>207.0</ele><time>2026-04-06T08:54:30.998Z</time></trkpt><trkpt lat="42.87467670446618" lon="11.193434936531172"><ele>207.0</ele><time>2026-04-06T08:54:31.998Z</time></trkpt><trkpt lat="42.87467854583158" lon="11.19368844772231"><ele>207.0</ele><time>2026-04-06T08:54:32.998Z</time></trkpt><trkpt lat="42.87468008842888" lon="11.193942833421595"><ele>207.0</ele><time>2026-04-06T08:54:33.998Z</time></trkpt><trkpt lat="42.87467763665645" lon="11.194188560077352"><ele>207.0</ele><time>2026-04-06T08:54:34.998Z</time></trkpt><trkpt lat="42.8746743155089" lon="11.194436723391085"><ele>207.0</ele><time>2026-04-06T08:54:35.998Z</time></trkpt><trkpt lat="42.874670476954286" lon="11.19468695292996"><ele>207.33333333333331</ele><time>2026-04-06T08:54:36.998Z</time></trkpt><trkpt lat="42.87466573635655" lon="11.194939352874794"><ele>207.66666666666666</ele><time>2026-04-06T08:54:37.998Z</time></trkpt><trkpt lat="42.87466192343045" lon="11.195190902999444"><ele>208.0</ele><time>2026-04-06T08:54:38.998Z</time></trkpt><trkpt lat="42.87465723255878" lon="11.19543961350141"><ele>208.33333333333331</ele><time>2026-04-06T08:54:39.998Z</time></trkpt><trkpt lat="42.874656169941986" lon="11.195687863679527"><ele>208.66666666666669</ele><time>2026-04-06T08:54:40.998Z</time></trkpt><trkpt lat="42.87466143036698" lon="11.195934103604783"><ele>209.0</ele><time>2026-04-06T08:54:41.998Z</time></trkpt><trkpt lat="42.87468250351715" lon="11.19618153790939"><ele>209.0</ele><time>2026-04-06T08:54:42.998Z</time></trkpt><trkpt lat="42.87471962254753" lon="11.1964263511111"><ele>209.0</ele><time>2026-04-06T08:54:43.998Z</time></trkpt><trkpt lat="42.874757282358466" lon="11.196668981817949"><ele>209.0</ele><time>2026-04-06T08:54:44.998Z</time></trkpt><trkpt lat="42.87479677394163" lon="11.196910172789584"><ele>208.66666666666669</ele><time>2026-04-06T08:54:45.998Z</time></trkpt><trkpt lat="42.87484366794424" lon="11.197143896251918"><ele>208.33333333333331</ele><time>2026-04-06T08:54:46.998Z</time></trkpt><trkpt lat="42.87491883675223" lon="11.19736880826195"><ele>208.0</ele><time>2026-04-06T08:54:47.998Z</time></trkpt><trkpt lat="42.8749816915984" lon="11.197598876180425"><ele>205.0</ele><time>2026-04-06T08:54:48.998Z</time></trkpt><trkpt lat="42.87501435213788" lon="11.197834888750078"><ele>202.0</ele><time>2026-04-06T08:54:49.998Z</time></trkpt><trkpt lat="42.87502439089389" lon="11.198076422354495"><ele>199.0</ele><time>2026-04-06T08:54:50.998Z</time></trkpt><trkpt lat="42.87503658200303" lon="11.19831691214275"><ele>198.33333333333331</ele><time>2026-04-06T08:54:51.998Z</time></trkpt><trkpt lat="42.87506063707392" lon="11.198557938910984"><ele>197.66666666666669</ele><time>2026-04-06T08:54:52.998Z</time></trkpt><trkpt lat="42.87509158385268" lon="11.198796082101723"><ele>197.0</ele><time>2026-04-06T08:54:53.998Z</time></trkpt><trkpt lat="42.87513483546868" lon="11.199028081131152"><ele>197.0</ele><time>2026-04-06T08:54:54.998Z</time></trkpt><trkpt lat="42.8751851430339" lon="11.199247658900072"><ele>197.0</ele><time>2026-04-06T08:54:55.998Z</time></trkpt><trkpt lat="42.875247896345314" lon="11.199453649867875"><ele>197.0</ele><time>2026-04-06T08:54:56.998Z</time></trkpt><trkpt lat="42.87534100824089" lon="11.199640837119912"><ele>197.0</ele><time>2026-04-06T08:54:57.998Z</time></trkpt><trkpt lat="42.87544973516408" lon="11.199807916042776"><ele>197.0</ele><time>2026-04-06T08:54:58.998Z</time></trkpt><trkpt lat="42.87555893240657" lon="11.199968211624695"><ele>197.0</ele><time>2026-04-06T08:54:59.998Z</time></trkpt><trkpt lat="42.87565704752365" lon="11.200133478036234"><ele>193.0</ele><time>2026-04-06T08:55:00.998Z</time></trkpt><trkpt lat="42.875728070364715" lon="11.20031553430231"><ele>189.0</ele><time>2026-04-06T08:55:01.998Z</time></trkpt><trkpt lat="42.875724889803664" lon="11.200529447182184"><ele>185.0</ele><time>2026-04-06T08:55:02.998Z</time></trkpt><trkpt lat="42.87568810071153" lon="11.200751809534516"><ele>180.33333333333331</ele><time>2026-04-06T08:55:03.998Z</time></trkpt><trkpt lat="42.87565005029896" lon="11.200996439098809"><ele>175.66666666666666</ele><time>2026-04-06T08:55:04.998Z</time></trkpt><trkpt lat="42.87557937155516" lon="11.201242235499265"><ele>171.0</ele><time>2026-04-06T08:55:05.998Z</time></trkpt><trkpt lat="42.87552122467022" lon="11.201492032957347"><ele>170.0</ele><time>2026-04-06T08:55:06.998Z</time></trkpt><trkpt lat="42.87547448802747" lon="11.201741132082834"><ele>169.0</ele><time>2026-04-06T08:55:07.998Z</time></trkpt><trkpt lat="42.87542531557927" lon="11.202001704925582"><ele>168.0</ele><time>2026-04-06T08:55:08.998Z</time></trkpt><trkpt lat="42.87537641256086" lon="11.202253066782593"><ele>166.0</ele><time>2026-04-06T08:55:09.998Z</time></trkpt><trkpt lat="42.87532347326173" lon="11.202505912423769"><ele>164.0</ele><time>2026-04-06T08:55:10.998Z</time></trkpt><trkpt lat="42.87528872259251" lon="11.202744076768068"><ele>162.0</ele><time>2026-04-06T08:55:11.998Z</time></trkpt><trkpt lat="42.87529799556647" lon="11.2029816975913"><ele>159.66666666666666</ele><time>2026-04-06T08:55:12.998Z</time></trkpt><trkpt lat="42.87534866050982" lon="11.203207679524164"><ele>157.33333333333331</ele><time>2026-04-06T08:55:13.998Z</time></trkpt><trkpt lat="42.87538197325034" lon="11.203452461810539"><ele>155.0</ele><time>2026-04-06T08:55:14.998Z</time></trkpt><trkpt lat="42.8753244886872" lon="11.20369584027406"><ele>155.0</ele><time>2026-04-06T08:55:15.998Z</time></trkpt><trkpt lat="42.87529715887665" lon="11.203842809113612"><ele>155.0</ele><time>2026-04-06T08:55:16.998Z</time></trkpt><trkpt lat="42.875261384425" lon="11.204024643788154"><ele>155.0</ele><time>2026-04-06T08:55:17.998Z</time></trkpt><trkpt lat="42.875196937686695" lon="11.20435221427651"><ele>154.66666666666666</ele><time>2026-04-06T08:55:18.998Z</time></trkpt><trkpt lat="42.875148742196416" lon="11.20455490275337"><ele>154.33333333333334</ele><time>2026-04-06T08:55:19.998Z</time></trkpt><trkpt lat="42.8750885794818" lon="11.204742738797277"><ele>154.0</ele><time>2026-04-06T08:55:20.998Z</time></trkpt><trkpt lat="42.8750140134845" lon="11.204933929504971"><ele>153.0</ele><time>2026-04-06T08:55:21.998Z</time></trkpt><trkpt lat="42.874947621028724" lon="11.20510259537438"><ele>152.0</ele><time>2026-04-06T08:55:22.998Z</time></trkpt><trkpt lat="42.87487754400305" lon="11.205280515567505"><ele>151.0</ele><time>2026-04-06T08:55:23.998Z</time></trkpt><trkpt lat="42.87481621766139" lon="11.205403850208732"><ele>150.0</ele><time>2026-04-06T08:55:24.998Z</time></trkpt><trkpt lat="42.87473647542164" lon="11.20556178384916"><ele>149.0</ele><time>2026-04-06T08:55:25.997Z</time></trkpt><trkpt lat="42.87466209309787" lon="11.205709102167278"><ele>148.0</ele><time>2026-04-06T08:55:26.997Z</time></trkpt><trkpt lat="42.8745919839524" lon="11.20584795722827"><ele>147.0</ele><time>2026-04-06T08:55:28.069Z</time></trkpt><trkpt lat="42.874549560264036" lon="11.205931979669076"><ele>146.0</ele><time>2026-04-06T08:55:29.05Z</time></trkpt><trkpt lat="42.8749284782013" lon="11.206465548401708"><ele>145.0</ele><time>2026-04-06T08:55:30.042Z</time></trkpt><trkpt lat="42.87486798818155" lon="11.206649088144996"><ele>144.0</ele><time>2026-04-06T08:55:31.036Z</time></trkpt><trkpt lat="42.87480759545992" lon="11.206855768158254"><ele>143.0</ele><time>2026-04-06T08:55:32.035Z</time></trkpt><trkpt lat="42.874394056729685" lon="11.208980606252075"><ele>146.0</ele><time>2026-04-06T08:55:42.583Z</time></trkpt><trkpt lat="42.874944599428154" lon="11.206213595112292"><ele>145.5</ele><time>2026-04-06T08:55:44.029Z</time></trkpt><trkpt lat="42.875129146499596" lon="11.206334743508812"><ele>145.0</ele><time>2026-04-06T08:55:46.03Z</time></trkpt><trkpt lat="42.8751777167975" lon="11.206394479063388"><ele>144.5</ele><time>2026-04-06T08:55:47.03Z</time></trkpt><trkpt lat="42.87524534314398" lon="11.20644278936189"><ele>144.0</ele><time>2026-04-06T08:55:48.031Z</time></trkpt><trkpt lat="42.875334523743994" lon="11.206553601391448"><ele>144.0</ele><time>2026-04-06T08:55:49.027Z</time></trkpt><trkpt lat="42.87534235122783" lon="11.206652509677323"><ele>144.0</ele><time>2026-04-06T08:55:51.029Z</time></trkpt><trkpt lat="42.87551114242334" lon="11.206886740821801"><ele>144.0</ele><time>2026-04-06T08:56:00.026Z</time></trkpt><trkpt lat="42.875594907189274" lon="11.206892674507523"><ele>144.0</ele><time>2026-04-06T08:56:01.026Z</time></trkpt><trkpt lat="42.87570368339049" lon="11.206905019057634"><ele>144.0</ele><time>2026-04-06T08:56:02.028Z</time></trkpt><trkpt lat="42.87580426734142" lon="11.206916902066888"><ele>144.0</ele><time>2026-04-06T08:56:03.025Z</time></trkpt><trkpt lat="42.875931764066294" lon="11.20721360021816"><ele>144.0</ele><time>2026-04-06T08:56:04.026Z</time></trkpt><trkpt lat="42.876108777092284" lon="11.207274483155281"><ele>144.66666666666666</ele><time>2026-04-06T08:56:05.025Z</time></trkpt><trkpt lat="42.87621692027448" lon="11.207361356942867"><ele>145.33333333333331</ele><time>2026-04-06T08:56:06.025Z</time></trkpt><trkpt lat="42.876344892666324" lon="11.207510021372041"><ele>146.0</ele><time>2026-04-06T08:56:07.026Z</time></trkpt><trkpt lat="42.87647889811452" lon="11.20766161986066"><ele>146.0</ele><time>2026-04-06T08:56:08.028Z</time></trkpt><trkpt lat="42.87665877563668" lon="11.207794555694942"><ele>146.0</ele><time>2026-04-06T08:56:09.027Z</time></trkpt><trkpt lat="42.87682712014529" lon="11.207874392878175"><ele>146.0</ele><time>2026-04-06T08:56:10.027Z</time></trkpt><trkpt lat="42.87694152195948" lon="11.207923192375777"><ele>148.2</ele><time>2026-04-06T08:56:11.011Z</time></trkpt><trkpt lat="42.877117515991" lon="11.207977721301182"><ele>150.39999999999998</ele><time>2026-04-06T08:56:12.012Z</time></trkpt><trkpt lat="42.877186830763144" lon="11.207977941631203"><ele>152.6</ele><time>2026-04-06T08:56:13.012Z</time></trkpt><trkpt lat="42.87727623013963" lon="11.207949605890091"><ele>154.79999999999998</ele><time>2026-04-06T08:56:14.013Z</time></trkpt><trkpt lat="42.87736999345157" lon="11.207939408570192"><ele>157.0</ele><time>2026-04-06T08:56:15.012Z</time></trkpt><trkpt lat="42.877547418694384" lon="11.207985990236116"><ele>155.66666666666669</ele><time>2026-04-06T08:56:16.013Z</time></trkpt><trkpt lat="42.87771995137218" lon="11.208105595107876"><ele>154.33333333333334</ele><time>2026-04-06T08:56:17.013Z</time></trkpt><trkpt lat="42.87788603493197" lon="11.208231491357123"><ele>153.0</ele><time>2026-04-06T08:56:18.011Z</time></trkpt><trkpt lat="42.87794874225015" lon="11.208293784563342"><ele>153.0</ele><time>2026-04-06T08:56:19.012Z</time></trkpt><trkpt lat="42.87809305897314" lon="11.20843027287469"><ele>153.0</ele><time>2026-04-06T08:56:20.011Z</time></trkpt><trkpt lat="42.88786001842093" lon="11.228397895843978"><ele>132.0</ele><time>2026-04-06T08:57:21.996Z</time></trkpt><trkpt lat="42.887834078727735" lon="11.228707357226277"><ele>111.0</ele><time>2026-04-06T08:57:22.996Z</time></trkpt><trkpt lat="42.88780163305704" lon="11.229026960607799"><ele>111.0</ele><time>2026-04-06T08:57:23.996Z</time></trkpt><trkpt lat="42.8877790929441" lon="11.22931160449663"><ele>111.0</ele><time>2026-04-06T08:57:24.996Z</time></trkpt><trkpt lat="42.88775240147939" lon="11.229614782748383"><ele>111.0</ele><time>2026-04-06T08:57:25.996Z</time></trkpt><trkpt lat="42.88771803318414" lon="11.229930558663886"><ele>112.0</ele><time>2026-04-06T08:57:26.996Z</time></trkpt><trkpt lat="42.887665892221946" lon="11.2302085958441"><ele>113.0</ele><time>2026-04-06T08:57:27.996Z</time></trkpt><trkpt lat="42.88763409747011" lon="11.23051674783899"><ele>114.0</ele><time>2026-04-06T08:57:28.999Z</time></trkpt><trkpt lat="42.88760469829791" lon="11.23080659216807"><ele>110.0</ele><time>2026-04-06T08:57:29.999Z</time></trkpt><trkpt lat="42.887576121484" lon="11.231083060566963"><ele>106.0</ele><time>2026-04-06T08:57:30.999Z</time></trkpt><trkpt lat="42.88754729240893" lon="11.23135251540111"><ele>102.0</ele><time>2026-04-06T08:57:31.999Z</time></trkpt><trkpt lat="42.887523179148594" lon="11.231636467160177"><ele>102.0</ele><time>2026-04-06T08:57:32.999Z</time></trkpt><trkpt lat="42.887518599830294" lon="11.231925222950434"><ele>102.0</ele><time>2026-04-06T08:57:33.999Z</time></trkpt><trkpt lat="42.887510437043844" lon="11.232207795111597"><ele>102.0</ele><time>2026-04-06T08:57:34.999Z</time></trkpt><trkpt lat="42.88753841730586" lon="11.232491797777543"><ele>101.0</ele><time>2026-04-06T08:57:35.999Z</time></trkpt><trkpt lat="42.88760638335096" lon="11.232757000690427"><ele>100.0</ele><time>2026-04-06T08:57:36.999Z</time></trkpt><trkpt lat="42.88770110145431" lon="11.233011953318508"><ele>99.0</ele><time>2026-04-06T08:57:37.999Z</time></trkpt><trkpt lat="42.88782922093042" lon="11.233268421861306"><ele>99.0</ele><time>2026-04-06T08:57:38.999Z</time></trkpt><trkpt lat="42.88797778715404" lon="11.23348312168313"><ele>99.0</ele><time>2026-04-06T08:57:39.999Z</time></trkpt><trkpt lat="42.88814561081242" lon="11.233692748067636"><ele>99.0</ele><time>2026-04-06T08:57:40.999Z</time></trkpt><trkpt lat="42.888320991429296" lon="11.233900824044193"><ele>98.5</ele><time>2026-04-06T08:57:41.999Z</time></trkpt><trkpt lat="42.888514467907655" lon="11.23413036907953"><ele>98.0</ele><time>2026-04-06T08:57:42.999Z</time></trkpt><trkpt lat="42.88871658072445" lon="11.234370160644882"><ele>98.0</ele><time>2026-04-06T08:57:43.999Z</time></trkpt><trkpt lat="42.88879885959106" lon="11.234467778335222"><ele>98.0</ele><time>2026-04-06T08:57:44.999Z</time></trkpt><trkpt lat="42.88896510621827" lon="11.234664537036002"><ele>98.0</ele><time>2026-04-06T08:57:45.999Z</time></trkpt><trkpt lat="42.88913105489212" lon="11.234860622544462"><ele>97.0</ele><time>2026-04-06T08:57:46.999Z</time></trkpt><trkpt lat="42.8892737674317" lon="11.2350335534513"><ele>96.0</ele><time>2026-04-06T08:57:47.999Z</time></trkpt><trkpt lat="42.889398232794015" lon="11.235144432956911"><ele>95.0</ele><time>2026-04-06T08:57:48.999Z</time></trkpt><trkpt lat="42.88953248296216" lon="11.235203756281955"><ele>95.0</ele><time>2026-04-06T08:57:49.999Z</time></trkpt><trkpt lat="42.889637594726416" lon="11.235178064044652"><ele>95.0</ele><time>2026-04-06T08:57:50.999Z</time></trkpt><trkpt lat="42.88975987401281" lon="11.235134644108415"><ele>95.0</ele><time>2026-04-06T08:57:51.999Z</time></trkpt><trkpt lat="42.889843411304824" lon="11.235106160311659"><ele>95.0</ele><time>2026-04-06T08:57:52.999Z</time></trkpt><trkpt lat="42.88992529953747" lon="11.235021806194283"><ele>95.0</ele><time>2026-04-06T08:57:53.999Z</time></trkpt><trkpt lat="42.89005206234393" lon="11.234933526914457"><ele>96.0</ele><time>2026-04-06T08:57:54.999Z</time></trkpt><trkpt lat="42.89020876282729" lon="11.234827382809044"><ele>97.0</ele><time>2026-04-06T08:57:55.999Z</time></trkpt><trkpt lat="42.89039886791968" lon="11.234714894119797"><ele>98.0</ele><time>2026-04-06T08:57:56.999Z</time></trkpt><trkpt lat="42.89052006480378" lon="11.234622439953231"><ele>98.5</ele><time>2026-04-06T08:57:57.999Z</time></trkpt><trkpt lat="42.890663443608965" lon="11.23458450164308"><ele>99.0</ele><time>2026-04-06T08:57:58.999Z</time></trkpt><trkpt lat="42.8908017520052" lon="11.234607719122975"><ele>99.5</ele><time>2026-04-06T08:57:59.999Z</time></trkpt><trkpt lat="42.89095906043503" lon="11.23467124473117"><ele>100.0</ele><time>2026-04-06T08:58:00.999Z</time></trkpt><trkpt lat="42.89107868655231" lon="11.234817080655642"><ele>100.0</ele><time>2026-04-06T08:58:01.999Z</time></trkpt><trkpt lat="42.8911877002371" lon="11.234981311555238"><ele>100.0</ele><time>2026-04-06T08:58:02.999Z</time></trkpt><trkpt lat="42.89134791373896" lon="11.235106578999243"><ele>100.0</ele><time>2026-04-06T08:58:03.999Z</time></trkpt><trkpt lat="42.89150509143768" lon="11.235257336191083"><ele>100.0</ele><time>2026-04-06T08:58:04.999Z</time></trkpt><trkpt lat="42.891642505815575" lon="11.235387246933136"><ele>100.0</ele><time>2026-04-06T08:58:05.999Z</time></trkpt><trkpt lat="42.89176156107781" lon="11.235533815978942"><ele>100.0</ele><time>2026-04-06T08:58:06.999Z</time></trkpt><trkpt lat="42.8918581940742" lon="11.2356977895739"><ele>98.66666666666667</ele><time>2026-04-06T08:58:07.999Z</time></trkpt><trkpt lat="42.891922786020025" lon="11.235883347471544"><ele>97.33333333333334</ele><time>2026-04-06T08:58:08.999Z</time></trkpt><trkpt lat="42.89197681001569" lon="11.236090960771493"><ele>96.0</ele><time>2026-04-06T08:58:09.999Z</time></trkpt><trkpt lat="42.892056295141614" lon="11.2362787906608"><ele>96.0</ele><time>2026-04-06T08:58:10.999Z</time></trkpt><trkpt lat="42.89217464090618" lon="11.23645349474892"><ele>96.0</ele><time>2026-04-06T08:58:11.999Z</time></trkpt><trkpt lat="42.89231785154888" lon="11.236619396521494"><ele>96.0</ele><time>2026-04-06T08:58:12.999Z</time></trkpt><trkpt lat="42.892470959787644" lon="11.236746539454586"><ele>94.66666666666667</ele><time>2026-04-06T08:58:13.999Z</time></trkpt><trkpt lat="42.89263878246463" lon="11.236832631725774"><ele>93.33333333333334</ele><time>2026-04-06T08:58:14.999Z</time></trkpt><trkpt lat="42.892808523141746" lon="11.236933490924926"><ele>92.0</ele><time>2026-04-06T08:58:15.999Z</time></trkpt><trkpt lat="42.89298861708913" lon="11.237048828350947"><ele>92.0</ele><time>2026-04-06T08:58:16.999Z</time></trkpt><trkpt lat="42.89316126018571" lon="11.23715372930254"><ele>92.0</ele><time>2026-04-06T08:58:17.999Z</time></trkpt><trkpt lat="42.89334064493166" lon="11.237256916009919"><ele>92.0</ele><time>2026-04-06T08:58:18.999Z</time></trkpt><trkpt lat="42.893523026167266" lon="11.237366591931924"><ele>92.33333333333334</ele><time>2026-04-06T08:58:19.999Z</time></trkpt><trkpt lat="42.89370835220909" lon="11.237478013600319"><ele>92.66666666666667</ele><time>2026-04-06T08:58:20.999Z</time></trkpt><trkpt lat="42.893895391858486" lon="11.237586538775567"><ele>93.0</ele><time>2026-04-06T08:58:21.999Z</time></trkpt><trkpt lat="42.89408243582729" lon="11.237702028028288"><ele>93.0</ele><time>2026-04-06T08:58:22.999Z</time></trkpt><trkpt lat="42.89426849756221" lon="11.237815545264874"><ele>93.0</ele><time>2026-04-06T08:58:23.999Z</time></trkpt><trkpt lat="42.894458179849565" lon="11.237917864452102"><ele>93.0</ele><time>2026-04-06T08:58:24.999Z</time></trkpt><trkpt lat="42.894659553406505" lon="11.237961950564724"><ele>93.0</ele><time>2026-04-06T08:58:25.999Z</time></trkpt><trkpt lat="42.89487289442168" lon="11.237980757550645"><ele>93.0</ele><time>2026-04-06T08:58:26.999Z</time></trkpt><trkpt lat="42.89509605678781" lon="11.23798154368878"><ele>93.0</ele><time>2026-04-06T08:58:27.999Z</time></trkpt><trkpt lat="42.89530574461245" lon="11.23801292821404"><ele>92.33333333333333</ele><time>2026-04-06T08:58:28.999Z</time></trkpt><trkpt lat="42.89550636049501" lon="11.238069174347126"><ele>91.66666666666666</ele><time>2026-04-06T08:58:29.999Z</time></trkpt><trkpt lat="42.89571494202652" lon="11.238132600692373"><ele>91.0</ele><time>2026-04-06T08:58:30.999Z</time></trkpt><trkpt lat="42.89592690684953" lon="11.238190388209096"><ele>90.33333333333333</ele><time>2026-04-06T08:58:31.999Z</time></trkpt><trkpt lat="42.89613992017629" lon="11.238244079766087"><ele>89.66666666666667</ele><time>2026-04-06T08:58:32.999Z</time></trkpt><trkpt lat="42.896352838803494" lon="11.238305420619339"><ele>89.0</ele><time>2026-04-06T08:58:33.999Z</time></trkpt><trkpt lat="42.896548077616735" lon="11.238421700676097"><ele>89.0</ele><time>2026-04-06T08:58:34.999Z</time></trkpt><trkpt lat="42.896736524183574" lon="11.238556741422778"><ele>89.0</ele><time>2026-04-06T08:58:35.999Z</time></trkpt><trkpt lat="42.896932821410026" lon="11.238692499857835"><ele>89.0</ele><time>2026-04-06T08:58:36.999Z</time></trkpt><trkpt lat="42.897120518104884" lon="11.238852213009178"><ele>88.33333333333334</ele><time>2026-04-06T08:58:37.999Z</time></trkpt><trkpt lat="42.89731472845883" lon="11.239002203756055"><ele>87.66666666666667</ele><time>2026-04-06T08:58:38.999Z</time></trkpt><trkpt lat="42.89751360521019" lon="11.239144037881498"><ele>87.0</ele><time>2026-04-06T08:58:39.999Z</time></trkpt><trkpt lat="42.89771563483348" lon="11.239273889513287"><ele>90.0</ele><time>2026-04-06T08:58:40.999Z</time></trkpt><trkpt lat="42.89792377200131" lon="11.239391437610044"><ele>93.0</ele><time>2026-04-06T08:58:41.999Z</time></trkpt><trkpt lat="42.8981425144525" lon="11.239487286590009"><ele>93.0</ele><time>2026-04-06T08:58:42.999Z</time></trkpt><trkpt lat="42.898358443740946" lon="11.239561326414528"><ele>93.0</ele><time>2026-04-06T08:58:43.999Z</time></trkpt><trkpt lat="42.89857291376995" lon="11.239634195848234"><ele>93.0</ele><time>2026-04-06T08:58:44.999Z</time></trkpt><trkpt lat="42.89878661794191" lon="11.239715286178015"><ele>92.5</ele><time>2026-04-06T08:58:45.999Z</time></trkpt><trkpt lat="42.89900185703606" lon="11.239796735864312"><ele>92.0</ele><time>2026-04-06T08:58:46.999Z</time></trkpt><trkpt lat="42.89922134198199" lon="11.239879108279368"><ele>89.0</ele><time>2026-04-06T08:58:47.999Z</time></trkpt><trkpt lat="42.899441899534885" lon="11.239959331556326"><ele>86.0</ele><time>2026-04-06T08:58:48.999Z</time></trkpt><trkpt lat="42.89966308793587" lon="11.24004004264012"><ele>86.0</ele><time>2026-04-06T08:58:49.999Z</time></trkpt><trkpt lat="42.89988428447847" lon="11.240128272465"><ele>86.0</ele><time>2026-04-06T08:58:50.999Z</time></trkpt><trkpt lat="42.90011046398325" lon="11.240206717640126"><ele>86.0</ele><time>2026-04-06T08:58:51.999Z</time></trkpt><trkpt lat="42.90033832550364" lon="11.24029269921705"><ele>86.0</ele><time>2026-04-06T08:58:52.999Z</time></trkpt><trkpt lat="42.90056595916242" lon="11.240376036337413"><ele>86.0</ele><time>2026-04-06T08:58:53.999Z</time></trkpt><trkpt lat="42.900793023857375" lon="11.240460752004457"><ele>86.0</ele><time>2026-04-06T08:58:54.999Z</time></trkpt><trkpt lat="42.90102188436514" lon="11.240544925406953"><ele>86.0</ele><time>2026-04-06T08:58:55.999Z</time></trkpt><trkpt lat="42.90124867029136" lon="11.24063013998953"><ele>86.0</ele><time>2026-04-06T08:58:56.999Z</time></trkpt><trkpt lat="42.90147930512663" lon="11.240716999534108"><ele>83.0</ele><time>2026-04-06T08:58:57.998Z</time></trkpt><trkpt lat="42.90170924415235" lon="11.24080450396419"><ele>80.0</ele><time>2026-04-06T08:58:58.998Z</time></trkpt><trkpt lat="42.9019380385383" lon="11.24089558351461"><ele>80.0</ele><time>2026-04-06T08:58:59.998Z</time></trkpt><trkpt lat="42.902164725616224" lon="11.240988114293675"><ele>80.0</ele><time>2026-04-06T08:59:00.998Z</time></trkpt><trkpt lat="42.90239061709804" lon="11.241091841986586"><ele>83.0</ele><time>2026-04-06T08:59:01.998Z</time></trkpt><trkpt lat="42.90261399076434" lon="11.241209129563531"><ele>86.0</ele><time>2026-04-06T08:59:02.998Z</time></trkpt><trkpt lat="42.902830074751954" lon="11.241337920360827"><ele>83.5</ele><time>2026-04-06T08:59:03.998Z</time></trkpt><trkpt lat="42.90304576138794" lon="11.241478518733192"><ele>81.0</ele><time>2026-04-06T08:59:04.998Z</time></trkpt><trkpt lat="42.90325208070932" lon="11.24161876264278"><ele>81.66666666666667</ele><time>2026-04-06T08:59:05.998Z</time></trkpt><trkpt lat="42.903445742405054" lon="11.241776760660295"><ele>82.33333333333334</ele><time>2026-04-06T08:59:06.998Z</time></trkpt><trkpt lat="42.903634415384815" lon="11.241935562282736"><ele>83.0</ele><time>2026-04-06T08:59:07.998Z</time></trkpt><trkpt lat="42.90382131899856" lon="11.242105296326912"><ele>81.0</ele><time>2026-04-06T08:59:08.998Z</time></trkpt><trkpt lat="42.90400333123029" lon="11.242308066574434"><ele>79.0</ele><time>2026-04-06T08:59:09.998Z</time></trkpt><trkpt lat="42.90418765259668" lon="11.242516317744672"><ele>83.0</ele><time>2026-04-06T08:59:10.998Z</time></trkpt><trkpt lat="42.90436965581215" lon="11.242728810356114"><ele>87.0</ele><time>2026-04-06T08:59:11.998Z</time></trkpt><trkpt lat="42.904546931912634" lon="11.242943212913968"><ele>83.5</ele><time>2026-04-06T08:59:12.998Z</time></trkpt><trkpt lat="42.904723548769766" lon="11.243166949525305"><ele>80.0</ele><time>2026-04-06T08:59:13.998Z</time></trkpt><trkpt lat="42.90490147207808" lon="11.243389099428946"><ele>80.0</ele><time>2026-04-06T08:59:14.998Z</time></trkpt><trkpt lat="42.90507820301865" lon="11.243620257526285"><ele>80.0</ele><time>2026-04-06T08:59:15.998Z</time></trkpt><trkpt lat="42.90525736870651" lon="11.243852843926833"><ele>76.5</ele><time>2026-04-06T08:59:16.998Z</time></trkpt><trkpt lat="42.90544097206995" lon="11.244083058013693"><ele>73.0</ele><time>2026-04-06T08:59:17.998Z</time></trkpt><trkpt lat="42.90563018278595" lon="11.244319241147839"><ele>73.0</ele><time>2026-04-06T08:59:18.998Z</time></trkpt><trkpt lat="42.90582175162255" lon="11.244559130128362"><ele>73.0</ele><time>2026-04-06T08:59:19.998Z</time></trkpt><trkpt lat="42.90601464013472" lon="11.24480456717554"><ele>73.0</ele><time>2026-04-06T08:59:20.998Z</time></trkpt><trkpt lat="42.90620535440479" lon="11.245047301768736"><ele>73.0</ele><time>2026-04-06T08:59:21.998Z</time></trkpt><trkpt lat="42.90639453458668" lon="11.24528926485601"><ele>73.0</ele><time>2026-04-06T08:59:22.998Z</time></trkpt><trkpt lat="42.906586948248254" lon="11.245529379717413"><ele>73.0</ele><time>2026-04-06T08:59:23.998Z</time></trkpt><trkpt lat="42.90677802249017" lon="11.24576772838677"><ele>73.5</ele><time>2026-04-06T08:59:24.998Z</time></trkpt><trkpt lat="42.906974019464336" lon="11.246005402867732"><ele>74.0</ele><time>2026-04-06T08:59:25.998Z</time></trkpt><trkpt lat="42.907168488797254" lon="11.246241060789254"><ele>72.0</ele><time>2026-04-06T08:59:26.998Z</time></trkpt><trkpt lat="42.90736234979718" lon="11.246477328407346"><ele>70.0</ele><time>2026-04-06T08:59:27.998Z</time></trkpt><trkpt lat="42.90755905409191" lon="11.246711213775836"><ele>70.0</ele><time>2026-04-06T08:59:28.998Z</time></trkpt><trkpt lat="42.90775136023847" lon="11.246946197700941"><ele>70.0</ele><time>2026-04-06T08:59:29.998Z</time></trkpt><trkpt lat="42.90794379123355" lon="11.247180343364006"><ele>70.0</ele><time>2026-04-06T08:59:30.998Z</time></trkpt><trkpt lat="42.90813865057546" lon="11.247414249898998"><ele>70.0</ele><time>2026-04-06T08:59:31.998Z</time></trkpt><trkpt lat="42.90832765835311" lon="11.247646328408512"><ele>72.5</ele><time>2026-04-06T08:59:32.998Z</time></trkpt><trkpt lat="42.908515360902314" lon="11.247876073580928"><ele>75.0</ele><time>2026-04-06T08:59:34Z</time></trkpt><trkpt lat="42.90870655837826" lon="11.248102781927262"><ele>72.5</ele><time>2026-04-06T08:59:35Z</time></trkpt><trkpt lat="42.908902571240816" lon="11.248338003845912"><ele>70.0</ele><time>2026-04-06T08:59:36Z</time></trkpt><trkpt lat="42.909092938245465" lon="11.248574886026097"><ele>73.0</ele><time>2026-04-06T08:59:37Z</time></trkpt><trkpt lat="42.90928466119168" lon="11.248807397247877"><ele>76.0</ele><time>2026-04-06T08:59:38Z</time></trkpt><trkpt lat="42.90947768103765" lon="11.249041219230566"><ele>76.0</ele><time>2026-04-06T08:59:39Z</time></trkpt><trkpt lat="42.90967301656566" lon="11.249274773435316"><ele>76.0</ele><time>2026-04-06T08:59:40Z</time></trkpt><trkpt lat="42.909869009525075" lon="11.249508124193634"><ele>76.0</ele><time>2026-04-06T08:59:41Z</time></trkpt><trkpt lat="42.9100639498595" lon="11.249746072122791"><ele>76.0</ele><time>2026-04-06T08:59:42Z</time></trkpt><trkpt lat="42.91025953470854" lon="11.249979631491883"><ele>75.5</ele><time>2026-04-06T08:59:43Z</time></trkpt><trkpt lat="42.91045605568815" lon="11.250213688462871"><ele>75.0</ele><time>2026-04-06T08:59:44Z</time></trkpt><trkpt lat="42.91065277579156" lon="11.250446752427502"><ele>70.5</ele><time>2026-04-06T08:59:45Z</time></trkpt><trkpt lat="42.91084895315718" lon="11.25068151863786"><ele>66.0</ele><time>2026-04-06T08:59:46Z</time></trkpt><trkpt lat="42.9110476448403" lon="11.250920603698939"><ele>66.0</ele><time>2026-04-06T08:59:47Z</time></trkpt><trkpt lat="42.9112445665398" lon="11.251162218403731"><ele>66.0</ele><time>2026-04-06T08:59:48Z</time></trkpt><trkpt lat="42.91143606667907" lon="11.25139410713944"><ele>64.5</ele><time>2026-04-06T08:59:49Z</time></trkpt><trkpt lat="42.91162731793212" lon="11.251628746632248"><ele>63.0</ele><time>2026-04-06T08:59:50Z</time></trkpt><trkpt lat="42.91181801304063" lon="11.251859827401836"><ele>65.5</ele><time>2026-04-06T08:59:51Z</time></trkpt><trkpt lat="42.91199954440909" lon="11.252094744251295"><ele>68.0</ele><time>2026-04-06T08:59:52Z</time></trkpt><trkpt lat="42.9121583704419" lon="11.252327488184442"><ele>68.0</ele><time>2026-04-06T08:59:53Z</time></trkpt><trkpt lat="42.912298518577344" lon="11.25258812075203"><ele>68.0</ele><time>2026-04-06T08:59:54Z</time></trkpt><trkpt lat="42.91244145969102" lon="11.252844828614089"><ele>70.5</ele><time>2026-04-06T08:59:55Z</time></trkpt><trkpt lat="42.912598484949164" lon="11.25308101947837"><ele>73.0</ele><time>2026-04-06T08:59:56Z</time></trkpt><trkpt lat="42.91276828907632" lon="11.253305760572365"><ele>73.0</ele><time>2026-04-06T08:59:57Z</time></trkpt><trkpt lat="42.91294736555267" lon="11.25348900939202"><ele>73.0</ele><time>2026-04-06T08:59:58Z</time></trkpt><trkpt lat="42.91313980580792" lon="11.253666331318627"><ele>73.0</ele><time>2026-04-06T08:59:59Z</time></trkpt><trkpt lat="42.91334123827321" lon="11.253827019208844"><ele>73.0</ele><time>2026-04-06T09:00:00Z</time></trkpt><trkpt lat="42.91354686000667" lon="11.253987619534046"><ele>71.5</ele><time>2026-04-06T09:00:01Z</time></trkpt><trkpt lat="42.91375332617651" lon="11.254114740462416"><ele>70.0</ele><time>2026-04-06T09:00:02Z</time></trkpt><trkpt lat="42.913976517130955" lon="11.254213659792985"><ele>70.0</ele><time>2026-04-06T09:00:03Z</time></trkpt><trkpt lat="42.9141905776458" lon="11.25431869737418"><ele>70.0</ele><time>2026-04-06T09:00:04Z</time></trkpt><trkpt lat="42.91440051095208" lon="11.254425675594602"><ele>69.0</ele><time>2026-04-06T09:00:05Z</time></trkpt><trkpt lat="42.91462019197504" lon="11.254537576134865"><ele>68.0</ele><time>2026-04-06T09:00:06Z</time></trkpt><trkpt lat="42.91484031960556" lon="11.254644113397562"><ele>68.0</ele><time>2026-04-06T09:00:07Z</time></trkpt><trkpt lat="42.91506443049008" lon="11.254767254231382"><ele>68.0</ele><time>2026-04-06T09:00:08Z</time></trkpt><trkpt lat="42.91528018863076" lon="11.254864890475746"><ele>68.66666666666667</ele><time>2026-04-06T09:00:09Z</time></trkpt><trkpt lat="42.91548407621733" lon="11.254965118484805"><ele>69.33333333333333</ele><time>2026-04-06T09:00:10Z</time></trkpt><trkpt lat="42.91568132194448" lon="11.255050858024141"><ele>70.0</ele><time>2026-04-06T09:00:11Z</time></trkpt><trkpt lat="42.91588045182222" lon="11.255111234142259"><ele>70.0</ele><time>2026-04-06T09:00:12Z</time></trkpt><trkpt lat="42.916074658407545" lon="11.25514814027112"><ele>70.0</ele><time>2026-04-06T09:00:12.999Z</time></trkpt><trkpt lat="42.91625321257372" lon="11.255183300030202"><ele>70.0</ele><time>2026-04-06T09:00:13.999Z</time></trkpt><trkpt lat="42.91640542561819" lon="11.255242792058775"><ele>70.0</ele><time>2026-04-06T09:00:14.999Z</time></trkpt><trkpt lat="42.91655211767408" lon="11.255333470824848"><ele>70.0</ele><time>2026-04-06T09:00:15.999Z</time></trkpt><trkpt lat="42.91669051247832" lon="11.255459607739978"><ele>70.0</ele><time>2026-04-06T09:00:16.999Z</time></trkpt><trkpt lat="42.91681403316399" lon="11.25560315043844"><ele>70.0</ele><time>2026-04-06T09:00:17.999Z</time></trkpt><trkpt lat="42.91693238766693" lon="11.25576567426914"><ele>70.0</ele><time>2026-04-06T09:00:18.999Z</time></trkpt><trkpt lat="42.917058906697164" lon="11.255931634323035"><ele>70.0</ele><time>2026-04-06T09:00:19.999Z</time></trkpt><trkpt lat="42.917190233705114" lon="11.256115322838514"><ele>70.0</ele><time>2026-04-06T09:00:20.999Z</time></trkpt><trkpt lat="42.91732803743203" lon="11.256294687500194"><ele>70.0</ele><time>2026-04-06T09:00:21.999Z</time></trkpt><trkpt lat="42.91748203945029" lon="11.256454608686523"><ele>70.0</ele><time>2026-04-06T09:00:22.999Z</time></trkpt><trkpt lat="42.917650733201064" lon="11.25659486450435"><ele>67.33333333333333</ele><time>2026-04-06T09:00:23.999Z</time></trkpt><trkpt lat="42.917830185676245" lon="11.2567219982555"><ele>64.66666666666667</ele><time>2026-04-06T09:00:24.999Z</time></trkpt><trkpt lat="42.91801658308232" lon="11.256855905331673"><ele>62.0</ele><time>2026-04-06T09:00:25.999Z</time></trkpt><trkpt lat="42.91820624579105" lon="11.256987537504445"><ele>62.0</ele><time>2026-04-06T09:00:26.999Z</time></trkpt><trkpt lat="42.91839375065907" lon="11.257129651467991"><ele>62.0</ele><time>2026-04-06T09:00:27.999Z</time></trkpt><trkpt lat="42.91857866238484" lon="11.257283077889626"><ele>62.0</ele><time>2026-04-06T09:00:28.999Z</time></trkpt><trkpt lat="42.91875653345645" lon="11.25745168753"><ele>61.333333333333336</ele><time>2026-04-06T09:00:29.999Z</time></trkpt><trkpt lat="42.918926268149434" lon="11.257625803332491"><ele>60.66666666666667</ele><time>2026-04-06T09:00:30.999Z</time></trkpt><trkpt lat="42.91909122507869" lon="11.25779863323891"><ele>60.0</ele><time>2026-04-06T09:00:31.999Z</time></trkpt><trkpt lat="42.919249241156045" lon="11.257982156246282"><ele>60.0</ele><time>2026-04-06T09:00:32.999Z</time></trkpt><trkpt lat="42.91939174780928" lon="11.258185638268891"><ele>60.0</ele><time>2026-04-06T09:00:33.999Z</time></trkpt><trkpt lat="42.91951024209893" lon="11.258427748882543"><ele>60.0</ele><time>2026-04-06T09:00:34.999Z</time></trkpt><trkpt lat="42.91961201122469" lon="11.258688297077516"><ele>60.0</ele><time>2026-04-06T09:00:35.999Z</time></trkpt><trkpt lat="42.9197121504949" lon="11.25894774483772"><ele>60.0</ele><time>2026-04-06T09:00:36.999Z</time></trkpt><trkpt lat="42.91982535889213" lon="11.25920422111948"><ele>60.0</ele><time>2026-04-06T09:00:37.999Z</time></trkpt><trkpt lat="42.91996711631599" lon="11.259440572492347"><ele>59.5</ele><time>2026-04-06T09:00:38.999Z</time></trkpt><trkpt lat="42.920139912590024" lon="11.259641812078792"><ele>59.0</ele><time>2026-04-06T09:00:39.999Z</time></trkpt><trkpt lat="42.920330792842734" lon="11.259809484383961"><ele>58.0</ele><time>2026-04-06T09:00:40.999Z</time></trkpt><trkpt lat="42.92052270758141" lon="11.259997064205509"><ele>57.0</ele><time>2026-04-06T09:00:41.999Z</time></trkpt><trkpt lat="42.920711924010774" lon="11.260196932907316"><ele>57.5</ele><time>2026-04-06T09:00:42.999Z</time></trkpt><trkpt lat="42.92090053488269" lon="11.260405808539002"><ele>58.0</ele><time>2026-04-06T09:00:43.999Z</time></trkpt><trkpt lat="42.921090214677996" lon="11.260609011663629"><ele>57.0</ele><time>2026-04-06T09:00:44.999Z</time></trkpt><trkpt lat="42.9212831799324" lon="11.260811976590825"><ele>56.0</ele><time>2026-04-06T09:00:45.999Z</time></trkpt><trkpt lat="42.92147786879922" lon="11.261013268055176"><ele>56.0</ele><time>2026-04-06T09:00:46.999Z</time></trkpt><trkpt lat="42.92166580308463" lon="11.261237291245505"><ele>56.0</ele><time>2026-04-06T09:00:47.999Z</time></trkpt><trkpt lat="42.92186197084682" lon="11.261443234409645"><ele>56.0</ele><time>2026-04-06T09:00:48.999Z</time></trkpt><trkpt lat="42.92205669051431" lon="11.261646815924948"><ele>56.0</ele><time>2026-04-06T09:00:49.999Z</time></trkpt><trkpt lat="42.922259112016235" lon="11.261833094577288"><ele>56.0</ele><time>2026-04-06T09:00:50.999Z</time></trkpt><trkpt lat="42.9224504351392" lon="11.262033891399213"><ele>56.0</ele><time>2026-04-06T09:00:51.999Z</time></trkpt><trkpt lat="42.92264090020188" lon="11.262232715767025"><ele>56.0</ele><time>2026-04-06T09:00:52.999Z</time></trkpt><trkpt lat="42.92283139007061" lon="11.262436578811405"><ele>56.0</ele><time>2026-04-06T09:00:53.999Z</time></trkpt><trkpt lat="42.92302107491864" lon="11.262641976754056"><ele>56.0</ele><time>2026-04-06T09:00:54.999Z</time></trkpt><trkpt lat="42.923211991529385" lon="11.262849487514744"><ele>56.0</ele><time>2026-04-06T09:00:55.999Z</time></trkpt><trkpt lat="42.92340216422417" lon="11.26305392966196"><ele>58.0</ele><time>2026-04-06T09:00:56.999Z</time></trkpt><trkpt lat="42.92359259282849" lon="11.263250288099153"><ele>60.0</ele><time>2026-04-06T09:00:57.999Z</time></trkpt><trkpt lat="42.92378460195201" lon="11.26343739265746"><ele>60.0</ele><time>2026-04-06T09:00:58.999Z</time></trkpt><trkpt lat="42.923982511869056" lon="11.263615844704201"><ele>60.0</ele><time>2026-04-06T09:00:59.999Z</time></trkpt><trkpt lat="42.92418595381962" lon="11.263781752128532"><ele>61.0</ele><time>2026-04-06T09:01:00.999Z</time></trkpt><trkpt lat="42.924391628556506" lon="11.263935396961276"><ele>62.0</ele><time>2026-04-06T09:01:01.999Z</time></trkpt><trkpt lat="42.924602964836524" lon="11.264072437561369"><ele>62.0</ele><time>2026-04-06T09:01:02.999Z</time></trkpt><trkpt lat="42.924820850102655" lon="11.26419267233601"><ele>62.0</ele><time>2026-04-06T09:01:03.999Z</time></trkpt><trkpt lat="42.925036999734175" lon="11.26429294642546"><ele>62.333333333333336</ele><time>2026-04-06T09:01:04.999Z</time></trkpt><trkpt lat="42.92524927989499" lon="11.264380884632445"><ele>62.66666666666667</ele><time>2026-04-06T09:01:05.999Z</time></trkpt><trkpt lat="42.925438129733344" lon="11.264454022023001"><ele>63.0</ele><time>2026-04-06T09:01:06.999Z</time></trkpt><trkpt lat="42.92561076183821" lon="11.26451579847773"><ele>63.0</ele><time>2026-04-06T09:01:07.999Z</time></trkpt><trkpt lat="42.92576357759251" lon="11.264550747801492"><ele>63.0</ele><time>2026-04-06T09:01:08.999Z</time></trkpt><trkpt lat="42.92590222040845" lon="11.264529366128011"><ele>63.0</ele><time>2026-04-06T09:01:09.999Z</time></trkpt><trkpt lat="42.92603203539322" lon="11.264448047738878"><ele>63.0</ele><time>2026-04-06T09:01:10.999Z</time></trkpt><trkpt lat="42.92615101872813" lon="11.264313544394133"><ele>62.75</ele><time>2026-04-06T09:01:11.999Z</time></trkpt><trkpt lat="42.926269039086975" lon="11.264197255554603"><ele>62.5</ele><time>2026-04-06T09:01:12.999Z</time></trkpt><trkpt lat="42.92639352982704" lon="11.26415971595252"><ele>62.25</ele><time>2026-04-06T09:01:13.999Z</time></trkpt><trkpt lat="42.92652012225294" lon="11.264169642783479"><ele>62.0</ele><time>2026-04-06T09:01:14.999Z</time></trkpt><trkpt lat="42.926670335061715" lon="11.264219921337105"><ele>63.0</ele><time>2026-04-06T09:01:15.998Z</time></trkpt><trkpt lat="42.926829200671165" lon="11.264263629995613"><ele>64.0</ele><time>2026-04-06T09:01:16.998Z</time></trkpt><trkpt lat="42.92699413953675" lon="11.264304012540515"><ele>65.0</ele><time>2026-04-06T09:01:17.998Z</time></trkpt><trkpt lat="42.927163092442086" lon="11.264336928417174"><ele>65.0</ele><time>2026-04-06T09:01:18.998Z</time></trkpt><trkpt lat="42.92733555947512" lon="11.264373782659263"><ele>65.0</ele><time>2026-04-06T09:01:19.998Z</time></trkpt><trkpt lat="42.92751033992848" lon="11.2643991121461"><ele>65.0</ele><time>2026-04-06T09:01:20.998Z</time></trkpt><trkpt lat="42.92768688759582" lon="11.264413645202525"><ele>66.33333333333334</ele><time>2026-04-06T09:01:21.998Z</time></trkpt><trkpt lat="42.927864173032994" lon="11.26441167016185"><ele>67.66666666666667</ele><time>2026-04-06T09:01:22.998Z</time></trkpt><trkpt lat="42.928043568119065" lon="11.264399220263414"><ele>69.0</ele><time>2026-04-06T09:01:23.998Z</time></trkpt><trkpt lat="42.92821299444373" lon="11.264349003845743"><ele>69.0</ele><time>2026-04-06T09:01:24.998Z</time></trkpt><trkpt lat="42.92837925141689" lon="11.264283339131701"><ele>69.0</ele><time>2026-04-06T09:01:25.998Z</time></trkpt><trkpt lat="42.92854578063124" lon="11.264209836168204"><ele>69.0</ele><time>2026-04-06T09:01:26.998Z</time></trkpt><trkpt lat="42.928708478178415" lon="11.264115037560916"><ele>68.66666666666667</ele><time>2026-04-06T09:01:27.998Z</time></trkpt><trkpt lat="42.92888116618756" lon="11.264044569593178"><ele>68.33333333333334</ele><time>2026-04-06T09:01:28.998Z</time></trkpt><trkpt lat="42.929065315767815" lon="11.264000786464655"><ele>68.0</ele><time>2026-04-06T09:01:29.998Z</time></trkpt><trkpt lat="42.929254995802914" lon="11.263988013558826"><ele>68.0</ele><time>2026-04-06T09:01:30.998Z</time></trkpt><trkpt lat="42.9294384131955" lon="11.264007008237531"><ele>68.0</ele><time>2026-04-06T09:01:31.998Z</time></trkpt><trkpt lat="42.92962467439258" lon="11.264030043682475"><ele>68.0</ele><time>2026-04-06T09:01:32.998Z</time></trkpt><trkpt lat="42.929816276021256" lon="11.264059499831331"><ele>68.0</ele><time>2026-04-06T09:01:33.998Z</time></trkpt><trkpt lat="42.930007128220105" lon="11.264085246140446"><ele>68.0</ele><time>2026-04-06T09:01:34.998Z</time></trkpt><trkpt lat="42.93019800283176" lon="11.264111586679105"><ele>68.0</ele><time>2026-04-06T09:01:35.998Z</time></trkpt><trkpt lat="42.930384976904854" lon="11.264139686702777"><ele>67.66666666666667</ele><time>2026-04-06T09:01:36.998Z</time></trkpt><trkpt lat="42.93056030547284" lon="11.264178749859886"><ele>67.33333333333333</ele><time>2026-04-06T09:01:37.998Z</time></trkpt><trkpt lat="42.930719713116105" lon="11.264228803434985"><ele>67.0</ele><time>2026-04-06T09:01:38.998Z</time></trkpt><trkpt lat="42.93086414933686" lon="11.264330545237165"><ele>65.66666666666666</ele><time>2026-04-06T09:01:40Z</time></trkpt><trkpt lat="42.93097345614097" lon="11.264506172405703"><ele>64.33333333333333</ele><time>2026-04-06T09:01:41Z</time></trkpt><trkpt lat="42.93108650441917" lon="11.264688093692445"><ele>63.0</ele><time>2026-04-06T09:01:42Z</time></trkpt><trkpt lat="42.93118864443465" lon="11.26488498829885"><ele>62.0</ele><time>2026-04-06T09:01:43Z</time></trkpt><trkpt lat="42.93128624757742" lon="11.265105729297161"><ele>61.0</ele><time>2026-04-06T09:01:44Z</time></trkpt><trkpt lat="42.93139729265339" lon="11.265311059811289"><ele>60.0</ele><time>2026-04-06T09:01:45Z</time></trkpt><trkpt lat="42.931531275081966" lon="11.265488442021343"><ele>60.33333333333333</ele><time>2026-04-06T09:01:46Z</time></trkpt><trkpt lat="42.93166316355021" lon="11.26566592285675"><ele>60.666666666666664</ele><time>2026-04-06T09:01:47Z</time></trkpt><trkpt lat="42.931810172947124" lon="11.265814131784717"><ele>61.0</ele><time>2026-04-06T09:01:48Z</time></trkpt><trkpt lat="42.93197168041502" lon="11.265949831290046"><ele>60.0</ele><time>2026-04-06T09:01:49Z</time></trkpt><trkpt lat="42.93214204477626" lon="11.266063402117213"><ele>59.0</ele><time>2026-04-06T09:01:50Z</time></trkpt><trkpt lat="42.93231599562688" lon="11.266168309254244"><ele>58.0</ele><time>2026-04-06T09:01:51Z</time></trkpt><trkpt lat="42.9324863216244" lon="11.266263960455342"><ele>58.666666666666664</ele><time>2026-04-06T09:01:52Z</time></trkpt><trkpt lat="42.93265752569038" lon="11.266370225059752"><ele>59.33333333333333</ele><time>2026-04-06T09:01:53Z</time></trkpt><trkpt lat="42.93282603542519" lon="11.26648509045808"><ele>60.0</ele><time>2026-04-06T09:01:54Z</time></trkpt><trkpt lat="42.93297966162511" lon="11.266625497001467"><ele>60.0</ele><time>2026-04-06T09:01:55Z</time></trkpt><trkpt lat="42.93311868858367" lon="11.266786340025229"><ele>60.0</ele><time>2026-04-06T09:01:56Z</time></trkpt><trkpt lat="42.93325662189153" lon="11.26692495747347"><ele>60.0</ele><time>2026-04-06T09:01:57Z</time></trkpt><trkpt lat="42.93341186556121" lon="11.26702019938511"><ele>60.66666666666667</ele><time>2026-04-06T09:01:58Z</time></trkpt><trkpt lat="42.93358046875067" lon="11.26709271434472"><ele>61.333333333333336</ele><time>2026-04-06T09:01:59Z</time></trkpt><trkpt lat="42.933752682969164" lon="11.267111850321854"><ele>62.0</ele><time>2026-04-06T09:02:00Z</time></trkpt><trkpt lat="42.933919976548836" lon="11.26707291594064"><ele>62.0</ele><time>2026-04-06T09:02:01Z</time></trkpt><trkpt lat="42.93407472173334" lon="11.266976532339939"><ele>62.0</ele><time>2026-04-06T09:02:02Z</time></trkpt><trkpt lat="42.93421963023837" lon="11.266843595630785"><ele>62.0</ele><time>2026-04-06T09:02:03Z</time></trkpt><trkpt lat="42.93435667590431" lon="11.266680817796134"><ele>62.333333333333336</ele><time>2026-04-06T09:02:04Z</time></trkpt><trkpt lat="42.934497344044665" lon="11.266529591698108"><ele>62.66666666666667</ele><time>2026-04-06T09:02:05Z</time></trkpt><trkpt lat="42.93464890774656" lon="11.266374288874136"><ele>63.0</ele><time>2026-04-06T09:02:06Z</time></trkpt><trkpt lat="42.9347999372833" lon="11.266221267774048"><ele>63.0</ele><time>2026-04-06T09:02:07Z</time></trkpt><trkpt lat="42.934933534550865" lon="11.266060003334047"><ele>63.0</ele><time>2026-04-06T09:02:08Z</time></trkpt><trkpt lat="42.93508162572818" lon="11.265951977045559"><ele>63.0</ele><time>2026-04-06T09:02:09Z</time></trkpt><trkpt lat="42.935219436212655" lon="11.265933921962775"><ele>63.5</ele><time>2026-04-06T09:02:10Z</time></trkpt><trkpt lat="42.935336955849465" lon="11.265929901676003"><ele>64.0</ele><time>2026-04-06T09:02:11Z</time></trkpt><trkpt lat="42.93543420477059" lon="11.26600528877909"><ele>64.5</ele><time>2026-04-06T09:02:12Z</time></trkpt><trkpt lat="42.935513738785666" lon="11.266126929723479"><ele>65.0</ele><time>2026-04-06T09:02:13Z</time></trkpt><trkpt lat="42.93558041969064" lon="11.266285496723212"><ele>65.0</ele><time>2026-04-06T09:02:14Z</time></trkpt><trkpt lat="42.93564126876138" lon="11.26643167260104"><ele>65.0</ele><time>2026-04-06T09:02:15Z</time></trkpt><trkpt lat="42.935676935920064" lon="11.266574951364097"><ele>65.0</ele><time>2026-04-06T09:02:16Z</time></trkpt><trkpt lat="42.93569906041624" lon="11.266710591824484"><ele>65.0</ele><time>2026-04-06T09:02:17Z</time></trkpt><trkpt lat="42.93567144552043" lon="11.266834130584291"><ele>65.0</ele><time>2026-04-06T09:02:18Z</time></trkpt><trkpt lat="42.9356427260381" lon="11.266950654939762"><ele>65.25</ele><time>2026-04-06T09:02:19Z</time></trkpt><trkpt lat="42.93564831343245" lon="11.267092150125112"><ele>65.5</ele><time>2026-04-06T09:02:20Z</time></trkpt><trkpt lat="42.93566424058595" lon="11.267241108755268"><ele>65.75</ele><time>2026-04-06T09:02:21Z</time></trkpt><trkpt lat="42.93560820690131" lon="11.267398337357116"><ele>66.0</ele><time>2026-04-06T09:02:22Z</time></trkpt><trkpt lat="42.935526991113605" lon="11.267578975268295"><ele>66.25</ele><time>2026-04-06T09:02:23Z</time></trkpt><trkpt lat="42.93544848692875" lon="11.267754800250763"><ele>66.5</ele><time>2026-04-06T09:02:24Z</time></trkpt><trkpt lat="42.93540092185444" lon="11.267931761030423"><ele>66.75</ele><time>2026-04-06T09:02:25Z</time></trkpt><trkpt lat="42.93538765153898" lon="11.268136890620557"><ele>67.0</ele><time>2026-04-06T09:02:25.999Z</time></trkpt><trkpt lat="42.93540330684583" lon="11.268347838085548"><ele>67.0</ele><time>2026-04-06T09:02:26.999Z</time></trkpt><trkpt lat="42.93544799190189" lon="11.268563935252446"><ele>67.0</ele><time>2026-04-06T09:02:27.999Z</time></trkpt><trkpt lat="42.93553672925887" lon="11.268760562896077"><ele>67.0</ele><time>2026-04-06T09:02:28.999Z</time></trkpt><trkpt lat="42.93565270362218" lon="11.268952209476836"><ele>66.66666666666666</ele><time>2026-04-06T09:02:29.999Z</time></trkpt><trkpt lat="42.935814015359036" lon="11.269109767740263"><ele>66.33333333333333</ele><time>2026-04-06T09:02:30.999Z</time></trkpt><trkpt lat="42.93598740604929" lon="11.269260837757908"><ele>66.0</ele><time>2026-04-06T09:02:31.999Z</time></trkpt><trkpt lat="42.936167886108386" lon="11.26941258143855"><ele>66.0</ele><time>2026-04-06T09:02:32.999Z</time></trkpt><trkpt lat="42.93635354821686" lon="11.26956860734543"><ele>66.0</ele><time>2026-04-06T09:02:33.999Z</time></trkpt><trkpt lat="42.936543294657405" lon="11.269728065627284"><ele>66.0</ele><time>2026-04-06T09:02:34.999Z</time></trkpt><trkpt lat="42.93674233151929" lon="11.269869661251438"><ele>65.5</ele><time>2026-04-06T09:02:35.999Z</time></trkpt><trkpt lat="42.936924893883095" lon="11.270048752301244"><ele>65.0</ele><time>2026-04-06T09:02:36.999Z</time></trkpt><trkpt lat="42.93712103751745" lon="11.270213586609696"><ele>65.0</ele><time>2026-04-06T09:02:37.999Z</time></trkpt><trkpt lat="42.93732738777836" lon="11.27036130411178"><ele>65.0</ele><time>2026-04-06T09:02:38.999Z</time></trkpt><trkpt lat="42.93752580818081" lon="11.270532849309372"><ele>63.5</ele><time>2026-04-06T09:02:39.999Z</time></trkpt><trkpt lat="42.937726107674024" lon="11.27070256931154"><ele>62.0</ele><time>2026-04-06T09:02:40.999Z</time></trkpt><trkpt lat="42.93792756868277" lon="11.270870331565783"><ele>62.0</ele><time>2026-04-06T09:02:41.999Z</time></trkpt><trkpt lat="42.93812981715612" lon="11.27104517862321"><ele>62.0</ele><time>2026-04-06T09:02:42.999Z</time></trkpt><trkpt lat="42.93833226815589" lon="11.271217977564417"><ele>62.0</ele><time>2026-04-06T09:02:43.999Z</time></trkpt><trkpt lat="42.938534639333035" lon="11.271386503488593"><ele>62.0</ele><time>2026-04-06T09:02:44.999Z</time></trkpt><trkpt lat="42.93873497268436" lon="11.271558651481136"><ele>62.0</ele><time>2026-04-06T09:02:45.999Z</time></trkpt><trkpt lat="42.93893881769734" lon="11.271734084266347"><ele>62.0</ele><time>2026-04-06T09:02:46.999Z</time></trkpt><trkpt lat="42.939143799475616" lon="11.271897395790765"><ele>63.0</ele><time>2026-04-06T09:02:47.999Z</time></trkpt><trkpt lat="42.9393474591727" lon="11.27206625670838"><ele>64.0</ele><time>2026-04-06T09:02:48.999Z</time></trkpt><trkpt lat="42.939550782594594" lon="11.272232478908284"><ele>63.0</ele><time>2026-04-06T09:02:49.999Z</time></trkpt><trkpt lat="42.93974171199849" lon="11.272416696596204"><ele>62.0</ele><time>2026-04-06T09:02:50.999Z</time></trkpt><trkpt lat="42.93994850200476" lon="11.27256447488959"><ele>60.5</ele><time>2026-04-06T09:02:51.999Z</time></trkpt><trkpt lat="42.94014543546474" lon="11.272734513185473"><ele>59.0</ele><time>2026-04-06T09:02:52.999Z</time></trkpt><trkpt lat="42.940343995068545" lon="11.272909243959582"><ele>59.0</ele><time>2026-04-06T09:02:53.999Z</time></trkpt><trkpt lat="42.94054018198567" lon="11.27307500244428"><ele>59.0</ele><time>2026-04-06T09:02:54.999Z</time></trkpt><trkpt lat="42.94073399599473" lon="11.27323441253459"><ele>62.0</ele><time>2026-04-06T09:02:55.999Z</time></trkpt><trkpt lat="42.9409230491838" lon="11.273392584276563"><ele>65.0</ele><time>2026-04-06T09:02:56.999Z</time></trkpt><trkpt lat="42.94110856199538" lon="11.273544535468183"><ele>68.0</ele><time>2026-04-06T09:02:57.999Z</time></trkpt><trkpt lat="42.94128776111904" lon="11.27369550916606"><ele>68.0</ele><time>2026-04-06T09:02:58.999Z</time></trkpt><trkpt lat="42.94146128034786" lon="11.273842074606673"><ele>68.0</ele><time>2026-04-06T09:02:59.999Z</time></trkpt><trkpt lat="42.941619377778316" lon="11.273975589253967"><ele>68.0</ele><time>2026-04-06T09:03:00.999Z</time></trkpt><trkpt lat="42.941767639569356" lon="11.274106798700165"><ele>73.33333333333334</ele><time>2026-04-06T09:03:01.999Z</time></trkpt><trkpt lat="42.94190679093581" lon="11.274220781383827"><ele>78.66666666666667</ele><time>2026-04-06T09:03:02.999Z</time></trkpt><trkpt lat="42.94205993851304" lon="11.274298022019403"><ele>84.0</ele><time>2026-04-06T09:03:03.999Z</time></trkpt><trkpt lat="42.9422136568536" lon="11.274321262263372"><ele>84.0</ele><time>2026-04-06T09:03:04.999Z</time></trkpt><trkpt lat="42.94235928902263" lon="11.274287140234488"><ele>84.0</ele><time>2026-04-06T09:03:05.999Z</time></trkpt><trkpt lat="42.942499980364225" lon="11.274200480518155"><ele>84.0</ele><time>2026-04-06T09:03:06.999Z</time></trkpt><trkpt lat="42.94262682007992" lon="11.274107620466323"><ele>84.0</ele><time>2026-04-06T09:03:07.999Z</time></trkpt><trkpt lat="42.94275037733675" lon="11.274037542521976"><ele>85.5</ele><time>2026-04-06T09:03:08.999Z</time></trkpt><trkpt lat="42.942871322950886" lon="11.274010543195795"><ele>87.0</ele><time>2026-04-06T09:03:09.999Z</time></trkpt><trkpt lat="42.9429963856409" lon="11.274039583071975"><ele>88.5</ele><time>2026-04-06T09:03:10.999Z</time></trkpt><trkpt lat="42.94310183098895" lon="11.27414433913553"><ele>90.0</ele><time>2026-04-06T09:03:11.999Z</time></trkpt><trkpt lat="42.943151265932315" lon="11.27426439528601"><ele>90.0</ele><time>2026-04-06T09:03:12.999Z</time></trkpt><trkpt lat="42.94316952004724" lon="11.274402957645746"><ele>90.0</ele><time>2026-04-06T09:03:13.999Z</time></trkpt><trkpt lat="42.94314749675895" lon="11.274544522150245"><ele>90.0</ele><time>2026-04-06T09:03:14.999Z</time></trkpt><trkpt lat="42.943093548532254" lon="11.274678529007009"><ele>90.0</ele><time>2026-04-06T09:03:15.999Z</time></trkpt><trkpt lat="42.943032691088575" lon="11.274806464477141"><ele>90.0</ele><time>2026-04-06T09:03:16.999Z</time></trkpt><trkpt lat="42.94298285125722" lon="11.274916169502008"><ele>90.4</ele><time>2026-04-06T09:03:17.999Z</time></trkpt><trkpt lat="42.94293037882083" lon="11.275032261629073"><ele>90.8</ele><time>2026-04-06T09:03:18.999Z</time></trkpt><trkpt lat="42.94287413534459" lon="11.275157022222782"><ele>91.19999999999999</ele><time>2026-04-06T09:03:19.999Z</time></trkpt><trkpt lat="42.942815055243905" lon="11.2752877155068"><ele>91.6</ele><time>2026-04-06T09:03:20.999Z</time></trkpt><trkpt lat="42.94275397322159" lon="11.275421514644457"><ele>92.0</ele><time>2026-04-06T09:03:21.999Z</time></trkpt><trkpt lat="42.94270420516899" lon="11.275561500177488"><ele>92.75</ele><time>2026-04-06T09:03:22.999Z</time></trkpt><trkpt lat="42.94263198208015" lon="11.275690729566362"><ele>93.5</ele><time>2026-04-06T09:03:23.999Z</time></trkpt><trkpt lat="42.94256223530599" lon="11.275877475808848"><ele>94.25</ele><time>2026-04-06T09:03:24.999Z</time></trkpt><trkpt lat="42.94246698080776" lon="11.276013931067286"><ele>95.0</ele><time>2026-04-06T09:03:25.999Z</time></trkpt><trkpt lat="42.942376956693685" lon="11.276103161841242"><ele>92.8</ele><time>2026-04-06T09:03:26.999Z</time></trkpt><trkpt lat="42.942315783881256" lon="11.276124707998186"><ele>90.6</ele><time>2026-04-06T09:03:27.998Z</time></trkpt><trkpt lat="42.94222611286803" lon="11.276134655400423"><ele>88.4</ele><time>2026-04-06T09:03:29.998Z</time></trkpt><trkpt lat="42.94210003226082" lon="11.276063268947585"><ele>86.2</ele><time>2026-04-06T09:03:30.998Z</time></trkpt><trkpt lat="42.94200796887793" lon="11.275942651127332"><ele>84.0</ele><time>2026-04-06T09:03:31.998Z</time></trkpt><trkpt lat="42.941977433065034" lon="11.275826950940843"><ele>84.0</ele><time>2026-04-06T09:03:32.998Z</time></trkpt><trkpt lat="42.9419520937932" lon="11.275645409017772"><ele>84.0</ele><time>2026-04-06T09:03:33.998Z</time></trkpt><trkpt lat="42.94195830548263" lon="11.275472277317672"><ele>84.0</ele><time>2026-04-06T09:03:34.998Z</time></trkpt><trkpt lat="42.94194658244303" lon="11.275168816052917"><ele>83.5</ele><time>2026-04-06T09:03:35.998Z</time></trkpt><trkpt lat="42.94187587864786" lon="11.274850141941204"><ele>83.0</ele><time>2026-04-06T09:03:36.998Z</time></trkpt><trkpt lat="42.941709424408224" lon="11.274603556393602"><ele>80.0</ele><time>2026-04-06T09:03:37.998Z</time></trkpt><trkpt lat="42.94156146433754" lon="11.27447179605278"><ele>77.0</ele><time>2026-04-06T09:03:38.998Z</time></trkpt><trkpt lat="42.941442306346936" lon="11.274368871123304"><ele>74.0</ele><time>2026-04-06T09:03:39.998Z</time></trkpt><trkpt lat="42.9412849402629" lon="11.274236031724651"><ele>74.0</ele><time>2026-04-06T09:03:40.998Z</time></trkpt><trkpt lat="42.941074584145255" lon="11.274058765012464"><ele>74.0</ele><time>2026-04-06T09:03:41.998Z</time></trkpt><trkpt lat="42.94088600727023" lon="11.273901649778784"><ele>70.66666666666667</ele><time>2026-04-06T09:03:42.998Z</time></trkpt><trkpt lat="42.940694790659336" lon="11.273740755079091"><ele>67.33333333333333</ele><time>2026-04-06T09:03:43.998Z</time></trkpt><trkpt lat="42.94050521085874" lon="11.27358123742448"><ele>64.0</ele><time>2026-04-06T09:03:45Z</time></trkpt><trkpt lat="42.94032101851403" lon="11.273425429752868"><ele>64.0</ele><time>2026-04-06T09:03:46Z</time></trkpt><trkpt lat="42.94014297308937" lon="11.273276797252333"><ele>64.0</ele><time>2026-04-06T09:03:47Z</time></trkpt><trkpt lat="42.93996860173147" lon="11.273130405661421"><ele>64.0</ele><time>2026-04-06T09:03:48Z</time></trkpt><trkpt lat="42.93979585247267" lon="11.272985143842007"><ele>63.33333333333333</ele><time>2026-04-06T09:03:49Z</time></trkpt><trkpt lat="42.93963535289327" lon="11.272849457346249"><ele>62.66666666666667</ele><time>2026-04-06T09:03:50Z</time></trkpt><trkpt lat="42.939483222375706" lon="11.272723081311563"><ele>62.0</ele><time>2026-04-06T09:03:51Z</time></trkpt><trkpt lat="42.93933663335868" lon="11.272612413523724"><ele>62.0</ele><time>2026-04-06T09:03:52Z</time></trkpt><trkpt lat="42.93917394572565" lon="11.27255950921444"><ele>62.0</ele><time>2026-04-06T09:03:53Z</time></trkpt><trkpt lat="42.939020639104356" lon="11.272478067570912"><ele>62.0</ele><time>2026-04-06T09:03:54Z</time></trkpt><trkpt lat="42.93884431338244" lon="11.27249171324832"><ele>62.0</ele><time>2026-04-06T09:03:55Z</time></trkpt><trkpt lat="42.938686048888734" lon="11.27258086159438"><ele>62.0</ele><time>2026-04-06T09:03:56Z</time></trkpt><trkpt lat="42.93853163178811" lon="11.272726353508729"><ele>62.0</ele><time>2026-04-06T09:03:57Z</time></trkpt><trkpt lat="42.93841966746519" lon="11.272876992805314"><ele>61.66666666666667</ele><time>2026-04-06T09:03:58Z</time></trkpt><trkpt lat="42.938368542042085" lon="11.273045438768309"><ele>61.33333333333333</ele><time>2026-04-06T09:03:59Z</time></trkpt><trkpt lat="42.93828632658474" lon="11.273258632912752"><ele>61.0</ele><time>2026-04-06T09:04:00Z</time></trkpt><trkpt lat="42.93817707399584" lon="11.273517691602699"><ele>61.0</ele><time>2026-04-06T09:04:01Z</time></trkpt><trkpt lat="42.93803474991585" lon="11.273762164315679"><ele>61.0</ele><time>2026-04-06T09:04:02Z</time></trkpt><trkpt lat="42.937909980081855" lon="11.273910435348478"><ele>61.0</ele><time>2026-04-06T09:04:03Z</time></trkpt><trkpt lat="42.93776419171445" lon="11.274030430737268"><ele>60.5</ele><time>2026-04-06T09:04:04Z</time></trkpt><trkpt lat="42.93762288582387" lon="11.2741275212158"><ele>60.0</ele><time>2026-04-06T09:04:05Z</time></trkpt><trkpt lat="42.9374870347864" lon="11.274211886940176"><ele>59.5</ele><time>2026-04-06T09:04:06Z</time></trkpt><trkpt lat="42.937376846320994" lon="11.274282745626799"><ele>59.0</ele><time>2026-04-06T09:04:07Z</time></trkpt><trkpt lat="42.93722864251032" lon="11.274378051019799"><ele>59.0</ele><time>2026-04-06T09:04:08Z</time></trkpt><trkpt lat="42.93709500007332" lon="11.274463992495551"><ele>59.0</ele><time>2026-04-06T09:04:09Z</time></trkpt><trkpt lat="42.93696188784665" lon="11.274548852637645"><ele>59.0</ele><time>2026-04-06T09:04:10Z</time></trkpt><trkpt lat="42.936811455662735" lon="11.274624114177687"><ele>59.25</ele><time>2026-04-06T09:04:11Z</time></trkpt><trkpt lat="42.93668983837945" lon="11.274736726901933"><ele>59.5</ele><time>2026-04-06T09:04:12Z</time></trkpt><trkpt lat="42.93654876546088" lon="11.274837720588758"><ele>59.75</ele><time>2026-04-06T09:04:13Z</time></trkpt><trkpt lat="42.9364281863664" lon="11.274933132866002"><ele>60.0</ele><time>2026-04-06T09:04:14Z</time></trkpt><trkpt lat="42.93633059011371" lon="11.275068916391522"><ele>60.0</ele><time>2026-04-06T09:04:15Z</time></trkpt><trkpt lat="42.93623088917079" lon="11.275206900061054"><ele>60.0</ele><time>2026-04-06T09:04:16Z</time></trkpt><trkpt lat="42.936158117863705" lon="11.27534799686478"><ele>60.0</ele><time>2026-04-06T09:04:17Z</time></trkpt><trkpt lat="42.93607491529583" lon="11.275457907509056"><ele>60.0</ele><time>2026-04-06T09:04:18Z</time></trkpt><trkpt lat="42.936007256134346" lon="11.275531609897625"><ele>60.0</ele><time>2026-04-06T09:04:19Z</time></trkpt><trkpt lat="42.935942584816736" lon="11.2755465629524"><ele>60.0</ele><time>2026-04-06T09:04:20Z</time></trkpt><trkpt lat="42.93581342086195" lon="11.275587716893037"><ele>60.0</ele><time>2026-04-06T09:04:21Z</time></trkpt><trkpt lat="42.93574006785481" lon="11.275663434812783"><ele>60.0</ele><time>2026-04-06T09:04:22Z</time></trkpt><trkpt lat="42.93570248346973" lon="11.275770314769066"><ele>60.0</ele><time>2026-04-06T09:04:23Z</time></trkpt><trkpt lat="42.9356768517307" lon="11.275890107216835"><ele>59.4</ele><time>2026-04-06T09:04:24Z</time></trkpt><trkpt lat="42.93570552727938" lon="11.27597963379919"><ele>58.8</ele><time>2026-04-06T09:04:25Z</time></trkpt><trkpt lat="42.93579736141091" lon="11.27611290888558"><ele>58.2</ele><time>2026-04-06T09:04:27Z</time></trkpt><trkpt lat="42.935874595301144" lon="11.276153357078492"><ele>57.6</ele><time>2026-04-06T09:04:28Z</time></trkpt><trkpt lat="42.9359505022759" lon="11.27630101271154"><ele>57.0</ele><time>2026-04-06T09:04:29Z</time></trkpt><trkpt lat="42.93593187867051" lon="11.27647931865675"><ele>57.0</ele><time>2026-04-06T09:04:30Z</time></trkpt><trkpt lat="42.935952996243714" lon="11.276620504431518"><ele>57.0</ele><time>2026-04-06T09:04:31Z</time></trkpt><trkpt lat="42.93597475237198" lon="11.27676394737562"><ele>57.0</ele><time>2026-04-06T09:04:31.999Z</time></trkpt><trkpt lat="42.93600786099302" lon="11.276900815009643"><ele>57.0</ele><time>2026-04-06T09:04:32.999Z</time></trkpt><trkpt lat="42.93605055265487" lon="11.277052881357408"><ele>57.0</ele><time>2026-04-06T09:04:33.999Z</time></trkpt><trkpt lat="42.93607933560352" lon="11.277205284105257"><ele>57.25</ele><time>2026-04-06T09:04:34.999Z</time></trkpt><trkpt lat="42.93610647900846" lon="11.27737004418534"><ele>57.5</ele><time>2026-04-06T09:04:35.999Z</time></trkpt><trkpt lat="42.93613375064509" lon="11.277556302685866"><ele>57.75</ele><time>2026-04-06T09:04:36.999Z</time></trkpt><trkpt lat="42.936162734135436" lon="11.277732698573145"><ele>58.0</ele><time>2026-04-06T09:04:37.999Z</time></trkpt><trkpt lat="42.93618634814706" lon="11.277911293041289"><ele>58.0</ele><time>2026-04-06T09:04:38.999Z</time></trkpt><trkpt lat="42.93621250356008" lon="11.278089483665038"><ele>58.0</ele><time>2026-04-06T09:04:39.999Z</time></trkpt><trkpt lat="42.93623875349906" lon="11.278266305789549"><ele>58.0</ele><time>2026-04-06T09:04:40.999Z</time></trkpt><trkpt lat="42.93626943006997" lon="11.278446469832879"><ele>58.0</ele><time>2026-04-06T09:04:41.999Z</time></trkpt><trkpt lat="42.936296950348854" lon="11.278629644518473"><ele>57.75</ele><time>2026-04-06T09:04:42.999Z</time></trkpt><trkpt lat="42.93632488214934" lon="11.278811656567703"><ele>57.5</ele><time>2026-04-06T09:04:43.999Z</time></trkpt><trkpt lat="42.93634872140707" lon="11.27899416948737"><ele>57.25</ele><time>2026-04-06T09:04:44.999Z</time></trkpt><trkpt lat="42.93637303350561" lon="11.27917406561632"><ele>57.0</ele><time>2026-04-06T09:04:45.999Z</time></trkpt><trkpt lat="42.936398558865186" lon="11.279349287705429"><ele>58.25</ele><time>2026-04-06T09:04:46.999Z</time></trkpt><trkpt lat="42.93642768737608" lon="11.279521205006873"><ele>59.5</ele><time>2026-04-06T09:04:47.999Z</time></trkpt><trkpt lat="42.93645742336653" lon="11.279694918747348"><ele>60.75</ele><time>2026-04-06T09:04:48.999Z</time></trkpt><trkpt lat="42.936484919572514" lon="11.279871973025976"><ele>62.0</ele><time>2026-04-06T09:04:49.999Z</time></trkpt><trkpt lat="42.93651752032631" lon="11.280049316004385"><ele>63.5</ele><time>2026-04-06T09:04:50.999Z</time></trkpt><trkpt lat="42.936550042567205" lon="11.280223344378335"><ele>65.0</ele><time>2026-04-06T09:04:51.999Z</time></trkpt><trkpt lat="42.9365925623145" lon="11.280391369451596"><ele>66.5</ele><time>2026-04-06T09:04:52.999Z</time></trkpt><trkpt lat="42.93663751553571" lon="11.2805507991875"><ele>68.0</ele><time>2026-04-06T09:04:53.999Z</time></trkpt><trkpt lat="42.93669558974184" lon="11.280718881717059"><ele>68.0</ele><time>2026-04-06T09:04:54.999Z</time></trkpt><trkpt lat="42.93677048516946" lon="11.280837328887353"><ele>68.0</ele><time>2026-04-06T09:04:55.999Z</time></trkpt><trkpt lat="42.93686973690187" lon="11.280986582213732"><ele>68.0</ele><time>2026-04-06T09:04:56.999Z</time></trkpt><trkpt lat="42.936957718267045" lon="11.281114487836781"><ele>68.0</ele><time>2026-04-06T09:04:57.999Z</time></trkpt><trkpt lat="42.93706267512763" lon="11.281260364261822"><ele>68.0</ele><time>2026-04-06T09:04:58.999Z</time></trkpt><trkpt lat="42.93717467044487" lon="11.2814098016416"><ele>68.0</ele><time>2026-04-06T09:04:59.999Z</time></trkpt><trkpt lat="42.93728814139864" lon="11.28155645393658"><ele>68.0</ele><time>2026-04-06T09:05:00.999Z</time></trkpt><trkpt lat="42.93737663810533" lon="11.281688487171808"><ele>68.0</ele><time>2026-04-06T09:05:01.999Z</time></trkpt><trkpt lat="42.937485958596525" lon="11.281784696638194"><ele>69.25</ele><time>2026-04-06T09:05:02.999Z</time></trkpt><trkpt lat="42.93759557231013" lon="11.281904195436853"><ele>70.5</ele><time>2026-04-06T09:05:03.999Z</time></trkpt><trkpt lat="42.937714346087496" lon="11.28203201011362"><ele>71.75</ele><time>2026-04-06T09:05:04.999Z</time></trkpt><trkpt lat="42.93783110019647" lon="11.282158783874927"><ele>73.0</ele><time>2026-04-06T09:05:05.999Z</time></trkpt><trkpt lat="42.937928149002936" lon="11.28228291557814"><ele>73.25</ele><time>2026-04-06T09:05:06.999Z</time></trkpt><trkpt lat="42.93803602096014" lon="11.282410816472865"><ele>73.5</ele><time>2026-04-06T09:05:07.999Z</time></trkpt><trkpt lat="42.93814210121973" lon="11.2825407126006"><ele>73.75</ele><time>2026-04-06T09:05:08.999Z</time></trkpt><trkpt lat="42.93824431098767" lon="11.282671179199323"><ele>74.0</ele><time>2026-04-06T09:05:09.999Z</time></trkpt><trkpt lat="42.938342714556754" lon="11.282805373248372"><ele>74.0</ele><time>2026-04-06T09:05:10.999Z</time></trkpt><trkpt lat="42.938434347648695" lon="11.282932950895441"><ele>74.0</ele><time>2026-04-06T09:05:11.999Z</time></trkpt><trkpt lat="42.938517194344" lon="11.283065080343249"><ele>74.0</ele><time>2026-04-06T09:05:12.999Z</time></trkpt><trkpt lat="42.938597468180376" lon="11.283197273039017"><ele>74.0</ele><time>2026-04-06T09:05:13.999Z</time></trkpt><trkpt lat="42.93869187880619" lon="11.283334767762133"><ele>73.66666666666667</ele><time>2026-04-06T09:05:14.999Z</time></trkpt><trkpt lat="42.938798979539015" lon="11.28348847436429"><ele>73.33333333333333</ele><time>2026-04-06T09:05:15.999Z</time></trkpt><trkpt lat="42.9388887023073" lon="11.28364355438495"><ele>73.0</ele><time>2026-04-06T09:05:16.999Z</time></trkpt><trkpt lat="42.938975115493186" lon="11.283824544209404"><ele>71.66666666666666</ele><time>2026-04-06T09:05:17.999Z</time></trkpt><trkpt lat="42.939057144889084" lon="11.284000278720258"><ele>70.33333333333333</ele><time>2026-04-06T09:05:18.999Z</time></trkpt><trkpt lat="42.93913146437712" lon="11.284176396895086"><ele>69.0</ele><time>2026-04-06T09:05:19.999Z</time></trkpt><trkpt lat="42.939195473467564" lon="11.284380467071944"><ele>69.25</ele><time>2026-04-06T09:05:20.999Z</time></trkpt><trkpt lat="42.93923158403138" lon="11.284565882397263"><ele>69.5</ele><time>2026-04-06T09:05:21.999Z</time></trkpt><trkpt lat="42.939255520140485" lon="11.284752671640188"><ele>69.75</ele><time>2026-04-06T09:05:22.999Z</time></trkpt><trkpt lat="42.93929339239334" lon="11.284948290265945"><ele>70.0</ele><time>2026-04-06T09:05:23.999Z</time></trkpt><trkpt lat="42.93934674555078" lon="11.285143973588173"><ele>70.0</ele><time>2026-04-06T09:05:24.999Z</time></trkpt><trkpt lat="42.939409179898554" lon="11.285333965088132"><ele>70.0</ele><time>2026-04-06T09:05:25.999Z</time></trkpt><trkpt lat="42.93946898660711" lon="11.285541210372903"><ele>70.0</ele><time>2026-04-06T09:05:26.999Z</time></trkpt><trkpt lat="42.93953746871703" lon="11.285742780281478"><ele>70.0</ele><time>2026-04-06T09:05:27.999Z</time></trkpt><trkpt lat="42.93961206975345" lon="11.285960503648592"><ele>70.0</ele><time>2026-04-06T09:05:28.999Z</time></trkpt><trkpt lat="42.939681402099325" lon="11.286164270887811"><ele>70.0</ele><time>2026-04-06T09:05:29.998Z</time></trkpt><trkpt lat="42.93975379106923" lon="11.286369687917304"><ele>70.33333333333333</ele><time>2026-04-06T09:05:30.998Z</time></trkpt><trkpt lat="42.93983423767899" lon="11.286575474916429"><ele>70.66666666666667</ele><time>2026-04-06T09:05:31.998Z</time></trkpt><trkpt lat="42.93991859681245" lon="11.286781493166947"><ele>71.0</ele><time>2026-04-06T09:05:32.998Z</time></trkpt><trkpt lat="42.94000623141835" lon="11.286987682059753"><ele>71.66666666666667</ele><time>2026-04-06T09:05:33.998Z</time></trkpt><trkpt lat="42.94009025392412" lon="11.287199392568594"><ele>72.33333333333333</ele><time>2026-04-06T09:05:34.998Z</time></trkpt><trkpt lat="42.940168808840404" lon="11.287410971063833"><ele>73.0</ele><time>2026-04-06T09:05:35.998Z</time></trkpt><trkpt lat="42.940248047728986" lon="11.2876278297403"><ele>73.33333333333333</ele><time>2026-04-06T09:05:36.998Z</time></trkpt><trkpt lat="42.940332296200374" lon="11.28784627966844"><ele>73.66666666666667</ele><time>2026-04-06T09:05:37.998Z</time></trkpt><trkpt lat="42.94041673730706" lon="11.288068188226584"><ele>74.0</ele><time>2026-04-06T09:05:38.998Z</time></trkpt><trkpt lat="42.94049620647791" lon="11.288297449183734"><ele>74.0</ele><time>2026-04-06T09:05:39.998Z</time></trkpt><trkpt lat="42.94056707255354" lon="11.288529246834795"><ele>74.0</ele><time>2026-04-06T09:05:40.998Z</time></trkpt><trkpt lat="42.94062464190932" lon="11.288763525562613"><ele>74.0</ele><time>2026-04-06T09:05:41.998Z</time></trkpt><trkpt lat="42.940672935981176" lon="11.288998463935007"><ele>74.0</ele><time>2026-04-06T09:05:42.998Z</time></trkpt><trkpt lat="42.94071077377584" lon="11.289235288310755"><ele>74.0</ele><time>2026-04-06T09:05:43.998Z</time></trkpt><trkpt lat="42.94073491329157" lon="11.289476823965435"><ele>74.0</ele><time>2026-04-06T09:05:44.998Z</time></trkpt><trkpt lat="42.94074984729506" lon="11.28972269888839"><ele>74.66666666666667</ele><time>2026-04-06T09:05:45.998Z</time></trkpt><trkpt lat="42.94076236081785" lon="11.289967791618388"><ele>75.33333333333333</ele><time>2026-04-06T09:05:46.998Z</time></trkpt><trkpt lat="42.940772521402074" lon="11.290216093695934"><ele>76.0</ele><time>2026-04-06T09:05:47.998Z</time></trkpt><trkpt lat="42.94079072942602" lon="11.290473116746647"><ele>75.66666666666666</ele><time>2026-04-06T09:05:48.998Z</time></trkpt><trkpt lat="42.94080862335402" lon="11.29072463322829"><ele>75.33333333333333</ele><time>2026-04-06T09:05:49.998Z</time></trkpt><trkpt lat="42.940821467900165" lon="11.290979928570419"><ele>75.0</ele><time>2026-04-06T09:05:51Z</time></trkpt><trkpt lat="42.940835049187136" lon="11.291234546728916"><ele>75.33333333333333</ele><time>2026-04-06T09:05:52Z</time></trkpt><trkpt lat="42.940847578585654" lon="11.291483785033657"><ele>75.66666666666666</ele><time>2026-04-06T09:05:53Z</time></trkpt><trkpt lat="42.94086002449149" lon="11.291725264338519"><ele>76.0</ele><time>2026-04-06T09:05:54Z</time></trkpt><trkpt lat="42.94087908563532" lon="11.291971647799016"><ele>77.0</ele><time>2026-04-06T09:05:55Z</time></trkpt><trkpt lat="42.94091950218989" lon="11.29221786165744"><ele>78.0</ele><time>2026-04-06T09:05:56Z</time></trkpt><trkpt lat="42.94098647349543" lon="11.29245953321463"><ele>79.0</ele><time>2026-04-06T09:05:57Z</time></trkpt><trkpt lat="42.94107251230961" lon="11.292688128235211"><ele>79.0</ele><time>2026-04-06T09:05:58Z</time></trkpt><trkpt lat="42.94118144803916" lon="11.292914429395587"><ele>79.0</ele><time>2026-04-06T09:05:59Z</time></trkpt><trkpt lat="42.94130559557453" lon="11.293129251876115"><ele>79.0</ele><time>2026-04-06T09:06:00Z</time></trkpt><trkpt lat="42.941443874174695" lon="11.293335597192605"><ele>79.0</ele><time>2026-04-06T09:06:01Z</time></trkpt><trkpt lat="42.94157991643693" lon="11.293542688781228"><ele>79.0</ele><time>2026-04-06T09:06:02Z</time></trkpt><trkpt lat="42.94170600217681" lon="11.29373931869727"><ele>79.0</ele><time>2026-04-06T09:06:03Z</time></trkpt><trkpt lat="42.941838250153616" lon="11.293950713081388"><ele>79.33333333333333</ele><time>2026-04-06T09:06:04Z</time></trkpt><trkpt lat="42.94197277405279" lon="11.294172542432367"><ele>79.66666666666667</ele><time>2026-04-06T09:06:05Z</time></trkpt><trkpt lat="42.94210769116037" lon="11.29439079792435"><ele>80.0</ele><time>2026-04-06T09:06:06Z</time></trkpt><trkpt lat="42.942233772468576" lon="11.294599831503305"><ele>78.33333333333334</ele><time>2026-04-06T09:06:07Z</time></trkpt><trkpt lat="42.94235290693175" lon="11.29480205008642"><ele>76.66666666666667</ele><time>2026-04-06T09:06:08Z</time></trkpt><trkpt lat="42.94245282391178" lon="11.295009616776696"><ele>75.0</ele><time>2026-04-06T09:06:09Z</time></trkpt><trkpt lat="42.94252441630358" lon="11.295220555913913"><ele>75.33333333333333</ele><time>2026-04-06T09:06:10Z</time></trkpt><trkpt lat="42.94256571394866" lon="11.295450517651624"><ele>75.66666666666666</ele><time>2026-04-06T09:06:11Z</time></trkpt><trkpt lat="42.9425831825413" lon="11.2956586176083"><ele>76.0</ele><time>2026-04-06T09:06:12Z</time></trkpt><trkpt lat="42.9425983120766" lon="11.295874881130779"><ele>75.0</ele><time>2026-04-06T09:06:13Z</time></trkpt><trkpt lat="42.9426183850306" lon="11.296097478354099"><ele>74.0</ele><time>2026-04-06T09:06:14Z</time></trkpt><trkpt lat="42.94264187225198" lon="11.296337974495673"><ele>73.0</ele><time>2026-04-06T09:06:15Z</time></trkpt><trkpt lat="42.94267112357772" lon="11.296574283872197"><ele>72.33333333333333</ele><time>2026-04-06T09:06:16Z</time></trkpt><trkpt lat="42.94272488211377" lon="11.29680262659481"><ele>71.66666666666667</ele><time>2026-04-06T09:06:17Z</time></trkpt><trkpt lat="42.94279878109065" lon="11.297013584662988"><ele>71.0</ele><time>2026-04-06T09:06:18Z</time></trkpt><trkpt lat="42.94289252272858" lon="11.297190802550904"><ele>70.66666666666667</ele><time>2026-04-06T09:06:19Z</time></trkpt><trkpt lat="42.94299640274387" lon="11.2973572806332"><ele>70.33333333333333</ele><time>2026-04-06T09:06:20Z</time></trkpt><trkpt lat="42.9431125409378" lon="11.297512092434511"><ele>70.0</ele><time>2026-04-06T09:06:21Z</time></trkpt><trkpt lat="42.943242495593225" lon="11.297672215138316"><ele>70.0</ele><time>2026-04-06T09:06:22Z</time></trkpt><trkpt lat="42.94337126740217" lon="11.297845493648863"><ele>70.0</ele><time>2026-04-06T09:06:23Z</time></trkpt><trkpt lat="42.94350369787207" lon="11.298033129114682"><ele>70.0</ele><time>2026-04-06T09:06:24Z</time></trkpt><trkpt lat="42.94363535880697" lon="11.298204306687854"><ele>71.66666666666666</ele><time>2026-04-06T09:06:25Z</time></trkpt><trkpt lat="42.943762442582084" lon="11.298371657504756"><ele>73.33333333333333</ele><time>2026-04-06T09:06:26Z</time></trkpt><trkpt lat="42.94387937529837" lon="11.298539167268808"><ele>75.0</ele><time>2026-04-06T09:06:27Z</time></trkpt><trkpt lat="42.94398182025671" lon="11.298714569929016"><ele>75.0</ele><time>2026-04-06T09:06:28Z</time></trkpt><trkpt lat="42.94406471160775" lon="11.298883393462766"><ele>75.0</ele><time>2026-04-06T09:06:29Z</time></trkpt><trkpt lat="42.94412776324763" lon="11.29906886932475"><ele>75.0</ele><time>2026-04-06T09:06:30Z</time></trkpt><trkpt lat="42.94418003897574" lon="11.299287442707271"><ele>74.66666666666667</ele><time>2026-04-06T09:06:31Z</time></trkpt><trkpt lat="42.9442252487492" lon="11.299532326818156"><ele>74.33333333333334</ele><time>2026-04-06T09:06:32Z</time></trkpt><trkpt lat="42.944258352610866" lon="11.299782767219977"><ele>74.0</ele><time>2026-04-06T09:06:33Z</time></trkpt><trkpt lat="42.94428603400593" lon="11.300040779442867"><ele>75.66666666666667</ele><time>2026-04-06T09:06:34Z</time></trkpt><trkpt lat="42.94431697642827" lon="11.30030477349993"><ele>77.33333333333333</ele><time>2026-04-06T09:06:35Z</time></trkpt><trkpt lat="42.94435026928317" lon="11.300568101737811"><ele>79.0</ele><time>2026-04-06T09:06:35.999Z</time></trkpt><trkpt lat="42.94438073052166" lon="11.300829051586534"><ele>80.0</ele><time>2026-04-06T09:06:36.999Z</time></trkpt><trkpt lat="42.94440831052043" lon="11.301090562270263"><ele>81.0</ele><time>2026-04-06T09:06:37.999Z</time></trkpt><trkpt lat="42.944425319679915" lon="11.301357697223304"><ele>82.0</ele><time>2026-04-06T09:06:38.999Z</time></trkpt><trkpt lat="42.94445657324966" lon="11.301626968482088"><ele>82.33333333333333</ele><time>2026-04-06T09:06:39.999Z</time></trkpt><trkpt lat="42.94450273988413" lon="11.30187966079363"><ele>82.66666666666667</ele><time>2026-04-06T09:06:40.999Z</time></trkpt><trkpt lat="42.944534177296426" lon="11.302146276039169"><ele>83.0</ele><time>2026-04-06T09:06:41.999Z</time></trkpt><trkpt lat="42.944561599057394" lon="11.302405344635073"><ele>83.66666666666667</ele><time>2026-04-06T09:06:42.999Z</time></trkpt><trkpt lat="42.944590672770964" lon="11.302659182341916"><ele>84.33333333333333</ele><time>2026-04-06T09:06:43.999Z</time></trkpt><trkpt lat="42.94461400419256" lon="11.30291893927007"><ele>85.0</ele><time>2026-04-06T09:06:44.999Z</time></trkpt><trkpt lat="42.944647816102666" lon="11.303180656253264"><ele>85.66666666666666</ele><time>2026-04-06T09:06:45.999Z</time></trkpt><trkpt lat="42.94467632408684" lon="11.303446026193303"><ele>86.33333333333333</ele><time>2026-04-06T09:06:46.999Z</time></trkpt><trkpt lat="42.944701136679626" lon="11.303703270889518"><ele>87.0</ele><time>2026-04-06T09:06:47.999Z</time></trkpt><trkpt lat="42.9447197843936" lon="11.30395458131205"><ele>87.33333333333333</ele><time>2026-04-06T09:06:48.999Z</time></trkpt><trkpt lat="42.94474023826216" lon="11.304203452801119"><ele>87.66666666666666</ele><time>2026-04-06T09:06:49.999Z</time></trkpt><trkpt lat="42.94476189484355" lon="11.304452532269625"><ele>88.0</ele><time>2026-04-06T09:06:50.999Z</time></trkpt><trkpt lat="42.944783313058515" lon="11.304707985647362"><ele>89.0</ele><time>2026-04-06T09:06:51.999Z</time></trkpt><trkpt lat="42.944802545380654" lon="11.304969067916089"><ele>90.0</ele><time>2026-04-06T09:06:52.999Z</time></trkpt><trkpt lat="42.94482102402643" lon="11.305233418815465"><ele>91.0</ele><time>2026-04-06T09:06:53.999Z</time></trkpt><trkpt lat="42.944839662938435" lon="11.305498759411043"><ele>91.33333333333333</ele><time>2026-04-06T09:06:54.999Z</time></trkpt><trkpt lat="42.94485933721823" lon="11.305767146909183"><ele>91.66666666666667</ele><time>2026-04-06T09:06:55.999Z</time></trkpt><trkpt lat="42.944880876052025" lon="11.306038230051836"><ele>92.0</ele><time>2026-04-06T09:06:56.999Z</time></trkpt><trkpt lat="42.944898902017584" lon="11.306305324823501"><ele>92.66666666666667</ele><time>2026-04-06T09:06:57.999Z</time></trkpt><trkpt lat="42.944920348468656" lon="11.306569411476582"><ele>93.33333333333333</ele><time>2026-04-06T09:06:58.999Z</time></trkpt><trkpt lat="42.94494270392599" lon="11.306828041494883"><ele>94.0</ele><time>2026-04-06T09:06:59.999Z</time></trkpt><trkpt lat="42.94496095869999" lon="11.307092621245907"><ele>94.33333333333333</ele><time>2026-04-06T09:07:00.999Z</time></trkpt><trkpt lat="42.944979928337744" lon="11.307356649325358"><ele>94.66666666666667</ele><time>2026-04-06T09:07:01.999Z</time></trkpt><trkpt lat="42.9450055758479" lon="11.30762399752065"><ele>95.0</ele><time>2026-04-06T09:07:02.999Z</time></trkpt><trkpt lat="42.9450399862334" lon="11.307891235415978"><ele>96.0</ele><time>2026-04-06T09:07:03.999Z</time></trkpt><trkpt lat="42.94508588323807" lon="11.308154609175581"><ele>97.0</ele><time>2026-04-06T09:07:04.999Z</time></trkpt><trkpt lat="42.945142548503746" lon="11.308415418999054"><ele>98.0</ele><time>2026-04-06T09:07:05.999Z</time></trkpt><trkpt lat="42.94521137456231" lon="11.308672144728495"><ele>98.66666666666666</ele><time>2026-04-06T09:07:06.999Z</time></trkpt><trkpt lat="42.945291952525196" lon="11.308923604398343"><ele>99.33333333333334</ele><time>2026-04-06T09:07:07.999Z</time></trkpt><trkpt lat="42.9453815704789" lon="11.309168076447907"><ele>100.0</ele><time>2026-04-06T09:07:08.999Z</time></trkpt><trkpt lat="42.94547799885662" lon="11.309408899568501"><ele>100.0</ele><time>2026-04-06T09:07:09.999Z</time></trkpt><trkpt lat="42.94558215484944" lon="11.309643170966337"><ele>100.0</ele><time>2026-04-06T09:07:10.999Z</time></trkpt><trkpt lat="42.94570361711495" lon="11.309863287809577"><ele>100.0</ele><time>2026-04-06T09:07:11.999Z</time></trkpt><trkpt lat="42.945835447001016" lon="11.310069340567836"><ele>100.33333333333334</ele><time>2026-04-06T09:07:12.999Z</time></trkpt><trkpt lat="42.94597734446507" lon="11.310272979167204"><ele>100.66666666666666</ele><time>2026-04-06T09:07:13.999Z</time></trkpt><trkpt lat="42.94612132931562" lon="11.310477464104109"><ele>101.0</ele><time>2026-04-06T09:07:14.999Z</time></trkpt><trkpt lat="42.94626820197973" lon="11.310683503636842"><ele>100.0</ele><time>2026-04-06T09:07:15.999Z</time></trkpt><trkpt lat="42.94640871787769" lon="11.310879102823947"><ele>99.0</ele><time>2026-04-06T09:07:16.999Z</time></trkpt><trkpt lat="42.946544176095934" lon="11.311074956575927"><ele>98.0</ele><time>2026-04-06T09:07:17.999Z</time></trkpt><trkpt lat="42.94667309140013" lon="11.311273674516036"><ele>94.66666666666666</ele><time>2026-04-06T09:07:18.999Z</time></trkpt><trkpt lat="42.94678968878223" lon="11.311471019849808"><ele>91.33333333333333</ele><time>2026-04-06T09:07:19.999Z</time></trkpt><trkpt lat="42.94688860952974" lon="11.311680491256144"><ele>88.0</ele><time>2026-04-06T09:07:20.999Z</time></trkpt><trkpt lat="42.946975679614866" lon="11.311904256560528"><ele>88.0</ele><time>2026-04-06T09:07:21.999Z</time></trkpt><trkpt lat="42.94705307392416" lon="11.312138754876793"><ele>88.0</ele><time>2026-04-06T09:07:22.999Z</time></trkpt><trkpt lat="42.947118016485184" lon="11.312381594726384"><ele>88.0</ele><time>2026-04-06T09:07:23.999Z</time></trkpt><trkpt lat="42.94716855696732" lon="11.312624426138873"><ele>88.0</ele><time>2026-04-06T09:07:24.999Z</time></trkpt><trkpt lat="42.94720881208632" lon="11.312885885475954"><ele>88.0</ele><time>2026-04-06T09:07:25.999Z</time></trkpt><trkpt lat="42.94724670971317" lon="11.313168121481112"><ele>88.0</ele><time>2026-04-06T09:07:26.999Z</time></trkpt><trkpt lat="42.94728763052829" lon="11.31345672368107"><ele>88.66666666666666</ele><time>2026-04-06T09:07:27.999Z</time></trkpt><trkpt lat="42.947327346001956" lon="11.313743533348019"><ele>89.33333333333333</ele><time>2026-04-06T09:07:28.999Z</time></trkpt><trkpt lat="42.947358667443545" lon="11.314027368742202"><ele>90.0</ele><time>2026-04-06T09:07:29.999Z</time></trkpt><trkpt lat="42.94739140239614" lon="11.314309664454294"><ele>90.0</ele><time>2026-04-06T09:07:30.999Z</time></trkpt><trkpt lat="42.947437322296544" lon="11.314587740114371"><ele>90.0</ele><time>2026-04-06T09:07:31.998Z</time></trkpt><trkpt lat="42.947490739574846" lon="11.314873262692378"><ele>90.0</ele><time>2026-04-06T09:07:32.998Z</time></trkpt><trkpt lat="42.947569646253136" lon="11.315156598796962"><ele>90.0</ele><time>2026-04-06T09:07:33.998Z</time></trkpt><trkpt lat="42.94767046437742" lon="11.31544837348222"><ele>90.0</ele><time>2026-04-06T09:07:34.998Z</time></trkpt><trkpt lat="42.94778525716777" lon="11.315734313521222"><ele>90.0</ele><time>2026-04-06T09:07:35.998Z</time></trkpt><trkpt lat="42.94791691031752" lon="11.316012311144984"><ele>90.0</ele><time>2026-04-06T09:07:36.998Z</time></trkpt><trkpt lat="42.94807053865224" lon="11.316271071175965"><ele>88.0</ele><time>2026-04-06T09:07:37.998Z</time></trkpt><trkpt lat="42.94823330211587" lon="11.31650738900109"><ele>86.0</ele><time>2026-04-06T09:07:38.998Z</time></trkpt><trkpt lat="42.9483981321647" lon="11.316719277229708"><ele>85.33333333333334</ele><time>2026-04-06T09:07:39.998Z</time></trkpt><trkpt lat="42.94855345084999" lon="11.316922021726215"><ele>84.66666666666667</ele><time>2026-04-06T09:07:40.998Z</time></trkpt><trkpt lat="42.94869438273058" lon="11.317109180181724"><ele>84.0</ele><time>2026-04-06T09:07:41.998Z</time></trkpt><trkpt lat="42.9488329581033" lon="11.317295805476656"><ele>83.66666666666667</ele><time>2026-04-06T09:07:42.998Z</time></trkpt><trkpt lat="42.9489598589418" lon="11.317473074557421"><ele>83.33333333333334</ele><time>2026-04-06T09:07:43.998Z</time></trkpt><trkpt lat="42.94908013319055" lon="11.317638756821996"><ele>83.0</ele><time>2026-04-06T09:07:44.998Z</time></trkpt><trkpt lat="42.94919523454195" lon="11.317796229700779"><ele>84.0</ele><time>2026-04-06T09:07:45.998Z</time></trkpt><trkpt lat="42.9493009309914" lon="11.317948725777365"><ele>85.0</ele><time>2026-04-06T09:07:46.998Z</time></trkpt><trkpt lat="42.94940082458088" lon="11.318125284798088"><ele>86.0</ele><time>2026-04-06T09:07:47.998Z</time></trkpt><trkpt lat="42.94949708930793" lon="11.318312587182234"><ele>86.0</ele><time>2026-04-06T09:07:48.998Z</time></trkpt><trkpt lat="42.94958784349516" lon="11.318510572780667"><ele>86.0</ele><time>2026-04-06T09:07:49.998Z</time></trkpt><trkpt lat="42.94965529050931" lon="11.318720330190123"><ele>86.0</ele><time>2026-04-06T09:07:50.998Z</time></trkpt><trkpt lat="42.94974822746027" lon="11.318934747180855"><ele>85.0</ele><time>2026-04-06T09:07:51.998Z</time></trkpt><trkpt lat="42.949809977315404" lon="11.319166843336834"><ele>84.0</ele><time>2026-04-06T09:07:52.998Z</time></trkpt><trkpt lat="42.94988676212977" lon="11.319396886908766"><ele>83.0</ele><time>2026-04-06T09:07:53.998Z</time></trkpt><trkpt lat="42.94996301819851" lon="11.319625346419755"><ele>83.0</ele><time>2026-04-06T09:07:54.998Z</time></trkpt><trkpt lat="42.95004098423254" lon="11.319858928796782"><ele>83.0</ele><time>2026-04-06T09:07:55.998Z</time></trkpt><trkpt lat="42.95011726667099" lon="11.320088274006645"><ele>83.0</ele><time>2026-04-06T09:07:57Z</time></trkpt><trkpt lat="42.95019061267863" lon="11.320309254711008"><ele>83.0</ele><time>2026-04-06T09:07:58Z</time></trkpt><trkpt lat="42.9502639369213" lon="11.320530169817417"><ele>83.0</ele><time>2026-04-06T09:07:59Z</time></trkpt><trkpt lat="42.95033794657831" lon="11.320753150050926"><ele>83.0</ele><time>2026-04-06T09:08:00Z</time></trkpt><trkpt lat="42.95041119015191" lon="11.320973822072757"><ele>82.33333333333334</ele><time>2026-04-06T09:08:01Z</time></trkpt><trkpt lat="42.950485953958975" lon="11.321199074495123"><ele>81.66666666666667</ele><time>2026-04-06T09:08:02Z</time></trkpt><trkpt lat="42.9505605837499" lon="11.321423923041566"><ele>81.0</ele><time>2026-04-06T09:08:03Z</time></trkpt><trkpt lat="42.9506352515869" lon="11.32164761640711"><ele>81.0</ele><time>2026-04-06T09:08:04Z</time></trkpt><trkpt lat="42.950709975126955" lon="11.321870611083407"><ele>81.0</ele><time>2026-04-06T09:08:05Z</time></trkpt><trkpt lat="42.95078562039058" lon="11.322096356441536"><ele>81.0</ele><time>2026-04-06T09:08:06Z</time></trkpt><trkpt lat="42.95086180376687" lon="11.322323707740306"><ele>81.33333333333333</ele><time>2026-04-06T09:08:07Z</time></trkpt><trkpt lat="42.95093810854718" lon="11.322551421250733"><ele>81.66666666666666</ele><time>2026-04-06T09:08:08Z</time></trkpt><trkpt lat="42.95101401575719" lon="11.322777948513545"><ele>82.0</ele><time>2026-04-06T09:08:09Z</time></trkpt><trkpt lat="42.95108869511865" lon="11.323000811311065"><ele>81.66666666666666</ele><time>2026-04-06T09:08:10Z</time></trkpt><trkpt lat="42.951162727352084" lon="11.323221743239527"><ele>81.33333333333333</ele><time>2026-04-06T09:08:11Z</time></trkpt><trkpt lat="42.9512509387075" lon="11.32343114455675"><ele>81.0</ele><time>2026-04-06T09:08:12Z</time></trkpt><trkpt lat="42.95131006501866" lon="11.323663523004704"><ele>81.0</ele><time>2026-04-06T09:08:13Z</time></trkpt><trkpt lat="42.95138356211054" lon="11.323887176367204"><ele>81.0</ele><time>2026-04-06T09:08:14Z</time></trkpt><trkpt lat="42.95145860554361" lon="11.324108549626118"><ele>81.0</ele><time>2026-04-06T09:08:15Z</time></trkpt><trkpt lat="42.95153286619132" lon="11.324327613852864"><ele>80.33333333333333</ele><time>2026-04-06T09:08:16Z</time></trkpt><trkpt lat="42.95160582207253" lon="11.324542828813716"><ele>79.66666666666666</ele><time>2026-04-06T09:08:17Z</time></trkpt><trkpt lat="42.95167707269992" lon="11.32475776356171"><ele>79.0</ele><time>2026-04-06T09:08:18Z</time></trkpt><trkpt lat="42.95176252251613" lon="11.324962627685284"><ele>79.0</ele><time>2026-04-06T09:08:19Z</time></trkpt><trkpt lat="42.95183162705744" lon="11.325180954271769"><ele>79.0</ele><time>2026-04-06T09:08:20Z</time></trkpt><trkpt lat="42.95190218329887" lon="11.325402012834637"><ele>79.0</ele><time>2026-04-06T09:08:21Z</time></trkpt><trkpt lat="42.95197482592584" lon="11.325626301882934"><ele>79.0</ele><time>2026-04-06T09:08:22Z</time></trkpt><trkpt lat="42.952047700283096" lon="11.32586197838198"><ele>79.0</ele><time>2026-04-06T09:08:23Z</time></trkpt><trkpt lat="42.95211876027369" lon="11.326110287703422"><ele>79.0</ele><time>2026-04-06T09:08:24Z</time></trkpt><trkpt lat="42.95218143110713" lon="11.3263700961059"><ele>79.0</ele><time>2026-04-06T09:08:25Z</time></trkpt><trkpt lat="42.95222722957958" lon="11.32663128132053"><ele>79.0</ele><time>2026-04-06T09:08:26Z</time></trkpt><trkpt lat="42.9522417428402" lon="11.326897003570219"><ele>79.0</ele><time>2026-04-06T09:08:27Z</time></trkpt><trkpt lat="42.9522605536179" lon="11.327154302861317"><ele>78.33333333333333</ele><time>2026-04-06T09:08:28Z</time></trkpt><trkpt lat="42.95227780729695" lon="11.327406388068564"><ele>77.66666666666667</ele><time>2026-04-06T09:08:29Z</time></trkpt><trkpt lat="42.95229369922521" lon="11.327656638653183"><ele>77.0</ele><time>2026-04-06T09:08:30Z</time></trkpt><trkpt lat="42.95230960555213" lon="11.327902530747775"><ele>76.33333333333334</ele><time>2026-04-06T09:08:31Z</time></trkpt><trkpt lat="42.9523250617779" lon="11.328139882726955"><ele>75.66666666666667</ele><time>2026-04-06T09:08:32Z</time></trkpt><trkpt lat="42.952340044679026" lon="11.328369966039052"><ele>75.0</ele><time>2026-04-06T09:08:33Z</time></trkpt><trkpt lat="42.952355499692985" lon="11.328607299228253"><ele>75.0</ele><time>2026-04-06T09:08:34Z</time></trkpt><trkpt lat="42.952370391849115" lon="11.328835989151795"><ele>75.0</ele><time>2026-04-06T09:08:35Z</time></trkpt><trkpt lat="42.95238443537209" lon="11.329068430288709"><ele>75.0</ele><time>2026-04-06T09:08:36Z</time></trkpt><trkpt lat="42.95239998047011" lon="11.329301772856915"><ele>74.33333333333333</ele><time>2026-04-06T09:08:37Z</time></trkpt><trkpt lat="42.95241637998652" lon="11.329544084959457"><ele>73.66666666666666</ele><time>2026-04-06T09:08:38Z</time></trkpt><trkpt lat="42.95243245057152" lon="11.3298064864703"><ele>73.0</ele><time>2026-04-06T09:08:38.999Z</time></trkpt><trkpt lat="42.95244925162752" lon="11.330079814531905"><ele>72.33333333333333</ele><time>2026-04-06T09:08:39.999Z</time></trkpt><trkpt lat="42.95246661588419" lon="11.330347544580695"><ele>71.66666666666667</ele><time>2026-04-06T09:08:40.999Z</time></trkpt><trkpt lat="42.95248470263549" lon="11.330624899676865"><ele>71.0</ele><time>2026-04-06T09:08:41.999Z</time></trkpt><trkpt lat="42.952502676529576" lon="11.330900524157991"><ele>70.66666666666667</ele><time>2026-04-06T09:08:42.999Z</time></trkpt><trkpt lat="42.952520624861144" lon="11.33117575651395"><ele>70.33333333333333</ele><time>2026-04-06T09:08:43.999Z</time></trkpt><trkpt lat="42.95253790873636" lon="11.3314511424087"><ele>70.0</ele><time>2026-04-06T09:08:44.999Z</time></trkpt><trkpt lat="42.952555273369704" lon="11.331729810704532"><ele>69.0</ele><time>2026-04-06T09:08:45.999Z</time></trkpt><trkpt lat="42.95258813560251" lon="11.332008154390811"><ele>68.0</ele><time>2026-04-06T09:08:46.999Z</time></trkpt><trkpt lat="42.95260609846933" lon="11.332288781234377"><ele>67.0</ele><time>2026-04-06T09:08:47.999Z</time></trkpt><trkpt lat="42.952608220335286" lon="11.332571279919364"><ele>66.66666666666666</ele><time>2026-04-06T09:08:48.999Z</time></trkpt><trkpt lat="42.95262580450875" lon="11.332844493314333"><ele>66.33333333333333</ele><time>2026-04-06T09:08:49.999Z</time></trkpt><trkpt lat="42.952643459445774" lon="11.333118806951951"><ele>66.0</ele><time>2026-04-06T09:08:50.999Z</time></trkpt><trkpt lat="42.95266096277716" lon="11.333390764543475"><ele>66.0</ele><time>2026-04-06T09:08:51.999Z</time></trkpt><trkpt lat="42.95267733999681" lon="11.333656439801773"><ele>66.0</ele><time>2026-04-06T09:08:52.999Z</time></trkpt><trkpt lat="42.9526937313496" lon="11.333923770039835"><ele>66.0</ele><time>2026-04-06T09:08:53.999Z</time></trkpt><trkpt lat="42.95271022034863" lon="11.334192691777835"><ele>66.0</ele><time>2026-04-06T09:08:54.999Z</time></trkpt><trkpt lat="42.95272675364726" lon="11.334462337146519"><ele>66.0</ele><time>2026-04-06T09:08:55.999Z</time></trkpt><trkpt lat="42.9527430737631" lon="11.334728505750785"><ele>66.0</ele><time>2026-04-06T09:08:56.999Z</time></trkpt><trkpt lat="42.95276003347746" lon="11.334990712944744"><ele>65.66666666666667</ele><time>2026-04-06T09:08:57.999Z</time></trkpt><trkpt lat="42.95277673996235" lon="11.33524789261963"><ele>65.33333333333334</ele><time>2026-04-06T09:08:58.999Z</time></trkpt><trkpt lat="42.952793315470494" lon="11.335503055382121"><ele>65.0</ele><time>2026-04-06T09:08:59.999Z</time></trkpt><trkpt lat="42.95281014097007" lon="11.335762067210347"><ele>65.0</ele><time>2026-04-06T09:09:00.999Z</time></trkpt><trkpt lat="42.9528263575066" lon="11.33601170463672"><ele>65.0</ele><time>2026-04-06T09:09:01.999Z</time></trkpt><trkpt lat="42.95284171676974" lon="11.336248144634322"><ele>65.0</ele><time>2026-04-06T09:09:02.999Z</time></trkpt><trkpt lat="42.9528568105753" lon="11.336480498685154"><ele>65.0</ele><time>2026-04-06T09:09:03.999Z</time></trkpt><trkpt lat="42.95287155046084" lon="11.336705800159912"><ele>65.0</ele><time>2026-04-06T09:09:04.999Z</time></trkpt><trkpt lat="42.95288628497963" lon="11.336929446097535"><ele>65.0</ele><time>2026-04-06T09:09:05.999Z</time></trkpt><trkpt lat="42.952901210664464" lon="11.337155993481817"><ele>65.33333333333334</ele><time>2026-04-06T09:09:06.999Z</time></trkpt><trkpt lat="42.95291608670617" lon="11.33738633117714"><ele>65.66666666666667</ele><time>2026-04-06T09:09:07.999Z</time></trkpt><trkpt lat="42.95293064424796" lon="11.337620856220303"><ele>66.0</ele><time>2026-04-06T09:09:08.999Z</time></trkpt><trkpt lat="42.9529451210346" lon="11.337854080004"><ele>66.0</ele><time>2026-04-06T09:09:09.999Z</time></trkpt><trkpt lat="42.95296080743529" lon="11.338096626117744"><ele>66.0</ele><time>2026-04-06T09:09:10.999Z</time></trkpt><trkpt lat="42.95297724012041" lon="11.338348799181981"><ele>66.0</ele><time>2026-04-06T09:09:11.999Z</time></trkpt><trkpt lat="42.9529949135074" lon="11.338620011823343"><ele>65.66666666666667</ele><time>2026-04-06T09:09:12.999Z</time></trkpt><trkpt lat="42.95301297965433" lon="11.338897251776716"><ele>65.33333333333334</ele><time>2026-04-06T09:09:13.999Z</time></trkpt><trkpt lat="42.95303126244174" lon="11.339177815752247"><ele>65.0</ele><time>2026-04-06T09:09:14.999Z</time></trkpt><trkpt lat="42.95304993847716" lon="11.339464416187248"><ele>65.0</ele><time>2026-04-06T09:09:15.999Z</time></trkpt><trkpt lat="42.95306807564868" lon="11.33975176180497"><ele>65.0</ele><time>2026-04-06T09:09:16.999Z</time></trkpt><trkpt lat="42.95310081091894" lon="11.340039035747875"><ele>65.0</ele><time>2026-04-06T09:09:17.999Z</time></trkpt><trkpt lat="42.953120089268396" lon="11.340328522690815"><ele>65.66666666666667</ele><time>2026-04-06T09:09:18.999Z</time></trkpt><trkpt lat="42.95312244302073" lon="11.340615846311039"><ele>66.33333333333333</ele><time>2026-04-06T09:09:19.999Z</time></trkpt><trkpt lat="42.95314063798163" lon="11.340902331839525"><ele>67.0</ele><time>2026-04-06T09:09:20.999Z</time></trkpt><trkpt lat="42.95316055995156" lon="11.341204154706848"><ele>66.5</ele><time>2026-04-06T09:09:21.999Z</time></trkpt><trkpt lat="42.95318089704806" lon="11.341512266752526"><ele>66.0</ele><time>2026-04-06T09:09:22.999Z</time></trkpt><trkpt lat="42.95320164712011" lon="11.341832782757377"><ele>66.0</ele><time>2026-04-06T09:09:23.999Z</time></trkpt><trkpt lat="42.95322207838802" lon="11.342160963911322"><ele>66.0</ele><time>2026-04-06T09:09:24.999Z</time></trkpt><trkpt lat="42.95324244534983" lon="11.342488112026809"><ele>66.0</ele><time>2026-04-06T09:09:25.999Z</time></trkpt><trkpt lat="42.95326331149232" lon="11.342818494917234"><ele>66.0</ele><time>2026-04-06T09:09:26.999Z</time></trkpt><trkpt lat="42.95328529780916" lon="11.34314879045081"><ele>66.0</ele><time>2026-04-06T09:09:27.999Z</time></trkpt><trkpt lat="42.95330642922953" lon="11.343466243524931"><ele>66.0</ele><time>2026-04-06T09:09:28.999Z</time></trkpt><trkpt lat="42.953327347815375" lon="11.343783435597514"><ele>66.0</ele><time>2026-04-06T09:09:29.999Z</time></trkpt><trkpt lat="42.953345961091934" lon="11.344082324717226"><ele>66.0</ele><time>2026-04-06T09:09:30.999Z</time></trkpt><trkpt lat="42.95336547538791" lon="11.344378703372854"><ele>66.0</ele><time>2026-04-06T09:09:31.999Z</time></trkpt><trkpt lat="42.95338495903894" lon="11.344666791418655"><ele>66.66666666666667</ele><time>2026-04-06T09:09:32.999Z</time></trkpt><trkpt lat="42.95340239314766" lon="11.344947377518041"><ele>67.33333333333334</ele><time>2026-04-06T09:09:33.998Z</time></trkpt><trkpt lat="42.95342032096349" lon="11.345225367918763"><ele>68.0</ele><time>2026-04-06T09:09:34.998Z</time></trkpt><trkpt lat="42.953436894179376" lon="11.345495726333855"><ele>67.33333333333334</ele><time>2026-04-06T09:09:35.998Z</time></trkpt><trkpt lat="42.953453118355554" lon="11.345760390838697"><ele>66.66666666666667</ele><time>2026-04-06T09:09:36.998Z</time></trkpt><trkpt lat="42.953471301105694" lon="11.34602336632099"><ele>66.0</ele><time>2026-04-06T09:09:37.998Z</time></trkpt><trkpt lat="42.95348740877792" lon="11.346283151365265"><ele>66.0</ele><time>2026-04-06T09:09:38.998Z</time></trkpt><trkpt lat="42.95350331129799" lon="11.34653868234773"><ele>66.0</ele><time>2026-04-06T09:09:39.998Z</time></trkpt><trkpt lat="42.953519298968956" lon="11.346795581669035"><ele>66.0</ele><time>2026-04-06T09:09:40.998Z</time></trkpt><trkpt lat="42.95353516459405" lon="11.347050519800945"><ele>66.66666666666667</ele><time>2026-04-06T09:09:41.998Z</time></trkpt><trkpt lat="42.95355111828178" lon="11.347306872985916"><ele>67.33333333333334</ele><time>2026-04-06T09:09:42.998Z</time></trkpt><trkpt lat="42.953566991471526" lon="11.347561932618309"><ele>68.0</ele><time>2026-04-06T09:09:43.998Z</time></trkpt><trkpt lat="42.9535995249295" lon="11.347818500164363"><ele>67.66666666666667</ele><time>2026-04-06T09:09:44.998Z</time></trkpt><trkpt lat="42.95361646286353" lon="11.348078191319669"><ele>67.33333333333333</ele><time>2026-04-06T09:09:45.998Z</time></trkpt><trkpt lat="42.95363339973714" lon="11.348337684632874"><ele>67.0</ele><time>2026-04-06T09:09:46.998Z</time></trkpt><trkpt lat="42.95364831986572" lon="11.348602775098964"><ele>67.0</ele><time>2026-04-06T09:09:47.998Z</time></trkpt><trkpt lat="42.9536646162169" lon="11.348869060730975"><ele>67.0</ele><time>2026-04-06T09:09:48.998Z</time></trkpt><trkpt lat="42.953683589690016" lon="11.349146799880213"><ele>67.0</ele><time>2026-04-06T09:09:49.998Z</time></trkpt><trkpt lat="42.95370461675189" lon="11.349430743246137"><ele>66.0</ele><time>2026-04-06T09:09:50.998Z</time></trkpt><trkpt lat="42.9537085180822" lon="11.349728110240235"><ele>65.0</ele><time>2026-04-06T09:09:51.998Z</time></trkpt><trkpt lat="42.953742368308646" lon="11.350027457491612"><ele>64.0</ele><time>2026-04-06T09:09:52.998Z</time></trkpt><trkpt lat="42.95375852260805" lon="11.350334868534473"><ele>64.66666666666666</ele><time>2026-04-06T09:09:53.998Z</time></trkpt><trkpt lat="42.95377150911487" lon="11.35063596073432"><ele>65.33333333333333</ele><time>2026-04-06T09:09:54.998Z</time></trkpt><trkpt lat="42.95378524779297" lon="11.350926298047348"><ele>66.0</ele><time>2026-04-06T09:09:55.998Z</time></trkpt><trkpt lat="42.953798263421234" lon="11.3512163721438"><ele>66.66666666666667</ele><time>2026-04-06T09:09:56.998Z</time></trkpt><trkpt lat="42.953814343178756" lon="11.351491698079538"><ele>67.33333333333334</ele><time>2026-04-06T09:09:57.998Z</time></trkpt><trkpt lat="42.95383428839165" lon="11.351755754171124"><ele>68.0</ele><time>2026-04-06T09:09:58.998Z</time></trkpt><trkpt lat="42.953852146336544" lon="11.35201124998133"><ele>69.0</ele><time>2026-04-06T09:09:59.998Z</time></trkpt><trkpt lat="42.95386697860529" lon="11.352254412897032"><ele>70.0</ele><time>2026-04-06T09:10:00.998Z</time></trkpt><trkpt lat="42.95388118613953" lon="11.352491746886813"><ele>71.0</ele><time>2026-04-06T09:10:01.998Z</time></trkpt><trkpt lat="42.95389679558199" lon="11.352722117661822"><ele>71.0</ele><time>2026-04-06T09:10:03Z</time></trkpt><trkpt lat="42.95391415527239" lon="11.352952381522917"><ele>71.0</ele><time>2026-04-06T09:10:04Z</time></trkpt><trkpt lat="42.953939770773594" lon="11.353182993408995"><ele>71.0</ele><time>2026-04-06T09:10:05Z</time></trkpt><trkpt lat="42.95397658983785" lon="11.353414995169807"><ele>72.33333333333334</ele><time>2026-04-06T09:10:06Z</time></trkpt><trkpt lat="42.95403249990472" lon="11.353644267157327"><ele>73.66666666666667</ele><time>2026-04-06T09:10:07Z</time></trkpt><trkpt lat="42.95410549115443" lon="11.353870240953611"><ele>75.0</ele><time>2026-04-06T09:10:08Z</time></trkpt><trkpt lat="42.95418724228369" lon="11.354093507985201"><ele>76.66666666666667</ele><time>2026-04-06T09:10:09Z</time></trkpt><trkpt lat="42.95426902735478" lon="11.354316809842567"><ele>78.33333333333334</ele><time>2026-04-06T09:10:10Z</time></trkpt><trkpt lat="42.95434847498263" lon="11.354543269013906"><ele>80.0</ele><time>2026-04-06T09:10:11Z</time></trkpt><trkpt lat="42.95442691476187" lon="11.354764773452859"><ele>80.0</ele><time>2026-04-06T09:10:12Z</time></trkpt><trkpt lat="42.9545076564911" lon="11.354981258730312"><ele>80.0</ele><time>2026-04-06T09:10:13Z</time></trkpt><trkpt lat="42.95458485718702" lon="11.355191393046141"><ele>80.0</ele><time>2026-04-06T09:10:14Z</time></trkpt><trkpt lat="42.954659249513504" lon="11.35539118818306"><ele>80.0</ele><time>2026-04-06T09:10:15Z</time></trkpt><trkpt lat="42.95473460868471" lon="11.355587791477255"><ele>80.0</ele><time>2026-04-06T09:10:16Z</time></trkpt><trkpt lat="42.954809412107274" lon="11.35578762759685"><ele>80.0</ele><time>2026-04-06T09:10:17Z</time></trkpt><trkpt lat="42.95488500702523" lon="11.355994699220707"><ele>80.0</ele><time>2026-04-06T09:10:18Z</time></trkpt><trkpt lat="42.95496232874562" lon="11.356201351879283"><ele>80.0</ele><time>2026-04-06T09:10:19Z</time></trkpt><trkpt lat="42.9550369979376" lon="11.356413204014192"><ele>80.0</ele><time>2026-04-06T09:10:20Z</time></trkpt><trkpt lat="42.95511057327637" lon="11.35661704887048"><ele>82.33333333333334</ele><time>2026-04-06T09:10:21Z</time></trkpt><trkpt lat="42.95518260693339" lon="11.356819685897353"><ele>84.66666666666667</ele><time>2026-04-06T09:10:22Z</time></trkpt><trkpt lat="42.95525330456585" lon="11.357015668815041"><ele>87.0</ele><time>2026-04-06T09:10:23Z</time></trkpt><trkpt lat="42.9553230737615" lon="11.357212899637105"><ele>87.0</ele><time>2026-04-06T09:10:24Z</time></trkpt><trkpt lat="42.95539418990992" lon="11.357417068381674"><ele>87.0</ele><time>2026-04-06T09:10:25Z</time></trkpt><trkpt lat="42.95546516180307" lon="11.357612095626974"><ele>87.0</ele><time>2026-04-06T09:10:26Z</time></trkpt><trkpt lat="42.95553549306858" lon="11.357805578139084"><ele>87.0</ele><time>2026-04-06T09:10:27Z</time></trkpt><trkpt lat="42.95560558710346" lon="11.357997340337127"><ele>87.0</ele><time>2026-04-06T09:10:28Z</time></trkpt><trkpt lat="42.955678454140646" lon="11.3582033251434"><ele>87.0</ele><time>2026-04-06T09:10:29Z</time></trkpt><trkpt lat="42.9557490970006" lon="11.358404232992896"><ele>87.0</ele><time>2026-04-06T09:10:30Z</time></trkpt><trkpt lat="42.95581525491085" lon="11.358595040717653"><ele>87.0</ele><time>2026-04-06T09:10:31Z</time></trkpt><trkpt lat="42.95587557447104" lon="11.358795722598616"><ele>87.0</ele><time>2026-04-06T09:10:32Z</time></trkpt><trkpt lat="42.955924303799605" lon="11.35900336788695"><ele>88.33333333333333</ele><time>2026-04-06T09:10:33Z</time></trkpt><trkpt lat="42.95595675607361" lon="11.359221126038982"><ele>89.66666666666666</ele><time>2026-04-06T09:10:34Z</time></trkpt><trkpt lat="42.955969634095716" lon="11.359439149504292"><ele>91.0</ele><time>2026-04-06T09:10:35Z</time></trkpt><trkpt lat="42.95597230232644" lon="11.359654628982932"><ele>90.75</ele><time>2026-04-06T09:10:36Z</time></trkpt><trkpt lat="42.955977846005" lon="11.359868327401152"><ele>90.5</ele><time>2026-04-06T09:10:37Z</time></trkpt><trkpt lat="42.95598209636889" lon="11.360069238497111"><ele>90.25</ele><time>2026-04-06T09:10:38Z</time></trkpt><trkpt lat="42.95598519824116" lon="11.360249081585428"><ele>90.0</ele><time>2026-04-06T09:10:39Z</time></trkpt><trkpt lat="42.9559972616902" lon="11.36044597122135"><ele>90.66666666666667</ele><time>2026-04-06T09:10:40Z</time></trkpt><trkpt lat="42.95600985619157" lon="11.360666522519294"><ele>91.33333333333334</ele><time>2026-04-06T09:10:41Z</time></trkpt><trkpt lat="42.956018096501865" lon="11.360911550337246"><ele>92.0</ele><time>2026-04-06T09:10:42Z</time></trkpt><trkpt lat="42.956022536999775" lon="11.361158715384434"><ele>92.33333333333334</ele><time>2026-04-06T09:10:42.999Z</time></trkpt><trkpt lat="42.95602985368263" lon="11.3614174516083"><ele>92.66666666666667</ele><time>2026-04-06T09:10:43.999Z</time></trkpt><trkpt lat="42.95603830297199" lon="11.361693168100967"><ele>93.0</ele><time>2026-04-06T09:10:44.999Z</time></trkpt><trkpt lat="42.95604474484998" lon="11.361981917564286"><ele>92.66666666666667</ele><time>2026-04-06T09:10:45.999Z</time></trkpt><trkpt lat="42.95604937939734" lon="11.362282420742574"><ele>92.33333333333334</ele><time>2026-04-06T09:10:46.999Z</time></trkpt><trkpt lat="42.956058715212556" lon="11.362595360497252"><ele>92.0</ele><time>2026-04-06T09:10:47.999Z</time></trkpt><trkpt lat="42.95606818612807" lon="11.362912528803326"><ele>93.0</ele><time>2026-04-06T09:10:48.999Z</time></trkpt><trkpt lat="42.95607147589058" lon="11.363225419667453"><ele>94.0</ele><time>2026-04-06T09:10:49.999Z</time></trkpt><trkpt lat="42.95607060460703" lon="11.363549510246848"><ele>94.0</ele><time>2026-04-06T09:10:50.999Z</time></trkpt><trkpt lat="42.956070873331875" lon="11.363871437248195"><ele>94.0</ele><time>2026-04-06T09:10:51.999Z</time></trkpt><trkpt lat="42.95607742713471" lon="11.36419164529839"><ele>94.0</ele><time>2026-04-06T09:10:52.999Z</time></trkpt><trkpt lat="42.956087248663906" lon="11.364504832235099"><ele>94.0</ele><time>2026-04-06T09:10:53.999Z</time></trkpt><trkpt lat="42.95609205181119" lon="11.364803569172807"><ele>94.0</ele><time>2026-04-06T09:10:54.999Z</time></trkpt><trkpt lat="42.956098129306" lon="11.365090670483697"><ele>94.0</ele><time>2026-04-06T09:10:55.999Z</time></trkpt><trkpt lat="42.95610094276114" lon="11.365367543288299"><ele>94.0</ele><time>2026-04-06T09:10:56.999Z</time></trkpt><trkpt lat="42.95610553465299" lon="11.365634674366888"><ele>94.0</ele><time>2026-04-06T09:10:57.999Z</time></trkpt><trkpt lat="42.9561111682455" lon="11.365900374535638"><ele>94.0</ele><time>2026-04-06T09:10:58.999Z</time></trkpt><trkpt lat="42.95611555050928" lon="11.366164601611665"><ele>94.0</ele><time>2026-04-06T09:10:59.999Z</time></trkpt><trkpt lat="42.95612072718524" lon="11.366429415230503"><ele>94.0</ele><time>2026-04-06T09:11:00.999Z</time></trkpt><trkpt lat="42.95611455648818" lon="11.366709836239362"><ele>94.33333333333333</ele><time>2026-04-06T09:11:01.999Z</time></trkpt><trkpt lat="42.956120514410415" lon="11.366993983108989"><ele>94.66666666666667</ele><time>2026-04-06T09:11:02.999Z</time></trkpt><trkpt lat="42.95612662731999" lon="11.367285521878513"><ele>95.0</ele><time>2026-04-06T09:11:03.999Z</time></trkpt><trkpt lat="42.956132809134566" lon="11.367580346939125"><ele>95.33333333333334</ele><time>2026-04-06T09:11:04.999Z</time></trkpt><trkpt lat="42.95613903493445" lon="11.367877269206529"><ele>95.66666666666667</ele><time>2026-04-06T09:11:05.999Z</time></trkpt><trkpt lat="42.95616097472752" lon="11.368174815685846"><ele>96.0</ele><time>2026-04-06T09:11:06.999Z</time></trkpt><trkpt lat="42.95616112594023" lon="11.36847101507573"><ele>96.66666666666666</ele><time>2026-04-06T09:11:07.999Z</time></trkpt><trkpt lat="42.95616628011362" lon="11.3687674442405"><ele>97.33333333333333</ele><time>2026-04-06T09:11:08.999Z</time></trkpt><trkpt lat="42.95616943910299" lon="11.369068219501784"><ele>98.0</ele><time>2026-04-06T09:11:09.999Z</time></trkpt><trkpt lat="42.95617580936831" lon="11.369366648443789"><ele>98.0</ele><time>2026-04-06T09:11:10.999Z</time></trkpt><trkpt lat="42.95618452989124" lon="11.369665967595981"><ele>98.0</ele><time>2026-04-06T09:11:11.999Z</time></trkpt><trkpt lat="42.95619121216898" lon="11.36996842852744"><ele>98.0</ele><time>2026-04-06T09:11:12.999Z</time></trkpt><trkpt lat="42.956198306977775" lon="11.370270018878514"><ele>98.0</ele><time>2026-04-06T09:11:13.999Z</time></trkpt><trkpt lat="42.956207232207966" lon="11.370574911686603"><ele>98.0</ele><time>2026-04-06T09:11:14.999Z</time></trkpt><trkpt lat="42.956212075961616" lon="11.370882822004104"><ele>98.0</ele><time>2026-04-06T09:11:15.999Z</time></trkpt><trkpt lat="42.956216600865936" lon="11.371188629362242"><ele>98.0</ele><time>2026-04-06T09:11:16.999Z</time></trkpt><trkpt lat="42.9562223693275" lon="11.37149544019354"><ele>98.0</ele><time>2026-04-06T09:11:17.999Z</time></trkpt><trkpt lat="42.95622814796867" lon="11.371804295789556"><ele>98.0</ele><time>2026-04-06T09:11:18.999Z</time></trkpt><trkpt lat="42.95623288888786" lon="11.372112207384232"><ele>98.0</ele><time>2026-04-06T09:11:19.999Z</time></trkpt><trkpt lat="42.956237968147356" lon="11.372419788777886"><ele>98.0</ele><time>2026-04-06T09:11:20.999Z</time></trkpt><trkpt lat="42.9562430167063" lon="11.372728821958711"><ele>98.0</ele><time>2026-04-06T09:11:21.999Z</time></trkpt><trkpt lat="42.95624839615392" lon="11.373037226583737"><ele>98.0</ele><time>2026-04-06T09:11:22.999Z</time></trkpt><trkpt lat="42.95625265089808" lon="11.373347373124908"><ele>98.0</ele><time>2026-04-06T09:11:23.999Z</time></trkpt><trkpt lat="42.95625798743177" lon="11.373657588815384"><ele>98.66666666666666</ele><time>2026-04-06T09:11:24.999Z</time></trkpt><trkpt lat="42.956265478809804" lon="11.373966513299129"><ele>99.33333333333334</ele><time>2026-04-06T09:11:25.999Z</time></trkpt><trkpt lat="42.956276288468025" lon="11.374267220643159"><ele>100.0</ele><time>2026-04-06T09:11:26.999Z</time></trkpt><trkpt lat="42.95629147019123" lon="11.374559885124388"><ele>101.0</ele><time>2026-04-06T09:11:27.999Z</time></trkpt><trkpt lat="42.95630950750457" lon="11.374847457286018"><ele>102.0</ele><time>2026-04-06T09:11:28.999Z</time></trkpt><trkpt lat="42.956329363831614" lon="11.375130721261733"><ele>103.0</ele><time>2026-04-06T09:11:29.999Z</time></trkpt><trkpt lat="42.95635185277547" lon="11.375414178675657"><ele>103.0</ele><time>2026-04-06T09:11:30.999Z</time></trkpt><trkpt lat="42.95637868587321" lon="11.375696278211386"><ele>103.0</ele><time>2026-04-06T09:11:31.999Z</time></trkpt><trkpt lat="42.95640775637684" lon="11.375976787149561"><ele>103.0</ele><time>2026-04-06T09:11:32.999Z</time></trkpt><trkpt lat="42.95643824253359" lon="11.37625348414291"><ele>101.66666666666667</ele><time>2026-04-06T09:11:33.999Z</time></trkpt><trkpt lat="42.95646767745646" lon="11.376523916426741"><ele>100.33333333333334</ele><time>2026-04-06T09:11:34.999Z</time></trkpt><trkpt lat="42.956496441962884" lon="11.376791367644325"><ele>99.0</ele><time>2026-04-06T09:11:35.999Z</time></trkpt><trkpt lat="42.95652646446946" lon="11.377052301575123"><ele>99.0</ele><time>2026-04-06T09:11:36.999Z</time></trkpt><trkpt lat="42.95655584518602" lon="11.377304602733606"><ele>99.0</ele><time>2026-04-06T09:11:37.998Z</time></trkpt><trkpt lat="42.95658590369632" lon="11.377554339662248"><ele>99.0</ele><time>2026-04-06T09:11:38.998Z</time></trkpt><trkpt lat="42.956616225403145" lon="11.377803481903698"><ele>99.0</ele><time>2026-04-06T09:11:39.998Z</time></trkpt><trkpt lat="42.956646887734294" lon="11.378048948143126"><ele>99.0</ele><time>2026-04-06T09:11:40.998Z</time></trkpt><trkpt lat="42.95667598727979" lon="11.378285655187625"><ele>99.0</ele><time>2026-04-06T09:11:41.998Z</time></trkpt><trkpt lat="42.95670295474292" lon="11.378512298537593"><ele>99.33333333333334</ele><time>2026-04-06T09:11:42.998Z</time></trkpt><trkpt lat="42.956730001966875" lon="11.37873481070061"><ele>99.66666666666667</ele><time>2026-04-06T09:11:43.998Z</time></trkpt><trkpt lat="42.956755352289754" lon="11.378956281602028"><ele>100.0</ele><time>2026-04-06T09:11:44.998Z</time></trkpt><trkpt lat="42.9567795466608" lon="11.379178450648691"><ele>100.33333333333334</ele><time>2026-04-06T09:11:45.998Z</time></trkpt><trkpt lat="42.95680353870527" lon="11.379403749864057"><ele>100.66666666666666</ele><time>2026-04-06T09:11:46.998Z</time></trkpt><trkpt lat="42.95682807815561" lon="11.379628945785672"><ele>101.0</ele><time>2026-04-06T09:11:47.998Z</time></trkpt><trkpt lat="42.95685214192697" lon="11.379852379459173"><ele>101.0</ele><time>2026-04-06T09:11:48.998Z</time></trkpt><trkpt lat="42.95687904043318" lon="11.380074855726939"><ele>101.0</ele><time>2026-04-06T09:11:49.998Z</time></trkpt><trkpt lat="42.95690413076959" lon="11.380297512598263"><ele>101.0</ele><time>2026-04-06T09:11:50.998Z</time></trkpt><trkpt lat="42.956927462071825" lon="11.380513215738137"><ele>101.0</ele><time>2026-04-06T09:11:51.998Z</time></trkpt><trkpt lat="42.95694915574212" lon="11.380724152048826"><ele>101.0</ele><time>2026-04-06T09:11:52.998Z</time></trkpt><trkpt lat="42.95696935239943" lon="11.380926846968483"><ele>101.0</ele><time>2026-04-06T09:11:53.998Z</time></trkpt><trkpt lat="42.956993035332744" lon="11.381123164332172"><ele>101.0</ele><time>2026-04-06T09:11:54.998Z</time></trkpt><trkpt lat="42.95701917256525" lon="11.381313495165003"><ele>101.0</ele><time>2026-04-06T09:11:55.998Z</time></trkpt><trkpt lat="42.95702427289857" lon="11.381515436772215"><ele>101.0</ele><time>2026-04-06T09:11:56.998Z</time></trkpt><trkpt lat="42.957046786418914" lon="11.381726396743822"><ele>101.0</ele><time>2026-04-06T09:11:57.998Z</time></trkpt><trkpt lat="42.9570706166606" lon="11.381948315896697"><ele>101.33333333333333</ele><time>2026-04-06T09:11:58.998Z</time></trkpt><trkpt lat="42.95709574286747" lon="11.382180819697506"><ele>101.66666666666666</ele><time>2026-04-06T09:11:59.998Z</time></trkpt><trkpt lat="42.957121588484405" lon="11.38241998086558"><ele>102.0</ele><time>2026-04-06T09:12:00.998Z</time></trkpt><trkpt lat="42.95714914668522" lon="11.382674989661608"><ele>102.66666666666666</ele><time>2026-04-06T09:12:01.998Z</time></trkpt><trkpt lat="42.95720516247245" lon="11.382930228798578"><ele>103.33333333333333</ele><time>2026-04-06T09:12:02.998Z</time></trkpt><trkpt lat="42.95723087666252" lon="11.383196604797872"><ele>104.0</ele><time>2026-04-06T09:12:03.998Z</time></trkpt><trkpt lat="42.95724750347521" lon="11.383463619876212"><ele>104.33333333333333</ele><time>2026-04-06T09:12:04.998Z</time></trkpt><trkpt lat="42.95727148264848" lon="11.38372515311274"><ele>104.66666666666666</ele><time>2026-04-06T09:12:05.998Z</time></trkpt><trkpt lat="42.95729909390994" lon="11.383966477628894"><ele>105.0</ele><time>2026-04-06T09:12:06.998Z</time></trkpt><trkpt lat="42.95732863728661" lon="11.384187778649693"><ele>105.0</ele><time>2026-04-06T09:12:08Z</time></trkpt><trkpt lat="42.95735158699574" lon="11.384384169903168"><ele>105.0</ele><time>2026-04-06T09:12:09Z</time></trkpt><trkpt lat="42.95736022640136" lon="11.384566470856242"><ele>105.0</ele><time>2026-04-06T09:12:10Z</time></trkpt><trkpt lat="42.957354925256986" lon="11.384739080143977"><ele>105.0</ele><time>2026-04-06T09:12:11Z</time></trkpt><trkpt lat="42.9573176089369" lon="11.384891366964386"><ele>105.2</ele><time>2026-04-06T09:12:12Z</time></trkpt><trkpt lat="42.95728318146936" lon="11.385023433041852"><ele>105.4</ele><time>2026-04-06T09:12:13Z</time></trkpt><trkpt lat="42.95728805798325" lon="11.385157799495671"><ele>105.6</ele><time>2026-04-06T09:12:14Z</time></trkpt><trkpt lat="42.957323724316915" lon="11.385299347856934"><ele>105.8</ele><time>2026-04-06T09:12:15Z</time></trkpt><trkpt lat="42.95742242526558" lon="11.385388327525389"><ele>106.0</ele><time>2026-04-06T09:12:16Z</time></trkpt><trkpt lat="42.957451441421625" lon="11.385600505275162"><ele>106.0</ele><time>2026-04-06T09:12:17Z</time></trkpt><trkpt lat="42.957480346366424" lon="11.385771991838684"><ele>106.0</ele><time>2026-04-06T09:12:18Z</time></trkpt><trkpt lat="42.95750032765606" lon="11.385963779850403"><ele>106.0</ele><time>2026-04-06T09:12:19Z</time></trkpt><trkpt lat="42.95752585442464" lon="11.386167682883103"><ele>106.0</ele><time>2026-04-06T09:12:20Z</time></trkpt><trkpt lat="42.9575549627537" lon="11.386380323853784"><ele>104.0</ele><time>2026-04-06T09:12:21Z</time></trkpt><trkpt lat="42.95758091045905" lon="11.386612505653208"><ele>102.0</ele><time>2026-04-06T09:12:22Z</time></trkpt><trkpt lat="42.95760894977148" lon="11.386848701726773"><ele>100.0</ele><time>2026-04-06T09:12:23Z</time></trkpt><trkpt lat="42.957634264463415" lon="11.387095474235686"><ele>99.33333333333334</ele><time>2026-04-06T09:12:24Z</time></trkpt><trkpt lat="42.95766257191462" lon="11.387352282554385"><ele>98.66666666666666</ele><time>2026-04-06T09:12:25Z</time></trkpt><trkpt lat="42.957690671979805" lon="11.387618481996702"><ele>98.0</ele><time>2026-04-06T09:12:26Z</time></trkpt><trkpt lat="42.957718634657084" lon="11.387882198377472"><ele>99.0</ele><time>2026-04-06T09:12:27Z</time></trkpt><trkpt lat="42.957747455495785" lon="11.38813305117019"><ele>100.0</ele><time>2026-04-06T09:12:28Z</time></trkpt><trkpt lat="42.9577768068497" lon="11.388390211091968"><ele>101.0</ele><time>2026-04-06T09:12:29Z</time></trkpt><trkpt lat="42.95780583082617" lon="11.38864785756725"><ele>102.33333333333333</ele><time>2026-04-06T09:12:30Z</time></trkpt><trkpt lat="42.95783430801892" lon="11.38890601159198"><ele>103.66666666666666</ele><time>2026-04-06T09:12:31Z</time></trkpt><trkpt lat="42.957860415914155" lon="11.389163932185706"><ele>105.0</ele><time>2026-04-06T09:12:32Z</time></trkpt><trkpt lat="42.957879723128706" lon="11.389424307661697"><ele>105.33333333333334</ele><time>2026-04-06T09:12:33Z</time></trkpt><trkpt lat="42.95789181998087" lon="11.389685702042716"><ele>105.66666666666667</ele><time>2026-04-06T09:12:34Z</time></trkpt><trkpt lat="42.95788928487704" lon="11.38994809640783"><ele>106.0</ele><time>2026-04-06T09:12:35Z</time></trkpt><trkpt lat="42.95786793469285" lon="11.39020957513963"><ele>106.0</ele><time>2026-04-06T09:12:36Z</time></trkpt><trkpt lat="42.957841970553794" lon="11.390472632248196"><ele>106.0</ele><time>2026-04-06T09:12:37Z</time></trkpt><trkpt lat="42.95782158115924" lon="11.390731243595752"><ele>106.0</ele><time>2026-04-06T09:12:38Z</time></trkpt><trkpt lat="42.957802093282254" lon="11.390977156344874"><ele>105.66666666666667</ele><time>2026-04-06T09:12:39Z</time></trkpt><trkpt lat="42.95777945407477" lon="11.391221747294457"><ele>105.33333333333334</ele><time>2026-04-06T09:12:40Z</time></trkpt><trkpt lat="42.95775689089179" lon="11.3914646411001"><ele>105.0</ele><time>2026-04-06T09:12:41Z</time></trkpt><trkpt lat="42.957735637037416" lon="11.391706084673727"><ele>105.33333333333334</ele><time>2026-04-06T09:12:42Z</time></trkpt><trkpt lat="42.95771599964914" lon="11.391944384169376"><ele>105.66666666666667</ele><time>2026-04-06T09:12:43Z</time></trkpt><trkpt lat="42.95769722671793" lon="11.392174054601822"><ele>106.0</ele><time>2026-04-06T09:12:44Z</time></trkpt><trkpt lat="42.95767769077414" lon="11.392393908257704"><ele>106.0</ele><time>2026-04-06T09:12:45Z</time></trkpt><trkpt lat="42.95765818683141" lon="11.392609993290232"><ele>106.0</ele><time>2026-04-06T09:12:46Z</time></trkpt><trkpt lat="42.95763852443127" lon="11.392827040925356"><ele>106.0</ele><time>2026-04-06T09:12:46.999Z</time></trkpt><trkpt lat="42.95762072694502" lon="11.393044332731915"><ele>105.66666666666667</ele><time>2026-04-06T09:12:47.999Z</time></trkpt><trkpt lat="42.95760232407214" lon="11.39326109299637"><ele>105.33333333333334</ele><time>2026-04-06T09:12:48.999Z</time></trkpt><trkpt lat="42.95758264024904" lon="11.393480759850272"><ele>105.0</ele><time>2026-04-06T09:12:49.999Z</time></trkpt><trkpt lat="42.95756377700433" lon="11.393701294379545"><ele>104.66666666666666</ele><time>2026-04-06T09:12:50.999Z</time></trkpt><trkpt lat="42.95754485712538" lon="11.39392137511417"><ele>104.33333333333333</ele><time>2026-04-06T09:12:51.999Z</time></trkpt><trkpt lat="42.95752733751422" lon="11.394141302623346"><ele>104.0</ele><time>2026-04-06T09:12:52.999Z</time></trkpt><trkpt lat="42.957507798813275" lon="11.394361228444625"><ele>105.66666666666666</ele><time>2026-04-06T09:12:53.999Z</time></trkpt><trkpt lat="42.95748775747266" lon="11.394580532425676"><ele>107.33333333333334</ele><time>2026-04-06T09:12:54.999Z</time></trkpt><trkpt lat="42.95746804996475" lon="11.394798483744879"><ele>109.0</ele><time>2026-04-06T09:12:55.999Z</time></trkpt><trkpt lat="42.9574496232355" lon="11.39501229996673"><ele>109.33333333333334</ele><time>2026-04-06T09:12:56.999Z</time></trkpt><trkpt lat="42.95743037279683" lon="11.39522128359585"><ele>109.66666666666666</ele><time>2026-04-06T09:12:57.999Z</time></trkpt><trkpt lat="42.957410775277395" lon="11.39542786266542"><ele>110.0</ele><time>2026-04-06T09:12:58.999Z</time></trkpt><trkpt lat="42.957392726723135" lon="11.395634010340833"><ele>109.33333333333333</ele><time>2026-04-06T09:12:59.999Z</time></trkpt><trkpt lat="42.957375435931475" lon="11.395842487095909"><ele>108.66666666666666</ele><time>2026-04-06T09:13:00.999Z</time></trkpt><trkpt lat="42.95735884686862" lon="11.396053106686955"><ele>108.0</ele><time>2026-04-06T09:13:01.999Z</time></trkpt><trkpt lat="42.95733999789145" lon="11.396263188527525"><ele>107.33333333333334</ele><time>2026-04-06T09:13:02.999Z</time></trkpt><trkpt lat="42.95732093125754" lon="11.396479301575969"><ele>106.66666666666667</ele><time>2026-04-06T09:13:03.999Z</time></trkpt><trkpt lat="42.95730109356903" lon="11.396700184968003"><ele>106.0</ele><time>2026-04-06T09:13:04.999Z</time></trkpt><trkpt lat="42.957283789320726" lon="11.396927878732514"><ele>106.0</ele><time>2026-04-06T09:13:05.999Z</time></trkpt><trkpt lat="42.9572700903115" lon="11.397160916334876"><ele>106.0</ele><time>2026-04-06T09:13:06.999Z</time></trkpt><trkpt lat="42.957261660975334" lon="11.397398715003431"><ele>106.0</ele><time>2026-04-06T09:13:07.999Z</time></trkpt><trkpt lat="42.95726312822102" lon="11.397642141689358"><ele>105.0</ele><time>2026-04-06T09:13:08.999Z</time></trkpt><trkpt lat="42.957277198583235" lon="11.397889156657618"><ele>104.0</ele><time>2026-04-06T09:13:09.999Z</time></trkpt><trkpt lat="42.95729269797247" lon="11.398139755309844"><ele>103.0</ele><time>2026-04-06T09:13:10.999Z</time></trkpt><trkpt lat="42.957310924326976" lon="11.39839640922467"><ele>102.33333333333334</ele><time>2026-04-06T09:13:11.999Z</time></trkpt><trkpt lat="42.957323204069276" lon="11.398662094796975"><ele>101.66666666666666</ele><time>2026-04-06T09:13:12.999Z</time></trkpt><trkpt lat="42.957347170711806" lon="11.398944134693853"><ele>101.0</ele><time>2026-04-06T09:13:13.999Z</time></trkpt><trkpt lat="42.9573652775247" lon="11.399230025176841"><ele>101.0</ele><time>2026-04-06T09:13:14.999Z</time></trkpt><trkpt lat="42.95737324012868" lon="11.399516516106493"><ele>101.0</ele><time>2026-04-06T09:13:15.999Z</time></trkpt><trkpt lat="42.95737906897006" lon="11.399813698005907"><ele>101.0</ele><time>2026-04-06T09:13:16.999Z</time></trkpt><trkpt lat="42.95737664248268" lon="11.40010355658159"><ele>99.66666666666666</ele><time>2026-04-06T09:13:17.999Z</time></trkpt><trkpt lat="42.957380982131184" lon="11.400379752854993"><ele>98.33333333333334</ele><time>2026-04-06T09:13:18.999Z</time></trkpt><trkpt lat="42.957368194936784" lon="11.4006455484463"><ele>97.0</ele><time>2026-04-06T09:13:19.999Z</time></trkpt><trkpt lat="42.95736539667725" lon="11.400901960612172"><ele>95.66666666666667</ele><time>2026-04-06T09:13:20.999Z</time></trkpt><trkpt lat="42.95736271277402" lon="11.401147894081555"><ele>94.33333333333334</ele><time>2026-04-06T09:13:21.999Z</time></trkpt><trkpt lat="42.95736014489246" lon="11.401383195780715"><ele>93.0</ele><time>2026-04-06T09:13:22.999Z</time></trkpt><trkpt lat="42.95735761469696" lon="11.401615044495541"><ele>93.0</ele><time>2026-04-06T09:13:23.999Z</time></trkpt><trkpt lat="42.957354961770015" lon="11.401858139242993"><ele>93.0</ele><time>2026-04-06T09:13:24.999Z</time></trkpt><trkpt lat="42.95735220266887" lon="11.402110962986734"><ele>93.0</ele><time>2026-04-06T09:13:25.999Z</time></trkpt><trkpt lat="42.95736537086442" lon="11.402368164014236"><ele>93.66666666666667</ele><time>2026-04-06T09:13:26.999Z</time></trkpt><trkpt lat="42.957361157330716" lon="11.40261955876643"><ele>94.33333333333334</ele><time>2026-04-06T09:13:27.999Z</time></trkpt><trkpt lat="42.95735556309046" lon="11.402870004388047"><ele>95.0</ele><time>2026-04-06T09:13:28.999Z</time></trkpt><trkpt lat="42.95734577648687" lon="11.40311960529437"><ele>95.33333333333334</ele><time>2026-04-06T09:13:29.999Z</time></trkpt><trkpt lat="42.95733291366596" lon="11.403368710828476"><ele>95.66666666666667</ele><time>2026-04-06T09:13:30.999Z</time></trkpt><trkpt lat="42.957322121319386" lon="11.403611772425654"><ele>96.0</ele><time>2026-04-06T09:13:31.999Z</time></trkpt><trkpt lat="42.9573105074322" lon="11.403844753245508"><ele>97.66666666666666</ele><time>2026-04-06T09:13:32.999Z</time></trkpt><trkpt lat="42.95728626002843" lon="11.404054265614032"><ele>99.33333333333333</ele><time>2026-04-06T09:13:33.999Z</time></trkpt><trkpt lat="42.95724982342459" lon="11.404254746901167"><ele>101.0</ele><time>2026-04-06T09:13:34.999Z</time></trkpt><trkpt lat="42.95720556800229" lon="11.404480111781458"><ele>103.0</ele><time>2026-04-06T09:13:35.999Z</time></trkpt><trkpt lat="42.957146705830084" lon="11.404708393537236"><ele>105.0</ele><time>2026-04-06T09:13:36.999Z</time></trkpt><trkpt lat="42.95708476625502" lon="11.404945786557217"><ele>107.0</ele><time>2026-04-06T09:13:37.999Z</time></trkpt><trkpt lat="42.95699762127193" lon="11.405175649565692"><ele>107.0</ele><time>2026-04-06T09:13:38.999Z</time></trkpt><trkpt lat="42.95692946931502" lon="11.405424639554917"><ele>107.0</ele><time>2026-04-06T09:13:39.999Z</time></trkpt><trkpt lat="42.95687573050059" lon="11.405684053173744"><ele>107.0</ele><time>2026-04-06T09:13:40.999Z</time></trkpt><trkpt lat="42.9567971967378" lon="11.40593454937158"><ele>107.33333333333333</ele><time>2026-04-06T09:13:41.998Z</time></trkpt><trkpt lat="42.95672250842703" lon="11.406190607151728"><ele>107.66666666666666</ele><time>2026-04-06T09:13:42.998Z</time></trkpt><trkpt lat="42.95665523914938" lon="11.406454455249902"><ele>108.0</ele><time>2026-04-06T09:13:43.998Z</time></trkpt><trkpt lat="42.95659744140738" lon="11.406727374811311"><ele>109.0</ele><time>2026-04-06T09:13:44.998Z</time></trkpt><trkpt lat="42.95654348922518" lon="11.407000911849943"><ele>110.0</ele><time>2026-04-06T09:13:45.998Z</time></trkpt><trkpt lat="42.9564911436095" lon="11.40728619177402"><ele>111.0</ele><time>2026-04-06T09:13:46.998Z</time></trkpt><trkpt lat="42.95643463638778" lon="11.407574217124319"><ele>111.66666666666666</ele><time>2026-04-06T09:13:47.998Z</time></trkpt><trkpt lat="42.956377432357655" lon="11.40785911103286"><ele>112.33333333333333</ele><time>2026-04-06T09:13:48.998Z</time></trkpt><trkpt lat="42.9563208661119" lon="11.408149914996395"><ele>113.0</ele><time>2026-04-06T09:13:49.998Z</time></trkpt><trkpt lat="42.95626433158645" lon="11.408441723933585"><ele>113.33333333333333</ele><time>2026-04-06T09:13:50.998Z</time></trkpt><trkpt lat="42.956204297658424" lon="11.408735011620516"><ele>113.66666666666666</ele><time>2026-04-06T09:13:51.998Z</time></trkpt><trkpt lat="42.95614399484745" lon="11.409032550220557"><ele>114.0</ele><time>2026-04-06T09:13:52.998Z</time></trkpt><trkpt lat="42.95608450861806" lon="11.409330327768792"><ele>113.0</ele><time>2026-04-06T09:13:53.998Z</time></trkpt><trkpt lat="42.95602431721415" lon="11.409625818073385"><ele>112.0</ele><time>2026-04-06T09:13:54.998Z</time></trkpt><trkpt lat="42.95596513621272" lon="11.409921966825147"><ele>111.0</ele><time>2026-04-06T09:13:55.998Z</time></trkpt><trkpt lat="42.95590629426041" lon="11.41021581916496"><ele>113.0</ele><time>2026-04-06T09:13:56.998Z</time></trkpt><trkpt lat="42.95584715317935" lon="11.41050749912746"><ele>115.0</ele><time>2026-04-06T09:13:57.998Z</time></trkpt><trkpt lat="42.95579010177522" lon="11.410797101448114"><ele>117.0</ele><time>2026-04-06T09:13:58.998Z</time></trkpt><trkpt lat="42.95573234657741" lon="11.41108602693534"><ele>116.66666666666666</ele><time>2026-04-06T09:13:59.998Z</time></trkpt><trkpt lat="42.95567434832377" lon="11.41137517895762"><ele>116.33333333333333</ele><time>2026-04-06T09:14:00.998Z</time></trkpt><trkpt lat="42.95561659070775" lon="11.411663595481507"><ele>116.0</ele><time>2026-04-06T09:14:01.998Z</time></trkpt><trkpt lat="42.9555585973459" lon="11.411950515079493"><ele>115.0</ele><time>2026-04-06T09:14:02.998Z</time></trkpt><trkpt lat="42.95549856912232" lon="11.412238087350515"><ele>114.0</ele><time>2026-04-06T09:14:03.998Z</time></trkpt><trkpt lat="42.95544212601119" lon="11.412528152780865"><ele>113.0</ele><time>2026-04-06T09:14:04.998Z</time></trkpt><trkpt lat="42.95538608216262" lon="11.412821306935534"><ele>113.33333333333333</ele><time>2026-04-06T09:14:05.998Z</time></trkpt><trkpt lat="42.955333712667056" lon="11.413113228015582"><ele>113.66666666666666</ele><time>2026-04-06T09:14:06.998Z</time></trkpt><trkpt lat="42.955275284867234" lon="11.413401693315816"><ele>114.0</ele><time>2026-04-06T09:14:07.998Z</time></trkpt><trkpt lat="42.95521452449933" lon="11.413690724868477"><ele>114.33333333333334</ele><time>2026-04-06T09:14:08.998Z</time></trkpt><trkpt lat="42.95515495426848" lon="11.413980226264426"><ele>114.66666666666667</ele><time>2026-04-06T09:14:09.998Z</time></trkpt><trkpt lat="42.95509656042396" lon="11.414273960343502"><ele>115.0</ele><time>2026-04-06T09:14:10.998Z</time></trkpt><trkpt lat="42.955038891080854" lon="11.414561928330478"><ele>117.0</ele><time>2026-04-06T09:14:11.998Z</time></trkpt><trkpt lat="42.954980288186455" lon="11.414848153715552"><ele>119.0</ele><time>2026-04-06T09:14:12.998Z</time></trkpt><trkpt lat="42.95492309410036" lon="11.415134945586294"><ele>121.0</ele><time>2026-04-06T09:14:14Z</time></trkpt><trkpt lat="42.95486625083667" lon="11.415421014693425"><ele>121.0</ele><time>2026-04-06T09:14:15Z</time></trkpt><trkpt lat="42.954806327944404" lon="11.415702143387524"><ele>121.0</ele><time>2026-04-06T09:14:16Z</time></trkpt><trkpt lat="42.954750045990394" lon="11.415986688533007"><ele>121.0</ele><time>2026-04-06T09:14:17Z</time></trkpt><trkpt lat="42.9546924393904" lon="11.416267364531558"><ele>121.66666666666667</ele><time>2026-04-06T09:14:18Z</time></trkpt><trkpt lat="42.95463578959945" lon="11.416547253653086"><ele>122.33333333333334</ele><time>2026-04-06T09:14:19Z</time></trkpt><trkpt lat="42.954579399422904" lon="11.416823641616602"><ele>123.0</ele><time>2026-04-06T09:14:20Z</time></trkpt><trkpt lat="42.95452294936391" lon="11.417097571433937"><ele>123.66666666666666</ele><time>2026-04-06T09:14:21Z</time></trkpt><trkpt lat="42.954467311517355" lon="11.417367175345426"><ele>124.33333333333333</ele><time>2026-04-06T09:14:22Z</time></trkpt><trkpt lat="42.954413963334595" lon="11.417632619822962"><ele>125.0</ele><time>2026-04-06T09:14:23Z</time></trkpt><trkpt lat="42.95436204161896" lon="11.417892308820006"><ele>125.33333333333333</ele><time>2026-04-06T09:14:24Z</time></trkpt><trkpt lat="42.95431005497769" lon="11.418148113302124"><ele>125.66666666666666</ele><time>2026-04-06T09:14:25Z</time></trkpt><trkpt lat="42.95425779565625" lon="11.418400120217996"><ele>126.0</ele><time>2026-04-06T09:14:26Z</time></trkpt><trkpt lat="42.954205502706124" lon="11.418650776997445"><ele>127.0</ele><time>2026-04-06T09:14:27Z</time></trkpt><trkpt lat="42.954156033762104" lon="11.41889931889106"><ele>128.0</ele><time>2026-04-06T09:14:28Z</time></trkpt><trkpt lat="42.95410762480627" lon="11.41914759646994"><ele>129.0</ele><time>2026-04-06T09:14:29Z</time></trkpt><trkpt lat="42.9540572450123" lon="11.419392457836516"><ele>129.0</ele><time>2026-04-06T09:14:30Z</time></trkpt><trkpt lat="42.95400581141653" lon="11.419639839832948"><ele>129.0</ele><time>2026-04-06T09:14:31Z</time></trkpt><trkpt lat="42.953956258338096" lon="11.419890418360826"><ele>129.0</ele><time>2026-04-06T09:14:32Z</time></trkpt><trkpt lat="42.95390656333997" lon="11.42014046558504"><ele>130.0</ele><time>2026-04-06T09:14:33Z</time></trkpt><trkpt lat="42.953856696694494" lon="11.42038684137297"><ele>131.0</ele><time>2026-04-06T09:14:34Z</time></trkpt><trkpt lat="42.95380654718804" lon="11.4206317513253"><ele>132.0</ele><time>2026-04-06T09:14:35Z</time></trkpt><trkpt lat="42.95375711685653" lon="11.420875354182543"><ele>133.33333333333334</ele><time>2026-04-06T09:14:36Z</time></trkpt><trkpt lat="42.953708640526706" lon="11.421120063342581"><ele>134.66666666666669</ele><time>2026-04-06T09:14:37Z</time></trkpt><trkpt lat="42.953660366317635" lon="11.421369249119776"><ele>136.0</ele><time>2026-04-06T09:14:38Z</time></trkpt><trkpt lat="42.95361190016594" lon="11.42161677627198"><ele>136.66666666666669</ele><time>2026-04-06T09:14:39Z</time></trkpt><trkpt lat="42.953562763776866" lon="11.421862751924627"><ele>137.33333333333334</ele><time>2026-04-06T09:14:40Z</time></trkpt><trkpt lat="42.95351443895134" lon="11.422107193879615"><ele>138.0</ele><time>2026-04-06T09:14:41Z</time></trkpt><trkpt lat="42.95346590605999" lon="11.422351831116904"><ele>138.33333333333334</ele><time>2026-04-06T09:14:42Z</time></trkpt><trkpt lat="42.95341751415739" lon="11.42259732440034"><ele>138.66666666666669</ele><time>2026-04-06T09:14:43Z</time></trkpt><trkpt lat="42.95337197596703" lon="11.422839049701329"><ele>139.0</ele><time>2026-04-06T09:14:44Z</time></trkpt><trkpt lat="42.953328085215084" lon="11.423071691940384"><ele>140.33333333333334</ele><time>2026-04-06T09:14:45Z</time></trkpt><trkpt lat="42.95328717889594" lon="11.423290726155779"><ele>141.66666666666666</ele><time>2026-04-06T09:14:46Z</time></trkpt><trkpt lat="42.9532469371206" lon="11.423490138158312"><ele>143.0</ele><time>2026-04-06T09:14:47Z</time></trkpt><trkpt lat="42.95320381370165" lon="11.42367778150384"><ele>142.75</ele><time>2026-04-06T09:14:48Z</time></trkpt><trkpt lat="42.95315556292422" lon="11.423848088268747"><ele>142.5</ele><time>2026-04-06T09:14:49Z</time></trkpt><trkpt lat="42.95309952861474" lon="11.424017910083952"><ele>142.25</ele><time>2026-04-06T09:14:49.999Z</time></trkpt><trkpt lat="42.95303849052436" lon="11.424181864886348"><ele>142.0</ele><time>2026-04-06T09:14:50.999Z</time></trkpt><trkpt lat="42.95297335702269" lon="11.42432954318385"><ele>142.0</ele><time>2026-04-06T09:14:51.999Z</time></trkpt><trkpt lat="42.952898242595694" lon="11.424459059675993"><ele>142.0</ele><time>2026-04-06T09:14:52.999Z</time></trkpt><trkpt lat="42.9528202235036" lon="11.424572882724986"><ele>142.0</ele><time>2026-04-06T09:14:53.999Z</time></trkpt><trkpt lat="42.95274778408479" lon="11.424675963629321"><ele>142.0</ele><time>2026-04-06T09:14:54.999Z</time></trkpt><trkpt lat="42.95270317155126" lon="11.424778503324545"><ele>142.0</ele><time>2026-04-06T09:14:55.999Z</time></trkpt><trkpt lat="42.952700690314565" lon="11.42488364961004"><ele>142.0</ele><time>2026-04-06T09:14:56.999Z</time></trkpt><trkpt lat="42.95272055336131" lon="11.424974416350151"><ele>142.0</ele><time>2026-04-06T09:14:57.999Z</time></trkpt><trkpt lat="42.95277084629997" lon="11.425076332169958"><ele>142.0</ele><time>2026-04-06T09:14:58.999Z</time></trkpt><trkpt lat="42.95285778448003" lon="11.425133430385772"><ele>142.0</ele><time>2026-04-06T09:14:59.999Z</time></trkpt><trkpt lat="42.95296638280703" lon="11.42517118646585"><ele>142.0</ele><time>2026-04-06T09:15:00.999Z</time></trkpt><trkpt lat="42.95308825357381" lon="11.425176223454391"><ele>142.0</ele><time>2026-04-06T09:15:01.999Z</time></trkpt><trkpt lat="42.95320955584342" lon="11.425188881274686"><ele>142.0</ele><time>2026-04-06T09:15:02.999Z</time></trkpt><trkpt lat="42.95334767882765" lon="11.425191996846422"><ele>142.0</ele><time>2026-04-06T09:15:03.999Z</time></trkpt><trkpt lat="42.953507942707695" lon="11.425193906853135"><ele>142.0</ele><time>2026-04-06T09:15:04.999Z</time></trkpt><trkpt lat="42.95367725787135" lon="11.425202359146313"><ele>140.33333333333334</ele><time>2026-04-06T09:15:05.999Z</time></trkpt><trkpt lat="42.95384707902365" lon="11.425213889684912"><ele>138.66666666666666</ele><time>2026-04-06T09:15:06.999Z</time></trkpt><trkpt lat="42.95401859047679" lon="11.425232409882048"><ele>137.0</ele><time>2026-04-06T09:15:07.999Z</time></trkpt><trkpt lat="42.954187545702084" lon="11.425282043880784"><ele>135.33333333333331</ele><time>2026-04-06T09:15:08.999Z</time></trkpt><trkpt lat="42.95435191942357" lon="11.42537203516379"><ele>133.66666666666666</ele><time>2026-04-06T09:15:09.999Z</time></trkpt><trkpt lat="42.954510828198785" lon="11.42549023654883"><ele>132.0</ele><time>2026-04-06T09:15:10.999Z</time></trkpt><trkpt lat="42.9546690780139" lon="11.425619694726889"><ele>132.0</ele><time>2026-04-06T09:15:11.999Z</time></trkpt><trkpt lat="42.95482536897443" lon="11.42576347896825"><ele>132.0</ele><time>2026-04-06T09:15:12.999Z</time></trkpt><trkpt lat="42.954981460750915" lon="11.425902846877271"><ele>132.0</ele><time>2026-04-06T09:15:13.999Z</time></trkpt><trkpt lat="42.955144647178116" lon="11.42601539355961"><ele>130.66666666666666</ele><time>2026-04-06T09:15:14.999Z</time></trkpt><trkpt lat="42.95531956198182" lon="11.426087964807152"><ele>129.33333333333331</ele><time>2026-04-06T09:15:15.999Z</time></trkpt><trkpt lat="42.95549804300303" lon="11.426113743725148"><ele>128.0</ele><time>2026-04-06T09:15:16.999Z</time></trkpt><trkpt lat="42.955681807455036" lon="11.426099583416603"><ele>128.0</ele><time>2026-04-06T09:15:17.999Z</time></trkpt><trkpt lat="42.95586803605566" lon="11.426060356888575"><ele>128.0</ele><time>2026-04-06T09:15:18.999Z</time></trkpt><trkpt lat="42.956062966551954" lon="11.426010712045684"><ele>128.0</ele><time>2026-04-06T09:15:19.999Z</time></trkpt><trkpt lat="42.95627120793468" lon="11.425941259105649"><ele>125.66666666666666</ele><time>2026-04-06T09:15:20.999Z</time></trkpt><trkpt lat="42.95648353190114" lon="11.42584613242129"><ele>123.33333333333334</ele><time>2026-04-06T09:15:21.999Z</time></trkpt><trkpt lat="42.956694862431085" lon="11.425749677517542"><ele>121.0</ele><time>2026-04-06T09:15:22.999Z</time></trkpt><trkpt lat="42.95689371037641" lon="11.425653456225172"><ele>119.0</ele><time>2026-04-06T09:15:23.999Z</time></trkpt><trkpt lat="42.957097719080565" lon="11.425591869784336"><ele>117.0</ele><time>2026-04-06T09:15:24.999Z</time></trkpt><trkpt lat="42.957299636644734" lon="11.425555746833533"><ele>115.0</ele><time>2026-04-06T09:15:25.999Z</time></trkpt><trkpt lat="42.95750747084987" lon="11.4255442881135"><ele>112.33333333333334</ele><time>2026-04-06T09:15:26.999Z</time></trkpt><trkpt lat="42.95771686799428" lon="11.425542357423375"><ele>109.66666666666666</ele><time>2026-04-06T09:15:27.999Z</time></trkpt><trkpt lat="42.957926693091146" lon="11.425546978827134"><ele>107.0</ele><time>2026-04-06T09:15:28.999Z</time></trkpt><trkpt lat="42.958145344396144" lon="11.425555996839238"><ele>107.0</ele><time>2026-04-06T09:15:29.999Z</time></trkpt><trkpt lat="42.958363895103545" lon="11.425560896971886"><ele>107.0</ele><time>2026-04-06T09:15:30.999Z</time></trkpt><trkpt lat="42.95858801415272" lon="11.425568395797038"><ele>107.0</ele><time>2026-04-06T09:15:31.999Z</time></trkpt><trkpt lat="42.95880582154918" lon="11.425562783073227"><ele>105.33333333333333</ele><time>2026-04-06T09:15:32.999Z</time></trkpt><trkpt lat="42.95903101987454" lon="11.425571553495178"><ele>103.66666666666666</ele><time>2026-04-06T09:15:33.999Z</time></trkpt><trkpt lat="42.95924992645955" lon="11.425574244787487"><ele>102.0</ele><time>2026-04-06T09:15:34.999Z</time></trkpt><trkpt lat="42.95946810208104" lon="11.425580247667742"><ele>102.0</ele><time>2026-04-06T09:15:35.999Z</time></trkpt><trkpt lat="42.959686509793904" lon="11.425588885542966"><ele>102.0</ele><time>2026-04-06T09:15:36.999Z</time></trkpt><trkpt lat="42.95990410507025" lon="11.425598375882105"><ele>102.0</ele><time>2026-04-06T09:15:37.999Z</time></trkpt><trkpt lat="42.96011936728041" lon="11.425605570634575"><ele>101.66666666666666</ele><time>2026-04-06T09:15:38.999Z</time></trkpt><trkpt lat="42.96033380118342" lon="11.425611239938712"><ele>101.33333333333333</ele><time>2026-04-06T09:15:39.999Z</time></trkpt><trkpt lat="42.96054895567297" lon="11.425615330785918"><ele>101.0</ele><time>2026-04-06T09:15:40.999Z</time></trkpt><trkpt lat="42.960763915698685" lon="11.425621501083477"><ele>101.0</ele><time>2026-04-06T09:15:41.999Z</time></trkpt><trkpt lat="42.96097520174831" lon="11.425629030799382"><ele>101.0</ele><time>2026-04-06T09:15:42.999Z</time></trkpt><trkpt lat="42.96118586751568" lon="11.425635845676691"><ele>101.0</ele><time>2026-04-06T09:15:43.998Z</time></trkpt><trkpt lat="42.96139832175582" lon="11.425646243274864"><ele>101.0</ele><time>2026-04-06T09:15:44.998Z</time></trkpt><trkpt lat="42.961601474586786" lon="11.425651096039406"><ele>101.0</ele><time>2026-04-06T09:15:45.998Z</time></trkpt><trkpt lat="42.96179799146187" lon="11.425658012555209"><ele>101.0</ele><time>2026-04-06T09:15:46.998Z</time></trkpt><trkpt lat="42.96199329950046" lon="11.425666083624959"><ele>100.66666666666666</ele><time>2026-04-06T09:15:47.998Z</time></trkpt><trkpt lat="42.9621869515331" lon="11.425675379198157"><ele>100.33333333333334</ele><time>2026-04-06T09:15:48.998Z</time></trkpt><trkpt lat="42.962375034172716" lon="11.425683609940622"><ele>100.0</ele><time>2026-04-06T09:15:49.998Z</time></trkpt><trkpt lat="42.9625595927431" lon="11.425687602921059"><ele>100.66666666666667</ele><time>2026-04-06T09:15:50.998Z</time></trkpt><trkpt lat="42.96273977239974" lon="11.425691310840437"><ele>101.33333333333334</ele><time>2026-04-06T09:15:51.998Z</time></trkpt><trkpt lat="42.96291365955923" lon="11.425693570769202"><ele>102.0</ele><time>2026-04-06T09:15:52.998Z</time></trkpt><trkpt lat="42.96308408564234" lon="11.425699485458933"><ele>102.0</ele><time>2026-04-06T09:15:53.998Z</time></trkpt><trkpt lat="42.96324445156745" lon="11.42570799775553"><ele>102.0</ele><time>2026-04-06T09:15:54.998Z</time></trkpt><trkpt lat="42.963392869335074" lon="11.42571670238303"><ele>102.0</ele><time>2026-04-06T09:15:55.998Z</time></trkpt><trkpt lat="42.96352912871735" lon="11.42572542245717"><ele>102.0</ele><time>2026-04-06T09:15:56.998Z</time></trkpt><trkpt lat="42.96365526829522" lon="11.42573142645362"><ele>102.19999999999999</ele><time>2026-04-06T09:15:57.998Z</time></trkpt><trkpt lat="42.9637718131004" lon="11.425737327812861"><ele>102.4</ele><time>2026-04-06T09:15:58.998Z</time></trkpt><trkpt lat="42.96388328914976" lon="11.425739750731266"><ele>102.6</ele><time>2026-04-06T09:15:59.998Z</time></trkpt><trkpt lat="42.963990607439236" lon="11.42574324166214"><ele>102.80000000000001</ele><time>2026-04-06T09:16:00.998Z</time></trkpt><trkpt lat="42.96410099080099" lon="11.425748803493503"><ele>103.0</ele><time>2026-04-06T09:16:01.998Z</time></trkpt><trkpt lat="42.9642125497805" lon="11.425759393101622"><ele>103.25</ele><time>2026-04-06T09:16:02.998Z</time></trkpt><trkpt lat="42.964323948392085" lon="11.425771457775308"><ele>103.5</ele><time>2026-04-06T09:16:03.998Z</time></trkpt><trkpt lat="42.96444017594409" lon="11.425788965472265"><ele>103.75</ele><time>2026-04-06T09:16:04.998Z</time></trkpt><trkpt lat="42.96455154260837" lon="11.425811416831417"><ele>104.0</ele><time>2026-04-06T09:16:05.998Z</time></trkpt><trkpt lat="42.96466292586996" lon="11.425829465677406"><ele>104.0</ele><time>2026-04-06T09:16:06.998Z</time></trkpt><trkpt lat="42.9647758648071" lon="11.425869403721167"><ele>104.0</ele><time>2026-04-06T09:16:07.998Z</time></trkpt><trkpt lat="42.964879353430256" lon="11.42589378542366"><ele>104.0</ele><time>2026-04-06T09:16:08.998Z</time></trkpt><trkpt lat="42.96497954292418" lon="11.425917456453307"><ele>104.0</ele><time>2026-04-06T09:16:09.998Z</time></trkpt><trkpt lat="42.965086895847" lon="11.425942986528876"><ele>104.0</ele><time>2026-04-06T09:16:10.998Z</time></trkpt><trkpt lat="42.96519479958524" lon="11.425967862739062"><ele>105.25</ele><time>2026-04-06T09:16:11.998Z</time></trkpt><trkpt lat="42.96530653443626" lon="11.425997232484892"><ele>106.5</ele><time>2026-04-06T09:16:12.998Z</time></trkpt><trkpt lat="42.96542436491955" lon="11.426031772749218"><ele>107.75</ele><time>2026-04-06T09:16:13.998Z</time></trkpt><trkpt lat="42.96555046313971" lon="11.42606781710362"><ele>109.0</ele><time>2026-04-06T09:16:14.998Z</time></trkpt><trkpt lat="42.965675515007106" lon="11.4261162127559"><ele>109.0</ele><time>2026-04-06T09:16:15.998Z</time></trkpt><trkpt lat="42.96580151541199" lon="11.426145422042717"><ele>109.0</ele><time>2026-04-06T09:16:16.998Z</time></trkpt><trkpt lat="42.96594114372136" lon="11.426201261845302"><ele>109.0</ele><time>2026-04-06T09:16:17.998Z</time></trkpt><trkpt lat="42.966067220334295" lon="11.426236305820243"><ele>109.0</ele><time>2026-04-06T09:16:18.998Z</time></trkpt><trkpt lat="42.96620799424506" lon="11.426250173291896"><ele>110.0</ele><time>2026-04-06T09:16:20Z</time></trkpt><trkpt lat="42.96633639975697" lon="11.426282926247717"><ele>111.0</ele><time>2026-04-06T09:16:21Z</time></trkpt><trkpt lat="42.96648848849909" lon="11.426315809943112"><ele>112.0</ele><time>2026-04-06T09:16:22Z</time></trkpt><trkpt lat="42.96663670817394" lon="11.426336537240699"><ele>113.0</ele><time>2026-04-06T09:16:23Z</time></trkpt><trkpt lat="42.96678812559339" lon="11.4263721009134"><ele>114.5</ele><time>2026-04-06T09:16:24Z</time></trkpt><trkpt lat="42.96693150631893" lon="11.426426221828095"><ele>116.0</ele><time>2026-04-06T09:16:25Z</time></trkpt><trkpt lat="42.967069876575685" lon="11.426514069177372"><ele>117.5</ele><time>2026-04-06T09:16:26Z</time></trkpt><trkpt lat="42.96718782913106" lon="11.426612915673642"><ele>119.0</ele><time>2026-04-06T09:16:27Z</time></trkpt><trkpt lat="42.96726436682667" lon="11.426701909656021"><ele>118.99999999999999</ele><time>2026-04-06T09:16:28Z</time></trkpt><trkpt lat="42.96730831142187" lon="11.426774736242557"><ele>119.0</ele><time>2026-04-06T09:16:30Z</time></trkpt><trkpt lat="42.96736735351983" lon="11.426838821850549"><ele>119.0</ele><time>2026-04-06T09:16:36Z</time></trkpt><trkpt lat="42.96742695623872" lon="11.426933092302244"><ele>119.0</ele><time>2026-04-06T09:16:39Z</time></trkpt><trkpt lat="42.96746574395705" lon="11.427009882784272"><ele>118.99999999999999</ele><time>2026-04-06T09:16:43Z</time></trkpt><trkpt lat="42.96749390346013" lon="11.42712842655936"><ele>119.0</ele><time>2026-04-06T09:16:59.999Z</time></trkpt><trkpt lat="42.96753886137292" lon="11.427229385663207"><ele>123.2</ele><time>2026-04-06T09:17:01.999Z</time></trkpt><trkpt lat="42.967572030525155" lon="11.42737429702811"><ele>127.4</ele><time>2026-04-06T09:17:03.999Z</time></trkpt><trkpt lat="42.96757712675482" lon="11.427509513508467"><ele>131.6</ele><time>2026-04-06T09:17:05.999Z</time></trkpt><trkpt lat="42.96759695030927" lon="11.427642827618593"><ele>135.8</ele><time>2026-04-06T09:17:07.999Z</time></trkpt><trkpt lat="42.967616094675506" lon="11.427780002312389"><ele>140.0</ele><time>2026-04-06T09:17:09.999Z</time></trkpt><trkpt lat="42.9676350139404" lon="11.42791556403439"><ele>140.66666666666666</ele><time>2026-04-06T09:17:11.999Z</time></trkpt><trkpt lat="42.967650084199626" lon="11.428023546752309"><ele>141.33333333333331</ele><time>2026-04-06T09:17:13.999Z</time></trkpt><trkpt lat="42.967671731067895" lon="11.428171719677925"><ele>142.0</ele><time>2026-04-06T09:17:15.999Z</time></trkpt><trkpt lat="42.9676844846381" lon="11.428259238004424"><ele>142.66666666666666</ele><time>2026-04-06T09:17:16.999Z</time></trkpt><trkpt lat="42.9676991487729" lon="11.428361268538463"><ele>143.33333333333334</ele><time>2026-04-06T09:17:17.999Z</time></trkpt><trkpt lat="42.96771250563662" lon="11.428471946106953"><ele>144.0</ele><time>2026-04-06T09:17:18.999Z</time></trkpt><trkpt lat="42.967735968606014" lon="11.42859594726246"><ele>144.0</ele><time>2026-04-06T09:17:19.999Z</time></trkpt><trkpt lat="42.96776558423526" lon="11.428736366746223"><ele>144.0</ele><time>2026-04-06T09:17:20.999Z</time></trkpt><trkpt lat="42.967800226731356" lon="11.428881498223197"><ele>144.0</ele><time>2026-04-06T09:17:21.999Z</time></trkpt><trkpt lat="42.96784447027065" lon="11.429015793919318"><ele>144.0</ele><time>2026-04-06T09:17:22.999Z</time></trkpt><trkpt lat="42.96791145831175" lon="11.429144269370752"><ele>144.0</ele><time>2026-04-06T09:17:23.999Z</time></trkpt><trkpt lat="42.967997342269044" lon="11.42926765372635"><ele>143.25</ele><time>2026-04-06T09:17:24.999Z</time></trkpt><trkpt lat="42.96810060441221" lon="11.429367097703064"><ele>142.5</ele><time>2026-04-06T09:17:25.999Z</time></trkpt><trkpt lat="42.96820620211824" lon="11.429444182585828"><ele>141.75</ele><time>2026-04-06T09:17:26.999Z</time></trkpt><trkpt lat="42.968299249238505" lon="11.429513174395428"><ele>141.0</ele><time>2026-04-06T09:17:27.999Z</time></trkpt><trkpt lat="42.968381543520735" lon="11.429590476188404"><ele>142.6</ele><time>2026-04-06T09:17:28.999Z</time></trkpt><trkpt lat="42.96845545871653" lon="11.429676838528469"><ele>144.2</ele><time>2026-04-06T09:17:29.999Z</time></trkpt><trkpt lat="42.96852246575473" lon="11.429780841621985"><ele>145.8</ele><time>2026-04-06T09:17:30.999Z</time></trkpt><trkpt lat="42.968561773599" lon="11.429907075609288"><ele>147.4</ele><time>2026-04-06T09:17:31.999Z</time></trkpt><trkpt lat="42.968558221175755" lon="11.430061974153764"><ele>149.0</ele><time>2026-04-06T09:17:32.999Z</time></trkpt><trkpt lat="42.96855439047609" lon="11.430190305716092"><ele>149.0</ele><time>2026-04-06T09:17:33.999Z</time></trkpt><trkpt lat="42.96854002103023" lon="11.430350584448293"><ele>149.0</ele><time>2026-04-06T09:17:34.999Z</time></trkpt><trkpt lat="42.96852355391423" lon="11.43054781354785"><ele>149.0</ele><time>2026-04-06T09:17:35.999Z</time></trkpt><trkpt lat="42.96850792659384" lon="11.430728323514192"><ele>149.0</ele><time>2026-04-06T09:17:36.999Z</time></trkpt><trkpt lat="42.96849157472057" lon="11.430917202899657"><ele>150.5</ele><time>2026-04-06T09:17:37.999Z</time></trkpt><trkpt lat="42.96847304546091" lon="11.431102360492769"><ele>152.0</ele><time>2026-04-06T09:17:38.999Z</time></trkpt><trkpt lat="42.968454356500175" lon="11.431287637871375"><ele>153.5</ele><time>2026-04-06T09:17:39.999Z</time></trkpt><trkpt lat="42.96843633221074" lon="11.431470451353157"><ele>155.0</ele><time>2026-04-06T09:17:40.999Z</time></trkpt><trkpt lat="42.968422082107736" lon="11.431659317903994"><ele>155.5</ele><time>2026-04-06T09:17:41.999Z</time></trkpt><trkpt lat="42.96843664483857" lon="11.431849316588917"><ele>156.0</ele><time>2026-04-06T09:17:42.999Z</time></trkpt><trkpt lat="42.96843745152696" lon="11.432042559050062"><ele>156.5</ele><time>2026-04-06T09:17:43.999Z</time></trkpt><trkpt lat="42.96847356881461" lon="11.432222821936115"><ele>157.0</ele><time>2026-04-06T09:17:44.999Z</time></trkpt><trkpt lat="42.96853331536522" lon="11.432387552563846"><ele>157.0</ele><time>2026-04-06T09:17:45.999Z</time></trkpt><trkpt lat="42.968633692069105" lon="11.432542046268134"><ele>157.0</ele><time>2026-04-06T09:17:46.999Z</time></trkpt><trkpt lat="42.9687542957228" lon="11.432686171631943"><ele>157.0</ele><time>2026-04-06T09:17:47.999Z</time></trkpt><trkpt lat="42.96888048962711" lon="11.432827834321767"><ele>156.33333333333334</ele><time>2026-04-06T09:17:48.999Z</time></trkpt><trkpt lat="42.96901539232193" lon="11.432976616052743"><ele>155.66666666666666</ele><time>2026-04-06T09:17:49.999Z</time></trkpt><trkpt lat="42.96915830325316" lon="11.433135117252606"><ele>155.0</ele><time>2026-04-06T09:17:50.999Z</time></trkpt><trkpt lat="42.969304598511904" lon="11.433306202683994"><ele>160.66666666666666</ele><time>2026-04-06T09:17:51.998Z</time></trkpt><trkpt lat="42.96942123374891" lon="11.433497730925838"><ele>166.33333333333334</ele><time>2026-04-06T09:17:52.998Z</time></trkpt><trkpt lat="42.96951184219928" lon="11.433692999436241"><ele>172.0</ele><time>2026-04-06T09:17:53.998Z</time></trkpt><trkpt lat="42.969592559798194" lon="11.433881621322374"><ele>172.0</ele><time>2026-04-06T09:17:54.998Z</time></trkpt><trkpt lat="42.96966630620495" lon="11.434057510127476"><ele>172.0</ele><time>2026-04-06T09:17:55.998Z</time></trkpt><trkpt lat="42.96974517256118" lon="11.434224922947582"><ele>172.0</ele><time>2026-04-06T09:17:56.998Z</time></trkpt><trkpt lat="42.96985869291582" lon="11.434358258048828"><ele>172.0</ele><time>2026-04-06T09:17:57.998Z</time></trkpt><trkpt lat="42.97002025274056" lon="11.434426919275385"><ele>175.0</ele><time>2026-04-06T09:17:58.998Z</time></trkpt><trkpt lat="42.97017226045489" lon="11.43443672996693"><ele>178.0</ele><time>2026-04-06T09:17:59.998Z</time></trkpt><trkpt lat="42.970318670516306" lon="11.434428336428727"><ele>181.0</ele><time>2026-04-06T09:18:00.998Z</time></trkpt><trkpt lat="42.97046725197739" lon="11.434419063712085"><ele>184.0</ele><time>2026-04-06T09:18:01.998Z</time></trkpt><trkpt lat="42.97060638273501" lon="11.43441383894091"><ele>184.0</ele><time>2026-04-06T09:18:02.998Z</time></trkpt><trkpt lat="42.97075084649343" lon="11.434411554774929"><ele>184.0</ele><time>2026-04-06T09:18:03.998Z</time></trkpt><trkpt lat="42.970895415612176" lon="11.43446460469752"><ele>184.0</ele><time>2026-04-06T09:18:04.998Z</time></trkpt><trkpt lat="42.97102596343623" lon="11.434525377522576"><ele>184.0</ele><time>2026-04-06T09:18:05.998Z</time></trkpt><trkpt lat="42.97116586224889" lon="11.43459451617173"><ele>180.66666666666669</ele><time>2026-04-06T09:18:06.998Z</time></trkpt><trkpt lat="42.97132558561118" lon="11.43465718613972"><ele>177.33333333333334</ele><time>2026-04-06T09:18:07.998Z</time></trkpt><trkpt lat="42.971474985331305" lon="11.434695267908205"><ele>174.0</ele><time>2026-04-06T09:18:08.998Z</time></trkpt><trkpt lat="42.971618953180986" lon="11.43470600931073"><ele>174.75</ele><time>2026-04-06T09:18:09.998Z</time></trkpt><trkpt lat="42.971771173410666" lon="11.434744457641727"><ele>175.5</ele><time>2026-04-06T09:18:10.998Z</time></trkpt><trkpt lat="42.971929791598505" lon="11.43477820572484"><ele>176.25</ele><time>2026-04-06T09:18:11.998Z</time></trkpt><trkpt lat="42.97206048877517" lon="11.434747103281236"><ele>177.0</ele><time>2026-04-06T09:18:12.998Z</time></trkpt><trkpt lat="42.972184372019534" lon="11.434754570628723"><ele>177.0</ele><time>2026-04-06T09:18:13.998Z</time></trkpt><trkpt lat="42.97232209096729" lon="11.434746153714727"><ele>177.0</ele><time>2026-04-06T09:18:14.998Z</time></trkpt><trkpt lat="42.97246117670523" lon="11.434702861118197"><ele>177.0</ele><time>2026-04-06T09:18:15.998Z</time></trkpt><trkpt lat="42.97260405197965" lon="11.434607756182642"><ele>177.0</ele><time>2026-04-06T09:18:16.998Z</time></trkpt><trkpt lat="42.972752813009095" lon="11.434490548081493"><ele>179.66666666666666</ele><time>2026-04-06T09:18:17.998Z</time></trkpt><trkpt lat="42.972907312724345" lon="11.434367507658498"><ele>182.33333333333331</ele><time>2026-04-06T09:18:18.998Z</time></trkpt><trkpt lat="42.97307631524679" lon="11.434232872057898"><ele>185.0</ele><time>2026-04-06T09:18:19.998Z</time></trkpt><trkpt lat="42.97324108586087" lon="11.43409928039933"><ele>182.66666666666666</ele><time>2026-04-06T09:18:20.998Z</time></trkpt><trkpt lat="42.97340818927366" lon="11.433961776069172"><ele>180.33333333333334</ele><time>2026-04-06T09:18:21.998Z</time></trkpt><trkpt lat="42.973596097406386" lon="11.433820864842382"><ele>178.0</ele><time>2026-04-06T09:18:22.998Z</time></trkpt><trkpt lat="42.97378573234904" lon="11.433669607051645"><ele>182.5</ele><time>2026-04-06T09:18:23.998Z</time></trkpt><trkpt lat="42.97399127281131" lon="11.433520181477547"><ele>187.0</ele><time>2026-04-06T09:18:24.998Z</time></trkpt><trkpt lat="42.97420061199083" lon="11.43338334013229"><ele>187.0</ele><time>2026-04-06T09:18:26Z</time></trkpt><trkpt lat="42.97440284236158" lon="11.433267271101304"><ele>187.0</ele><time>2026-04-06T09:18:27Z</time></trkpt><trkpt lat="42.97459360087748" lon="11.433158344911794"><ele>187.0</ele><time>2026-04-06T09:18:28Z</time></trkpt><trkpt lat="42.97476802333851" lon="11.433037219261728"><ele>189.33333333333334</ele><time>2026-04-06T09:18:29Z</time></trkpt><trkpt lat="42.97491015148818" lon="11.43287309623141"><ele>191.66666666666669</ele><time>2026-04-06T09:18:30Z</time></trkpt><trkpt lat="42.975015878848126" lon="11.4326593559839"><ele>194.0</ele><time>2026-04-06T09:18:31Z</time></trkpt><trkpt lat="42.97507314505278" lon="11.432416967703094"><ele>194.0</ele><time>2026-04-06T09:18:32Z</time></trkpt><trkpt lat="42.9751151561507" lon="11.432181689761"><ele>194.0</ele><time>2026-04-06T09:18:33Z</time></trkpt><trkpt lat="42.97519313008549" lon="11.431969909447352"><ele>194.0</ele><time>2026-04-06T09:18:34Z</time></trkpt><trkpt lat="42.97530653380898" lon="11.431786741234276"><ele>195.33333333333334</ele><time>2026-04-06T09:18:35Z</time></trkpt><trkpt lat="42.97543418360906" lon="11.43163395048671"><ele>196.66666666666669</ele><time>2026-04-06T09:18:36Z</time></trkpt><trkpt lat="42.97558864695799" lon="11.431500042209164"><ele>198.0</ele><time>2026-04-06T09:18:37Z</time></trkpt><trkpt lat="42.97574319487593" lon="11.431349694648704"><ele>199.33333333333331</ele><time>2026-04-06T09:18:38Z</time></trkpt><trkpt lat="42.975913877185675" lon="11.431192713269446"><ele>200.66666666666666</ele><time>2026-04-06T09:18:39Z</time></trkpt><trkpt lat="42.97608383963262" lon="11.431035115524688"><ele>202.0</ele><time>2026-04-06T09:18:40Z</time></trkpt><trkpt lat="42.9762545570955" lon="11.43088205326155"><ele>202.0</ele><time>2026-04-06T09:18:41Z</time></trkpt><trkpt lat="42.97642557797812" lon="11.43073135454117"><ele>202.0</ele><time>2026-04-06T09:18:42Z</time></trkpt><trkpt lat="42.97660350718777" lon="11.430591650280926"><ele>202.0</ele><time>2026-04-06T09:18:43Z</time></trkpt><trkpt lat="42.976797332515815" lon="11.43048939679744"><ele>204.33333333333331</ele><time>2026-04-06T09:18:44Z</time></trkpt><trkpt lat="42.977003508006696" lon="11.430452781709926"><ele>206.66666666666669</ele><time>2026-04-06T09:18:45Z</time></trkpt><trkpt lat="42.977211606817264" lon="11.43041074493272"><ele>209.0</ele><time>2026-04-06T09:18:46Z</time></trkpt><trkpt lat="42.97741981537942" lon="11.430434003403043"><ele>209.66666666666669</ele><time>2026-04-06T09:18:47Z</time></trkpt><trkpt lat="42.97762492290071" lon="11.430498671515954"><ele>210.33333333333331</ele><time>2026-04-06T09:18:48Z</time></trkpt><trkpt lat="42.97782392222847" lon="11.430589733966219"><ele>211.0</ele><time>2026-04-06T09:18:49Z</time></trkpt><trkpt lat="42.978018463919085" lon="11.430691799375575"><ele>211.0</ele><time>2026-04-06T09:18:50Z</time></trkpt><trkpt lat="42.978212996395094" lon="11.430784161786946"><ele>211.0</ele><time>2026-04-06T09:18:51Z</time></trkpt><trkpt lat="42.9784096637688" lon="11.430865876359688"><ele>211.0</ele><time>2026-04-06T09:18:52Z</time></trkpt><trkpt lat="42.978606647868354" lon="11.430949571525032"><ele>211.33333333333331</ele><time>2026-04-06T09:18:53Z</time></trkpt><trkpt lat="42.97880376273625" lon="11.431038411004627"><ele>211.66666666666669</ele><time>2026-04-06T09:18:54Z</time></trkpt><trkpt lat="42.97900280711778" lon="11.431130332047339"><ele>212.0</ele><time>2026-04-06T09:18:55Z</time></trkpt><trkpt lat="42.97920516127342" lon="11.431219027070586"><ele>211.0</ele><time>2026-04-06T09:18:56Z</time></trkpt><trkpt lat="42.979405808448654" lon="11.43131026346675"><ele>210.0</ele><time>2026-04-06T09:18:57Z</time></trkpt><trkpt lat="42.97960761670568" lon="11.43140122175218"><ele>209.0</ele><time>2026-04-06T09:18:58Z</time></trkpt><trkpt lat="42.97981178945624" lon="11.431489238500884"><ele>209.0</ele><time>2026-04-06T09:18:59Z</time></trkpt><trkpt lat="42.98001257184044" lon="11.431600802742466"><ele>209.0</ele><time>2026-04-06T09:19:00Z</time></trkpt><trkpt lat="42.98020900175449" lon="11.431690312357082"><ele>209.0</ele><time>2026-04-06T09:19:01Z</time></trkpt><trkpt lat="42.98039543407138" lon="11.431758614807535"><ele>209.0</ele><time>2026-04-06T09:19:02Z</time></trkpt><trkpt lat="42.9805711197897" lon="11.43184708020477"><ele>209.0</ele><time>2026-04-06T09:19:02.999Z</time></trkpt><trkpt lat="42.9807529274025" lon="11.431932304469196"><ele>209.0</ele><time>2026-04-06T09:19:03.999Z</time></trkpt><trkpt lat="42.98093824780198" lon="11.432017366171301"><ele>208.66666666666669</ele><time>2026-04-06T09:19:04.999Z</time></trkpt><trkpt lat="42.98112548734141" lon="11.432102945846529"><ele>208.33333333333331</ele><time>2026-04-06T09:19:05.999Z</time></trkpt><trkpt lat="42.98131440323908" lon="11.432186235489516"><ele>208.0</ele><time>2026-04-06T09:19:06.999Z</time></trkpt><trkpt lat="42.981505101442956" lon="11.432273969006104"><ele>206.33333333333331</ele><time>2026-04-06T09:19:07.999Z</time></trkpt><trkpt lat="42.981697582340445" lon="11.432361526120793"><ele>204.66666666666669</ele><time>2026-04-06T09:19:08.999Z</time></trkpt><trkpt lat="42.981893123899304" lon="11.432449662171322"><ele>203.0</ele><time>2026-04-06T09:19:09.999Z</time></trkpt><trkpt lat="42.98209508892242" lon="11.432542354345738"><ele>203.0</ele><time>2026-04-06T09:19:10.999Z</time></trkpt><trkpt lat="42.98230206208658" lon="11.432638898080928"><ele>203.0</ele><time>2026-04-06T09:19:11.999Z</time></trkpt><trkpt lat="42.9825163012534" lon="11.432729787866748"><ele>203.0</ele><time>2026-04-06T09:19:12.999Z</time></trkpt><trkpt lat="42.9827403840289" lon="11.432838172828504"><ele>202.0</ele><time>2026-04-06T09:19:13.999Z</time></trkpt><trkpt lat="42.98297308125458" lon="11.432943994338821"><ele>201.0</ele><time>2026-04-06T09:19:14.999Z</time></trkpt><trkpt lat="42.98321054868783" lon="11.433051985147923"><ele>198.0</ele><time>2026-04-06T09:19:15.999Z</time></trkpt><trkpt lat="42.98345446325959" lon="11.433162907865796"><ele>195.0</ele><time>2026-04-06T09:19:16.999Z</time></trkpt><trkpt lat="42.983701741329966" lon="11.433256646146711"><ele>195.0</ele><time>2026-04-06T09:19:17.999Z</time></trkpt><trkpt lat="42.98393647960202" lon="11.433402273195831"><ele>195.0</ele><time>2026-04-06T09:19:18.999Z</time></trkpt><trkpt lat="42.98415717601465" lon="11.433581150235488"><ele>195.0</ele><time>2026-04-06T09:19:19.999Z</time></trkpt><trkpt lat="42.984363058270254" lon="11.433788791173576"><ele>195.0</ele><time>2026-04-06T09:19:20.999Z</time></trkpt><trkpt lat="42.98456453066694" lon="11.433987466995225"><ele>195.0</ele><time>2026-04-06T09:19:21.999Z</time></trkpt><trkpt lat="42.984765989149615" lon="11.434173769685195"><ele>195.0</ele><time>2026-04-06T09:19:22.999Z</time></trkpt><trkpt lat="42.98496121088372" lon="11.434353924379744"><ele>197.33333333333331</ele><time>2026-04-06T09:19:23.999Z</time></trkpt><trkpt lat="42.98513501843446" lon="11.434553444474876"><ele>199.66666666666666</ele><time>2026-04-06T09:19:24.999Z</time></trkpt><trkpt lat="42.98527386085893" lon="11.434774942344921"><ele>202.0</ele><time>2026-04-06T09:19:25.999Z</time></trkpt><trkpt lat="42.98536752301177" lon="11.435021227827745"><ele>203.0</ele><time>2026-04-06T09:19:26.999Z</time></trkpt><trkpt lat="42.9854465616068" lon="11.435287946410432"><ele>204.0</ele><time>2026-04-06T09:19:27.999Z</time></trkpt><trkpt lat="42.9855367787192" lon="11.435553558229058"><ele>205.0</ele><time>2026-04-06T09:19:28.999Z</time></trkpt><trkpt lat="42.98561422237334" lon="11.435830349956504"><ele>205.0</ele><time>2026-04-06T09:19:29.999Z</time></trkpt><trkpt lat="42.98569585751285" lon="11.436106283148"><ele>205.0</ele><time>2026-04-06T09:19:30.999Z</time></trkpt><trkpt lat="42.985777610687" lon="11.436384539161756"><ele>205.0</ele><time>2026-04-06T09:19:31.999Z</time></trkpt><trkpt lat="42.98586091306516" lon="11.436664206556538"><ele>210.33333333333331</ele><time>2026-04-06T09:19:32.999Z</time></trkpt><trkpt lat="42.98594270737993" lon="11.43694678740759"><ele>215.66666666666669</ele><time>2026-04-06T09:19:33.999Z</time></trkpt><trkpt lat="42.986025598097214" lon="11.437230973709278"><ele>221.0</ele><time>2026-04-06T09:19:34.999Z</time></trkpt><trkpt lat="42.986109489324676" lon="11.437510017807634"><ele>221.0</ele><time>2026-04-06T09:19:35.999Z</time></trkpt><trkpt lat="42.986192108539065" lon="11.437785658045168"><ele>221.0</ele><time>2026-04-06T09:19:36.999Z</time></trkpt><trkpt lat="42.98626900445887" lon="11.438054378467989"><ele>221.0</ele><time>2026-04-06T09:19:37.999Z</time></trkpt><trkpt lat="42.98634332962756" lon="11.438315801958927"><ele>220.66666666666669</ele><time>2026-04-06T09:19:38.999Z</time></trkpt><trkpt lat="42.98642197130373" lon="11.438564356156366"><ele>220.33333333333331</ele><time>2026-04-06T09:19:39.999Z</time></trkpt><trkpt lat="42.986514826705076" lon="11.438785522834864"><ele>220.0</ele><time>2026-04-06T09:19:40.999Z</time></trkpt><trkpt lat="42.9866299474805" lon="11.438968266941766"><ele>220.66666666666666</ele><time>2026-04-06T09:19:41.999Z</time></trkpt><trkpt lat="42.986785394732266" lon="11.439084909457726"><ele>221.33333333333331</ele><time>2026-04-06T09:19:42.999Z</time></trkpt><trkpt lat="42.98695995974144" lon="11.439161575130491"><ele>222.0</ele><time>2026-04-06T09:19:43.999Z</time></trkpt><trkpt lat="42.98714195273835" lon="11.439162274475384"><ele>222.0</ele><time>2026-04-06T09:19:44.999Z</time></trkpt><trkpt lat="42.98732832213242" lon="11.439126101411851"><ele>222.0</ele><time>2026-04-06T09:19:45.999Z</time></trkpt><trkpt lat="42.98752652843893" lon="11.439110898863051"><ele>222.0</ele><time>2026-04-06T09:19:46.999Z</time></trkpt><trkpt lat="42.98772612721475" lon="11.439088565500171"><ele>222.66666666666669</ele><time>2026-04-06T09:19:47.999Z</time></trkpt><trkpt lat="42.98792162024696" lon="11.439067008851433"><ele>223.33333333333334</ele><time>2026-04-06T09:19:48.999Z</time></trkpt><trkpt lat="42.988118338729734" lon="11.439027814154628"><ele>224.0</ele><time>2026-04-06T09:19:49.999Z</time></trkpt><trkpt lat="42.98831458735715" lon="11.439009714506525"><ele>225.66666666666669</ele><time>2026-04-06T09:19:50.999Z</time></trkpt><trkpt lat="42.98850163202269" lon="11.43899256365936"><ele>227.33333333333331</ele><time>2026-04-06T09:19:51.999Z</time></trkpt><trkpt lat="42.988676223347184" lon="11.438980464496955"><ele>229.0</ele><time>2026-04-06T09:19:52.999Z</time></trkpt><trkpt lat="42.98884754220073" lon="11.438993966913637"><ele>229.0</ele><time>2026-04-06T09:19:53.999Z</time></trkpt><trkpt lat="42.98901628758252" lon="11.439038148745372"><ele>229.0</ele><time>2026-04-06T09:19:54.999Z</time></trkpt><trkpt lat="42.98916920422255" lon="11.439142852682577"><ele>229.0</ele><time>2026-04-06T09:19:55.999Z</time></trkpt><trkpt lat="42.98931368377888" lon="11.43926315661021"><ele>230.66666666666666</ele><time>2026-04-06T09:19:56.998Z</time></trkpt><trkpt lat="42.98945904657163" lon="11.439386482678634"><ele>232.33333333333331</ele><time>2026-04-06T09:19:57.998Z</time></trkpt><trkpt lat="42.98960338706301" lon="11.439513426212997"><ele>234.0</ele><time>2026-04-06T09:19:58.998Z</time></trkpt><trkpt lat="42.989747814136805" lon="11.439640115862359"><ele>234.0</ele><time>2026-04-06T09:19:59.998Z</time></trkpt><trkpt lat="42.98989442889632" lon="11.439768770263962"><ele>234.0</ele><time>2026-04-06T09:20:00.998Z</time></trkpt><trkpt lat="42.9900418834824" lon="11.439898171236933"><ele>234.0</ele><time>2026-04-06T09:20:01.998Z</time></trkpt><trkpt lat="42.99018777869833" lon="11.440026203770053"><ele>235.33333333333331</ele><time>2026-04-06T09:20:02.998Z</time></trkpt><trkpt lat="42.990336465850866" lon="11.44015583290984"><ele>236.66666666666666</ele><time>2026-04-06T09:20:03.998Z</time></trkpt><trkpt lat="42.990488579576144" lon="11.440288281082845"><ele>238.0</ele><time>2026-04-06T09:20:04.998Z</time></trkpt><trkpt lat="42.99063789032389" lon="11.440418973550662"><ele>238.0</ele><time>2026-04-06T09:20:05.998Z</time></trkpt><trkpt lat="42.990794060641406" lon="11.440530266087466"><ele>238.0</ele><time>2026-04-06T09:20:06.998Z</time></trkpt><trkpt lat="42.99094482149524" lon="11.440653200144501"><ele>238.0</ele><time>2026-04-06T09:20:07.998Z</time></trkpt><trkpt lat="42.99110133381912" lon="11.440767698541237"><ele>239.0</ele><time>2026-04-06T09:20:08.998Z</time></trkpt><trkpt lat="42.991265545238804" lon="11.440868940173763"><ele>240.0</ele><time>2026-04-06T09:20:09.998Z</time></trkpt><trkpt lat="42.99143464075525" lon="11.440968762996924"><ele>241.0</ele><time>2026-04-06T09:20:10.998Z</time></trkpt><trkpt lat="42.991601966842765" lon="11.441069424970571"><ele>242.66666666666666</ele><time>2026-04-06T09:20:11.998Z</time></trkpt><trkpt lat="42.99177648275332" lon="11.441171229623171"><ele>244.33333333333331</ele><time>2026-04-06T09:20:12.998Z</time></trkpt><trkpt lat="42.99195758840384" lon="11.441278236097153"><ele>246.0</ele><time>2026-04-06T09:20:13.998Z</time></trkpt><trkpt lat="42.99213870510459" lon="11.441384385494565"><ele>246.0</ele><time>2026-04-06T09:20:14.998Z</time></trkpt><trkpt lat="42.99231784985892" lon="11.441488140466454"><ele>246.0</ele><time>2026-04-06T09:20:15.998Z</time></trkpt><trkpt lat="42.992495916201726" lon="11.441591483546672"><ele>246.0</ele><time>2026-04-06T09:20:16.998Z</time></trkpt><trkpt lat="42.99267214986358" lon="11.441693993197953"><ele>247.66666666666669</ele><time>2026-04-06T09:20:17.998Z</time></trkpt><trkpt lat="42.99284448072204" lon="11.441796210004187"><ele>249.33333333333334</ele><time>2026-04-06T09:20:18.998Z</time></trkpt><trkpt lat="42.993014514308484" lon="11.441899627200131"><ele>251.0</ele><time>2026-04-06T09:20:19.998Z</time></trkpt><trkpt lat="42.993182549804416" lon="11.441998116169513"><ele>252.0</ele><time>2026-04-06T09:20:20.998Z</time></trkpt><trkpt lat="42.993347999457676" lon="11.442096813103893"><ele>253.0</ele><time>2026-04-06T09:20:21.998Z</time></trkpt><trkpt lat="42.99351373267812" lon="11.442195515243494"><ele>254.0</ele><time>2026-04-06T09:20:22.998Z</time></trkpt><trkpt lat="42.993681178862744" lon="11.442288366598682"><ele>254.0</ele><time>2026-04-06T09:20:23.998Z</time></trkpt><trkpt lat="42.99385431241004" lon="11.442362566975783"><ele>254.0</ele><time>2026-04-06T09:20:24.998Z</time></trkpt><trkpt lat="42.99403300440102" lon="11.442406918485599"><ele>254.0</ele><time>2026-04-06T09:20:25.998Z</time></trkpt><trkpt lat="42.99421938839841" lon="11.442415717060236"><ele>255.0</ele><time>2026-04-06T09:20:26.998Z</time></trkpt><trkpt lat="42.99440474187056" lon="11.44239316987841"><ele>256.0</ele><time>2026-04-06T09:20:27.998Z</time></trkpt><trkpt lat="42.994588869822195" lon="11.442373912921783"><ele>257.0</ele><time>2026-04-06T09:20:28.998Z</time></trkpt><trkpt lat="42.99477325022408" lon="11.442362753394113"><ele>257.0</ele><time>2026-04-06T09:20:29.998Z</time></trkpt><trkpt lat="42.99495633073429" lon="11.442350854024369"><ele>257.0</ele><time>2026-04-06T09:20:30.998Z</time></trkpt><trkpt lat="42.995142052212465" lon="11.44234019332761"><ele>257.0</ele><time>2026-04-06T09:20:32Z</time></trkpt><trkpt lat="42.995312363903786" lon="11.442325258948859"><ele>258.0</ele><time>2026-04-06T09:20:33Z</time></trkpt><trkpt lat="42.99546516319695" lon="11.442311516890179"><ele>259.0</ele><time>2026-04-06T09:20:34Z</time></trkpt><trkpt lat="42.99560487984039" lon="11.442300509532817"><ele>260.0</ele><time>2026-04-06T09:20:35Z</time></trkpt><trkpt lat="42.99574363947683" lon="11.442303549908807"><ele>261.0</ele><time>2026-04-06T09:20:36Z</time></trkpt><trkpt lat="42.99588289659237" lon="11.442335308614368"><ele>261.0</ele><time>2026-04-06T09:20:37Z</time></trkpt><trkpt lat="42.99601155442489" lon="11.442407143467547"><ele>261.0</ele><time>2026-04-06T09:20:38Z</time></trkpt><trkpt lat="42.99610635605142" lon="11.442537297820419"><ele>261.0</ele><time>2026-04-06T09:20:39Z</time></trkpt><trkpt lat="42.996185598056115" lon="11.44266868979547"><ele>261.0</ele><time>2026-04-06T09:20:40Z</time></trkpt><trkpt lat="42.99625969942988" lon="11.44281490420566"><ele>262.25</ele><time>2026-04-06T09:20:41Z</time></trkpt><trkpt lat="42.99629938868758" lon="11.442994918418185"><ele>263.5</ele><time>2026-04-06T09:20:42Z</time></trkpt><trkpt lat="42.996304083304416" lon="11.443185869437388"><ele>264.75</ele><time>2026-04-06T09:20:43Z</time></trkpt><trkpt lat="42.99631173858785" lon="11.443397716118051"><ele>266.0</ele><time>2026-04-06T09:20:44Z</time></trkpt><trkpt lat="42.99632100072207" lon="11.443616161108432"><ele>267.6666666666667</ele><time>2026-04-06T09:20:45Z</time></trkpt><trkpt lat="42.99633070235811" lon="11.443840383722334"><ele>269.3333333333333</ele><time>2026-04-06T09:20:46Z</time></trkpt><trkpt lat="42.99634128020953" lon="11.444081385442336"><ele>271.0</ele><time>2026-04-06T09:20:47Z</time></trkpt><trkpt lat="42.996352311337695" lon="11.44433271485938"><ele>271.0</ele><time>2026-04-06T09:20:48Z</time></trkpt><trkpt lat="42.996363892180256" lon="11.444596568330487"><ele>271.0</ele><time>2026-04-06T09:20:49Z</time></trkpt><trkpt lat="42.996375703772976" lon="11.444865679013569"><ele>271.0</ele><time>2026-04-06T09:20:50Z</time></trkpt><trkpt lat="42.996401984795824" lon="11.445132646039557"><ele>272.66666666666663</ele><time>2026-04-06T09:20:51Z</time></trkpt><trkpt lat="42.99641592544221" lon="11.445408821177926"><ele>274.3333333333333</ele><time>2026-04-06T09:20:52Z</time></trkpt><trkpt lat="42.99641174528231" lon="11.44568776869784"><ele>276.0</ele><time>2026-04-06T09:20:53Z</time></trkpt><trkpt lat="42.99642400545158" lon="11.445967618037724"><ele>277.0</ele><time>2026-04-06T09:20:54Z</time></trkpt><trkpt lat="42.996436487049046" lon="11.446252522007873"><ele>278.0</ele><time>2026-04-06T09:20:55Z</time></trkpt><trkpt lat="42.996449237753154" lon="11.446535729583141"><ele>279.0</ele><time>2026-04-06T09:20:56Z</time></trkpt><trkpt lat="42.996461994863374" lon="11.446815884459063"><ele>280.3333333333333</ele><time>2026-04-06T09:20:57Z</time></trkpt><trkpt lat="42.99647304797305" lon="11.447094107603407"><ele>281.66666666666663</ele><time>2026-04-06T09:20:58Z</time></trkpt><trkpt lat="42.996459604847985" lon="11.447373038088145"><ele>283.0</ele><time>2026-04-06T09:20:59Z</time></trkpt><trkpt lat="42.996403796472094" lon="11.44764088624836"><ele>284.66666666666663</ele><time>2026-04-06T09:21:00Z</time></trkpt><trkpt lat="42.99631154429957" lon="11.44789635747094"><ele>286.3333333333333</ele><time>2026-04-06T09:21:01Z</time></trkpt><trkpt lat="42.99621571072365" lon="11.448148901780694"><ele>288.0</ele><time>2026-04-06T09:21:02Z</time></trkpt><trkpt lat="42.99612431680334" lon="11.448391173404127"><ele>291.3333333333333</ele><time>2026-04-06T09:21:03Z</time></trkpt><trkpt lat="42.99604235180639" lon="11.448613689576966"><ele>294.66666666666663</ele><time>2026-04-06T09:21:04Z</time></trkpt><trkpt lat="42.99598330284131" lon="11.44883255212635"><ele>298.0</ele><time>2026-04-06T09:21:05Z</time></trkpt><trkpt lat="42.995979884177565" lon="11.449049294853975"><ele>300.0</ele><time>2026-04-06T09:21:06Z</time></trkpt><trkpt lat="42.996008482969465" lon="11.449257396776698"><ele>302.0</ele><time>2026-04-06T09:21:07Z</time></trkpt><trkpt lat="42.99608339331445" lon="11.449448084917865"><ele>304.0</ele><time>2026-04-06T09:21:08Z</time></trkpt><trkpt lat="42.996197213763914" lon="11.44962247359652"><ele>306.66666666666663</ele><time>2026-04-06T09:21:09Z</time></trkpt><trkpt lat="42.996333489029084" lon="11.449772261859378"><ele>309.3333333333333</ele><time>2026-04-06T09:21:10Z</time></trkpt><trkpt lat="42.99647561416793" lon="11.449920966417565"><ele>312.0</ele><time>2026-04-06T09:21:11Z</time></trkpt><trkpt lat="42.99662583698157" lon="11.450067668480354"><ele>314.0</ele><time>2026-04-06T09:21:12Z</time></trkpt><trkpt lat="42.99679779674624" lon="11.450182593825911"><ele>316.0</ele><time>2026-04-06T09:21:13Z</time></trkpt><trkpt lat="42.99698343378636" lon="11.450194023351076"><ele>318.0</ele><time>2026-04-06T09:21:13.999Z</time></trkpt><trkpt lat="42.99718002482143" lon="11.450175942471855"><ele>318.0</ele><time>2026-04-06T09:21:14.999Z</time></trkpt><trkpt lat="42.997385766637926" lon="11.45013601755471"><ele>318.0</ele><time>2026-04-06T09:21:15.999Z</time></trkpt><trkpt lat="42.99759594748262" lon="11.450109464522015"><ele>318.0</ele><time>2026-04-06T09:21:16.999Z</time></trkpt><trkpt lat="42.99780090259028" lon="11.450079623483866"><ele>320.6666666666667</ele><time>2026-04-06T09:21:17.999Z</time></trkpt><trkpt lat="42.99800994155193" lon="11.450065625948548"><ele>323.33333333333337</ele><time>2026-04-06T09:21:18.999Z</time></trkpt><trkpt lat="42.99822521967" lon="11.450049800561178"><ele>326.0</ele><time>2026-04-06T09:21:19.999Z</time></trkpt><trkpt lat="42.998447092795594" lon="11.450051493533433"><ele>328.0</ele><time>2026-04-06T09:21:20.999Z</time></trkpt><trkpt lat="42.998670248933955" lon="11.45007007180364"><ele>330.0</ele><time>2026-04-06T09:21:21.999Z</time></trkpt><trkpt lat="42.998894347319755" lon="11.45009748711875"><ele>332.0</ele><time>2026-04-06T09:21:22.999Z</time></trkpt><trkpt lat="42.99911667412396" lon="11.450117120782298"><ele>332.33333333333337</ele><time>2026-04-06T09:21:23.999Z</time></trkpt><trkpt lat="42.999335207021275" lon="11.450126005282932"><ele>332.6666666666667</ele><time>2026-04-06T09:21:24.999Z</time></trkpt><trkpt lat="42.99954319688945" lon="11.450161661235816"><ele>333.0</ele><time>2026-04-06T09:21:25.999Z</time></trkpt><trkpt lat="42.99974387693293" lon="11.450182376831544"><ele>333.0</ele><time>2026-04-06T09:21:26.999Z</time></trkpt><trkpt lat="42.9999290443195" lon="11.450201491095264"><ele>333.0</ele><time>2026-04-06T09:21:27.999Z</time></trkpt><trkpt lat="43.00010055929433" lon="11.450220914240095"><ele>333.0</ele><time>2026-04-06T09:21:28.999Z</time></trkpt><trkpt lat="43.00026374849921" lon="11.450240115877616"><ele>333.0</ele><time>2026-04-06T09:21:29.999Z</time></trkpt><trkpt lat="43.00040124921535" lon="11.45025776635985"><ele>333.0</ele><time>2026-04-06T09:21:30.999Z</time></trkpt><trkpt lat="43.00050596918639" lon="11.45028220296233"><ele>333.0</ele><time>2026-04-06T09:21:31.999Z</time></trkpt><trkpt lat="43.00058782902258" lon="11.450344580921382"><ele>333.0</ele><time>2026-04-06T09:21:32.999Z</time></trkpt><trkpt lat="43.000640338027566" lon="11.450450417288932"><ele>333.0</ele><time>2026-04-06T09:21:33.999Z</time></trkpt><trkpt lat="43.00061993435339" lon="11.450594574295549"><ele>337.0</ele><time>2026-04-06T09:21:34.999Z</time></trkpt><trkpt lat="43.000546596417664" lon="11.450703527992676"><ele>341.0</ele><time>2026-04-06T09:21:35.999Z</time></trkpt><trkpt lat="43.00044318963957" lon="11.450757906273399"><ele>345.0</ele><time>2026-04-06T09:21:36.999Z</time></trkpt><trkpt lat="43.00031920145738" lon="11.45076089533558"><ele>349.0</ele><time>2026-04-06T09:21:37.999Z</time></trkpt><trkpt lat="43.0001841964984" lon="11.450768109928951"><ele>349.0</ele><time>2026-04-06T09:21:38.999Z</time></trkpt><trkpt lat="43.0000444580868" lon="11.450781381848607"><ele>349.0</ele><time>2026-04-06T09:21:39.999Z</time></trkpt><trkpt lat="42.999881751447056" lon="11.45080249180688"><ele>349.0</ele><time>2026-04-06T09:21:40.999Z</time></trkpt><trkpt lat="42.999728548245685" lon="11.450826367971104"><ele>349.0</ele><time>2026-04-06T09:21:41.999Z</time></trkpt><trkpt lat="42.99956309607072" lon="11.45088656916217"><ele>349.0</ele><time>2026-04-06T09:21:42.999Z</time></trkpt><trkpt lat="42.99939578131108" lon="11.450989513433138"><ele>349.0</ele><time>2026-04-06T09:21:43.999Z</time></trkpt><trkpt lat="42.999227504144706" lon="11.451113371453669"><ele>348.3333333333333</ele><time>2026-04-06T09:21:44.999Z</time></trkpt><trkpt lat="42.999062925893654" lon="11.45124992414759"><ele>347.6666666666667</ele><time>2026-04-06T09:21:45.999Z</time></trkpt><trkpt lat="42.99890094587079" lon="11.451387682468729"><ele>347.0</ele><time>2026-04-06T09:21:46.999Z</time></trkpt><trkpt lat="42.998762377218426" lon="11.45158762349283"><ele>352.33333333333337</ele><time>2026-04-06T09:21:47.999Z</time></trkpt><trkpt lat="42.99864404105586" lon="11.451817042504617"><ele>357.6666666666667</ele><time>2026-04-06T09:21:48.999Z</time></trkpt><trkpt lat="42.99852519380637" lon="11.452045129873639"><ele>363.0</ele><time>2026-04-06T09:21:49.999Z</time></trkpt><trkpt lat="42.99841151757706" lon="11.45226402814722"><ele>364.3333333333333</ele><time>2026-04-06T09:21:50.999Z</time></trkpt><trkpt lat="42.998307580139524" lon="11.452462779811402"><ele>365.66666666666663</ele><time>2026-04-06T09:21:51.999Z</time></trkpt><trkpt lat="42.99821141281515" lon="11.45265746964203"><ele>367.0</ele><time>2026-04-06T09:21:52.999Z</time></trkpt><trkpt lat="42.998086879613915" lon="11.452766759596846"><ele>367.0</ele><time>2026-04-06T09:21:53.999Z</time></trkpt><trkpt lat="42.99793308735178" lon="11.452812019547041"><ele>367.0</ele><time>2026-04-06T09:21:54.999Z</time></trkpt><trkpt lat="42.99777370438022" lon="11.452805421399857"><ele>367.0</ele><time>2026-04-06T09:21:55.999Z</time></trkpt><trkpt lat="42.99760611958331" lon="11.452762619414218"><ele>366.3333333333333</ele><time>2026-04-06T09:21:56.999Z</time></trkpt><trkpt lat="42.99743399376925" lon="11.452719004677625"><ele>365.6666666666667</ele><time>2026-04-06T09:21:57.999Z</time></trkpt><trkpt lat="42.997288540260215" lon="11.452729022918628"><ele>365.0</ele><time>2026-04-06T09:21:58.999Z</time></trkpt><trkpt lat="42.99714776449743" lon="11.452805390232765"><ele>365.0</ele><time>2026-04-06T09:21:59.999Z</time></trkpt><trkpt lat="42.996996097780325" lon="11.452886658673064"><ele>365.0</ele><time>2026-04-06T09:22:00.999Z</time></trkpt><trkpt lat="42.99690847371502" lon="11.452954571020403"><ele>365.0</ele><time>2026-04-06T09:22:01.999Z</time></trkpt><trkpt lat="42.996802211647015" lon="11.453103089964326"><ele>365.0</ele><time>2026-04-06T09:22:02.999Z</time></trkpt><trkpt lat="42.99668470863623" lon="11.453298602965297"><ele>368.0</ele><time>2026-04-06T09:22:03.999Z</time></trkpt><trkpt lat="42.996521894808076" lon="11.45356798451017"><ele>371.0</ele><time>2026-04-06T09:22:04.999Z</time></trkpt><trkpt lat="42.996412142026045" lon="11.453844810243568"><ele>376.33333333333337</ele><time>2026-04-06T09:22:05.999Z</time></trkpt><trkpt lat="42.99630687106688" lon="11.45411307121232"><ele>381.6666666666667</ele><time>2026-04-06T09:22:06.999Z</time></trkpt><trkpt lat="42.99621334946649" lon="11.454375321597505"><ele>387.0</ele><time>2026-04-06T09:22:07.999Z</time></trkpt><trkpt lat="42.99611260755158" lon="11.45461834649731"><ele>391.0</ele><time>2026-04-06T09:22:08.998Z</time></trkpt><trkpt lat="42.996008408003604" lon="11.454862115226486"><ele>395.0</ele><time>2026-04-06T09:22:09.998Z</time></trkpt><trkpt lat="42.9959308007045" lon="11.45512360463512"><ele>399.0</ele><time>2026-04-06T09:22:10.998Z</time></trkpt><trkpt lat="42.99586944923218" lon="11.455398187077929"><ele>392.5</ele><time>2026-04-06T09:22:11.998Z</time></trkpt><trkpt lat="42.99582160004891" lon="11.455704771488914"><ele>386.0</ele><time>2026-04-06T09:22:12.998Z</time></trkpt><trkpt lat="42.99577832004255" lon="11.45600504240842"><ele>386.0</ele><time>2026-04-06T09:22:13.998Z</time></trkpt><trkpt lat="42.99573003317672" lon="11.456265588299717"><ele>386.0</ele><time>2026-04-06T09:22:14.998Z</time></trkpt><trkpt lat="42.99568718558512" lon="11.45652255522523"><ele>386.0</ele><time>2026-04-06T09:22:15.998Z</time></trkpt><trkpt lat="42.995701443329395" lon="11.45679564504816"><ele>387.3333333333333</ele><time>2026-04-06T09:22:16.998Z</time></trkpt><trkpt lat="42.995757402831046" lon="11.457079490403837"><ele>388.66666666666663</ele><time>2026-04-06T09:22:17.998Z</time></trkpt><trkpt lat="42.995793833906816" lon="11.457324722183097"><ele>390.0</ele><time>2026-04-06T09:22:18.998Z</time></trkpt><trkpt lat="42.99583777375587" lon="11.457571468986226"><ele>395.0</ele><time>2026-04-06T09:22:19.998Z</time></trkpt><trkpt lat="42.9959259735516" lon="11.457814614414449"><ele>400.0</ele><time>2026-04-06T09:22:20.998Z</time></trkpt><trkpt lat="42.99604701280671" lon="11.458052939244636"><ele>405.0</ele><time>2026-04-06T09:22:21.998Z</time></trkpt><trkpt lat="42.99620685856156" lon="11.458209287909602"><ele>405.0</ele><time>2026-04-06T09:22:22.998Z</time></trkpt><trkpt lat="42.996392322315955" lon="11.458307590389103"><ele>405.0</ele><time>2026-04-06T09:22:23.998Z</time></trkpt><trkpt lat="42.99658788154466" lon="11.458417821509011"><ele>405.0</ele><time>2026-04-06T09:22:24.998Z</time></trkpt><trkpt lat="42.99676907176195" lon="11.458530476663542"><ele>408.66666666666663</ele><time>2026-04-06T09:22:25.998Z</time></trkpt><trkpt lat="42.996942047372634" lon="11.458641532440812"><ele>412.3333333333333</ele><time>2026-04-06T09:22:26.998Z</time></trkpt><trkpt lat="42.9971183781596" lon="11.458704487024615"><ele>416.0</ele><time>2026-04-06T09:22:27.998Z</time></trkpt><trkpt lat="42.997292843512305" lon="11.458704115054989"><ele>416.0</ele><time>2026-04-06T09:22:28.998Z</time></trkpt><trkpt lat="42.99746934790898" lon="11.458652784984181"><ele>416.0</ele><time>2026-04-06T09:22:29.998Z</time></trkpt><trkpt lat="42.99763639257283" lon="11.458560394575438"><ele>416.0</ele><time>2026-04-06T09:22:30.998Z</time></trkpt><trkpt lat="42.99782212332925" lon="11.458426542528793"><ele>417.3333333333333</ele><time>2026-04-06T09:22:31.998Z</time></trkpt><trkpt lat="42.99800787513398" lon="11.458332215784134"><ele>418.66666666666663</ele><time>2026-04-06T09:22:32.998Z</time></trkpt><trkpt lat="42.998164512182264" lon="11.458232546740375"><ele>420.0</ele><time>2026-04-06T09:22:33.998Z</time></trkpt><trkpt lat="42.99830611294413" lon="11.458142544592576"><ele>420.33333333333337</ele><time>2026-04-06T09:22:34.998Z</time></trkpt><trkpt lat="42.99845186033447" lon="11.458061064927442"><ele>420.6666666666667</ele><time>2026-04-06T09:22:35.998Z</time></trkpt><trkpt lat="42.99861268568225" lon="11.458000888989378"><ele>421.0</ele><time>2026-04-06T09:22:36.998Z</time></trkpt><trkpt lat="42.9987872146536" lon="11.457942099133376"><ele>421.0</ele><time>2026-04-06T09:22:38Z</time></trkpt><trkpt lat="42.99897348865362" lon="11.457909378102377"><ele>421.0</ele><time>2026-04-06T09:22:39Z</time></trkpt><trkpt lat="42.99916598269489" lon="11.45787124582221"><ele>421.0</ele><time>2026-04-06T09:22:40Z</time></trkpt><trkpt lat="42.99936090577573" lon="11.45783192463452"><ele>421.0</ele><time>2026-04-06T09:22:41Z</time></trkpt><trkpt lat="42.99955481870805" lon="11.457795124653552"><ele>421.0</ele><time>2026-04-06T09:22:42Z</time></trkpt><trkpt lat="42.999755472426095" lon="11.457777473315282"><ele>421.0</ele><time>2026-04-06T09:22:43Z</time></trkpt><trkpt lat="42.99995472898408" lon="11.457783216806796"><ele>421.0</ele><time>2026-04-06T09:22:44Z</time></trkpt><trkpt lat="43.000139626182204" lon="11.457781852533586"><ele>421.0</ele><time>2026-04-06T09:22:45Z</time></trkpt><trkpt lat="43.00033773551733" lon="11.457787464279312"><ele>421.0</ele><time>2026-04-06T09:22:46Z</time></trkpt><trkpt lat="43.00053867497508" lon="11.45780961652191"><ele>421.0</ele><time>2026-04-06T09:22:47Z</time></trkpt><trkpt lat="43.00073392749951" lon="11.457880427514617"><ele>421.0</ele><time>2026-04-06T09:22:48Z</time></trkpt><trkpt lat="43.00092369810783" lon="11.458000472768255"><ele>421.0</ele><time>2026-04-06T09:22:49Z</time></trkpt><trkpt lat="43.001106567817075" lon="11.458166082941919"><ele>420.6666666666667</ele><time>2026-04-06T09:22:50Z</time></trkpt><trkpt lat="43.001292488066575" lon="11.458328245220603"><ele>420.33333333333337</ele><time>2026-04-06T09:22:51Z</time></trkpt><trkpt lat="43.001485137728174" lon="11.458481742356485"><ele>420.0</ele><time>2026-04-06T09:22:52Z</time></trkpt><trkpt lat="43.00167377930044" lon="11.458636617654657"><ele>425.33333333333337</ele><time>2026-04-06T09:22:53Z</time></trkpt><trkpt lat="43.001857042551656" lon="11.45880337741003"><ele>430.6666666666667</ele><time>2026-04-06T09:22:54Z</time></trkpt><trkpt lat="43.00203369842518" lon="11.45898882569911"><ele>436.0</ele><time>2026-04-06T09:22:55Z</time></trkpt><trkpt lat="43.00220416231876" lon="11.45918041694642"><ele>436.0</ele><time>2026-04-06T09:22:56Z</time></trkpt><trkpt lat="43.002363794944756" lon="11.45938505244265"><ele>436.0</ele><time>2026-04-06T09:22:57Z</time></trkpt><trkpt lat="43.002498588229656" lon="11.459637134562128"><ele>436.0</ele><time>2026-04-06T09:22:58Z</time></trkpt><trkpt lat="43.002643417845" lon="11.459882956395704"><ele>434.0</ele><time>2026-04-06T09:22:59Z</time></trkpt><trkpt lat="43.002766295646936" lon="11.460186005242877"><ele>432.0</ele><time>2026-04-06T09:23:00Z</time></trkpt><trkpt lat="43.00286788345746" lon="11.46050383857464"><ele>432.0</ele><time>2026-04-06T09:23:01Z</time></trkpt><trkpt lat="43.00294450391385" lon="11.460813012812523"><ele>432.0</ele><time>2026-04-06T09:23:02Z</time></trkpt><trkpt lat="43.00299003046856" lon="11.461118484359753"><ele>430.0</ele><time>2026-04-06T09:23:03Z</time></trkpt><trkpt lat="43.0030006807461" lon="11.46144622384454"><ele>428.0</ele><time>2026-04-06T09:23:04Z</time></trkpt><trkpt lat="43.00300600401874" lon="11.461773135811445"><ele>428.0</ele><time>2026-04-06T09:23:05Z</time></trkpt><trkpt lat="43.003011536979336" lon="11.462095192536674"><ele>428.0</ele><time>2026-04-06T09:23:06Z</time></trkpt><trkpt lat="43.00303631399376" lon="11.462405280471966"><ele>427.66666666666663</ele><time>2026-04-06T09:23:07Z</time></trkpt><trkpt lat="43.00309806275912" lon="11.462670403470431"><ele>427.33333333333337</ele><time>2026-04-06T09:23:08Z</time></trkpt><trkpt lat="43.00323072489529" lon="11.462903907845632"><ele>427.0</ele><time>2026-04-06T09:23:09Z</time></trkpt><trkpt lat="43.00337881147634" lon="11.463060238840377"><ele>423.33333333333337</ele><time>2026-04-06T09:23:10Z</time></trkpt><trkpt lat="43.003548106316394" lon="11.46316473814453"><ele>419.66666666666663</ele><time>2026-04-06T09:23:11Z</time></trkpt><trkpt lat="43.00373097646421" lon="11.463230315241093"><ele>416.0</ele><time>2026-04-06T09:23:12Z</time></trkpt><trkpt lat="43.00392090577785" lon="11.463175490392901"><ele>416.0</ele><time>2026-04-06T09:23:13Z</time></trkpt><trkpt lat="43.00410353599603" lon="11.46313053559967"><ele>416.0</ele><time>2026-04-06T09:23:14Z</time></trkpt><trkpt lat="43.00429394469224" lon="11.463044039846102"><ele>416.0</ele><time>2026-04-06T09:23:15Z</time></trkpt><trkpt lat="43.00448946277154" lon="11.462960605434915"><ele>416.3333333333333</ele><time>2026-04-06T09:23:16Z</time></trkpt><trkpt lat="43.004659762635946" lon="11.462813823893484"><ele>416.66666666666663</ele><time>2026-04-06T09:23:17Z</time></trkpt><trkpt lat="43.00483228192013" lon="11.46266389163035"><ele>417.0</ele><time>2026-04-06T09:23:18Z</time></trkpt><trkpt lat="43.00500802066874" lon="11.462589470797397"><ele>420.0</ele><time>2026-04-06T09:23:19Z</time></trkpt><trkpt lat="43.00518849863023" lon="11.462494416258266"><ele>423.0</ele><time>2026-04-06T09:23:19.999Z</time></trkpt><trkpt lat="43.00538415318005" lon="11.462391285674075"><ele>426.0</ele><time>2026-04-06T09:23:20.999Z</time></trkpt><trkpt lat="43.005590043505" lon="11.462282759859265"><ele>426.0</ele><time>2026-04-06T09:23:21.999Z</time></trkpt><trkpt lat="43.00581352876503" lon="11.462164959627897"><ele>426.0</ele><time>2026-04-06T09:23:22.999Z</time></trkpt><trkpt lat="43.00603241182007" lon="11.462049585299159"><ele>428.5</ele><time>2026-04-06T09:23:23.999Z</time></trkpt><trkpt lat="43.006243652008585" lon="11.461938333981676"><ele>431.0</ele><time>2026-04-06T09:23:24.999Z</time></trkpt><trkpt lat="43.00645939806565" lon="11.461825166239663"><ele>431.0</ele><time>2026-04-06T09:23:25.999Z</time></trkpt><trkpt lat="43.006636027447165" lon="11.461733329434097"><ele>431.0</ele><time>2026-04-06T09:23:26.999Z</time></trkpt><trkpt lat="43.00682327046875" lon="11.461641761531775"><ele>431.0</ele><time>2026-04-06T09:23:27.999Z</time></trkpt><trkpt lat="43.007006702826565" lon="11.461592808067474"><ele>434.66666666666663</ele><time>2026-04-06T09:23:28.999Z</time></trkpt><trkpt lat="43.007180927323496" lon="11.461670786471856"><ele>438.33333333333337</ele><time>2026-04-06T09:23:29.999Z</time></trkpt><trkpt lat="43.007326819625206" lon="11.461804323813936"><ele>442.0</ele><time>2026-04-06T09:23:30.999Z</time></trkpt><trkpt lat="43.00744665601508" lon="11.461987182996152"><ele>446.0</ele><time>2026-04-06T09:23:31.999Z</time></trkpt><trkpt lat="43.00753327762024" lon="11.462183131800346"><ele>450.0</ele><time>2026-04-06T09:23:32.999Z</time></trkpt><trkpt lat="43.0075697831628" lon="11.4624105230052"><ele>454.0</ele><time>2026-04-06T09:23:33.999Z</time></trkpt><trkpt lat="43.007556868548455" lon="11.462651642353876"><ele>454.0</ele><time>2026-04-06T09:23:34.999Z</time></trkpt><trkpt lat="43.00749744102689" lon="11.462882934930429"><ele>454.0</ele><time>2026-04-06T09:23:35.999Z</time></trkpt><trkpt lat="43.007412837379185" lon="11.463095899985953"><ele>454.0</ele><time>2026-04-06T09:23:36.999Z</time></trkpt><trkpt lat="43.007338671616665" lon="11.463322030599663"><ele>453.6666666666667</ele><time>2026-04-06T09:23:37.999Z</time></trkpt><trkpt lat="43.007275780943445" lon="11.463575182720131"><ele>453.33333333333337</ele><time>2026-04-06T09:23:38.999Z</time></trkpt><trkpt lat="43.00722843280677" lon="11.463842994512532"><ele>453.0</ele><time>2026-04-06T09:23:39.999Z</time></trkpt><trkpt lat="43.007212543501936" lon="11.46414578934764"><ele>454.5</ele><time>2026-04-06T09:23:40.999Z</time></trkpt><trkpt lat="43.00722770857102" lon="11.464463258137947"><ele>456.0</ele><time>2026-04-06T09:23:41.999Z</time></trkpt><trkpt lat="43.00726216206435" lon="11.464788717923781"><ele>457.5</ele><time>2026-04-06T09:23:42.999Z</time></trkpt><trkpt lat="43.00730311249872" lon="11.465106304781687"><ele>459.0</ele><time>2026-04-06T09:23:43.999Z</time></trkpt><trkpt lat="43.00734105004924" lon="11.465424029331249"><ele>460.0</ele><time>2026-04-06T09:23:44.999Z</time></trkpt><trkpt lat="43.007386852680085" lon="11.465741862132454"><ele>461.0</ele><time>2026-04-06T09:23:45.999Z</time></trkpt><trkpt lat="43.00745016851076" lon="11.466053645789268"><ele>467.5</ele><time>2026-04-06T09:23:46.999Z</time></trkpt><trkpt lat="43.00752555680603" lon="11.466361582594974"><ele>474.0</ele><time>2026-04-06T09:23:47.999Z</time></trkpt><trkpt lat="43.00759466723918" lon="11.466662151145176"><ele>474.0</ele><time>2026-04-06T09:23:48.999Z</time></trkpt><trkpt lat="43.00766121073368" lon="11.466971939577613"><ele>474.0</ele><time>2026-04-06T09:23:49.999Z</time></trkpt><trkpt lat="43.00772640097034" lon="11.467279791352071"><ele>474.0</ele><time>2026-04-06T09:23:50.999Z</time></trkpt><trkpt lat="43.00779543184606" lon="11.467592071724106"><ele>474.0</ele><time>2026-04-06T09:23:51.999Z</time></trkpt><trkpt lat="43.00786246562538" lon="11.467895670521422"><ele>473.5</ele><time>2026-04-06T09:23:52.999Z</time></trkpt><trkpt lat="43.00793239360109" lon="11.468208348493519"><ele>473.0</ele><time>2026-04-06T09:23:53.999Z</time></trkpt><trkpt lat="43.00799319389172" lon="11.468512637763526"><ele>471.5</ele><time>2026-04-06T09:23:54.999Z</time></trkpt><trkpt lat="43.00805978623725" lon="11.468818785793076"><ele>470.0</ele><time>2026-04-06T09:23:55.999Z</time></trkpt><trkpt lat="43.00812315715742" lon="11.469119154907716"><ele>470.0</ele><time>2026-04-06T09:23:56.999Z</time></trkpt><trkpt lat="43.00818329661221" lon="11.469419717166947"><ele>470.0</ele><time>2026-04-06T09:23:57.999Z</time></trkpt><trkpt lat="43.00824354568765" lon="11.469721170806523"><ele>470.5</ele><time>2026-04-06T09:23:58.999Z</time></trkpt><trkpt lat="43.00830498692935" lon="11.470025436632712"><ele>471.0</ele><time>2026-04-06T09:23:59.999Z</time></trkpt><trkpt lat="43.008371527902355" lon="11.470328568258896"><ele>475.0</ele><time>2026-04-06T09:24:00.999Z</time></trkpt><trkpt lat="43.00845194294688" lon="11.470632897536664"><ele>479.0</ele><time>2026-04-06T09:24:01.999Z</time></trkpt><trkpt lat="43.00855021984845" lon="11.470928214370751"><ele>479.0</ele><time>2026-04-06T09:24:02.999Z</time></trkpt><trkpt lat="43.008667458908995" lon="11.471211552996746"><ele>479.0</ele><time>2026-04-06T09:24:03.999Z</time></trkpt><trkpt lat="43.00880868668893" lon="11.471467330873764"><ele>479.0</ele><time>2026-04-06T09:24:04.999Z</time></trkpt><trkpt lat="43.0089635185769" lon="11.471713474384359"><ele>479.0</ele><time>2026-04-06T09:24:05.999Z</time></trkpt><trkpt lat="43.0091230970836" lon="11.471954522176931"><ele>477.5</ele><time>2026-04-06T09:24:06.999Z</time></trkpt><trkpt lat="43.00927525248615" lon="11.472192856145165"><ele>476.0</ele><time>2026-04-06T09:24:07.999Z</time></trkpt><trkpt lat="43.00941844364389" lon="11.472420491059312"><ele>476.0</ele><time>2026-04-06T09:24:08.999Z</time></trkpt><trkpt lat="43.00954748795615" lon="11.472650117925172"><ele>476.0</ele><time>2026-04-06T09:24:09.999Z</time></trkpt><trkpt lat="43.0096404262086" lon="11.472906999338054"><ele>476.0</ele><time>2026-04-06T09:24:10.999Z</time></trkpt><trkpt lat="43.00967701328992" lon="11.473186052223076"><ele>477.0</ele><time>2026-04-06T09:24:11.999Z</time></trkpt><trkpt lat="43.00966261304071" lon="11.473474374042675"><ele>478.0</ele><time>2026-04-06T09:24:12.999Z</time></trkpt><trkpt lat="43.00960449013281" lon="11.473753480213215"><ele>479.0</ele><time>2026-04-06T09:24:13.998Z</time></trkpt><trkpt lat="43.00955508820146" lon="11.47404197460049"><ele>479.0</ele><time>2026-04-06T09:24:14.998Z</time></trkpt><trkpt lat="43.009501727022034" lon="11.474341799742842"><ele>479.0</ele><time>2026-04-06T09:24:15.998Z</time></trkpt><trkpt lat="43.00945210342701" lon="11.474637690529411"><ele>479.0</ele><time>2026-04-06T09:24:16.998Z</time></trkpt><trkpt lat="43.00941240378085" lon="11.474948643935914"><ele>482.5</ele><time>2026-04-06T09:24:17.998Z</time></trkpt><trkpt lat="43.009390057384536" lon="11.47525752881725"><ele>486.0</ele><time>2026-04-06T09:24:18.998Z</time></trkpt><trkpt lat="43.00938975384854" lon="11.475570542864878"><ele>488.0</ele><time>2026-04-06T09:24:19.998Z</time></trkpt><trkpt lat="43.00940071542873" lon="11.47587251741014"><ele>490.0</ele><time>2026-04-06T09:24:20.998Z</time></trkpt><trkpt lat="43.00942596753365" lon="11.476146715402644"><ele>492.0</ele><time>2026-04-06T09:24:21.998Z</time></trkpt><trkpt lat="43.00948247370568" lon="11.47638535147045"><ele>493.33333333333337</ele><time>2026-04-06T09:24:22.998Z</time></trkpt><trkpt lat="43.00953933956224" lon="11.47659758337635"><ele>494.6666666666667</ele><time>2026-04-06T09:24:23.998Z</time></trkpt><trkpt lat="43.009616505219" lon="11.476794222608309"><ele>496.0</ele><time>2026-04-06T09:24:24.998Z</time></trkpt><trkpt lat="43.00971278829802" lon="11.47697273240308"><ele>495.0</ele><time>2026-04-06T09:24:25.998Z</time></trkpt><trkpt lat="43.00981968781633" lon="11.477133331333897"><ele>494.0</ele><time>2026-04-06T09:24:26.998Z</time></trkpt><trkpt lat="43.00992825395081" lon="11.47727524244861"><ele>493.0</ele><time>2026-04-06T09:24:27.998Z</time></trkpt><trkpt lat="43.01003592780226" lon="11.477415265005968"><ele>497.33333333333337</ele><time>2026-04-06T09:24:28.998Z</time></trkpt><trkpt lat="43.010147526679425" lon="11.477559741504875"><ele>501.66666666666663</ele><time>2026-04-06T09:24:29.998Z</time></trkpt><trkpt lat="43.01026170564779" lon="11.477703854041097"><ele>506.0</ele><time>2026-04-06T09:24:30.998Z</time></trkpt><trkpt lat="43.01037376982055" lon="11.477840780668577"><ele>506.5</ele><time>2026-04-06T09:24:31.998Z</time></trkpt><trkpt lat="43.01047873555296" lon="11.477975187300387"><ele>507.0</ele><time>2026-04-06T09:24:32.998Z</time></trkpt><trkpt lat="43.010573305054855" lon="11.478113667237883"><ele>507.5</ele><time>2026-04-06T09:24:33.998Z</time></trkpt><trkpt lat="43.010652443170905" lon="11.478250829089864"><ele>508.0</ele><time>2026-04-06T09:24:34.998Z</time></trkpt><trkpt lat="43.010721594074944" lon="11.478406352374094"><ele>508.0</ele><time>2026-04-06T09:24:35.998Z</time></trkpt><trkpt lat="43.01078573452448" lon="11.478566989561827"><ele>508.0</ele><time>2026-04-06T09:24:36.998Z</time></trkpt><trkpt lat="43.01084709041967" lon="11.478751846046322"><ele>508.0</ele><time>2026-04-06T09:24:37.998Z</time></trkpt><trkpt lat="43.01087739247671" lon="11.478953916797511"><ele>508.0</ele><time>2026-04-06T09:24:38.998Z</time></trkpt><trkpt lat="43.01093286184752" lon="11.479152934174442"><ele>512.3333333333334</ele><time>2026-04-06T09:24:39.998Z</time></trkpt><trkpt lat="43.010969704518025" lon="11.47936248968385"><ele>516.6666666666666</ele><time>2026-04-06T09:24:40.998Z</time></trkpt><trkpt lat="43.01100536947523" lon="11.479562870768701"><ele>521.0</ele><time>2026-04-06T09:24:41.998Z</time></trkpt><trkpt lat="43.01104298128182" lon="11.479772755964403"><ele>522.6666666666666</ele><time>2026-04-06T09:24:43Z</time></trkpt><trkpt lat="43.01107149907536" lon="11.480004034718469"><ele>524.3333333333334</ele><time>2026-04-06T09:24:44Z</time></trkpt><trkpt lat="43.011121940772625" lon="11.480248832791723"><ele>526.0</ele><time>2026-04-06T09:24:45Z</time></trkpt><trkpt lat="43.0111788777721" lon="11.480502545733248"><ele>528.0</ele><time>2026-04-06T09:24:46Z</time></trkpt><trkpt lat="43.01125495462849" lon="11.48074792568129"><ele>530.0</ele><time>2026-04-06T09:24:47Z</time></trkpt><trkpt lat="43.01131484340856" lon="11.480997930880159"><ele>532.0</ele><time>2026-04-06T09:24:48Z</time></trkpt><trkpt lat="43.0113794333477" lon="11.48123765931187"><ele>533.3333333333334</ele><time>2026-04-06T09:24:49Z</time></trkpt><trkpt lat="43.01143475244977" lon="11.481463541848955"><ele>534.6666666666666</ele><time>2026-04-06T09:24:50Z</time></trkpt><trkpt lat="43.01148824258092" lon="11.481687664615423"><ele>536.0</ele><time>2026-04-06T09:24:51Z</time></trkpt><trkpt lat="43.011541786736" lon="11.481902873686506"><ele>537.6666666666666</ele><time>2026-04-06T09:24:52Z</time></trkpt><trkpt lat="43.01159649420342" lon="11.48211133646342"><ele>539.3333333333334</ele><time>2026-04-06T09:24:53Z</time></trkpt><trkpt lat="43.01164916695493" lon="11.482313264591024"><ele>541.0</ele><time>2026-04-06T09:24:54Z</time></trkpt><trkpt lat="43.01170028767946" lon="11.482504557053067"><ele>542.0</ele><time>2026-04-06T09:24:55Z</time></trkpt><trkpt lat="43.01175225301416" lon="11.4826886887273"><ele>543.0</ele><time>2026-04-06T09:24:56Z</time></trkpt><trkpt lat="43.01180274453236" lon="11.482866891541613"><ele>544.0</ele><time>2026-04-06T09:24:57Z</time></trkpt><trkpt lat="43.011856880556884" lon="11.48304439515142"><ele>545.0</ele><time>2026-04-06T09:24:58Z</time></trkpt><trkpt lat="43.01193308095146" lon="11.48320423045623"><ele>546.75</ele><time>2026-04-06T09:24:59Z</time></trkpt><trkpt lat="43.01203687819408" lon="11.483329262280547"><ele>548.5</ele><time>2026-04-06T09:25:00Z</time></trkpt><trkpt lat="43.01216937216561" lon="11.483437384837965"><ele>550.25</ele><time>2026-04-06T09:25:01Z</time></trkpt><trkpt lat="43.01230099261134" lon="11.48354417787873"><ele>552.0</ele><time>2026-04-06T09:25:02Z</time></trkpt><trkpt lat="43.01243313720944" lon="11.483654957446987"><ele>552.0</ele><time>2026-04-06T09:25:03Z</time></trkpt><trkpt lat="43.01256271625219" lon="11.483764438731622"><ele>552.0</ele><time>2026-04-06T09:25:04Z</time></trkpt><trkpt lat="43.01268973160207" lon="11.483864367832103"><ele>552.0</ele><time>2026-04-06T09:25:05Z</time></trkpt><trkpt lat="43.01281218510894" lon="11.48396086640825"><ele>552.0</ele><time>2026-04-06T09:25:06Z</time></trkpt><trkpt lat="43.01293101920219" lon="11.484052021873314"><ele>552.0</ele><time>2026-04-06T09:25:07Z</time></trkpt><trkpt lat="43.013050687295696" lon="11.484155317501708"><ele>552.0</ele><time>2026-04-06T09:25:08Z</time></trkpt><trkpt lat="43.01317337897679" lon="11.48425485602333"><ele>552.0</ele><time>2026-04-06T09:25:09Z</time></trkpt><trkpt lat="43.01329788384651" lon="11.484356432639153"><ele>552.0</ele><time>2026-04-06T09:25:10Z</time></trkpt><trkpt lat="43.01342100564155" lon="11.484458882482523"><ele>552.25</ele><time>2026-04-06T09:25:11Z</time></trkpt><trkpt lat="43.01354132849907" lon="11.484557101948331"><ele>552.5</ele><time>2026-04-06T09:25:12Z</time></trkpt><trkpt lat="43.01366317020121" lon="11.48465689933066"><ele>552.75</ele><time>2026-04-06T09:25:13Z</time></trkpt><trkpt lat="43.0137922184718" lon="11.484745618100952"><ele>553.0</ele><time>2026-04-06T09:25:14Z</time></trkpt><trkpt lat="43.01393178223726" lon="11.484802554226736"><ele>553.0</ele><time>2026-04-06T09:25:15Z</time></trkpt><trkpt lat="43.01407376450305" lon="11.484841801714762"><ele>553.0</ele><time>2026-04-06T09:25:16Z</time></trkpt><trkpt lat="43.014224274619174" lon="11.484841387734503"><ele>553.0</ele><time>2026-04-06T09:25:17Z</time></trkpt><trkpt lat="43.0143646280558" lon="11.484837649533317"><ele>553.0</ele><time>2026-04-06T09:25:18Z</time></trkpt><trkpt lat="43.014504500556605" lon="11.484816773591083"><ele>551.6666666666667</ele><time>2026-04-06T09:25:19Z</time></trkpt><trkpt lat="43.01464775058207" lon="11.48476649956916"><ele>550.3333333333334</ele><time>2026-04-06T09:25:20Z</time></trkpt><trkpt lat="43.01480137627229" lon="11.484688989414336"><ele>549.0</ele><time>2026-04-06T09:25:21Z</time></trkpt><trkpt lat="43.014959102042305" lon="11.484581089693636"><ele>551.0</ele><time>2026-04-06T09:25:22Z</time></trkpt><trkpt lat="43.01512664212907" lon="11.484453626908119"><ele>553.0</ele><time>2026-04-06T09:25:23Z</time></trkpt><trkpt lat="43.015311342273264" lon="11.48430746179661"><ele>555.0</ele><time>2026-04-06T09:25:24Z</time></trkpt><trkpt lat="43.01551284862843" lon="11.48415659879591"><ele>555.0</ele><time>2026-04-06T09:25:25Z</time></trkpt><trkpt lat="43.015716792422886" lon="11.484002388596503"><ele>555.0</ele><time>2026-04-06T09:25:25.999Z</time></trkpt><trkpt lat="43.0159190894462" lon="11.483860782550483"><ele>556.3333333333334</ele><time>2026-04-06T09:25:26.999Z</time></trkpt><trkpt lat="43.01611671281286" lon="11.483733011988873"><ele>557.6666666666667</ele><time>2026-04-06T09:25:27.999Z</time></trkpt><trkpt lat="43.01630243888976" lon="11.483614095754843"><ele>559.0</ele><time>2026-04-06T09:25:28.999Z</time></trkpt><trkpt lat="43.01647450743313" lon="11.483500692031985"><ele>559.0</ele><time>2026-04-06T09:25:29.999Z</time></trkpt><trkpt lat="43.01663391824312" lon="11.483386991391473"><ele>559.0</ele><time>2026-04-06T09:25:30.999Z</time></trkpt><trkpt lat="43.016779936478606" lon="11.483286467765714"><ele>559.0</ele><time>2026-04-06T09:25:31.999Z</time></trkpt><trkpt lat="43.01692904825637" lon="11.483207968659638"><ele>558.6666666666667</ele><time>2026-04-06T09:25:32.999Z</time></trkpt><trkpt lat="43.01708376083998" lon="11.483154980482595"><ele>558.3333333333334</ele><time>2026-04-06T09:25:33.999Z</time></trkpt><trkpt lat="43.01724090100113" lon="11.483116316555934"><ele>558.0</ele><time>2026-04-06T09:25:34.999Z</time></trkpt><trkpt lat="43.017408655611916" lon="11.483104885230734"><ele>560.3333333333334</ele><time>2026-04-06T09:25:35.999Z</time></trkpt><trkpt lat="43.01757678236311" lon="11.483121063039494"><ele>562.6666666666667</ele><time>2026-04-06T09:25:36.999Z</time></trkpt><trkpt lat="43.017740969576295" lon="11.48319329767987"><ele>565.0</ele><time>2026-04-06T09:25:37.999Z</time></trkpt><trkpt lat="43.01790838799984" lon="11.483272147876237"><ele>565.0</ele><time>2026-04-06T09:25:38.999Z</time></trkpt><trkpt lat="43.01808690473987" lon="11.483364807190878"><ele>565.0</ele><time>2026-04-06T09:25:39.999Z</time></trkpt><trkpt lat="43.018263972732946" lon="11.483462913625685"><ele>565.0</ele><time>2026-04-06T09:25:40.999Z</time></trkpt><trkpt lat="43.01842734282768" lon="11.483553691694013"><ele>567.6666666666667</ele><time>2026-04-06T09:25:41.999Z</time></trkpt><trkpt lat="43.018580809286256" lon="11.483636964270987"><ele>570.3333333333334</ele><time>2026-04-06T09:25:42.999Z</time></trkpt><trkpt lat="43.01872961868913" lon="11.483717019466448"><ele>573.0</ele><time>2026-04-06T09:25:43.999Z</time></trkpt><trkpt lat="43.018880906018005" lon="11.483776321521594"><ele>573.0</ele><time>2026-04-06T09:25:44.999Z</time></trkpt><trkpt lat="43.0190249403138" lon="11.48385541447424"><ele>573.0</ele><time>2026-04-06T09:25:45.999Z</time></trkpt><trkpt lat="43.0191748724527" lon="11.483922213699012"><ele>573.0</ele><time>2026-04-06T09:25:46.999Z</time></trkpt><trkpt lat="43.01933072493948" lon="11.483962662039078"><ele>575.3333333333334</ele><time>2026-04-06T09:25:47.999Z</time></trkpt><trkpt lat="43.01949391300551" lon="11.483971447925233"><ele>577.6666666666667</ele><time>2026-04-06T09:25:48.999Z</time></trkpt><trkpt lat="43.019666944750654" lon="11.483967918854882"><ele>580.0</ele><time>2026-04-06T09:25:49.999Z</time></trkpt><trkpt lat="43.01984627944198" lon="11.483916027272521"><ele>580.6666666666667</ele><time>2026-04-06T09:25:50.999Z</time></trkpt><trkpt lat="43.02002785954865" lon="11.483854133097756"><ele>581.3333333333334</ele><time>2026-04-06T09:25:51.999Z</time></trkpt><trkpt lat="43.02021238428579" lon="11.483788662152744"><ele>582.0</ele><time>2026-04-06T09:25:52.999Z</time></trkpt><trkpt lat="43.02039596581122" lon="11.483724170197265"><ele>582.0</ele><time>2026-04-06T09:25:53.999Z</time></trkpt><trkpt lat="43.02059097178235" lon="11.48366143804735"><ele>582.0</ele><time>2026-04-06T09:25:54.999Z</time></trkpt><trkpt lat="43.02079878495135" lon="11.48361712880937"><ele>582.0</ele><time>2026-04-06T09:25:55.999Z</time></trkpt><trkpt lat="43.02101905885903" lon="11.483578264626349"><ele>584.0</ele><time>2026-04-06T09:25:56.999Z</time></trkpt><trkpt lat="43.02125372375326" lon="11.483568450198948"><ele>586.0</ele><time>2026-04-06T09:25:57.999Z</time></trkpt><trkpt lat="43.021500688266265" lon="11.48355471326564"><ele>588.0</ele><time>2026-04-06T09:25:58.999Z</time></trkpt><trkpt lat="43.02175090954875" lon="11.48354601278602"><ele>590.0</ele><time>2026-04-06T09:25:59.999Z</time></trkpt><trkpt lat="43.02200259264453" lon="11.483537369163985"><ele>590.0</ele><time>2026-04-06T09:26:00.999Z</time></trkpt><trkpt lat="43.022251786218156" lon="11.483523557911639"><ele>590.0</ele><time>2026-04-06T09:26:01.999Z</time></trkpt><trkpt lat="43.022495024094695" lon="11.483513760788323"><ele>593.5</ele><time>2026-04-06T09:26:02.999Z</time></trkpt><trkpt lat="43.022739177505045" lon="11.483504162790734"><ele>597.0</ele><time>2026-04-06T09:26:03.999Z</time></trkpt><trkpt lat="43.022979112879995" lon="11.483493378901025"><ele>597.0</ele><time>2026-04-06T09:26:04.999Z</time></trkpt><trkpt lat="43.02321980690336" lon="11.48347843459691"><ele>597.0</ele><time>2026-04-06T09:26:05.999Z</time></trkpt><trkpt lat="43.023461512636416" lon="11.483434046996521"><ele>600.0</ele><time>2026-04-06T09:26:06.999Z</time></trkpt><trkpt lat="43.02370053512809" lon="11.48334500454769"><ele>603.0</ele><time>2026-04-06T09:26:07.999Z</time></trkpt><trkpt lat="43.02393227049727" lon="11.483227454915488"><ele>603.0</ele><time>2026-04-06T09:26:08.999Z</time></trkpt><trkpt lat="43.02416172098643" lon="11.483109951622835"><ele>603.0</ele><time>2026-04-06T09:26:09.999Z</time></trkpt><trkpt lat="43.024384696173264" lon="11.482992429798887"><ele>603.5</ele><time>2026-04-06T09:26:10.999Z</time></trkpt><trkpt lat="43.024590144404186" lon="11.482829650784698"><ele>604.0</ele><time>2026-04-06T09:26:11.999Z</time></trkpt><trkpt lat="43.0247689011732" lon="11.482616121995695"><ele>604.0</ele><time>2026-04-06T09:26:12.999Z</time></trkpt><trkpt lat="43.02495764832432" lon="11.482416940314339"><ele>604.0</ele><time>2026-04-06T09:26:13.999Z</time></trkpt><trkpt lat="43.025137501157396" lon="11.482214467622411"><ele>608.0</ele><time>2026-04-06T09:26:14.999Z</time></trkpt><trkpt lat="43.025316114630975" lon="11.482013792733037"><ele>612.0</ele><time>2026-04-06T09:26:15.999Z</time></trkpt><trkpt lat="43.02549550571617" lon="11.48183159869078"><ele>612.0</ele><time>2026-04-06T09:26:16.999Z</time></trkpt><trkpt lat="43.025708196871214" lon="11.481714125985423"><ele>612.0</ele><time>2026-04-06T09:26:17.999Z</time></trkpt><trkpt lat="43.025939839216164" lon="11.481642833636982"><ele>611.0</ele><time>2026-04-06T09:26:18.999Z</time></trkpt><trkpt lat="43.02618944166894" lon="11.481607252865814"><ele>610.0</ele><time>2026-04-06T09:26:19.998Z</time></trkpt><trkpt lat="43.026448031793855" lon="11.481575348447036"><ele>609.0</ele><time>2026-04-06T09:26:20.998Z</time></trkpt><trkpt lat="43.026716569318694" lon="11.481541046200013"><ele>608.0</ele><time>2026-04-06T09:26:21.998Z</time></trkpt><trkpt lat="43.02699447577635" lon="11.48150849470634"><ele>608.0</ele><time>2026-04-06T09:26:22.998Z</time></trkpt><trkpt lat="43.02728070867188" lon="11.481480072253065"><ele>608.0</ele><time>2026-04-06T09:26:23.998Z</time></trkpt><trkpt lat="43.027572896674" lon="11.481450193115654"><ele>608.5</ele><time>2026-04-06T09:26:24.998Z</time></trkpt><trkpt lat="43.02787608169989" lon="11.481415376106684"><ele>609.0</ele><time>2026-04-06T09:26:25.998Z</time></trkpt><trkpt lat="43.02818034833889" lon="11.4813825187048"><ele>611.5</ele><time>2026-04-06T09:26:26.998Z</time></trkpt><trkpt lat="43.02848482406927" lon="11.481353073198312"><ele>614.0</ele><time>2026-04-06T09:26:27.998Z</time></trkpt><trkpt lat="43.02878926127452" lon="11.481322255242413"><ele>614.0</ele><time>2026-04-06T09:26:28.998Z</time></trkpt><trkpt lat="43.02909063217195" lon="11.481291635999227"><ele>614.0</ele><time>2026-04-06T09:26:29.998Z</time></trkpt><trkpt lat="43.029389369143836" lon="11.481266382645723"><ele>613.0</ele><time>2026-04-06T09:26:30.998Z</time></trkpt><trkpt lat="43.02967609326357" lon="11.481239044455702"><ele>612.0</ele><time>2026-04-06T09:26:31.998Z</time></trkpt><trkpt lat="43.02994976843047" lon="11.48121244473705"><ele>615.0</ele><time>2026-04-06T09:26:32.998Z</time></trkpt><trkpt lat="43.03021939752878" lon="11.481196094062774"><ele>618.0</ele><time>2026-04-06T09:26:33.998Z</time></trkpt><trkpt lat="43.03048431915136" lon="11.481189649847668"><ele>618.0</ele><time>2026-04-06T09:26:34.998Z</time></trkpt><trkpt lat="43.0307389433146" lon="11.481184559221358"><ele>618.0</ele><time>2026-04-06T09:26:35.998Z</time></trkpt><trkpt lat="43.0309867802233" lon="11.48117850492186"><ele>618.0</ele><time>2026-04-06T09:26:36.998Z</time></trkpt><trkpt lat="43.03122309742407" lon="11.481174920803605"><ele>618.0</ele><time>2026-04-06T09:26:37.998Z</time></trkpt><trkpt lat="43.03144234550207" lon="11.481168739298177"><ele>619.6666666666666</ele><time>2026-04-06T09:26:38.998Z</time></trkpt><trkpt lat="43.03166481551263" lon="11.48115527248186"><ele>621.3333333333333</ele><time>2026-04-06T09:26:39.998Z</time></trkpt><trkpt lat="43.03188188055501" lon="11.481137725655675"><ele>623.0</ele><time>2026-04-06T09:26:40.998Z</time></trkpt><trkpt lat="43.03208557923934" lon="11.481138375870891"><ele>623.0</ele><time>2026-04-06T09:26:41.998Z</time></trkpt><trkpt lat="43.03227662016746" lon="11.481143212746632"><ele>623.0</ele><time>2026-04-06T09:26:42.998Z</time></trkpt><trkpt lat="43.0324756717817" lon="11.481143007147763"><ele>623.0</ele><time>2026-04-06T09:26:43.998Z</time></trkpt><trkpt lat="43.03268105003634" lon="11.48110289308683"><ele>623.3333333333333</ele><time>2026-04-06T09:26:44.998Z</time></trkpt><trkpt lat="43.03288864634257" lon="11.481029323482145"><ele>623.6666666666666</ele><time>2026-04-06T09:26:45.998Z</time></trkpt><trkpt lat="43.03309435998725" lon="11.480949598765632"><ele>624.0</ele><time>2026-04-06T09:26:46.998Z</time></trkpt><trkpt lat="43.03329935734571" lon="11.480876822084609"><ele>627.0</ele><time>2026-04-06T09:26:47.998Z</time></trkpt><trkpt lat="43.033504410976306" lon="11.480803336247023"><ele>630.0</ele><time>2026-04-06T09:26:49Z</time></trkpt><trkpt lat="43.03370434216859" lon="11.480739448282375"><ele>633.0</ele><time>2026-04-06T09:26:50Z</time></trkpt><trkpt lat="43.0338994329413" lon="11.480680255922396"><ele>633.0</ele><time>2026-04-06T09:26:51Z</time></trkpt><trkpt lat="43.034092667375376" lon="11.480625494453916"><ele>633.0</ele><time>2026-04-06T09:26:52Z</time></trkpt><trkpt lat="43.03428090383872" lon="11.480552175148938"><ele>633.0</ele><time>2026-04-06T09:26:53Z</time></trkpt><trkpt lat="43.03445166311636" lon="11.48043153147997"><ele>633.0</ele><time>2026-04-06T09:26:54Z</time></trkpt><trkpt lat="43.03459049458258" lon="11.480252588266726"><ele>633.0</ele><time>2026-04-06T09:26:55Z</time></trkpt><trkpt lat="43.03469646600451" lon="11.480034611828263"><ele>633.0</ele><time>2026-04-06T09:26:56Z</time></trkpt><trkpt lat="43.03479711766736" lon="11.479797687908324"><ele>630.3333333333334</ele><time>2026-04-06T09:26:57Z</time></trkpt><trkpt lat="43.034925870054536" lon="11.479572991335592"><ele>627.6666666666667</ele><time>2026-04-06T09:26:58Z</time></trkpt><trkpt lat="43.03508147545525" lon="11.47937421367834"><ele>625.0</ele><time>2026-04-06T09:26:59Z</time></trkpt><trkpt lat="43.03528928042291" lon="11.479233373823373"><ele>623.0</ele><time>2026-04-06T09:27:00Z</time></trkpt><trkpt lat="43.03550292422045" lon="11.479146943998474"><ele>621.0</ele><time>2026-04-06T09:27:01Z</time></trkpt><trkpt lat="43.03571924359453" lon="11.479147020078837"><ele>619.0</ele><time>2026-04-06T09:27:02Z</time></trkpt><trkpt lat="43.03593554094136" lon="11.47922450037893"><ele>614.5</ele><time>2026-04-06T09:27:03Z</time></trkpt><trkpt lat="43.036133092824215" lon="11.479360631429513"><ele>610.0</ele><time>2026-04-06T09:27:04Z</time></trkpt><trkpt lat="43.036346007491176" lon="11.479518683403128"><ele>610.5</ele><time>2026-04-06T09:27:05Z</time></trkpt><trkpt lat="43.03657105805516" lon="11.479662322351741"><ele>611.0</ele><time>2026-04-06T09:27:06Z</time></trkpt><trkpt lat="43.036802936079475" lon="11.47980578317973"><ele>606.0</ele><time>2026-04-06T09:27:07Z</time></trkpt><trkpt lat="43.03704410421643" lon="11.479963264441995"><ele>601.0</ele><time>2026-04-06T09:27:08Z</time></trkpt><trkpt lat="43.03727778384032" lon="11.480135421011186"><ele>598.0</ele><time>2026-04-06T09:27:09Z</time></trkpt><trkpt lat="43.03750709586276" lon="11.480332294151355"><ele>595.0</ele><time>2026-04-06T09:27:10Z</time></trkpt><trkpt lat="43.03773003577064" lon="11.480549661384241"><ele>593.5</ele><time>2026-04-06T09:27:11Z</time></trkpt><trkpt lat="43.03796082128962" lon="11.480751074063592"><ele>592.0</ele><time>2026-04-06T09:27:12Z</time></trkpt><trkpt lat="43.03818965620281" lon="11.4809416841121"><ele>591.0</ele><time>2026-04-06T09:27:13Z</time></trkpt><trkpt lat="43.038422209422436" lon="11.481143163416627"><ele>590.0</ele><time>2026-04-06T09:27:14Z</time></trkpt><trkpt lat="43.03864484291753" lon="11.481345248848125"><ele>589.5</ele><time>2026-04-06T09:27:15Z</time></trkpt><trkpt lat="43.03886761454735" lon="11.481550060044317"><ele>589.0</ele><time>2026-04-06T09:27:16Z</time></trkpt><trkpt lat="43.03909200786754" lon="11.481746563508466"><ele>592.5</ele><time>2026-04-06T09:27:17Z</time></trkpt><trkpt lat="43.039315423637696" lon="11.481942892743714"><ele>596.0</ele><time>2026-04-06T09:27:18Z</time></trkpt><trkpt lat="43.03953087264302" lon="11.482133780353408"><ele>600.5</ele><time>2026-04-06T09:27:19Z</time></trkpt><trkpt lat="43.03974452016417" lon="11.482320125241662"><ele>605.0</ele><time>2026-04-06T09:27:20Z</time></trkpt><trkpt lat="43.039957036001766" lon="11.482505472865467"><ele>607.5</ele><time>2026-04-06T09:27:21Z</time></trkpt><trkpt lat="43.040172450446875" lon="11.482676091110333"><ele>610.0</ele><time>2026-04-06T09:27:22Z</time></trkpt><trkpt lat="43.040400087191976" lon="11.48281966422865"><ele>613.5</ele><time>2026-04-06T09:27:23Z</time></trkpt><trkpt lat="43.040640513168995" lon="11.48294087603893"><ele>617.0</ele><time>2026-04-06T09:27:24Z</time></trkpt><trkpt lat="43.040884120129206" lon="11.483036395366693"><ele>617.5</ele><time>2026-04-06T09:27:25Z</time></trkpt><trkpt lat="43.04112222876525" lon="11.483131499987776"><ele>618.0</ele><time>2026-04-06T09:27:26Z</time></trkpt><trkpt lat="43.04135575040448" lon="11.48321383075688"><ele>618.0</ele><time>2026-04-06T09:27:27Z</time></trkpt><trkpt lat="43.041593478028915" lon="11.483293879778053"><ele>618.0</ele><time>2026-04-06T09:27:28Z</time></trkpt><trkpt lat="43.04184696704726" lon="11.483328141322694"><ele>615.0</ele><time>2026-04-06T09:27:29Z</time></trkpt><trkpt lat="43.04208913645645" lon="11.483387344884044"><ele>612.0</ele><time>2026-04-06T09:27:30Z</time></trkpt><trkpt lat="43.04233060847335" lon="11.483453940073764"><ele>612.5</ele><time>2026-04-06T09:27:31Z</time></trkpt><trkpt lat="43.04255984344944" lon="11.483519323081559"><ele>613.0</ele><time>2026-04-06T09:27:32Z</time></trkpt><trkpt lat="43.04277663101253" lon="11.483582790270399"><ele>613.0</ele><time>2026-04-06T09:27:32.999Z</time></trkpt><trkpt lat="43.04298745291764" lon="11.483640524097005"><ele>613.0</ele><time>2026-04-06T09:27:33.999Z</time></trkpt><trkpt lat="43.043192285519794" lon="11.483698812647328"><ele>613.0</ele><time>2026-04-06T09:27:34.999Z</time></trkpt><trkpt lat="43.04339949182041" lon="11.48376712728192"><ele>612.3333333333334</ele><time>2026-04-06T09:27:35.999Z</time></trkpt><trkpt lat="43.0436064145129" lon="11.483868957051977"><ele>611.6666666666666</ele><time>2026-04-06T09:27:36.999Z</time></trkpt><trkpt lat="43.04380370665991" lon="11.4840068712934"><ele>611.0</ele><time>2026-04-06T09:27:37.999Z</time></trkpt><trkpt lat="43.04398423100116" lon="11.484167847810788"><ele>611.0</ele><time>2026-04-06T09:27:38.999Z</time></trkpt><trkpt lat="43.04414824894505" lon="11.484348404623352"><ele>611.0</ele><time>2026-04-06T09:27:39.999Z</time></trkpt><trkpt lat="43.044304877423194" lon="11.48450642379717"><ele>611.0</ele><time>2026-04-06T09:27:40.999Z</time></trkpt><trkpt lat="43.04443945055597" lon="11.48467313692473"><ele>611.3333333333333</ele><time>2026-04-06T09:27:41.999Z</time></trkpt><trkpt lat="43.04454479273883" lon="11.484872906801847"><ele>611.6666666666666</ele><time>2026-04-06T09:27:42.999Z</time></trkpt><trkpt lat="43.044624770422516" lon="11.48510016491593"><ele>612.0</ele><time>2026-04-06T09:27:43.999Z</time></trkpt><trkpt lat="43.04468962203126" lon="11.48534301481483"><ele>612.6666666666666</ele><time>2026-04-06T09:27:44.999Z</time></trkpt><trkpt lat="43.04476041211064" lon="11.485590235616371"><ele>613.3333333333333</ele><time>2026-04-06T09:27:45.999Z</time></trkpt><trkpt lat="43.04483635931251" lon="11.4858458791978"><ele>614.0</ele><time>2026-04-06T09:27:46.999Z</time></trkpt><trkpt lat="43.044908582619804" lon="11.486108454171884"><ele>614.3333333333333</ele><time>2026-04-06T09:27:47.999Z</time></trkpt><trkpt lat="43.04497859123924" lon="11.486369295609224"><ele>614.6666666666666</ele><time>2026-04-06T09:27:48.999Z</time></trkpt><trkpt lat="43.04504043289098" lon="11.486602894929241"><ele>615.0</ele><time>2026-04-06T09:27:49.999Z</time></trkpt><trkpt lat="43.04510850306339" lon="11.486811041228028"><ele>615.0</ele><time>2026-04-06T09:27:50.999Z</time></trkpt><trkpt lat="43.04520312326182" lon="11.486967850237795"><ele>615.0</ele><time>2026-04-06T09:27:51.999Z</time></trkpt><trkpt lat="43.04533232084855" lon="11.487069423357232"><ele>615.0</ele><time>2026-04-06T09:27:52.999Z</time></trkpt><trkpt lat="43.04548260492138" lon="11.487110200312875"><ele>614.3333333333334</ele><time>2026-04-06T09:27:53.999Z</time></trkpt><trkpt lat="43.045640589472754" lon="11.487107956637166"><ele>613.6666666666667</ele><time>2026-04-06T09:27:54.999Z</time></trkpt><trkpt lat="43.04579770837405" lon="11.487114970239888"><ele>613.0</ele><time>2026-04-06T09:27:55.999Z</time></trkpt><trkpt lat="43.045952182793236" lon="11.487175804511077"><ele>613.0</ele><time>2026-04-06T09:27:56.999Z</time></trkpt><trkpt lat="43.046079896493" lon="11.487310158014552"><ele>613.0</ele><time>2026-04-06T09:27:57.999Z</time></trkpt><trkpt lat="43.046175168151116" lon="11.4875024144759"><ele>613.0</ele><time>2026-04-06T09:27:58.999Z</time></trkpt><trkpt lat="43.046227687039284" lon="11.487739464104157"><ele>609.3333333333334</ele><time>2026-04-06T09:27:59.999Z</time></trkpt><trkpt lat="43.04628349762284" lon="11.487977249156653"><ele>605.6666666666666</ele><time>2026-04-06T09:28:00.999Z</time></trkpt><trkpt lat="43.04632682272991" lon="11.488211438737604"><ele>602.0</ele><time>2026-04-06T09:28:01.999Z</time></trkpt><trkpt lat="43.046359695945725" lon="11.488481179020297"><ele>602.0</ele><time>2026-04-06T09:28:02.999Z</time></trkpt><trkpt lat="43.046411327497104" lon="11.488728137446591"><ele>602.0</ele><time>2026-04-06T09:28:03.999Z</time></trkpt><trkpt lat="43.046470756756925" lon="11.488947419380406"><ele>602.0</ele><time>2026-04-06T09:28:04.999Z</time></trkpt><trkpt lat="43.04653434013388" lon="11.489169063490902"><ele>599.3333333333333</ele><time>2026-04-06T09:28:05.999Z</time></trkpt><trkpt lat="43.046626295121705" lon="11.489364377404138"><ele>596.6666666666666</ele><time>2026-04-06T09:28:06.999Z</time></trkpt><trkpt lat="43.04675720034645" lon="11.489511983332097"><ele>594.0</ele><time>2026-04-06T09:28:07.999Z</time></trkpt><trkpt lat="43.04691185347964" lon="11.489590401896455"><ele>595.0</ele><time>2026-04-06T09:28:08.999Z</time></trkpt><trkpt lat="43.04708531838514" lon="11.489629058821173"><ele>596.0</ele><time>2026-04-06T09:28:09.999Z</time></trkpt><trkpt lat="43.04726826707684" lon="11.48962409650241"><ele>597.0</ele><time>2026-04-06T09:28:10.999Z</time></trkpt><trkpt lat="43.047443837583295" lon="11.489656910381802"><ele>599.0</ele><time>2026-04-06T09:28:11.999Z</time></trkpt><trkpt lat="43.04760262806367" lon="11.489789596219815"><ele>601.0</ele><time>2026-04-06T09:28:12.999Z</time></trkpt><trkpt lat="43.04773104884685" lon="11.489958897879943"><ele>603.0</ele><time>2026-04-06T09:28:13.999Z</time></trkpt><trkpt lat="43.04785186155664" lon="11.490105736998824"><ele>603.0</ele><time>2026-04-06T09:28:14.999Z</time></trkpt><trkpt lat="43.04799291136223" lon="11.490168289822778"><ele>603.0</ele><time>2026-04-06T09:28:15.999Z</time></trkpt><trkpt lat="43.048161396401696" lon="11.490177548208985"><ele>603.0</ele><time>2026-04-06T09:28:16.999Z</time></trkpt><trkpt lat="43.048305191554974" lon="11.490116270616122"><ele>603.0</ele><time>2026-04-06T09:28:17.999Z</time></trkpt><trkpt lat="43.04845424112858" lon="11.49004962728587"><ele>603.0</ele><time>2026-04-06T09:28:18.999Z</time></trkpt><trkpt lat="43.04860768009067" lon="11.490009817360596"><ele>603.0</ele><time>2026-04-06T09:28:19.999Z</time></trkpt><trkpt lat="43.04874143994504" lon="11.490008426252695"><ele>603.0</ele><time>2026-04-06T09:28:20.999Z</time></trkpt><trkpt lat="43.04885373497518" lon="11.490075869812983"><ele>603.0</ele><time>2026-04-06T09:28:21.999Z</time></trkpt><trkpt lat="43.04894281878499" lon="11.490208558329773"><ele>603.0</ele><time>2026-04-06T09:28:22.999Z</time></trkpt><trkpt lat="43.04898352353128" lon="11.49041532107842"><ele>603.0</ele><time>2026-04-06T09:28:23.999Z</time></trkpt><trkpt lat="43.04901117719158" lon="11.49061576657545"><ele>603.0</ele><time>2026-04-06T09:28:24.999Z</time></trkpt><trkpt lat="43.04904952024502" lon="11.490812719756315"><ele>601.0</ele><time>2026-04-06T09:28:25.999Z</time></trkpt><trkpt lat="43.04911253278626" lon="11.490986164431662"><ele>599.0</ele><time>2026-04-06T09:28:26.999Z</time></trkpt><trkpt lat="43.049199442956365" lon="11.491094287223824"><ele>597.0</ele><time>2026-04-06T09:28:27.998Z</time></trkpt><trkpt lat="43.04930948576866" lon="11.491136238710295"><ele>595.0</ele><time>2026-04-06T09:28:28.998Z</time></trkpt><trkpt lat="43.0494261675573" lon="11.491116371715307"><ele>595.0</ele><time>2026-04-06T09:28:29.998Z</time></trkpt><trkpt lat="43.049532048095905" lon="11.491064423491368"><ele>595.0</ele><time>2026-04-06T09:28:30.998Z</time></trkpt><trkpt lat="43.049632060421054" lon="11.491021921536955"><ele>595.0</ele><time>2026-04-06T09:28:31.998Z</time></trkpt><trkpt lat="43.04973737383567" lon="11.490995837756172"><ele>595.0</ele><time>2026-04-06T09:28:32.998Z</time></trkpt><trkpt lat="43.04984415823815" lon="11.491001803520465"><ele>595.0</ele><time>2026-04-06T09:28:33.998Z</time></trkpt><trkpt lat="43.0499430358673" lon="11.491033613456976"><ele>595.5</ele><time>2026-04-06T09:28:34.998Z</time></trkpt><trkpt lat="43.050040450891174" lon="11.491047862129166"><ele>596.0</ele><time>2026-04-06T09:28:35.998Z</time></trkpt><trkpt lat="43.05015081806811" lon="11.491016695233956"><ele>596.5</ele><time>2026-04-06T09:28:36.998Z</time></trkpt><trkpt lat="43.05026021947432" lon="11.490927885624375"><ele>597.0</ele><time>2026-04-06T09:28:37.998Z</time></trkpt><trkpt lat="43.050358183572385" lon="11.490775430006911"><ele>597.0</ele><time>2026-04-06T09:28:38.998Z</time></trkpt><trkpt lat="43.05041248180801" lon="11.4905986256521"><ele>597.0</ele><time>2026-04-06T09:28:39.998Z</time></trkpt><trkpt lat="43.050482597364905" lon="11.490439187988441"><ele>597.0</ele><time>2026-04-06T09:28:40.998Z</time></trkpt><trkpt lat="43.050559382613365" lon="11.490283751759275"><ele>597.0</ele><time>2026-04-06T09:28:41.998Z</time></trkpt><trkpt lat="43.0506334975214" lon="11.490132882783627"><ele>598.25</ele><time>2026-04-06T09:28:42.998Z</time></trkpt><trkpt lat="43.050703059605915" lon="11.489981352396374"><ele>599.5</ele><time>2026-04-06T09:28:43.998Z</time></trkpt><trkpt lat="43.050774953989716" lon="11.489829942178782"><ele>600.75</ele><time>2026-04-06T09:28:44.998Z</time></trkpt><trkpt lat="43.05085133438973" lon="11.48969228117729"><ele>602.0</ele><time>2026-04-06T09:28:45.998Z</time></trkpt><trkpt lat="43.050924201979036" lon="11.489579523687944"><ele>602.0</ele><time>2026-04-06T09:28:46.998Z</time></trkpt><trkpt lat="43.05100619043683" lon="11.489501446199117"><ele>602.0</ele><time>2026-04-06T09:28:47.998Z</time></trkpt><trkpt lat="43.05111460326494" lon="11.489497893465641"><ele>602.0</ele><time>2026-04-06T09:28:48.998Z</time></trkpt><trkpt lat="43.05123035706811" lon="11.48958048082259"><ele>602.0</ele><time>2026-04-06T09:28:49.998Z</time></trkpt><trkpt lat="43.05129306947007" lon="11.489720398386487"><ele>598.75</ele><time>2026-04-06T09:28:50.998Z</time></trkpt><trkpt lat="43.051357576656514" lon="11.489837411948953"><ele>595.5</ele><time>2026-04-06T09:28:51.998Z</time></trkpt><trkpt lat="43.0513942937667" lon="11.489975429160788"><ele>592.25</ele><time>2026-04-06T09:28:52.998Z</time></trkpt><trkpt lat="43.05146000667876" lon="11.490119572955036"><ele>589.0</ele><time>2026-04-06T09:28:53.998Z</time></trkpt><trkpt lat="43.05152251220098" lon="11.490255313002898"><ele>589.0</ele><time>2026-04-06T09:28:55Z</time></trkpt><trkpt lat="43.051589766907476" lon="11.490403064937185"><ele>589.0</ele><time>2026-04-06T09:28:56Z</time></trkpt><trkpt lat="43.05165463114853" lon="11.490538278202399"><ele>589.0</ele><time>2026-04-06T09:28:57Z</time></trkpt><trkpt lat="43.05172948870981" lon="11.490660238557593"><ele>589.0</ele><time>2026-04-06T09:28:58Z</time></trkpt><trkpt lat="43.05182964662126" lon="11.490764596345912"><ele>585.0</ele><time>2026-04-06T09:28:59Z</time></trkpt><trkpt lat="43.0519249291697" lon="11.490890321262988"><ele>581.0</ele><time>2026-04-06T09:29:00Z</time></trkpt><trkpt lat="43.05201328539807" lon="11.491013455385565"><ele>577.0</ele><time>2026-04-06T09:29:01Z</time></trkpt><trkpt lat="43.052123812781545" lon="11.49109329642522"><ele>573.0</ele><time>2026-04-06T09:29:02Z</time></trkpt><trkpt lat="43.052247479046066" lon="11.491149427173761"><ele>573.0</ele><time>2026-04-06T09:29:03Z</time></trkpt><trkpt lat="43.05237562729644" lon="11.49107401159572"><ele>573.0</ele><time>2026-04-06T09:29:04Z</time></trkpt><trkpt lat="43.05249424037546" lon="11.491032548358577"><ele>573.0</ele><time>2026-04-06T09:29:05Z</time></trkpt><trkpt lat="43.05261796629985" lon="11.490981113131294"><ele>573.0</ele><time>2026-04-06T09:29:06Z</time></trkpt><trkpt lat="43.052741924129954" lon="11.490907320750045"><ele>574.0</ele><time>2026-04-06T09:29:07Z</time></trkpt><trkpt lat="43.05284260235167" lon="11.490832447328142"><ele>575.0</ele><time>2026-04-06T09:29:08Z</time></trkpt><trkpt lat="43.05294140609779" lon="11.490762944116014"><ele>576.0</ele><time>2026-04-06T09:29:09Z</time></trkpt><trkpt lat="43.05302400131938" lon="11.490661248361208"><ele>577.0</ele><time>2026-04-06T09:29:10Z</time></trkpt><trkpt lat="43.05311639474853" lon="11.490540729125348"><ele>580.5</ele><time>2026-04-06T09:29:11Z</time></trkpt><trkpt lat="43.053181585776265" lon="11.490386685460516"><ele>584.0</ele><time>2026-04-06T09:29:12Z</time></trkpt><trkpt lat="43.0532135194019" lon="11.490209981268032"><ele>587.5</ele><time>2026-04-06T09:29:13Z</time></trkpt><trkpt lat="43.05324250653524" lon="11.49004612310116"><ele>591.0</ele><time>2026-04-06T09:29:14Z</time></trkpt><trkpt lat="43.05325654221248" lon="11.489890357529289"><ele>591.0</ele><time>2026-04-06T09:29:15Z</time></trkpt><trkpt lat="43.05327556036474" lon="11.489744933715201"><ele>591.0</ele><time>2026-04-06T09:29:16Z</time></trkpt><trkpt lat="43.053301340242314" lon="11.489595368225137"><ele>591.0</ele><time>2026-04-06T09:29:17Z</time></trkpt><trkpt lat="43.05332590813118" lon="11.489450485864634"><ele>591.0</ele><time>2026-04-06T09:29:18Z</time></trkpt><trkpt lat="43.05335335367675" lon="11.489311403864741"><ele>591.0</ele><time>2026-04-06T09:29:19Z</time></trkpt><trkpt lat="43.05339020285054" lon="11.489176356748587"><ele>586.6</ele><time>2026-04-06T09:29:20Z</time></trkpt><trkpt lat="43.05344284104766" lon="11.489057308731391"><ele>582.2</ele><time>2026-04-06T09:29:21Z</time></trkpt><trkpt lat="43.053518309933956" lon="11.488966052901777"><ele>577.8</ele><time>2026-04-06T09:29:22Z</time></trkpt><trkpt lat="43.05362346916964" lon="11.488930766921419"><ele>573.4</ele><time>2026-04-06T09:29:23Z</time></trkpt><trkpt lat="43.05373386088666" lon="11.488887359032898"><ele>569.0</ele><time>2026-04-06T09:29:24Z</time></trkpt><trkpt lat="43.05382501613078" lon="11.488853372295278"><ele>569.0</ele><time>2026-04-06T09:29:25Z</time></trkpt><trkpt lat="43.05391698535651" lon="11.488820377411004"><ele>569.0</ele><time>2026-04-06T09:29:26Z</time></trkpt><trkpt lat="43.0540151499106" lon="11.488786242000751"><ele>569.0</ele><time>2026-04-06T09:29:27Z</time></trkpt><trkpt lat="43.05411368602523" lon="11.488751977388414"><ele>569.0</ele><time>2026-04-06T09:29:28Z</time></trkpt><trkpt lat="43.05421158163286" lon="11.488721152773625"><ele>569.0</ele><time>2026-04-06T09:29:29Z</time></trkpt><trkpt lat="43.054304638867585" lon="11.488676159128898"><ele>568.4285714285714</ele><time>2026-04-06T09:29:30Z</time></trkpt><trkpt lat="43.05438917422004" lon="11.48867350817296"><ele>567.8571428571429</ele><time>2026-04-06T09:29:31Z</time></trkpt><trkpt lat="43.05446224473829" lon="11.488688289861678"><ele>567.2857142857142</ele><time>2026-04-06T09:29:32Z</time></trkpt><trkpt lat="43.054533855048334" lon="11.488715324402703"><ele>566.7142857142858</ele><time>2026-04-06T09:29:33Z</time></trkpt><trkpt lat="43.054600497805694" lon="11.48874538930935"><ele>566.1428571428571</ele><time>2026-04-06T09:29:34Z</time></trkpt><trkpt lat="43.05466394315682" lon="11.488774237382689"><ele>565.5714285714286</ele><time>2026-04-06T09:29:35Z</time></trkpt><trkpt lat="43.054729666965585" lon="11.488807218030528"><ele>565.0</ele><time>2026-04-06T09:29:36Z</time></trkpt><trkpt lat="43.05481204915814" lon="11.488863476052613"><ele>563.3333333333334</ele><time>2026-04-06T09:29:38Z</time></trkpt><trkpt lat="43.05486733101925" lon="11.488914110743602"><ele>561.6666666666667</ele><time>2026-04-06T09:29:40.999Z</time></trkpt><trkpt lat="43.054948896310385" lon="11.488990720329038"><ele>560.0</ele><time>2026-04-06T09:29:46.999Z</time></trkpt><trkpt lat="43.05498159293946" lon="11.489065356187869"><ele>558.3333333333334</ele><time>2026-04-06T09:29:48.999Z</time></trkpt><trkpt lat="43.05503943837671" lon="11.48911119274994"><ele>556.6666666666666</ele><time>2026-04-06T09:29:53.999Z</time></trkpt><trkpt lat="43.05499854338643" lon="11.489233784306215"><ele>555.0</ele><time>2026-04-06T09:29:54.999Z</time></trkpt><trkpt lat="43.05490828826489" lon="11.489313637319611"><ele>555.0</ele><time>2026-04-06T09:29:56.999Z</time></trkpt><trkpt lat="43.054829040110256" lon="11.489298529396478"><ele>555.0</ele><time>2026-04-06T09:29:57.999Z</time></trkpt><trkpt lat="43.05474868964921" lon="11.489308831957796"><ele>555.0</ele><time>2026-04-06T09:29:58.999Z</time></trkpt><trkpt lat="43.05466030971745" lon="11.489304036883594"><ele>555.0</ele><time>2026-04-06T09:29:59.999Z</time></trkpt><trkpt lat="43.05454684502049" lon="11.489319675314276"><ele>555.0</ele><time>2026-04-06T09:30:00.999Z</time></trkpt><trkpt lat="43.05444007203577" lon="11.48930932584003"><ele>555.0</ele><time>2026-04-06T09:30:01.999Z</time></trkpt><trkpt lat="43.05434581262229" lon="11.48931623362466"><ele>555.0</ele><time>2026-04-06T09:30:02.999Z</time></trkpt><trkpt lat="43.05425553539199" lon="11.489347667255807"><ele>555.0</ele><time>2026-04-06T09:30:03.999Z</time></trkpt><trkpt lat="43.05413733457898" lon="11.48917798022905"><ele>555.0</ele><time>2026-04-06T09:30:04.999Z</time></trkpt><trkpt lat="43.05402559898619" lon="11.489211701488822"><ele>557.5</ele><time>2026-04-06T09:30:05.999Z</time></trkpt><trkpt lat="43.053884617981694" lon="11.489313812726873"><ele>560.0</ele><time>2026-04-06T09:30:06.999Z</time></trkpt><trkpt lat="43.053797832120814" lon="11.489431734089951"><ele>562.5</ele><time>2026-04-06T09:30:07.999Z</time></trkpt><trkpt lat="43.053719338545704" lon="11.48957950411612"><ele>565.0</ele><time>2026-04-06T09:30:08.999Z</time></trkpt><trkpt lat="43.05370992786014" lon="11.489732046784574"><ele>565.0</ele><time>2026-04-06T09:30:09.999Z</time></trkpt><trkpt lat="43.05376262431091" lon="11.489875001425752"><ele>565.0</ele><time>2026-04-06T09:30:10.999Z</time></trkpt><trkpt lat="43.0537439237524" lon="11.490007505612285"><ele>565.0</ele><time>2026-04-06T09:30:11.999Z</time></trkpt><trkpt lat="43.05375072042845" lon="11.490128380258014"><ele>565.0</ele><time>2026-04-06T09:30:12.999Z</time></trkpt><trkpt lat="43.05374572504371" lon="11.490241931668075"><ele>565.0</ele><time>2026-04-06T09:30:13.999Z</time></trkpt><trkpt lat="43.0537343037928" lon="11.490337674531204"><ele>564.6</ele><time>2026-04-06T09:30:14.999Z</time></trkpt><trkpt lat="43.05373058934082" lon="11.490494541261514"><ele>564.2</ele><time>2026-04-06T09:30:15.999Z</time></trkpt><trkpt lat="43.05374505062367" lon="11.490584778946232"><ele>563.8</ele><time>2026-04-06T09:30:16.999Z</time></trkpt><trkpt lat="43.05372631599517" lon="11.490673044643641"><ele>563.4</ele><time>2026-04-06T09:30:17.999Z</time></trkpt><trkpt lat="43.05372188251454" lon="11.490840578250406"><ele>563.0</ele><time>2026-04-06T09:30:19.999Z</time></trkpt><trkpt lat="43.05372811332134" lon="11.49095204467518"><ele>563.0</ele><time>2026-04-06T09:30:20.999Z</time></trkpt><trkpt lat="43.05371358307646" lon="11.491043746763442"><ele>563.0</ele><time>2026-04-06T09:30:21.999Z</time></trkpt><trkpt lat="43.05369971033657" lon="11.491210230486448"><ele>563.0</ele><time>2026-04-06T09:30:22.999Z</time></trkpt><trkpt lat="43.053714562397545" lon="11.491430429462794"><ele>563.0</ele><time>2026-04-06T09:30:24.999Z</time></trkpt><trkpt lat="43.053704531233485" lon="11.491550598498343"><ele>563.0</ele><time>2026-04-06T09:30:25.999Z</time></trkpt><trkpt lat="43.053699576905984" lon="11.491679929421187"><ele>559.75</ele><time>2026-04-06T09:30:26.999Z</time></trkpt><trkpt lat="43.053657257973505" lon="11.491842465821271"><ele>556.5</ele><time>2026-04-06T09:30:27.999Z</time></trkpt><trkpt lat="43.053653898382706" lon="11.491934085513815"><ele>553.25</ele><time>2026-04-06T09:30:29.999Z</time></trkpt><trkpt lat="43.05386007223814" lon="11.492104151903595"><ele>550.0</ele><time>2026-04-06T09:30:30.999Z</time></trkpt><trkpt lat="43.05388192070466" lon="11.492239989420256"><ele>546.5</ele><time>2026-04-06T09:30:32.999Z</time></trkpt><trkpt lat="43.05390256510224" lon="11.492353070978362"><ele>543.0</ele><time>2026-04-06T09:30:34.998Z</time></trkpt><trkpt lat="43.05396824263515" lon="11.492377188631385"><ele>539.5</ele><time>2026-04-06T09:30:37.998Z</time></trkpt><trkpt lat="43.05399822074181" lon="11.492480465592976"><ele>536.0</ele><time>2026-04-06T09:30:38.998Z</time></trkpt><trkpt lat="43.05406380903175" lon="11.492576043382037"><ele>532.5</ele><time>2026-04-06T09:30:39.998Z</time></trkpt><trkpt lat="43.054069916337916" lon="11.492672775876603"><ele>529.0</ele><time>2026-04-06T09:30:40.998Z</time></trkpt><trkpt lat="43.05402509143998" lon="11.492459713299906"><ele>529.0</ele><time>2026-04-06T09:30:42.998Z</time></trkpt><trkpt lat="43.05402681158834" lon="11.492265724416175"><ele>529.0</ele><time>2026-04-06T09:30:43.998Z</time></trkpt><trkpt lat="43.05407720002637" lon="11.492121689835416"><ele>529.0</ele><time>2026-04-06T09:30:44.998Z</time></trkpt><trkpt lat="43.05411204814221" lon="11.492008025616762"><ele>529.0</ele><time>2026-04-06T09:30:45.998Z</time></trkpt><trkpt lat="43.054099438045135" lon="11.491910725598867"><ele>529.0</ele><time>2026-04-06T09:30:46.998Z</time></trkpt><trkpt lat="43.054070122146804" lon="11.491785752834899"><ele>530.75</ele><time>2026-04-06T09:30:47.998Z</time></trkpt><trkpt lat="43.05409756819199" lon="11.49164639599214"><ele>532.5</ele><time>2026-04-06T09:30:48.998Z</time></trkpt><trkpt lat="43.05410955011298" lon="11.491438520188865"><ele>534.25</ele><time>2026-04-06T09:30:50.998Z</time></trkpt><trkpt lat="43.05426406094269" lon="11.49130228420087"><ele>536.0</ele><time>2026-04-06T09:30:51.998Z</time></trkpt><trkpt lat="43.05415186811869" lon="11.491233765315405"><ele>538.3333333333333</ele><time>2026-04-06T09:30:52.998Z</time></trkpt><trkpt lat="43.05410697749208" lon="11.491146041022398"><ele>540.6666666666666</ele><time>2026-04-06T09:30:53.998Z</time></trkpt><trkpt lat="43.0540709843272" lon="11.491071244931147"><ele>543.0</ele><time>2026-04-06T09:30:55.998Z</time></trkpt><trkpt lat="43.054014542325206" lon="11.491135069904155"><ele>545.3333333333334</ele><time>2026-04-06T09:30:56.998Z</time></trkpt><trkpt lat="43.054032059130925" lon="11.491218371816029"><ele>547.6666666666667</ele><time>2026-04-06T09:30:57.998Z</time></trkpt><trkpt lat="43.054042447181686" lon="11.491345263787927"><ele>550.0</ele><time>2026-04-06T09:30:58.998Z</time></trkpt><trkpt lat="43.05405585916696" lon="11.491476668414201"><ele>550.0</ele><time>2026-04-06T09:30:59.998Z</time></trkpt><trkpt lat="43.054118803460995" lon="11.49161133974521"><ele>550.0</ele><time>2026-04-06T09:31:01Z</time></trkpt><trkpt lat="43.05413991228617" lon="11.491769904419105"><ele>550.0</ele><time>2026-04-06T09:31:02Z</time></trkpt><trkpt lat="43.05424103824522" lon="11.49189575064483"><ele>550.0</ele><time>2026-04-06T09:31:03Z</time></trkpt><trkpt lat="43.05433053626949" lon="11.492031163665239"><ele>543.5</ele><time>2026-04-06T09:31:04Z</time></trkpt><trkpt lat="43.054391648418644" lon="11.492185614294192"><ele>537.0</ele><time>2026-04-06T09:31:05Z</time></trkpt><trkpt lat="43.054436733070176" lon="11.492349248707233"><ele>530.5</ele><time>2026-04-06T09:31:06Z</time></trkpt><trkpt lat="43.05447178944728" lon="11.492515487921283"><ele>524.0</ele><time>2026-04-06T09:31:07Z</time></trkpt><trkpt lat="43.0544488368711" lon="11.492679768674"><ele>524.0</ele><time>2026-04-06T09:31:08Z</time></trkpt><trkpt lat="43.05444249838865" lon="11.492856568233163"><ele>524.0</ele><time>2026-04-06T09:31:09Z</time></trkpt><trkpt lat="43.05442004983371" lon="11.493012471984986"><ele>524.0</ele><time>2026-04-06T09:31:10Z</time></trkpt><trkpt lat="43.05436120232143" lon="11.493149495671629"><ele>524.0</ele><time>2026-04-06T09:31:11Z</time></trkpt><trkpt lat="43.05433293518623" lon="11.493262388175111"><ele>524.0</ele><time>2026-04-06T09:31:12Z</time></trkpt><trkpt lat="43.05425514815768" lon="11.493380769041808"><ele>521.5</ele><time>2026-04-06T09:31:13Z</time></trkpt><trkpt lat="43.054156167943674" lon="11.493477333514624"><ele>519.0</ele><time>2026-04-06T09:31:14Z</time></trkpt><trkpt lat="43.054043165261504" lon="11.493555398063842"><ele>516.5</ele><time>2026-04-06T09:31:15Z</time></trkpt><trkpt lat="43.05391573871838" lon="11.493582612003582"><ele>514.0</ele><time>2026-04-06T09:31:16Z</time></trkpt><trkpt lat="43.053811132851706" lon="11.493687174946924"><ele>512.5</ele><time>2026-04-06T09:31:17Z</time></trkpt><trkpt lat="43.0537046216854" lon="11.493815300104536"><ele>511.0</ele><time>2026-04-06T09:31:18Z</time></trkpt><trkpt lat="43.05361212043348" lon="11.493973741549693"><ele>509.5</ele><time>2026-04-06T09:31:19Z</time></trkpt><trkpt lat="43.053539192104644" lon="11.494137392811574"><ele>508.0</ele><time>2026-04-06T09:31:20Z</time></trkpt><trkpt lat="43.05349378725779" lon="11.494304541199673"><ele>508.0</ele><time>2026-04-06T09:31:21Z</time></trkpt><trkpt lat="43.05348165390671" lon="11.494489917014931"><ele>508.0</ele><time>2026-04-06T09:31:22Z</time></trkpt><trkpt lat="43.05348678337869" lon="11.49467541635282"><ele>508.0</ele><time>2026-04-06T09:31:23Z</time></trkpt><trkpt lat="43.053492088900356" lon="11.494841838025428"><ele>508.0</ele><time>2026-04-06T09:31:24Z</time></trkpt><trkpt lat="43.05357965556597" lon="11.495009138414025"><ele>507.25</ele><time>2026-04-06T09:31:25Z</time></trkpt><trkpt lat="43.053580879170056" lon="11.495179762448455"><ele>506.5</ele><time>2026-04-06T09:31:26Z</time></trkpt><trkpt lat="43.05359636003224" lon="11.495340639791841"><ele>505.75</ele><time>2026-04-06T09:31:27Z</time></trkpt><trkpt lat="43.05357157199783" lon="11.49552137996317"><ele>505.0</ele><time>2026-04-06T09:31:28Z</time></trkpt><trkpt lat="43.05354913591593" lon="11.495703452061374"><ele>504.75</ele><time>2026-04-06T09:31:29Z</time></trkpt><trkpt lat="43.05352793483947" lon="11.49586881283262"><ele>504.5</ele><time>2026-04-06T09:31:30Z</time></trkpt><trkpt lat="43.05351449532992" lon="11.496046433516302"><ele>504.25</ele><time>2026-04-06T09:31:31Z</time></trkpt><trkpt lat="43.0534984035418" lon="11.496215911605288"><ele>504.0</ele><time>2026-04-06T09:31:32Z</time></trkpt><trkpt lat="43.05347773156944" lon="11.496389559866232"><ele>502.75</ele><time>2026-04-06T09:31:33Z</time></trkpt><trkpt lat="43.05346281656311" lon="11.496564077609538"><ele>501.5</ele><time>2026-04-06T09:31:34Z</time></trkpt><trkpt lat="43.05344068155353" lon="11.496753190880915"><ele>500.25</ele><time>2026-04-06T09:31:35Z</time></trkpt><trkpt lat="43.05341243957529" lon="11.49694691272972"><ele>499.0</ele><time>2026-04-06T09:31:36Z</time></trkpt><trkpt lat="43.053373212391975" lon="11.497136237393374"><ele>498.25</ele><time>2026-04-06T09:31:37Z</time></trkpt><trkpt lat="43.05331650584937" lon="11.497331119684876"><ele>497.5</ele><time>2026-04-06T09:31:38Z</time></trkpt><trkpt lat="43.05325582631252" lon="11.497500811964755"><ele>496.75</ele><time>2026-04-06T09:31:39Z</time></trkpt><trkpt lat="43.05319103727985" lon="11.49766313327799"><ele>496.0</ele><time>2026-04-06T09:31:40Z</time></trkpt><trkpt lat="43.0531265578078" lon="11.497806332078532"><ele>497.0</ele><time>2026-04-06T09:31:41Z</time></trkpt><trkpt lat="43.05305143433741" lon="11.497968366228422"><ele>498.0</ele><time>2026-04-06T09:31:42Z</time></trkpt><trkpt lat="43.05296894085833" lon="11.498151065732458"><ele>499.0</ele><time>2026-04-06T09:31:43Z</time></trkpt><trkpt lat="43.05289303529969" lon="11.498321671515463"><ele>500.0</ele><time>2026-04-06T09:31:44Z</time></trkpt><trkpt lat="43.05281980854307" lon="11.498488691136515"><ele>500.0</ele><time>2026-04-06T09:31:45Z</time></trkpt><trkpt lat="43.05275934831807" lon="11.498662447963408"><ele>500.0</ele><time>2026-04-06T09:31:46Z</time></trkpt><trkpt lat="43.05268489943537" lon="11.498815023651865"><ele>500.0</ele><time>2026-04-06T09:31:46.999Z</time></trkpt><trkpt lat="43.05263094656317" lon="11.498987033084962"><ele>500.0</ele><time>2026-04-06T09:31:47.999Z</time></trkpt><trkpt lat="43.05254655308434" lon="11.4991432234093"><ele>498.25</ele><time>2026-04-06T09:31:48.999Z</time></trkpt><trkpt lat="43.052481386695355" lon="11.499297480439981"><ele>496.5</ele><time>2026-04-06T09:31:49.999Z</time></trkpt><trkpt lat="43.052416909011086" lon="11.499453200705915"><ele>494.75</ele><time>2026-04-06T09:31:50.999Z</time></trkpt><trkpt lat="43.052347051154264" lon="11.499609991019193"><ele>493.0</ele><time>2026-04-06T09:31:51.999Z</time></trkpt><trkpt lat="43.05227437020609" lon="11.499768668809871"><ele>489.5</ele><time>2026-04-06T09:31:52.999Z</time></trkpt><trkpt lat="43.052195797308976" lon="11.49993001762944"><ele>486.0</ele><time>2026-04-06T09:31:53.999Z</time></trkpt><trkpt lat="43.052130820673995" lon="11.500089530086253"><ele>482.5</ele><time>2026-04-06T09:31:54.999Z</time></trkpt><trkpt lat="43.052071726082886" lon="11.500238281091432"><ele>479.0</ele><time>2026-04-06T09:31:55.999Z</time></trkpt><trkpt lat="43.05199868382184" lon="11.5003798426464"><ele>477.75</ele><time>2026-04-06T09:31:56.999Z</time></trkpt><trkpt lat="43.051938013478136" lon="11.500526827738186"><ele>476.5</ele><time>2026-04-06T09:31:57.999Z</time></trkpt><trkpt lat="43.05188412961247" lon="11.500680369973104"><ele>475.25</ele><time>2026-04-06T09:31:58.999Z</time></trkpt><trkpt lat="43.05185956920084" lon="11.500839826012822"><ele>474.0</ele><time>2026-04-06T09:31:59.999Z</time></trkpt><trkpt lat="43.0518613995199" lon="11.501000983566014"><ele>474.0</ele><time>2026-04-06T09:32:00.999Z</time></trkpt><trkpt lat="43.05185781317979" lon="11.501168816341568"><ele>474.0</ele><time>2026-04-06T09:32:01.999Z</time></trkpt><trkpt lat="43.05185959074436" lon="11.501309867247137"><ele>474.0</ele><time>2026-04-06T09:32:02.999Z</time></trkpt><trkpt lat="43.051862438215124" lon="11.501441743570078"><ele>474.0</ele><time>2026-04-06T09:32:03.999Z</time></trkpt><trkpt lat="43.05186849439684" lon="11.501565823935595"><ele>474.0</ele><time>2026-04-06T09:32:04.999Z</time></trkpt><trkpt lat="43.051873965684706" lon="11.501701759547824"><ele>473.0</ele><time>2026-04-06T09:32:05.999Z</time></trkpt><trkpt lat="43.05187366665768" lon="11.50181970029124"><ele>472.0</ele><time>2026-04-06T09:32:06.999Z</time></trkpt><trkpt lat="43.051865809640624" lon="11.501954516588397"><ele>471.0</ele><time>2026-04-06T09:32:07.999Z</time></trkpt><trkpt lat="43.051852416853016" lon="11.502071303531057"><ele>470.0</ele><time>2026-04-06T09:32:08.999Z</time></trkpt><trkpt lat="43.05183262083908" lon="11.50218283985335"><ele>469.0</ele><time>2026-04-06T09:32:09.999Z</time></trkpt><trkpt lat="43.05179977506641" lon="11.502304406949229"><ele>468.50000000000006</ele><time>2026-04-06T09:32:10.999Z</time></trkpt><trkpt lat="43.051757326596" lon="11.502414258007436"><ele>468.0</ele><time>2026-04-06T09:32:11.999Z</time></trkpt><trkpt lat="43.05174898947805" lon="11.50253206284279"><ele>467.5</ele><time>2026-04-06T09:32:12.999Z</time></trkpt><trkpt lat="43.051735028756305" lon="11.502638462526654"><ele>467.0</ele><time>2026-04-06T09:32:13.999Z</time></trkpt><trkpt lat="43.05172329175849" lon="11.50275767667734"><ele>466.50000000000006</ele><time>2026-04-06T09:32:14.999Z</time></trkpt><trkpt lat="43.0517215501123" lon="11.502863741521152"><ele>466.0</ele><time>2026-04-06T09:32:15.999Z</time></trkpt><trkpt lat="43.051713917218336" lon="11.502965999627017"><ele>465.6666666666667</ele><time>2026-04-06T09:32:16.999Z</time></trkpt><trkpt lat="43.05171497338685" lon="11.503068366388852"><ele>465.33333333333337</ele><time>2026-04-06T09:32:17.999Z</time></trkpt><trkpt lat="43.05172691785816" lon="11.503181377380022"><ele>465.0</ele><time>2026-04-06T09:32:18.999Z</time></trkpt><trkpt lat="43.051749449421514" lon="11.503294479512833"><ele>464.66666666666663</ele><time>2026-04-06T09:32:19.999Z</time></trkpt><trkpt lat="43.051769300235954" lon="11.503399009108934"><ele>464.3333333333333</ele><time>2026-04-06T09:32:20.999Z</time></trkpt><trkpt lat="43.05178179880129" lon="11.503489309094135"><ele>464.0</ele><time>2026-04-06T09:32:21.999Z</time></trkpt><trkpt lat="43.05182518683299" lon="11.50359337784761"><ele>463.99999999999994</ele><time>2026-04-06T09:32:22.999Z</time></trkpt><trkpt lat="43.05187128035082" lon="11.503692320145465"><ele>464.0</ele><time>2026-04-06T09:32:23.999Z</time></trkpt><trkpt lat="43.05190777580264" lon="11.503791567245653"><ele>464.0</ele><time>2026-04-06T09:32:24.999Z</time></trkpt><trkpt lat="43.05195843156057" lon="11.503846460516586"><ele>464.0</ele><time>2026-04-06T09:32:25.999Z</time></trkpt><trkpt lat="43.052000066079295" lon="11.503940002990568"><ele>463.99999999999994</ele><time>2026-04-06T09:32:26.999Z</time></trkpt><trkpt lat="43.0520387862493" lon="11.504019744683195"><ele>464.0</ele><time>2026-04-06T09:32:27.999Z</time></trkpt><trkpt lat="43.05210524498986" lon="11.504177270026508"><ele>462.4</ele><time>2026-04-06T09:32:29.999Z</time></trkpt><trkpt lat="43.05213513583148" lon="11.504277694607044"><ele>460.79999999999995</ele><time>2026-04-06T09:32:31.999Z</time></trkpt><trkpt lat="43.05219183349405" lon="11.504436737475702"><ele>459.20000000000005</ele><time>2026-04-06T09:32:33.999Z</time></trkpt><trkpt lat="43.052247645885345" lon="11.50459280666885"><ele>457.6</ele><time>2026-04-06T09:32:35.999Z</time></trkpt><trkpt lat="43.052269227219014" lon="11.504728491661472"><ele>456.0</ele><time>2026-04-06T09:32:36.999Z</time></trkpt><trkpt lat="43.05225280102276" lon="11.504874491356572"><ele>456.0</ele><time>2026-04-06T09:32:37.999Z</time></trkpt><trkpt lat="43.052278167756064" lon="11.505019961689493"><ele>456.0</ele><time>2026-04-06T09:32:39.999Z</time></trkpt><trkpt lat="43.05227035142688" lon="11.505132626067407"><ele>456.0</ele><time>2026-04-06T09:32:40.999Z</time></trkpt><trkpt lat="43.05221927176173" lon="11.505229713059098"><ele>456.0</ele><time>2026-04-06T09:32:42.998Z</time></trkpt><trkpt lat="43.05222263796573" lon="11.505320538289114"><ele>456.0</ele><time>2026-04-06T09:32:44.998Z</time></trkpt><trkpt lat="43.052534208903225" lon="11.505425008474283"><ele>456.0</ele><time>2026-04-06T09:32:46.998Z</time></trkpt><trkpt lat="43.052699271893566" lon="11.505466484920552"><ele>456.0</ele><time>2026-04-06T09:32:49.998Z</time></trkpt><trkpt lat="43.05280338134106" lon="11.50551873934053"><ele>456.0</ele><time>2026-04-06T09:32:50.998Z</time></trkpt><trkpt lat="43.0529071315492" lon="11.505583376476714"><ele>456.0</ele><time>2026-04-06T09:32:51.998Z</time></trkpt><trkpt lat="43.05300560726008" lon="11.505639724353992"><ele>456.0</ele><time>2026-04-06T09:32:52.998Z</time></trkpt><trkpt lat="43.05308747584364" lon="11.505707347069054"><ele>456.0</ele><time>2026-04-06T09:32:53.998Z</time></trkpt><trkpt lat="43.0531758559752" lon="11.505812782067125"><ele>456.0</ele><time>2026-04-06T09:32:54.998Z</time></trkpt><trkpt lat="43.05320733727052" lon="11.506002977338325"><ele>456.0</ele><time>2026-04-06T09:32:55.998Z</time></trkpt><trkpt lat="43.05324202590702" lon="11.506168326031867"><ele>455.4</ele><time>2026-04-06T09:32:56.998Z</time></trkpt><trkpt lat="43.05320497766827" lon="11.50632147149493"><ele>454.8</ele><time>2026-04-06T09:32:57.998Z</time></trkpt><trkpt lat="43.05319047404141" lon="11.50643578237957"><ele>454.19999999999993</ele><time>2026-04-06T09:32:58.998Z</time></trkpt><trkpt lat="43.05317862800796" lon="11.506537412416275"><ele>453.59999999999997</ele><time>2026-04-06T09:32:59.998Z</time></trkpt><trkpt lat="43.05315617005919" lon="11.506730084633462"><ele>453.0</ele><time>2026-04-06T09:33:00.998Z</time></trkpt><trkpt lat="43.05312967162015" lon="11.50695742120591"><ele>450.33333333333337</ele><time>2026-04-06T09:33:01.998Z</time></trkpt><trkpt lat="43.05310319479337" lon="11.507175352741202"><ele>447.6666666666667</ele><time>2026-04-06T09:33:02.998Z</time></trkpt><trkpt lat="43.053076294644086" lon="11.507398790925476"><ele>445.0</ele><time>2026-04-06T09:33:03.998Z</time></trkpt><trkpt lat="43.053050135863195" lon="11.507624640172283"><ele>445.0</ele><time>2026-04-06T09:33:04.998Z</time></trkpt><trkpt lat="43.05302666155552" lon="11.50783367140475"><ele>445.0</ele><time>2026-04-06T09:33:06Z</time></trkpt><trkpt lat="43.05300304006059" lon="11.50804310010598"><ele>445.0</ele><time>2026-04-06T09:33:07Z</time></trkpt><trkpt lat="43.05297727274282" lon="11.508259238480488"><ele>442.0</ele><time>2026-04-06T09:33:08Z</time></trkpt><trkpt lat="43.052971165598564" lon="11.508467599658443"><ele>439.0</ele><time>2026-04-06T09:33:09Z</time></trkpt><trkpt lat="43.05296368586094" lon="11.508685767917413"><ele>436.0</ele><time>2026-04-06T09:33:10Z</time></trkpt><trkpt lat="43.052981312401954" lon="11.508890971006645"><ele>433.33333333333337</ele><time>2026-04-06T09:33:11Z</time></trkpt><trkpt lat="43.05301820990543" lon="11.509116542894601"><ele>430.66666666666663</ele><time>2026-04-06T09:33:12Z</time></trkpt><trkpt lat="43.05305664914099" lon="11.50933080290478"><ele>428.0</ele><time>2026-04-06T09:33:13Z</time></trkpt><trkpt lat="43.05310676676126" lon="11.509558804802344"><ele>427.0</ele><time>2026-04-06T09:33:14Z</time></trkpt><trkpt lat="43.05316239954087" lon="11.509776732126857"><ele>426.0</ele><time>2026-04-06T09:33:15Z</time></trkpt><trkpt lat="43.05322599891527" lon="11.509979120594839"><ele>425.0</ele><time>2026-04-06T09:33:16Z</time></trkpt><trkpt lat="43.05331630907481" lon="11.510168925700128"><ele>425.0</ele><time>2026-04-06T09:33:17Z</time></trkpt><trkpt lat="43.05343179552013" lon="11.510329895497605"><ele>425.0</ele><time>2026-04-06T09:33:18Z</time></trkpt><trkpt lat="43.05356600012152" lon="11.510461770412517"><ele>425.0</ele><time>2026-04-06T09:33:19Z</time></trkpt><trkpt lat="43.053708499236954" lon="11.510578541472702"><ele>422.66666666666663</ele><time>2026-04-06T09:33:20Z</time></trkpt><trkpt lat="43.0538590298966" lon="11.51066874555695"><ele>420.33333333333337</ele><time>2026-04-06T09:33:21Z</time></trkpt><trkpt lat="43.054012998798214" lon="11.510711852376897"><ele>418.0</ele><time>2026-04-06T09:33:22Z</time></trkpt><trkpt lat="43.05417114314493" lon="11.510719293950203"><ele>417.5</ele><time>2026-04-06T09:33:23Z</time></trkpt><trkpt lat="43.05432542213813" lon="11.510665125315013"><ele>417.0</ele><time>2026-04-06T09:33:24Z</time></trkpt><trkpt lat="43.05446438895332" lon="11.510595278051193"><ele>416.5</ele><time>2026-04-06T09:33:25Z</time></trkpt><trkpt lat="43.054586709888234" lon="11.510498045546301"><ele>416.0</ele><time>2026-04-06T09:33:26Z</time></trkpt><trkpt lat="43.05472335219664" lon="11.510362467560114"><ele>413.66666666666663</ele><time>2026-04-06T09:33:27Z</time></trkpt><trkpt lat="43.05485209222274" lon="11.510198426156217"><ele>411.33333333333337</ele><time>2026-04-06T09:33:28Z</time></trkpt><trkpt lat="43.054949068569854" lon="11.510037148524866"><ele>409.0</ele><time>2026-04-06T09:33:29Z</time></trkpt><trkpt lat="43.055036269955245" lon="11.509860760867854"><ele>409.0</ele><time>2026-04-06T09:33:30Z</time></trkpt><trkpt lat="43.055095678367955" lon="11.509687101405028"><ele>409.0</ele><time>2026-04-06T09:33:31Z</time></trkpt><trkpt lat="43.05516735519163" lon="11.509471307298863"><ele>409.0</ele><time>2026-04-06T09:33:32Z</time></trkpt><trkpt lat="43.05524919883345" lon="11.509245026984642"><ele>410.6666666666667</ele><time>2026-04-06T09:33:33Z</time></trkpt><trkpt lat="43.05536394920586" lon="11.509040015184963"><ele>412.33333333333337</ele><time>2026-04-06T09:33:34Z</time></trkpt><trkpt lat="43.05548427283716" lon="11.508868555685813"><ele>414.0</ele><time>2026-04-06T09:33:35Z</time></trkpt><trkpt lat="43.0555846238614" lon="11.508745852349556"><ele>414.25</ele><time>2026-04-06T09:33:36Z</time></trkpt><trkpt lat="43.05568543495647" lon="11.508623979611707"><ele>414.5</ele><time>2026-04-06T09:33:37Z</time></trkpt><trkpt lat="43.055785383763" lon="11.508508484079776"><ele>414.75</ele><time>2026-04-06T09:33:38Z</time></trkpt><trkpt lat="43.05587031715128" lon="11.50836705211575"><ele>415.0</ele><time>2026-04-06T09:33:39Z</time></trkpt><trkpt lat="43.05592268484471" lon="11.508197862107808"><ele>411.6</ele><time>2026-04-06T09:33:40Z</time></trkpt><trkpt lat="43.055949810835735" lon="11.508021883260064"><ele>408.2</ele><time>2026-04-06T09:33:41Z</time></trkpt><trkpt lat="43.05598745588944" lon="11.50790515725136"><ele>404.79999999999995</ele><time>2026-04-06T09:33:42Z</time></trkpt><trkpt lat="43.05600010246759" lon="11.507764557158605"><ele>401.4</ele><time>2026-04-06T09:33:43Z</time></trkpt><trkpt lat="43.05599029071124" lon="11.507605887919578"><ele>398.0</ele><time>2026-04-06T09:33:44Z</time></trkpt><trkpt lat="43.05594155125545" lon="11.507445663166298"><ele>397.5</ele><time>2026-04-06T09:33:45Z</time></trkpt><trkpt lat="43.05592240322664" lon="11.507297723706575"><ele>397.0</ele><time>2026-04-06T09:33:46Z</time></trkpt><trkpt lat="43.05590542363283" lon="11.507139509319634"><ele>396.5</ele><time>2026-04-06T09:33:47Z</time></trkpt><trkpt lat="43.05584947311153" lon="11.506996433474525"><ele>396.0</ele><time>2026-04-06T09:33:48Z</time></trkpt><trkpt lat="43.05577339618487" lon="11.506867543437325"><ele>397.5</ele><time>2026-04-06T09:33:49Z</time></trkpt><trkpt lat="43.05570315230153" lon="11.506750026088287"><ele>399.0</ele><time>2026-04-06T09:33:50Z</time></trkpt><trkpt lat="43.05562989945703" lon="11.506631631208649"><ele>400.5</ele><time>2026-04-06T09:33:51Z</time></trkpt><trkpt lat="43.05556817534982" lon="11.50650412374802"><ele>402.0</ele><time>2026-04-06T09:33:52Z</time></trkpt><trkpt lat="43.05550121633329" lon="11.50637161257168"><ele>402.5</ele><time>2026-04-06T09:33:53Z</time></trkpt><trkpt lat="43.055480537568364" lon="11.506204954163215"><ele>403.0</ele><time>2026-04-06T09:33:53.999Z</time></trkpt><trkpt lat="43.05548846675988" lon="11.50603332194098"><ele>403.5</ele><time>2026-04-06T09:33:54.999Z</time></trkpt><trkpt lat="43.05552962356726" lon="11.505846250637248"><ele>404.0</ele><time>2026-04-06T09:33:55.999Z</time></trkpt><trkpt lat="43.05558333335952" lon="11.505656593779245"><ele>404.0</ele><time>2026-04-06T09:33:56.999Z</time></trkpt><trkpt lat="43.05564139844221" lon="11.50547290002664"><ele>404.0</ele><time>2026-04-06T09:33:57.999Z</time></trkpt><trkpt lat="43.055700337700124" lon="11.505290122539527"><ele>404.0</ele><time>2026-04-06T09:33:58.999Z</time></trkpt><trkpt lat="43.05576057172383" lon="11.505119421164082"><ele>404.0</ele><time>2026-04-06T09:33:59.999Z</time></trkpt><trkpt lat="43.05582115662999" lon="11.504954046803984"><ele>400.5</ele><time>2026-04-06T09:34:00.999Z</time></trkpt><trkpt lat="43.05589178210088" lon="11.504801725801409"><ele>397.0</ele><time>2026-04-06T09:34:01.999Z</time></trkpt><trkpt lat="43.05595714241142" lon="11.504646378683734"><ele>393.5</ele><time>2026-04-06T09:34:02.999Z</time></trkpt><trkpt lat="43.05603452934745" lon="11.504504765512964"><ele>390.0</ele><time>2026-04-06T09:34:03.999Z</time></trkpt><trkpt lat="43.05610410803233" lon="11.504358873208558"><ele>390.0</ele><time>2026-04-06T09:34:04.999Z</time></trkpt><trkpt lat="43.05620277775188" lon="11.504229854002455"><ele>390.0</ele><time>2026-04-06T09:34:05.999Z</time></trkpt><trkpt lat="43.056289287058966" lon="11.504085401490057"><ele>390.0</ele><time>2026-04-06T09:34:06.999Z</time></trkpt><trkpt lat="43.05640824310485" lon="11.503979238025062"><ele>390.0</ele><time>2026-04-06T09:34:07.999Z</time></trkpt><trkpt lat="43.0565517345869" lon="11.503889908771605"><ele>388.0</ele><time>2026-04-06T09:34:08.999Z</time></trkpt><trkpt lat="43.05669280191749" lon="11.50380474215539"><ele>386.0</ele><time>2026-04-06T09:34:09.999Z</time></trkpt><trkpt lat="43.05682909188343" lon="11.503717895779253"><ele>384.0</ele><time>2026-04-06T09:34:10.999Z</time></trkpt><trkpt lat="43.05697438243906" lon="11.503627093005642"><ele>384.0</ele><time>2026-04-06T09:34:11.999Z</time></trkpt><trkpt lat="43.05711467153125" lon="11.50354718571899"><ele>384.0</ele><time>2026-04-06T09:34:12.999Z</time></trkpt><trkpt lat="43.057260460193504" lon="11.503491948267442"><ele>384.0</ele><time>2026-04-06T09:34:13.999Z</time></trkpt><trkpt lat="43.05740319787887" lon="11.503451028890229"><ele>384.0</ele><time>2026-04-06T09:34:14.999Z</time></trkpt><trkpt lat="43.057535529449716" lon="11.503385871471762"><ele>382.2</ele><time>2026-04-06T09:34:15.999Z</time></trkpt><trkpt lat="43.05764722145823" lon="11.503298777595617"><ele>380.4</ele><time>2026-04-06T09:34:16.999Z</time></trkpt><trkpt lat="43.05773571435959" lon="11.503190777544877"><ele>378.6</ele><time>2026-04-06T09:34:17.999Z</time></trkpt><trkpt lat="43.05779384817814" lon="11.503077398780688"><ele>376.8</ele><time>2026-04-06T09:34:18.999Z</time></trkpt><trkpt lat="43.05784084504884" lon="11.502968383943731"><ele>375.0</ele><time>2026-04-06T09:34:19.999Z</time></trkpt><trkpt lat="43.057836922201766" lon="11.502825174678664"><ele>375.0</ele><time>2026-04-06T09:34:20.999Z</time></trkpt><trkpt lat="43.05782697556368" lon="11.502700768032906"><ele>375.0</ele><time>2026-04-06T09:34:21.999Z</time></trkpt><trkpt lat="43.057831529984455" lon="11.502528642819394"><ele>375.0</ele><time>2026-04-06T09:34:22.999Z</time></trkpt><trkpt lat="43.057888565348215" lon="11.502322627169823"><ele>375.0</ele><time>2026-04-06T09:34:23.999Z</time></trkpt><trkpt lat="43.05799370791497" lon="11.502182709281646"><ele>375.0</ele><time>2026-04-06T09:34:24.999Z</time></trkpt><trkpt lat="43.05814577694713" lon="11.502099562461321"><ele>375.0</ele><time>2026-04-06T09:34:25.999Z</time></trkpt><trkpt lat="43.058211704836154" lon="11.502084947462544"><ele>375.0</ele><time>2026-04-06T09:34:26.999Z</time></trkpt><trkpt lat="43.05833114635408" lon="11.502072687618632"><ele>375.0</ele><time>2026-04-06T09:34:28.999Z</time></trkpt><trkpt lat="43.058410488383345" lon="11.5020645711678"><ele>375.0</ele><time>2026-04-06T09:34:29.999Z</time></trkpt><trkpt lat="43.05847106244184" lon="11.50203114926046"><ele>371.5</ele><time>2026-04-06T09:34:30.999Z</time></trkpt><trkpt lat="43.05858523999773" lon="11.502109071916637"><ele>368.0</ele><time>2026-04-06T09:34:32.999Z</time></trkpt><trkpt lat="43.05864198866132" lon="11.502246106172375"><ele>364.5</ele><time>2026-04-06T09:34:33.999Z</time></trkpt><trkpt lat="43.058728098100836" lon="11.502348180802066"><ele>361.0</ele><time>2026-04-06T09:34:34.999Z</time></trkpt><trkpt lat="43.0588291222507" lon="11.502469783492414"><ele>361.0</ele><time>2026-04-06T09:34:35.999Z</time></trkpt><trkpt lat="43.05893277057336" lon="11.5025878861556"><ele>361.0</ele><time>2026-04-06T09:34:36.999Z</time></trkpt><trkpt lat="43.0590422591503" lon="11.502718143466568"><ele>361.0</ele><time>2026-04-06T09:34:37.999Z</time></trkpt><trkpt lat="43.059131569327235" lon="11.502816572977535"><ele>361.0</ele><time>2026-04-06T09:34:38.999Z</time></trkpt><trkpt lat="43.059221370099" lon="11.502894955262134"><ele>356.25</ele><time>2026-04-06T09:34:39.999Z</time></trkpt><trkpt lat="43.05932425565078" lon="11.50295885718141"><ele>351.5</ele><time>2026-04-06T09:34:40.999Z</time></trkpt><trkpt lat="43.05942400870376" lon="11.502998861998517"><ele>346.75</ele><time>2026-04-06T09:34:41.999Z</time></trkpt><trkpt lat="43.05952290618805" lon="11.503008952171493"><ele>342.0</ele><time>2026-04-06T09:34:42.999Z</time></trkpt><trkpt lat="43.05966388709608" lon="11.503073906491537"><ele>342.0</ele><time>2026-04-06T09:34:43.999Z</time></trkpt><trkpt lat="43.05982383986853" lon="11.503115137155007"><ele>342.0</ele><time>2026-04-06T09:34:44.999Z</time></trkpt><trkpt lat="43.05995064601582" lon="11.503116199230405"><ele>342.0</ele><time>2026-04-06T09:34:45.999Z</time></trkpt><trkpt lat="43.06006845496652" lon="11.503103235531915"><ele>342.0</ele><time>2026-04-06T09:34:46.999Z</time></trkpt><trkpt lat="43.060200029910106" lon="11.50308617379925"><ele>341.0</ele><time>2026-04-06T09:34:47.999Z</time></trkpt><trkpt lat="43.06032512650314" lon="11.503041583342188"><ele>340.0</ele><time>2026-04-06T09:34:48.998Z</time></trkpt><trkpt lat="43.06045696975026" lon="11.50297340131919"><ele>339.0</ele><time>2026-04-06T09:34:49.998Z</time></trkpt><trkpt lat="43.06059727489238" lon="11.502901784774458"><ele>338.0</ele><time>2026-04-06T09:34:50.998Z</time></trkpt><trkpt lat="43.060705264371485" lon="11.502786552959044"><ele>339.0</ele><time>2026-04-06T09:34:51.998Z</time></trkpt><trkpt lat="43.06080685085489" lon="11.502656553850956"><ele>340.0</ele><time>2026-04-06T09:34:52.998Z</time></trkpt><trkpt lat="43.060881480971" lon="11.502520392613684"><ele>341.0</ele><time>2026-04-06T09:34:53.998Z</time></trkpt><trkpt lat="43.06098011723236" lon="11.502426678056628"><ele>342.0</ele><time>2026-04-06T09:34:54.998Z</time></trkpt><trkpt lat="43.06108253261651" lon="11.502310598747071"><ele>342.0</ele><time>2026-04-06T09:34:55.998Z</time></trkpt><trkpt lat="43.06117354919437" lon="11.502190949596976"><ele>342.0</ele><time>2026-04-06T09:34:56.998Z</time></trkpt><trkpt lat="43.061289435645826" lon="11.502165784630694"><ele>342.0</ele><time>2026-04-06T09:34:57.998Z</time></trkpt><trkpt lat="43.06141594065232" lon="11.502122225316299"><ele>342.0</ele><time>2026-04-06T09:34:58.998Z</time></trkpt><trkpt lat="43.06155073295504" lon="11.502052193398525"><ele>342.0</ele><time>2026-04-06T09:34:59.998Z</time></trkpt><trkpt lat="43.061687628798" lon="11.501936846510677"><ele>342.0</ele><time>2026-04-06T09:35:00.998Z</time></trkpt><trkpt lat="43.061836297205865" lon="11.501793492133153"><ele>342.0</ele><time>2026-04-06T09:35:01.998Z</time></trkpt><trkpt lat="43.06201628269656" lon="11.501627022896033"><ele>342.0</ele><time>2026-04-06T09:35:02.998Z</time></trkpt><trkpt lat="43.06220192681209" lon="11.501474582813831"><ele>342.0</ele><time>2026-04-06T09:35:03.998Z</time></trkpt><trkpt lat="43.06236972487286" lon="11.50132407216674"><ele>342.0</ele><time>2026-04-06T09:35:04.998Z</time></trkpt><trkpt lat="43.062528821620674" lon="11.501173722249204"><ele>340.3333333333333</ele><time>2026-04-06T09:35:05.998Z</time></trkpt><trkpt lat="43.062698421951474" lon="11.501067772458054"><ele>338.66666666666663</ele><time>2026-04-06T09:35:06.998Z</time></trkpt><trkpt lat="43.062893605789064" lon="11.501021642553628"><ele>337.0</ele><time>2026-04-06T09:35:07.998Z</time></trkpt><trkpt lat="43.063086417248925" lon="11.501033556272313"><ele>337.0</ele><time>2026-04-06T09:35:08.998Z</time></trkpt><trkpt lat="43.06328033441873" lon="11.501100549069388"><ele>337.0</ele><time>2026-04-06T09:35:09.998Z</time></trkpt><trkpt lat="43.063463492502926" lon="11.501220862553653"><ele>337.0</ele><time>2026-04-06T09:35:10.998Z</time></trkpt><trkpt lat="43.06364727729527" lon="11.501337173582034"><ele>332.3333333333333</ele><time>2026-04-06T09:35:12Z</time></trkpt><trkpt lat="43.063821987820575" lon="11.501434588417878"><ele>327.6666666666667</ele><time>2026-04-06T09:35:13Z</time></trkpt><trkpt lat="43.064027218125446" lon="11.501518352549937"><ele>323.0</ele><time>2026-04-06T09:35:14Z</time></trkpt><trkpt lat="43.06421138911175" lon="11.501630957626588"><ele>322.6666666666667</ele><time>2026-04-06T09:35:15Z</time></trkpt><trkpt lat="43.06440303208045" lon="11.50172663969129"><ele>322.3333333333333</ele><time>2026-04-06T09:35:16Z</time></trkpt><trkpt lat="43.06459390918855" lon="11.501803776590151"><ele>322.0</ele><time>2026-04-06T09:35:17Z</time></trkpt><trkpt lat="43.06476531976688" lon="11.501901900581796"><ele>322.0</ele><time>2026-04-06T09:35:18Z</time></trkpt><trkpt lat="43.06492190122253" lon="11.501800810327593"><ele>322.0</ele><time>2026-04-06T09:35:19Z</time></trkpt><trkpt lat="43.06503490632031" lon="11.501715877811609"><ele>322.0</ele><time>2026-04-06T09:35:20Z</time></trkpt><trkpt lat="43.065157006993864" lon="11.501610633015733"><ele>322.0</ele><time>2026-04-06T09:35:21Z</time></trkpt><trkpt lat="43.06526642705463" lon="11.501455548215288"><ele>321.66666666666663</ele><time>2026-04-06T09:35:22Z</time></trkpt><trkpt lat="43.06537830853377" lon="11.501303273527936"><ele>321.3333333333333</ele><time>2026-04-06T09:35:23Z</time></trkpt><trkpt lat="43.06548757183534" lon="11.501129881091492"><ele>321.0</ele><time>2026-04-06T09:35:24Z</time></trkpt><trkpt lat="43.06557496748358" lon="11.500895713942047"><ele>321.0</ele><time>2026-04-06T09:35:25Z</time></trkpt><trkpt lat="43.06566853720548" lon="11.500668861427917"><ele>321.0</ele><time>2026-04-06T09:35:26Z</time></trkpt><trkpt lat="43.06579829454231" lon="11.500455597784159"><ele>321.0</ele><time>2026-04-06T09:35:27Z</time></trkpt><trkpt lat="43.06595952355713" lon="11.500297338145046"><ele>318.6666666666667</ele><time>2026-04-06T09:35:28Z</time></trkpt><trkpt lat="43.06611528799577" lon="11.500181756687542"><ele>316.33333333333337</ele><time>2026-04-06T09:35:29Z</time></trkpt><trkpt lat="43.06626016810457" lon="11.500085065148603"><ele>314.0</ele><time>2026-04-06T09:35:30Z</time></trkpt><trkpt lat="43.06652468727517" lon="11.500017162564266"><ele>311.33333333333337</ele><time>2026-04-06T09:35:31Z</time></trkpt><trkpt lat="43.06672756970993" lon="11.499933636423135"><ele>308.6666666666667</ele><time>2026-04-06T09:35:32Z</time></trkpt><trkpt lat="43.066933224987444" lon="11.499839441168843"><ele>306.0</ele><time>2026-04-06T09:35:33Z</time></trkpt><trkpt lat="43.06712607042381" lon="11.49971256844198"><ele>305.3333333333333</ele><time>2026-04-06T09:35:34Z</time></trkpt><trkpt lat="43.067322821419076" lon="11.499579760010972"><ele>304.66666666666663</ele><time>2026-04-06T09:35:35Z</time></trkpt><trkpt lat="43.067506592585275" lon="11.499445043520854"><ele>304.0</ele><time>2026-04-06T09:35:36Z</time></trkpt><trkpt lat="43.06770556259036" lon="11.49932062315889"><ele>304.0</ele><time>2026-04-06T09:35:37Z</time></trkpt><trkpt lat="43.06791925933353" lon="11.499217987893848"><ele>304.0</ele><time>2026-04-06T09:35:38Z</time></trkpt><trkpt lat="43.06812490750921" lon="11.499136461908376"><ele>304.0</ele><time>2026-04-06T09:35:39Z</time></trkpt><trkpt lat="43.06834437575999" lon="11.499083370571894"><ele>299.0</ele><time>2026-04-06T09:35:40Z</time></trkpt><trkpt lat="43.06856542203873" lon="11.499023661053982"><ele>294.0</ele><time>2026-04-06T09:35:41Z</time></trkpt><trkpt lat="43.068785250089235" lon="11.498952336650344"><ele>294.0</ele><time>2026-04-06T09:35:42Z</time></trkpt><trkpt lat="43.06900943927373" lon="11.498877613383687"><ele>294.0</ele><time>2026-04-06T09:35:43Z</time></trkpt><trkpt lat="43.06923563528742" lon="11.498808658996378"><ele>291.5</ele><time>2026-04-06T09:35:44Z</time></trkpt><trkpt lat="43.06946277655907" lon="11.49874207894578"><ele>289.0</ele><time>2026-04-06T09:35:45Z</time></trkpt><trkpt lat="43.0696876380093" lon="11.498673300334634"><ele>289.0</ele><time>2026-04-06T09:35:46Z</time></trkpt><trkpt lat="43.06990932665639" lon="11.498600271504904"><ele>289.0</ele><time>2026-04-06T09:35:47Z</time></trkpt><trkpt lat="43.07012358946206" lon="11.498509768987203"><ele>287.0</ele><time>2026-04-06T09:35:48Z</time></trkpt><trkpt lat="43.0703358935559" lon="11.498385701571934"><ele>285.0</ele><time>2026-04-06T09:35:49Z</time></trkpt><trkpt lat="43.07053922685876" lon="11.498237430341922"><ele>285.0</ele><time>2026-04-06T09:35:50Z</time></trkpt><trkpt lat="43.07074674504684" lon="11.49807797438284"><ele>285.0</ele><time>2026-04-06T09:35:51Z</time></trkpt><trkpt lat="43.070952918488366" lon="11.497910289233381"><ele>281.0</ele><time>2026-04-06T09:35:52Z</time></trkpt><trkpt lat="43.071166225282155" lon="11.497746954646788"><ele>277.0</ele><time>2026-04-06T09:35:53Z</time></trkpt><trkpt lat="43.071377669377114" lon="11.497586249191272"><ele>277.0</ele><time>2026-04-06T09:35:54Z</time></trkpt><trkpt lat="43.071586563498194" lon="11.497428281489874"><ele>277.0</ele><time>2026-04-06T09:35:55Z</time></trkpt><trkpt lat="43.07179029844234" lon="11.497271995398123"><ele>278.5</ele><time>2026-04-06T09:35:56Z</time></trkpt><trkpt lat="43.071992032908675" lon="11.497116215298462"><ele>280.0</ele><time>2026-04-06T09:35:57Z</time></trkpt><trkpt lat="43.07218782089064" lon="11.496961731962575"><ele>278.0</ele><time>2026-04-06T09:35:58Z</time></trkpt><trkpt lat="43.072384892921015" lon="11.496811613354799"><ele>276.0</ele><time>2026-04-06T09:35:59Z</time></trkpt><trkpt lat="43.07259299968848" lon="11.496671136359632"><ele>276.0</ele><time>2026-04-06T09:36:00Z</time></trkpt><trkpt lat="43.072804345159824" lon="11.496549007792733"><ele>276.0</ele><time>2026-04-06T09:36:00.999Z</time></trkpt><trkpt lat="43.073026518094956" lon="11.496441360887676"><ele>276.0</ele><time>2026-04-06T09:36:01.999Z</time></trkpt><trkpt lat="43.073253500939735" lon="11.49634212976797"><ele>276.0</ele><time>2026-04-06T09:36:02.999Z</time></trkpt><trkpt lat="43.073466271049654" lon="11.496254582323171"><ele>270.5</ele><time>2026-04-06T09:36:03.999Z</time></trkpt><trkpt lat="43.07368483090683" lon="11.496156569622498"><ele>265.0</ele><time>2026-04-06T09:36:04.999Z</time></trkpt><trkpt lat="43.07390088029585" lon="11.496028494529453"><ele>264.5</ele><time>2026-04-06T09:36:05.999Z</time></trkpt><trkpt lat="43.07412043858542" lon="11.49588610425199"><ele>264.0</ele><time>2026-04-06T09:36:06.999Z</time></trkpt><trkpt lat="43.07434218691589" lon="11.49573763439876"><ele>264.0</ele><time>2026-04-06T09:36:07.999Z</time></trkpt><trkpt lat="43.0745502804974" lon="11.495565051447814"><ele>264.0</ele><time>2026-04-06T09:36:08.999Z</time></trkpt><trkpt lat="43.074769239291484" lon="11.495391810751364"><ele>261.0</ele><time>2026-04-06T09:36:09.999Z</time></trkpt><trkpt lat="43.074980169633434" lon="11.495203803157969"><ele>258.0</ele><time>2026-04-06T09:36:10.999Z</time></trkpt><trkpt lat="43.07518620683927" lon="11.495022028364689"><ele>258.0</ele><time>2026-04-06T09:36:11.999Z</time></trkpt><trkpt lat="43.07539135665468" lon="11.494837809553152"><ele>258.0</ele><time>2026-04-06T09:36:12.999Z</time></trkpt><trkpt lat="43.075598202091406" lon="11.494651366718811"><ele>255.5</ele><time>2026-04-06T09:36:13.999Z</time></trkpt><trkpt lat="43.07580050613344" lon="11.494458173052855"><ele>253.0</ele><time>2026-04-06T09:36:14.999Z</time></trkpt><trkpt lat="43.07599745558015" lon="11.49425619317476"><ele>253.0</ele><time>2026-04-06T09:36:15.999Z</time></trkpt><trkpt lat="43.07619022197234" lon="11.494050397137634"><ele>253.0</ele><time>2026-04-06T09:36:16.999Z</time></trkpt><trkpt lat="43.07637843666637" lon="11.49384991956682"><ele>252.5</ele><time>2026-04-06T09:36:17.999Z</time></trkpt><trkpt lat="43.07655925254609" lon="11.493653971793059"><ele>252.0</ele><time>2026-04-06T09:36:18.999Z</time></trkpt><trkpt lat="43.07673880785543" lon="11.49346356229909"><ele>251.5</ele><time>2026-04-06T09:36:19.999Z</time></trkpt><trkpt lat="43.07692385234212" lon="11.493286775909594"><ele>251.0</ele><time>2026-04-06T09:36:20.999Z</time></trkpt><trkpt lat="43.07712205774043" lon="11.493134113914868"><ele>251.0</ele><time>2026-04-06T09:36:21.999Z</time></trkpt><trkpt lat="43.07732588152955" lon="11.493010556062123"><ele>251.0</ele><time>2026-04-06T09:36:22.999Z</time></trkpt><trkpt lat="43.077522192671005" lon="11.492899803987713"><ele>251.0</ele><time>2026-04-06T09:36:23.999Z</time></trkpt><trkpt lat="43.07770643444195" lon="11.492783615940397"><ele>250.66666666666669</ele><time>2026-04-06T09:36:24.999Z</time></trkpt><trkpt lat="43.07787029328132" lon="11.492659119199029"><ele>250.33333333333331</ele><time>2026-04-06T09:36:25.999Z</time></trkpt><trkpt lat="43.078001502695294" lon="11.49249171831426"><ele>250.0</ele><time>2026-04-06T09:36:26.999Z</time></trkpt><trkpt lat="43.07808891987529" lon="11.492277178335847"><ele>249.66666666666666</ele><time>2026-04-06T09:36:27.999Z</time></trkpt><trkpt lat="43.07813404340276" lon="11.492027438126772"><ele>249.33333333333331</ele><time>2026-04-06T09:36:28.999Z</time></trkpt><trkpt lat="43.07815312048944" lon="11.491763637623864"><ele>249.0</ele><time>2026-04-06T09:36:29.999Z</time></trkpt><trkpt lat="43.07818638260509" lon="11.49149293681149"><ele>248.33333333333331</ele><time>2026-04-06T09:36:30.999Z</time></trkpt><trkpt lat="43.078229298032554" lon="11.491221567922791"><ele>247.66666666666666</ele><time>2026-04-06T09:36:31.999Z</time></trkpt><trkpt lat="43.07828905718811" lon="11.490961330958314"><ele>247.0</ele><time>2026-04-06T09:36:32.999Z</time></trkpt><trkpt lat="43.07837210097647" lon="11.490719979141348"><ele>244.66666666666666</ele><time>2026-04-06T09:36:33.999Z</time></trkpt><trkpt lat="43.07846213540574" lon="11.490499285130982"><ele>242.33333333333331</ele><time>2026-04-06T09:36:34.999Z</time></trkpt><trkpt lat="43.07853118664787" lon="11.490278249486456"><ele>240.0</ele><time>2026-04-06T09:36:35.999Z</time></trkpt><trkpt lat="43.07856154285806" lon="11.49005859295341"><ele>240.0</ele><time>2026-04-06T09:36:36.999Z</time></trkpt><trkpt lat="43.078563164655435" lon="11.489834969105438"><ele>240.0</ele><time>2026-04-06T09:36:37.999Z</time></trkpt><trkpt lat="43.078514230362394" lon="11.4896129250887"><ele>240.0</ele><time>2026-04-06T09:36:38.999Z</time></trkpt><trkpt lat="43.07845008367302" lon="11.489406240339171"><ele>238.33333333333331</ele><time>2026-04-06T09:36:39.999Z</time></trkpt><trkpt lat="43.07840376050927" lon="11.489208406638383"><ele>236.66666666666666</ele><time>2026-04-06T09:36:40.999Z</time></trkpt><trkpt lat="43.07836953007574" lon="11.488980707199117"><ele>235.0</ele><time>2026-04-06T09:36:41.999Z</time></trkpt><trkpt lat="43.07840116546654" lon="11.488762167018098"><ele>236.0</ele><time>2026-04-06T09:36:42.999Z</time></trkpt><trkpt lat="43.07849910976645" lon="11.488589329913557"><ele>237.0</ele><time>2026-04-06T09:36:43.999Z</time></trkpt><trkpt lat="43.07862884884777" lon="11.488459184372202"><ele>238.0</ele><time>2026-04-06T09:36:44.999Z</time></trkpt><trkpt lat="43.0787952157436" lon="11.488373595521582"><ele>238.0</ele><time>2026-04-06T09:36:45.999Z</time></trkpt><trkpt lat="43.078975441556636" lon="11.488297823283334"><ele>238.0</ele><time>2026-04-06T09:36:46.999Z</time></trkpt><trkpt lat="43.079146543106724" lon="11.488178006511495"><ele>238.0</ele><time>2026-04-06T09:36:47.999Z</time></trkpt><trkpt lat="43.07933883071644" lon="11.488046533528795"><ele>238.0</ele><time>2026-04-06T09:36:48.999Z</time></trkpt><trkpt lat="43.0795076740469" lon="11.487905792388828"><ele>238.0</ele><time>2026-04-06T09:36:49.999Z</time></trkpt><trkpt lat="43.0796739962988" lon="11.487776015076726"><ele>238.0</ele><time>2026-04-06T09:36:50.999Z</time></trkpt><trkpt lat="43.07983216733023" lon="11.48764014703545"><ele>235.33333333333331</ele><time>2026-04-06T09:36:51.999Z</time></trkpt><trkpt lat="43.07998797254396" lon="11.487466965439541"><ele>232.66666666666669</ele><time>2026-04-06T09:36:52.999Z</time></trkpt><trkpt lat="43.080104563600294" lon="11.48724255101647"><ele>230.0</ele><time>2026-04-06T09:36:53.999Z</time></trkpt><trkpt lat="43.080195808748535" lon="11.486983667477919"><ele>230.0</ele><time>2026-04-06T09:36:54.999Z</time></trkpt><trkpt lat="43.080284527024844" lon="11.486745657597996"><ele>230.0</ele><time>2026-04-06T09:36:55.998Z</time></trkpt><trkpt lat="43.080400720477584" lon="11.486534237641598"><ele>230.0</ele><time>2026-04-06T09:36:56.998Z</time></trkpt><trkpt lat="43.080548985395595" lon="11.486336375268698"><ele>231.66666666666669</ele><time>2026-04-06T09:36:57.998Z</time></trkpt><trkpt lat="43.080696450062824" lon="11.486160670156577"><ele>233.33333333333331</ele><time>2026-04-06T09:36:58.998Z</time></trkpt><trkpt lat="43.08083110589432" lon="11.485990911663245"><ele>235.0</ele><time>2026-04-06T09:36:59.998Z</time></trkpt><trkpt lat="43.080962189205344" lon="11.485785980486705"><ele>229.0</ele><time>2026-04-06T09:37:00.998Z</time></trkpt><trkpt lat="43.08106005893141" lon="11.485537438407958"><ele>223.0</ele><time>2026-04-06T09:37:01.998Z</time></trkpt><trkpt lat="43.08109093491978" lon="11.485281832866258"><ele>217.0</ele><time>2026-04-06T09:37:02.998Z</time></trkpt><trkpt lat="43.08110124134868" lon="11.485031378890731"><ele>217.0</ele><time>2026-04-06T09:37:03.998Z</time></trkpt><trkpt lat="43.081106202303694" lon="11.484789107403934"><ele>217.0</ele><time>2026-04-06T09:37:04.998Z</time></trkpt><trkpt lat="43.08115376526758" lon="11.484573565603846"><ele>217.0</ele><time>2026-04-06T09:37:05.998Z</time></trkpt><trkpt lat="43.081236575550754" lon="11.48441020322736"><ele>217.33333333333331</ele><time>2026-04-06T09:37:06.998Z</time></trkpt><trkpt lat="43.08135398872292" lon="11.484276916558262"><ele>217.66666666666669</ele><time>2026-04-06T09:37:07.998Z</time></trkpt><trkpt lat="43.081494620922584" lon="11.484234910606842"><ele>218.0</ele><time>2026-04-06T09:37:08.998Z</time></trkpt><trkpt lat="43.081667431892605" lon="11.484254819801063"><ele>215.66666666666669</ele><time>2026-04-06T09:37:09.998Z</time></trkpt><trkpt lat="43.08183991664075" lon="11.484340976028419"><ele>213.33333333333331</ele><time>2026-04-06T09:37:10.998Z</time></trkpt><trkpt lat="43.08200308130598" lon="11.484458590083296"><ele>211.0</ele><time>2026-04-06T09:37:11.998Z</time></trkpt><trkpt lat="43.082173152256416" lon="11.484551179961857"><ele>206.66666666666666</ele><time>2026-04-06T09:37:12.998Z</time></trkpt><trkpt lat="43.08235359157925" lon="11.484617472329715"><ele>202.33333333333331</ele><time>2026-04-06T09:37:13.998Z</time></trkpt><trkpt lat="43.08254207352689" lon="11.484662844941282"><ele>198.0</ele><time>2026-04-06T09:37:14.998Z</time></trkpt><trkpt lat="43.08272781340802" lon="11.48465456086328"><ele>196.66666666666669</ele><time>2026-04-06T09:37:15.998Z</time></trkpt><trkpt lat="43.08291443914194" lon="11.484588965845925"><ele>195.33333333333334</ele><time>2026-04-06T09:37:16.998Z</time></trkpt><trkpt lat="43.083132417519636" lon="11.484473737827198"><ele>194.0</ele><time>2026-04-06T09:37:18Z</time></trkpt><trkpt lat="43.08332136734084" lon="11.484360826071923"><ele>194.0</ele><time>2026-04-06T09:37:19Z</time></trkpt><trkpt lat="43.08352067174985" lon="11.484256037512798"><ele>194.0</ele><time>2026-04-06T09:37:20Z</time></trkpt><trkpt lat="43.08372923982278" lon="11.484173166992317"><ele>194.0</ele><time>2026-04-06T09:37:21Z</time></trkpt><trkpt lat="43.0839471198565" lon="11.484126782634315"><ele>190.0</ele><time>2026-04-06T09:37:22Z</time></trkpt><trkpt lat="43.084176083387284" lon="11.484112619952858"><ele>186.0</ele><time>2026-04-06T09:37:23Z</time></trkpt><trkpt lat="43.084414428602756" lon="11.484113237545348"><ele>186.0</ele><time>2026-04-06T09:37:24Z</time></trkpt><trkpt lat="43.084652174196606" lon="11.484089666571359"><ele>186.0</ele><time>2026-04-06T09:37:25Z</time></trkpt><trkpt lat="43.08489594037591" lon="11.48406391770486"><ele>182.0</ele><time>2026-04-06T09:37:26Z</time></trkpt><trkpt lat="43.08513990628821" lon="11.484038296322053"><ele>178.0</ele><time>2026-04-06T09:37:27Z</time></trkpt><trkpt lat="43.085385238967454" lon="11.484017690700243"><ele>178.0</ele><time>2026-04-06T09:37:28Z</time></trkpt><trkpt lat="43.085628991845695" lon="11.483993713657595"><ele>178.0</ele><time>2026-04-06T09:37:29Z</time></trkpt><trkpt lat="43.08587343614171" lon="11.483970292308843"><ele>173.5</ele><time>2026-04-06T09:37:30Z</time></trkpt><trkpt lat="43.08611777569171" lon="11.483948174693262"><ele>169.0</ele><time>2026-04-06T09:37:31Z</time></trkpt><trkpt lat="43.086358460285474" lon="11.483936587185056"><ele>169.0</ele><time>2026-04-06T09:37:32Z</time></trkpt><trkpt lat="43.08658812952872" lon="11.483963078416084"><ele>169.0</ele><time>2026-04-06T09:37:33Z</time></trkpt><trkpt lat="43.08679904566385" lon="11.484053354204038"><ele>167.0</ele><time>2026-04-06T09:37:34Z</time></trkpt><trkpt lat="43.086985944484745" lon="11.48423703463626"><ele>165.0</ele><time>2026-04-06T09:37:35Z</time></trkpt><trkpt lat="43.08716100665117" lon="11.484446923364612"><ele>164.0</ele><time>2026-04-06T09:37:36Z</time></trkpt><trkpt lat="43.087307411245206" lon="11.484692248130989"><ele>163.0</ele><time>2026-04-06T09:37:37Z</time></trkpt><trkpt lat="43.08745524520769" lon="11.484953013191177"><ele>163.0</ele><time>2026-04-06T09:37:38Z</time></trkpt><trkpt lat="43.087613241777774" lon="11.48521494162436"><ele>163.0</ele><time>2026-04-06T09:37:39Z</time></trkpt><trkpt lat="43.08777146144549" lon="11.48545901778602"><ele>161.33333333333334</ele><time>2026-04-06T09:37:40Z</time></trkpt><trkpt lat="43.0879190591814" lon="11.48570059985949"><ele>159.66666666666666</ele><time>2026-04-06T09:37:41Z</time></trkpt><trkpt lat="43.08805577054843" lon="11.485925824013902"><ele>158.0</ele><time>2026-04-06T09:37:42Z</time></trkpt><trkpt lat="43.08817952739487" lon="11.486146957431412"><ele>158.0</ele><time>2026-04-06T09:37:43Z</time></trkpt><trkpt lat="43.08829898202333" lon="11.486354083228596"><ele>158.0</ele><time>2026-04-06T09:37:44Z</time></trkpt><trkpt lat="43.08843320069419" lon="11.48653071962754"><ele>158.0</ele><time>2026-04-06T09:37:45Z</time></trkpt><trkpt lat="43.088582122312175" lon="11.486674596331664"><ele>158.0</ele><time>2026-04-06T09:37:46Z</time></trkpt><trkpt lat="43.08873569445441" lon="11.486768523210106"><ele>158.0</ele><time>2026-04-06T09:37:47Z</time></trkpt><trkpt lat="43.08889964375712" lon="11.486833144765138"><ele>158.0</ele><time>2026-04-06T09:37:48Z</time></trkpt><trkpt lat="43.08908251627175" lon="11.486857331837697"><ele>158.0</ele><time>2026-04-06T09:37:49Z</time></trkpt><trkpt lat="43.08926711643023" lon="11.486827936801948"><ele>158.0</ele><time>2026-04-06T09:37:50Z</time></trkpt><trkpt lat="43.089445712953506" lon="11.486782702508059"><ele>158.0</ele><time>2026-04-06T09:37:51Z</time></trkpt><trkpt lat="43.08962481275845" lon="11.486748344838652"><ele>158.0</ele><time>2026-04-06T09:37:52Z</time></trkpt><trkpt lat="43.08979731115534" lon="11.486726596438604"><ele>158.0</ele><time>2026-04-06T09:37:53Z</time></trkpt><trkpt lat="43.08996176923346" lon="11.486702258820875"><ele>158.0</ele><time>2026-04-06T09:37:54Z</time></trkpt><trkpt lat="43.090115350174635" lon="11.486678028058424"><ele>158.0</ele><time>2026-04-06T09:37:55Z</time></trkpt><trkpt lat="43.090267609806425" lon="11.486656206519632"><ele>158.0</ele><time>2026-04-06T09:37:56Z</time></trkpt><trkpt lat="43.09041761729049" lon="11.48663212607228"><ele>158.0</ele><time>2026-04-06T09:37:57Z</time></trkpt><trkpt lat="43.090568242095486" lon="11.486612449733355"><ele>158.0</ele><time>2026-04-06T09:37:58Z</time></trkpt><trkpt lat="43.09070767130599" lon="11.486593030603117"><ele>158.0</ele><time>2026-04-06T09:37:59Z</time></trkpt><trkpt lat="43.09084784491412" lon="11.48657355601659"><ele>158.0</ele><time>2026-04-06T09:38:00Z</time></trkpt><trkpt lat="43.09098407307666" lon="11.486554033249055"><ele>158.0</ele><time>2026-04-06T09:38:01Z</time></trkpt><trkpt lat="43.091125172122986" lon="11.486526942883934"><ele>157.66666666666666</ele><time>2026-04-06T09:38:02Z</time></trkpt><trkpt lat="43.09127556741976" lon="11.486500894336995"><ele>157.33333333333334</ele><time>2026-04-06T09:38:03Z</time></trkpt><trkpt lat="43.09142537469417" lon="11.486469155933394"><ele>157.0</ele><time>2026-04-06T09:38:04Z</time></trkpt><trkpt lat="43.09158849430466" lon="11.486443352021194"><ele>156.0</ele><time>2026-04-06T09:38:05Z</time></trkpt><trkpt lat="43.09176724081047" lon="11.486429285779458"><ele>155.0</ele><time>2026-04-06T09:38:06Z</time></trkpt><trkpt lat="43.09194496965542" lon="11.486398640572322"><ele>154.0</ele><time>2026-04-06T09:38:06.999Z</time></trkpt><trkpt lat="43.092129778609305" lon="11.486377427932137"><ele>154.0</ele><time>2026-04-06T09:38:07.999Z</time></trkpt><trkpt lat="43.09230277295763" lon="11.486346737890942"><ele>154.0</ele><time>2026-04-06T09:38:08.999Z</time></trkpt><trkpt lat="43.09249992577081" lon="11.486320532978151"><ele>154.0</ele><time>2026-04-06T09:38:09.999Z</time></trkpt><trkpt lat="43.092700051805345" lon="11.486297785772672"><ele>154.33333333333334</ele><time>2026-04-06T09:38:10.999Z</time></trkpt><trkpt lat="43.09290285413293" lon="11.486275752680482"><ele>154.66666666666666</ele><time>2026-04-06T09:38:11.999Z</time></trkpt><trkpt lat="43.093086135645144" lon="11.486245556652895"><ele>155.0</ele><time>2026-04-06T09:38:12.999Z</time></trkpt><trkpt lat="43.09327701956128" lon="11.486215662429172"><ele>155.66666666666666</ele><time>2026-04-06T09:38:13.999Z</time></trkpt><trkpt lat="43.0934743819524" lon="11.486184868744013"><ele>156.33333333333334</ele><time>2026-04-06T09:38:14.999Z</time></trkpt><trkpt lat="43.093673863881364" lon="11.486152943894322"><ele>157.0</ele><time>2026-04-06T09:38:15.999Z</time></trkpt><trkpt lat="43.09386787682507" lon="11.48611846474682"><ele>157.0</ele><time>2026-04-06T09:38:16.999Z</time></trkpt><trkpt lat="43.094065933639286" lon="11.486088920184331"><ele>157.0</ele><time>2026-04-06T09:38:17.999Z</time></trkpt><trkpt lat="43.09426139442508" lon="11.486039797998028"><ele>157.0</ele><time>2026-04-06T09:38:18.999Z</time></trkpt><trkpt lat="43.0944606957426" lon="11.485971802948475"><ele>156.66666666666669</ele><time>2026-04-06T09:38:19.999Z</time></trkpt><trkpt lat="43.09465758094703" lon="11.485889524312139"><ele>156.33333333333334</ele><time>2026-04-06T09:38:20.999Z</time></trkpt><trkpt lat="43.09484620931477" lon="11.485802785372082"><ele>156.0</ele><time>2026-04-06T09:38:21.999Z</time></trkpt><trkpt lat="43.095037724670156" lon="11.485718872255791"><ele>154.33333333333334</ele><time>2026-04-06T09:38:22.999Z</time></trkpt><trkpt lat="43.09522701417401" lon="11.48564172155898"><ele>152.66666666666669</ele><time>2026-04-06T09:38:23.999Z</time></trkpt><trkpt lat="43.095415363970695" lon="11.485567418601294"><ele>151.0</ele><time>2026-04-06T09:38:24.999Z</time></trkpt><trkpt lat="43.0956015783808" lon="11.485500135828575"><ele>151.33333333333334</ele><time>2026-04-06T09:38:25.999Z</time></trkpt><trkpt lat="43.09578515633472" lon="11.485435231363137"><ele>151.66666666666666</ele><time>2026-04-06T09:38:26.999Z</time></trkpt><trkpt lat="43.09596794263791" lon="11.485359460237897"><ele>152.0</ele><time>2026-04-06T09:38:27.999Z</time></trkpt><trkpt lat="43.09614666516112" lon="11.485260965665566"><ele>152.33333333333331</ele><time>2026-04-06T09:38:28.999Z</time></trkpt><trkpt lat="43.09632364429935" lon="11.48513903816743"><ele>152.66666666666666</ele><time>2026-04-06T09:38:29.999Z</time></trkpt><trkpt lat="43.09649107286069" lon="11.484993675992106"><ele>153.0</ele><time>2026-04-06T09:38:30.999Z</time></trkpt><trkpt lat="43.09666138288611" lon="11.484835222037036"><ele>152.33333333333334</ele><time>2026-04-06T09:38:31.999Z</time></trkpt><trkpt lat="43.096835084086116" lon="11.484675617831316"><ele>151.66666666666669</ele><time>2026-04-06T09:38:32.999Z</time></trkpt><trkpt lat="43.097013542598674" lon="11.484518185247838"><ele>151.0</ele><time>2026-04-06T09:38:33.999Z</time></trkpt><trkpt lat="43.09719567024102" lon="11.484359182640153"><ele>151.0</ele><time>2026-04-06T09:38:34.999Z</time></trkpt><trkpt lat="43.097384990858394" lon="11.484203067193755"><ele>151.0</ele><time>2026-04-06T09:38:35.999Z</time></trkpt><trkpt lat="43.097579173512045" lon="11.48405402359615"><ele>151.0</ele><time>2026-04-06T09:38:36.999Z</time></trkpt><trkpt lat="43.09777882771088" lon="11.483915229268908"><ele>151.0</ele><time>2026-04-06T09:38:37.999Z</time></trkpt><trkpt lat="43.09798938898874" lon="11.48379190988935"><ele>151.0</ele><time>2026-04-06T09:38:38.999Z</time></trkpt><trkpt lat="43.09820354849371" lon="11.483689415318635"><ele>150.0</ele><time>2026-04-06T09:38:39.999Z</time></trkpt><trkpt lat="43.0984142509938" lon="11.483586073239046"><ele>149.0</ele><time>2026-04-06T09:38:40.999Z</time></trkpt><trkpt lat="43.098618402470876" lon="11.483490788373418"><ele>148.0</ele><time>2026-04-06T09:38:41.999Z</time></trkpt><trkpt lat="43.098833512165264" lon="11.483412514508482"><ele>148.0</ele><time>2026-04-06T09:38:42.999Z</time></trkpt><trkpt lat="43.09905313643107" lon="11.483369473734552"><ele>148.0</ele><time>2026-04-06T09:38:43.999Z</time></trkpt><trkpt lat="43.099270091761205" lon="11.483353564060696"><ele>148.0</ele><time>2026-04-06T09:38:44.999Z</time></trkpt><trkpt lat="43.09947707163662" lon="11.483350020090072"><ele>147.33333333333334</ele><time>2026-04-06T09:38:45.999Z</time></trkpt><trkpt lat="43.09967264036791" lon="11.483337758060385"><ele>146.66666666666666</ele><time>2026-04-06T09:38:46.999Z</time></trkpt><trkpt lat="43.09985881832742" lon="11.483284083110053"><ele>146.0</ele><time>2026-04-06T09:38:47.999Z</time></trkpt><trkpt lat="43.1000281749651" lon="11.483164730962372"><ele>145.66666666666666</ele><time>2026-04-06T09:38:48.999Z</time></trkpt><trkpt lat="43.10018006890419" lon="11.482990838192805"><ele>145.33333333333334</ele><time>2026-04-06T09:38:49.999Z</time></trkpt><trkpt lat="43.100328333223956" lon="11.482792957876763"><ele>145.0</ele><time>2026-04-06T09:38:50.999Z</time></trkpt><trkpt lat="43.100500105372355" lon="11.482583152944972"><ele>145.0</ele><time>2026-04-06T09:38:51.999Z</time></trkpt><trkpt lat="43.10066790236667" lon="11.482364522453118"><ele>145.0</ele><time>2026-04-06T09:38:52.999Z</time></trkpt><trkpt lat="43.1008405325928" lon="11.482146749118112"><ele>144.0</ele><time>2026-04-06T09:38:53.999Z</time></trkpt><trkpt lat="43.101016350672055" lon="11.481929561803303"><ele>143.0</ele><time>2026-04-06T09:38:54.999Z</time></trkpt><trkpt lat="43.10119233473054" lon="11.481702995464296"><ele>143.0</ele><time>2026-04-06T09:38:55.999Z</time></trkpt><trkpt lat="43.10136705669735" lon="11.481478677180307"><ele>143.0</ele><time>2026-04-06T09:38:56.999Z</time></trkpt><trkpt lat="43.10153764010969" lon="11.481254819351225"><ele>143.5</ele><time>2026-04-06T09:38:57.999Z</time></trkpt><trkpt lat="43.10171092573525" lon="11.481037870893651"><ele>144.0</ele><time>2026-04-06T09:38:58.999Z</time></trkpt><trkpt lat="43.10188472166924" lon="11.48083366675125"><ele>144.0</ele><time>2026-04-06T09:38:59.999Z</time></trkpt><trkpt lat="43.10206938906905" lon="11.480646024968989"><ele>144.0</ele><time>2026-04-06T09:39:00.999Z</time></trkpt><trkpt lat="43.10226439025578" lon="11.480469260078822"><ele>144.5</ele><time>2026-04-06T09:39:01.998Z</time></trkpt><trkpt lat="43.102468880902535" lon="11.480305982982895"><ele>145.0</ele><time>2026-04-06T09:39:02.998Z</time></trkpt><trkpt lat="43.1026702118903" lon="11.480136102098498"><ele>145.0</ele><time>2026-04-06T09:39:03.998Z</time></trkpt><trkpt lat="43.10287156419997" lon="11.479971897905179"><ele>145.0</ele><time>2026-04-06T09:39:04.998Z</time></trkpt><trkpt lat="43.103067358252765" lon="11.479815730850232"><ele>147.33333333333334</ele><time>2026-04-06T09:39:05.998Z</time></trkpt><trkpt lat="43.10325322466264" lon="11.479667815376025"><ele>149.66666666666666</ele><time>2026-04-06T09:39:06.998Z</time></trkpt><trkpt lat="43.103444261559126" lon="11.479543933727001"><ele>152.0</ele><time>2026-04-06T09:39:07.998Z</time></trkpt><trkpt lat="43.10364528376261" lon="11.479460779044333"><ele>152.33333333333331</ele><time>2026-04-06T09:39:08.998Z</time></trkpt><trkpt lat="43.10385965467667" lon="11.479421299335"><ele>152.66666666666666</ele><time>2026-04-06T09:39:09.998Z</time></trkpt><trkpt lat="43.10407780919551" lon="11.479407675997606"><ele>153.0</ele><time>2026-04-06T09:39:10.998Z</time></trkpt><trkpt lat="43.10429782630528" lon="11.47939673970723"><ele>153.0</ele><time>2026-04-06T09:39:11.998Z</time></trkpt><trkpt lat="43.104520767488644" lon="11.4793837591016"><ele>153.0</ele><time>2026-04-06T09:39:12.998Z</time></trkpt><trkpt lat="43.1047477779389" lon="11.479371290628272"><ele>150.0</ele><time>2026-04-06T09:39:13.998Z</time></trkpt><trkpt lat="43.10497877738574" lon="11.479359311137019"><ele>147.0</ele><time>2026-04-06T09:39:14.998Z</time></trkpt><trkpt lat="43.10521562879793" lon="11.47935044977011"><ele>147.0</ele><time>2026-04-06T09:39:15.998Z</time></trkpt><trkpt lat="43.10545661693974" lon="11.479340881175107"><ele>147.0</ele><time>2026-04-06T09:39:16.998Z</time></trkpt><trkpt lat="43.10570289788089" lon="11.479330733644357"><ele>144.0</ele><time>2026-04-06T09:39:17.998Z</time></trkpt><trkpt lat="43.105954185950175" lon="11.479319492884663"><ele>141.0</ele><time>2026-04-06T09:39:18.998Z</time></trkpt><trkpt lat="43.106211232358014" lon="11.479310002155806"><ele>141.0</ele><time>2026-04-06T09:39:19.998Z</time></trkpt><trkpt lat="43.106472072231" lon="11.479298738783443"><ele>141.0</ele><time>2026-04-06T09:39:20.998Z</time></trkpt><trkpt lat="43.10673402096598" lon="11.479289317452228"><ele>139.0</ele><time>2026-04-06T09:39:21.998Z</time></trkpt><trkpt lat="43.10699593245869" lon="11.479279439186696"><ele>137.0</ele><time>2026-04-06T09:39:22.998Z</time></trkpt><trkpt lat="43.107258024096495" lon="11.479265745730167"><ele>137.5</ele><time>2026-04-06T09:39:24Z</time></trkpt><trkpt lat="43.10752013222228" lon="11.479251297513455"><ele>138.0</ele><time>2026-04-06T09:39:25Z</time></trkpt><trkpt lat="43.10778080812402" lon="11.479243095369618"><ele>138.0</ele><time>2026-04-06T09:39:26Z</time></trkpt><trkpt lat="43.10804081290338" lon="11.479239989583789"><ele>138.0</ele><time>2026-04-06T09:39:27Z</time></trkpt><trkpt lat="43.10830084781241" lon="11.47924240579002"><ele>139.5</ele><time>2026-04-06T09:39:28Z</time></trkpt><trkpt lat="43.10856147087449" lon="11.47925453987917"><ele>141.0</ele><time>2026-04-06T09:39:29Z</time></trkpt><trkpt lat="43.108817206025414" lon="11.479271477776896"><ele>141.0</ele><time>2026-04-06T09:39:30Z</time></trkpt><trkpt lat="43.10906876426146" lon="11.479290405777386"><ele>141.0</ele><time>2026-04-06T09:39:31Z</time></trkpt><trkpt lat="43.10931886706136" lon="11.479310857964734"><ele>143.5</ele><time>2026-04-06T09:39:32Z</time></trkpt><trkpt lat="43.109567110775075" lon="11.479326392961442"><ele>146.0</ele><time>2026-04-06T09:39:33Z</time></trkpt><trkpt lat="43.1098132232961" lon="11.479340188202954"><ele>147.5</ele><time>2026-04-06T09:39:34Z</time></trkpt><trkpt lat="43.11005829207159" lon="11.479357198019857"><ele>149.0</ele><time>2026-04-06T09:39:35Z</time></trkpt><trkpt lat="43.110298562579366" lon="11.479373845912454"><ele>149.0</ele><time>2026-04-06T09:39:36Z</time></trkpt><trkpt lat="43.11053426971766" lon="11.479391143660376"><ele>149.0</ele><time>2026-04-06T09:39:37Z</time></trkpt><trkpt lat="43.110759748145504" lon="11.479409731421311"><ele>150.0</ele><time>2026-04-06T09:39:38Z</time></trkpt><trkpt lat="43.11097562406021" lon="11.479425287063293"><ele>151.0</ele><time>2026-04-06T09:39:39Z</time></trkpt><trkpt lat="43.11118216972121" lon="11.479441134778234"><ele>152.0</ele><time>2026-04-06T09:39:40Z</time></trkpt><trkpt lat="43.111379853022164" lon="11.47947645390579"><ele>152.0</ele><time>2026-04-06T09:39:41Z</time></trkpt><trkpt lat="43.11157215426492" lon="11.479538858874868"><ele>152.0</ele><time>2026-04-06T09:39:42Z</time></trkpt><trkpt lat="43.11176536911913" lon="11.479626879459074"><ele>152.0</ele><time>2026-04-06T09:39:43Z</time></trkpt><trkpt lat="43.111964041076774" lon="11.479710777695818"><ele>152.66666666666666</ele><time>2026-04-06T09:39:44Z</time></trkpt><trkpt lat="43.11216761453349" lon="11.479779670973267"><ele>153.33333333333334</ele><time>2026-04-06T09:39:45Z</time></trkpt><trkpt lat="43.112373270775834" lon="11.479856480630465"><ele>154.0</ele><time>2026-04-06T09:39:46Z</time></trkpt><trkpt lat="43.112578971643345" lon="11.479938741779817"><ele>154.33333333333334</ele><time>2026-04-06T09:39:47Z</time></trkpt><trkpt lat="43.112786968690514" lon="11.480021974881756"><ele>154.66666666666666</ele><time>2026-04-06T09:39:48Z</time></trkpt><trkpt lat="43.11299891366805" lon="11.480098119611931"><ele>155.0</ele><time>2026-04-06T09:39:49Z</time></trkpt><trkpt lat="43.113214808562354" lon="11.480155001608232"><ele>156.66666666666666</ele><time>2026-04-06T09:39:50Z</time></trkpt><trkpt lat="43.11343081283668" lon="11.48019646350482"><ele>158.33333333333334</ele><time>2026-04-06T09:39:51Z</time></trkpt><trkpt lat="43.11364362035387" lon="11.480235660467862"><ele>160.0</ele><time>2026-04-06T09:39:52Z</time></trkpt><trkpt lat="43.11385660845067" lon="11.480273168208267"><ele>160.0</ele><time>2026-04-06T09:39:53Z</time></trkpt><trkpt lat="43.11406809538401" lon="11.480305339753807"><ele>160.0</ele><time>2026-04-06T09:39:54Z</time></trkpt><trkpt lat="43.1142729282068" lon="11.480334655389267"><ele>160.0</ele><time>2026-04-06T09:39:55Z</time></trkpt><trkpt lat="43.11447121397665" lon="11.480369629737297"><ele>161.66666666666669</ele><time>2026-04-06T09:39:56Z</time></trkpt><trkpt lat="43.11466054398475" lon="11.480405987294931"><ele>163.33333333333334</ele><time>2026-04-06T09:39:57Z</time></trkpt><trkpt lat="43.11484458715302" lon="11.480439533345523"><ele>165.0</ele><time>2026-04-06T09:39:58Z</time></trkpt><trkpt lat="43.115019258296314" lon="11.480472104744763"><ele>165.0</ele><time>2026-04-06T09:39:59Z</time></trkpt><trkpt lat="43.115201413609356" lon="11.480510253812339"><ele>165.0</ele><time>2026-04-06T09:40:00Z</time></trkpt><trkpt lat="43.11538633142356" lon="11.480570934120822"><ele>165.0</ele><time>2026-04-06T09:40:01Z</time></trkpt><trkpt lat="43.115569141971726" lon="11.480652092930615"><ele>164.0</ele><time>2026-04-06T09:40:02Z</time></trkpt><trkpt lat="43.115745666444575" lon="11.480731776689586"><ele>163.0</ele><time>2026-04-06T09:40:03Z</time></trkpt><trkpt lat="43.1159198336108" lon="11.480807398851843"><ele>162.0</ele><time>2026-04-06T09:40:04Z</time></trkpt><trkpt lat="43.11609461328677" lon="11.480885895488344"><ele>162.0</ele><time>2026-04-06T09:40:05Z</time></trkpt><trkpt lat="43.11626168284112" lon="11.480956911295076"><ele>162.0</ele><time>2026-04-06T09:40:06Z</time></trkpt><trkpt lat="43.1164234969138" lon="11.481025871561604"><ele>162.0</ele><time>2026-04-06T09:40:07Z</time></trkpt><trkpt lat="43.116582638908014" lon="11.481098773707474"><ele>161.33333333333334</ele><time>2026-04-06T09:40:08Z</time></trkpt><trkpt lat="43.116735923053014" lon="11.48116957121925"><ele>160.66666666666669</ele><time>2026-04-06T09:40:09Z</time></trkpt><trkpt lat="43.11689654048629" lon="11.48124224654426"><ele>160.0</ele><time>2026-04-06T09:40:10Z</time></trkpt><trkpt lat="43.11705536107128" lon="11.481314101785605"><ele>159.0</ele><time>2026-04-06T09:40:11Z</time></trkpt><trkpt lat="43.11721203764955" lon="11.481384048173211"><ele>158.0</ele><time>2026-04-06T09:40:12Z</time></trkpt><trkpt lat="43.11736541078522" lon="11.481456796768072"><ele>157.0</ele><time>2026-04-06T09:40:13Z</time></trkpt><trkpt lat="43.11751917156603" lon="11.481521633835271"><ele>153.33333333333334</ele><time>2026-04-06T09:40:14Z</time></trkpt><trkpt lat="43.11767021087751" lon="11.481584876219568"><ele>149.66666666666666</ele><time>2026-04-06T09:40:15Z</time></trkpt><trkpt lat="43.117823895375885" lon="11.481656953838765"><ele>146.0</ele><time>2026-04-06T09:40:16Z</time></trkpt><trkpt lat="43.117981982847176" lon="11.481729155958984"><ele>146.0</ele><time>2026-04-06T09:40:16.999Z</time></trkpt><trkpt lat="43.118142490500055" lon="11.481796377367209"><ele>146.0</ele><time>2026-04-06T09:40:17.999Z</time></trkpt><trkpt lat="43.118303358864345" lon="11.481865204542828"><ele>146.0</ele><time>2026-04-06T09:40:18.999Z</time></trkpt><trkpt lat="43.118464411951855" lon="11.48194300564456"><ele>144.66666666666666</ele><time>2026-04-06T09:40:19.999Z</time></trkpt><trkpt lat="43.11860100051045" lon="11.482073042821085"><ele>143.33333333333334</ele><time>2026-04-06T09:40:20.999Z</time></trkpt><trkpt lat="43.118714285458765" lon="11.482223895120393"><ele>142.0</ele><time>2026-04-06T09:40:21.999Z</time></trkpt><trkpt lat="43.11880141964961" lon="11.482398458853469"><ele>141.75</ele><time>2026-04-06T09:40:22.999Z</time></trkpt><trkpt lat="43.11885248264384" lon="11.482586001351478"><ele>141.5</ele><time>2026-04-06T09:40:23.999Z</time></trkpt><trkpt lat="43.11887848821368" lon="11.482761312544865"><ele>141.25</ele><time>2026-04-06T09:40:24.999Z</time></trkpt><trkpt lat="43.118889100999866" lon="11.482912956825876"><ele>141.0</ele><time>2026-04-06T09:40:25.999Z</time></trkpt><trkpt lat="43.118908236792" lon="11.483041780739816"><ele>141.16666666666666</ele><time>2026-04-06T09:40:26.999Z</time></trkpt><trkpt lat="43.118885243229876" lon="11.483145843135048"><ele>141.33333333333334</ele><time>2026-04-06T09:40:27.999Z</time></trkpt><trkpt lat="43.11886177955329" lon="11.48323593636001"><ele>141.5</ele><time>2026-04-06T09:40:28.999Z</time></trkpt><trkpt lat="43.118851723740974" lon="11.48338802289325"><ele>141.66666666666669</ele><time>2026-04-06T09:40:30.999Z</time></trkpt><trkpt lat="43.11888970538198" lon="11.483485587353176"><ele>141.83333333333334</ele><time>2026-04-06T09:40:32.999Z</time></trkpt><trkpt lat="43.118934914910355" lon="11.483611268531295"><ele>142.0</ele><time>2026-04-06T09:40:42.999Z</time></trkpt><trkpt lat="43.119095096936164" lon="11.483640515867265"><ele>142.0</ele><time>2026-04-06T09:40:44.999Z</time></trkpt><trkpt lat="43.11918921593677" lon="11.483597228133265"><ele>142.0</ele><time>2026-04-06T09:40:45.999Z</time></trkpt><trkpt lat="43.11929661313081" lon="11.483559511214327"><ele>142.0</ele><time>2026-04-06T09:40:46.999Z</time></trkpt><trkpt lat="43.11941019852019" lon="11.483528093801256"><ele>142.0</ele><time>2026-04-06T09:40:47.999Z</time></trkpt><trkpt lat="43.11953565953558" lon="11.483505270024368"><ele>142.0</ele><time>2026-04-06T09:40:48.999Z</time></trkpt><trkpt lat="43.11966767850713" lon="11.483479889746276"><ele>142.0</ele><time>2026-04-06T09:40:49.999Z</time></trkpt><trkpt lat="43.11980597959027" lon="11.483456254557732"><ele>142.0</ele><time>2026-04-06T09:40:50.999Z</time></trkpt><trkpt lat="43.119943106577175" lon="11.48342912478372"><ele>142.0</ele><time>2026-04-06T09:40:51.999Z</time></trkpt><trkpt lat="43.12007874152922" lon="11.483406909736738"><ele>142.0</ele><time>2026-04-06T09:40:52.999Z</time></trkpt><trkpt lat="43.12022018761569" lon="11.483382152204111"><ele>142.0</ele><time>2026-04-06T09:40:53.999Z</time></trkpt><trkpt lat="43.12036161749573" lon="11.483364656922435"><ele>142.0</ele><time>2026-04-06T09:40:54.999Z</time></trkpt><trkpt lat="43.120503934043505" lon="11.483356509676828"><ele>142.0</ele><time>2026-04-06T09:40:55.999Z</time></trkpt><trkpt lat="43.12064873770191" lon="11.483347487290176"><ele>142.25</ele><time>2026-04-06T09:40:56.999Z</time></trkpt><trkpt lat="43.12079167061514" lon="11.48333568509139"><ele>142.5</ele><time>2026-04-06T09:40:57.999Z</time></trkpt><trkpt lat="43.120937001336536" lon="11.483320832948097"><ele>142.75</ele><time>2026-04-06T09:40:58.999Z</time></trkpt><trkpt lat="43.121083410270266" lon="11.483307753765455"><ele>143.0</ele><time>2026-04-06T09:40:59.999Z</time></trkpt><trkpt lat="43.1212242605688" lon="11.48329671138258"><ele>143.0</ele><time>2026-04-06T09:41:00.999Z</time></trkpt><trkpt lat="43.12135796899883" lon="11.48328819059952"><ele>143.0</ele><time>2026-04-06T09:41:01.999Z</time></trkpt><trkpt lat="43.12148929327066" lon="11.483274195118284"><ele>143.0</ele><time>2026-04-06T09:41:02.999Z</time></trkpt><trkpt lat="43.12161881889905" lon="11.48326064945585"><ele>143.0</ele><time>2026-04-06T09:41:03.999Z</time></trkpt><trkpt lat="43.121745313433955" lon="11.483248182069827"><ele>143.25</ele><time>2026-04-06T09:41:04.999Z</time></trkpt><trkpt lat="43.1218703959808" lon="11.483238453810946"><ele>143.5</ele><time>2026-04-06T09:41:05.999Z</time></trkpt><trkpt lat="43.12199197290243" lon="11.483228326890126"><ele>143.75</ele><time>2026-04-06T09:41:06.999Z</time></trkpt><trkpt lat="43.12211102962269" lon="11.483219857535154"><ele>144.0</ele><time>2026-04-06T09:41:07.999Z</time></trkpt><trkpt lat="43.122225907193936" lon="11.483209260130828"><ele>144.0</ele><time>2026-04-06T09:41:08.999Z</time></trkpt><trkpt lat="43.122339506676695" lon="11.483197580821418"><ele>144.0</ele><time>2026-04-06T09:41:09.999Z</time></trkpt><trkpt lat="43.12245310360339" lon="11.48318725211948"><ele>144.0</ele><time>2026-04-06T09:41:10.999Z</time></trkpt><trkpt lat="43.12256773707907" lon="11.483174492808454"><ele>144.0</ele><time>2026-04-06T09:41:11.999Z</time></trkpt><trkpt lat="43.12268496194747" lon="11.483162432346584"><ele>144.75</ele><time>2026-04-06T09:41:12.998Z</time></trkpt><trkpt lat="43.12280540804265" lon="11.483155086980888"><ele>145.5</ele><time>2026-04-06T09:41:13.998Z</time></trkpt><trkpt lat="43.12292745539698" lon="11.4831507084388"><ele>146.25</ele><time>2026-04-06T09:41:14.998Z</time></trkpt><trkpt lat="43.123052809894155" lon="11.483140221317075"><ele>147.0</ele><time>2026-04-06T09:41:15.998Z</time></trkpt><trkpt lat="43.123179333230354" lon="11.483127030083065"><ele>146.5</ele><time>2026-04-06T09:41:16.998Z</time></trkpt><trkpt lat="43.12330742841529" lon="11.483112392541262"><ele>146.0</ele><time>2026-04-06T09:41:17.998Z</time></trkpt><trkpt lat="43.12343588109976" lon="11.483097454629185"><ele>145.5</ele><time>2026-04-06T09:41:18.998Z</time></trkpt><trkpt lat="43.123565089563485" lon="11.483082850483186"><ele>145.0</ele><time>2026-04-06T09:41:19.998Z</time></trkpt><trkpt lat="43.12369368213633" lon="11.483070424368034"><ele>145.0</ele><time>2026-04-06T09:41:20.998Z</time></trkpt><trkpt lat="43.12382099727044" lon="11.483058383623655"><ele>145.0</ele><time>2026-04-06T09:41:21.998Z</time></trkpt><trkpt lat="43.123947405935866" lon="11.483046192079046"><ele>145.0</ele><time>2026-04-06T09:41:22.998Z</time></trkpt><trkpt lat="43.124073683458384" lon="11.483035929149343"><ele>145.0</ele><time>2026-04-06T09:41:23.998Z</time></trkpt><trkpt lat="43.12419913096658" lon="11.483023053879057"><ele>144.5</ele><time>2026-04-06T09:41:24.998Z</time></trkpt><trkpt lat="43.124329834344955" lon="11.483009762289532"><ele>144.0</ele><time>2026-04-06T09:41:25.998Z</time></trkpt><trkpt lat="43.12446393413682" lon="11.482997209958762"><ele>143.5</ele><time>2026-04-06T09:41:26.998Z</time></trkpt><trkpt lat="43.12460170989007" lon="11.48298704000371"><ele>143.0</ele><time>2026-04-06T09:41:27.998Z</time></trkpt><trkpt lat="43.12474862092053" lon="11.482970328202352"><ele>143.0</ele><time>2026-04-06T09:41:28.998Z</time></trkpt><trkpt lat="43.12490335792" lon="11.482946948331122"><ele>143.0</ele><time>2026-04-06T09:41:30Z</time></trkpt><trkpt lat="43.1250636160985" lon="11.482954981908039"><ele>143.0</ele><time>2026-04-06T09:41:31Z</time></trkpt><trkpt lat="43.12522295747109" lon="11.482940949526643"><ele>142.33333333333331</ele><time>2026-04-06T09:41:32Z</time></trkpt><trkpt lat="43.12538394634039" lon="11.48292677205957"><ele>141.66666666666666</ele><time>2026-04-06T09:41:33Z</time></trkpt><trkpt lat="43.125547023321936" lon="11.482912410703612"><ele>141.0</ele><time>2026-04-06T09:41:34Z</time></trkpt><trkpt lat="43.12571053032005" lon="11.482897854926343"><ele>141.33333333333334</ele><time>2026-04-06T09:41:35Z</time></trkpt><trkpt lat="43.12586929940003" lon="11.482883705512629"><ele>141.66666666666669</ele><time>2026-04-06T09:41:36Z</time></trkpt><trkpt lat="43.1260239657142" lon="11.482869815248332"><ele>142.0</ele><time>2026-04-06T09:41:37Z</time></trkpt><trkpt lat="43.1261704242226" lon="11.482839838215787"><ele>142.0</ele><time>2026-04-06T09:41:38Z</time></trkpt><trkpt lat="43.12631196608853" lon="11.482831742459311"><ele>142.0</ele><time>2026-04-06T09:41:39Z</time></trkpt><trkpt lat="43.12644860914253" lon="11.482821530944314"><ele>142.0</ele><time>2026-04-06T09:41:40Z</time></trkpt><trkpt lat="43.126574424688066" lon="11.482811619772146"><ele>142.0</ele><time>2026-04-06T09:41:41Z</time></trkpt><trkpt lat="43.12669012662551" lon="11.482803677161236"><ele>142.5</ele><time>2026-04-06T09:41:42Z</time></trkpt><trkpt lat="43.12680172357514" lon="11.482796572021547"><ele>143.0</ele><time>2026-04-06T09:41:43Z</time></trkpt><trkpt lat="43.12691330018746" lon="11.48278910698303"><ele>143.5</ele><time>2026-04-06T09:41:44Z</time></trkpt><trkpt lat="43.127026088488755" lon="11.482776486188783"><ele>144.0</ele><time>2026-04-06T09:41:45Z</time></trkpt><trkpt lat="43.127138882832014" lon="11.482760486698254"><ele>144.0</ele><time>2026-04-06T09:41:46Z</time></trkpt><trkpt lat="43.12725735553598" lon="11.482748645099004"><ele>144.0</ele><time>2026-04-06T09:41:47Z</time></trkpt><trkpt lat="43.12737345000408" lon="11.482738317281786"><ele>144.0</ele><time>2026-04-06T09:41:48Z</time></trkpt><trkpt lat="43.12748717449369" lon="11.48272798573873"><ele>144.0</ele><time>2026-04-06T09:41:49Z</time></trkpt><trkpt lat="43.12759762359616" lon="11.482720655920875"><ele>144.25</ele><time>2026-04-06T09:41:50Z</time></trkpt><trkpt lat="43.12771021872976" lon="11.482710897535213"><ele>144.5</ele><time>2026-04-06T09:41:51Z</time></trkpt><trkpt lat="43.1278302714106" lon="11.482698990853832"><ele>144.75</ele><time>2026-04-06T09:41:52Z</time></trkpt><trkpt lat="43.1279564122969" lon="11.482680255602393"><ele>145.0</ele><time>2026-04-06T09:41:53Z</time></trkpt><trkpt lat="43.1280944608414" lon="11.48268864303843"><ele>145.0</ele><time>2026-04-06T09:41:54Z</time></trkpt><trkpt lat="43.128241676294834" lon="11.48267521412147"><ele>145.0</ele><time>2026-04-06T09:41:55Z</time></trkpt><trkpt lat="43.12839495313588" lon="11.482661544174334"><ele>145.0</ele><time>2026-04-06T09:41:56Z</time></trkpt><trkpt lat="43.1285501637453" lon="11.482647701827368"><ele>145.0</ele><time>2026-04-06T09:41:57Z</time></trkpt><trkpt lat="43.12870480447616" lon="11.482619091140853"><ele>145.0</ele><time>2026-04-06T09:41:58Z</time></trkpt><trkpt lat="43.12885843860668" lon="11.482608649973065"><ele>145.0</ele><time>2026-04-06T09:41:59Z</time></trkpt><trkpt lat="43.129005187866944" lon="11.482597590166497"><ele>144.75</ele><time>2026-04-06T09:42:00Z</time></trkpt><trkpt lat="43.12914735786704" lon="11.482584161303087"><ele>144.5</ele><time>2026-04-06T09:42:01Z</time></trkpt><trkpt lat="43.12928088035285" lon="11.482570104106259"><ele>144.25</ele><time>2026-04-06T09:42:02Z</time></trkpt><trkpt lat="43.12940900800155" lon="11.482558170053016"><ele>144.0</ele><time>2026-04-06T09:42:03Z</time></trkpt><trkpt lat="43.129530733378374" lon="11.482550098799134"><ele>144.0</ele><time>2026-04-06T09:42:04Z</time></trkpt><trkpt lat="43.129649165866525" lon="11.482542490942242"><ele>144.0</ele><time>2026-04-06T09:42:05Z</time></trkpt><trkpt lat="43.129766799379894" lon="11.482534593837993"><ele>144.0</ele><time>2026-04-06T09:42:06Z</time></trkpt><trkpt lat="43.12987976569254" lon="11.48252586424534"><ele>144.0</ele><time>2026-04-06T09:42:07Z</time></trkpt><trkpt lat="43.12999697500603" lon="11.482517122667971"><ele>143.5</ele><time>2026-04-06T09:42:08Z</time></trkpt><trkpt lat="43.13011982409453" lon="11.482504603405069"><ele>143.0</ele><time>2026-04-06T09:42:09Z</time></trkpt><trkpt lat="43.13024190970644" lon="11.482494851544999"><ele>142.5</ele><time>2026-04-06T09:42:10Z</time></trkpt><trkpt lat="43.13036591035255" lon="11.482483339932621"><ele>142.0</ele><time>2026-04-06T09:42:11Z</time></trkpt><trkpt lat="43.130492685397144" lon="11.48247223845768"><ele>142.0</ele><time>2026-04-06T09:42:12Z</time></trkpt><trkpt lat="43.13063139583581" lon="11.482458248032941"><ele>142.0</ele><time>2026-04-06T09:42:13Z</time></trkpt><trkpt lat="43.13077847529783" lon="11.48243660329679"><ele>142.0</ele><time>2026-04-06T09:42:14Z</time></trkpt><trkpt lat="43.130932760416435" lon="11.482446044125668"><ele>142.0</ele><time>2026-04-06T09:42:15Z</time></trkpt><trkpt lat="43.13108686508278" lon="11.482413967869835"><ele>141.75</ele><time>2026-04-06T09:42:16Z</time></trkpt><trkpt lat="43.13124005434513" lon="11.482411218654608"><ele>141.5</ele><time>2026-04-06T09:42:17Z</time></trkpt><trkpt lat="43.131387411714826" lon="11.482404040648468"><ele>141.25</ele><time>2026-04-06T09:42:18Z</time></trkpt><trkpt lat="43.13152885986993" lon="11.482392148724319"><ele>141.0</ele><time>2026-04-06T09:42:19Z</time></trkpt><trkpt lat="43.13166567718979" lon="11.482383753400747"><ele>141.75</ele><time>2026-04-06T09:42:20Z</time></trkpt><trkpt lat="43.13179818825583" lon="11.48238512357471"><ele>142.5</ele><time>2026-04-06T09:42:21Z</time></trkpt><trkpt lat="43.131931765192604" lon="11.48240139587781"><ele>143.25</ele><time>2026-04-06T09:42:21.999Z</time></trkpt><trkpt lat="43.13206913098448" lon="11.482432301471556"><ele>144.0</ele><time>2026-04-06T09:42:22.999Z</time></trkpt><trkpt lat="43.132207254430725" lon="11.482479215089464"><ele>144.0</ele><time>2026-04-06T09:42:23.999Z</time></trkpt><trkpt lat="43.132345639073286" lon="11.482529609034113"><ele>144.0</ele><time>2026-04-06T09:42:24.999Z</time></trkpt><trkpt lat="43.1324803288129" lon="11.482579329412166"><ele>144.0</ele><time>2026-04-06T09:42:25.999Z</time></trkpt><trkpt lat="43.13261049159181" lon="11.482629308786201"><ele>144.0</ele><time>2026-04-06T09:42:26.999Z</time></trkpt><trkpt lat="43.13273701460325" lon="11.482676960870497"><ele>143.75</ele><time>2026-04-06T09:42:27.999Z</time></trkpt><trkpt lat="43.13286034132571" lon="11.482722807885706"><ele>143.5</ele><time>2026-04-06T09:42:28.999Z</time></trkpt><trkpt lat="43.13297968644137" lon="11.482769226237508"><ele>143.25</ele><time>2026-04-06T09:42:29.999Z</time></trkpt><trkpt lat="43.13309542393013" lon="11.48281433934305"><ele>143.0</ele><time>2026-04-06T09:42:30.999Z</time></trkpt><trkpt lat="43.13320897086514" lon="11.482858985015843"><ele>143.5</ele><time>2026-04-06T09:42:31.999Z</time></trkpt><trkpt lat="43.13332121300288" lon="11.482905712414938"><ele>144.0</ele><time>2026-04-06T09:42:32.999Z</time></trkpt><trkpt lat="43.133432237292745" lon="11.482947535421696"><ele>144.5</ele><time>2026-04-06T09:42:33.999Z</time></trkpt><trkpt lat="43.13354935720316" lon="11.482982670397995"><ele>145.0</ele><time>2026-04-06T09:42:34.999Z</time></trkpt><trkpt lat="43.13367326653773" lon="11.48303173746812"><ele>145.0</ele><time>2026-04-06T09:42:35.999Z</time></trkpt><trkpt lat="43.133807702615286" lon="11.483066885100879"><ele>145.0</ele><time>2026-04-06T09:42:36.999Z</time></trkpt><trkpt lat="43.133942970589445" lon="11.48309561439091"><ele>145.0</ele><time>2026-04-06T09:42:37.999Z</time></trkpt><trkpt lat="43.13407280468177" lon="11.483096710925436"><ele>145.0</ele><time>2026-04-06T09:42:38.999Z</time></trkpt><trkpt lat="43.13418798999998" lon="11.483121775642147"><ele>145.0</ele><time>2026-04-06T09:42:39.999Z</time></trkpt><trkpt lat="43.13429710788074" lon="11.48313953954583"><ele>145.0</ele><time>2026-04-06T09:42:40.999Z</time></trkpt><trkpt lat="43.13440000927188" lon="11.483161703893574"><ele>145.0</ele><time>2026-04-06T09:42:41.999Z</time></trkpt><trkpt lat="43.13449563579845" lon="11.48318491931891"><ele>145.0</ele><time>2026-04-06T09:42:42.999Z</time></trkpt><trkpt lat="43.13458542560088" lon="11.483203301676038"><ele>145.0</ele><time>2026-04-06T09:42:43.999Z</time></trkpt><trkpt lat="43.13466935441247" lon="11.483217350047896"><ele>145.0</ele><time>2026-04-06T09:42:44.999Z</time></trkpt><trkpt lat="43.134755536581" lon="11.483232535333306"><ele>145.0</ele><time>2026-04-06T09:42:45.999Z</time></trkpt><trkpt lat="43.13484141581924" lon="11.48324985858992"><ele>145.0</ele><time>2026-04-06T09:42:46.999Z</time></trkpt><trkpt lat="43.13492406261812" lon="11.483268052212495"><ele>145.0</ele><time>2026-04-06T09:42:47.999Z</time></trkpt><trkpt lat="43.13500398167738" lon="11.483283585046104"><ele>145.0</ele><time>2026-04-06T09:42:48.999Z</time></trkpt><trkpt lat="43.135078737763884" lon="11.483297142192114"><ele>145.0</ele><time>2026-04-06T09:42:49.999Z</time></trkpt><trkpt lat="43.13514490536041" lon="11.483310402188007"><ele>145.16666666666669</ele><time>2026-04-06T09:42:50.999Z</time></trkpt><trkpt lat="43.1352104380595" lon="11.48332630334796"><ele>145.33333333333334</ele><time>2026-04-06T09:42:51.999Z</time></trkpt><trkpt lat="43.135274787211" lon="11.483334619839741"><ele>145.5</ele><time>2026-04-06T09:42:52.999Z</time></trkpt><trkpt lat="43.13534170177411" lon="11.483350331656915"><ele>145.66666666666666</ele><time>2026-04-06T09:42:53.999Z</time></trkpt><trkpt lat="43.135417343196195" lon="11.483371515373086"><ele>145.83333333333331</ele><time>2026-04-06T09:42:54.999Z</time></trkpt><trkpt lat="43.13550403378977" lon="11.483381226148083"><ele>146.0</ele><time>2026-04-06T09:42:55.999Z</time></trkpt><trkpt lat="43.135596733349274" lon="11.483389180952445"><ele>146.0</ele><time>2026-04-06T09:42:56.999Z</time></trkpt><trkpt lat="43.13569592818721" lon="11.483398298176779"><ele>146.0</ele><time>2026-04-06T09:42:57.999Z</time></trkpt><trkpt lat="43.135794190095424" lon="11.48340709019592"><ele>146.0</ele><time>2026-04-06T09:42:58.999Z</time></trkpt><trkpt lat="43.13588897978675" lon="11.483412526178142"><ele>146.0</ele><time>2026-04-06T09:42:59.999Z</time></trkpt><trkpt lat="43.13598928695173" lon="11.483417347497175"><ele>146.0</ele><time>2026-04-06T09:43:00.999Z</time></trkpt><trkpt lat="43.13609249646451" lon="11.483419869158135"><ele>146.0</ele><time>2026-04-06T09:43:01.999Z</time></trkpt><trkpt lat="43.13619648045078" lon="11.483420773641678"><ele>146.0</ele><time>2026-04-06T09:43:02.999Z</time></trkpt><trkpt lat="43.136298910029346" lon="11.483420763939703"><ele>146.0</ele><time>2026-04-06T09:43:03.999Z</time></trkpt><trkpt lat="43.136395707023865" lon="11.483418835541435"><ele>146.0</ele><time>2026-04-06T09:43:04.999Z</time></trkpt><trkpt lat="43.13648889575439" lon="11.48341091378673"><ele>146.0</ele><time>2026-04-06T09:43:05.999Z</time></trkpt><trkpt lat="43.1365809549975" lon="11.483406269659046"><ele>146.0</ele><time>2026-04-06T09:43:06.999Z</time></trkpt><trkpt lat="43.13667395133386" lon="11.483411819324596"><ele>146.0</ele><time>2026-04-06T09:43:07.999Z</time></trkpt><trkpt lat="43.13677342178306" lon="11.483413850436412"><ele>146.0</ele><time>2026-04-06T09:43:08.999Z</time></trkpt><trkpt lat="43.13689032407896" lon="11.483396150387206"><ele>146.0</ele><time>2026-04-06T09:43:09.999Z</time></trkpt><trkpt lat="43.137022209541186" lon="11.483378842799311"><ele>146.0</ele><time>2026-04-06T09:43:10.999Z</time></trkpt><trkpt lat="43.13715892933305" lon="11.483377036285619"><ele>146.0</ele><time>2026-04-06T09:43:11.999Z</time></trkpt><trkpt lat="43.137294791708705" lon="11.48338458880153"><ele>146.0</ele><time>2026-04-06T09:43:12.999Z</time></trkpt><trkpt lat="43.13742138082735" lon="11.48339100569286"><ele>146.0</ele><time>2026-04-06T09:43:13.999Z</time></trkpt><trkpt lat="43.137541357006164" lon="11.48339002323477"><ele>146.0</ele><time>2026-04-06T09:43:14.999Z</time></trkpt><trkpt lat="43.137658042686326" lon="11.483390836014276"><ele>146.25</ele><time>2026-04-06T09:43:15.999Z</time></trkpt><trkpt lat="43.13777490276775" lon="11.4833872549317"><ele>146.5</ele><time>2026-04-06T09:43:16.999Z</time></trkpt><trkpt lat="43.13789090492812" lon="11.48338471306149"><ele>146.75</ele><time>2026-04-06T09:43:17.998Z</time></trkpt><trkpt lat="43.1380062799888" lon="11.483380202139267"><ele>147.0</ele><time>2026-04-06T09:43:18.998Z</time></trkpt><trkpt lat="43.138119962081575" lon="11.483379267517945"><ele>146.75</ele><time>2026-04-06T09:43:19.998Z</time></trkpt><trkpt lat="43.13823220559029" lon="11.483372871980999"><ele>146.5</ele><time>2026-04-06T09:43:20.998Z</time></trkpt><trkpt lat="43.138348856404555" lon="11.48336186982457"><ele>146.25</ele><time>2026-04-06T09:43:21.998Z</time></trkpt><trkpt lat="43.13846641764353" lon="11.48333960994489"><ele>146.0</ele><time>2026-04-06T09:43:22.998Z</time></trkpt><trkpt lat="43.13858550488194" lon="11.483307041844084"><ele>146.0</ele><time>2026-04-06T09:43:23.998Z</time></trkpt><trkpt lat="43.13870151673797" lon="11.483266002809076"><ele>146.0</ele><time>2026-04-06T09:43:24.998Z</time></trkpt><trkpt lat="43.13881210522887" lon="11.483222558735092"><ele>146.0</ele><time>2026-04-06T09:43:25.998Z</time></trkpt><trkpt lat="43.13891846441038" lon="11.483178750518794"><ele>146.0</ele><time>2026-04-06T09:43:26.998Z</time></trkpt><trkpt lat="43.13901836647236" lon="11.48313286093873"><ele>145.8</ele><time>2026-04-06T09:43:27.998Z</time></trkpt><trkpt lat="43.13911532059536" lon="11.483080155835232"><ele>145.6</ele><time>2026-04-06T09:43:28.998Z</time></trkpt><trkpt lat="43.13920661966353" lon="11.483024954890917"><ele>145.4</ele><time>2026-04-06T09:43:29.998Z</time></trkpt><trkpt lat="43.13929282596284" lon="11.482966206277002"><ele>145.2</ele><time>2026-04-06T09:43:30.998Z</time></trkpt><trkpt lat="43.13937470099204" lon="11.482910873815584"><ele>145.0</ele><time>2026-04-06T09:43:31.998Z</time></trkpt><trkpt lat="43.139455204969465" lon="11.482847702502463"><ele>145.4</ele><time>2026-04-06T09:43:32.998Z</time></trkpt><trkpt lat="43.13953960435578" lon="11.482782316852196"><ele>145.8</ele><time>2026-04-06T09:43:33.998Z</time></trkpt><trkpt lat="43.13962607483279" lon="11.482718588825808"><ele>146.2</ele><time>2026-04-06T09:43:34.998Z</time></trkpt><trkpt lat="43.13971097104009" lon="11.48265763791275"><ele>146.6</ele><time>2026-04-06T09:43:36Z</time></trkpt><trkpt lat="43.13979680332922" lon="11.48259874475209"><ele>147.0</ele><time>2026-04-06T09:43:37Z</time></trkpt><trkpt lat="43.1398811323953" lon="11.482540809695182"><ele>146.2</ele><time>2026-04-06T09:43:38Z</time></trkpt><trkpt lat="43.13996628583077" lon="11.482477627688525"><ele>145.39999999999998</ele><time>2026-04-06T09:43:39Z</time></trkpt><trkpt lat="43.14005330220206" lon="11.48241578151533"><ele>144.60000000000002</ele><time>2026-04-06T09:43:40Z</time></trkpt><trkpt lat="43.14013990063528" lon="11.482358850479189"><ele>143.8</ele><time>2026-04-06T09:43:41Z</time></trkpt><trkpt lat="43.14022574230139" lon="11.482299034011206"><ele>143.0</ele><time>2026-04-06T09:43:42Z</time></trkpt><trkpt lat="43.14031594469608" lon="11.482230137141194"><ele>143.0</ele><time>2026-04-06T09:43:43Z</time></trkpt><trkpt lat="43.140412514138646" lon="11.48215761241836"><ele>143.0</ele><time>2026-04-06T09:43:44Z</time></trkpt><trkpt lat="43.14051276806637" lon="11.482080030625518"><ele>143.0</ele><time>2026-04-06T09:43:45Z</time></trkpt><trkpt lat="43.14061188058993" lon="11.482001568661936"><ele>143.0</ele><time>2026-04-06T09:43:46Z</time></trkpt><trkpt lat="43.14071117015311" lon="11.48192943035798"><ele>142.6</ele><time>2026-04-06T09:43:47Z</time></trkpt><trkpt lat="43.140807469115614" lon="11.481858030223057"><ele>142.20000000000002</ele><time>2026-04-06T09:43:48Z</time></trkpt><trkpt lat="43.14090226329964" lon="11.481785401331651"><ele>141.8</ele><time>2026-04-06T09:43:49Z</time></trkpt><trkpt lat="43.14100444842377" lon="11.481739564211551"><ele>141.4</ele><time>2026-04-06T09:43:50Z</time></trkpt><trkpt lat="43.14109317697144" lon="11.481677466662413"><ele>141.0</ele><time>2026-04-06T09:43:51Z</time></trkpt><trkpt lat="43.141171171426826" lon="11.4816070852209"><ele>141.0</ele><time>2026-04-06T09:43:52Z</time></trkpt><trkpt lat="43.141254219189605" lon="11.481557577754348"><ele>141.0</ele><time>2026-04-06T09:43:53Z</time></trkpt><trkpt lat="43.141336596176906" lon="11.481505155783807"><ele>141.0</ele><time>2026-04-06T09:43:54Z</time></trkpt><trkpt lat="43.141415821772334" lon="11.481444019161032"><ele>141.0</ele><time>2026-04-06T09:43:55Z</time></trkpt><trkpt lat="43.141488731333574" lon="11.481378369201142"><ele>141.0</ele><time>2026-04-06T09:43:56Z</time></trkpt><trkpt lat="43.14156248858026" lon="11.481317991532704"><ele>141.0</ele><time>2026-04-06T09:43:57Z</time></trkpt><trkpt lat="43.14162335814255" lon="11.481251162835047"><ele>141.16666666666666</ele><time>2026-04-06T09:43:58Z</time></trkpt><trkpt lat="43.141683889962906" lon="11.481175508605288"><ele>141.33333333333334</ele><time>2026-04-06T09:43:59Z</time></trkpt><trkpt lat="43.14174123832325" lon="11.481098776438316"><ele>141.5</ele><time>2026-04-06T09:44:00Z</time></trkpt><trkpt lat="43.1418000478735" lon="11.48101542679258"><ele>141.66666666666669</ele><time>2026-04-06T09:44:01Z</time></trkpt><trkpt lat="43.14185612130255" lon="11.480933726433765"><ele>141.83333333333334</ele><time>2026-04-06T09:44:02Z</time></trkpt><trkpt lat="43.141915923126646" lon="11.48085763742816"><ele>142.0</ele><time>2026-04-06T09:44:03Z</time></trkpt><trkpt lat="43.14197487131438" lon="11.480783321262656"><ele>142.0</ele><time>2026-04-06T09:44:04Z</time></trkpt><trkpt lat="43.142036632429544" lon="11.480708797531053"><ele>142.0</ele><time>2026-04-06T09:44:05Z</time></trkpt><trkpt lat="43.14210413735293" lon="11.480629037352557"><ele>142.0</ele><time>2026-04-06T09:44:06Z</time></trkpt><trkpt lat="43.14217212077015" lon="11.480546386313135"><ele>142.0</ele><time>2026-04-06T09:44:07Z</time></trkpt><trkpt lat="43.1422390950159" lon="11.480462563444252"><ele>142.0</ele><time>2026-04-06T09:44:08Z</time></trkpt><trkpt lat="43.142307692379674" lon="11.48037933901787"><ele>142.0</ele><time>2026-04-06T09:44:09Z</time></trkpt><trkpt lat="43.14237577419405" lon="11.48029691317682"><ele>142.4</ele><time>2026-04-06T09:44:10Z</time></trkpt><trkpt lat="43.14244062688809" lon="11.48021202327839"><ele>142.79999999999998</ele><time>2026-04-06T09:44:11Z</time></trkpt><trkpt lat="43.14250451020562" lon="11.480126193664377"><ele>143.2</ele><time>2026-04-06T09:44:12Z</time></trkpt><trkpt lat="43.14256789603505" lon="11.480035561518847"><ele>143.6</ele><time>2026-04-06T09:44:13Z</time></trkpt><trkpt lat="43.14262645233814" lon="11.479930534105593"><ele>144.0</ele><time>2026-04-06T09:44:14Z</time></trkpt><trkpt lat="43.14268152934067" lon="11.479808922496304"><ele>144.0</ele><time>2026-04-06T09:44:15Z</time></trkpt><trkpt lat="43.142733516875886" lon="11.479660587012019"><ele>144.0</ele><time>2026-04-06T09:44:16Z</time></trkpt><trkpt lat="43.142769894620265" lon="11.479482656623437"><ele>144.0</ele><time>2026-04-06T09:44:17Z</time></trkpt><trkpt lat="43.14280425339585" lon="11.479283394122888"><ele>144.0</ele><time>2026-04-06T09:44:18Z</time></trkpt><trkpt lat="43.142844580658505" lon="11.4790775825525"><ele>143.66666666666666</ele><time>2026-04-06T09:44:19Z</time></trkpt><trkpt lat="43.14289076721646" lon="11.478865835748115"><ele>143.33333333333331</ele><time>2026-04-06T09:44:20Z</time></trkpt><trkpt lat="43.142930799403196" lon="11.478662064966379"><ele>143.0</ele><time>2026-04-06T09:44:21Z</time></trkpt><trkpt lat="43.142971912126605" lon="11.4784667122803"><ele>143.0</ele><time>2026-04-06T09:44:22Z</time></trkpt><trkpt lat="43.14301024648888" lon="11.478264221345084"><ele>143.0</ele><time>2026-04-06T09:44:23Z</time></trkpt><trkpt lat="43.14304648587153" lon="11.478063072524659"><ele>143.0</ele><time>2026-04-06T09:44:24Z</time></trkpt><trkpt lat="43.14308783502095" lon="11.477870811105097"><ele>143.0</ele><time>2026-04-06T09:44:25Z</time></trkpt><trkpt lat="43.143137686148705" lon="11.477689641670962"><ele>143.0</ele><time>2026-04-06T09:44:26Z</time></trkpt><trkpt lat="43.14319989274935" lon="11.47752220493077"><ele>143.0</ele><time>2026-04-06T09:44:27Z</time></trkpt><trkpt lat="43.14327304388322" lon="11.477372317514646"><ele>143.0</ele><time>2026-04-06T09:44:28Z</time></trkpt><trkpt lat="43.14335102241641" lon="11.47723242613955"><ele>143.0</ele><time>2026-04-06T09:44:29Z</time></trkpt><trkpt lat="43.143444365576876" lon="11.477103074949"><ele>143.0</ele><time>2026-04-06T09:44:30Z</time></trkpt><trkpt lat="43.143542211971315" lon="11.47698147785957"><ele>143.0</ele><time>2026-04-06T09:44:30.999Z</time></trkpt><trkpt lat="43.14364900224168" lon="11.476862370546785"><ele>143.0</ele><time>2026-04-06T09:44:31.999Z</time></trkpt><trkpt lat="43.143759610685" lon="11.476744748565224"><ele>143.0</ele><time>2026-04-06T09:44:32.999Z</time></trkpt><trkpt lat="43.143873645808725" lon="11.476623498713352"><ele>143.0</ele><time>2026-04-06T09:44:33.999Z</time></trkpt><trkpt lat="43.14398801503928" lon="11.476497000891117"><ele>143.0</ele><time>2026-04-06T09:44:34.999Z</time></trkpt><trkpt lat="43.14410756973275" lon="11.476373921423255"><ele>143.0</ele><time>2026-04-06T09:44:35.999Z</time></trkpt><trkpt lat="43.144237302262916" lon="11.47626851094861"><ele>142.66666666666666</ele><time>2026-04-06T09:44:36.999Z</time></trkpt><trkpt lat="43.14437895717832" lon="11.476198085729827"><ele>142.33333333333334</ele><time>2026-04-06T09:44:37.999Z</time></trkpt><trkpt lat="43.14452971696557" lon="11.476183890119824"><ele>142.0</ele><time>2026-04-06T09:44:38.999Z</time></trkpt><trkpt lat="43.14468170970003" lon="11.476212799335949"><ele>142.0</ele><time>2026-04-06T09:44:39.999Z</time></trkpt><trkpt lat="43.144831646308155" lon="11.476254616499013"><ele>142.0</ele><time>2026-04-06T09:44:40.999Z</time></trkpt><trkpt lat="43.144982322869396" lon="11.476273405425903"><ele>142.0</ele><time>2026-04-06T09:44:41.999Z</time></trkpt><trkpt lat="43.14513702209331" lon="11.47626932421813"><ele>142.0</ele><time>2026-04-06T09:44:42.999Z</time></trkpt><trkpt lat="43.145295623623454" lon="11.476249860721278"><ele>142.0</ele><time>2026-04-06T09:44:43.999Z</time></trkpt><trkpt lat="43.145455081352566" lon="11.47621217788217"><ele>142.0</ele><time>2026-04-06T09:44:44.999Z</time></trkpt><trkpt lat="43.145616677771656" lon="11.476170257839765"><ele>143.0</ele><time>2026-04-06T09:44:45.999Z</time></trkpt><trkpt lat="43.145778696302564" lon="11.476118596760116"><ele>144.0</ele><time>2026-04-06T09:44:46.999Z</time></trkpt><trkpt lat="43.14594235517831" lon="11.476059479611852"><ele>145.0</ele><time>2026-04-06T09:44:47.999Z</time></trkpt><trkpt lat="43.14610717615805" lon="11.475996073357603"><ele>145.0</ele><time>2026-04-06T09:44:48.999Z</time></trkpt><trkpt lat="43.14627371216218" lon="11.47593638855055"><ele>145.0</ele><time>2026-04-06T09:44:49.999Z</time></trkpt><trkpt lat="43.14644092594569" lon="11.475875985915955"><ele>145.0</ele><time>2026-04-06T09:44:50.999Z</time></trkpt><trkpt lat="43.14660936288307" lon="11.47581553612353"><ele>146.0</ele><time>2026-04-06T09:44:51.999Z</time></trkpt><trkpt lat="43.1467776933273" lon="11.475755399655574"><ele>147.0</ele><time>2026-04-06T09:44:52.999Z</time></trkpt><trkpt lat="43.146945402849525" lon="11.475693459374947"><ele>148.0</ele><time>2026-04-06T09:44:53.999Z</time></trkpt><trkpt lat="43.1471128992868" lon="11.475630669659251"><ele>148.0</ele><time>2026-04-06T09:44:54.999Z</time></trkpt><trkpt lat="43.14727953046595" lon="11.475570780503281"><ele>148.0</ele><time>2026-04-06T09:44:55.999Z</time></trkpt><trkpt lat="43.14744548181388" lon="11.475508546062951"><ele>148.0</ele><time>2026-04-06T09:44:56.999Z</time></trkpt><trkpt lat="43.14761024341507" lon="11.475449590096398"><ele>146.66666666666669</ele><time>2026-04-06T09:44:57.999Z</time></trkpt><trkpt lat="43.147767489296506" lon="11.475392644009176"><ele>145.33333333333334</ele><time>2026-04-06T09:44:58.999Z</time></trkpt><trkpt lat="43.14792604421057" lon="11.475333700819206"><ele>144.0</ele><time>2026-04-06T09:44:59.999Z</time></trkpt><trkpt lat="43.14808540671746" lon="11.475274085201413"><ele>144.66666666666666</ele><time>2026-04-06T09:45:00.999Z</time></trkpt><trkpt lat="43.148243599389865" lon="11.475213259380784"><ele>145.33333333333331</ele><time>2026-04-06T09:45:01.999Z</time></trkpt><trkpt lat="43.148402105398986" lon="11.475151902626713"><ele>146.0</ele><time>2026-04-06T09:45:02.999Z</time></trkpt><trkpt lat="43.1485598404493" lon="11.475090136383708"><ele>146.0</ele><time>2026-04-06T09:45:03.999Z</time></trkpt><trkpt lat="43.148718455618706" lon="11.475030810638769"><ele>146.0</ele><time>2026-04-06T09:45:04.999Z</time></trkpt><trkpt lat="43.14887681493521" lon="11.474969937924715"><ele>146.0</ele><time>2026-04-06T09:45:05.999Z</time></trkpt><trkpt lat="43.14903515890053" lon="11.474908674601235"><ele>146.66666666666666</ele><time>2026-04-06T09:45:06.999Z</time></trkpt><trkpt lat="43.14919370845508" lon="11.474845323936904"><ele>147.33333333333334</ele><time>2026-04-06T09:45:07.999Z</time></trkpt><trkpt lat="43.14934977410053" lon="11.474770215909372"><ele>148.0</ele><time>2026-04-06T09:45:08.999Z</time></trkpt><trkpt lat="43.149503200102835" lon="11.474678848525327"><ele>147.66666666666669</ele><time>2026-04-06T09:45:09.999Z</time></trkpt><trkpt lat="43.14965201222211" lon="11.474573694339615"><ele>147.33333333333334</ele><time>2026-04-06T09:45:10.999Z</time></trkpt><trkpt lat="43.14980498524074" lon="11.474474131927321"><ele>147.0</ele><time>2026-04-06T09:45:11.999Z</time></trkpt><trkpt lat="43.14996287976552" lon="11.47438267449284"><ele>147.0</ele><time>2026-04-06T09:45:12.999Z</time></trkpt><trkpt lat="43.15011991511059" lon="11.47428709190112"><ele>147.0</ele><time>2026-04-06T09:45:13.999Z</time></trkpt><trkpt lat="43.15027556106011" lon="11.474187584274297"><ele>147.0</ele><time>2026-04-06T09:45:14.999Z</time></trkpt><trkpt lat="43.15042732865618" lon="11.474081769783202"><ele>147.0</ele><time>2026-04-06T09:45:15.999Z</time></trkpt><trkpt lat="43.15056802112485" lon="11.473958095631366"><ele>147.0</ele><time>2026-04-06T09:45:16.999Z</time></trkpt><trkpt lat="43.15070409507827" lon="11.473820606122198"><ele>147.0</ele><time>2026-04-06T09:45:17.999Z</time></trkpt><trkpt lat="43.150840599604635" lon="11.473681187285129"><ele>147.33333333333334</ele><time>2026-04-06T09:45:18.999Z</time></trkpt><trkpt lat="43.150978138533596" lon="11.473544399763837"><ele>147.66666666666669</ele><time>2026-04-06T09:45:19.999Z</time></trkpt><trkpt lat="43.151115150907636" lon="11.473406069451013"><ele>148.0</ele><time>2026-04-06T09:45:20.999Z</time></trkpt><trkpt lat="43.151255364942685" lon="11.473270671686821"><ele>148.0</ele><time>2026-04-06T09:45:21.999Z</time></trkpt><trkpt lat="43.15139804476773" lon="11.473136773800892"><ele>148.0</ele><time>2026-04-06T09:45:22.999Z</time></trkpt><trkpt lat="43.151541769238904" lon="11.473004457431493"><ele>148.0</ele><time>2026-04-06T09:45:23.999Z</time></trkpt><trkpt lat="43.15169378709414" lon="11.47288417504826"><ele>146.33333333333334</ele><time>2026-04-06T09:45:24.999Z</time></trkpt><trkpt lat="43.15185227010166" lon="11.472780649955032"><ele>144.66666666666666</ele><time>2026-04-06T09:45:25.999Z</time></trkpt><trkpt lat="43.15201688521021" lon="11.472693451907256"><ele>143.0</ele><time>2026-04-06T09:45:26.998Z</time></trkpt><trkpt lat="43.15218584023348" lon="11.472617796024567"><ele>143.0</ele><time>2026-04-06T09:45:27.998Z</time></trkpt><trkpt lat="43.1523594026358" lon="11.472551686416022"><ele>143.0</ele><time>2026-04-06T09:45:28.998Z</time></trkpt><trkpt lat="43.152532135031876" lon="11.472496420695396"><ele>143.0</ele><time>2026-04-06T09:45:29.998Z</time></trkpt><trkpt lat="43.15270717165287" lon="11.472454723012506"><ele>143.0</ele><time>2026-04-06T09:45:30.998Z</time></trkpt><trkpt lat="43.1528811618093" lon="11.47241631763806"><ele>143.0</ele><time>2026-04-06T09:45:31.998Z</time></trkpt><trkpt lat="43.153054364157" lon="11.472374199272709"><ele>143.0</ele><time>2026-04-06T09:45:32.998Z</time></trkpt><trkpt lat="43.15322775079401" lon="11.472332519141702"><ele>143.0</ele><time>2026-04-06T09:45:33.998Z</time></trkpt><trkpt lat="43.15340207924836" lon="11.472293579224038"><ele>143.0</ele><time>2026-04-06T09:45:34.998Z</time></trkpt><trkpt lat="43.15357532355025" lon="11.472254475833454"><ele>143.0</ele><time>2026-04-06T09:45:35.998Z</time></trkpt><trkpt lat="43.15374973647651" lon="11.472217794633243"><ele>143.0</ele><time>2026-04-06T09:45:36.998Z</time></trkpt><trkpt lat="43.15392458369408" lon="11.472178918413338"><ele>143.0</ele><time>2026-04-06T09:45:37.998Z</time></trkpt><trkpt lat="43.15410074731694" lon="11.472140825598801"><ele>143.0</ele><time>2026-04-06T09:45:38.998Z</time></trkpt><trkpt lat="43.15427785936563" lon="11.472105156171791"><ele>143.33333333333331</ele><time>2026-04-06T09:45:39.998Z</time></trkpt><trkpt lat="43.154452695733525" lon="11.472068912513066"><ele>143.66666666666666</ele><time>2026-04-06T09:45:40.998Z</time></trkpt><trkpt lat="43.15462497776628" lon="11.472030045192387"><ele>144.0</ele><time>2026-04-06T09:45:42Z</time></trkpt><trkpt lat="43.15479713423266" lon="11.471990313241205"><ele>144.33333333333334</ele><time>2026-04-06T09:45:43Z</time></trkpt><trkpt lat="43.15496799987877" lon="11.471949889926881"><ele>144.66666666666669</ele><time>2026-04-06T09:45:44Z</time></trkpt><trkpt lat="43.15514093414237" lon="11.471911241740775"><ele>145.0</ele><time>2026-04-06T09:45:45Z</time></trkpt><trkpt lat="43.15531966579489" lon="11.471870204190344"><ele>145.0</ele><time>2026-04-06T09:45:46Z</time></trkpt><trkpt lat="43.15550333200256" lon="11.471828613526908"><ele>145.0</ele><time>2026-04-06T09:45:47Z</time></trkpt><trkpt lat="43.155690126494434" lon="11.471786443787531"><ele>145.0</ele><time>2026-04-06T09:45:48Z</time></trkpt><trkpt lat="43.15587917824311" lon="11.471740946162134"><ele>146.0</ele><time>2026-04-06T09:45:49Z</time></trkpt><trkpt lat="43.15606920171735" lon="11.471690662703026"><ele>147.0</ele><time>2026-04-06T09:45:50Z</time></trkpt><trkpt lat="43.1562633893578" lon="11.471645535663994"><ele>148.0</ele><time>2026-04-06T09:45:51Z</time></trkpt><trkpt lat="43.156460326567654" lon="11.47160079742544"><ele>148.33333333333334</ele><time>2026-04-06T09:45:52Z</time></trkpt><trkpt lat="43.156660978721405" lon="11.471553349624282"><ele>148.66666666666666</ele><time>2026-04-06T09:45:53Z</time></trkpt><trkpt lat="43.15686355783108" lon="11.471504307125466"><ele>149.0</ele><time>2026-04-06T09:45:54Z</time></trkpt><trkpt lat="43.157068890134305" lon="11.471458822700258"><ele>149.0</ele><time>2026-04-06T09:45:55Z</time></trkpt><trkpt lat="43.157277467903526" lon="11.4714168702022"><ele>149.0</ele><time>2026-04-06T09:45:56Z</time></trkpt><trkpt lat="43.15748688925418" lon="11.471370658496332"><ele>149.0</ele><time>2026-04-06T09:45:57Z</time></trkpt><trkpt lat="43.15769735306489" lon="11.47131348156194"><ele>148.33333333333331</ele><time>2026-04-06T09:45:58Z</time></trkpt><trkpt lat="43.15789746480111" lon="11.471228242505678"><ele>147.66666666666666</ele><time>2026-04-06T09:45:59Z</time></trkpt><trkpt lat="43.158093629128665" lon="11.471109675623953"><ele>147.0</ele><time>2026-04-06T09:46:00Z</time></trkpt><trkpt lat="43.15828861577135" lon="11.470971136547034"><ele>147.0</ele><time>2026-04-06T09:46:01Z</time></trkpt><trkpt lat="43.158483006448726" lon="11.470828906318912"><ele>147.0</ele><time>2026-04-06T09:46:02Z</time></trkpt><trkpt lat="43.15867504126392" lon="11.47067955230188"><ele>147.0</ele><time>2026-04-06T09:46:03Z</time></trkpt><trkpt lat="43.158870181030316" lon="11.470528670790838"><ele>147.0</ele><time>2026-04-06T09:46:04Z</time></trkpt><trkpt lat="43.15906430335228" lon="11.470369045587335"><ele>147.0</ele><time>2026-04-06T09:46:05Z</time></trkpt><trkpt lat="43.159256363230384" lon="11.470197392645836"><ele>147.0</ele><time>2026-04-06T09:46:06Z</time></trkpt><trkpt lat="43.15944611082695" lon="11.470019874802391"><ele>147.0</ele><time>2026-04-06T09:46:07Z</time></trkpt><trkpt lat="43.159629951763826" lon="11.469843273890046"><ele>147.0</ele><time>2026-04-06T09:46:08Z</time></trkpt><trkpt lat="43.15980831864167" lon="11.46967401928486"><ele>147.0</ele><time>2026-04-06T09:46:09Z</time></trkpt><trkpt lat="43.15998424591161" lon="11.469507199338492"><ele>147.0</ele><time>2026-04-06T09:46:10Z</time></trkpt><trkpt lat="43.160155031839714" lon="11.46934061578768"><ele>146.66666666666666</ele><time>2026-04-06T09:46:11Z</time></trkpt><trkpt lat="43.16032584836349" lon="11.469177441895114"><ele>146.33333333333331</ele><time>2026-04-06T09:46:12Z</time></trkpt><trkpt lat="43.160493264721616" lon="11.469020198815782"><ele>146.0</ele><time>2026-04-06T09:46:13Z</time></trkpt><trkpt lat="43.1606638551002" lon="11.468878498914725"><ele>147.0</ele><time>2026-04-06T09:46:14Z</time></trkpt><trkpt lat="43.16084041067341" lon="11.468776035533015"><ele>148.0</ele><time>2026-04-06T09:46:15Z</time></trkpt><trkpt lat="43.161014791104606" lon="11.468715331219066"><ele>149.0</ele><time>2026-04-06T09:46:16Z</time></trkpt><trkpt lat="43.161173888781285" lon="11.468676287116631"><ele>149.0</ele><time>2026-04-06T09:46:17Z</time></trkpt><trkpt lat="43.161326021810545" lon="11.468645746683148"><ele>149.0</ele><time>2026-04-06T09:46:18Z</time></trkpt><trkpt lat="43.161474107582734" lon="11.468617514616355"><ele>149.0</ele><time>2026-04-06T09:46:19Z</time></trkpt><trkpt lat="43.161611927850316" lon="11.468591525775711"><ele>149.0</ele><time>2026-04-06T09:46:20Z</time></trkpt><trkpt lat="43.161738775436184" lon="11.468567841299757"><ele>149.33333333333331</ele><time>2026-04-06T09:46:21Z</time></trkpt><trkpt lat="43.16184605231384" lon="11.468549681759542"><ele>149.66666666666666</ele><time>2026-04-06T09:46:22Z</time></trkpt><trkpt lat="43.161932276175776" lon="11.468531765324393"><ele>150.0</ele><time>2026-04-06T09:46:23Z</time></trkpt><trkpt lat="43.16200535965845" lon="11.468518491188616"><ele>150.33333333333334</ele><time>2026-04-06T09:46:24Z</time></trkpt><trkpt lat="43.16207524379716" lon="11.468506556458886"><ele>150.66666666666669</ele><time>2026-04-06T09:46:25Z</time></trkpt><trkpt lat="43.1621438608188" lon="11.468493257128937"><ele>151.0</ele><time>2026-04-06T09:46:26Z</time></trkpt><trkpt lat="43.16222028987928" lon="11.468481246314807"><ele>151.0</ele><time>2026-04-06T09:46:27Z</time></trkpt><trkpt lat="43.16230442911512" lon="11.468464266937525"><ele>151.0</ele><time>2026-04-06T09:46:28Z</time></trkpt><trkpt lat="43.162403604408446" lon="11.4684432090814"><ele>151.0</ele><time>2026-04-06T09:46:29Z</time></trkpt><trkpt lat="43.16251222419842" lon="11.468420435398624"><ele>151.0</ele><time>2026-04-06T09:46:30Z</time></trkpt><trkpt lat="43.16262021792081" lon="11.468400880672538"><ele>151.0</ele><time>2026-04-06T09:46:31Z</time></trkpt><trkpt lat="43.16273510376005" lon="11.468378640498209"><ele>150.25</ele><time>2026-04-06T09:46:32Z</time></trkpt><trkpt lat="43.16285886662043" lon="11.468344586858404"><ele>149.5</ele><time>2026-04-06T09:46:33Z</time></trkpt><trkpt lat="43.162987035474366" lon="11.468285343848898"><ele>148.75</ele><time>2026-04-06T09:46:34Z</time></trkpt><trkpt lat="43.16311799586063" lon="11.468202099120356"><ele>148.0</ele><time>2026-04-06T09:46:35Z</time></trkpt><trkpt lat="43.16324482563009" lon="11.468106688557548"><ele>147.33333333333334</ele><time>2026-04-06T09:46:36Z</time></trkpt><trkpt lat="43.16337761157232" lon="11.468006083213758"><ele>146.66666666666666</ele><time>2026-04-06T09:46:37Z</time></trkpt><trkpt lat="43.16351350491341" lon="11.467909108731474"><ele>146.0</ele><time>2026-04-06T09:46:37.999Z</time></trkpt><trkpt lat="43.163647859630856" lon="11.467812555493182"><ele>146.0</ele><time>2026-04-06T09:46:38.999Z</time></trkpt><trkpt lat="43.16378226392303" lon="11.46771473030884"><ele>146.0</ele><time>2026-04-06T09:46:39.999Z</time></trkpt><trkpt lat="43.16391812518164" lon="11.467616028998275"><ele>146.0</ele><time>2026-04-06T09:46:40.999Z</time></trkpt><trkpt lat="43.16405644260871" lon="11.467519073978814"><ele>146.0</ele><time>2026-04-06T09:46:41.999Z</time></trkpt><trkpt lat="43.164195446752295" lon="11.467422308051257"><ele>146.0</ele><time>2026-04-06T09:46:42.999Z</time></trkpt><trkpt lat="43.16433406596893" lon="11.467324286227546"><ele>146.0</ele><time>2026-04-06T09:46:43.999Z</time></trkpt><trkpt lat="43.164472796748015" lon="11.467228139070984"><ele>146.0</ele><time>2026-04-06T09:46:44.999Z</time></trkpt><trkpt lat="43.16461032433635" lon="11.467132322310112"><ele>146.0</ele><time>2026-04-06T09:46:45.999Z</time></trkpt><trkpt lat="43.164745586418604" lon="11.467038526936353"><ele>146.0</ele><time>2026-04-06T09:46:46.999Z</time></trkpt><trkpt lat="43.164877394525405" lon="11.466945739065972"><ele>146.5</ele><time>2026-04-06T09:46:47.999Z</time></trkpt><trkpt lat="43.16500514723928" lon="11.466855091077173"><ele>147.0</ele><time>2026-04-06T09:46:48.999Z</time></trkpt><trkpt lat="43.16513235649251" lon="11.466769182574765"><ele>147.5</ele><time>2026-04-06T09:46:49.999Z</time></trkpt><trkpt lat="43.165255499180056" lon="11.466685032524175"><ele>148.0</ele><time>2026-04-06T09:46:50.999Z</time></trkpt><trkpt lat="43.165380534269275" lon="11.466609673156437"><ele>148.0</ele><time>2026-04-06T09:46:51.999Z</time></trkpt><trkpt lat="43.165510188345515" lon="11.466546545824375"><ele>148.0</ele><time>2026-04-06T09:46:52.999Z</time></trkpt><trkpt lat="43.16563715092032" lon="11.466485363283024"><ele>148.0</ele><time>2026-04-06T09:46:53.999Z</time></trkpt><trkpt lat="43.16575509635334" lon="11.466413912785857"><ele>148.0</ele><time>2026-04-06T09:46:54.999Z</time></trkpt><trkpt lat="43.16585183397777" lon="11.466327786365989"><ele>147.33333333333334</ele><time>2026-04-06T09:46:55.999Z</time></trkpt><trkpt lat="43.165927668518" lon="11.466229483905613"><ele>146.66666666666669</ele><time>2026-04-06T09:46:56.999Z</time></trkpt><trkpt lat="43.16600110888485" lon="11.466152732888848"><ele>146.0</ele><time>2026-04-06T09:46:57.999Z</time></trkpt><trkpt lat="43.16606544747137" lon="11.466065967473632"><ele>145.33333333333334</ele><time>2026-04-06T09:46:58.999Z</time></trkpt><trkpt lat="43.166122406883126" lon="11.465988593394211"><ele>144.66666666666666</ele><time>2026-04-06T09:46:59.999Z</time></trkpt><trkpt lat="43.16617968597368" lon="11.465916587343322"><ele>144.0</ele><time>2026-04-06T09:47:00.999Z</time></trkpt><trkpt lat="43.16623923134888" lon="11.465834522232704"><ele>144.0</ele><time>2026-04-06T09:47:01.999Z</time></trkpt><trkpt lat="43.166307782129245" lon="11.465743700981236"><ele>144.0</ele><time>2026-04-06T09:47:02.999Z</time></trkpt><trkpt lat="43.1663727513069" lon="11.465650977611782"><ele>144.0</ele><time>2026-04-06T09:47:03.999Z</time></trkpt><trkpt lat="43.16644796662663" lon="11.465559588492527"><ele>144.0</ele><time>2026-04-06T09:47:04.999Z</time></trkpt><trkpt lat="43.16652382629742" lon="11.465452940627957"><ele>144.0</ele><time>2026-04-06T09:47:05.999Z</time></trkpt><trkpt lat="43.16661507190443" lon="11.46536726324842"><ele>144.8</ele><time>2026-04-06T09:47:06.999Z</time></trkpt><trkpt lat="43.166705795263326" lon="11.465299109339723"><ele>145.60000000000002</ele><time>2026-04-06T09:47:07.999Z</time></trkpt><trkpt lat="43.16681208092605" lon="11.465234948078104"><ele>146.4</ele><time>2026-04-06T09:47:08.999Z</time></trkpt><trkpt lat="43.16691647966206" lon="11.465176205181654"><ele>147.20000000000002</ele><time>2026-04-06T09:47:09.999Z</time></trkpt><trkpt lat="43.16702065600489" lon="11.465122400452142"><ele>148.0</ele><time>2026-04-06T09:47:10.999Z</time></trkpt><trkpt lat="43.167130132287795" lon="11.465084020101257"><ele>148.0</ele><time>2026-04-06T09:47:11.999Z</time></trkpt><trkpt lat="43.16724939467528" lon="11.465067286247702"><ele>148.0</ele><time>2026-04-06T09:47:12.999Z</time></trkpt><trkpt lat="43.16737362105155" lon="11.465068603932641"><ele>148.0</ele><time>2026-04-06T09:47:13.999Z</time></trkpt><trkpt lat="43.16749476102557" lon="11.465076486782205"><ele>148.0</ele><time>2026-04-06T09:47:14.999Z</time></trkpt><trkpt lat="43.167605206130105" lon="11.465098516047782"><ele>148.25</ele><time>2026-04-06T09:47:15.999Z</time></trkpt><trkpt lat="43.167718024458885" lon="11.465152619149418"><ele>148.5</ele><time>2026-04-06T09:47:16.999Z</time></trkpt><trkpt lat="43.16782690597299" lon="11.465203787988363"><ele>148.75</ele><time>2026-04-06T09:47:17.999Z</time></trkpt><trkpt lat="43.16793759351874" lon="11.465269027754516"><ele>149.0</ele><time>2026-04-06T09:47:18.999Z</time></trkpt><trkpt lat="43.168048071128155" lon="11.465334285241472"><ele>149.0</ele><time>2026-04-06T09:47:19.999Z</time></trkpt><trkpt lat="43.168147523944334" lon="11.465392990281368"><ele>149.0</ele><time>2026-04-06T09:47:20.999Z</time></trkpt><trkpt lat="43.16824911796752" lon="11.465453588728458"><ele>149.0</ele><time>2026-04-06T09:47:21.999Z</time></trkpt><trkpt lat="43.16835316160047" lon="11.465515834892496"><ele>149.0</ele><time>2026-04-06T09:47:22.999Z</time></trkpt><trkpt lat="43.168457157067486" lon="11.46557099158212"><ele>149.0</ele><time>2026-04-06T09:47:23.999Z</time></trkpt><trkpt lat="43.168560508208664" lon="11.46561676514835"><ele>149.0</ele><time>2026-04-06T09:47:24.999Z</time></trkpt><trkpt lat="43.16866703304287" lon="11.465658040308268"><ele>149.0</ele><time>2026-04-06T09:47:25.999Z</time></trkpt><trkpt lat="43.16877907579387" lon="11.465692166667196"><ele>149.0</ele><time>2026-04-06T09:47:26.999Z</time></trkpt><trkpt lat="43.1688943214318" lon="11.465701072088908"><ele>149.0</ele><time>2026-04-06T09:47:27.999Z</time></trkpt><trkpt lat="43.16900761721467" lon="11.465732570952019"><ele>149.25</ele><time>2026-04-06T09:47:28.999Z</time></trkpt><trkpt lat="43.16911631323703" lon="11.465754974431055"><ele>149.5</ele><time>2026-04-06T09:47:29.999Z</time></trkpt><trkpt lat="43.16922565541496" lon="11.465772552518189"><ele>149.75</ele><time>2026-04-06T09:47:30.999Z</time></trkpt><trkpt lat="43.169340360252804" lon="11.46578161104256"><ele>150.0</ele><time>2026-04-06T09:47:31.999Z</time></trkpt><trkpt lat="43.16945491087796" lon="11.465770678128745"><ele>150.0</ele><time>2026-04-06T09:47:32.999Z</time></trkpt><trkpt lat="43.16957034880223" lon="11.465773365187244"><ele>150.0</ele><time>2026-04-06T09:47:33.998Z</time></trkpt><trkpt lat="43.16968084517005" lon="11.465753866778396"><ele>150.0</ele><time>2026-04-06T09:47:34.998Z</time></trkpt><trkpt lat="43.1697843386728" lon="11.465730966224475"><ele>150.0</ele><time>2026-04-06T09:47:35.998Z</time></trkpt><trkpt lat="43.1699073624607" lon="11.465726418698642"><ele>149.75</ele><time>2026-04-06T09:47:36.998Z</time></trkpt><trkpt lat="43.17001550327344" lon="11.465695376532484"><ele>149.5</ele><time>2026-04-06T09:47:37.998Z</time></trkpt><trkpt lat="43.17013236902514" lon="11.465648501875014"><ele>149.25</ele><time>2026-04-06T09:47:38.998Z</time></trkpt><trkpt lat="43.17024187001648" lon="11.46559911895853"><ele>149.0</ele><time>2026-04-06T09:47:39.998Z</time></trkpt><trkpt lat="43.17034779470712" lon="11.465551219072657"><ele>149.0</ele><time>2026-04-06T09:47:40.998Z</time></trkpt><trkpt lat="43.17045760877256" lon="11.46550496441793"><ele>149.0</ele><time>2026-04-06T09:47:41.998Z</time></trkpt><trkpt lat="43.17056964396266" lon="11.465461991000716"><ele>149.0</ele><time>2026-04-06T09:47:42.998Z</time></trkpt><trkpt lat="43.17068290662868" lon="11.465420792212287"><ele>149.0</ele><time>2026-04-06T09:47:43.998Z</time></trkpt><trkpt lat="43.170790293065764" lon="11.465372771625066"><ele>149.0</ele><time>2026-04-06T09:47:44.998Z</time></trkpt><trkpt lat="43.17089981622096" lon="11.465324107074474"><ele>149.0</ele><time>2026-04-06T09:47:45.998Z</time></trkpt><trkpt lat="43.17100650180825" lon="11.465274682678187"><ele>149.0</ele><time>2026-04-06T09:47:47Z</time></trkpt><trkpt lat="43.17111529767478" lon="11.465230331161122"><ele>149.0</ele><time>2026-04-06T09:47:48Z</time></trkpt><trkpt lat="43.17122521287261" lon="11.465186418703523"><ele>149.0</ele><time>2026-04-06T09:47:49Z</time></trkpt><trkpt lat="43.171337531219066" lon="11.465141552878487"><ele>149.0</ele><time>2026-04-06T09:47:50Z</time></trkpt><trkpt lat="43.17145287881135" lon="11.465097445838616"><ele>149.0</ele><time>2026-04-06T09:47:51Z</time></trkpt><trkpt lat="43.17156779797094" lon="11.46504975385523"><ele>149.0</ele><time>2026-04-06T09:47:52Z</time></trkpt><trkpt lat="43.17168433730799" lon="11.465003092252422"><ele>148.75</ele><time>2026-04-06T09:47:53Z</time></trkpt><trkpt lat="43.17180471706517" lon="11.464955291954096"><ele>148.5</ele><time>2026-04-06T09:47:54Z</time></trkpt><trkpt lat="43.17192655197722" lon="11.464903325083544"><ele>148.25</ele><time>2026-04-06T09:47:55Z</time></trkpt><trkpt lat="43.17205006638086" lon="11.464851532607042"><ele>148.0</ele><time>2026-04-06T09:47:56Z</time></trkpt><trkpt lat="43.17217927140438" lon="11.464795621914789"><ele>148.0</ele><time>2026-04-06T09:47:57Z</time></trkpt><trkpt lat="43.17231007485759" lon="11.46473647358632"><ele>148.0</ele><time>2026-04-06T09:47:58Z</time></trkpt><trkpt lat="43.172444331772105" lon="11.464678696496353"><ele>148.0</ele><time>2026-04-06T09:47:59Z</time></trkpt><trkpt lat="43.17258119770537" lon="11.464622532145793"><ele>148.0</ele><time>2026-04-06T09:48:00Z</time></trkpt><trkpt lat="43.172731882530925" lon="11.46455186987537"><ele>148.66666666666669</ele><time>2026-04-06T09:48:01Z</time></trkpt><trkpt lat="43.17290084191555" lon="11.464497306033337"><ele>149.33333333333334</ele><time>2026-04-06T09:48:02Z</time></trkpt><trkpt lat="43.17307713521744" lon="11.464427173787742"><ele>150.0</ele><time>2026-04-06T09:48:03Z</time></trkpt><trkpt lat="43.173254746103055" lon="11.464338335099205"><ele>150.0</ele><time>2026-04-06T09:48:04Z</time></trkpt><trkpt lat="43.17344436603568" lon="11.464276132748978"><ele>150.0</ele><time>2026-04-06T09:48:05Z</time></trkpt><trkpt lat="43.17363542993011" lon="11.46420756679768"><ele>150.0</ele><time>2026-04-06T09:48:06Z</time></trkpt><trkpt lat="43.173824232684936" lon="11.464137100720963"><ele>150.0</ele><time>2026-04-06T09:48:07Z</time></trkpt><trkpt lat="43.17400412386493" lon="11.464063244456062"><ele>150.0</ele><time>2026-04-06T09:48:08Z</time></trkpt><trkpt lat="43.17418859945583" lon="11.463987112998398"><ele>150.0</ele><time>2026-04-06T09:48:09Z</time></trkpt><trkpt lat="43.17437600285126" lon="11.463916056756464"><ele>150.0</ele><time>2026-04-06T09:48:10Z</time></trkpt><trkpt lat="43.17456424169828" lon="11.463843724961428"><ele>150.0</ele><time>2026-04-06T09:48:11Z</time></trkpt><trkpt lat="43.174753880671986" lon="11.4637679899118"><ele>150.0</ele><time>2026-04-06T09:48:12Z</time></trkpt><trkpt lat="43.17494183772772" lon="11.463691127784534"><ele>150.0</ele><time>2026-04-06T09:48:13Z</time></trkpt><trkpt lat="43.175131098107336" lon="11.46361358896496"><ele>150.0</ele><time>2026-04-06T09:48:14Z</time></trkpt><trkpt lat="43.175322358487904" lon="11.463539425941441"><ele>150.0</ele><time>2026-04-06T09:48:15Z</time></trkpt><trkpt lat="43.17551361981605" lon="11.463463751399681"><ele>150.66666666666666</ele><time>2026-04-06T09:48:16Z</time></trkpt><trkpt lat="43.17570169563193" lon="11.46338483453702"><ele>151.33333333333331</ele><time>2026-04-06T09:48:17Z</time></trkpt><trkpt lat="43.175892910048255" lon="11.463307091819013"><ele>152.0</ele><time>2026-04-06T09:48:18Z</time></trkpt><trkpt lat="43.17608209733283" lon="11.463230305786636"><ele>152.0</ele><time>2026-04-06T09:48:19Z</time></trkpt><trkpt lat="43.17627295895081" lon="11.46315337763649"><ele>152.0</ele><time>2026-04-06T09:48:20Z</time></trkpt><trkpt lat="43.176464177579696" lon="11.463077173533025"><ele>152.0</ele><time>2026-04-06T09:48:21Z</time></trkpt><trkpt lat="43.17665530437196" lon="11.462998554151731"><ele>152.33333333333331</ele><time>2026-04-06T09:48:22Z</time></trkpt><trkpt lat="43.17684596882869" lon="11.46292046998772"><ele>152.66666666666666</ele><time>2026-04-06T09:48:23Z</time></trkpt><trkpt lat="43.17703803120351" lon="11.462842236475778"><ele>153.0</ele><time>2026-04-06T09:48:24Z</time></trkpt><trkpt lat="43.17723033036014" lon="11.462767137659961"><ele>153.33333333333334</ele><time>2026-04-06T09:48:25Z</time></trkpt><trkpt lat="43.177421250513326" lon="11.462692433372188"><ele>153.66666666666669</ele><time>2026-04-06T09:48:26Z</time></trkpt><trkpt lat="43.177609883304974" lon="11.462614334380262"><ele>154.0</ele><time>2026-04-06T09:48:27Z</time></trkpt><trkpt lat="43.17779784993535" lon="11.462539041513233"><ele>154.0</ele><time>2026-04-06T09:48:28Z</time></trkpt><trkpt lat="43.17798383209282" lon="11.46247163810765"><ele>154.0</ele><time>2026-04-06T09:48:29Z</time></trkpt><trkpt lat="43.17816742716723" lon="11.462434042367613"><ele>154.0</ele><time>2026-04-06T09:48:30Z</time></trkpt><trkpt lat="43.17834885287059" lon="11.462458670492632"><ele>153.66666666666669</ele><time>2026-04-06T09:48:31Z</time></trkpt><trkpt lat="43.178531144444655" lon="11.462526186666679"><ele>153.33333333333334</ele><time>2026-04-06T09:48:32Z</time></trkpt><trkpt lat="43.17871344962143" lon="11.462596905537332"><ele>153.0</ele><time>2026-04-06T09:48:33Z</time></trkpt><trkpt lat="43.17889923557907" lon="11.462667025759997"><ele>154.33333333333334</ele><time>2026-04-06T09:48:34Z</time></trkpt><trkpt lat="43.1790864401177" lon="11.462732082007824"><ele>155.66666666666669</ele><time>2026-04-06T09:48:35Z</time></trkpt><trkpt lat="43.179272884898" lon="11.462786099845449"><ele>157.0</ele><time>2026-04-06T09:48:36Z</time></trkpt><trkpt lat="43.179455417409585" lon="11.462812729248453"><ele>157.0</ele><time>2026-04-06T09:48:37Z</time></trkpt><trkpt lat="43.179631243224534" lon="11.462792109745747"><ele>157.0</ele><time>2026-04-06T09:48:38Z</time></trkpt><trkpt lat="43.17979733704478" lon="11.46272128508561"><ele>157.0</ele><time>2026-04-06T09:48:39Z</time></trkpt><trkpt lat="43.17995685472341" lon="11.462596362339497"><ele>157.33333333333334</ele><time>2026-04-06T09:48:40Z</time></trkpt><trkpt lat="43.18009311685419" lon="11.462427058207092"><ele>157.66666666666666</ele><time>2026-04-06T09:48:41Z</time></trkpt><trkpt lat="43.18020399195623" lon="11.462221746903628"><ele>158.0</ele><time>2026-04-06T09:48:42Z</time></trkpt><trkpt lat="43.1802905267697" lon="11.461990164601755"><ele>161.0</ele><time>2026-04-06T09:48:43Z</time></trkpt><trkpt lat="43.180373445773526" lon="11.461754415257795"><ele>164.0</ele><time>2026-04-06T09:48:44Z</time></trkpt><trkpt lat="43.18047717245232" lon="11.461527239393309"><ele>167.0</ele><time>2026-04-06T09:48:45Z</time></trkpt><trkpt lat="43.18060484465676" lon="11.46131425866418"><ele>165.33333333333331</ele><time>2026-04-06T09:48:45.999Z</time></trkpt><trkpt lat="43.18075131990363" lon="11.461119928210437"><ele>163.66666666666666</ele><time>2026-04-06T09:48:46.999Z</time></trkpt><trkpt lat="43.18091022344992" lon="11.460934668801587"><ele>162.0</ele><time>2026-04-06T09:48:47.999Z</time></trkpt><trkpt lat="43.18107368934827" lon="11.460756328553732"><ele>162.0</ele><time>2026-04-06T09:48:48.999Z</time></trkpt><trkpt lat="43.18124976228553" lon="11.460577806513454"><ele>162.0</ele><time>2026-04-06T09:48:49.999Z</time></trkpt><trkpt lat="43.181401889388326" lon="11.460367056009167"><ele>162.0</ele><time>2026-04-06T09:48:50.999Z</time></trkpt><trkpt lat="43.18158454221111" lon="11.460179732772293"><ele>161.0</ele><time>2026-04-06T09:48:51.999Z</time></trkpt><trkpt lat="43.181802307356385" lon="11.460025436877784"><ele>160.0</ele><time>2026-04-06T09:48:52.999Z</time></trkpt><trkpt lat="43.181996509634594" lon="11.45983002750181"><ele>160.0</ele><time>2026-04-06T09:48:53.999Z</time></trkpt><trkpt lat="43.182190600890365" lon="11.459634729764794"><ele>160.0</ele><time>2026-04-06T09:48:54.999Z</time></trkpt><trkpt lat="43.18238634225485" lon="11.459440122268187"><ele>160.0</ele><time>2026-04-06T09:48:55.999Z</time></trkpt><trkpt lat="43.18258424592013" lon="11.459243550775067"><ele>160.0</ele><time>2026-04-06T09:48:56.999Z</time></trkpt><trkpt lat="43.182784579194134" lon="11.459043917076063"><ele>160.0</ele><time>2026-04-06T09:48:57.999Z</time></trkpt><trkpt lat="43.1829872538053" lon="11.458841950207498"><ele>160.0</ele><time>2026-04-06T09:48:58.999Z</time></trkpt><trkpt lat="43.183187879823485" lon="11.458640438667846"><ele>161.0</ele><time>2026-04-06T09:48:59.999Z</time></trkpt><trkpt lat="43.18338614652667" lon="11.45843789145335"><ele>162.0</ele><time>2026-04-06T09:49:00.999Z</time></trkpt><trkpt lat="43.1835829920607" lon="11.458235272232582"><ele>162.0</ele><time>2026-04-06T09:49:01.999Z</time></trkpt><trkpt lat="43.18377465758798" lon="11.458030503217676"><ele>162.0</ele><time>2026-04-06T09:49:02.999Z</time></trkpt><trkpt lat="43.18396429412766" lon="11.457822904746001"><ele>162.5</ele><time>2026-04-06T09:49:03.999Z</time></trkpt><trkpt lat="43.184151529418884" lon="11.457609611369481"><ele>163.0</ele><time>2026-04-06T09:49:04.999Z</time></trkpt><trkpt lat="43.18433674311404" lon="11.457391379893577"><ele>163.0</ele><time>2026-04-06T09:49:05.999Z</time></trkpt><trkpt lat="43.18451902114129" lon="11.457165833650558"><ele>163.0</ele><time>2026-04-06T09:49:06.999Z</time></trkpt><trkpt lat="43.184701855470244" lon="11.456938131528322"><ele>163.0</ele><time>2026-04-06T09:49:07.999Z</time></trkpt><trkpt lat="43.184883936556574" lon="11.456710003428174"><ele>163.0</ele><time>2026-04-06T09:49:08.999Z</time></trkpt><trkpt lat="43.18506758659882" lon="11.456479909596736"><ele>164.5</ele><time>2026-04-06T09:49:09.999Z</time></trkpt><trkpt lat="43.18525102896511" lon="11.456251136976112"><ele>166.0</ele><time>2026-04-06T09:49:10.999Z</time></trkpt><trkpt lat="43.18543508143781" lon="11.456021722556473"><ele>166.0</ele><time>2026-04-06T09:49:11.999Z</time></trkpt><trkpt lat="43.18561725244629" lon="11.455794685121948"><ele>166.0</ele><time>2026-04-06T09:49:12.999Z</time></trkpt><trkpt lat="43.18579238400773" lon="11.45556237492203"><ele>167.5</ele><time>2026-04-06T09:49:13.999Z</time></trkpt><trkpt lat="43.18598590663631" lon="11.455367618433273"><ele>169.0</ele><time>2026-04-06T09:49:14.999Z</time></trkpt><trkpt lat="43.18619389625925" lon="11.455214932716306"><ele>169.0</ele><time>2026-04-06T09:49:15.999Z</time></trkpt><trkpt lat="43.186401660878" lon="11.45506605918322"><ele>169.0</ele><time>2026-04-06T09:49:16.999Z</time></trkpt><trkpt lat="43.186619456431075" lon="11.454933937842336"><ele>169.5</ele><time>2026-04-06T09:49:17.999Z</time></trkpt><trkpt lat="43.186836692775785" lon="11.454805491690498"><ele>170.0</ele><time>2026-04-06T09:49:18.999Z</time></trkpt><trkpt lat="43.187052401956095" lon="11.454680770583069"><ele>172.5</ele><time>2026-04-06T09:49:19.999Z</time></trkpt><trkpt lat="43.18726250422877" lon="11.454559702116143"><ele>175.0</ele><time>2026-04-06T09:49:20.999Z</time></trkpt><trkpt lat="43.187469125432855" lon="11.454441829922942"><ele>176.33333333333334</ele><time>2026-04-06T09:49:21.999Z</time></trkpt><trkpt lat="43.18766989036456" lon="11.454326835131983"><ele>177.66666666666666</ele><time>2026-04-06T09:49:22.999Z</time></trkpt><trkpt lat="43.18786164640984" lon="11.454217000096179"><ele>179.0</ele><time>2026-04-06T09:49:23.999Z</time></trkpt><trkpt lat="43.188038457819296" lon="11.454111503495676"><ele>179.66666666666666</ele><time>2026-04-06T09:49:24.999Z</time></trkpt><trkpt lat="43.188212940745544" lon="11.454053104217762"><ele>180.33333333333334</ele><time>2026-04-06T09:49:25.999Z</time></trkpt><trkpt lat="43.188386341291654" lon="11.454030721569758"><ele>181.0</ele><time>2026-04-06T09:49:26.999Z</time></trkpt><trkpt lat="43.188563987550324" lon="11.45403258168647"><ele>181.0</ele><time>2026-04-06T09:49:27.999Z</time></trkpt><trkpt lat="43.18874329868926" lon="11.454038792758137"><ele>181.0</ele><time>2026-04-06T09:49:28.999Z</time></trkpt><trkpt lat="43.18892487758617" lon="11.45404255933168"><ele>181.0</ele><time>2026-04-06T09:49:29.999Z</time></trkpt><trkpt lat="43.18910900622686" lon="11.454044856250677"><ele>179.66666666666669</ele><time>2026-04-06T09:49:30.999Z</time></trkpt><trkpt lat="43.189292333788174" lon="11.454048570884094"><ele>178.33333333333334</ele><time>2026-04-06T09:49:31.999Z</time></trkpt><trkpt lat="43.189468666024204" lon="11.454050523529292"><ele>177.0</ele><time>2026-04-06T09:49:32.999Z</time></trkpt><trkpt lat="43.1896236311917" lon="11.454069483388835"><ele>177.0</ele><time>2026-04-06T09:49:33.999Z</time></trkpt><trkpt lat="43.18977357161445" lon="11.453983471251808"><ele>177.0</ele><time>2026-04-06T09:49:34.999Z</time></trkpt><trkpt lat="43.189928547383744" lon="11.45389200369855"><ele>177.0</ele><time>2026-04-06T09:49:35.999Z</time></trkpt><trkpt lat="43.19008622821316" lon="11.453790821372147"><ele>177.0</ele><time>2026-04-06T09:49:36.999Z</time></trkpt><trkpt lat="43.190261177334364" lon="11.45369377438746"><ele>177.0</ele><time>2026-04-06T09:49:37.999Z</time></trkpt><trkpt lat="43.19042345802921" lon="11.453582931585222"><ele>177.0</ele><time>2026-04-06T09:49:38.999Z</time></trkpt><trkpt lat="43.190592532981796" lon="11.453484979039352"><ele>175.0</ele><time>2026-04-06T09:49:39.999Z</time></trkpt><trkpt lat="43.190770168739334" lon="11.453410448969697"><ele>173.0</ele><time>2026-04-06T09:49:40.999Z</time></trkpt><trkpt lat="43.1909483275686" lon="11.453365809357653"><ele>171.0</ele><time>2026-04-06T09:49:41.999Z</time></trkpt><trkpt lat="43.191122802119835" lon="11.453341111295803"><ele>171.0</ele><time>2026-04-06T09:49:42.998Z</time></trkpt><trkpt lat="43.19128877461255" lon="11.453349427209757"><ele>171.0</ele><time>2026-04-06T09:49:43.998Z</time></trkpt><trkpt lat="43.191433895776754" lon="11.453416170257409"><ele>171.0</ele><time>2026-04-06T09:49:44.998Z</time></trkpt><trkpt lat="43.19154705348148" lon="11.453550234333122"><ele>171.0</ele><time>2026-04-06T09:49:45.998Z</time></trkpt><trkpt lat="43.191621351612866" lon="11.453723553460016"><ele>171.0</ele><time>2026-04-06T09:49:46.998Z</time></trkpt><trkpt lat="43.19168367303711" lon="11.453921813273869"><ele>171.0</ele><time>2026-04-06T09:49:47.998Z</time></trkpt><trkpt lat="43.1917638426267" lon="11.454123243636761"><ele>169.33333333333334</ele><time>2026-04-06T09:49:48.998Z</time></trkpt><trkpt lat="43.19185072009506" lon="11.454322459158679"><ele>167.66666666666669</ele><time>2026-04-06T09:49:49.998Z</time></trkpt><trkpt lat="43.191931065984896" lon="11.454524990174074"><ele>166.0</ele><time>2026-04-06T09:49:50.998Z</time></trkpt><trkpt lat="43.19201604368086" lon="11.45470880199891"><ele>166.0</ele><time>2026-04-06T09:49:52Z</time></trkpt><trkpt lat="43.192118727381605" lon="11.454853515207079"><ele>166.0</ele><time>2026-04-06T09:49:53Z</time></trkpt><trkpt lat="43.19224336401038" lon="11.45494865792367"><ele>166.0</ele><time>2026-04-06T09:49:54Z</time></trkpt><trkpt lat="43.192378237307075" lon="11.455004347221092"><ele>166.0</ele><time>2026-04-06T09:49:55Z</time></trkpt><trkpt lat="43.192517227676746" lon="11.455041073326706"><ele>166.0</ele><time>2026-04-06T09:49:56Z</time></trkpt><trkpt lat="43.19266288598594" lon="11.455071834302576"><ele>166.0</ele><time>2026-04-06T09:49:57Z</time></trkpt><trkpt lat="43.192806166830565" lon="11.455050144544234"><ele>166.0</ele><time>2026-04-06T09:49:58Z</time></trkpt><trkpt lat="43.192942878949154" lon="11.454964809850747"><ele>166.0</ele><time>2026-04-06T09:49:59Z</time></trkpt><trkpt lat="43.19305479222754" lon="11.45484913280864"><ele>166.0</ele><time>2026-04-06T09:50:00Z</time></trkpt><trkpt lat="43.19315145895464" lon="11.454734752905978"><ele>166.0</ele><time>2026-04-06T09:50:01Z</time></trkpt><trkpt lat="43.193182707050454" lon="11.454573591044936"><ele>166.0</ele><time>2026-04-06T09:50:02Z</time></trkpt><trkpt lat="43.19318239551685" lon="11.454416613046064"><ele>166.0</ele><time>2026-04-06T09:50:03Z</time></trkpt><trkpt lat="43.19315425992582" lon="11.454242153025413"><ele>166.25</ele><time>2026-04-06T09:50:04Z</time></trkpt><trkpt lat="43.19313296839415" lon="11.454072851935802"><ele>166.5</ele><time>2026-04-06T09:50:05Z</time></trkpt><trkpt lat="43.193145599296486" lon="11.453886570894488"><ele>166.75</ele><time>2026-04-06T09:50:06Z</time></trkpt><trkpt lat="43.19312729447605" lon="11.453715635807526"><ele>167.0</ele><time>2026-04-06T09:50:07Z</time></trkpt><trkpt lat="43.193068359400094" lon="11.453541212286463"><ele>167.0</ele><time>2026-04-06T09:50:08Z</time></trkpt><trkpt lat="43.19297696810976" lon="11.453385468208259"><ele>167.0</ele><time>2026-04-06T09:50:09Z</time></trkpt><trkpt lat="43.19290216987589" lon="11.45324827398592"><ele>167.0</ele><time>2026-04-06T09:50:10Z</time></trkpt><trkpt lat="43.19283624467987" lon="11.453110766370886"><ele>167.0</ele><time>2026-04-06T09:50:11Z</time></trkpt><trkpt lat="43.19277851543301" lon="11.452975579386438"><ele>166.6</ele><time>2026-04-06T09:50:12Z</time></trkpt><trkpt lat="43.19275234732156" lon="11.45283300062066"><ele>166.2</ele><time>2026-04-06T09:50:13Z</time></trkpt><trkpt lat="43.19278754315416" lon="11.452693308392513"><ele>165.8</ele><time>2026-04-06T09:50:14Z</time></trkpt><trkpt lat="43.19283432096411" lon="11.45256785540666"><ele>165.4</ele><time>2026-04-06T09:50:15Z</time></trkpt><trkpt lat="43.19290394487188" lon="11.452463029685852"><ele>165.0</ele><time>2026-04-06T09:50:16Z</time></trkpt><trkpt lat="43.19295701150865" lon="11.452351796776966"><ele>165.0</ele><time>2026-04-06T09:50:17Z</time></trkpt><trkpt lat="43.193019278284254" lon="11.452219032551952"><ele>165.0</ele><time>2026-04-06T09:50:18Z</time></trkpt><trkpt lat="43.193090070763766" lon="11.452087798924994"><ele>165.0</ele><time>2026-04-06T09:50:19Z</time></trkpt><trkpt lat="43.19316306571541" lon="11.451960540107821"><ele>165.0</ele><time>2026-04-06T09:50:20Z</time></trkpt><trkpt lat="43.19323704312612" lon="11.451839181322708"><ele>163.25</ele><time>2026-04-06T09:50:21Z</time></trkpt><trkpt lat="43.19331374201459" lon="11.45170784951272"><ele>161.5</ele><time>2026-04-06T09:50:22Z</time></trkpt><trkpt lat="43.193392757755014" lon="11.451570650728359"><ele>159.75</ele><time>2026-04-06T09:50:23Z</time></trkpt><trkpt lat="43.19347629436718" lon="11.451429021652197"><ele>158.0</ele><time>2026-04-06T09:50:24Z</time></trkpt><trkpt lat="43.19356160063528" lon="11.451278843812716"><ele>158.0</ele><time>2026-04-06T09:50:25Z</time></trkpt><trkpt lat="43.19365323165851" lon="11.451118730447313"><ele>158.0</ele><time>2026-04-06T09:50:26Z</time></trkpt><trkpt lat="43.193752582822604" lon="11.450941847489085"><ele>158.0</ele><time>2026-04-06T09:50:27Z</time></trkpt><trkpt lat="43.19385637446474" lon="11.450757366299163"><ele>158.0</ele><time>2026-04-06T09:50:28Z</time></trkpt><trkpt lat="43.19396216571326" lon="11.450576744177585"><ele>158.0</ele><time>2026-04-06T09:50:29Z</time></trkpt><trkpt lat="43.1940610762556" lon="11.450406066016072"><ele>158.0</ele><time>2026-04-06T09:50:30Z</time></trkpt><trkpt lat="43.194155197738745" lon="11.450246066017366"><ele>158.5</ele><time>2026-04-06T09:50:31Z</time></trkpt><trkpt lat="43.19424254957384" lon="11.450096348352146"><ele>159.0</ele><time>2026-04-06T09:50:32Z</time></trkpt><trkpt lat="43.19432562439133" lon="11.449953408044472"><ele>159.5</ele><time>2026-04-06T09:50:33Z</time></trkpt><trkpt lat="43.19441010049428" lon="11.449815460925791"><ele>160.0</ele><time>2026-04-06T09:50:34Z</time></trkpt><trkpt lat="43.19449739260162" lon="11.449671969471506"><ele>162.0</ele><time>2026-04-06T09:50:35Z</time></trkpt><trkpt lat="43.194579895100716" lon="11.44952898529894"><ele>164.0</ele><time>2026-04-06T09:50:36Z</time></trkpt><trkpt lat="43.19465976290656" lon="11.449389092486605"><ele>166.0</ele><time>2026-04-06T09:50:37Z</time></trkpt><trkpt lat="43.19473513613191" lon="11.449257951289791"><ele>168.0</ele><time>2026-04-06T09:50:38Z</time></trkpt><trkpt lat="43.19480782659388" lon="11.44913014268987"><ele>165.66666666666666</ele><time>2026-04-06T09:50:39Z</time></trkpt><trkpt lat="43.194898399816594" lon="11.448994301622506"><ele>163.33333333333331</ele><time>2026-04-06T09:50:40Z</time></trkpt><trkpt lat="43.194987587661345" lon="11.448827315125007"><ele>161.0</ele><time>2026-04-06T09:50:41Z</time></trkpt><trkpt lat="43.195067234533084" lon="11.4486205802459"><ele>161.0</ele><time>2026-04-06T09:50:42Z</time></trkpt><trkpt lat="43.19515874420928" lon="11.448407210827641"><ele>161.0</ele><time>2026-04-06T09:50:43Z</time></trkpt><trkpt lat="43.195248846761096" lon="11.448169795420876"><ele>161.0</ele><time>2026-04-06T09:50:44Z</time></trkpt><trkpt lat="43.195324058847866" lon="11.447916328664213"><ele>162.66666666666666</ele><time>2026-04-06T09:50:45Z</time></trkpt><trkpt lat="43.195382064807134" lon="11.447646376298561"><ele>164.33333333333334</ele><time>2026-04-06T09:50:46Z</time></trkpt><trkpt lat="43.195436765665214" lon="11.447378648032124"><ele>166.0</ele><time>2026-04-06T09:50:47Z</time></trkpt><trkpt lat="43.195491218527145" lon="11.447112647071114"><ele>167.0</ele><time>2026-04-06T09:50:48Z</time></trkpt><trkpt lat="43.19554844607833" lon="11.446843619037944"><ele>168.0</ele><time>2026-04-06T09:50:49Z</time></trkpt><trkpt lat="43.19560608776621" lon="11.446578003653997"><ele>169.0</ele><time>2026-04-06T09:50:50Z</time></trkpt><trkpt lat="43.195663544724" lon="11.446312721924176"><ele>165.66666666666669</ele><time>2026-04-06T09:50:51Z</time></trkpt><trkpt lat="43.195720959335425" lon="11.44604767289022"><ele>162.33333333333334</ele><time>2026-04-06T09:50:51.999Z</time></trkpt><trkpt lat="43.19578004951421" lon="11.44578243357699"><ele>159.0</ele><time>2026-04-06T09:50:52.999Z</time></trkpt><trkpt lat="43.19584371619827" lon="11.445519602930682"><ele>159.66666666666666</ele><time>2026-04-06T09:50:53.999Z</time></trkpt><trkpt lat="43.19592590400536" lon="11.445266484075981"><ele>160.33333333333331</ele><time>2026-04-06T09:50:54.999Z</time></trkpt><trkpt lat="43.19602979366312" lon="11.445031454857551"><ele>161.0</ele><time>2026-04-06T09:50:55.999Z</time></trkpt><trkpt lat="43.19614710677323" lon="11.444808451363565"><ele>160.0</ele><time>2026-04-06T09:50:56.999Z</time></trkpt><trkpt lat="43.1962794282621" lon="11.44460424727728"><ele>159.0</ele><time>2026-04-06T09:50:57.999Z</time></trkpt><trkpt lat="43.19644131777067" lon="11.44444730428932"><ele>158.0</ele><time>2026-04-06T09:50:58.999Z</time></trkpt><trkpt lat="43.19661561821817" lon="11.444327760453469"><ele>158.0</ele><time>2026-04-06T09:50:59.999Z</time></trkpt><trkpt lat="43.19679887887245" lon="11.444215848111732"><ele>158.0</ele><time>2026-04-06T09:51:00.999Z</time></trkpt><trkpt lat="43.19698060206745" lon="11.444115752211665"><ele>158.0</ele><time>2026-04-06T09:51:01.999Z</time></trkpt><trkpt lat="43.19715769946895" lon="11.44399798964271"><ele>158.0</ele><time>2026-04-06T09:51:02.999Z</time></trkpt><trkpt lat="43.197347391339946" lon="11.443925540880171"><ele>158.0</ele><time>2026-04-06T09:51:03.999Z</time></trkpt><trkpt lat="43.197533031517594" lon="11.443834495127303"><ele>158.0</ele><time>2026-04-06T09:51:04.999Z</time></trkpt><trkpt lat="43.197713395291906" lon="11.443719773434356"><ele>158.0</ele><time>2026-04-06T09:51:05.999Z</time></trkpt><trkpt lat="43.19789886612597" lon="11.443630571225214"><ele>158.0</ele><time>2026-04-06T09:51:06.999Z</time></trkpt><trkpt lat="43.19808684927399" lon="11.443539606346869"><ele>158.0</ele><time>2026-04-06T09:51:07.999Z</time></trkpt><trkpt lat="43.198277567259005" lon="11.443444633748308"><ele>158.0</ele><time>2026-04-06T09:51:08.999Z</time></trkpt><trkpt lat="43.19847721705729" lon="11.443377041084707"><ele>158.0</ele><time>2026-04-06T09:51:09.999Z</time></trkpt><trkpt lat="43.19867542621179" lon="11.443304789474507"><ele>158.0</ele><time>2026-04-06T09:51:10.999Z</time></trkpt><trkpt lat="43.198877754202535" lon="11.443250425230032"><ele>157.66666666666666</ele><time>2026-04-06T09:51:11.999Z</time></trkpt><trkpt lat="43.19908798007277" lon="11.443211120790842"><ele>157.33333333333334</ele><time>2026-04-06T09:51:12.999Z</time></trkpt><trkpt lat="43.19930221900202" lon="11.443184796064005"><ele>157.0</ele><time>2026-04-06T09:51:13.999Z</time></trkpt><trkpt lat="43.19952109540294" lon="11.443162268891314"><ele>157.0</ele><time>2026-04-06T09:51:14.999Z</time></trkpt><trkpt lat="43.19974063974558" lon="11.443142022934934"><ele>157.0</ele><time>2026-04-06T09:51:15.999Z</time></trkpt><trkpt lat="43.19996064481443" lon="11.443121809599708"><ele>157.0</ele><time>2026-04-06T09:51:16.999Z</time></trkpt><trkpt lat="43.20017182377386" lon="11.443102407177316"><ele>157.33333333333334</ele><time>2026-04-06T09:51:17.999Z</time></trkpt><trkpt lat="43.20038462850911" lon="11.44308262537475"><ele>157.66666666666666</ele><time>2026-04-06T09:51:18.999Z</time></trkpt><trkpt lat="43.200601027083216" lon="11.443061378738367"><ele>158.0</ele><time>2026-04-06T09:51:19.999Z</time></trkpt><trkpt lat="43.200829862966934" lon="11.443039737428167"><ele>157.0</ele><time>2026-04-06T09:51:20.999Z</time></trkpt><trkpt lat="43.20107174270862" lon="11.443017411719675"><ele>156.0</ele><time>2026-04-06T09:51:21.999Z</time></trkpt><trkpt lat="43.201315102496544" lon="11.44299408832118"><ele>156.0</ele><time>2026-04-06T09:51:22.999Z</time></trkpt><trkpt lat="43.201555107608264" lon="11.442970755053476"><ele>156.0</ele><time>2026-04-06T09:51:23.999Z</time></trkpt><trkpt lat="43.201788677819856" lon="11.442948234713793"><ele>157.0</ele><time>2026-04-06T09:51:24.999Z</time></trkpt><trkpt lat="43.20201021056429" lon="11.44290691072734"><ele>158.0</ele><time>2026-04-06T09:51:25.999Z</time></trkpt><trkpt lat="43.202224026096765" lon="11.44288928513539"><ele>159.0</ele><time>2026-04-06T09:51:26.999Z</time></trkpt><trkpt lat="43.2024267384044" lon="11.442874262104466"><ele>159.33333333333334</ele><time>2026-04-06T09:51:27.999Z</time></trkpt><trkpt lat="43.20262010311593" lon="11.442851110071045"><ele>159.66666666666669</ele><time>2026-04-06T09:51:28.999Z</time></trkpt><trkpt lat="43.202805809679035" lon="11.442784405793471"><ele>160.0</ele><time>2026-04-06T09:51:29.999Z</time></trkpt><trkpt lat="43.20298492518676" lon="11.442669681192873"><ele>160.0</ele><time>2026-04-06T09:51:30.999Z</time></trkpt><trkpt lat="43.203138417794335" lon="11.442512530344318"><ele>160.0</ele><time>2026-04-06T09:51:31.999Z</time></trkpt><trkpt lat="43.20327509668666" lon="11.442312747479408"><ele>160.0</ele><time>2026-04-06T09:51:32.999Z</time></trkpt><trkpt lat="43.20341520917861" lon="11.442108682071499"><ele>160.33333333333334</ele><time>2026-04-06T09:51:33.999Z</time></trkpt><trkpt lat="43.20356543466939" lon="11.441925880463552"><ele>160.66666666666666</ele><time>2026-04-06T09:51:34.999Z</time></trkpt><trkpt lat="43.203719803241285" lon="11.441747077265623"><ele>161.0</ele><time>2026-04-06T09:51:35.999Z</time></trkpt><trkpt lat="43.20387217292226" lon="11.441575432600429"><ele>160.33333333333331</ele><time>2026-04-06T09:51:36.999Z</time></trkpt><trkpt lat="43.20403093646448" lon="11.441418559561502"><ele>159.66666666666666</ele><time>2026-04-06T09:51:37.999Z</time></trkpt><trkpt lat="43.20419575373586" lon="11.441281326601642"><ele>159.0</ele><time>2026-04-06T09:51:38.999Z</time></trkpt><trkpt lat="43.20436766471048" lon="11.441155947079071"><ele>159.0</ele><time>2026-04-06T09:51:39.999Z</time></trkpt><trkpt lat="43.20454310345486" lon="11.441033888531981"><ele>159.0</ele><time>2026-04-06T09:51:40.999Z</time></trkpt><trkpt lat="43.20471785397253" lon="11.44091668483759"><ele>159.0</ele><time>2026-04-06T09:51:41.999Z</time></trkpt><trkpt lat="43.2048876680837" lon="11.440809038658417"><ele>158.66666666666666</ele><time>2026-04-06T09:51:42.999Z</time></trkpt><trkpt lat="43.20505308495312" lon="11.440711256757604"><ele>158.33333333333331</ele><time>2026-04-06T09:51:43.999Z</time></trkpt><trkpt lat="43.20521737461805" lon="11.440612700352528"><ele>158.0</ele><time>2026-04-06T09:51:44.999Z</time></trkpt><trkpt lat="43.20537739373812" lon="11.440515978459336"><ele>158.0</ele><time>2026-04-06T09:51:45.999Z</time></trkpt><trkpt lat="43.20553271978957" lon="11.440419931121282"><ele>158.0</ele><time>2026-04-06T09:51:46.999Z</time></trkpt><trkpt lat="43.2056863796466" lon="11.440324923802432"><ele>158.0</ele><time>2026-04-06T09:51:47.999Z</time></trkpt><trkpt lat="43.205838324771825" lon="11.440230060213953"><ele>157.66666666666666</ele><time>2026-04-06T09:51:48.998Z</time></trkpt><trkpt lat="43.20599160530577" lon="11.440136962171005"><ele>157.33333333333334</ele><time>2026-04-06T09:51:49.998Z</time></trkpt><trkpt lat="43.206144833724785" lon="11.44004572415231"><ele>157.0</ele><time>2026-04-06T09:51:50.998Z</time></trkpt><trkpt lat="43.20629786270775" lon="11.439952546569684"><ele>157.0</ele><time>2026-04-06T09:51:51.998Z</time></trkpt><trkpt lat="43.206450009378656" lon="11.439858557571297"><ele>157.0</ele><time>2026-04-06T09:51:52.998Z</time></trkpt><trkpt lat="43.20660147027106" lon="11.439763280001781"><ele>157.0</ele><time>2026-04-06T09:51:53.998Z</time></trkpt><trkpt lat="43.2067541558744" lon="11.439672071460363"><ele>157.33333333333334</ele><time>2026-04-06T09:51:54.998Z</time></trkpt><trkpt lat="43.20690557918381" lon="11.439580481641341"><ele>157.66666666666666</ele><time>2026-04-06T09:51:55.998Z</time></trkpt><trkpt lat="43.20705240803981" lon="11.439488392410276"><ele>158.0</ele><time>2026-04-06T09:51:56.998Z</time></trkpt><trkpt lat="43.20719404219154" lon="11.439401965385997"><ele>157.66666666666666</ele><time>2026-04-06T09:51:58Z</time></trkpt><trkpt lat="43.207330422169214" lon="11.439312243740595"><ele>157.33333333333334</ele><time>2026-04-06T09:51:59Z</time></trkpt><trkpt lat="43.20745946394201" lon="11.439192797251842"><ele>157.0</ele><time>2026-04-06T09:52:00Z</time></trkpt><trkpt lat="43.20756981782022" lon="11.439034441442093"><ele>157.0</ele><time>2026-04-06T09:52:01Z</time></trkpt><trkpt lat="43.20765921514458" lon="11.438845361659169"><ele>157.0</ele><time>2026-04-06T09:52:02Z</time></trkpt><trkpt lat="43.207726836577216" lon="11.438634318406613"><ele>157.0</ele><time>2026-04-06T09:52:03Z</time></trkpt><trkpt lat="43.20780040745464" lon="11.438428857178902"><ele>157.0</ele><time>2026-04-06T09:52:04Z</time></trkpt><trkpt lat="43.2078799237901" lon="11.438228494062857"><ele>157.0</ele><time>2026-04-06T09:52:05Z</time></trkpt><trkpt lat="43.20795677842438" lon="11.438030824797318"><ele>157.0</ele><time>2026-04-06T09:52:06Z</time></trkpt><trkpt lat="43.20801822705246" lon="11.437834877387676"><ele>157.0</ele><time>2026-04-06T09:52:07Z</time></trkpt><trkpt lat="43.20808472594275" lon="11.437643046097074"><ele>157.0</ele><time>2026-04-06T09:52:08Z</time></trkpt><trkpt lat="43.20814919419641" lon="11.43745391943078"><ele>157.0</ele><time>2026-04-06T09:52:09Z</time></trkpt><trkpt lat="43.20821383303473" lon="11.437268371572246"><ele>157.66666666666669</ele><time>2026-04-06T09:52:10Z</time></trkpt><trkpt lat="43.20827833356506" lon="11.437080084020971"><ele>158.33333333333334</ele><time>2026-04-06T09:52:11Z</time></trkpt><trkpt lat="43.208337819241265" lon="11.4368867880958"><ele>159.0</ele><time>2026-04-06T09:52:12Z</time></trkpt><trkpt lat="43.20839155093211" lon="11.436686836777373"><ele>159.0</ele><time>2026-04-06T09:52:13Z</time></trkpt><trkpt lat="43.20844032024188" lon="11.43648299101801"><ele>159.0</ele><time>2026-04-06T09:52:14Z</time></trkpt><trkpt lat="43.20848797924898" lon="11.436278976261951"><ele>159.0</ele><time>2026-04-06T09:52:15Z</time></trkpt><trkpt lat="43.20853519514936" lon="11.43607988614773"><ele>159.0</ele><time>2026-04-06T09:52:16Z</time></trkpt><trkpt lat="43.208579650353514" lon="11.435883810037867"><ele>159.0</ele><time>2026-04-06T09:52:17Z</time></trkpt><trkpt lat="43.208623861994795" lon="11.435692205721843"><ele>159.0</ele><time>2026-04-06T09:52:18Z</time></trkpt><trkpt lat="43.20866706200956" lon="11.435509621790825"><ele>159.0</ele><time>2026-04-06T09:52:19Z</time></trkpt><trkpt lat="43.208700435610055" lon="11.435326543084825"><ele>159.25</ele><time>2026-04-06T09:52:20Z</time></trkpt><trkpt lat="43.20870789275779" lon="11.43513418072563"><ele>159.5</ele><time>2026-04-06T09:52:21Z</time></trkpt><trkpt lat="43.20869216446484" lon="11.434939938489494"><ele>159.75</ele><time>2026-04-06T09:52:22Z</time></trkpt><trkpt lat="43.20866373969247" lon="11.434746611129516"><ele>160.0</ele><time>2026-04-06T09:52:23Z</time></trkpt><trkpt lat="43.20864180818514" lon="11.434554252011864"><ele>160.75</ele><time>2026-04-06T09:52:24Z</time></trkpt><trkpt lat="43.20861835246291" lon="11.434363350712726"><ele>161.5</ele><time>2026-04-06T09:52:25Z</time></trkpt><trkpt lat="43.20860045869026" lon="11.434167270104723"><ele>162.25</ele><time>2026-04-06T09:52:26Z</time></trkpt><trkpt lat="43.20859775924067" lon="11.433982612242824"><ele>163.0</ele><time>2026-04-06T09:52:27Z</time></trkpt><trkpt lat="43.208618757225835" lon="11.433805897966954"><ele>163.0</ele><time>2026-04-06T09:52:28Z</time></trkpt><trkpt lat="43.20866349740196" lon="11.433645989440693"><ele>163.0</ele><time>2026-04-06T09:52:29Z</time></trkpt><trkpt lat="43.20872403132667" lon="11.43350691310186"><ele>163.0</ele><time>2026-04-06T09:52:30Z</time></trkpt><trkpt lat="43.208780740931886" lon="11.433363024824338"><ele>163.0</ele><time>2026-04-06T09:52:31Z</time></trkpt><trkpt lat="43.208832247824745" lon="11.433209096986689"><ele>163.0</ele><time>2026-04-06T09:52:32Z</time></trkpt><trkpt lat="43.20888455562183" lon="11.433052928485994"><ele>163.0</ele><time>2026-04-06T09:52:33Z</time></trkpt><trkpt lat="43.20893677468408" lon="11.432897908193883"><ele>163.0</ele><time>2026-04-06T09:52:34Z</time></trkpt><trkpt lat="43.20898930030307" lon="11.432742426142392"><ele>163.0</ele><time>2026-04-06T09:52:35Z</time></trkpt><trkpt lat="43.209044032916914" lon="11.43259220294026"><ele>163.4</ele><time>2026-04-06T09:52:36Z</time></trkpt><trkpt lat="43.209098173956804" lon="11.432448459203925"><ele>163.8</ele><time>2026-04-06T09:52:37Z</time></trkpt><trkpt lat="43.209157032865946" lon="11.432318239337269"><ele>164.2</ele><time>2026-04-06T09:52:38Z</time></trkpt><trkpt lat="43.209227589668" lon="11.432209686261746"><ele>164.6</ele><time>2026-04-06T09:52:39Z</time></trkpt><trkpt lat="43.20930867006856" lon="11.432123822475436"><ele>165.0</ele><time>2026-04-06T09:52:40Z</time></trkpt><trkpt lat="43.20940193127338" lon="11.432058698764337"><ele>165.0</ele><time>2026-04-06T09:52:41Z</time></trkpt><trkpt lat="43.209503720060745" lon="11.432021392925009"><ele>165.0</ele><time>2026-04-06T09:52:42Z</time></trkpt><trkpt lat="43.209614297661254" lon="11.432004746150408"><ele>165.0</ele><time>2026-04-06T09:52:43Z</time></trkpt><trkpt lat="43.20973382406159" lon="11.432003775801231"><ele>165.0</ele><time>2026-04-06T09:52:44Z</time></trkpt><trkpt lat="43.20985918656232" lon="11.431998590949686"><ele>165.25</ele><time>2026-04-06T09:52:45Z</time></trkpt><trkpt lat="43.209987949279466" lon="11.43198873577206"><ele>165.5</ele><time>2026-04-06T09:52:46Z</time></trkpt><trkpt lat="43.210121484301716" lon="11.432000136168208"><ele>165.75</ele><time>2026-04-06T09:52:47Z</time></trkpt><trkpt lat="43.21026139750878" lon="11.431992959914322"><ele>166.0</ele><time>2026-04-06T09:52:48Z</time></trkpt><trkpt lat="43.210409547941836" lon="11.431986424200565"><ele>166.0</ele><time>2026-04-06T09:52:49Z</time></trkpt><trkpt lat="43.21056086824381" lon="11.43195649746901"><ele>166.0</ele><time>2026-04-06T09:52:50Z</time></trkpt><trkpt lat="43.21071715590166" lon="11.431946663713992"><ele>166.0</ele><time>2026-04-06T09:52:51Z</time></trkpt><trkpt lat="43.210880941627096" lon="11.431960195732222"><ele>165.66666666666669</ele><time>2026-04-06T09:52:52Z</time></trkpt><trkpt lat="43.21105176709975" lon="11.431950264370219"><ele>165.33333333333334</ele><time>2026-04-06T09:52:53Z</time></trkpt><trkpt lat="43.21122596966265" lon="11.431918496677858"><ele>165.0</ele><time>2026-04-06T09:52:54Z</time></trkpt><trkpt lat="43.211397324094385" lon="11.431914175208652"><ele>165.33333333333334</ele><time>2026-04-06T09:52:55Z</time></trkpt><trkpt lat="43.21157030764597" lon="11.431907443297101"><ele>165.66666666666669</ele><time>2026-04-06T09:52:56Z</time></trkpt><trkpt lat="43.21174551637984" lon="11.431897162038105"><ele>166.0</ele><time>2026-04-06T09:52:57Z</time></trkpt><trkpt lat="43.21192409100387" lon="11.431888706744566"><ele>166.0</ele><time>2026-04-06T09:52:58Z</time></trkpt><trkpt lat="43.21210533380825" lon="11.431878362270947"><ele>166.0</ele><time>2026-04-06T09:52:59Z</time></trkpt><trkpt lat="43.21228951615912" lon="11.431868689944581"><ele>166.0</ele><time>2026-04-06T09:53:00Z</time></trkpt><trkpt lat="43.21247614810314" lon="11.431859000387037"><ele>165.66666666666669</ele><time>2026-04-06T09:53:01Z</time></trkpt><trkpt lat="43.212662024894996" lon="11.431858780657125"><ele>165.33333333333334</ele><time>2026-04-06T09:53:02Z</time></trkpt><trkpt lat="43.21284914784275" lon="11.431871334888804"><ele>165.0</ele><time>2026-04-06T09:53:03Z</time></trkpt><trkpt lat="43.21303795633876" lon="11.431901325726685"><ele>164.33333333333334</ele><time>2026-04-06T09:53:03.999Z</time></trkpt><trkpt lat="43.21322345926307" lon="11.431943743925585"><ele>163.66666666666669</ele><time>2026-04-06T09:53:04.999Z</time></trkpt><trkpt lat="43.21340671205202" lon="11.431994068093138"><ele>163.0</ele><time>2026-04-06T09:53:05.999Z</time></trkpt><trkpt lat="43.21358783328677" lon="11.432043335170793"><ele>163.0</ele><time>2026-04-06T09:53:06.999Z</time></trkpt><trkpt lat="43.21376803060797" lon="11.432087100564958"><ele>163.0</ele><time>2026-04-06T09:53:07.999Z</time></trkpt><trkpt lat="43.213945923318306" lon="11.432128057874323"><ele>163.0</ele><time>2026-04-06T09:53:08.999Z</time></trkpt><trkpt lat="43.21411833114421" lon="11.432174250931999"><ele>163.33333333333334</ele><time>2026-04-06T09:53:09.999Z</time></trkpt><trkpt lat="43.21427863787629" lon="11.432251317733826"><ele>163.66666666666666</ele><time>2026-04-06T09:53:10.999Z</time></trkpt><trkpt lat="43.214430985346176" lon="11.43232424041226"><ele>164.0</ele><time>2026-04-06T09:53:11.999Z</time></trkpt><trkpt lat="43.214576804160735" lon="11.432401345410511"><ele>164.0</ele><time>2026-04-06T09:53:12.999Z</time></trkpt><trkpt lat="43.214711890551015" lon="11.432474059914538"><ele>164.0</ele><time>2026-04-06T09:53:13.999Z</time></trkpt><trkpt lat="43.214834739830586" lon="11.432539138798564"><ele>164.0</ele><time>2026-04-06T09:53:14.999Z</time></trkpt><trkpt lat="43.214943018885116" lon="11.43259547456828"><ele>164.0</ele><time>2026-04-06T09:53:15.999Z</time></trkpt><trkpt lat="43.215041292553266" lon="11.432645737859076"><ele>163.5</ele><time>2026-04-06T09:53:16.999Z</time></trkpt><trkpt lat="43.2151312674049" lon="11.432690142245342"><ele>163.0</ele><time>2026-04-06T09:53:17.999Z</time></trkpt><trkpt lat="43.21521216065979" lon="11.432728400297975"><ele>162.5</ele><time>2026-04-06T09:53:18.999Z</time></trkpt><trkpt lat="43.21528655833824" lon="11.43274526629561"><ele>162.0</ele><time>2026-04-06T09:53:19.999Z</time></trkpt><trkpt lat="43.2153646520439" lon="11.432793715022452"><ele>161.5</ele><time>2026-04-06T09:53:20.999Z</time></trkpt><trkpt lat="43.21539341922601" lon="11.432895956999436"><ele>161.0</ele><time>2026-04-06T09:53:21.999Z</time></trkpt><trkpt lat="43.21542812751642" lon="11.432976005605683"><ele>160.8</ele><time>2026-04-06T09:53:22.999Z</time></trkpt><trkpt lat="43.21546152598537" lon="11.433049809382618"><ele>160.60000000000002</ele><time>2026-04-06T09:53:23.999Z</time></trkpt><trkpt lat="43.21545497690982" lon="11.433161094199335"><ele>160.4</ele><time>2026-04-06T09:53:24.999Z</time></trkpt><trkpt lat="43.21549437745947" lon="11.433265250175975"><ele>160.2</ele><time>2026-04-06T09:53:25.999Z</time></trkpt><trkpt lat="43.215575253929316" lon="11.433387387354028"><ele>160.0</ele><time>2026-04-06T09:53:27.999Z</time></trkpt><trkpt lat="43.21570341675805" lon="11.433460692993137"><ele>160.0</ele><time>2026-04-06T09:53:29.999Z</time></trkpt><trkpt lat="43.21578122503786" lon="11.433476753610059"><ele>160.0</ele><time>2026-04-06T09:53:30.999Z</time></trkpt><trkpt lat="43.21586738210795" lon="11.433475091754554"><ele>160.0</ele><time>2026-04-06T09:53:31.999Z</time></trkpt><trkpt lat="43.215953654072045" lon="11.433447416419972"><ele>160.0</ele><time>2026-04-06T09:53:32.999Z</time></trkpt><trkpt lat="43.215995609148905" lon="11.433364091541248"><ele>160.0</ele><time>2026-04-06T09:53:33.999Z</time></trkpt><trkpt lat="43.216038835850014" lon="11.43329622668067"><ele>160.0</ele><time>2026-04-06T09:53:34.999Z</time></trkpt><trkpt lat="43.21618275914437" lon="11.433362602841168"><ele>160.0</ele><time>2026-04-06T09:53:35.999Z</time></trkpt><trkpt lat="43.216272671773275" lon="11.43339782982723"><ele>160.0</ele><time>2026-04-06T09:53:36.999Z</time></trkpt><trkpt lat="43.21636709219649" lon="11.433450786002114"><ele>160.0</ele><time>2026-04-06T09:53:37.999Z</time></trkpt><trkpt lat="43.21647027374529" lon="11.433503846024685"><ele>160.0</ele><time>2026-04-06T09:53:38.999Z</time></trkpt><trkpt lat="43.216579432372036" lon="11.433548201041306"><ele>160.0</ele><time>2026-04-06T09:53:39.999Z</time></trkpt><trkpt lat="43.21668904416946" lon="11.433582179284222"><ele>159.75</ele><time>2026-04-06T09:53:40.999Z</time></trkpt><trkpt lat="43.21680909546135" lon="11.4336138289632"><ele>159.5</ele><time>2026-04-06T09:53:41.999Z</time></trkpt><trkpt lat="43.2169379414851" lon="11.433633526630684"><ele>159.25</ele><time>2026-04-06T09:53:42.999Z</time></trkpt><trkpt lat="43.21707047328166" lon="11.433622159140592"><ele>159.0</ele><time>2026-04-06T09:53:43.999Z</time></trkpt><trkpt lat="43.21720740496586" lon="11.433588858130706"><ele>158.75</ele><time>2026-04-06T09:53:44.999Z</time></trkpt><trkpt lat="43.21734221665009" lon="11.433530633217558"><ele>158.5</ele><time>2026-04-06T09:53:45.999Z</time></trkpt><trkpt lat="43.21747261805536" lon="11.43344988948793"><ele>158.25</ele><time>2026-04-06T09:53:46.999Z</time></trkpt><trkpt lat="43.217602159115174" lon="11.433372473638633"><ele>158.0</ele><time>2026-04-06T09:53:47.999Z</time></trkpt><trkpt lat="43.21773729991426" lon="11.433292220004606"><ele>158.0</ele><time>2026-04-06T09:53:48.999Z</time></trkpt><trkpt lat="43.21787249385422" lon="11.433200056972252"><ele>158.0</ele><time>2026-04-06T09:53:49.999Z</time></trkpt><trkpt lat="43.218010074217055" lon="11.433103589660805"><ele>158.0</ele><time>2026-04-06T09:53:50.999Z</time></trkpt><trkpt lat="43.21814747854995" lon="11.433003401572726"><ele>158.33333333333331</ele><time>2026-04-06T09:53:51.999Z</time></trkpt><trkpt lat="43.21828623208872" lon="11.432900892125328"><ele>158.66666666666666</ele><time>2026-04-06T09:53:52.999Z</time></trkpt><trkpt lat="43.21842322982867" lon="11.432795738448153"><ele>159.0</ele><time>2026-04-06T09:53:53.999Z</time></trkpt><trkpt lat="43.21856454931122" lon="11.43268884992405"><ele>159.0</ele><time>2026-04-06T09:53:54.999Z</time></trkpt><trkpt lat="43.21870289667447" lon="11.432578141952474"><ele>159.0</ele><time>2026-04-06T09:53:55.999Z</time></trkpt><trkpt lat="43.218837436853704" lon="11.4324785510856"><ele>159.0</ele><time>2026-04-06T09:53:56.999Z</time></trkpt><trkpt lat="43.2190099669239" lon="11.432359711153316"><ele>159.0</ele><time>2026-04-06T09:53:57.999Z</time></trkpt><trkpt lat="43.21916918202396" lon="11.432238583808685"><ele>159.0</ele><time>2026-04-06T09:53:58.999Z</time></trkpt><trkpt lat="43.219329291124495" lon="11.432114468965402"><ele>159.0</ele><time>2026-04-06T09:53:59.999Z</time></trkpt><trkpt lat="43.21949418362986" lon="11.431987144127074"><ele>159.33333333333334</ele><time>2026-04-06T09:54:00.998Z</time></trkpt><trkpt lat="43.21966338642604" lon="11.431862531157945"><ele>159.66666666666669</ele><time>2026-04-06T09:54:01.998Z</time></trkpt><trkpt lat="43.21983301652001" lon="11.431739085790936"><ele>160.0</ele><time>2026-04-06T09:54:02.998Z</time></trkpt><trkpt lat="43.21999675718895" lon="11.431616946817245"><ele>159.33333333333334</ele><time>2026-04-06T09:54:04Z</time></trkpt><trkpt lat="43.220163899485485" lon="11.431493118279583"><ele>158.66666666666666</ele><time>2026-04-06T09:54:05Z</time></trkpt><trkpt lat="43.220332917803916" lon="11.43136738987637"><ele>158.0</ele><time>2026-04-06T09:54:06Z</time></trkpt><trkpt lat="43.220506965161455" lon="11.431238664162349"><ele>158.0</ele><time>2026-04-06T09:54:07Z</time></trkpt><trkpt lat="43.220685328237735" lon="11.431103234700066"><ele>158.0</ele><time>2026-04-06T09:54:08Z</time></trkpt><trkpt lat="43.220868505835746" lon="11.430969468188037"><ele>158.0</ele><time>2026-04-06T09:54:09Z</time></trkpt><trkpt lat="43.221054228255916" lon="11.430834754996122"><ele>158.0</ele><time>2026-04-06T09:54:10Z</time></trkpt><trkpt lat="43.22124978940247" lon="11.430703291411042"><ele>158.0</ele><time>2026-04-06T09:54:11Z</time></trkpt><trkpt lat="43.22144395415852" lon="11.430557930977335"><ele>158.0</ele><time>2026-04-06T09:54:12Z</time></trkpt><trkpt lat="43.22164175666684" lon="11.430413744139084"><ele>158.5</ele><time>2026-04-06T09:54:13Z</time></trkpt><trkpt lat="43.221835640444795" lon="11.43026541455671"><ele>159.0</ele><time>2026-04-06T09:54:14Z</time></trkpt><trkpt lat="43.22204131150423" lon="11.430111029545042"><ele>159.0</ele><time>2026-04-06T09:54:15Z</time></trkpt><trkpt lat="43.22224108367277" lon="11.429948831777073"><ele>159.0</ele><time>2026-04-06T09:54:16Z</time></trkpt><trkpt lat="43.22244152260885" lon="11.429779471802359"><ele>160.0</ele><time>2026-04-06T09:54:17Z</time></trkpt><trkpt lat="43.222639401016025" lon="11.429600853546614"><ele>161.0</ele><time>2026-04-06T09:54:18Z</time></trkpt><trkpt lat="43.222837409907214" lon="11.429418602331832"><ele>161.0</ele><time>2026-04-06T09:54:19Z</time></trkpt><trkpt lat="43.2230355913011" lon="11.42923088847905"><ele>161.0</ele><time>2026-04-06T09:54:20Z</time></trkpt><trkpt lat="43.223232692362174" lon="11.429041706989052"><ele>160.0</ele><time>2026-04-06T09:54:21Z</time></trkpt><trkpt lat="43.223423334305494" lon="11.428845006640293"><ele>159.0</ele><time>2026-04-06T09:54:22Z</time></trkpt><trkpt lat="43.2236164605882" lon="11.428647269584216"><ele>159.0</ele><time>2026-04-06T09:54:23Z</time></trkpt><trkpt lat="43.22380063900276" lon="11.428453754061758"><ele>159.0</ele><time>2026-04-06T09:54:24Z</time></trkpt><trkpt lat="43.22398196353438" lon="11.42825694077019"><ele>158.5</ele><time>2026-04-06T09:54:25Z</time></trkpt><trkpt lat="43.22416439399953" lon="11.42805922709261"><ele>158.0</ele><time>2026-04-06T09:54:26Z</time></trkpt><trkpt lat="43.224349897611376" lon="11.427864479348177"><ele>158.0</ele><time>2026-04-06T09:54:27Z</time></trkpt><trkpt lat="43.224537218145606" lon="11.42767682729366"><ele>158.0</ele><time>2026-04-06T09:54:28Z</time></trkpt><trkpt lat="43.224731046218494" lon="11.427500147026079"><ele>158.5</ele><time>2026-04-06T09:54:29Z</time></trkpt><trkpt lat="43.22493133402963" lon="11.42733434302183"><ele>159.0</ele><time>2026-04-06T09:54:30Z</time></trkpt><trkpt lat="43.225138263207505" lon="11.427182616285487"><ele>159.5</ele><time>2026-04-06T09:54:31Z</time></trkpt><trkpt lat="43.2253517252082" lon="11.427048497186265"><ele>160.0</ele><time>2026-04-06T09:54:32Z</time></trkpt><trkpt lat="43.225571396467096" lon="11.426930125935085"><ele>159.0</ele><time>2026-04-06T09:54:33Z</time></trkpt><trkpt lat="43.22579708845903" lon="11.426829958865492"><ele>158.0</ele><time>2026-04-06T09:54:34Z</time></trkpt><trkpt lat="43.22602547134962" lon="11.426744081368936"><ele>158.0</ele><time>2026-04-06T09:54:35Z</time></trkpt><trkpt lat="43.226256955141345" lon="11.4266686092251"><ele>158.0</ele><time>2026-04-06T09:54:36Z</time></trkpt><trkpt lat="43.22648900350229" lon="11.42659934277277"><ele>158.0</ele><time>2026-04-06T09:54:37Z</time></trkpt><trkpt lat="43.22672429692573" lon="11.426528670351884"><ele>158.0</ele><time>2026-04-06T09:54:38Z</time></trkpt><trkpt lat="43.226960972539445" lon="11.426460100714177"><ele>158.0</ele><time>2026-04-06T09:54:39Z</time></trkpt><trkpt lat="43.227199172886536" lon="11.426389643145203"><ele>158.0</ele><time>2026-04-06T09:54:40Z</time></trkpt><trkpt lat="43.22743564397957" lon="11.426317757586213"><ele>159.0</ele><time>2026-04-06T09:54:41Z</time></trkpt><trkpt lat="43.227672790040536" lon="11.42624129730843"><ele>160.0</ele><time>2026-04-06T09:54:42Z</time></trkpt><trkpt lat="43.22791109279488" lon="11.426161295768681"><ele>161.0</ele><time>2026-04-06T09:54:43Z</time></trkpt><trkpt lat="43.228148772727685" lon="11.426078384226347"><ele>162.0</ele><time>2026-04-06T09:54:44Z</time></trkpt><trkpt lat="43.22838504037917" lon="11.42598580492161"><ele>162.0</ele><time>2026-04-06T09:54:45Z</time></trkpt><trkpt lat="43.22862453795328" lon="11.425882982301134"><ele>162.0</ele><time>2026-04-06T09:54:46Z</time></trkpt><trkpt lat="43.228858314390585" lon="11.425773610207422"><ele>161.5</ele><time>2026-04-06T09:54:47Z</time></trkpt><trkpt lat="43.22909082165934" lon="11.425652434909072"><ele>161.0</ele><time>2026-04-06T09:54:48Z</time></trkpt><trkpt lat="43.22932309913824" lon="11.425521322684451"><ele>161.5</ele><time>2026-04-06T09:54:49Z</time></trkpt><trkpt lat="43.22955598581582" lon="11.425382036634401"><ele>162.0</ele><time>2026-04-06T09:54:50Z</time></trkpt><trkpt lat="43.22978735087272" lon="11.425236094533746"><ele>162.0</ele><time>2026-04-06T09:54:51Z</time></trkpt><trkpt lat="43.23001948230359" lon="11.425083332214117"><ele>162.0</ele><time>2026-04-06T09:54:52Z</time></trkpt><trkpt lat="43.23025048200889" lon="11.4249294207459"><ele>162.0</ele><time>2026-04-06T09:54:53Z</time></trkpt><trkpt lat="43.230480456216576" lon="11.42477258589902"><ele>162.0</ele><time>2026-04-06T09:54:54Z</time></trkpt><trkpt lat="43.230708380742776" lon="11.424613028966098"><ele>162.0</ele><time>2026-04-06T09:54:55Z</time></trkpt><trkpt lat="43.23094359429425" lon="11.424445657232896"><ele>162.0</ele><time>2026-04-06T09:54:56Z</time></trkpt><trkpt lat="43.2311709556831" lon="11.424281676228222"><ele>162.0</ele><time>2026-04-06T09:54:57Z</time></trkpt><trkpt lat="43.23139981553097" lon="11.424119041992194"><ele>162.0</ele><time>2026-04-06T09:54:58Z</time></trkpt><trkpt lat="43.23162725498922" lon="11.42395307449957"><ele>162.0</ele><time>2026-04-06T09:54:59Z</time></trkpt><trkpt lat="43.23185802828895" lon="11.423786904066313"><ele>162.0</ele><time>2026-04-06T09:55:00Z</time></trkpt><trkpt lat="43.23208746081214" lon="11.423617631938214"><ele>162.0</ele><time>2026-04-06T09:55:01Z</time></trkpt><trkpt lat="43.23231441132707" lon="11.423437976072108"><ele>162.0</ele><time>2026-04-06T09:55:02Z</time></trkpt><trkpt lat="43.23253157786672" lon="11.423244643787191"><ele>162.0</ele><time>2026-04-06T09:55:03Z</time></trkpt><trkpt lat="43.23274317054874" lon="11.423036001839769"><ele>162.0</ele><time>2026-04-06T09:55:04Z</time></trkpt><trkpt lat="43.2329445389814" lon="11.422812069113645"><ele>163.0</ele><time>2026-04-06T09:55:05Z</time></trkpt><trkpt lat="43.233134905305484" lon="11.42257357185161"><ele>164.0</ele><time>2026-04-06T09:55:06Z</time></trkpt><trkpt lat="43.23331387093907" lon="11.422320987236475"><ele>163.5</ele><time>2026-04-06T09:55:07Z</time></trkpt><trkpt lat="43.233485396419695" lon="11.42205962508915"><ele>163.0</ele><time>2026-04-06T09:55:08Z</time></trkpt><trkpt lat="43.233654930299586" lon="11.421794581800198"><ele>163.0</ele><time>2026-04-06T09:55:09Z</time></trkpt><trkpt lat="43.23382589953187" lon="11.421527190788636"><ele>163.0</ele><time>2026-04-06T09:55:09.999Z</time></trkpt><trkpt lat="43.23399751732558" lon="11.421258132939473"><ele>163.0</ele><time>2026-04-06T09:55:10.999Z</time></trkpt><trkpt lat="43.23417243859308" lon="11.420990526564415"><ele>163.0</ele><time>2026-04-06T09:55:11.999Z</time></trkpt><trkpt lat="43.234353370813764" lon="11.420720688950421"><ele>163.5</ele><time>2026-04-06T09:55:12.999Z</time></trkpt><trkpt lat="43.23454082284604" lon="11.420460840105452"><ele>164.0</ele><time>2026-04-06T09:55:13.999Z</time></trkpt><trkpt lat="43.234737983858246" lon="11.42021415666641"><ele>163.0</ele><time>2026-04-06T09:55:14.999Z</time></trkpt><trkpt lat="43.23494336709357" lon="11.41998102399094"><ele>162.0</ele><time>2026-04-06T09:55:15.999Z</time></trkpt><trkpt lat="43.23515797286351" lon="11.419765145313217"><ele>163.0</ele><time>2026-04-06T09:55:16.999Z</time></trkpt><trkpt lat="43.235381923725875" lon="11.4195660169925"><ele>164.0</ele><time>2026-04-06T09:55:17.999Z</time></trkpt><trkpt lat="43.23560732854101" lon="11.419378856386126"><ele>163.5</ele><time>2026-04-06T09:55:18.999Z</time></trkpt><trkpt lat="43.23583498596126" lon="11.4191981506593"><ele>163.0</ele><time>2026-04-06T09:55:19.999Z</time></trkpt><trkpt lat="43.23605996510496" lon="11.419018403069419"><ele>163.0</ele><time>2026-04-06T09:55:20.999Z</time></trkpt><trkpt lat="43.23628726355182" lon="11.418838914198606"><ele>163.0</ele><time>2026-04-06T09:55:21.999Z</time></trkpt><trkpt lat="43.23651227803955" lon="11.418655785672065"><ele>161.5</ele><time>2026-04-06T09:55:22.999Z</time></trkpt><trkpt lat="43.23673242818682" lon="11.41846647084191"><ele>160.0</ele><time>2026-04-06T09:55:23.999Z</time></trkpt><trkpt lat="43.236947720231974" lon="11.418262454634581"><ele>160.0</ele><time>2026-04-06T09:55:24.999Z</time></trkpt><trkpt lat="43.23715461223645" lon="11.418043286042813"><ele>160.0</ele><time>2026-04-06T09:55:25.999Z</time></trkpt><trkpt lat="43.23735168553694" lon="11.417807223186713"><ele>161.5</ele><time>2026-04-06T09:55:26.999Z</time></trkpt><trkpt lat="43.23754368103817" lon="11.417560280355039"><ele>163.0</ele><time>2026-04-06T09:55:27.999Z</time></trkpt><trkpt lat="43.237730394294225" lon="11.417305277317576"><ele>162.5</ele><time>2026-04-06T09:55:28.999Z</time></trkpt><trkpt lat="43.23791799927166" lon="11.417044083695892"><ele>162.0</ele><time>2026-04-06T09:55:29.999Z</time></trkpt><trkpt lat="43.238104055156604" lon="11.416779185804026"><ele>162.0</ele><time>2026-04-06T09:55:30.999Z</time></trkpt><trkpt lat="43.238286108550206" lon="11.416507897344957"><ele>162.0</ele><time>2026-04-06T09:55:31.999Z</time></trkpt><trkpt lat="43.23846537318845" lon="11.416230761361746"><ele>163.0</ele><time>2026-04-06T09:55:32.999Z</time></trkpt><trkpt lat="43.238646842929434" lon="11.41595218887601"><ele>164.0</ele><time>2026-04-06T09:55:33.999Z</time></trkpt><trkpt lat="43.238831554116366" lon="11.415675966877306"><ele>163.5</ele><time>2026-04-06T09:55:34.999Z</time></trkpt><trkpt lat="43.2390189007707" lon="11.415399980709731"><ele>163.0</ele><time>2026-04-06T09:55:35.999Z</time></trkpt><trkpt lat="43.23920780239884" lon="11.415124926905921"><ele>163.0</ele><time>2026-04-06T09:55:36.999Z</time></trkpt><trkpt lat="43.239392368119" lon="11.414848141864912"><ele>163.0</ele><time>2026-04-06T09:55:37.999Z</time></trkpt><trkpt lat="43.23957495140472" lon="11.414569601461148"><ele>163.5</ele><time>2026-04-06T09:55:38.999Z</time></trkpt><trkpt lat="43.23975817618461" lon="11.414292209258923"><ele>164.0</ele><time>2026-04-06T09:55:39.999Z</time></trkpt><trkpt lat="43.23994170048082" lon="11.414016255908306"><ele>163.0</ele><time>2026-04-06T09:55:40.999Z</time></trkpt><trkpt lat="43.24012812015846" lon="11.413739570142377"><ele>162.0</ele><time>2026-04-06T09:55:41.999Z</time></trkpt><trkpt lat="43.240315497851114" lon="11.41345450262323"><ele>162.0</ele><time>2026-04-06T09:55:42.999Z</time></trkpt><trkpt lat="43.24049736664141" lon="11.413162837093681"><ele>162.0</ele><time>2026-04-06T09:55:43.999Z</time></trkpt><trkpt lat="43.240682445384046" lon="11.412871789860759"><ele>161.5</ele><time>2026-04-06T09:55:44.999Z</time></trkpt><trkpt lat="43.240867128882" lon="11.412584546874532"><ele>161.0</ele><time>2026-04-06T09:55:45.999Z</time></trkpt><trkpt lat="43.24105467264306" lon="11.412305309007413"><ele>162.0</ele><time>2026-04-06T09:55:46.999Z</time></trkpt><trkpt lat="43.24124492883361" lon="11.41203452270751"><ele>163.0</ele><time>2026-04-06T09:55:47.999Z</time></trkpt><trkpt lat="43.241430733360346" lon="11.411767726471071"><ele>163.5</ele><time>2026-04-06T09:55:48.999Z</time></trkpt><trkpt lat="43.24161407573334" lon="11.411506420210685"><ele>164.0</ele><time>2026-04-06T09:55:49.999Z</time></trkpt><trkpt lat="43.24179863625969" lon="11.411253190002766"><ele>164.0</ele><time>2026-04-06T09:55:50.999Z</time></trkpt><trkpt lat="43.24199191687208" lon="11.411010234898743"><ele>164.0</ele><time>2026-04-06T09:55:51.999Z</time></trkpt><trkpt lat="43.24219446301049" lon="11.410787922249273"><ele>164.0</ele><time>2026-04-06T09:55:52.999Z</time></trkpt><trkpt lat="43.242401839969126" lon="11.410579700301248"><ele>164.0</ele><time>2026-04-06T09:55:53.999Z</time></trkpt><trkpt lat="43.24261563072196" lon="11.410387455152788"><ele>164.0</ele><time>2026-04-06T09:55:54.999Z</time></trkpt><trkpt lat="43.24283701018301" lon="11.410214724571874"><ele>164.0</ele><time>2026-04-06T09:55:55.999Z</time></trkpt><trkpt lat="43.24305694439548" lon="11.410060971193516"><ele>163.5</ele><time>2026-04-06T09:55:56.999Z</time></trkpt><trkpt lat="43.24327338454296" lon="11.40991040921463"><ele>163.0</ele><time>2026-04-06T09:55:57.999Z</time></trkpt><trkpt lat="43.243488243155426" lon="11.409763928514963"><ele>163.5</ele><time>2026-04-06T09:55:58.999Z</time></trkpt><trkpt lat="43.24370311307752" lon="11.409621629868198"><ele>164.0</ele><time>2026-04-06T09:55:59.999Z</time></trkpt><trkpt lat="43.2439134767836" lon="11.409493290910978"><ele>163.33333333333331</ele><time>2026-04-06T09:56:00.999Z</time></trkpt><trkpt lat="43.24411732842486" lon="11.409378653994628"><ele>162.66666666666666</ele><time>2026-04-06T09:56:01.999Z</time></trkpt><trkpt lat="43.244317964596085" lon="11.40927397851873"><ele>162.0</ele><time>2026-04-06T09:56:02.999Z</time></trkpt><trkpt lat="43.244518220067306" lon="11.40916940741566"><ele>162.0</ele><time>2026-04-06T09:56:03.999Z</time></trkpt><trkpt lat="43.24471687476126" lon="11.40907612390263"><ele>162.0</ele><time>2026-04-06T09:56:04.999Z</time></trkpt><trkpt lat="43.244906511825874" lon="11.409003662193822"><ele>162.0</ele><time>2026-04-06T09:56:05.998Z</time></trkpt><trkpt lat="43.245092950813884" lon="11.408961661626915"><ele>162.0</ele><time>2026-04-06T09:56:06.998Z</time></trkpt><trkpt lat="43.24527209790114" lon="11.408953224048542"><ele>162.0</ele><time>2026-04-06T09:56:07.998Z</time></trkpt><trkpt lat="43.245436224428836" lon="11.408974212217101"><ele>162.0</ele><time>2026-04-06T09:56:08.998Z</time></trkpt><trkpt lat="43.245595570014515" lon="11.409019407444298"><ele>162.33333333333334</ele><time>2026-04-06T09:56:10Z</time></trkpt><trkpt lat="43.245748682901116" lon="11.409082643881671"><ele>162.66666666666669</ele><time>2026-04-06T09:56:11Z</time></trkpt><trkpt lat="43.245895649756534" lon="11.4091567454212"><ele>163.0</ele><time>2026-04-06T09:56:12Z</time></trkpt><trkpt lat="43.24603959603064" lon="11.409225211389185"><ele>163.0</ele><time>2026-04-06T09:56:13Z</time></trkpt><trkpt lat="43.246186185354865" lon="11.409275038085545"><ele>163.0</ele><time>2026-04-06T09:56:14Z</time></trkpt><trkpt lat="43.2463299081976" lon="11.40928296630339"><ele>163.0</ele><time>2026-04-06T09:56:15Z</time></trkpt><trkpt lat="43.24646568566814" lon="11.409240566018042"><ele>163.0</ele><time>2026-04-06T09:56:16Z</time></trkpt><trkpt lat="43.24658107586543" lon="11.409163478514394"><ele>163.0</ele><time>2026-04-06T09:56:17Z</time></trkpt><trkpt lat="43.24666685392431" lon="11.409051715497727"><ele>163.0</ele><time>2026-04-06T09:56:18Z</time></trkpt><trkpt lat="43.24672101829748" lon="11.408907154001918"><ele>163.0</ele><time>2026-04-06T09:56:19Z</time></trkpt><trkpt lat="43.24675510398698" lon="11.408748105629913"><ele>163.0</ele><time>2026-04-06T09:56:20Z</time></trkpt><trkpt lat="43.24677223384132" lon="11.408579828981921"><ele>163.0</ele><time>2026-04-06T09:56:21Z</time></trkpt><trkpt lat="43.246763102885055" lon="11.40839603945987"><ele>163.0</ele><time>2026-04-06T09:56:22Z</time></trkpt><trkpt lat="43.246717026653045" lon="11.40820863602098"><ele>163.0</ele><time>2026-04-06T09:56:23Z</time></trkpt><trkpt lat="43.2466390142631" lon="11.408032558716872"><ele>163.0</ele><time>2026-04-06T09:56:24Z</time></trkpt><trkpt lat="43.24657219268105" lon="11.407851430700806"><ele>163.0</ele><time>2026-04-06T09:56:25Z</time></trkpt><trkpt lat="43.24650130430381" lon="11.407664034213578"><ele>163.0</ele><time>2026-04-06T09:56:26Z</time></trkpt><trkpt lat="43.246435467217196" lon="11.407488212876187"><ele>163.0</ele><time>2026-04-06T09:56:27Z</time></trkpt><trkpt lat="43.246368906318516" lon="11.40730943514362"><ele>163.0</ele><time>2026-04-06T09:56:28Z</time></trkpt><trkpt lat="43.24630232924939" lon="11.407130532983357"><ele>163.4</ele><time>2026-04-06T09:56:29Z</time></trkpt><trkpt lat="43.24624289615341" lon="11.406954729034346"><ele>163.8</ele><time>2026-04-06T09:56:30Z</time></trkpt><trkpt lat="43.24620984151546" lon="11.406807529501652"><ele>164.2</ele><time>2026-04-06T09:56:31Z</time></trkpt><trkpt lat="43.24617868455381" lon="11.406694774925864"><ele>164.6</ele><time>2026-04-06T09:56:32Z</time></trkpt><trkpt lat="43.24617114478289" lon="11.406608101572353"><ele>165.0</ele><time>2026-04-06T09:56:33Z</time></trkpt><trkpt lat="43.24612372499377" lon="11.406515667376143"><ele>165.0</ele><time>2026-04-06T09:56:35Z</time></trkpt><trkpt lat="43.246180686940406" lon="11.406423960455093"><ele>165.0</ele><time>2026-04-06T09:56:37Z</time></trkpt><trkpt lat="43.24623036078286" lon="11.406362360968593"><ele>165.0</ele><time>2026-04-06T09:56:41Z</time></trkpt><trkpt lat="43.24628981971781" lon="11.4063025916051"><ele>165.0</ele><time>2026-04-06T09:56:42Z</time></trkpt><trkpt lat="43.24632810405747" lon="11.406192845854502"><ele>165.0</ele><time>2026-04-06T09:56:43Z</time></trkpt><trkpt lat="43.246459591159564" lon="11.406138929507545"><ele>165.5</ele><time>2026-04-06T09:56:44Z</time></trkpt><trkpt lat="43.24655611113139" lon="11.406041396105545"><ele>166.0</ele><time>2026-04-06T09:56:45Z</time></trkpt><trkpt lat="43.24666521500336" lon="11.405939282890017"><ele>166.5</ele><time>2026-04-06T09:56:46Z</time></trkpt><trkpt lat="43.24678909033423" lon="11.405822075249123"><ele>167.0</ele><time>2026-04-06T09:56:47Z</time></trkpt><trkpt lat="43.246906865829985" lon="11.405710237322713"><ele>167.0</ele><time>2026-04-06T09:56:48Z</time></trkpt><trkpt lat="43.24702478802787" lon="11.405593921785458"><ele>167.0</ele><time>2026-04-06T09:56:49Z</time></trkpt><trkpt lat="43.24714623388613" lon="11.405475228875602"><ele>167.0</ele><time>2026-04-06T09:56:50Z</time></trkpt><trkpt lat="43.247273312586756" lon="11.405356246545649"><ele>167.0</ele><time>2026-04-06T09:56:51Z</time></trkpt><trkpt lat="43.24740076355673" lon="11.405238035600673"><ele>167.25</ele><time>2026-04-06T09:56:52Z</time></trkpt><trkpt lat="43.24752216016417" lon="11.405119938817435"><ele>167.5</ele><time>2026-04-06T09:56:53Z</time></trkpt><trkpt lat="43.247634103171556" lon="11.404997609861677"><ele>167.75</ele><time>2026-04-06T09:56:54Z</time></trkpt><trkpt lat="43.24773609818648" lon="11.404873912197747"><ele>168.0</ele><time>2026-04-06T09:56:55Z</time></trkpt><trkpt lat="43.2478308511349" lon="11.40474507720932"><ele>168.4</ele><time>2026-04-06T09:56:56Z</time></trkpt><trkpt lat="43.247908849717206" lon="11.404613904784936"><ele>168.8</ele><time>2026-04-06T09:56:57Z</time></trkpt><trkpt lat="43.24797886902837" lon="11.40448006437508"><ele>169.2</ele><time>2026-04-06T09:56:58Z</time></trkpt><trkpt lat="43.24806776779182" lon="11.404386749321562"><ele>169.6</ele><time>2026-04-06T09:56:59Z</time></trkpt><trkpt lat="43.248118159227076" lon="11.404288161880121"><ele>170.0</ele><time>2026-04-06T09:57:00Z</time></trkpt><trkpt lat="43.24811133261326" lon="11.404161658799845"><ele>169.8</ele><time>2026-04-06T09:57:01Z</time></trkpt><trkpt lat="43.24815977241546" lon="11.404030752229719"><ele>169.6</ele><time>2026-04-06T09:57:03Z</time></trkpt><trkpt lat="43.24818689007237" lon="11.40394575041781"><ele>169.39999999999998</ele><time>2026-04-06T09:57:05Z</time></trkpt><trkpt lat="43.248236218124795" lon="11.40387127113901"><ele>169.2</ele><time>2026-04-06T09:57:22.999Z</time></trkpt><trkpt lat="43.24828920727119" lon="11.403806431868036"><ele>169.0</ele><time>2026-04-06T09:57:24.999Z</time></trkpt><trkpt lat="43.24834627138656" lon="11.403585105184995"><ele>169.0</ele><time>2026-04-06T09:58:06.999Z</time></trkpt><trkpt lat="43.248380119663736" lon="11.40348312539404"><ele>169.0</ele><time>2026-04-06T09:58:07.999Z</time></trkpt><trkpt lat="43.248419457803166" lon="11.403360180096334"><ele>169.0</ele><time>2026-04-06T09:58:08.999Z</time></trkpt><trkpt lat="43.24846228794758" lon="11.40323038596541"><ele>169.0</ele><time>2026-04-06T09:58:09.999Z</time></trkpt><trkpt lat="43.24851583878884" lon="11.40309862642422"><ele>169.0</ele><time>2026-04-06T09:58:10.999Z</time></trkpt><trkpt lat="43.24857172636161" lon="11.402957196420466"><ele>169.25</ele><time>2026-04-06T09:58:11.998Z</time></trkpt><trkpt lat="43.248634133692256" lon="11.402807373910596"><ele>169.5</ele><time>2026-04-06T09:58:12.998Z</time></trkpt><trkpt lat="43.24869747067674" lon="11.402661121447231"><ele>169.75</ele><time>2026-04-06T09:58:13.998Z</time></trkpt><trkpt lat="43.24876041070111" lon="11.402511924613412"><ele>170.0</ele><time>2026-04-06T09:58:14.998Z</time></trkpt><trkpt lat="43.24883010209215" lon="11.402354914922643"><ele>170.0</ele><time>2026-04-06T09:58:16Z</time></trkpt><trkpt lat="43.2489105981377" lon="11.402197155349574"><ele>170.0</ele><time>2026-04-06T09:58:17Z</time></trkpt><trkpt lat="43.24899799711507" lon="11.402038487759922"><ele>170.0</ele><time>2026-04-06T09:58:18Z</time></trkpt><trkpt lat="43.24908894899446" lon="11.4018747169379"><ele>170.0</ele><time>2026-04-06T09:58:19Z</time></trkpt><trkpt lat="43.249177435055095" lon="11.401701671569406"><ele>169.33333333333331</ele><time>2026-04-06T09:58:20.001Z</time></trkpt><trkpt lat="43.24927122273379" lon="11.40152582968658"><ele>168.66666666666666</ele><time>2026-04-06T09:58:21Z</time></trkpt><trkpt lat="43.2493703715547" lon="11.401348938753507"><ele>168.0</ele><time>2026-04-06T09:58:22Z</time></trkpt><trkpt lat="43.249471061243646" lon="11.401168074184373"><ele>168.0</ele><time>2026-04-06T09:58:23Z</time></trkpt><trkpt lat="43.24957546506128" lon="11.400985238710717"><ele>168.0</ele><time>2026-04-06T09:58:24Z</time></trkpt><trkpt lat="43.24968019418272" lon="11.400802565677498"><ele>168.0</ele><time>2026-04-06T09:58:25Z</time></trkpt><trkpt lat="43.24978970471387" lon="11.400620559401325"><ele>168.0</ele><time>2026-04-06T09:58:26Z</time></trkpt><trkpt lat="43.24990072207947" lon="11.400440530095091"><ele>168.0</ele><time>2026-04-06T09:58:27Z</time></trkpt><trkpt lat="43.25001010947793" lon="11.400258024899562"><ele>168.0</ele><time>2026-04-06T09:58:28Z</time></trkpt><trkpt lat="43.250113914706525" lon="11.400062180469616"><ele>168.0</ele><time>2026-04-06T09:58:29Z</time></trkpt><trkpt lat="43.25020592445928" lon="11.399857053738586"><ele>168.0</ele><time>2026-04-06T09:58:30Z</time></trkpt><trkpt lat="43.25029624669282" lon="11.399645358324937"><ele>168.0</ele><time>2026-04-06T09:58:31Z</time></trkpt><trkpt lat="43.25038819127059" lon="11.399437529215371"><ele>168.66666666666666</ele><time>2026-04-06T09:58:32Z</time></trkpt><trkpt lat="43.25047807901672" lon="11.399228862423199"><ele>169.33333333333331</ele><time>2026-04-06T09:58:33Z</time></trkpt><trkpt lat="43.25056235799868" lon="11.399014699600116"><ele>170.0</ele><time>2026-04-06T09:58:34Z</time></trkpt><trkpt lat="43.250639870661395" lon="11.398797064977252"><ele>170.0</ele><time>2026-04-06T09:58:35Z</time></trkpt><trkpt lat="43.25071635004025" lon="11.398578129788364"><ele>170.0</ele><time>2026-04-06T09:58:36Z</time></trkpt><trkpt lat="43.25079635830991" lon="11.398362319856803"><ele>170.0</ele><time>2026-04-06T09:58:37Z</time></trkpt><trkpt lat="43.250876385944274" lon="11.398146089819589"><ele>170.33333333333331</ele><time>2026-04-06T09:58:38Z</time></trkpt><trkpt lat="43.25095032965233" lon="11.397937435108402"><ele>170.66666666666666</ele><time>2026-04-06T09:58:39Z</time></trkpt><trkpt lat="43.25101976603098" lon="11.39773726843506"><ele>171.0</ele><time>2026-04-06T09:58:40Z</time></trkpt><trkpt lat="43.25108819152456" lon="11.397546241870915"><ele>171.0</ele><time>2026-04-06T09:58:41Z</time></trkpt><trkpt lat="43.25115449840225" lon="11.397363234635637"><ele>171.0</ele><time>2026-04-06T09:58:42Z</time></trkpt><trkpt lat="43.251217210784084" lon="11.397189505684437"><ele>171.0</ele><time>2026-04-06T09:58:43Z</time></trkpt><trkpt lat="43.251274026685365" lon="11.39703101665386"><ele>171.0</ele><time>2026-04-06T09:58:44Z</time></trkpt><trkpt lat="43.251327012395365" lon="11.396889067662112"><ele>171.0</ele><time>2026-04-06T09:58:45Z</time></trkpt><trkpt lat="43.25137094934664" lon="11.396758061299126"><ele>171.0</ele><time>2026-04-06T09:58:46Z</time></trkpt><trkpt lat="43.251407713591895" lon="11.396643248844267"><ele>171.0</ele><time>2026-04-06T09:58:47Z</time></trkpt><trkpt lat="43.25144535695731" lon="11.39654752276372"><ele>171.0</ele><time>2026-04-06T09:58:48Z</time></trkpt><trkpt lat="43.25148205061576" lon="11.396467699017242"><ele>171.0</ele><time>2026-04-06T09:58:49Z</time></trkpt><trkpt lat="43.251511329342854" lon="11.39638987626208"><ele>171.0</ele><time>2026-04-06T09:58:50Z</time></trkpt><trkpt lat="43.25157051603016" lon="11.396242479218722"><ele>170.8</ele><time>2026-04-06T09:58:52Z</time></trkpt><trkpt lat="43.25163497314017" lon="11.39608589621652"><ele>170.60000000000002</ele><time>2026-04-06T09:58:54Z</time></trkpt><trkpt lat="43.251674298745364" lon="11.396000645420143"><ele>170.4</ele><time>2026-04-06T09:58:55Z</time></trkpt><trkpt lat="43.25171271504369" lon="11.395911451188157"><ele>170.2</ele><time>2026-04-06T09:58:56Z</time></trkpt><trkpt lat="43.25175552269055" lon="11.395813511047319"><ele>170.0</ele><time>2026-04-06T09:58:57Z</time></trkpt><trkpt lat="43.25180662078462" lon="11.395707593855892"><ele>170.0</ele><time>2026-04-06T09:58:58Z</time></trkpt><trkpt lat="43.2518613592503" lon="11.395598271265493"><ele>170.0</ele><time>2026-04-06T09:58:59Z</time></trkpt><trkpt lat="43.251917831740855" lon="11.39548978183251"><ele>170.0</ele><time>2026-04-06T09:59:00Z</time></trkpt><trkpt lat="43.25197259736176" lon="11.395388936971763"><ele>170.0</ele><time>2026-04-06T09:59:01Z</time></trkpt><trkpt lat="43.252024267072805" lon="11.395299858707983"><ele>170.0</ele><time>2026-04-06T09:59:02Z</time></trkpt><trkpt lat="43.252071000043586" lon="11.39522655812426"><ele>170.0</ele><time>2026-04-06T09:59:03Z</time></trkpt><trkpt lat="43.25211620892579" lon="11.395156989053978"><ele>170.14285714285714</ele><time>2026-04-06T09:59:04Z</time></trkpt><trkpt lat="43.252163984320305" lon="11.39509251202708"><ele>170.28571428571428</ele><time>2026-04-06T09:59:05Z</time></trkpt><trkpt lat="43.252211266458936" lon="11.395030141214745"><ele>170.42857142857142</ele><time>2026-04-06T09:59:06Z</time></trkpt><trkpt lat="43.25225868085838" lon="11.394962309555622"><ele>170.57142857142856</ele><time>2026-04-06T09:59:07Z</time></trkpt><trkpt lat="43.25230517538879" lon="11.394889836749126"><ele>170.71428571428572</ele><time>2026-04-06T09:59:08Z</time></trkpt><trkpt lat="43.25234988344044" lon="11.394823449546214"><ele>170.85714285714283</ele><time>2026-04-06T09:59:09Z</time></trkpt><trkpt lat="43.25239314812786" lon="11.394759816193567"><ele>171.0</ele><time>2026-04-06T09:59:10Z</time></trkpt><trkpt lat="43.252467176608434" lon="11.394635945059989"><ele>171.4</ele><time>2026-04-06T09:59:12Z</time></trkpt><trkpt lat="43.25253624889463" lon="11.394516349906642"><ele>171.8</ele><time>2026-04-06T09:59:14Z</time></trkpt><trkpt lat="43.25261547210457" lon="11.394385467958214"><ele>172.20000000000002</ele><time>2026-04-06T09:59:16Z</time></trkpt><trkpt lat="43.25265797208652" lon="11.394309191649889"><ele>172.60000000000002</ele><time>2026-04-06T09:59:17Z</time></trkpt><trkpt lat="43.25269878385749" lon="11.394222449781418"><ele>173.0</ele><time>2026-04-06T09:59:18Z</time></trkpt><trkpt lat="43.252738832075366" lon="11.39412667323263"><ele>173.0</ele><time>2026-04-06T09:59:19Z</time></trkpt><trkpt lat="43.25278518137234" lon="11.394029288185846"><ele>173.0</ele><time>2026-04-06T09:59:20Z</time></trkpt><trkpt lat="43.25284007157962" lon="11.393928728323539"><ele>173.0</ele><time>2026-04-06T09:59:21Z</time></trkpt><trkpt lat="43.2528922605668" lon="11.393821221234306"><ele>173.0</ele><time>2026-04-06T09:59:21.999Z</time></trkpt><trkpt lat="43.25293433359657" lon="11.39370311714074"><ele>173.0</ele><time>2026-04-06T09:59:22.999Z</time></trkpt><trkpt lat="43.25297744003099" lon="11.393580465843748"><ele>172.60000000000002</ele><time>2026-04-06T09:59:23.999Z</time></trkpt><trkpt lat="43.253015384742845" lon="11.393456641041045"><ele>172.20000000000002</ele><time>2026-04-06T09:59:24.999Z</time></trkpt><trkpt lat="43.253052907499594" lon="11.393326608033712"><ele>171.8</ele><time>2026-04-06T09:59:25.999Z</time></trkpt><trkpt lat="43.253093990613806" lon="11.39320112701416"><ele>171.4</ele><time>2026-04-06T09:59:26.999Z</time></trkpt><trkpt lat="43.25313347082929" lon="11.393077361015157"><ele>171.0</ele><time>2026-04-06T09:59:27.999Z</time></trkpt><trkpt lat="43.25317276033066" lon="11.392956144987796"><ele>170.8</ele><time>2026-04-06T09:59:28.999Z</time></trkpt><trkpt lat="43.25321863622634" lon="11.39283375242617"><ele>170.60000000000002</ele><time>2026-04-06T09:59:29.999Z</time></trkpt><trkpt lat="43.25327773221038" lon="11.392716773228045"><ele>170.4</ele><time>2026-04-06T09:59:30.999Z</time></trkpt><trkpt lat="43.253337506337715" lon="11.39258633959379"><ele>170.2</ele><time>2026-04-06T09:59:31.999Z</time></trkpt><trkpt lat="43.25339344405435" lon="11.392451149248602"><ele>170.0</ele><time>2026-04-06T09:59:32.999Z</time></trkpt><trkpt lat="43.25345135929683" lon="11.392310150863853"><ele>169.75</ele><time>2026-04-06T09:59:33.999Z</time></trkpt><trkpt lat="43.25350900346145" lon="11.392162642870113"><ele>169.5</ele><time>2026-04-06T09:59:34.999Z</time></trkpt><trkpt lat="43.25356886310139" lon="11.392012261319543"><ele>169.25</ele><time>2026-04-06T09:59:35.999Z</time></trkpt><trkpt lat="43.25362796630858" lon="11.39186448899478"><ele>169.0</ele><time>2026-04-06T09:59:36.999Z</time></trkpt><trkpt lat="43.25368336725416" lon="11.391724487272642"><ele>169.0</ele><time>2026-04-06T09:59:37.999Z</time></trkpt><trkpt lat="43.25374129947969" lon="11.391586655199879"><ele>169.0</ele><time>2026-04-06T09:59:38.999Z</time></trkpt><trkpt lat="43.253796417845344" lon="11.391447521706109"><ele>169.0</ele><time>2026-04-06T09:59:39.999Z</time></trkpt><trkpt lat="43.25384888989957" lon="11.391309575367542"><ele>169.0</ele><time>2026-04-06T09:59:40.999Z</time></trkpt><trkpt lat="43.25390201326676" lon="11.39117001569698"><ele>169.5</ele><time>2026-04-06T09:59:41.999Z</time></trkpt><trkpt lat="43.25395864340118" lon="11.391027832064264"><ele>170.0</ele><time>2026-04-06T09:59:42.999Z</time></trkpt><trkpt lat="43.25401416295012" lon="11.390883320307537"><ele>170.5</ele><time>2026-04-06T09:59:43.999Z</time></trkpt><trkpt lat="43.25406996500298" lon="11.390734865806854"><ele>171.0</ele><time>2026-04-06T09:59:44.999Z</time></trkpt><trkpt lat="43.254126804884116" lon="11.390583296695311"><ele>170.75</ele><time>2026-04-06T09:59:45.999Z</time></trkpt><trkpt lat="43.2541837439848" lon="11.390430859972296"><ele>170.5</ele><time>2026-04-06T09:59:46.999Z</time></trkpt><trkpt lat="43.254242575987405" lon="11.39027629492784"><ele>170.25</ele><time>2026-04-06T09:59:47.999Z</time></trkpt><trkpt lat="43.254302123761015" lon="11.390119979481597"><ele>170.0</ele><time>2026-04-06T09:59:48.999Z</time></trkpt><trkpt lat="43.2543597132411" lon="11.389961680572538"><ele>170.0</ele><time>2026-04-06T09:59:49.999Z</time></trkpt><trkpt lat="43.25442015984958" lon="11.389805171951785"><ele>170.0</ele><time>2026-04-06T09:59:50.999Z</time></trkpt><trkpt lat="43.25448270667972" lon="11.389643868606635"><ele>170.0</ele><time>2026-04-06T09:59:51.999Z</time></trkpt><trkpt lat="43.254548581313685" lon="11.389478664568397"><ele>170.0</ele><time>2026-04-06T09:59:52.999Z</time></trkpt><trkpt lat="43.25461474483599" lon="11.389307583895585"><ele>169.75</ele><time>2026-04-06T09:59:53.999Z</time></trkpt><trkpt lat="43.254682248274655" lon="11.389131562437623"><ele>169.5</ele><time>2026-04-06T09:59:54.999Z</time></trkpt><trkpt lat="43.254745882651115" lon="11.388951297178757"><ele>169.25</ele><time>2026-04-06T09:59:55.999Z</time></trkpt><trkpt lat="43.25480466007048" lon="11.388763326769771"><ele>169.0</ele><time>2026-04-06T09:59:56.999Z</time></trkpt><trkpt lat="43.25485054505038" lon="11.388568013612156"><ele>168.75</ele><time>2026-04-06T09:59:57.999Z</time></trkpt><trkpt lat="43.25488698316205" lon="11.388373975895767"><ele>168.5</ele><time>2026-04-06T09:59:58.999Z</time></trkpt><trkpt lat="43.25491909806902" lon="11.388185144391997"><ele>168.25</ele><time>2026-04-06T09:59:59.999Z</time></trkpt><trkpt lat="43.25495290546728" lon="11.388007262138558"><ele>168.0</ele><time>2026-04-06T10:00:00.999Z</time></trkpt><trkpt lat="43.254989045238624" lon="11.387838810856374"><ele>168.0</ele><time>2026-04-06T10:00:01.999Z</time></trkpt><trkpt lat="43.25502413449436" lon="11.3876717954848"><ele>168.0</ele><time>2026-04-06T10:00:02.999Z</time></trkpt><trkpt lat="43.25506025069117" lon="11.387503364229737"><ele>168.0</ele><time>2026-04-06T10:00:03.999Z</time></trkpt><trkpt lat="43.25509328218346" lon="11.387336426227506"><ele>168.0</ele><time>2026-04-06T10:00:04.999Z</time></trkpt><trkpt lat="43.25512336173503" lon="11.387178063787909"><ele>168.5</ele><time>2026-04-06T10:00:05.999Z</time></trkpt><trkpt lat="43.255152998701696" lon="11.387026034641497"><ele>169.0</ele><time>2026-04-06T10:00:06.999Z</time></trkpt><trkpt lat="43.25518349062763" lon="11.386877131534868"><ele>169.5</ele><time>2026-04-06T10:00:07.999Z</time></trkpt><trkpt lat="43.2552155940287" lon="11.386722434259363"><ele>170.0</ele><time>2026-04-06T10:00:08.999Z</time></trkpt><trkpt lat="43.25524466320248" lon="11.38656695761045"><ele>170.0</ele><time>2026-04-06T10:00:09.999Z</time></trkpt><trkpt lat="43.25527030175606" lon="11.38640790479597"><ele>170.0</ele><time>2026-04-06T10:00:10.999Z</time></trkpt><trkpt lat="43.25530189431576" lon="11.386248438655581"><ele>170.0</ele><time>2026-04-06T10:00:11.999Z</time></trkpt><trkpt lat="43.2553345242751" lon="11.38609750095648"><ele>170.0</ele><time>2026-04-06T10:00:12.999Z</time></trkpt><trkpt lat="43.25536548219953" lon="11.385954185012665"><ele>170.4</ele><time>2026-04-06T10:00:13.999Z</time></trkpt><trkpt lat="43.25539534573832" lon="11.38581350065908"><ele>170.8</ele><time>2026-04-06T10:00:14.999Z</time></trkpt><trkpt lat="43.25542258881023" lon="11.385684804764896"><ele>171.2</ele><time>2026-04-06T10:00:15.999Z</time></trkpt><trkpt lat="43.255451718824524" lon="11.38556062264264"><ele>171.6</ele><time>2026-04-06T10:00:16.999Z</time></trkpt><trkpt lat="43.25548143274258" lon="11.385435283581677"><ele>172.0</ele><time>2026-04-06T10:00:17.998Z</time></trkpt><trkpt lat="43.25551406051268" lon="11.38530376983401"><ele>172.0</ele><time>2026-04-06T10:00:18.998Z</time></trkpt><trkpt lat="43.25554377122185" lon="11.385168398043199"><ele>172.0</ele><time>2026-04-06T10:00:19.998Z</time></trkpt><trkpt lat="43.255571054555816" lon="11.38502603200874"><ele>172.0</ele><time>2026-04-06T10:00:20.998Z</time></trkpt><trkpt lat="43.255605042581166" lon="11.384874673662486"><ele>172.0</ele><time>2026-04-06T10:00:22Z</time></trkpt><trkpt lat="43.25564206313341" lon="11.384717779551728"><ele>172.0</ele><time>2026-04-06T10:00:23.001Z</time></trkpt><trkpt lat="43.25568076015662" lon="11.384554122359148"><ele>171.5</ele><time>2026-04-06T10:00:24Z</time></trkpt><trkpt lat="43.25572013358665" lon="11.384382731684891"><ele>171.0</ele><time>2026-04-06T10:00:25Z</time></trkpt><trkpt lat="43.25575986642111" lon="11.384205137489477"><ele>170.5</ele><time>2026-04-06T10:00:26.001Z</time></trkpt><trkpt lat="43.25580373075063" lon="11.384023283974706"><ele>170.0</ele><time>2026-04-06T10:00:27Z</time></trkpt><trkpt lat="43.25584743445301" lon="11.383839263110463"><ele>170.0</ele><time>2026-04-06T10:00:28Z</time></trkpt><trkpt lat="43.255891004747184" lon="11.383648472466046"><ele>170.0</ele><time>2026-04-06T10:00:29.001Z</time></trkpt><trkpt lat="43.25593716028335" lon="11.38345374539338"><ele>170.0</ele><time>2026-04-06T10:00:30Z</time></trkpt><trkpt lat="43.255987028644206" lon="11.383257766130546"><ele>170.0</ele><time>2026-04-06T10:00:31Z</time></trkpt><trkpt lat="43.256039852918235" lon="11.38306116464009"><ele>170.66666666666666</ele><time>2026-04-06T10:00:32.001Z</time></trkpt><trkpt lat="43.25609390731045" lon="11.382859281303965"><ele>171.33333333333334</ele><time>2026-04-06T10:00:33Z</time></trkpt><trkpt lat="43.256144182028486" lon="11.382654916906853"><ele>172.0</ele><time>2026-04-06T10:00:34Z</time></trkpt><trkpt lat="43.25619162134204" lon="11.382445035299593"><ele>172.0</ele><time>2026-04-06T10:00:35.001Z</time></trkpt><trkpt lat="43.256238272764136" lon="11.382233158823794"><ele>172.0</ele><time>2026-04-06T10:00:36Z</time></trkpt><trkpt lat="43.25629023831563" lon="11.382025346066913"><ele>172.0</ele><time>2026-04-06T10:00:37Z</time></trkpt><trkpt lat="43.256345053945104" lon="11.381828210506699"><ele>172.33333333333334</ele><time>2026-04-06T10:00:38Z</time></trkpt><trkpt lat="43.25641639530615" lon="11.3816449036052"><ele>172.66666666666666</ele><time>2026-04-06T10:00:39Z</time></trkpt><trkpt lat="43.256512293457945" lon="11.381481400342565"><ele>173.0</ele><time>2026-04-06T10:00:40Z</time></trkpt><trkpt lat="43.256632531772105" lon="11.381336757950278"><ele>173.33333333333331</ele><time>2026-04-06T10:00:41Z</time></trkpt><trkpt lat="43.256767912655185" lon="11.381212573211863"><ele>173.66666666666666</ele><time>2026-04-06T10:00:42Z</time></trkpt><trkpt lat="43.25691145463965" lon="11.381110324967116"><ele>174.0</ele><time>2026-04-06T10:00:43Z</time></trkpt><trkpt lat="43.25706449319406" lon="11.381034472290134"><ele>174.0</ele><time>2026-04-06T10:00:44Z</time></trkpt><trkpt lat="43.25721993631025" lon="11.380994454149729"><ele>174.0</ele><time>2026-04-06T10:00:45Z</time></trkpt><trkpt lat="43.257368296903095" lon="11.381007865757141"><ele>174.0</ele><time>2026-04-06T10:00:46Z</time></trkpt><trkpt lat="43.2575188561488" lon="11.380981658389638"><ele>173.75</ele><time>2026-04-06T10:00:47Z</time></trkpt><trkpt lat="43.25766571643892" lon="11.38099738453292"><ele>173.5</ele><time>2026-04-06T10:00:48Z</time></trkpt><trkpt lat="43.257808241239225" lon="11.380992847075685"><ele>173.25</ele><time>2026-04-06T10:00:49Z</time></trkpt><trkpt lat="43.25794942515889" lon="11.38096994758508"><ele>173.0</ele><time>2026-04-06T10:00:50Z</time></trkpt><trkpt lat="43.25808820031657" lon="11.380903775298835"><ele>172.75</ele><time>2026-04-06T10:00:51Z</time></trkpt><trkpt lat="43.25821372532917" lon="11.380815635293544"><ele>172.5</ele><time>2026-04-06T10:00:52Z</time></trkpt><trkpt lat="43.258335231452655" lon="11.380717236459546"><ele>172.25</ele><time>2026-04-06T10:00:53Z</time></trkpt><trkpt lat="43.25843680462141" lon="11.380603776115363"><ele>172.0</ele><time>2026-04-06T10:00:54Z</time></trkpt><trkpt lat="43.25851257299049" lon="11.38046084769278"><ele>172.5</ele><time>2026-04-06T10:00:55Z</time></trkpt><trkpt lat="43.25859085831775" lon="11.380329495599907"><ele>173.0</ele><time>2026-04-06T10:00:56Z</time></trkpt><trkpt lat="43.25866729056394" lon="11.380186948871435"><ele>173.5</ele><time>2026-04-06T10:00:57Z</time></trkpt><trkpt lat="43.25875980346286" lon="11.380055995409652"><ele>174.0</ele><time>2026-04-06T10:00:58Z</time></trkpt><trkpt lat="43.25883546679025" lon="11.379917466687653"><ele>174.0</ele><time>2026-04-06T10:00:59Z</time></trkpt><trkpt lat="43.2589182086366" lon="11.379773767487174"><ele>174.0</ele><time>2026-04-06T10:01:00Z</time></trkpt><trkpt lat="43.258992929592395" lon="11.379630364520567"><ele>174.0</ele><time>2026-04-06T10:01:01Z</time></trkpt><trkpt lat="43.25908497942359" lon="11.379493284674178"><ele>174.0</ele><time>2026-04-06T10:01:02Z</time></trkpt><trkpt lat="43.2591744298168" lon="11.379352484174685"><ele>174.0</ele><time>2026-04-06T10:01:03Z</time></trkpt><trkpt lat="43.25925775079376" lon="11.379213182836144"><ele>174.0</ele><time>2026-04-06T10:01:04Z</time></trkpt><trkpt lat="43.25935236515016" lon="11.379084343300098"><ele>174.0</ele><time>2026-04-06T10:01:05Z</time></trkpt><trkpt lat="43.25943677522366" lon="11.378955161452696"><ele>174.0</ele><time>2026-04-06T10:01:06Z</time></trkpt><trkpt lat="43.259510616962984" lon="11.378824950819995"><ele>174.0</ele><time>2026-04-06T10:01:07Z</time></trkpt><trkpt lat="43.259585579558355" lon="11.378692215371002"><ele>174.0</ele><time>2026-04-06T10:01:08Z</time></trkpt><trkpt lat="43.25965837744884" lon="11.378557426821635"><ele>174.0</ele><time>2026-04-06T10:01:09Z</time></trkpt><trkpt lat="43.259730904813324" lon="11.378424766151882"><ele>174.0</ele><time>2026-04-06T10:01:10Z</time></trkpt><trkpt lat="43.25979768016383" lon="11.37829437675671"><ele>173.79999999999998</ele><time>2026-04-06T10:01:11Z</time></trkpt><trkpt lat="43.25985507439311" lon="11.378161297531857"><ele>173.6</ele><time>2026-04-06T10:01:12Z</time></trkpt><trkpt lat="43.25989597802972" lon="11.378030471938036"><ele>173.4</ele><time>2026-04-06T10:01:13Z</time></trkpt><trkpt lat="43.25992431960468" lon="11.377898136373586"><ele>173.2</ele><time>2026-04-06T10:01:14Z</time></trkpt><trkpt lat="43.25994555258904" lon="11.377767815922805"><ele>173.0</ele><time>2026-04-06T10:01:15Z</time></trkpt><trkpt lat="43.259961922291815" lon="11.377642674873194"><ele>173.0</ele><time>2026-04-06T10:01:16Z</time></trkpt><trkpt lat="43.25997158646171" lon="11.377521235623826"><ele>173.0</ele><time>2026-04-06T10:01:17Z</time></trkpt><trkpt lat="43.25997224664755" lon="11.377406252477558"><ele>173.0</ele><time>2026-04-06T10:01:18Z</time></trkpt><trkpt lat="43.259983497634956" lon="11.377294079089223"><ele>173.0</ele><time>2026-04-06T10:01:19Z</time></trkpt><trkpt lat="43.259994391742765" lon="11.377186706982675"><ele>173.0</ele><time>2026-04-06T10:01:20Z</time></trkpt><trkpt lat="43.26000767082515" lon="11.377081296160007"><ele>173.0</ele><time>2026-04-06T10:01:21Z</time></trkpt><trkpt lat="43.260018232158494" lon="11.376977126255294"><ele>173.0</ele><time>2026-04-06T10:01:22Z</time></trkpt><trkpt lat="43.26002735101104" lon="11.37687525949879"><ele>173.0</ele><time>2026-04-06T10:01:23Z</time></trkpt><trkpt lat="43.260036889959196" lon="11.376776090272093"><ele>173.0</ele><time>2026-04-06T10:01:24Z</time></trkpt><trkpt lat="43.26004825366307" lon="11.376673360771647"><ele>173.0</ele><time>2026-04-06T10:01:25Z</time></trkpt><trkpt lat="43.260059541882924" lon="11.376564983742831"><ele>173.0</ele><time>2026-04-06T10:01:26Z</time></trkpt><trkpt lat="43.26007198724245" lon="11.376451986498369"><ele>173.0</ele><time>2026-04-06T10:01:27Z</time></trkpt><trkpt lat="43.26008692718421" lon="11.376323986915569"><ele>173.4</ele><time>2026-04-06T10:01:28Z</time></trkpt><trkpt lat="43.26010145232341" lon="11.376193173728453"><ele>173.8</ele><time>2026-04-06T10:01:28.999Z</time></trkpt><trkpt lat="43.2601205502807" lon="11.37605453671074"><ele>174.2</ele><time>2026-04-06T10:01:29.999Z</time></trkpt><trkpt lat="43.26016547549893" lon="11.375919922400334"><ele>174.6</ele><time>2026-04-06T10:01:30.999Z</time></trkpt><trkpt lat="43.26022312596303" lon="11.375800631931279"><ele>175.0</ele><time>2026-04-06T10:01:31.999Z</time></trkpt><trkpt lat="43.260288803339755" lon="11.375688296955934"><ele>175.0</ele><time>2026-04-06T10:01:32.999Z</time></trkpt><trkpt lat="43.260364954782105" lon="11.375584628682871"><ele>175.0</ele><time>2026-04-06T10:01:33.999Z</time></trkpt><trkpt lat="43.26045643915384" lon="11.375489694171508"><ele>175.0</ele><time>2026-04-06T10:01:34.999Z</time></trkpt><trkpt lat="43.26055070205893" lon="11.375384180447849"><ele>175.0</ele><time>2026-04-06T10:01:35.999Z</time></trkpt><trkpt lat="43.26064610473958" lon="11.375268741462916"><ele>175.0</ele><time>2026-04-06T10:01:36.999Z</time></trkpt><trkpt lat="43.26074329616162" lon="11.375148207309184"><ele>175.0</ele><time>2026-04-06T10:01:37.999Z</time></trkpt><trkpt lat="43.26084759982228" lon="11.37502973155732"><ele>175.0</ele><time>2026-04-06T10:01:38.999Z</time></trkpt><trkpt lat="43.260946646684346" lon="11.374916096305727"><ele>175.0</ele><time>2026-04-06T10:01:39.999Z</time></trkpt><trkpt lat="43.261046340598504" lon="11.374799903780552"><ele>175.25</ele><time>2026-04-06T10:01:40.999Z</time></trkpt><trkpt lat="43.261150789660846" lon="11.374682210245284"><ele>175.5</ele><time>2026-04-06T10:01:41.999Z</time></trkpt><trkpt lat="43.261253955838846" lon="11.374561806100617"><ele>175.75</ele><time>2026-04-06T10:01:42.999Z</time></trkpt><trkpt lat="43.2613518907269" lon="11.374441012144226"><ele>176.0</ele><time>2026-04-06T10:01:43.999Z</time></trkpt><trkpt lat="43.261445650039896" lon="11.374326215894238"><ele>176.20000000000002</ele><time>2026-04-06T10:01:44.999Z</time></trkpt><trkpt lat="43.2615346641885" lon="11.374219147085283"><ele>176.4</ele><time>2026-04-06T10:01:45.999Z</time></trkpt><trkpt lat="43.26161669995745" lon="11.374120310743585"><ele>176.6</ele><time>2026-04-06T10:01:46.999Z</time></trkpt><trkpt lat="43.261698730380004" lon="11.37402848055499"><ele>176.8</ele><time>2026-04-06T10:01:47.999Z</time></trkpt><trkpt lat="43.261779529919764" lon="11.373936222824474"><ele>177.0</ele><time>2026-04-06T10:01:48.999Z</time></trkpt><trkpt lat="43.26186135345623" lon="11.373851524414693"><ele>177.2</ele><time>2026-04-06T10:01:49.999Z</time></trkpt><trkpt lat="43.2619452221125" lon="11.373776318079976"><ele>177.39999999999998</ele><time>2026-04-06T10:01:50.999Z</time></trkpt><trkpt lat="43.26203577634842" lon="11.37372947895392"><ele>177.60000000000002</ele><time>2026-04-06T10:01:51.999Z</time></trkpt><trkpt lat="43.2621267550279" lon="11.373729456577173"><ele>177.8</ele><time>2026-04-06T10:01:52.999Z</time></trkpt><trkpt lat="43.26222426238754" lon="11.373761999858289"><ele>178.0</ele><time>2026-04-06T10:01:53.999Z</time></trkpt><trkpt lat="43.26233225974689" lon="11.373818839872527"><ele>177.75</ele><time>2026-04-06T10:01:54.999Z</time></trkpt><trkpt lat="43.26244171670147" lon="11.37388432924473"><ele>177.5</ele><time>2026-04-06T10:01:55.999Z</time></trkpt><trkpt lat="43.262557492113835" lon="11.373952634661832"><ele>177.25</ele><time>2026-04-06T10:01:56.999Z</time></trkpt><trkpt lat="43.262680996893515" lon="11.37403036800136"><ele>177.0</ele><time>2026-04-06T10:01:57.999Z</time></trkpt><trkpt lat="43.2628088127609" lon="11.37410805317257"><ele>177.0</ele><time>2026-04-06T10:01:58.999Z</time></trkpt><trkpt lat="43.262937931094925" lon="11.37420652838373"><ele>177.0</ele><time>2026-04-06T10:01:59.999Z</time></trkpt><trkpt lat="43.26307986634316" lon="11.374278437329009"><ele>177.0</ele><time>2026-04-06T10:02:00.999Z</time></trkpt><trkpt lat="43.26322011001585" lon="11.374349489272378"><ele>177.0</ele><time>2026-04-06T10:02:01.999Z</time></trkpt><trkpt lat="43.26336916505519" lon="11.374424341886398"><ele>176.75</ele><time>2026-04-06T10:02:02.999Z</time></trkpt><trkpt lat="43.26350843409307" lon="11.374494083162572"><ele>176.5</ele><time>2026-04-06T10:02:03.999Z</time></trkpt><trkpt lat="43.263650138563186" lon="11.374565152412988"><ele>176.25</ele><time>2026-04-06T10:02:04.999Z</time></trkpt><trkpt lat="43.26378519161421" lon="11.37463646676227"><ele>176.0</ele><time>2026-04-06T10:02:05.999Z</time></trkpt><trkpt lat="43.263920996942915" lon="11.374707871522288"><ele>176.0</ele><time>2026-04-06T10:02:06.999Z</time></trkpt><trkpt lat="43.26406499757263" lon="11.374783585830336"><ele>176.0</ele><time>2026-04-06T10:02:07.999Z</time></trkpt><trkpt lat="43.26421226165586" lon="11.37482433308058"><ele>176.0</ele><time>2026-04-06T10:02:08.999Z</time></trkpt><trkpt lat="43.264349396368225" lon="11.374898469799804"><ele>176.0</ele><time>2026-04-06T10:02:09.999Z</time></trkpt><trkpt lat="43.26448022545975" lon="11.374971349340113"><ele>176.0</ele><time>2026-04-06T10:02:10.999Z</time></trkpt><trkpt lat="43.26460822508843" lon="11.375038838435428"><ele>176.0</ele><time>2026-04-06T10:02:11.999Z</time></trkpt><trkpt lat="43.26472984680194" lon="11.375102948781127"><ele>176.0</ele><time>2026-04-06T10:02:12.999Z</time></trkpt><trkpt lat="43.26485092144369" lon="11.37516791809868"><ele>176.0</ele><time>2026-04-06T10:02:13.999Z</time></trkpt><trkpt lat="43.26496660634758" lon="11.375256702607231"><ele>176.0</ele><time>2026-04-06T10:02:14.999Z</time></trkpt><trkpt lat="43.265093531368166" lon="11.375299334542833"><ele>176.0</ele><time>2026-04-06T10:02:15.999Z</time></trkpt><trkpt lat="43.2652125185284" lon="11.375361894324827"><ele>176.0</ele><time>2026-04-06T10:02:16.999Z</time></trkpt><trkpt lat="43.26532897383874" lon="11.37542361586106"><ele>176.0</ele><time>2026-04-06T10:02:17.999Z</time></trkpt><trkpt lat="43.26544365397226" lon="11.37548537279275"><ele>176.0</ele><time>2026-04-06T10:02:18.999Z</time></trkpt><trkpt lat="43.26555919326871" lon="11.37555003390558"><ele>176.0</ele><time>2026-04-06T10:02:19.999Z</time></trkpt><trkpt lat="43.26567575485787" lon="11.375614604914077"><ele>176.0</ele><time>2026-04-06T10:02:20.999Z</time></trkpt><trkpt lat="43.265792122079816" lon="11.375673850150779"><ele>176.0</ele><time>2026-04-06T10:02:21.999Z</time></trkpt><trkpt lat="43.26591181748123" lon="11.375735022319953"><ele>176.0</ele><time>2026-04-06T10:02:22.999Z</time></trkpt><trkpt lat="43.26603249262897" lon="11.375796855406373"><ele>176.0</ele><time>2026-04-06T10:02:23.999Z</time></trkpt><trkpt lat="43.26615438184084" lon="11.375865070583556"><ele>176.0</ele><time>2026-04-06T10:02:24.998Z</time></trkpt><trkpt lat="43.266278843136526" lon="11.375933268440587"><ele>176.0</ele><time>2026-04-06T10:02:25.998Z</time></trkpt><trkpt lat="43.266403824100784" lon="11.376001081766672"><ele>176.0</ele><time>2026-04-06T10:02:26.998Z</time></trkpt><trkpt lat="43.26653082017751" lon="11.376068736863767"><ele>176.0</ele><time>2026-04-06T10:02:28.001Z</time></trkpt><trkpt lat="43.26665783624616" lon="11.376135314896851"><ele>176.0</ele><time>2026-04-06T10:02:29.001Z</time></trkpt><trkpt lat="43.266786438230035" lon="11.37620548876281"><ele>176.0</ele><time>2026-04-06T10:02:30Z</time></trkpt><trkpt lat="43.26691632995282" lon="11.376275991195604"><ele>176.0</ele><time>2026-04-06T10:02:31.001Z</time></trkpt><trkpt lat="43.26704901096932" lon="11.376340590926114"><ele>176.0</ele><time>2026-04-06T10:02:32.001Z</time></trkpt><trkpt lat="43.26718719466148" lon="11.376397341072188"><ele>176.0</ele><time>2026-04-06T10:02:33.001Z</time></trkpt><trkpt lat="43.26732683625574" lon="11.376448686970226"><ele>176.25</ele><time>2026-04-06T10:02:34.001Z</time></trkpt><trkpt lat="43.26746634304134" lon="11.376502675607652"><ele>176.5</ele><time>2026-04-06T10:02:35.001Z</time></trkpt><trkpt lat="43.26760643095832" lon="11.37655411444647"><ele>176.75</ele><time>2026-04-06T10:02:36.001Z</time></trkpt><trkpt lat="43.2677471104312" lon="11.376603038403838"><ele>177.0</ele><time>2026-04-06T10:02:37.001Z</time></trkpt><trkpt lat="43.26789093616435" lon="11.376658633154447"><ele>177.0</ele><time>2026-04-06T10:02:38.001Z</time></trkpt><trkpt lat="43.26803124050439" lon="11.37672174258564"><ele>177.0</ele><time>2026-04-06T10:02:39.001Z</time></trkpt><trkpt lat="43.26816719554222" lon="11.376792906777924"><ele>177.0</ele><time>2026-04-06T10:02:40.001Z</time></trkpt><trkpt lat="43.26829870560648" lon="11.376863773133556"><ele>177.0</ele><time>2026-04-06T10:02:41.001Z</time></trkpt><trkpt lat="43.268429840347224" lon="11.3769384180476"><ele>177.5</ele><time>2026-04-06T10:02:42.001Z</time></trkpt><trkpt lat="43.26855862810911" lon="11.377016945161625"><ele>178.0</ele><time>2026-04-06T10:02:43.001Z</time></trkpt><trkpt lat="43.268682604093776" lon="11.377105953027016"><ele>178.5</ele><time>2026-04-06T10:02:44Z</time></trkpt><trkpt lat="43.268807171480525" lon="11.377210188904579"><ele>179.0</ele><time>2026-04-06T10:02:45Z</time></trkpt><trkpt lat="43.26892779842512" lon="11.377335715874734"><ele>180.66666666666666</ele><time>2026-04-06T10:02:46Z</time></trkpt><trkpt lat="43.26903904668083" lon="11.377484670354562"><ele>182.33333333333334</ele><time>2026-04-06T10:02:47Z</time></trkpt><trkpt lat="43.2691508636819" lon="11.37763061906163"><ele>184.0</ele><time>2026-04-06T10:02:48Z</time></trkpt><trkpt lat="43.26926926364583" lon="11.37776612563979"><ele>184.0</ele><time>2026-04-06T10:02:49Z</time></trkpt><trkpt lat="43.269400528842496" lon="11.377893807474443"><ele>184.0</ele><time>2026-04-06T10:02:50Z</time></trkpt><trkpt lat="43.26953565596178" lon="11.37801157592088"><ele>184.0</ele><time>2026-04-06T10:02:51Z</time></trkpt><trkpt lat="43.26967997687136" lon="11.378122118338608"><ele>181.66666666666669</ele><time>2026-04-06T10:02:51.999Z</time></trkpt><trkpt lat="43.26983411426985" lon="11.378222738498764"><ele>179.33333333333334</ele><time>2026-04-06T10:02:52.999Z</time></trkpt><trkpt lat="43.269992469294394" lon="11.37831550531238"><ele>177.0</ele><time>2026-04-06T10:02:53.999Z</time></trkpt><trkpt lat="43.270158052205225" lon="11.378404688498984"><ele>177.0</ele><time>2026-04-06T10:02:54.999Z</time></trkpt><trkpt lat="43.27033015941734" lon="11.378486344727902"><ele>177.0</ele><time>2026-04-06T10:02:55.999Z</time></trkpt><trkpt lat="43.27050753960954" lon="11.378555904887"><ele>177.0</ele><time>2026-04-06T10:02:56.999Z</time></trkpt><trkpt lat="43.27069177231394" lon="11.378609718709647"><ele>176.66666666666666</ele><time>2026-04-06T10:02:57.999Z</time></trkpt><trkpt lat="43.27087882942" lon="11.3786498875113"><ele>176.33333333333331</ele><time>2026-04-06T10:02:58.999Z</time></trkpt><trkpt lat="43.27106791493191" lon="11.378677406641684"><ele>176.0</ele><time>2026-04-06T10:02:59.999Z</time></trkpt><trkpt lat="43.27125809351349" lon="11.378692590128468"><ele>176.33333333333331</ele><time>2026-04-06T10:03:00.999Z</time></trkpt><trkpt lat="43.271450325869864" lon="11.378691960604286"><ele>176.66666666666666</ele><time>2026-04-06T10:03:01.999Z</time></trkpt><trkpt lat="43.271638919825214" lon="11.378674774880777"><ele>177.0</ele><time>2026-04-06T10:03:02.999Z</time></trkpt><trkpt lat="43.271828769004756" lon="11.378645451508001"><ele>177.0</ele><time>2026-04-06T10:03:03.999Z</time></trkpt><trkpt lat="43.27201812232031" lon="11.378603370500356"><ele>177.0</ele><time>2026-04-06T10:03:04.999Z</time></trkpt><trkpt lat="43.27220825008392" lon="11.378553006545758"><ele>177.0</ele><time>2026-04-06T10:03:05.999Z</time></trkpt><trkpt lat="43.27238817403814" lon="11.378489177765168"><ele>177.0</ele><time>2026-04-06T10:03:06.999Z</time></trkpt><trkpt lat="43.27255995415185" lon="11.378420293210347"><ele>177.0</ele><time>2026-04-06T10:03:07.999Z</time></trkpt><trkpt lat="43.2727269516349" lon="11.378349708018868"><ele>177.0</ele><time>2026-04-06T10:03:08.999Z</time></trkpt><trkpt lat="43.27288543301506" lon="11.378285277794356"><ele>177.0</ele><time>2026-04-06T10:03:09.999Z</time></trkpt><trkpt lat="43.27303183968837" lon="11.378220697693433"><ele>177.0</ele><time>2026-04-06T10:03:10.999Z</time></trkpt><trkpt lat="43.27317249072353" lon="11.378154318922943"><ele>177.0</ele><time>2026-04-06T10:03:11.999Z</time></trkpt><trkpt lat="43.27332115539547" lon="11.378088038213388"><ele>177.0</ele><time>2026-04-06T10:03:12.999Z</time></trkpt><trkpt lat="43.27347975297355" lon="11.378044710098974"><ele>177.0</ele><time>2026-04-06T10:03:13.999Z</time></trkpt><trkpt lat="43.27363913137839" lon="11.377977349378998"><ele>177.0</ele><time>2026-04-06T10:03:14.999Z</time></trkpt><trkpt lat="43.27380555876879" lon="11.377906713415111"><ele>178.33333333333334</ele><time>2026-04-06T10:03:15.999Z</time></trkpt><trkpt lat="43.273977567982534" lon="11.377834830595553"><ele>179.66666666666669</ele><time>2026-04-06T10:03:16.999Z</time></trkpt><trkpt lat="43.274146137376356" lon="11.377740356136698"><ele>181.0</ele><time>2026-04-06T10:03:17.999Z</time></trkpt><trkpt lat="43.27431872862019" lon="11.377677197505289"><ele>181.0</ele><time>2026-04-06T10:03:18.999Z</time></trkpt><trkpt lat="43.27449155782906" lon="11.377610764266915"><ele>181.0</ele><time>2026-04-06T10:03:19.999Z</time></trkpt><trkpt lat="43.27466484105508" lon="11.37754030455162"><ele>181.0</ele><time>2026-04-06T10:03:20.999Z</time></trkpt><trkpt lat="43.27484164308689" lon="11.377467633333493"><ele>180.33333333333334</ele><time>2026-04-06T10:03:21.999Z</time></trkpt><trkpt lat="43.27501922612974" lon="11.377395191896941"><ele>179.66666666666666</ele><time>2026-04-06T10:03:22.999Z</time></trkpt><trkpt lat="43.27519801847195" lon="11.377321287480934"><ele>179.0</ele><time>2026-04-06T10:03:23.999Z</time></trkpt><trkpt lat="43.27536568785655" lon="11.377252580746735"><ele>179.33333333333331</ele><time>2026-04-06T10:03:24.999Z</time></trkpt><trkpt lat="43.27552899553404" lon="11.377183696181268"><ele>179.66666666666666</ele><time>2026-04-06T10:03:25.999Z</time></trkpt><trkpt lat="43.27568807650284" lon="11.377115407872648"><ele>180.0</ele><time>2026-04-06T10:03:26.999Z</time></trkpt><trkpt lat="43.275846276178285" lon="11.377051977700795"><ele>180.0</ele><time>2026-04-06T10:03:27.999Z</time></trkpt><trkpt lat="43.276001633622116" lon="11.376991135546797"><ele>180.0</ele><time>2026-04-06T10:03:28.999Z</time></trkpt><trkpt lat="43.27616101644424" lon="11.376927565984664"><ele>180.0</ele><time>2026-04-06T10:03:29.999Z</time></trkpt><trkpt lat="43.2763256969821" lon="11.376860793159997"><ele>179.66666666666666</ele><time>2026-04-06T10:03:30.999Z</time></trkpt><trkpt lat="43.27649848131483" lon="11.376800145664573"><ele>179.33333333333331</ele><time>2026-04-06T10:03:31.999Z</time></trkpt><trkpt lat="43.27668116681584" lon="11.376747238553882"><ele>179.0</ele><time>2026-04-06T10:03:32.999Z</time></trkpt><trkpt lat="43.276865598971234" lon="11.376705605905684"><ele>179.0</ele><time>2026-04-06T10:03:33.999Z</time></trkpt><trkpt lat="43.27705201853063" lon="11.376675906527563"><ele>179.0</ele><time>2026-04-06T10:03:34.999Z</time></trkpt><trkpt lat="43.27724168183465" lon="11.376664594527256"><ele>179.0</ele><time>2026-04-06T10:03:35.999Z</time></trkpt><trkpt lat="43.277426630088485" lon="11.37666912217614"><ele>178.0</ele><time>2026-04-06T10:03:36.999Z</time></trkpt><trkpt lat="43.27761927746326" lon="11.376682892072802"><ele>177.0</ele><time>2026-04-06T10:03:37.999Z</time></trkpt><trkpt lat="43.27781742852914" lon="11.37673133502954"><ele>176.0</ele><time>2026-04-06T10:03:38.999Z</time></trkpt><trkpt lat="43.27802153573039" lon="11.376769187161427"><ele>176.33333333333331</ele><time>2026-04-06T10:03:39.998Z</time></trkpt><trkpt lat="43.278230100127075" lon="11.376815370090926"><ele>176.66666666666666</ele><time>2026-04-06T10:03:40.998Z</time></trkpt><trkpt lat="43.27844234389444" lon="11.37686407899148"><ele>177.0</ele><time>2026-04-06T10:03:41.998Z</time></trkpt><trkpt lat="43.278656311155586" lon="11.376910739666346"><ele>177.0</ele><time>2026-04-06T10:03:42.998Z</time></trkpt><trkpt lat="43.2788679777016" lon="11.376952746026054"><ele>177.0</ele><time>2026-04-06T10:03:43.998Z</time></trkpt><trkpt lat="43.279077428169444" lon="11.376964031562215"><ele>177.0</ele><time>2026-04-06T10:03:44.998Z</time></trkpt><trkpt lat="43.279283238341094" lon="11.376980772626089"><ele>177.66666666666666</ele><time>2026-04-06T10:03:45.998Z</time></trkpt><trkpt lat="43.27948037278949" lon="11.376978673172335"><ele>178.33333333333331</ele><time>2026-04-06T10:03:46.998Z</time></trkpt><trkpt lat="43.27966786040415" lon="11.376987231315658"><ele>179.0</ele><time>2026-04-06T10:03:47.998Z</time></trkpt><trkpt lat="43.279845967155474" lon="11.376964836749998"><ele>179.0</ele><time>2026-04-06T10:03:48.998Z</time></trkpt><trkpt lat="43.28000677463688" lon="11.376909063420124"><ele>179.0</ele><time>2026-04-06T10:03:49.998Z</time></trkpt><trkpt lat="43.28016324998038" lon="11.376872688953453"><ele>179.0</ele><time>2026-04-06T10:03:50.998Z</time></trkpt><trkpt lat="43.280311112677076" lon="11.376826202042787"><ele>179.0</ele><time>2026-04-06T10:03:51.998Z</time></trkpt><trkpt lat="43.280456984534084" lon="11.376799067195602"><ele>179.0</ele><time>2026-04-06T10:03:52.998Z</time></trkpt><trkpt lat="43.28058433387072" lon="11.376730135932931"><ele>179.0</ele><time>2026-04-06T10:03:53.998Z</time></trkpt><trkpt lat="43.28070788342654" lon="11.376688117361075"><ele>179.0</ele><time>2026-04-06T10:03:54.998Z</time></trkpt><trkpt lat="43.28082599120933" lon="11.376647052787744"><ele>178.39999999999998</ele><time>2026-04-06T10:03:55.998Z</time></trkpt><trkpt lat="43.280935214549466" lon="11.376606589046784"><ele>177.8</ele><time>2026-04-06T10:03:56.998Z</time></trkpt><trkpt lat="43.28104094762138" lon="11.376568957609312"><ele>177.2</ele><time>2026-04-06T10:03:57.998Z</time></trkpt><trkpt lat="43.28113637061413" lon="11.376537047930809"><ele>176.60000000000002</ele><time>2026-04-06T10:03:58.998Z</time></trkpt><trkpt lat="43.28122641747631" lon="11.376507779750971"><ele>176.0</ele><time>2026-04-06T10:03:59.998Z</time></trkpt><trkpt lat="43.28131261321399" lon="11.376487769509557"><ele>176.0</ele><time>2026-04-06T10:04:00.998Z</time></trkpt><trkpt lat="43.281388932156354" lon="11.376479621680387"><ele>176.0</ele><time>2026-04-06T10:04:01.998Z</time></trkpt><trkpt lat="43.28146184398394" lon="11.376487634472907"><ele>176.0</ele><time>2026-04-06T10:04:02.998Z</time></trkpt><trkpt lat="43.281533476756856" lon="11.37651685669469"><ele>176.0</ele><time>2026-04-06T10:04:03.998Z</time></trkpt><trkpt lat="43.28160801018177" lon="11.376570630607354"><ele>176.0</ele><time>2026-04-06T10:04:04.998Z</time></trkpt><trkpt lat="43.28168300570932" lon="11.376636046412123"><ele>176.0</ele><time>2026-04-06T10:04:05.998Z</time></trkpt><trkpt lat="43.28176620790363" lon="11.376674558529423"><ele>175.8</ele><time>2026-04-06T10:04:06.998Z</time></trkpt><trkpt lat="43.28182239266335" lon="11.37679814890898"><ele>175.60000000000002</ele><time>2026-04-06T10:04:07.998Z</time></trkpt><trkpt lat="43.28184616598766" lon="11.376918083129928"><ele>175.4</ele><time>2026-04-06T10:04:08.998Z</time></trkpt><trkpt lat="43.28187642050181" lon="11.377040945175697"><ele>175.2</ele><time>2026-04-06T10:04:09.998Z</time></trkpt><trkpt lat="43.281924305174925" lon="11.377168552096284"><ele>175.0</ele><time>2026-04-06T10:04:10.998Z</time></trkpt><trkpt lat="43.28195434053891" lon="11.377307387904393"><ele>175.5</ele><time>2026-04-06T10:04:11.998Z</time></trkpt><trkpt lat="43.281992823861806" lon="11.37745393115657"><ele>176.0</ele><time>2026-04-06T10:04:12.998Z</time></trkpt><trkpt lat="43.282049254044125" lon="11.377592546789801"><ele>176.5</ele><time>2026-04-06T10:04:13.998Z</time></trkpt><trkpt lat="43.28212088597544" lon="11.377730955818823"><ele>177.0</ele><time>2026-04-06T10:04:14.998Z</time></trkpt><trkpt lat="43.28221180299104" lon="11.377847923256729"><ele>177.25</ele><time>2026-04-06T10:04:15.998Z</time></trkpt><trkpt lat="43.28232240184395" lon="11.377936026806015"><ele>177.5</ele><time>2026-04-06T10:04:16.998Z</time></trkpt><trkpt lat="43.28244739786479" lon="11.377986529011093"><ele>177.75</ele><time>2026-04-06T10:04:17.998Z</time></trkpt><trkpt lat="43.28257997103033" lon="11.377995876453399"><ele>178.0</ele><time>2026-04-06T10:04:18.998Z</time></trkpt><trkpt lat="43.28270604235692" lon="11.377969346700263"><ele>178.0</ele><time>2026-04-06T10:04:19.998Z</time></trkpt><trkpt lat="43.282824243176485" lon="11.377924704927178"><ele>178.0</ele><time>2026-04-06T10:04:20.998Z</time></trkpt><trkpt lat="43.28293808109662" lon="11.377872555192663"><ele>178.0</ele><time>2026-04-06T10:04:21.998Z</time></trkpt><trkpt lat="43.28305598939313" lon="11.377828195772844"><ele>178.0</ele><time>2026-04-06T10:04:22.998Z</time></trkpt><trkpt lat="43.283179575261364" lon="11.377811307128294"><ele>178.25</ele><time>2026-04-06T10:04:23.998Z</time></trkpt><trkpt lat="43.28330937507212" lon="11.377822359308848"><ele>178.5</ele><time>2026-04-06T10:04:24.998Z</time></trkpt><trkpt lat="43.28343719485018" lon="11.377860688089932"><ele>178.75</ele><time>2026-04-06T10:04:25.998Z</time></trkpt><trkpt lat="43.28356354743999" lon="11.377918491244111"><ele>179.0</ele><time>2026-04-06T10:04:26.998Z</time></trkpt><trkpt lat="43.28367136790308" lon="11.37801288852449"><ele>179.5</ele><time>2026-04-06T10:04:27.998Z</time></trkpt><trkpt lat="43.28376814351763" lon="11.378131500469895"><ele>180.0</ele><time>2026-04-06T10:04:28.998Z</time></trkpt><trkpt lat="43.283846139743694" lon="11.378269499876646"><ele>180.5</ele><time>2026-04-06T10:04:29.998Z</time></trkpt><trkpt lat="43.28390888734081" lon="11.378417082812863"><ele>181.0</ele><time>2026-04-06T10:04:30.998Z</time></trkpt><trkpt lat="43.283966421839374" lon="11.378562383099807"><ele>182.5</ele><time>2026-04-06T10:04:31.998Z</time></trkpt><trkpt lat="43.28404545729968" lon="11.378693887231586"><ele>184.0</ele><time>2026-04-06T10:04:32.998Z</time></trkpt><trkpt lat="43.284142003656164" lon="11.378809613238863"><ele>185.5</ele><time>2026-04-06T10:04:34Z</time></trkpt><trkpt lat="43.28424868467432" lon="11.378894783931925"><ele>187.0</ele><time>2026-04-06T10:04:35Z</time></trkpt><trkpt lat="43.28437191625433" lon="11.37894815851419"><ele>188.5</ele><time>2026-04-06T10:04:36Z</time></trkpt><trkpt lat="43.2845034084317" lon="11.378974602190452"><ele>190.0</ele><time>2026-04-06T10:04:37Z</time></trkpt><trkpt lat="43.28463625499991" lon="11.378985711014222"><ele>191.5</ele><time>2026-04-06T10:04:38Z</time></trkpt><trkpt lat="43.284769310080826" lon="11.378995383415226"><ele>193.0</ele><time>2026-04-06T10:04:39Z</time></trkpt><trkpt lat="43.28490173578839" lon="11.379005883407073"><ele>193.25</ele><time>2026-04-06T10:04:40Z</time></trkpt><trkpt lat="43.285029061138" lon="11.37902082352175"><ele>193.5</ele><time>2026-04-06T10:04:41Z</time></trkpt><trkpt lat="43.28515347793923" lon="11.379037487380153"><ele>193.75</ele><time>2026-04-06T10:04:42Z</time></trkpt><trkpt lat="43.28527246979781" lon="11.379055517641108"><ele>194.0</ele><time>2026-04-06T10:04:43Z</time></trkpt><trkpt lat="43.285396798117524" lon="11.379091559935592"><ele>194.0</ele><time>2026-04-06T10:04:44Z</time></trkpt><trkpt lat="43.28552595762229" lon="11.379154462666632"><ele>194.0</ele><time>2026-04-06T10:04:45Z</time></trkpt><trkpt lat="43.28565372874565" lon="11.37923247941315"><ele>194.0</ele><time>2026-04-06T10:04:46Z</time></trkpt><trkpt lat="43.28577717717753" lon="11.37931500153044"><ele>194.0</ele><time>2026-04-06T10:04:47Z</time></trkpt><trkpt lat="43.28588685520704" lon="11.379421795428929"><ele>193.75</ele><time>2026-04-06T10:04:48Z</time></trkpt><trkpt lat="43.28600195877878" lon="11.379508205753798"><ele>193.5</ele><time>2026-04-06T10:04:49Z</time></trkpt><trkpt lat="43.28612078931246" lon="11.379594567660305"><ele>193.25</ele><time>2026-04-06T10:04:50Z</time></trkpt><trkpt lat="43.28625277095585" lon="11.379652270146583"><ele>193.0</ele><time>2026-04-06T10:04:51Z</time></trkpt><trkpt lat="43.28638763718841" lon="11.379726960836168"><ele>193.5</ele><time>2026-04-06T10:04:51.999Z</time></trkpt><trkpt lat="43.28652647717247" lon="11.379789870356745"><ele>194.0</ele><time>2026-04-06T10:04:52.999Z</time></trkpt><trkpt lat="43.286670417266976" lon="11.379844220836933"><ele>194.5</ele><time>2026-04-06T10:04:53.999Z</time></trkpt><trkpt lat="43.28681701100169" lon="11.37988550454966"><ele>195.0</ele><time>2026-04-06T10:04:54.999Z</time></trkpt><trkpt lat="43.28696337111383" lon="11.379907112313612"><ele>195.0</ele><time>2026-04-06T10:04:55.999Z</time></trkpt><trkpt lat="43.2871098992369" lon="11.37992030512783"><ele>195.0</ele><time>2026-04-06T10:04:56.999Z</time></trkpt><trkpt lat="43.287260019579826" lon="11.379913544615842"><ele>195.0</ele><time>2026-04-06T10:04:57.999Z</time></trkpt><trkpt lat="43.28740786386872" lon="11.379871569700144"><ele>195.0</ele><time>2026-04-06T10:04:58.999Z</time></trkpt><trkpt lat="43.28754518543893" lon="11.379799179796583"><ele>195.75</ele><time>2026-04-06T10:04:59.999Z</time></trkpt><trkpt lat="43.28768021800359" lon="11.379719601809493"><ele>196.5</ele><time>2026-04-06T10:05:00.999Z</time></trkpt><trkpt lat="43.28781524428234" lon="11.37965582666521"><ele>197.25</ele><time>2026-04-06T10:05:01.999Z</time></trkpt><trkpt lat="43.28794754199349" lon="11.379597372800731"><ele>198.0</ele><time>2026-04-06T10:05:02.999Z</time></trkpt><trkpt lat="43.28807729077343" lon="11.379532613666745"><ele>199.0</ele><time>2026-04-06T10:05:03.999Z</time></trkpt><trkpt lat="43.2882253922426" lon="11.379464088428913"><ele>200.0</ele><time>2026-04-06T10:05:04.999Z</time></trkpt><trkpt lat="43.28836496067495" lon="11.37940562768055"><ele>201.0</ele><time>2026-04-06T10:05:05.999Z</time></trkpt><trkpt lat="43.288538139979124" lon="11.37938803833245"><ele>201.0</ele><time>2026-04-06T10:05:06.999Z</time></trkpt><trkpt lat="43.288711612649706" lon="11.379357261130208"><ele>201.0</ele><time>2026-04-06T10:05:07.999Z</time></trkpt><trkpt lat="43.28888049861837" lon="11.379335116745821"><ele>201.0</ele><time>2026-04-06T10:05:08.999Z</time></trkpt><trkpt lat="43.28906097711502" lon="11.379317349998333"><ele>200.66666666666669</ele><time>2026-04-06T10:05:09.999Z</time></trkpt><trkpt lat="43.289234610384646" lon="11.37929040440608"><ele>200.33333333333334</ele><time>2026-04-06T10:05:10.999Z</time></trkpt><trkpt lat="43.28939595187848" lon="11.37928963465435"><ele>200.0</ele><time>2026-04-06T10:05:11.999Z</time></trkpt><trkpt lat="43.289537970620636" lon="11.379291224512805"><ele>200.0</ele><time>2026-04-06T10:05:12.999Z</time></trkpt><trkpt lat="43.28966432424841" lon="11.379298269011624"><ele>200.0</ele><time>2026-04-06T10:05:13.999Z</time></trkpt><trkpt lat="43.289775294128376" lon="11.379311015537874"><ele>200.0</ele><time>2026-04-06T10:05:14.999Z</time></trkpt><trkpt lat="43.28987726658157" lon="11.379324927613197"><ele>200.0</ele><time>2026-04-06T10:05:15.999Z</time></trkpt><trkpt lat="43.2899710510387" lon="11.37934232937948"><ele>200.0</ele><time>2026-04-06T10:05:16.999Z</time></trkpt><trkpt lat="43.290055210195256" lon="11.379381555607251"><ele>200.2857142857143</ele><time>2026-04-06T10:05:17.999Z</time></trkpt><trkpt lat="43.290138314342045" lon="11.37938651318851"><ele>200.57142857142858</ele><time>2026-04-06T10:05:18.999Z</time></trkpt><trkpt lat="43.290202819557905" lon="11.37943670363133"><ele>200.85714285714286</ele><time>2026-04-06T10:05:19.999Z</time></trkpt><trkpt lat="43.29025077072611" lon="11.379507793499695"><ele>201.14285714285717</ele><time>2026-04-06T10:05:20.999Z</time></trkpt><trkpt lat="43.29028193385035" lon="11.379595219147422"><ele>201.42857142857142</ele><time>2026-04-06T10:05:21.999Z</time></trkpt><trkpt lat="43.29029345515969" lon="11.379690796208283"><ele>201.71428571428572</ele><time>2026-04-06T10:05:22.999Z</time></trkpt><trkpt lat="43.29031437408515" lon="11.379791284305554"><ele>202.0</ele><time>2026-04-06T10:05:23.999Z</time></trkpt><trkpt lat="43.290351984933665" lon="11.379892115766737"><ele>202.33333333333331</ele><time>2026-04-06T10:05:24.999Z</time></trkpt><trkpt lat="43.29041341363035" lon="11.379976726010222"><ele>202.66666666666666</ele><time>2026-04-06T10:05:25.999Z</time></trkpt><trkpt lat="43.29049597448722" lon="11.380024043667758"><ele>203.0</ele><time>2026-04-06T10:05:26.999Z</time></trkpt><trkpt lat="43.29058514523241" lon="11.38002675897767"><ele>203.33333333333331</ele><time>2026-04-06T10:05:27.999Z</time></trkpt><trkpt lat="43.29066469752864" lon="11.379983489072403"><ele>203.66666666666666</ele><time>2026-04-06T10:05:28.999Z</time></trkpt><trkpt lat="43.29072427389095" lon="11.37991446443237"><ele>204.0</ele><time>2026-04-06T10:05:29.999Z</time></trkpt><trkpt lat="43.29076613999948" lon="11.37981502715198"><ele>204.0</ele><time>2026-04-06T10:05:30.999Z</time></trkpt><trkpt lat="43.29078604845037" lon="11.379707312449952"><ele>204.0</ele><time>2026-04-06T10:05:31.999Z</time></trkpt><trkpt lat="43.29078691842526" lon="11.379598334617882"><ele>204.0</ele><time>2026-04-06T10:05:32.999Z</time></trkpt><trkpt lat="43.29077834198499" lon="11.37947615216824"><ele>204.0</ele><time>2026-04-06T10:05:33.999Z</time></trkpt><trkpt lat="43.29077361364329" lon="11.379344566251874"><ele>204.0</ele><time>2026-04-06T10:05:34.999Z</time></trkpt><trkpt lat="43.29078385494913" lon="11.379211971045555"><ele>204.0</ele><time>2026-04-06T10:05:35.999Z</time></trkpt><trkpt lat="43.290802873439304" lon="11.37907770869012"><ele>202.5</ele><time>2026-04-06T10:05:36.999Z</time></trkpt><trkpt lat="43.290823315559265" lon="11.378936087939083"><ele>201.0</ele><time>2026-04-06T10:05:37.999Z</time></trkpt><trkpt lat="43.29083118982877" lon="11.378783933221456"><ele>199.5</ele><time>2026-04-06T10:05:38.999Z</time></trkpt><trkpt lat="43.290823285523516" lon="11.378624474839715"><ele>198.0</ele><time>2026-04-06T10:05:39.999Z</time></trkpt><trkpt lat="43.29080131311147" lon="11.378451444904012"><ele>196.75</ele><time>2026-04-06T10:05:40.999Z</time></trkpt><trkpt lat="43.29077024167923" lon="11.378271346296513"><ele>195.5</ele><time>2026-04-06T10:05:41.999Z</time></trkpt><trkpt lat="43.29073828294206" lon="11.378087203016387"><ele>194.25</ele><time>2026-04-06T10:05:42.999Z</time></trkpt><trkpt lat="43.290706841831664" lon="11.377895400920833"><ele>193.0</ele><time>2026-04-06T10:05:43.999Z</time></trkpt><trkpt lat="43.29067326735324" lon="11.37770351218282"><ele>191.0</ele><time>2026-04-06T10:05:44.999Z</time></trkpt><trkpt lat="43.29064723057054" lon="11.377489304035498"><ele>189.0</ele><time>2026-04-06T10:05:45.999Z</time></trkpt><trkpt lat="43.2906206651008" lon="11.37728054704463"><ele>187.0</ele><time>2026-04-06T10:05:46.998Z</time></trkpt><trkpt lat="43.29058740931613" lon="11.377066287661984"><ele>186.33333333333334</ele><time>2026-04-06T10:05:47.998Z</time></trkpt><trkpt lat="43.290553586157515" lon="11.376860744382155"><ele>185.66666666666666</ele><time>2026-04-06T10:05:48.998Z</time></trkpt><trkpt lat="43.29053129603318" lon="11.37665742390918"><ele>185.0</ele><time>2026-04-06T10:05:49.998Z</time></trkpt><trkpt lat="43.29053055936353" lon="11.376453937775965"><ele>185.33333333333331</ele><time>2026-04-06T10:05:50.998Z</time></trkpt><trkpt lat="43.29054831785756" lon="11.376239949152554"><ele>185.66666666666666</ele><time>2026-04-06T10:05:51.998Z</time></trkpt><trkpt lat="43.29059826864778" lon="11.376017116185592"><ele>186.0</ele><time>2026-04-06T10:05:52.998Z</time></trkpt><trkpt lat="43.290672391901616" lon="11.375834518221787"><ele>186.0</ele><time>2026-04-06T10:05:53.998Z</time></trkpt><trkpt lat="43.29076572179777" lon="11.375660705242536"><ele>186.0</ele><time>2026-04-06T10:05:54.998Z</time></trkpt><trkpt lat="43.29087241358648" lon="11.375503000975877"><ele>186.0</ele><time>2026-04-06T10:05:55.998Z</time></trkpt><trkpt lat="43.29099982941039" lon="11.375364126206925"><ele>188.0</ele><time>2026-04-06T10:05:56.998Z</time></trkpt><trkpt lat="43.291138313526844" lon="11.3752419816609"><ele>190.0</ele><time>2026-04-06T10:05:57.998Z</time></trkpt><trkpt lat="43.2912784840967" lon="11.375120664292554"><ele>192.0</ele><time>2026-04-06T10:05:58.998Z</time></trkpt><trkpt lat="43.29141836945155" lon="11.374996934165866"><ele>192.33333333333331</ele><time>2026-04-06T10:05:59.998Z</time></trkpt><trkpt lat="43.2915604807359" lon="11.374872451944471"><ele>192.66666666666666</ele><time>2026-04-06T10:06:00.998Z</time></trkpt><trkpt lat="43.29170429555477" lon="11.374747364070378"><ele>193.0</ele><time>2026-04-06T10:06:01.998Z</time></trkpt><trkpt lat="43.29185192562748" lon="11.374631931603954"><ele>193.0</ele><time>2026-04-06T10:06:02.998Z</time></trkpt><trkpt lat="43.29201065143252" lon="11.374529310307825"><ele>193.0</ele><time>2026-04-06T10:06:03.998Z</time></trkpt><trkpt lat="43.292174286720375" lon="11.374443311363144"><ele>193.0</ele><time>2026-04-06T10:06:04.998Z</time></trkpt><trkpt lat="43.29234307215036" lon="11.374373083133149"><ele>192.0</ele><time>2026-04-06T10:06:05.998Z</time></trkpt><trkpt lat="43.29251696319084" lon="11.374326751952502"><ele>191.0</ele><time>2026-04-06T10:06:06.998Z</time></trkpt><trkpt lat="43.292689868839446" lon="11.3743062947623"><ele>190.0</ele><time>2026-04-06T10:06:07.998Z</time></trkpt><trkpt lat="43.29285233593966" lon="11.374299272179933"><ele>190.0</ele><time>2026-04-06T10:06:08.998Z</time></trkpt><trkpt lat="43.29301126333492" lon="11.374317164064797"><ele>190.0</ele><time>2026-04-06T10:06:09.998Z</time></trkpt><trkpt lat="43.29317073747256" lon="11.374314576326979"><ele>190.0</ele><time>2026-04-06T10:06:10.998Z</time></trkpt><trkpt lat="43.2933285121727" lon="11.3742903394269"><ele>190.66666666666669</ele><time>2026-04-06T10:06:11.998Z</time></trkpt><trkpt lat="43.293487333615715" lon="11.374291724637315"><ele>191.33333333333334</ele><time>2026-04-06T10:06:12.998Z</time></trkpt><trkpt lat="43.293654657099545" lon="11.374286601592964"><ele>192.0</ele><time>2026-04-06T10:06:13.998Z</time></trkpt><trkpt lat="43.293829130018494" lon="11.37429736463208"><ele>192.0</ele><time>2026-04-06T10:06:14.998Z</time></trkpt><trkpt lat="43.293998611040514" lon="11.374232430876948"><ele>192.0</ele><time>2026-04-06T10:06:15.998Z</time></trkpt><trkpt lat="43.294167369895206" lon="11.374176004907396"><ele>192.0</ele><time>2026-04-06T10:06:16.998Z</time></trkpt><trkpt lat="43.29433563439703" lon="11.374105892069329"><ele>192.0</ele><time>2026-04-06T10:06:17.998Z</time></trkpt><trkpt lat="43.29450222529294" lon="11.374036823917617"><ele>192.0</ele><time>2026-04-06T10:06:18.998Z</time></trkpt><trkpt lat="43.294670975266754" lon="11.37397077108528"><ele>192.0</ele><time>2026-04-06T10:06:19.998Z</time></trkpt><trkpt lat="43.29483900945722" lon="11.373907523796682"><ele>194.0</ele><time>2026-04-06T10:06:20.998Z</time></trkpt><trkpt lat="43.29501231611941" lon="11.373849775146617"><ele>196.0</ele><time>2026-04-06T10:06:21.998Z</time></trkpt><trkpt lat="43.295187882560406" lon="11.373800264323766"><ele>198.0</ele><time>2026-04-06T10:06:22.998Z</time></trkpt><trkpt lat="43.295364699557695" lon="11.373762964408327"><ele>198.0</ele><time>2026-04-06T10:06:23.998Z</time></trkpt><trkpt lat="43.29554436245341" lon="11.373767782466318"><ele>198.0</ele><time>2026-04-06T10:06:24.998Z</time></trkpt><trkpt lat="43.2957224325559" lon="11.373767690450554"><ele>198.0</ele><time>2026-04-06T10:06:25.998Z</time></trkpt><trkpt lat="43.2958992421134" lon="11.373783022511498"><ele>197.66666666666669</ele><time>2026-04-06T10:06:26.998Z</time></trkpt><trkpt lat="43.296074537509156" lon="11.373789185476985"><ele>197.33333333333334</ele><time>2026-04-06T10:06:27.998Z</time></trkpt><trkpt lat="43.296252713349304" lon="11.373840408669691"><ele>197.0</ele><time>2026-04-06T10:06:28.998Z</time></trkpt><trkpt lat="43.29642747464227" lon="11.373901014687611"><ele>195.33333333333334</ele><time>2026-04-06T10:06:29.998Z</time></trkpt><trkpt lat="43.29659806285561" lon="11.373988582779077"><ele>193.66666666666669</ele><time>2026-04-06T10:06:30.998Z</time></trkpt><trkpt lat="43.29678045144906" lon="11.374041622852271"><ele>192.0</ele><time>2026-04-06T10:06:31.998Z</time></trkpt><trkpt lat="43.29695576134682" lon="11.3741245626186"><ele>192.0</ele><time>2026-04-06T10:06:32.998Z</time></trkpt><trkpt lat="43.29713364133249" lon="11.374202661958341"><ele>192.0</ele><time>2026-04-06T10:06:33.998Z</time></trkpt><trkpt lat="43.29730848772611" lon="11.374278994806462"><ele>192.0</ele><time>2026-04-06T10:06:34.998Z</time></trkpt><trkpt lat="43.29747983764701" lon="11.374348929524214"><ele>193.33333333333331</ele><time>2026-04-06T10:06:35.998Z</time></trkpt><trkpt lat="43.297637410303025" lon="11.374441802382007"><ele>194.66666666666666</ele><time>2026-04-06T10:06:36.998Z</time></trkpt><trkpt lat="43.29779468216884" lon="11.374511484844296"><ele>196.0</ele><time>2026-04-06T10:06:37.998Z</time></trkpt><trkpt lat="43.29795636752974" lon="11.374583122756171"><ele>196.33333333333331</ele><time>2026-04-06T10:06:38.998Z</time></trkpt><trkpt lat="43.298119011796324" lon="11.374652574930948"><ele>196.66666666666669</ele><time>2026-04-06T10:06:40Z</time></trkpt><trkpt lat="43.298280252612265" lon="11.374699359526744"><ele>197.0</ele><time>2026-04-06T10:06:41Z</time></trkpt><trkpt lat="43.29843974422006" lon="11.374760805703698"><ele>196.0</ele><time>2026-04-06T10:06:42Z</time></trkpt><trkpt lat="43.29860410955974" lon="11.374801587099546"><ele>195.0</ele><time>2026-04-06T10:06:43Z</time></trkpt><trkpt lat="43.29877299546337" lon="11.374809471915702"><ele>194.0</ele><time>2026-04-06T10:06:44Z</time></trkpt><trkpt lat="43.29894356046877" lon="11.374774985632792"><ele>194.0</ele><time>2026-04-06T10:06:45Z</time></trkpt><trkpt lat="43.299106394746474" lon="11.374712675193948"><ele>194.0</ele><time>2026-04-06T10:06:46Z</time></trkpt><trkpt lat="43.29925704544225" lon="11.374633942017802"><ele>194.0</ele><time>2026-04-06T10:06:47Z</time></trkpt><trkpt lat="43.29940341310273" lon="11.374537546444667"><ele>194.33333333333334</ele><time>2026-04-06T10:06:48Z</time></trkpt><trkpt lat="43.29953396573862" lon="11.374416888325507"><ele>194.66666666666669</ele><time>2026-04-06T10:06:49Z</time></trkpt><trkpt lat="43.29966956256812" lon="11.374308753828988"><ele>195.0</ele><time>2026-04-06T10:06:50Z</time></trkpt><trkpt lat="43.29980043056095" lon="11.374193727987834"><ele>195.0</ele><time>2026-04-06T10:06:51Z</time></trkpt><trkpt lat="43.29994455908067" lon="11.374067046878219"><ele>195.0</ele><time>2026-04-06T10:06:52Z</time></trkpt><trkpt lat="43.30003777046888" lon="11.373802513156658"><ele>195.0</ele><time>2026-04-06T10:06:53Z</time></trkpt><trkpt lat="43.30014704617066" lon="11.373626558502057"><ele>196.0</ele><time>2026-04-06T10:06:54Z</time></trkpt><trkpt lat="43.30021773963299" lon="11.373433633113269"><ele>197.0</ele><time>2026-04-06T10:06:55Z</time></trkpt><trkpt lat="43.30023461255928" lon="11.373214316873671"><ele>198.0</ele><time>2026-04-06T10:06:56Z</time></trkpt><trkpt lat="43.30029680107577" lon="11.373014402472313"><ele>200.0</ele><time>2026-04-06T10:06:57Z</time></trkpt><trkpt lat="43.30036331662795" lon="11.372806975636653"><ele>202.0</ele><time>2026-04-06T10:06:58Z</time></trkpt><trkpt lat="43.30044391106035" lon="11.37259632899478"><ele>204.0</ele><time>2026-04-06T10:06:58.999Z</time></trkpt><trkpt lat="43.30051998516281" lon="11.372384160361225"><ele>203.0</ele><time>2026-04-06T10:06:59.999Z</time></trkpt><trkpt lat="43.30059797060551" lon="11.372213233226189"><ele>202.0</ele><time>2026-04-06T10:07:00.999Z</time></trkpt><trkpt lat="43.30068311377593" lon="11.372019490531907"><ele>201.0</ele><time>2026-04-06T10:07:01.999Z</time></trkpt><trkpt lat="43.30076615323247" lon="11.371847956464753"><ele>201.0</ele><time>2026-04-06T10:07:02.999Z</time></trkpt><trkpt lat="43.3008489004233" lon="11.371713066436506"><ele>201.0</ele><time>2026-04-06T10:07:03.999Z</time></trkpt><trkpt lat="43.300921523670866" lon="11.371576765266756"><ele>201.0</ele><time>2026-04-06T10:07:04.999Z</time></trkpt><trkpt lat="43.30101109411538" lon="11.371495060681573"><ele>201.0</ele><time>2026-04-06T10:07:05.999Z</time></trkpt><trkpt lat="43.3010743330476" lon="11.371434279905179"><ele>201.0</ele><time>2026-04-06T10:07:06.999Z</time></trkpt><trkpt lat="43.30115574647478" lon="11.371356735287055"><ele>200.33333333333334</ele><time>2026-04-06T10:07:08.999Z</time></trkpt><trkpt lat="43.30121173805243" lon="11.371316799370623"><ele>199.66666666666669</ele><time>2026-04-06T10:07:10.999Z</time></trkpt><trkpt lat="43.301276635213036" lon="11.371303397176819"><ele>199.0</ele><time>2026-04-06T10:07:12.999Z</time></trkpt><trkpt lat="43.30135288781826" lon="11.371340045523525"><ele>198.33333333333334</ele><time>2026-04-06T10:07:15.999Z</time></trkpt><trkpt lat="43.30142907910526" lon="11.37137066275388"><ele>197.66666666666669</ele><time>2026-04-06T10:07:17.999Z</time></trkpt><trkpt lat="43.301495982806095" lon="11.371522540715281"><ele>197.0</ele><time>2026-04-06T10:07:19.999Z</time></trkpt><trkpt lat="43.301506553354166" lon="11.3716513211937"><ele>197.0</ele><time>2026-04-06T10:07:20.999Z</time></trkpt><trkpt lat="43.30148445067686" lon="11.371777916315155"><ele>197.0</ele><time>2026-04-06T10:07:21.999Z</time></trkpt><trkpt lat="43.301470469895136" lon="11.37191809302759"><ele>197.0</ele><time>2026-04-06T10:07:22.999Z</time></trkpt><trkpt lat="43.30144799325465" lon="11.37207962721491"><ele>197.0</ele><time>2026-04-06T10:07:23.999Z</time></trkpt><trkpt lat="43.301427672405524" lon="11.372257840705581"><ele>197.0</ele><time>2026-04-06T10:07:24.999Z</time></trkpt><trkpt lat="43.30141210626332" lon="11.372460189597659"><ele>196.66666666666669</ele><time>2026-04-06T10:07:25.999Z</time></trkpt><trkpt lat="43.3013908614923" lon="11.372664800083811"><ele>196.33333333333331</ele><time>2026-04-06T10:07:26.999Z</time></trkpt><trkpt lat="43.30137644576298" lon="11.372876128279321"><ele>196.0</ele><time>2026-04-06T10:07:27.999Z</time></trkpt><trkpt lat="43.30136743943899" lon="11.37308890125958"><ele>196.0</ele><time>2026-04-06T10:07:28.999Z</time></trkpt><trkpt lat="43.30136654393778" lon="11.373312727021842"><ele>196.0</ele><time>2026-04-06T10:07:29.999Z</time></trkpt><trkpt lat="43.30136846232692" lon="11.373546091728354"><ele>196.0</ele><time>2026-04-06T10:07:30.999Z</time></trkpt><trkpt lat="43.30136691610114" lon="11.373789962254548"><ele>195.33333333333331</ele><time>2026-04-06T10:07:31.999Z</time></trkpt><trkpt lat="43.30137540387688" lon="11.374042489388728"><ele>194.66666666666669</ele><time>2026-04-06T10:07:32.999Z</time></trkpt><trkpt lat="43.30137804574671" lon="11.374296853256228"><ele>194.0</ele><time>2026-04-06T10:07:33.999Z</time></trkpt><trkpt lat="43.30138033482464" lon="11.374553326095578"><ele>194.0</ele><time>2026-04-06T10:07:34.999Z</time></trkpt><trkpt lat="43.301382011781094" lon="11.374813202511795"><ele>194.0</ele><time>2026-04-06T10:07:35.999Z</time></trkpt><trkpt lat="43.30138251180055" lon="11.37507112214974"><ele>194.0</ele><time>2026-04-06T10:07:36.999Z</time></trkpt><trkpt lat="43.30138657179073" lon="11.375327909196347"><ele>194.66666666666669</ele><time>2026-04-06T10:07:37.999Z</time></trkpt><trkpt lat="43.30139000482623" lon="11.37558718502747"><ele>195.33333333333331</ele><time>2026-04-06T10:07:38.999Z</time></trkpt><trkpt lat="43.301392957467726" lon="11.375850794962423"><ele>196.0</ele><time>2026-04-06T10:07:39.999Z</time></trkpt><trkpt lat="43.30139805432684" lon="11.37611817434642"><ele>196.33333333333331</ele><time>2026-04-06T10:07:40.999Z</time></trkpt><trkpt lat="43.30140328612394" lon="11.376385889615964"><ele>196.66666666666669</ele><time>2026-04-06T10:07:41.999Z</time></trkpt><trkpt lat="43.30141376662948" lon="11.376650468661047"><ele>197.0</ele><time>2026-04-06T10:07:42.999Z</time></trkpt><trkpt lat="43.30141757204899" lon="11.376908129352223"><ele>197.0</ele><time>2026-04-06T10:07:43.999Z</time></trkpt><trkpt lat="43.301419090387604" lon="11.377159700981421"><ele>197.0</ele><time>2026-04-06T10:07:44.999Z</time></trkpt><trkpt lat="43.30142289341882" lon="11.377408044957784"><ele>197.0</ele><time>2026-04-06T10:07:45.999Z</time></trkpt><trkpt lat="43.30142626407491" lon="11.377653548688437"><ele>197.0</ele><time>2026-04-06T10:07:46.999Z</time></trkpt><trkpt lat="43.30142852977454" lon="11.377910001831244"><ele>197.0</ele><time>2026-04-06T10:07:47.999Z</time></trkpt><trkpt lat="43.30143357213992" lon="11.378156663315522"><ele>197.0</ele><time>2026-04-06T10:07:48.999Z</time></trkpt><trkpt lat="43.301439488259675" lon="11.378405585699308"><ele>196.66666666666669</ele><time>2026-04-06T10:07:49.999Z</time></trkpt><trkpt lat="43.30144464894371" lon="11.378650918233125"><ele>196.33333333333331</ele><time>2026-04-06T10:07:50.999Z</time></trkpt><trkpt lat="43.30144789244255" lon="11.378899311400703"><ele>196.0</ele><time>2026-04-06T10:07:51.998Z</time></trkpt><trkpt lat="43.301450381950886" lon="11.379147668190006"><ele>195.66666666666666</ele><time>2026-04-06T10:07:52.998Z</time></trkpt><trkpt lat="43.30145307856216" lon="11.379398238927983"><ele>195.33333333333331</ele><time>2026-04-06T10:07:53.998Z</time></trkpt><trkpt lat="43.301459197382144" lon="11.379652025651932"><ele>195.0</ele><time>2026-04-06T10:07:54.998Z</time></trkpt><trkpt lat="43.30146858839906" lon="11.37990584426396"><ele>196.0</ele><time>2026-04-06T10:07:55.998Z</time></trkpt><trkpt lat="43.30147764993665" lon="11.380159240848704"><ele>197.0</ele><time>2026-04-06T10:07:56.998Z</time></trkpt><trkpt lat="43.301487561224725" lon="11.38041595555942"><ele>198.0</ele><time>2026-04-06T10:07:57.998Z</time></trkpt><trkpt lat="43.301495273413245" lon="11.38067761108168"><ele>198.33333333333331</ele><time>2026-04-06T10:07:58.998Z</time></trkpt><trkpt lat="43.30150192784086" lon="11.38093865464699"><ele>198.66666666666666</ele><time>2026-04-06T10:07:59.998Z</time></trkpt><trkpt lat="43.30150643180914" lon="11.381202681925407"><ele>199.0</ele><time>2026-04-06T10:08:00.998Z</time></trkpt><trkpt lat="43.30151171323417" lon="11.381476047915022"><ele>199.0</ele><time>2026-04-06T10:08:01.998Z</time></trkpt><trkpt lat="43.30151127338957" lon="11.38175204069895"><ele>199.0</ele><time>2026-04-06T10:08:02.998Z</time></trkpt><trkpt lat="43.30150184600262" lon="11.382031405452135"><ele>199.0</ele><time>2026-04-06T10:08:03.998Z</time></trkpt><trkpt lat="43.301467049639726" lon="11.382293967633734"><ele>198.0</ele><time>2026-04-06T10:08:04.998Z</time></trkpt><trkpt lat="43.301415905277345" lon="11.382566005788975"><ele>197.0</ele><time>2026-04-06T10:08:05.998Z</time></trkpt><trkpt lat="43.30135086157769" lon="11.382835836346413"><ele>196.0</ele><time>2026-04-06T10:08:06.998Z</time></trkpt><trkpt lat="43.301276744237036" lon="11.383104456158305"><ele>194.0</ele><time>2026-04-06T10:08:07.998Z</time></trkpt><trkpt lat="43.30118706093176" lon="11.383370745433579"><ele>192.0</ele><time>2026-04-06T10:08:08.998Z</time></trkpt><trkpt lat="43.3010614205173" lon="11.383608254944955"><ele>190.0</ele><time>2026-04-06T10:08:09.998Z</time></trkpt><trkpt lat="43.30093543847553" lon="11.383853463379873"><ele>189.0</ele><time>2026-04-06T10:08:10.998Z</time></trkpt><trkpt lat="43.30079067011609" lon="11.384090481078983"><ele>188.0</ele><time>2026-04-06T10:08:11.998Z</time></trkpt><trkpt lat="43.300634411676356" lon="11.384313686759455"><ele>188.0</ele><time>2026-04-06T10:08:12.998Z</time></trkpt><trkpt lat="43.300478090641626" lon="11.384536145034721"><ele>188.0</ele><time>2026-04-06T10:08:13.998Z</time></trkpt><trkpt lat="43.300320110023016" lon="11.384772737077753"><ele>187.5</ele><time>2026-04-06T10:08:14.998Z</time></trkpt><trkpt lat="43.30015845109145" lon="11.385004567231086"><ele>187.0</ele><time>2026-04-06T10:08:15.998Z</time></trkpt><trkpt lat="43.299994420868614" lon="11.385240111769635"><ele>187.0</ele><time>2026-04-06T10:08:16.998Z</time></trkpt><trkpt lat="43.29983439544639" lon="11.385478594513314"><ele>187.0</ele><time>2026-04-06T10:08:17.998Z</time></trkpt><trkpt lat="43.29967160065649" lon="11.38572110925422"><ele>185.0</ele><time>2026-04-06T10:08:18.998Z</time></trkpt><trkpt lat="43.29951358324987" lon="11.385968225667856"><ele>183.0</ele><time>2026-04-06T10:08:19.998Z</time></trkpt><trkpt lat="43.29935661419807" lon="11.386215864714147"><ele>183.5</ele><time>2026-04-06T10:08:20.998Z</time></trkpt><trkpt lat="43.29919316033894" lon="11.386461536512662"><ele>184.0</ele><time>2026-04-06T10:08:21.998Z</time></trkpt><trkpt lat="43.29903164310614" lon="11.386705141270804"><ele>184.0</ele><time>2026-04-06T10:08:22.998Z</time></trkpt><trkpt lat="43.298867762892534" lon="11.386945775617251"><ele>184.0</ele><time>2026-04-06T10:08:23.998Z</time></trkpt><trkpt lat="43.2987059411617" lon="11.387184603390597"><ele>186.0</ele><time>2026-04-06T10:08:24.998Z</time></trkpt><trkpt lat="43.29854658303492" lon="11.38742444365232"><ele>188.0</ele><time>2026-04-06T10:08:25.998Z</time></trkpt><trkpt lat="43.29839121893096" lon="11.387662840746088"><ele>188.0</ele><time>2026-04-06T10:08:26.998Z</time></trkpt><trkpt lat="43.298233501835284" lon="11.387898984737108"><ele>188.0</ele><time>2026-04-06T10:08:27.998Z</time></trkpt><trkpt lat="43.298073401567926" lon="11.388128863584296"><ele>192.0</ele><time>2026-04-06T10:08:28.998Z</time></trkpt><trkpt lat="43.29791208396365" lon="11.388358872127574"><ele>196.0</ele><time>2026-04-06T10:08:29.998Z</time></trkpt><trkpt lat="43.29774898901847" lon="11.388596627498288"><ele>196.0</ele><time>2026-04-06T10:08:30.998Z</time></trkpt><trkpt lat="43.29758646445837" lon="11.38884127771164"><ele>196.0</ele><time>2026-04-06T10:08:31.998Z</time></trkpt><trkpt lat="43.297420493009625" lon="11.389090242277529"><ele>198.5</ele><time>2026-04-06T10:08:32.998Z</time></trkpt><trkpt lat="43.29725236400769" lon="11.389340815700972"><ele>201.0</ele><time>2026-04-06T10:08:33.998Z</time></trkpt><trkpt lat="43.297083605122715" lon="11.389593970622078"><ele>203.0</ele><time>2026-04-06T10:08:34.998Z</time></trkpt><trkpt lat="43.29691291276671" lon="11.389848404371632"><ele>205.0</ele><time>2026-04-06T10:08:35.998Z</time></trkpt><trkpt lat="43.296743160633284" lon="11.39010578500195"><ele>205.0</ele><time>2026-04-06T10:08:36.998Z</time></trkpt><trkpt lat="43.2965708556588" lon="11.39036814027854"><ele>205.0</ele><time>2026-04-06T10:08:37.998Z</time></trkpt><trkpt lat="43.29640542202897" lon="11.390638886536005"><ele>202.5</ele><time>2026-04-06T10:08:38.998Z</time></trkpt><trkpt lat="43.29625236646977" lon="11.39092492513574"><ele>200.0</ele><time>2026-04-06T10:08:39.998Z</time></trkpt><trkpt lat="43.2961129044424" lon="11.39122892107684"><ele>197.5</ele><time>2026-04-06T10:08:40.998Z</time></trkpt><trkpt lat="43.29598830652513" lon="11.391549105648565"><ele>195.0</ele><time>2026-04-06T10:08:41.998Z</time></trkpt><trkpt lat="43.29589017097455" lon="11.391881696809298"><ele>195.0</ele><time>2026-04-06T10:08:42.998Z</time></trkpt><trkpt lat="43.295813394445155" lon="11.39222627068476"><ele>195.0</ele><time>2026-04-06T10:08:43.998Z</time></trkpt><trkpt lat="43.29574995473557" lon="11.392577593620528"><ele>195.0</ele><time>2026-04-06T10:08:44.998Z</time></trkpt><trkpt lat="43.29570613338863" lon="11.392938445405806"><ele>195.0</ele><time>2026-04-06T10:08:46Z</time></trkpt><trkpt lat="43.29568125472032" lon="11.393301338038109"><ele>195.0</ele><time>2026-04-06T10:08:47Z</time></trkpt><trkpt lat="43.29566835507725" lon="11.39366957590936"><ele>195.0</ele><time>2026-04-06T10:08:48Z</time></trkpt><trkpt lat="43.29565600237" lon="11.39403522135587"><ele>195.0</ele><time>2026-04-06T10:08:49Z</time></trkpt><trkpt lat="43.2956501423652" lon="11.394399314875283"><ele>195.0</ele><time>2026-04-06T10:08:50Z</time></trkpt><trkpt lat="43.295637715031724" lon="11.394760441167884"><ele>195.0</ele><time>2026-04-06T10:08:51Z</time></trkpt><trkpt lat="43.29562747389785" lon="11.39512254361645"><ele>195.0</ele><time>2026-04-06T10:08:52Z</time></trkpt><trkpt lat="43.29561994649641" lon="11.395486661178987"><ele>196.5</ele><time>2026-04-06T10:08:53Z</time></trkpt><trkpt lat="43.29561569183697" lon="11.395853391517274"><ele>198.0</ele><time>2026-04-06T10:08:54Z</time></trkpt><trkpt lat="43.29561973434516" lon="11.396220698775583"><ele>199.5</ele><time>2026-04-06T10:08:55Z</time></trkpt><trkpt lat="43.29564246355693" lon="11.396592979278847"><ele>201.0</ele><time>2026-04-06T10:08:56Z</time></trkpt><trkpt lat="43.29568719558492" lon="11.396958176527932"><ele>199.0</ele><time>2026-04-06T10:08:57Z</time></trkpt><trkpt lat="43.29575169733968" lon="11.397319642205282"><ele>197.0</ele><time>2026-04-06T10:08:58Z</time></trkpt><trkpt lat="43.295840633636985" lon="11.397668212983271"><ele>195.0</ele><time>2026-04-06T10:08:59Z</time></trkpt><trkpt lat="43.295950951229706" lon="11.39801024634061"><ele>193.0</ele><time>2026-04-06T10:09:00Z</time></trkpt><trkpt lat="43.296090353599816" lon="11.398336829389056"><ele>193.0</ele><time>2026-04-06T10:09:01Z</time></trkpt><trkpt lat="43.29625107939617" lon="11.398678630572428"><ele>193.0</ele><time>2026-04-06T10:09:02Z</time></trkpt><trkpt lat="43.29642801699042" lon="11.39898993918544"><ele>195.5</ele><time>2026-04-06T10:09:03Z</time></trkpt><trkpt lat="43.29663639130239" lon="11.399294129439202"><ele>198.0</ele><time>2026-04-06T10:09:04Z</time></trkpt><trkpt lat="43.29683473467969" lon="11.399592934344186"><ele>197.5</ele><time>2026-04-06T10:09:04.999Z</time></trkpt><trkpt lat="43.29703166049193" lon="11.399898823422308"><ele>197.0</ele><time>2026-04-06T10:09:05.999Z</time></trkpt><trkpt lat="43.297223744218684" lon="11.400198891008467"><ele>193.5</ele><time>2026-04-06T10:09:06.999Z</time></trkpt><trkpt lat="43.29741392933405" lon="11.400499686198838"><ele>190.0</ele><time>2026-04-06T10:09:07.999Z</time></trkpt><trkpt lat="43.29760896580882" lon="11.400810457156895"><ele>190.0</ele><time>2026-04-06T10:09:08.999Z</time></trkpt><trkpt lat="43.29780000504828" lon="11.401123819993675"><ele>190.0</ele><time>2026-04-06T10:09:09.999Z</time></trkpt><trkpt lat="43.29798826369754" lon="11.401420254073324"><ele>190.5</ele><time>2026-04-06T10:09:10.999Z</time></trkpt><trkpt lat="43.29817966949357" lon="11.401729075690806"><ele>191.0</ele><time>2026-04-06T10:09:11.999Z</time></trkpt><trkpt lat="43.298368802999256" lon="11.4020314804606"><ele>187.5</ele><time>2026-04-06T10:09:12.999Z</time></trkpt><trkpt lat="43.29855774529856" lon="11.40232601589299"><ele>184.0</ele><time>2026-04-06T10:09:13.999Z</time></trkpt><trkpt lat="43.298746263025606" lon="11.402621089761457"><ele>183.5</ele><time>2026-04-06T10:09:14.999Z</time></trkpt><trkpt lat="43.298937197667705" lon="11.402921038617995"><ele>183.0</ele><time>2026-04-06T10:09:15.999Z</time></trkpt><trkpt lat="43.2991239976089" lon="11.403216576609992"><ele>183.0</ele><time>2026-04-06T10:09:16.999Z</time></trkpt><trkpt lat="43.299314584656436" lon="11.403513673285813"><ele>183.0</ele><time>2026-04-06T10:09:17.999Z</time></trkpt><trkpt lat="43.29950370671623" lon="11.403808765870957"><ele>183.5</ele><time>2026-04-06T10:09:18.999Z</time></trkpt><trkpt lat="43.299695615776606" lon="11.404106180991377"><ele>184.0</ele><time>2026-04-06T10:09:19.999Z</time></trkpt><trkpt lat="43.29988425854561" lon="11.404399235842106"><ele>182.5</ele><time>2026-04-06T10:09:20.999Z</time></trkpt><trkpt lat="43.300070965628855" lon="11.404687954779519"><ele>181.0</ele><time>2026-04-06T10:09:21.999Z</time></trkpt><trkpt lat="43.30025749576205" lon="11.404980218439167"><ele>181.0</ele><time>2026-04-06T10:09:22.999Z</time></trkpt><trkpt lat="43.300441832063875" lon="11.405273667608146"><ele>181.0</ele><time>2026-04-06T10:09:23.999Z</time></trkpt><trkpt lat="43.30062752915396" lon="11.405566040741334"><ele>183.0</ele><time>2026-04-06T10:09:24.999Z</time></trkpt><trkpt lat="43.300811161759775" lon="11.405853712921887"><ele>185.0</ele><time>2026-04-06T10:09:25.999Z</time></trkpt><trkpt lat="43.30098681420346" lon="11.406142953081352"><ele>183.5</ele><time>2026-04-06T10:09:26.999Z</time></trkpt><trkpt lat="43.30115398660785" lon="11.40644689873517"><ele>182.0</ele><time>2026-04-06T10:09:27.999Z</time></trkpt><trkpt lat="43.30132140859321" lon="11.406768505672396"><ele>182.5</ele><time>2026-04-06T10:09:28.999Z</time></trkpt><trkpt lat="43.30146578768252" lon="11.407095786881467"><ele>183.0</ele><time>2026-04-06T10:09:29.999Z</time></trkpt><trkpt lat="43.30160606530863" lon="11.407431509360366"><ele>183.0</ele><time>2026-04-06T10:09:30.999Z</time></trkpt><trkpt lat="43.30173660570665" lon="11.407774492761066"><ele>183.0</ele><time>2026-04-06T10:09:31.999Z</time></trkpt><trkpt lat="43.30185822212706" lon="11.408125028113442"><ele>182.5</ele><time>2026-04-06T10:09:32.999Z</time></trkpt><trkpt lat="43.30197498880306" lon="11.408488769248388"><ele>182.0</ele><time>2026-04-06T10:09:33.999Z</time></trkpt><trkpt lat="43.30208080025854" lon="11.408856653760322"><ele>182.0</ele><time>2026-04-06T10:09:34.999Z</time></trkpt><trkpt lat="43.30217928301177" lon="11.409228294683537"><ele>182.0</ele><time>2026-04-06T10:09:35.999Z</time></trkpt><trkpt lat="43.30228270401355" lon="11.409590973560226"><ele>182.5</ele><time>2026-04-06T10:09:36.999Z</time></trkpt><trkpt lat="43.30238745178091" lon="11.409960646808711"><ele>183.0</ele><time>2026-04-06T10:09:37.999Z</time></trkpt><trkpt lat="43.302492169737114" lon="11.410339249006311"><ele>183.0</ele><time>2026-04-06T10:09:38.999Z</time></trkpt><trkpt lat="43.30259707412901" lon="11.410712181724266"><ele>183.0</ele><time>2026-04-06T10:09:39.999Z</time></trkpt><trkpt lat="43.30269974948856" lon="11.411081332166955"><ele>182.5</ele><time>2026-04-06T10:09:40.999Z</time></trkpt><trkpt lat="43.30280251394485" lon="11.411450149897687"><ele>182.0</ele><time>2026-04-06T10:09:41.999Z</time></trkpt><trkpt lat="43.302906073302424" lon="11.411821850412172"><ele>181.5</ele><time>2026-04-06T10:09:42.999Z</time></trkpt><trkpt lat="43.30300958379301" lon="11.41219213076695"><ele>181.0</ele><time>2026-04-06T10:09:43.999Z</time></trkpt><trkpt lat="43.30311392883469" lon="11.41256179378857"><ele>182.5</ele><time>2026-04-06T10:09:44.999Z</time></trkpt><trkpt lat="43.30321651280287" lon="11.41292891820505"><ele>184.0</ele><time>2026-04-06T10:09:45.999Z</time></trkpt><trkpt lat="43.30332076324753" lon="11.413303378990435"><ele>184.5</ele><time>2026-04-06T10:09:46.999Z</time></trkpt><trkpt lat="43.3034236822776" lon="11.413670922944371"><ele>185.0</ele><time>2026-04-06T10:09:47.999Z</time></trkpt><trkpt lat="43.30352752213202" lon="11.414030467341227"><ele>185.0</ele><time>2026-04-06T10:09:48.999Z</time></trkpt><trkpt lat="43.303632040254634" lon="11.414391740751315"><ele>185.0</ele><time>2026-04-06T10:09:49.999Z</time></trkpt><trkpt lat="43.303733472490116" lon="11.414759288481559"><ele>185.0</ele><time>2026-04-06T10:09:50.999Z</time></trkpt><trkpt lat="43.30383724121641" lon="11.415117957506448"><ele>185.0</ele><time>2026-04-06T10:09:51.999Z</time></trkpt><trkpt lat="43.30394160285887" lon="11.415483648270563"><ele>185.0</ele><time>2026-04-06T10:09:52.999Z</time></trkpt><trkpt lat="43.30404264915578" lon="11.415853989913453"><ele>185.0</ele><time>2026-04-06T10:09:53.999Z</time></trkpt><trkpt lat="43.3041433909053" lon="11.416215578238713"><ele>185.0</ele><time>2026-04-06T10:09:54.999Z</time></trkpt><trkpt lat="43.30424356154437" lon="11.41657701770681"><ele>185.0</ele><time>2026-04-06T10:09:55.999Z</time></trkpt><trkpt lat="43.30434483829261" lon="11.416935473254334"><ele>185.0</ele><time>2026-04-06T10:09:56.999Z</time></trkpt><trkpt lat="43.30444079743917" lon="11.417293638014197"><ele>185.0</ele><time>2026-04-06T10:09:57.999Z</time></trkpt><trkpt lat="43.3045342080655" lon="11.417656411580408"><ele>185.5</ele><time>2026-04-06T10:09:58.998Z</time></trkpt><trkpt lat="43.30461908185494" lon="11.418020950022429"><ele>186.0</ele><time>2026-04-06T10:09:59.998Z</time></trkpt><trkpt lat="43.30470060470843" lon="11.418393624475273"><ele>186.0</ele><time>2026-04-06T10:10:00.998Z</time></trkpt><trkpt lat="43.30476383481976" lon="11.418775368221672"><ele>186.0</ele><time>2026-04-06T10:10:01.998Z</time></trkpt><trkpt lat="43.30481979106886" lon="11.419159444244626"><ele>186.0</ele><time>2026-04-06T10:10:02.998Z</time></trkpt><trkpt lat="43.30486769777282" lon="11.419539742361728"><ele>186.0</ele><time>2026-04-06T10:10:03.998Z</time></trkpt><trkpt lat="43.30491229006796" lon="11.419919549601174"><ele>186.5</ele><time>2026-04-06T10:10:04.998Z</time></trkpt><trkpt lat="43.304942975817085" lon="11.420300097763146"><ele>187.0</ele><time>2026-04-06T10:10:05.998Z</time></trkpt><trkpt lat="43.304971267934384" lon="11.420673760525933"><ele>187.0</ele><time>2026-04-06T10:10:06.998Z</time></trkpt><trkpt lat="43.305001389308806" lon="11.421060771489776"><ele>187.0</ele><time>2026-04-06T10:10:07.998Z</time></trkpt><trkpt lat="43.30503860105034" lon="11.421454776919928"><ele>187.0</ele><time>2026-04-06T10:10:08.998Z</time></trkpt><trkpt lat="43.30506578516951" lon="11.421824459203926"><ele>187.0</ele><time>2026-04-06T10:10:09.998Z</time></trkpt><trkpt lat="43.30510215379322" lon="11.422236714268262"><ele>188.0</ele><time>2026-04-06T10:10:10.998Z</time></trkpt><trkpt lat="43.30513749424828" lon="11.42263252434376"><ele>189.0</ele><time>2026-04-06T10:10:11.998Z</time></trkpt><trkpt lat="43.305164856689885" lon="11.42300222458439"><ele>189.33333333333334</ele><time>2026-04-06T10:10:12.998Z</time></trkpt><trkpt lat="43.30517419534254" lon="11.423300120686662"><ele>189.66666666666669</ele><time>2026-04-06T10:10:13.998Z</time></trkpt><trkpt lat="43.3051801130529" lon="11.423591524555874"><ele>190.0</ele><time>2026-04-06T10:10:14.998Z</time></trkpt><trkpt lat="43.305188172366655" lon="11.423891266240101"><ele>190.5</ele><time>2026-04-06T10:10:15.998Z</time></trkpt><trkpt lat="43.30520258385084" lon="11.424202849951282"><ele>191.0</ele><time>2026-04-06T10:10:16.998Z</time></trkpt><trkpt lat="43.305218871622685" lon="11.424509032499993"><ele>191.0</ele><time>2026-04-06T10:10:17.998Z</time></trkpt><trkpt lat="43.305234643824875" lon="11.424796933621348"><ele>191.0</ele><time>2026-04-06T10:10:18.998Z</time></trkpt><trkpt lat="43.30525212418769" lon="11.425071781234067"><ele>191.0</ele><time>2026-04-06T10:10:19.998Z</time></trkpt><trkpt lat="43.30527020044539" lon="11.42531955099464"><ele>192.33333333333331</ele><time>2026-04-06T10:10:20.998Z</time></trkpt><trkpt lat="43.30527175268667" lon="11.425561609679246"><ele>193.66666666666666</ele><time>2026-04-06T10:10:21.998Z</time></trkpt><trkpt lat="43.30524020675409" lon="11.425780696303224"><ele>195.0</ele><time>2026-04-06T10:10:22.998Z</time></trkpt><trkpt lat="43.3051856773809" lon="11.425972138722283"><ele>195.0</ele><time>2026-04-06T10:10:23.998Z</time></trkpt><trkpt lat="43.30513717181538" lon="11.426148031707802"><ele>195.0</ele><time>2026-04-06T10:10:24.998Z</time></trkpt><trkpt lat="43.305099092308325" lon="11.42633900727701"><ele>195.0</ele><time>2026-04-06T10:10:25.998Z</time></trkpt><trkpt lat="43.305081131087746" lon="11.426548923951422"><ele>195.0</ele><time>2026-04-06T10:10:26.998Z</time></trkpt><trkpt lat="43.30508379361539" lon="11.42675044177134"><ele>196.25</ele><time>2026-04-06T10:10:27.998Z</time></trkpt><trkpt lat="43.305105216964606" lon="11.42695918721027"><ele>197.5</ele><time>2026-04-06T10:10:28.998Z</time></trkpt><trkpt lat="43.30513160593625" lon="11.427159999397633"><ele>198.75</ele><time>2026-04-06T10:10:29.998Z</time></trkpt><trkpt lat="43.30514517852425" lon="11.427353173354005"><ele>200.0</ele><time>2026-04-06T10:10:30.998Z</time></trkpt><trkpt lat="43.305155252774334" lon="11.427539803446287"><ele>200.2</ele><time>2026-04-06T10:10:31.998Z</time></trkpt><trkpt lat="43.30516955834164" lon="11.427718545332171"><ele>200.4</ele><time>2026-04-06T10:10:32.998Z</time></trkpt><trkpt lat="43.305176705838385" lon="11.427866511217099"><ele>200.60000000000002</ele><time>2026-04-06T10:10:33.998Z</time></trkpt><trkpt lat="43.30516162123901" lon="11.427970671440367"><ele>200.8</ele><time>2026-04-06T10:10:34.998Z</time></trkpt><trkpt lat="43.30514900203369" lon="11.428087795170944"><ele>201.0</ele><time>2026-04-06T10:10:38.998Z</time></trkpt><trkpt lat="43.30523354106991" lon="11.428146804633156"><ele>200.60000000000002</ele><time>2026-04-06T10:10:40.998Z</time></trkpt><trkpt lat="43.30531417379916" lon="11.428118896012537"><ele>200.2</ele><time>2026-04-06T10:10:41.998Z</time></trkpt><trkpt lat="43.305388483981844" lon="11.428081580832803"><ele>199.8</ele><time>2026-04-06T10:10:42.998Z</time></trkpt><trkpt lat="43.30548166116951" lon="11.428063063322687"><ele>199.39999999999998</ele><time>2026-04-06T10:10:43.998Z</time></trkpt><trkpt lat="43.305579837322476" lon="11.428044272179314"><ele>199.0</ele><time>2026-04-06T10:10:44.998Z</time></trkpt><trkpt lat="43.305677608644864" lon="11.428018583622148"><ele>198.6</ele><time>2026-04-06T10:10:45.998Z</time></trkpt><trkpt lat="43.30578242407728" lon="11.427993764553058"><ele>198.2</ele><time>2026-04-06T10:10:46.998Z</time></trkpt><trkpt lat="43.305888104008176" lon="11.427959661004268"><ele>197.79999999999998</ele><time>2026-04-06T10:10:47.998Z</time></trkpt><trkpt lat="43.30598655923338" lon="11.427913672370503"><ele>197.39999999999998</ele><time>2026-04-06T10:10:48.998Z</time></trkpt><trkpt lat="43.30607773750239" lon="11.427850570498334"><ele>197.0</ele><time>2026-04-06T10:10:49.998Z</time></trkpt><trkpt lat="43.30616487803827" lon="11.42778782052656"><ele>196.50000000000003</ele><time>2026-04-06T10:10:51Z</time></trkpt><trkpt lat="43.306251130864524" lon="11.42773463838623"><ele>196.0</ele><time>2026-04-06T10:10:52Z</time></trkpt><trkpt lat="43.30633685376948" lon="11.427692350513226"><ele>195.5</ele><time>2026-04-06T10:10:53Z</time></trkpt><trkpt lat="43.306417257763556" lon="11.427655336505154"><ele>195.0</ele><time>2026-04-06T10:10:54Z</time></trkpt><trkpt lat="43.306481681132304" lon="11.427587937369323"><ele>194.50000000000003</ele><time>2026-04-06T10:10:55Z</time></trkpt><trkpt lat="43.306518212178275" lon="11.427491958837477"><ele>194.0</ele><time>2026-04-06T10:10:56Z</time></trkpt><trkpt lat="43.306529011675394" lon="11.427382013853267"><ele>193.25</ele><time>2026-04-06T10:10:57Z</time></trkpt><trkpt lat="43.306486989877875" lon="11.427276873074476"><ele>192.5</ele><time>2026-04-06T10:10:58Z</time></trkpt><trkpt lat="43.30658928137633" lon="11.427138589912339"><ele>191.75</ele><time>2026-04-06T10:10:59Z</time></trkpt><trkpt lat="43.30667931928616" lon="11.427024395225535"><ele>191.0</ele><time>2026-04-06T10:11:00Z</time></trkpt><trkpt lat="43.30677251718081" lon="11.426912257211786"><ele>190.5</ele><time>2026-04-06T10:11:01Z</time></trkpt><trkpt lat="43.306867379358096" lon="11.426788227360573"><ele>190.0</ele><time>2026-04-06T10:11:02Z</time></trkpt><trkpt lat="43.30695972480127" lon="11.4266359223487"><ele>189.5</ele><time>2026-04-06T10:11:03Z</time></trkpt><trkpt lat="43.307055368455764" lon="11.426466877050613"><ele>189.0</ele><time>2026-04-06T10:11:04Z</time></trkpt><trkpt lat="43.30714950912875" lon="11.426296086574963"><ele>189.0</ele><time>2026-04-06T10:11:05Z</time></trkpt><trkpt lat="43.30723798009153" lon="11.42612747551788"><ele>189.0</ele><time>2026-04-06T10:11:06Z</time></trkpt><trkpt lat="43.307327363294704" lon="11.425959694840182"><ele>189.0</ele><time>2026-04-06T10:11:07Z</time></trkpt><trkpt lat="43.307398471088554" lon="11.42578043892561"><ele>189.0</ele><time>2026-04-06T10:11:08Z</time></trkpt><trkpt lat="43.30747517248115" lon="11.42561164753967"><ele>189.0</ele><time>2026-04-06T10:11:09Z</time></trkpt><trkpt lat="43.30755380537572" lon="11.425450121630709"><ele>189.0</ele><time>2026-04-06T10:11:10Z</time></trkpt><trkpt lat="43.30764009339937" lon="11.425283310372215"><ele>189.0</ele><time>2026-04-06T10:11:10.999Z</time></trkpt><trkpt lat="43.30771475381074" lon="11.42511865411432"><ele>189.0</ele><time>2026-04-06T10:11:11.999Z</time></trkpt><trkpt lat="43.30780991039356" lon="11.424975077098289"><ele>189.0</ele><time>2026-04-06T10:11:12.999Z</time></trkpt><trkpt lat="43.30791287670765" lon="11.42483452894592"><ele>189.0</ele><time>2026-04-06T10:11:13.999Z</time></trkpt><trkpt lat="43.308024598612015" lon="11.424703152052023"><ele>189.0</ele><time>2026-04-06T10:11:14.999Z</time></trkpt><trkpt lat="43.30813257363027" lon="11.424580570945372"><ele>190.75</ele><time>2026-04-06T10:11:15.999Z</time></trkpt><trkpt lat="43.3082405510008" lon="11.424462704037442"><ele>192.5</ele><time>2026-04-06T10:11:16.999Z</time></trkpt><trkpt lat="43.30834551018907" lon="11.424347634720487"><ele>194.25</ele><time>2026-04-06T10:11:17.999Z</time></trkpt><trkpt lat="43.3084513714289" lon="11.424238218047625"><ele>196.0</ele><time>2026-04-06T10:11:18.999Z</time></trkpt><trkpt lat="43.30855676352529" lon="11.424132496031444"><ele>196.0</ele><time>2026-04-06T10:11:19.999Z</time></trkpt><trkpt lat="43.30866293745869" lon="11.42402434093155"><ele>196.0</ele><time>2026-04-06T10:11:20.999Z</time></trkpt><trkpt lat="43.308767217543" lon="11.423916093963783"><ele>196.0</ele><time>2026-04-06T10:11:21.999Z</time></trkpt><trkpt lat="43.30887193870004" lon="11.423808390697173"><ele>196.0</ele><time>2026-04-06T10:11:22.999Z</time></trkpt><trkpt lat="43.30897712545932" lon="11.423702972370286"><ele>199.25</ele><time>2026-04-06T10:11:23.999Z</time></trkpt><trkpt lat="43.309081950957115" lon="11.423596384786315"><ele>202.5</ele><time>2026-04-06T10:11:24.999Z</time></trkpt><trkpt lat="43.30918773995392" lon="11.42349297130083"><ele>205.75</ele><time>2026-04-06T10:11:25.999Z</time></trkpt><trkpt lat="43.30928733612333" lon="11.423383597324035"><ele>209.0</ele><time>2026-04-06T10:11:26.999Z</time></trkpt><trkpt lat="43.309391758479656" lon="11.42327843492064"><ele>209.0</ele><time>2026-04-06T10:11:27.999Z</time></trkpt><trkpt lat="43.30949435891092" lon="11.42317231087301"><ele>209.0</ele><time>2026-04-06T10:11:28.999Z</time></trkpt><trkpt lat="43.309593000632326" lon="11.423063400344903"><ele>209.0</ele><time>2026-04-06T10:11:29.999Z</time></trkpt><trkpt lat="43.309686203588825" lon="11.42296236369119"><ele>209.0</ele><time>2026-04-06T10:11:30.999Z</time></trkpt><trkpt lat="43.30980825895835" lon="11.42290665215114"><ele>209.25</ele><time>2026-04-06T10:11:31.999Z</time></trkpt><trkpt lat="43.30992535067244" lon="11.422898789365414"><ele>209.5</ele><time>2026-04-06T10:11:32.999Z</time></trkpt><trkpt lat="43.310041926823644" lon="11.422902900790278"><ele>209.75</ele><time>2026-04-06T10:11:33.999Z</time></trkpt><trkpt lat="43.310126221216485" lon="11.42302922086236"><ele>210.0</ele><time>2026-04-06T10:11:34.999Z</time></trkpt><trkpt lat="43.310220492247176" lon="11.423127171923904"><ele>210.5</ele><time>2026-04-06T10:11:35.999Z</time></trkpt><trkpt lat="43.31032599728804" lon="11.423237941305667"><ele>211.0</ele><time>2026-04-06T10:11:36.999Z</time></trkpt><trkpt lat="43.310423700807085" lon="11.423342765956672"><ele>211.5</ele><time>2026-04-06T10:11:37.999Z</time></trkpt><trkpt lat="43.3105290123138" lon="11.423455753200715"><ele>212.0</ele><time>2026-04-06T10:11:38.999Z</time></trkpt><trkpt lat="43.310633200868914" lon="11.423567535587736"><ele>212.25</ele><time>2026-04-06T10:11:39.999Z</time></trkpt><trkpt lat="43.3107393395104" lon="11.423681263854856"><ele>212.5</ele><time>2026-04-06T10:11:40.999Z</time></trkpt><trkpt lat="43.31085319520268" lon="11.423802626343651"><ele>212.75</ele><time>2026-04-06T10:11:41.999Z</time></trkpt><trkpt lat="43.31097079766391" lon="11.423927982798022"><ele>213.0</ele><time>2026-04-06T10:11:42.999Z</time></trkpt><trkpt lat="43.311083104231955" lon="11.424047694174643"><ele>213.66666666666669</ele><time>2026-04-06T10:11:43.999Z</time></trkpt><trkpt lat="43.31119850461116" lon="11.424172291681575"><ele>214.33333333333334</ele><time>2026-04-06T10:11:44.999Z</time></trkpt><trkpt lat="43.31132628039322" lon="11.424309977780753"><ele>215.0</ele><time>2026-04-06T10:11:45.999Z</time></trkpt><trkpt lat="43.31144509659346" lon="11.424452668797237"><ele>215.66666666666669</ele><time>2026-04-06T10:11:46.999Z</time></trkpt><trkpt lat="43.311562152940255" lon="11.424566343758176"><ele>216.33333333333331</ele><time>2026-04-06T10:11:47.999Z</time></trkpt><trkpt lat="43.31168715238391" lon="11.42471011213551"><ele>217.0</ele><time>2026-04-06T10:11:48.999Z</time></trkpt><trkpt lat="43.311811405746894" lon="11.42484527391538"><ele>217.0</ele><time>2026-04-06T10:11:49.999Z</time></trkpt><trkpt lat="43.31193877346292" lon="11.424967720671155"><ele>217.0</ele><time>2026-04-06T10:11:50.999Z</time></trkpt><trkpt lat="43.31206634909771" lon="11.425100484016728"><ele>217.0</ele><time>2026-04-06T10:11:51.999Z</time></trkpt><trkpt lat="43.31218868678202" lon="11.425238335178843"><ele>217.0</ele><time>2026-04-06T10:11:52.999Z</time></trkpt><trkpt lat="43.312307148496295" lon="11.425364997036532"><ele>217.0</ele><time>2026-04-06T10:11:53.999Z</time></trkpt><trkpt lat="43.31243182663388" lon="11.425505325877035"><ele>217.0</ele><time>2026-04-06T10:11:54.999Z</time></trkpt><trkpt lat="43.31255885492013" lon="11.425647250239095"><ele>217.66666666666666</ele><time>2026-04-06T10:11:55.999Z</time></trkpt><trkpt lat="43.31268401116588" lon="11.425789533431672"><ele>218.33333333333331</ele><time>2026-04-06T10:11:56.999Z</time></trkpt><trkpt lat="43.31281392827234" lon="11.42593688258026"><ele>219.0</ele><time>2026-04-06T10:11:57.999Z</time></trkpt><trkpt lat="43.31294349484334" lon="11.426077802801078"><ele>219.0</ele><time>2026-04-06T10:11:58.999Z</time></trkpt><trkpt lat="43.313073333715444" lon="11.426217454405501"><ele>219.0</ele><time>2026-04-06T10:11:59.999Z</time></trkpt><trkpt lat="43.313202922322716" lon="11.426358559039018"><ele>219.0</ele><time>2026-04-06T10:12:00.999Z</time></trkpt><trkpt lat="43.313332962612144" lon="11.426506380667986"><ele>219.0</ele><time>2026-04-06T10:12:01.999Z</time></trkpt><trkpt lat="43.313455480521945" lon="11.42665340738515"><ele>219.0</ele><time>2026-04-06T10:12:02.999Z</time></trkpt><trkpt lat="43.31358319227828" lon="11.426795910142445"><ele>219.0</ele><time>2026-04-06T10:12:03.999Z</time></trkpt><trkpt lat="43.313709122477675" lon="11.4269316190045"><ele>219.0</ele><time>2026-04-06T10:12:04.998Z</time></trkpt><trkpt lat="43.31383669609296" lon="11.427057464712801"><ele>219.0</ele><time>2026-04-06T10:12:05.998Z</time></trkpt><trkpt lat="43.31394616738679" lon="11.427205542470162"><ele>219.0</ele><time>2026-04-06T10:12:06.998Z</time></trkpt><trkpt lat="43.31407093273695" lon="11.427344260401934"><ele>219.66666666666669</ele><time>2026-04-06T10:12:07.998Z</time></trkpt><trkpt lat="43.31420637328097" lon="11.427466195677448"><ele>220.33333333333334</ele><time>2026-04-06T10:12:08.998Z</time></trkpt><trkpt lat="43.31433596850614" lon="11.427615821441801"><ele>221.0</ele><time>2026-04-06T10:12:09.998Z</time></trkpt><trkpt lat="43.314464081392615" lon="11.427764845996803"><ele>221.0</ele><time>2026-04-06T10:12:10.998Z</time></trkpt><trkpt lat="43.31458844149772" lon="11.427907763164606"><ele>221.0</ele><time>2026-04-06T10:12:11.998Z</time></trkpt><trkpt lat="43.31471547093831" lon="11.428043639449648"><ele>221.0</ele><time>2026-04-06T10:12:12.998Z</time></trkpt><trkpt lat="43.314852604969936" lon="11.428162652272029"><ele>220.66666666666669</ele><time>2026-04-06T10:12:13.998Z</time></trkpt><trkpt lat="43.31500215003374" lon="11.42825850275286"><ele>220.33333333333331</ele><time>2026-04-06T10:12:14.998Z</time></trkpt><trkpt lat="43.315167775489755" lon="11.428329877688379"><ele>220.0</ele><time>2026-04-06T10:12:15.998Z</time></trkpt><trkpt lat="43.315341710669145" lon="11.428380456413418"><ele>220.0</ele><time>2026-04-06T10:12:16.998Z</time></trkpt><trkpt lat="43.31551603609755" lon="11.42842810102381"><ele>220.0</ele><time>2026-04-06T10:12:17.998Z</time></trkpt><trkpt lat="43.31570072898664" lon="11.428475364016602"><ele>220.0</ele><time>2026-04-06T10:12:18.998Z</time></trkpt><trkpt lat="43.31588239804648" lon="11.428518140825318"><ele>220.0</ele><time>2026-04-06T10:12:19.998Z</time></trkpt><trkpt lat="43.3160652681071" lon="11.428565514046124"><ele>220.0</ele><time>2026-04-06T10:12:20.998Z</time></trkpt><trkpt lat="43.316250475496155" lon="11.428613211154083"><ele>220.0</ele><time>2026-04-06T10:12:21.998Z</time></trkpt><trkpt lat="43.31643390068932" lon="11.428657856440067"><ele>220.0</ele><time>2026-04-06T10:12:22.998Z</time></trkpt><trkpt lat="43.31662206652269" lon="11.428701586553192"><ele>220.0</ele><time>2026-04-06T10:12:23.998Z</time></trkpt><trkpt lat="43.31680644119143" lon="11.428746892230373"><ele>220.0</ele><time>2026-04-06T10:12:24.998Z</time></trkpt><trkpt lat="43.31699011828568" lon="11.42879536827008"><ele>219.66666666666666</ele><time>2026-04-06T10:12:25.998Z</time></trkpt><trkpt lat="43.31717180685185" lon="11.428837428450784"><ele>219.33333333333331</ele><time>2026-04-06T10:12:26.998Z</time></trkpt><trkpt lat="43.31735197159507" lon="11.428880835851624"><ele>219.0</ele><time>2026-04-06T10:12:27.998Z</time></trkpt><trkpt lat="43.31753141383608" lon="11.428926509606484"><ele>219.0</ele><time>2026-04-06T10:12:28.998Z</time></trkpt><trkpt lat="43.31771242999728" lon="11.428980596292924"><ele>219.0</ele><time>2026-04-06T10:12:29.998Z</time></trkpt><trkpt lat="43.317894472027916" lon="11.429037519458426"><ele>219.0</ele><time>2026-04-06T10:12:30.998Z</time></trkpt><trkpt lat="43.31808301419354" lon="11.429096491217905"><ele>219.0</ele><time>2026-04-06T10:12:31.998Z</time></trkpt><trkpt lat="43.31826624574212" lon="11.429183506561763"><ele>219.0</ele><time>2026-04-06T10:12:32.998Z</time></trkpt><trkpt lat="43.31845585114132" lon="11.42925005167933"><ele>219.0</ele><time>2026-04-06T10:12:33.998Z</time></trkpt><trkpt lat="43.31864987652745" lon="11.429296533798796"><ele>219.0</ele><time>2026-04-06T10:12:34.998Z</time></trkpt><trkpt lat="43.318841453391094" lon="11.429367031219439"><ele>219.0</ele><time>2026-04-06T10:12:35.998Z</time></trkpt><trkpt lat="43.31903318449803" lon="11.429435333177777"><ele>219.0</ele><time>2026-04-06T10:12:36.998Z</time></trkpt><trkpt lat="43.31922650796019" lon="11.42950138004962"><ele>218.33333333333331</ele><time>2026-04-06T10:12:37.998Z</time></trkpt><trkpt lat="43.319420627794884" lon="11.429569727444077"><ele>217.66666666666666</ele><time>2026-04-06T10:12:38.998Z</time></trkpt><trkpt lat="43.31961592813669" lon="11.429637921527272"><ele>217.0</ele><time>2026-04-06T10:12:39.998Z</time></trkpt><trkpt lat="43.31980996077272" lon="11.429704050855127"><ele>216.33333333333331</ele><time>2026-04-06T10:12:40.998Z</time></trkpt><trkpt lat="43.32000139494382" lon="11.429792705564882"><ele>215.66666666666669</ele><time>2026-04-06T10:12:41.998Z</time></trkpt><trkpt lat="43.32019606857546" lon="11.429860160485472"><ele>215.0</ele><time>2026-04-06T10:12:42.998Z</time></trkpt><trkpt lat="43.32039186500324" lon="11.429928006219622"><ele>216.33333333333334</ele><time>2026-04-06T10:12:43.998Z</time></trkpt><trkpt lat="43.32058530012629" lon="11.429995031948954"><ele>217.66666666666669</ele><time>2026-04-06T10:12:44.998Z</time></trkpt><trkpt lat="43.32078081057492" lon="11.430062776835378"><ele>219.0</ele><time>2026-04-06T10:12:45.998Z</time></trkpt><trkpt lat="43.32097545694988" lon="11.43013017377787"><ele>219.0</ele><time>2026-04-06T10:12:46.998Z</time></trkpt><trkpt lat="43.32116823047439" lon="11.430196903059072"><ele>219.0</ele><time>2026-04-06T10:12:47.998Z</time></trkpt><trkpt lat="43.32136092742063" lon="11.430263090357087"><ele>219.0</ele><time>2026-04-06T10:12:48.998Z</time></trkpt><trkpt lat="43.321550578236355" lon="11.430327934636617"><ele>219.33333333333331</ele><time>2026-04-06T10:12:49.998Z</time></trkpt><trkpt lat="43.321738653034096" lon="11.430392240027548"><ele>219.66666666666666</ele><time>2026-04-06T10:12:50.998Z</time></trkpt><trkpt lat="43.32191731877836" lon="11.430453328311017"><ele>220.0</ele><time>2026-04-06T10:12:51.998Z</time></trkpt><trkpt lat="43.322086418519504" lon="11.43051157293104"><ele>221.33333333333331</ele><time>2026-04-06T10:12:52.998Z</time></trkpt><trkpt lat="43.32225158371784" lon="11.43057004755049"><ele>222.66666666666669</ele><time>2026-04-06T10:12:53.998Z</time></trkpt><trkpt lat="43.32241516083415" lon="11.430629344293664"><ele>224.0</ele><time>2026-04-06T10:12:54.998Z</time></trkpt><trkpt lat="43.3225791323294" lon="11.430689527725072"><ele>224.0</ele><time>2026-04-06T10:12:56Z</time></trkpt><trkpt lat="43.322740875244456" lon="11.430751555138984"><ele>224.0</ele><time>2026-04-06T10:12:57Z</time></trkpt><trkpt lat="43.32289972464617" lon="11.430817452568332"><ele>224.0</ele><time>2026-04-06T10:12:58Z</time></trkpt><trkpt lat="43.323059457775926" lon="11.430885316461989"><ele>227.66666666666669</ele><time>2026-04-06T10:12:59Z</time></trkpt><trkpt lat="43.32321620769405" lon="11.430952176571424"><ele>231.33333333333331</ele><time>2026-04-06T10:13:00Z</time></trkpt><trkpt lat="43.32337634237437" lon="11.431020631788591"><ele>235.0</ele><time>2026-04-06T10:13:01Z</time></trkpt><trkpt lat="43.32353270823422" lon="11.431087475915174"><ele>235.0</ele><time>2026-04-06T10:13:02Z</time></trkpt><trkpt lat="43.32368953596865" lon="11.431154517460127"><ele>235.0</ele><time>2026-04-06T10:13:03Z</time></trkpt><trkpt lat="43.323836293347696" lon="11.431217460199832"><ele>235.0</ele><time>2026-04-06T10:13:04Z</time></trkpt><trkpt lat="43.32398071714901" lon="11.43125911884276"><ele>236.75</ele><time>2026-04-06T10:13:05Z</time></trkpt><trkpt lat="43.324108014219114" lon="11.43131151441906"><ele>238.5</ele><time>2026-04-06T10:13:06Z</time></trkpt><trkpt lat="43.324237980415624" lon="11.431354028592903"><ele>240.25</ele><time>2026-04-06T10:13:07Z</time></trkpt><trkpt lat="43.32437470663971" lon="11.43137827721096"><ele>242.0</ele><time>2026-04-06T10:13:08Z</time></trkpt><trkpt lat="43.32452709471083" lon="11.43137930248041"><ele>242.0</ele><time>2026-04-06T10:13:09Z</time></trkpt><trkpt lat="43.32468325075641" lon="11.431371086876498"><ele>242.0</ele><time>2026-04-06T10:13:10Z</time></trkpt><trkpt lat="43.32484316461523" lon="11.431353641865709"><ele>242.0</ele><time>2026-04-06T10:13:11Z</time></trkpt><trkpt lat="43.32500636647409" lon="11.431338323973474"><ele>243.33333333333334</ele><time>2026-04-06T10:13:12Z</time></trkpt><trkpt lat="43.32517018579879" lon="11.431322037030762"><ele>244.66666666666669</ele><time>2026-04-06T10:13:13Z</time></trkpt><trkpt lat="43.3253310758405" lon="11.43130726227589"><ele>246.0</ele><time>2026-04-06T10:13:14Z</time></trkpt><trkpt lat="43.32548941533565" lon="11.431298092067703"><ele>246.5</ele><time>2026-04-06T10:13:15Z</time></trkpt><trkpt lat="43.325638201850374" lon="11.43128991704535"><ele>247.0</ele><time>2026-04-06T10:13:15.999Z</time></trkpt><trkpt lat="43.325775876707645" lon="11.43128761613826"><ele>247.5</ele><time>2026-04-06T10:13:16.999Z</time></trkpt><trkpt lat="43.32590277017384" lon="11.431300434383589"><ele>248.0</ele><time>2026-04-06T10:13:17.999Z</time></trkpt><trkpt lat="43.3260278862135" lon="11.431356944279083"><ele>248.0</ele><time>2026-04-06T10:13:18.999Z</time></trkpt><trkpt lat="43.32615617229544" lon="11.43140117653679"><ele>248.0</ele><time>2026-04-06T10:13:19.999Z</time></trkpt><trkpt lat="43.3262821587602" lon="11.43144248714801"><ele>248.0</ele><time>2026-04-06T10:13:20.999Z</time></trkpt><trkpt lat="43.32639696034848" lon="11.431481382352407"><ele>248.0</ele><time>2026-04-06T10:13:21.999Z</time></trkpt><trkpt lat="43.32650269408321" lon="11.431516725826123"><ele>248.5</ele><time>2026-04-06T10:13:22.999Z</time></trkpt><trkpt lat="43.32660779895803" lon="11.431550926968852"><ele>249.0</ele><time>2026-04-06T10:13:23.999Z</time></trkpt><trkpt lat="43.3267136361507" lon="11.431585627831243"><ele>249.5</ele><time>2026-04-06T10:13:24.999Z</time></trkpt><trkpt lat="43.32682584379071" lon="11.431622695534246"><ele>250.0</ele><time>2026-04-06T10:13:25.999Z</time></trkpt><trkpt lat="43.32695549711852" lon="11.431611255643237"><ele>250.0</ele><time>2026-04-06T10:13:26.999Z</time></trkpt><trkpt lat="43.32708424171256" lon="11.431650827462969"><ele>250.0</ele><time>2026-04-06T10:13:27.999Z</time></trkpt><trkpt lat="43.32722091453394" lon="11.43169492118268"><ele>250.0</ele><time>2026-04-06T10:13:28.999Z</time></trkpt><trkpt lat="43.327357197541296" lon="11.431749701185943"><ele>250.0</ele><time>2026-04-06T10:13:29.999Z</time></trkpt><trkpt lat="43.3274928432595" lon="11.431842624221419"><ele>251.25</ele><time>2026-04-06T10:13:30.999Z</time></trkpt><trkpt lat="43.32762823790282" lon="11.431887560234056"><ele>252.5</ele><time>2026-04-06T10:13:31.999Z</time></trkpt><trkpt lat="43.32775986143281" lon="11.431932959978642"><ele>253.75</ele><time>2026-04-06T10:13:32.999Z</time></trkpt><trkpt lat="43.32788193451029" lon="11.431975065615944"><ele>255.0</ele><time>2026-04-06T10:13:33.999Z</time></trkpt><trkpt lat="43.3279951163467" lon="11.432014428380857"><ele>255.0</ele><time>2026-04-06T10:13:34.999Z</time></trkpt><trkpt lat="43.32809791424409" lon="11.432050789749981"><ele>255.0</ele><time>2026-04-06T10:13:35.999Z</time></trkpt><trkpt lat="43.32819018885485" lon="11.432084286485845"><ele>255.0</ele><time>2026-04-06T10:13:36.999Z</time></trkpt><trkpt lat="43.328283436597225" lon="11.432118495877305"><ele>255.0</ele><time>2026-04-06T10:13:37.999Z</time></trkpt><trkpt lat="43.32837882918938" lon="11.432153492146723"><ele>255.0</ele><time>2026-04-06T10:13:38.999Z</time></trkpt><trkpt lat="43.328484268363056" lon="11.432192173695297"><ele>255.0</ele><time>2026-04-06T10:13:39.999Z</time></trkpt><trkpt lat="43.3286036656318" lon="11.432237446979991"><ele>255.0</ele><time>2026-04-06T10:13:40.999Z</time></trkpt><trkpt lat="43.32872277523388" lon="11.432282233693213"><ele>255.0</ele><time>2026-04-06T10:13:41.999Z</time></trkpt><trkpt lat="43.328846363523695" lon="11.432329363339072"><ele>255.0</ele><time>2026-04-06T10:13:42.999Z</time></trkpt><trkpt lat="43.32897140662622" lon="11.432377379645937"><ele>255.5</ele><time>2026-04-06T10:13:43.999Z</time></trkpt><trkpt lat="43.32909589333096" lon="11.432425182276095"><ele>256.0</ele><time>2026-04-06T10:13:44.999Z</time></trkpt><trkpt lat="43.32921250492868" lon="11.432475076437479"><ele>256.5</ele><time>2026-04-06T10:13:45.999Z</time></trkpt><trkpt lat="43.32931662678444" lon="11.432522126692275"><ele>257.0</ele><time>2026-04-06T10:13:46.999Z</time></trkpt><trkpt lat="43.32941544052271" lon="11.43255816973663"><ele>257.0</ele><time>2026-04-06T10:13:47.999Z</time></trkpt><trkpt lat="43.32950909686404" lon="11.432575546284504"><ele>257.0</ele><time>2026-04-06T10:13:48.999Z</time></trkpt><trkpt lat="43.32961415364291" lon="11.432589540393232"><ele>257.0</ele><time>2026-04-06T10:13:49.999Z</time></trkpt><trkpt lat="43.329735542629486" lon="11.432602894257426"><ele>257.0</ele><time>2026-04-06T10:13:50.999Z</time></trkpt><trkpt lat="43.32987946398831" lon="11.43261409507298"><ele>256.0</ele><time>2026-04-06T10:13:51.999Z</time></trkpt><trkpt lat="43.33000408562897" lon="11.432634719052908"><ele>255.0</ele><time>2026-04-06T10:13:52.999Z</time></trkpt><trkpt lat="43.330146624722566" lon="11.43265526723722"><ele>254.0</ele><time>2026-04-06T10:13:53.999Z</time></trkpt><trkpt lat="43.33029671074769" lon="11.432662317624825"><ele>253.0</ele><time>2026-04-06T10:13:54.999Z</time></trkpt><trkpt lat="43.33046070559965" lon="11.432671101699986"><ele>252.33333333333331</ele><time>2026-04-06T10:13:55.999Z</time></trkpt><trkpt lat="43.33063850730287" lon="11.432669547639835"><ele>251.66666666666669</ele><time>2026-04-06T10:13:56.999Z</time></trkpt><trkpt lat="43.330814328495116" lon="11.432692307415525"><ele>251.0</ele><time>2026-04-06T10:13:57.999Z</time></trkpt><trkpt lat="43.330991531784484" lon="11.432709323478166"><ele>251.0</ele><time>2026-04-06T10:13:58.999Z</time></trkpt><trkpt lat="43.33117217958275" lon="11.43272423676586"><ele>251.0</ele><time>2026-04-06T10:13:59.999Z</time></trkpt><trkpt lat="43.33135780376084" lon="11.432738205520605"><ele>251.0</ele><time>2026-04-06T10:14:00.999Z</time></trkpt><trkpt lat="43.33154471523977" lon="11.432749716503233"><ele>250.66666666666669</ele><time>2026-04-06T10:14:01.999Z</time></trkpt><trkpt lat="43.33173118478272" lon="11.432761400535764"><ele>250.33333333333331</ele><time>2026-04-06T10:14:02.999Z</time></trkpt><trkpt lat="43.33191422041408" lon="11.432770796510807"><ele>250.0</ele><time>2026-04-06T10:14:03.999Z</time></trkpt><trkpt lat="43.332102821317676" lon="11.432780635802981"><ele>250.0</ele><time>2026-04-06T10:14:04.999Z</time></trkpt><trkpt lat="43.33228685693315" lon="11.432791633188858"><ele>250.0</ele><time>2026-04-06T10:14:05.999Z</time></trkpt><trkpt lat="43.33245963944977" lon="11.43281867293075"><ele>250.0</ele><time>2026-04-06T10:14:06.999Z</time></trkpt><trkpt lat="43.33261906541451" lon="11.43285908514324"><ele>250.0</ele><time>2026-04-06T10:14:07.998Z</time></trkpt><trkpt lat="43.33276933153921" lon="11.432912470664814"><ele>250.0</ele><time>2026-04-06T10:14:08.998Z</time></trkpt><trkpt lat="43.33290509958382" lon="11.43299137324154"><ele>250.0</ele><time>2026-04-06T10:14:09.998Z</time></trkpt><trkpt lat="43.33305037528447" lon="11.433071594117974"><ele>250.0</ele><time>2026-04-06T10:14:10.998Z</time></trkpt><trkpt lat="43.33318189143299" lon="11.43317624221385"><ele>250.0</ele><time>2026-04-06T10:14:11.998Z</time></trkpt><trkpt lat="43.333325256862004" lon="11.433249178558746"><ele>250.0</ele><time>2026-04-06T10:14:12.998Z</time></trkpt><trkpt lat="43.33348522873448" lon="11.433274909698072"><ele>250.0</ele><time>2026-04-06T10:14:13.998Z</time></trkpt><trkpt lat="43.33364759578993" lon="11.433214507312396"><ele>250.0</ele><time>2026-04-06T10:14:14.998Z</time></trkpt><trkpt lat="43.3337853522368" lon="11.433135755987733"><ele>250.0</ele><time>2026-04-06T10:14:15.998Z</time></trkpt><trkpt lat="43.33392580165611" lon="11.4330515979923"><ele>250.33333333333331</ele><time>2026-04-06T10:14:16.998Z</time></trkpt><trkpt lat="43.334083613562704" lon="11.43296662002434"><ele>250.66666666666669</ele><time>2026-04-06T10:14:17.998Z</time></trkpt><trkpt lat="43.33425898253638" lon="11.432871615773173"><ele>251.0</ele><time>2026-04-06T10:14:18.998Z</time></trkpt><trkpt lat="43.334437952617925" lon="11.432778491883127"><ele>251.0</ele><time>2026-04-06T10:14:19.998Z</time></trkpt><trkpt lat="43.334617718468316" lon="11.432687397938558"><ele>251.0</ele><time>2026-04-06T10:14:20.998Z</time></trkpt><trkpt lat="43.334800033418965" lon="11.432587321158767"><ele>251.0</ele><time>2026-04-06T10:14:21.998Z</time></trkpt><trkpt lat="43.33498259902743" lon="11.43248413092151"><ele>251.33333333333334</ele><time>2026-04-06T10:14:22.998Z</time></trkpt><trkpt lat="43.33516691299433" lon="11.432379236167106"><ele>251.66666666666669</ele><time>2026-04-06T10:14:23.998Z</time></trkpt><trkpt lat="43.33535201502931" lon="11.432274251270458"><ele>252.0</ele><time>2026-04-06T10:14:24.998Z</time></trkpt><trkpt lat="43.3355389766391" lon="11.432169422630743"><ele>253.33333333333331</ele><time>2026-04-06T10:14:25.998Z</time></trkpt><trkpt lat="43.335723155826194" lon="11.43206485044194"><ele>254.66666666666666</ele><time>2026-04-06T10:14:26.998Z</time></trkpt><trkpt lat="43.33590815431633" lon="11.431962181446263"><ele>256.0</ele><time>2026-04-06T10:14:27.998Z</time></trkpt><trkpt lat="43.33609495668522" lon="11.431856061313102"><ele>256.0</ele><time>2026-04-06T10:14:28.998Z</time></trkpt><trkpt lat="43.336285570842605" lon="11.43174959526564"><ele>256.0</ele><time>2026-04-06T10:14:29.998Z</time></trkpt><trkpt lat="43.33648105079132" lon="11.431648074050251"><ele>256.0</ele><time>2026-04-06T10:14:30.998Z</time></trkpt><trkpt lat="43.33667725553261" lon="11.431545059483838"><ele>254.66666666666666</ele><time>2026-04-06T10:14:31.998Z</time></trkpt><trkpt lat="43.3368787461072" lon="11.431448080338239"><ele>253.33333333333331</ele><time>2026-04-06T10:14:32.998Z</time></trkpt><trkpt lat="43.33709062988168" lon="11.431384553109108"><ele>252.0</ele><time>2026-04-06T10:14:33.998Z</time></trkpt><trkpt lat="43.33730597588018" lon="11.431403808471872"><ele>250.66666666666669</ele><time>2026-04-06T10:14:34.998Z</time></trkpt><trkpt lat="43.33751951818432" lon="11.431387163421373"><ele>249.33333333333334</ele><time>2026-04-06T10:14:35.998Z</time></trkpt><trkpt lat="43.33772252454456" lon="11.431390692726907"><ele>248.0</ele><time>2026-04-06T10:14:36.998Z</time></trkpt><trkpt lat="43.33792092466035" lon="11.431415213777978"><ele>248.66666666666669</ele><time>2026-04-06T10:14:37.998Z</time></trkpt><trkpt lat="43.33811442716808" lon="11.431425241830373"><ele>249.33333333333331</ele><time>2026-04-06T10:14:38.998Z</time></trkpt><trkpt lat="43.33830534123593" lon="11.431446191647378"><ele>250.0</ele><time>2026-04-06T10:14:39.998Z</time></trkpt><trkpt lat="43.3384599961361" lon="11.43157374804516"><ele>250.0</ele><time>2026-04-06T10:14:40.998Z</time></trkpt><trkpt lat="43.338614929009026" lon="11.431724351236765"><ele>250.0</ele><time>2026-04-06T10:14:41.998Z</time></trkpt><trkpt lat="43.33877144145436" lon="11.431900841835047"><ele>250.0</ele><time>2026-04-06T10:14:42.998Z</time></trkpt><trkpt lat="43.3389309395964" lon="11.4320871123571"><ele>250.0</ele><time>2026-04-06T10:14:43.998Z</time></trkpt><trkpt lat="43.33908586534453" lon="11.432270332697865"><ele>250.0</ele><time>2026-04-06T10:14:44.998Z</time></trkpt><trkpt lat="43.33923543136549" lon="11.432463852312564"><ele>250.0</ele><time>2026-04-06T10:14:45.998Z</time></trkpt><trkpt lat="43.33937794609337" lon="11.43269491456602"><ele>250.0</ele><time>2026-04-06T10:14:46.998Z</time></trkpt><trkpt lat="43.339505406545776" lon="11.432953221849798"><ele>250.0</ele><time>2026-04-06T10:14:47.998Z</time></trkpt><trkpt lat="43.3396210251019" lon="11.43322545015968"><ele>249.5</ele><time>2026-04-06T10:14:48.998Z</time></trkpt><trkpt lat="43.33973472720453" lon="11.433496508718836"><ele>249.0</ele><time>2026-04-06T10:14:49.998Z</time></trkpt><trkpt lat="43.339849441989855" lon="11.433769981209162"><ele>249.0</ele><time>2026-04-06T10:14:50.998Z</time></trkpt><trkpt lat="43.33995685830468" lon="11.434023953854394"><ele>249.0</ele><time>2026-04-06T10:14:51.998Z</time></trkpt><trkpt lat="43.34007530511894" lon="11.434275083514693"><ele>249.0</ele><time>2026-04-06T10:14:52.998Z</time></trkpt><trkpt lat="43.340199472936554" lon="11.434475776248732"><ele>249.0</ele><time>2026-04-06T10:14:53.998Z</time></trkpt><trkpt lat="43.340331421504764" lon="11.434596914801523"><ele>249.0</ele><time>2026-04-06T10:14:54.998Z</time></trkpt><trkpt lat="43.340467333647815" lon="11.434682076200081"><ele>249.0</ele><time>2026-04-06T10:14:55.998Z</time></trkpt><trkpt lat="43.340618746656105" lon="11.434726279971432"><ele>248.25</ele><time>2026-04-06T10:14:56.998Z</time></trkpt><trkpt lat="43.3407388210211" lon="11.43471289691588"><ele>247.5</ele><time>2026-04-06T10:14:57.998Z</time></trkpt><trkpt lat="43.340848161413824" lon="11.434674907413887"><ele>246.75</ele><time>2026-04-06T10:14:58.998Z</time></trkpt><trkpt lat="43.34097279579237" lon="11.434633637418536"><ele>246.0</ele><time>2026-04-06T10:14:59.998Z</time></trkpt><trkpt lat="43.34111113293009" lon="11.434597622803544"><ele>246.0</ele><time>2026-04-06T10:15:01Z</time></trkpt><trkpt lat="43.341370971140755" lon="11.434500259660906"><ele>246.0</ele><time>2026-04-06T10:15:02Z</time></trkpt><trkpt lat="43.341609337885245" lon="11.434420316998741"><ele>246.0</ele><time>2026-04-06T10:15:03Z</time></trkpt><trkpt lat="43.3418538524309" lon="11.434338380155577"><ele>246.0</ele><time>2026-04-06T10:15:04Z</time></trkpt><trkpt lat="43.34210375732949" lon="11.434254636178522"><ele>246.5</ele><time>2026-04-06T10:15:05Z</time></trkpt><trkpt lat="43.342353812287094" lon="11.434170277215454"><ele>247.0</ele><time>2026-04-06T10:15:06Z</time></trkpt><trkpt lat="43.34261629157549" lon="11.434081826851196"><ele>247.0</ele><time>2026-04-06T10:15:07Z</time></trkpt><trkpt lat="43.342861246298696" lon="11.434002072436758"><ele>247.0</ele><time>2026-04-06T10:15:08Z</time></trkpt><trkpt lat="43.34306564066987" lon="11.433964760948998"><ele>248.66666666666666</ele><time>2026-04-06T10:15:09Z</time></trkpt><trkpt lat="43.34327140861758" lon="11.434007125215068"><ele>250.33333333333331</ele><time>2026-04-06T10:15:10Z</time></trkpt><trkpt lat="43.34347751792764" lon="11.434160583161542"><ele>252.0</ele><time>2026-04-06T10:15:11Z</time></trkpt><trkpt lat="43.343592854710835" lon="11.43434047051693"><ele>252.0</ele><time>2026-04-06T10:15:12Z</time></trkpt><trkpt lat="43.343730603213295" lon="11.434545584415083"><ele>252.0</ele><time>2026-04-06T10:15:13Z</time></trkpt><trkpt lat="43.343852436083935" lon="11.434726212328213"><ele>252.0</ele><time>2026-04-06T10:15:14Z</time></trkpt><trkpt lat="43.34399406173937" lon="11.43492529073544"><ele>253.5</ele><time>2026-04-06T10:15:15Z</time></trkpt><trkpt lat="43.34410001284999" lon="11.435058106072171"><ele>255.0</ele><time>2026-04-06T10:15:16Z</time></trkpt><trkpt lat="43.34418693392293" lon="11.43515646877841"><ele>256.5</ele><time>2026-04-06T10:15:17Z</time></trkpt><trkpt lat="43.344267361899576" lon="11.435242257761383"><ele>258.0</ele><time>2026-04-06T10:15:18Z</time></trkpt><trkpt lat="43.34435468191654" lon="11.43533313437569"><ele>258.0</ele><time>2026-04-06T10:15:19Z</time></trkpt><trkpt lat="43.34444714929326" lon="11.435424460877792"><ele>258.0</ele><time>2026-04-06T10:15:20Z</time></trkpt><trkpt lat="43.3445462914033" lon="11.435514332297616"><ele>258.0</ele><time>2026-04-06T10:15:21Z</time></trkpt><trkpt lat="43.34467321352996" lon="11.435581653255495"><ele>258.0</ele><time>2026-04-06T10:15:22Z</time></trkpt><trkpt lat="43.34477837879167" lon="11.43564710517692"><ele>258.75</ele><time>2026-04-06T10:15:22.999Z</time></trkpt><trkpt lat="43.34491657491294" lon="11.435649259861563"><ele>259.5</ele><time>2026-04-06T10:15:23.999Z</time></trkpt><trkpt lat="43.34506524793206" lon="11.435649139587408"><ele>260.25</ele><time>2026-04-06T10:15:24.999Z</time></trkpt><trkpt lat="43.345199651860376" lon="11.435633595747115"><ele>261.0</ele><time>2026-04-06T10:15:25.999Z</time></trkpt><trkpt lat="43.34532728348614" lon="11.435620586683699"><ele>261.0</ele><time>2026-04-06T10:15:26.999Z</time></trkpt><trkpt lat="43.345480085884525" lon="11.435631929584572"><ele>261.0</ele><time>2026-04-06T10:15:27.999Z</time></trkpt><trkpt lat="43.34561963058187" lon="11.435645656841999"><ele>261.0</ele><time>2026-04-06T10:15:28.999Z</time></trkpt><trkpt lat="43.345740536917376" lon="11.435658611332896"><ele>261.0</ele><time>2026-04-06T10:15:29.999Z</time></trkpt><trkpt lat="43.34587464056597" lon="11.435730001439543"><ele>262.25</ele><time>2026-04-06T10:15:30.999Z</time></trkpt><trkpt lat="43.34597766411139" lon="11.435827820065727"><ele>263.5</ele><time>2026-04-06T10:15:31.999Z</time></trkpt><trkpt lat="43.34608296846568" lon="11.435922289056085"><ele>264.75</ele><time>2026-04-06T10:15:32.999Z</time></trkpt><trkpt lat="43.346189807611495" lon="11.436015080951996"><ele>266.0</ele><time>2026-04-06T10:15:33.999Z</time></trkpt><trkpt lat="43.34627213627739" lon="11.436086521904855"><ele>266.0</ele><time>2026-04-06T10:15:34.999Z</time></trkpt><trkpt lat="43.34634694117611" lon="11.43615098827224"><ele>266.0</ele><time>2026-04-06T10:15:35.999Z</time></trkpt><trkpt lat="43.3464094730347" lon="11.436204707099135"><ele>266.0</ele><time>2026-04-06T10:15:36.999Z</time></trkpt><trkpt lat="43.34651206284942" lon="11.436272096533811"><ele>266.0</ele><time>2026-04-06T10:15:37.999Z</time></trkpt><trkpt lat="43.34659487968401" lon="11.43636226102047"><ele>266.0</ele><time>2026-04-06T10:15:38.999Z</time></trkpt><trkpt lat="43.34668413861298" lon="11.436486570150933"><ele>265.5</ele><time>2026-04-06T10:15:39.999Z</time></trkpt><trkpt lat="43.34676648757186" lon="11.436613301215456"><ele>265.0</ele><time>2026-04-06T10:15:40.999Z</time></trkpt><trkpt lat="43.34683278759485" lon="11.436751238396306"><ele>264.5</ele><time>2026-04-06T10:15:41.999Z</time></trkpt><trkpt lat="43.34692414743108" lon="11.436876154666722"><ele>264.0</ele><time>2026-04-06T10:15:42.999Z</time></trkpt><trkpt lat="43.346997744142435" lon="11.437019142698713"><ele>263.5</ele><time>2026-04-06T10:15:43.999Z</time></trkpt><trkpt lat="43.34707442181753" lon="11.437156672133986"><ele>263.0</ele><time>2026-04-06T10:15:44.999Z</time></trkpt><trkpt lat="43.34715238399763" lon="11.43729056251581"><ele>262.5</ele><time>2026-04-06T10:15:45.999Z</time></trkpt><trkpt lat="43.347223252176114" lon="11.437415674260137"><ele>262.0</ele><time>2026-04-06T10:15:46.999Z</time></trkpt><trkpt lat="43.3473115934554" lon="11.437553206590946"><ele>261.25</ele><time>2026-04-06T10:15:47.999Z</time></trkpt><trkpt lat="43.347372763159896" lon="11.437698643749874"><ele>260.5</ele><time>2026-04-06T10:15:48.999Z</time></trkpt><trkpt lat="43.34744342107227" lon="11.43783302703244"><ele>259.75</ele><time>2026-04-06T10:15:49.999Z</time></trkpt><trkpt lat="43.34751036738965" lon="11.437957988637558"><ele>259.0</ele><time>2026-04-06T10:15:50.999Z</time></trkpt><trkpt lat="43.34755204456737" lon="11.438076164769013"><ele>259.0</ele><time>2026-04-06T10:15:51.999Z</time></trkpt><trkpt lat="43.347610396372964" lon="11.438173042256707"><ele>259.0</ele><time>2026-04-06T10:15:52.999Z</time></trkpt><trkpt lat="43.34767230277497" lon="11.438246613431314"><ele>259.0</ele><time>2026-04-06T10:15:53.999Z</time></trkpt><trkpt lat="43.347736184922766" lon="11.438304194402377"><ele>259.0</ele><time>2026-04-06T10:15:54.999Z</time></trkpt><trkpt lat="43.34780153837767" lon="11.438394233621821"><ele>259.0</ele><time>2026-04-06T10:15:55.999Z</time></trkpt><trkpt lat="43.347875346788165" lon="11.43848157304355"><ele>259.0</ele><time>2026-04-06T10:15:56.999Z</time></trkpt><trkpt lat="43.34797036897443" lon="11.438544197374815"><ele>258.0</ele><time>2026-04-06T10:15:57.999Z</time></trkpt><trkpt lat="43.348088762250946" lon="11.438557500083474"><ele>257.0</ele><time>2026-04-06T10:15:58.999Z</time></trkpt><trkpt lat="43.34821930964261" lon="11.438576010238629"><ele>256.0</ele><time>2026-04-06T10:15:59.999Z</time></trkpt><trkpt lat="43.34834834281279" lon="11.438587385538526"><ele>255.0</ele><time>2026-04-06T10:16:00.999Z</time></trkpt><trkpt lat="43.34849371570571" lon="11.438615092432324"><ele>255.0</ele><time>2026-04-06T10:16:01.999Z</time></trkpt><trkpt lat="43.348646630327934" lon="11.438648080871475"><ele>255.0</ele><time>2026-04-06T10:16:02.999Z</time></trkpt><trkpt lat="43.34879633798919" lon="11.438665367947038"><ele>255.0</ele><time>2026-04-06T10:16:03.999Z</time></trkpt><trkpt lat="43.348952227928" lon="11.43868511375261"><ele>255.0</ele><time>2026-04-06T10:16:04.999Z</time></trkpt><trkpt lat="43.34910403630879" lon="11.438712136817255"><ele>255.0</ele><time>2026-04-06T10:16:05.999Z</time></trkpt><trkpt lat="43.349245582259776" lon="11.438751650360487"><ele>255.0</ele><time>2026-04-06T10:16:06.999Z</time></trkpt><trkpt lat="43.349388868093854" lon="11.438836034508803"><ele>253.66666666666669</ele><time>2026-04-06T10:16:07.999Z</time></trkpt><trkpt lat="43.34950485951764" lon="11.43894997856126"><ele>252.33333333333334</ele><time>2026-04-06T10:16:08.999Z</time></trkpt><trkpt lat="43.34961124863973" lon="11.439107289478105"><ele>251.0</ele><time>2026-04-06T10:16:09.999Z</time></trkpt><trkpt lat="43.34968930707126" lon="11.43928561933588"><ele>250.75</ele><time>2026-04-06T10:16:10.999Z</time></trkpt><trkpt lat="43.34976641756553" lon="11.43945717527472"><ele>250.5</ele><time>2026-04-06T10:16:11.999Z</time></trkpt><trkpt lat="43.349857160659916" lon="11.439618383049991"><ele>250.25</ele><time>2026-04-06T10:16:12.999Z</time></trkpt><trkpt lat="43.34996005852342" lon="11.439759677653726"><ele>250.0</ele><time>2026-04-06T10:16:13.999Z</time></trkpt><trkpt lat="43.350083851620155" lon="11.439902894562199"><ele>249.5</ele><time>2026-04-06T10:16:14.999Z</time></trkpt><trkpt lat="43.35020908025447" lon="11.440020914647656"><ele>249.0</ele><time>2026-04-06T10:16:15.999Z</time></trkpt><trkpt lat="43.35033135727065" lon="11.440122150846166"><ele>248.5</ele><time>2026-04-06T10:16:16.998Z</time></trkpt><trkpt lat="43.350458160270804" lon="11.440187829869314"><ele>248.0</ele><time>2026-04-06T10:16:17.998Z</time></trkpt><trkpt lat="43.35056802898045" lon="11.440211306912682"><ele>248.0</ele><time>2026-04-06T10:16:18.998Z</time></trkpt><trkpt lat="43.35068907346053" lon="11.440206793080545"><ele>248.0</ele><time>2026-04-06T10:16:19.998Z</time></trkpt><trkpt lat="43.35080890699173" lon="11.440188476311699"><ele>248.0</ele><time>2026-04-06T10:16:20.998Z</time></trkpt><trkpt lat="43.350930139669515" lon="11.440146502888942"><ele>248.0</ele><time>2026-04-06T10:16:21.998Z</time></trkpt><trkpt lat="43.35103547743446" lon="11.440083633573193"><ele>248.0</ele><time>2026-04-06T10:16:22.998Z</time></trkpt><trkpt lat="43.3511406123941" lon="11.440002390961308"><ele>248.0</ele><time>2026-04-06T10:16:23.998Z</time></trkpt><trkpt lat="43.351245444055024" lon="11.43991954940862"><ele>248.0</ele><time>2026-04-06T10:16:24.998Z</time></trkpt><trkpt lat="43.3513633088257" lon="11.439826087000013"><ele>248.0</ele><time>2026-04-06T10:16:25.998Z</time></trkpt><trkpt lat="43.35148470548407" lon="11.439731108405432"><ele>248.75</ele><time>2026-04-06T10:16:26.998Z</time></trkpt><trkpt lat="43.35161135866092" lon="11.439626776683655"><ele>249.5</ele><time>2026-04-06T10:16:27.998Z</time></trkpt><trkpt lat="43.351746366366" lon="11.439545713009974"><ele>250.25</ele><time>2026-04-06T10:16:28.998Z</time></trkpt><trkpt lat="43.35188537567036" lon="11.439476406345005"><ele>251.0</ele><time>2026-04-06T10:16:29.998Z</time></trkpt><trkpt lat="43.3520267120121" lon="11.439428759025732"><ele>251.0</ele><time>2026-04-06T10:16:30.998Z</time></trkpt><trkpt lat="43.352165713569576" lon="11.439399414754694"><ele>251.0</ele><time>2026-04-06T10:16:31.998Z</time></trkpt><trkpt lat="43.35229383923341" lon="11.439356370286193"><ele>251.0</ele><time>2026-04-06T10:16:32.998Z</time></trkpt><trkpt lat="43.352401199641626" lon="11.439264225084955"><ele>251.0</ele><time>2026-04-06T10:16:33.998Z</time></trkpt><trkpt lat="43.35248552177027" lon="11.439145475591912"><ele>252.75</ele><time>2026-04-06T10:16:34.998Z</time></trkpt><trkpt lat="43.35257134664833" lon="11.439033916681957"><ele>254.5</ele><time>2026-04-06T10:16:35.998Z</time></trkpt><trkpt lat="43.35266022170079" lon="11.43892888746294"><ele>256.25</ele><time>2026-04-06T10:16:36.998Z</time></trkpt><trkpt lat="43.352752468149674" lon="11.438837200217433"><ele>258.0</ele><time>2026-04-06T10:16:37.998Z</time></trkpt><trkpt lat="43.35284541541852" lon="11.438751062314786"><ele>258.0</ele><time>2026-04-06T10:16:38.998Z</time></trkpt><trkpt lat="43.352934754622815" lon="11.438670630776674"><ele>258.0</ele><time>2026-04-06T10:16:39.998Z</time></trkpt><trkpt lat="43.353022369682535" lon="11.43859970775321"><ele>258.0</ele><time>2026-04-06T10:16:40.998Z</time></trkpt><trkpt lat="43.35310563956728" lon="11.438533139141901"><ele>258.0</ele><time>2026-04-06T10:16:41.998Z</time></trkpt><trkpt lat="43.35319381221527" lon="11.438476328391342"><ele>258.0</ele><time>2026-04-06T10:16:42.998Z</time></trkpt><trkpt lat="43.35327864395992" lon="11.438440581778728"><ele>259.4</ele><time>2026-04-06T10:16:43.998Z</time></trkpt><trkpt lat="43.35336228787255" lon="11.438408256190145"><ele>260.8</ele><time>2026-04-06T10:16:44.998Z</time></trkpt><trkpt lat="43.35344494592691" lon="11.438376374072158"><ele>262.2</ele><time>2026-04-06T10:16:45.998Z</time></trkpt><trkpt lat="43.35353337635632" lon="11.438359120376479"><ele>263.6</ele><time>2026-04-06T10:16:46.998Z</time></trkpt><trkpt lat="43.35362784294992" lon="11.438349507175246"><ele>265.0</ele><time>2026-04-06T10:16:47.998Z</time></trkpt><trkpt lat="43.35372339476252" lon="11.438340942297264"><ele>265.0</ele><time>2026-04-06T10:16:48.998Z</time></trkpt><trkpt lat="43.35382362786003" lon="11.438314849633606"><ele>265.0</ele><time>2026-04-06T10:16:49.998Z</time></trkpt><trkpt lat="43.35392286927513" lon="11.438280075275221"><ele>265.0</ele><time>2026-04-06T10:16:50.998Z</time></trkpt><trkpt lat="43.3540221450191" lon="11.438247594747349"><ele>265.0</ele><time>2026-04-06T10:16:51.998Z</time></trkpt><trkpt lat="43.3541294771176" lon="11.438218594034604"><ele>265.0</ele><time>2026-04-06T10:16:52.998Z</time></trkpt><trkpt lat="43.35423201472937" lon="11.438190307656608"><ele>265.2</ele><time>2026-04-06T10:16:53.998Z</time></trkpt><trkpt lat="43.35433153091315" lon="11.43816644414986"><ele>265.4</ele><time>2026-04-06T10:16:54.998Z</time></trkpt><trkpt lat="43.35443321932114" lon="11.438154494596995"><ele>265.6</ele><time>2026-04-06T10:16:55.998Z</time></trkpt><trkpt lat="43.35453915651586" lon="11.438153859763887"><ele>265.8</ele><time>2026-04-06T10:16:56.998Z</time></trkpt><trkpt lat="43.354651094672526" lon="11.438148428149203"><ele>266.0</ele><time>2026-04-06T10:16:57.998Z</time></trkpt><trkpt lat="43.35476739162213" lon="11.438148676712778"><ele>266.5</ele><time>2026-04-06T10:16:58.998Z</time></trkpt><trkpt lat="43.354885027505645" lon="11.43816908649828"><ele>267.0</ele><time>2026-04-06T10:16:59.998Z</time></trkpt><trkpt lat="43.35500575894361" lon="11.438197500805598"><ele>267.5</ele><time>2026-04-06T10:17:00.998Z</time></trkpt><trkpt lat="43.35512378131297" lon="11.438224560837297"><ele>268.0</ele><time>2026-04-06T10:17:01.998Z</time></trkpt><trkpt lat="43.35524809682271" lon="11.43824630897953"><ele>268.0</ele><time>2026-04-06T10:17:02.998Z</time></trkpt><trkpt lat="43.35537891110068" lon="11.438267740933254"><ele>268.0</ele><time>2026-04-06T10:17:03.998Z</time></trkpt><trkpt lat="43.35550797873788" lon="11.438293542847932"><ele>268.0</ele><time>2026-04-06T10:17:04.998Z</time></trkpt><trkpt lat="43.35564008764602" lon="11.438320005694813"><ele>268.0</ele><time>2026-04-06T10:17:05.998Z</time></trkpt><trkpt lat="43.35576674775087" lon="11.43834383170573"><ele>267.6</ele><time>2026-04-06T10:17:07Z</time></trkpt><trkpt lat="43.35588394091785" lon="11.438372968263137"><ele>267.20000000000005</ele><time>2026-04-06T10:17:08Z</time></trkpt><trkpt lat="43.355985745703734" lon="11.438398257196953"><ele>266.8</ele><time>2026-04-06T10:17:09Z</time></trkpt><trkpt lat="43.35608663341224" lon="11.438417841489963"><ele>266.40000000000003</ele><time>2026-04-06T10:17:10Z</time></trkpt><trkpt lat="43.356198111391485" lon="11.438447141490661"><ele>266.0</ele><time>2026-04-06T10:17:11Z</time></trkpt><trkpt lat="43.35632031028538" lon="11.438471816326784"><ele>265.75</ele><time>2026-04-06T10:17:12Z</time></trkpt><trkpt lat="43.356448122968104" lon="11.438506708005194"><ele>265.5</ele><time>2026-04-06T10:17:13Z</time></trkpt><trkpt lat="43.35658361384659" lon="11.438538933599832"><ele>265.25</ele><time>2026-04-06T10:17:14Z</time></trkpt><trkpt lat="43.356716856063436" lon="11.438572831289157"><ele>265.0</ele><time>2026-04-06T10:17:15Z</time></trkpt><trkpt lat="43.356852312598186" lon="11.43859720664914"><ele>265.0</ele><time>2026-04-06T10:17:16Z</time></trkpt><trkpt lat="43.35699180348158" lon="11.438608745574353"><ele>265.0</ele><time>2026-04-06T10:17:17Z</time></trkpt><trkpt lat="43.357135167391085" lon="11.438605812673737"><ele>265.0</ele><time>2026-04-06T10:17:18Z</time></trkpt><trkpt lat="43.35727875787856" lon="11.438579061016407"><ele>265.0</ele><time>2026-04-06T10:17:19Z</time></trkpt><trkpt lat="43.35742634250493" lon="11.43853559080334"><ele>265.0</ele><time>2026-04-06T10:17:20Z</time></trkpt><trkpt lat="43.35757632444279" lon="11.438493015283015"><ele>265.0</ele><time>2026-04-06T10:17:21Z</time></trkpt><trkpt lat="43.35772001146831" lon="11.438446530196007"><ele>265.0</ele><time>2026-04-06T10:17:22Z</time></trkpt><trkpt lat="43.35785629597051" lon="11.438402345587106"><ele>265.0</ele><time>2026-04-06T10:17:23Z</time></trkpt><trkpt lat="43.35798588211176" lon="11.438356900993604"><ele>265.5</ele><time>2026-04-06T10:17:24Z</time></trkpt><trkpt lat="43.35811008058624" lon="11.438291328755417"><ele>266.0</ele><time>2026-04-06T10:17:25Z</time></trkpt><trkpt lat="43.358223578037205" lon="11.438187279981884"><ele>266.5</ele><time>2026-04-06T10:17:26Z</time></trkpt><trkpt lat="43.35831566278616" lon="11.438044352928799"><ele>267.0</ele><time>2026-04-06T10:17:27Z</time></trkpt><trkpt lat="43.358372241453715" lon="11.437871812215846"><ele>267.5</ele><time>2026-04-06T10:17:28Z</time></trkpt><trkpt lat="43.358410035853495" lon="11.437696079473676"><ele>268.0</ele><time>2026-04-06T10:17:29Z</time></trkpt><trkpt lat="43.3584296101266" lon="11.437515555537855"><ele>268.5</ele><time>2026-04-06T10:17:29.999Z</time></trkpt><trkpt lat="43.35842034680857" lon="11.437330762693486"><ele>269.0</ele><time>2026-04-06T10:17:30.999Z</time></trkpt><trkpt lat="43.358381117622066" lon="11.437151666898867"><ele>269.0</ele><time>2026-04-06T10:17:31.999Z</time></trkpt><trkpt lat="43.358369607699665" lon="11.436969290801938"><ele>269.0</ele><time>2026-04-06T10:17:32.999Z</time></trkpt><trkpt lat="43.35834923860853" lon="11.436798694117584"><ele>269.0</ele><time>2026-04-06T10:17:33.999Z</time></trkpt><trkpt lat="43.35836299952217" lon="11.436625763999883"><ele>269.0</ele><time>2026-04-06T10:17:34.999Z</time></trkpt><trkpt lat="43.358382323819924" lon="11.436454137915193"><ele>269.0</ele><time>2026-04-06T10:17:35.999Z</time></trkpt><trkpt lat="43.358410608134854" lon="11.436286825451273"><ele>269.0</ele><time>2026-04-06T10:17:36.999Z</time></trkpt><trkpt lat="43.35843667907878" lon="11.436163924496052"><ele>269.0</ele><time>2026-04-06T10:17:37.999Z</time></trkpt><trkpt lat="43.35848467118026" lon="11.43606302434285"><ele>269.0</ele><time>2026-04-06T10:17:39.999Z</time></trkpt><trkpt lat="43.35850502755877" lon="11.43596351191413"><ele>269.0</ele><time>2026-04-06T10:17:42.999Z</time></trkpt><trkpt lat="43.35843937682497" lon="11.436104099645421"><ele>269.0</ele><time>2026-04-06T10:17:46.999Z</time></trkpt><trkpt lat="43.35845859396347" lon="11.436190259244295"><ele>269.0</ele><time>2026-04-06T10:17:47.999Z</time></trkpt><trkpt lat="43.358500043732626" lon="11.436275179662934"><ele>269.0</ele><time>2026-04-06T10:17:48.999Z</time></trkpt><trkpt lat="43.3585614936226" lon="11.436355973025233"><ele>269.0</ele><time>2026-04-06T10:17:49.999Z</time></trkpt><trkpt lat="43.35863205541426" lon="11.436428003600316"><ele>269.0</ele><time>2026-04-06T10:17:50.999Z</time></trkpt><trkpt lat="43.358702412592606" lon="11.436496008775551"><ele>269.0</ele><time>2026-04-06T10:17:51.999Z</time></trkpt><trkpt lat="43.358773241029205" lon="11.436554419824457"><ele>269.0</ele><time>2026-04-06T10:17:52.999Z</time></trkpt><trkpt lat="43.358851204203525" lon="11.436611200656998"><ele>269.0</ele><time>2026-04-06T10:17:53.999Z</time></trkpt><trkpt lat="43.35893152438909" lon="11.436653982262369"><ele>269.0</ele><time>2026-04-06T10:17:54.999Z</time></trkpt><trkpt lat="43.35900933818138" lon="11.436698326408386"><ele>269.0</ele><time>2026-04-06T10:17:55.999Z</time></trkpt><trkpt lat="43.35911723411956" lon="11.436760157008678"><ele>269.0</ele><time>2026-04-06T10:17:57.999Z</time></trkpt><trkpt lat="43.35920038493187" lon="11.436802357364208"><ele>269.4</ele><time>2026-04-06T10:17:59.999Z</time></trkpt><trkpt lat="43.35927961748965" lon="11.436886197252468"><ele>269.79999999999995</ele><time>2026-04-06T10:18:01.999Z</time></trkpt><trkpt lat="43.359357748554594" lon="11.43703704196057"><ele>270.20000000000005</ele><time>2026-04-06T10:18:03.999Z</time></trkpt><trkpt lat="43.3593979730464" lon="11.437131993749496"><ele>270.6</ele><time>2026-04-06T10:18:04.999Z</time></trkpt><trkpt lat="43.359439419019395" lon="11.437243993379331"><ele>271.0</ele><time>2026-04-06T10:18:05.999Z</time></trkpt><trkpt lat="43.359479513279375" lon="11.437366440605171"><ele>271.8</ele><time>2026-04-06T10:18:06.999Z</time></trkpt><trkpt lat="43.359511125501555" lon="11.437492690045675"><ele>272.6</ele><time>2026-04-06T10:18:07.999Z</time></trkpt><trkpt lat="43.359548876676655" lon="11.437618117169043"><ele>273.4</ele><time>2026-04-06T10:18:08.999Z</time></trkpt><trkpt lat="43.35958477918223" lon="11.437733687495257"><ele>274.2</ele><time>2026-04-06T10:18:09.999Z</time></trkpt><trkpt lat="43.35963264335993" lon="11.437858581108205"><ele>275.0</ele><time>2026-04-06T10:18:10.999Z</time></trkpt><trkpt lat="43.35966415746593" lon="11.438003234273335"><ele>274.25</ele><time>2026-04-06T10:18:11.999Z</time></trkpt><trkpt lat="43.359707869045835" lon="11.438141897805949"><ele>273.5</ele><time>2026-04-06T10:18:12.999Z</time></trkpt><trkpt lat="43.35975027400425" lon="11.438276416415174"><ele>272.75</ele><time>2026-04-06T10:18:13.999Z</time></trkpt><trkpt lat="43.359804559977164" lon="11.438429071010024"><ele>272.0</ele><time>2026-04-06T10:18:14.999Z</time></trkpt><trkpt lat="43.35984935578871" lon="11.438577639399732"><ele>272.0</ele><time>2026-04-06T10:18:15.999Z</time></trkpt><trkpt lat="43.35989373686275" lon="11.438727834003776"><ele>272.0</ele><time>2026-04-06T10:18:16.999Z</time></trkpt><trkpt lat="43.359946199121396" lon="11.438872094242223"><ele>272.0</ele><time>2026-04-06T10:18:17.999Z</time></trkpt><trkpt lat="43.35999369815318" lon="11.439020056585887"><ele>272.0</ele><time>2026-04-06T10:18:18.999Z</time></trkpt><trkpt lat="43.36003700777352" lon="11.43916451580246"><ele>272.5</ele><time>2026-04-06T10:18:19.999Z</time></trkpt><trkpt lat="43.360084901982844" lon="11.439311851459362"><ele>273.0</ele><time>2026-04-06T10:18:20.999Z</time></trkpt><trkpt lat="43.360140208187524" lon="11.439454046295438"><ele>273.5</ele><time>2026-04-06T10:18:21.999Z</time></trkpt><trkpt lat="43.360202631727134" lon="11.439584821149905"><ele>274.0</ele><time>2026-04-06T10:18:22.999Z</time></trkpt><trkpt lat="43.36028110645222" lon="11.439678080865153"><ele>274.0</ele><time>2026-04-06T10:18:23.999Z</time></trkpt><trkpt lat="43.36038531199087" lon="11.439738906272233"><ele>274.0</ele><time>2026-04-06T10:18:24.999Z</time></trkpt><trkpt lat="43.36048617144798" lon="11.439766073835358"><ele>274.0</ele><time>2026-04-06T10:18:25.998Z</time></trkpt><trkpt lat="43.36058640710071" lon="11.439780291607619"><ele>274.0</ele><time>2026-04-06T10:18:26.998Z</time></trkpt><trkpt lat="43.36068385580954" lon="11.439787196253647"><ele>274.0</ele><time>2026-04-06T10:18:27.998Z</time></trkpt><trkpt lat="43.360782684768516" lon="11.439798669375852"><ele>274.59999999999997</ele><time>2026-04-06T10:18:28.998Z</time></trkpt><trkpt lat="43.36087951280554" lon="11.439811657113156"><ele>275.2</ele><time>2026-04-06T10:18:29.998Z</time></trkpt><trkpt lat="43.36097833334915" lon="11.439825901279711"><ele>275.79999999999995</ele><time>2026-04-06T10:18:30.998Z</time></trkpt><trkpt lat="43.36107802045569" lon="11.439841469283525"><ele>276.4</ele><time>2026-04-06T10:18:31.998Z</time></trkpt><trkpt lat="43.36118065224219" lon="11.439858928749285"><ele>277.0</ele><time>2026-04-06T10:18:32.998Z</time></trkpt><trkpt lat="43.361286742739686" lon="11.4398762174395"><ele>277.75</ele><time>2026-04-06T10:18:33.998Z</time></trkpt><trkpt lat="43.361395076315674" lon="11.4399035129872"><ele>278.5</ele><time>2026-04-06T10:18:34.998Z</time></trkpt><trkpt lat="43.361510854835636" lon="11.439926759361624"><ele>279.25</ele><time>2026-04-06T10:18:35.998Z</time></trkpt><trkpt lat="43.36162985779375" lon="11.43995693656298"><ele>280.0</ele><time>2026-04-06T10:18:36.998Z</time></trkpt><trkpt lat="43.36175164495953" lon="11.439983433590397"><ele>280.0</ele><time>2026-04-06T10:18:37.998Z</time></trkpt><trkpt lat="43.361872176173286" lon="11.440014662093148"><ele>280.0</ele><time>2026-04-06T10:18:38.998Z</time></trkpt><trkpt lat="43.36199980252981" lon="11.440050111282511"><ele>280.0</ele><time>2026-04-06T10:18:39.998Z</time></trkpt><trkpt lat="43.36212875673874" lon="11.440086712228972"><ele>280.0</ele><time>2026-04-06T10:18:40.998Z</time></trkpt><trkpt lat="43.36225227469279" lon="11.440135283513122"><ele>280.25</ele><time>2026-04-06T10:18:41.998Z</time></trkpt><trkpt lat="43.362355799372736" lon="11.440218156662596"><ele>280.5</ele><time>2026-04-06T10:18:42.998Z</time></trkpt><trkpt lat="43.36245699115338" lon="11.44034235692924"><ele>280.75</ele><time>2026-04-06T10:18:43.998Z</time></trkpt><trkpt lat="43.362535078074394" lon="11.440481701857745"><ele>281.0</ele><time>2026-04-06T10:18:44.998Z</time></trkpt><trkpt lat="43.362590617372724" lon="11.440641376496028"><ele>282.25</ele><time>2026-04-06T10:18:45.998Z</time></trkpt><trkpt lat="43.362618982047316" lon="11.44080891757422"><ele>283.5</ele><time>2026-04-06T10:18:46.998Z</time></trkpt><trkpt lat="43.36263700685551" lon="11.440979704773815"><ele>284.75</ele><time>2026-04-06T10:18:47.998Z</time></trkpt><trkpt lat="43.36263252804988" lon="11.441156966498886"><ele>286.0</ele><time>2026-04-06T10:18:48.998Z</time></trkpt><trkpt lat="43.36264166523664" lon="11.441343760153593"><ele>288.3333333333333</ele><time>2026-04-06T10:18:49.998Z</time></trkpt><trkpt lat="43.36265054463946" lon="11.441584178696935"><ele>290.6666666666667</ele><time>2026-04-06T10:18:50.998Z</time></trkpt><trkpt lat="43.36264940051858" lon="11.441786423832173"><ele>293.0</ele><time>2026-04-06T10:18:51.998Z</time></trkpt><trkpt lat="43.36264603422904" lon="11.441972989657547"><ele>293.8</ele><time>2026-04-06T10:18:52.998Z</time></trkpt><trkpt lat="43.362639817349006" lon="11.442140717594091"><ele>294.6</ele><time>2026-04-06T10:18:53.998Z</time></trkpt><trkpt lat="43.36264690580918" lon="11.442290374368042"><ele>295.4</ele><time>2026-04-06T10:18:54.998Z</time></trkpt><trkpt lat="43.3626188903295" lon="11.442410446648852"><ele>296.2</ele><time>2026-04-06T10:18:55.998Z</time></trkpt><trkpt lat="43.362607140677774" lon="11.442512436073718"><ele>297.0</ele><time>2026-04-06T10:18:56.998Z</time></trkpt><trkpt lat="43.36259656649413" lon="11.442599753844977"><ele>297.0</ele><time>2026-04-06T10:18:57.998Z</time></trkpt><trkpt lat="43.362797597589164" lon="11.442664941547402"><ele>297.0</ele><time>2026-04-06T10:18:58.998Z</time></trkpt><trkpt lat="43.36287766939064" lon="11.442756150558273"><ele>297.0</ele><time>2026-04-06T10:18:59.998Z</time></trkpt><trkpt lat="43.36294730413701" lon="11.442848566327877"><ele>297.0</ele><time>2026-04-06T10:19:00.998Z</time></trkpt><trkpt lat="43.36301680461919" lon="11.442948339092629"><ele>300.25</ele><time>2026-04-06T10:19:01.998Z</time></trkpt><trkpt lat="43.36308708490332" lon="11.443069105692725"><ele>303.5</ele><time>2026-04-06T10:19:02.998Z</time></trkpt><trkpt lat="43.36313528207138" lon="11.443217696194479"><ele>306.75</ele><time>2026-04-06T10:19:03.998Z</time></trkpt><trkpt lat="43.36312126957249" lon="11.443392959514833"><ele>310.0</ele><time>2026-04-06T10:19:04.998Z</time></trkpt><trkpt lat="43.36304832234875" lon="11.443538224405886"><ele>309.6</ele><time>2026-04-06T10:19:05.998Z</time></trkpt><trkpt lat="43.362990463536754" lon="11.443631469277383"><ele>309.2</ele><time>2026-04-06T10:19:06.998Z</time></trkpt><trkpt lat="43.36292422309763" lon="11.443745870253036"><ele>308.8</ele><time>2026-04-06T10:19:07.998Z</time></trkpt><trkpt lat="43.36285914298253" lon="11.443897995231215"><ele>308.4</ele><time>2026-04-06T10:19:08.998Z</time></trkpt><trkpt lat="43.36283844640628" lon="11.444057071539488"><ele>308.0</ele><time>2026-04-06T10:19:09.998Z</time></trkpt><trkpt lat="43.36282818718529" lon="11.444196328706685"><ele>308.0</ele><time>2026-04-06T10:19:10.998Z</time></trkpt><trkpt lat="43.362855129176786" lon="11.44435668199208"><ele>308.0</ele><time>2026-04-06T10:19:11.998Z</time></trkpt><trkpt lat="43.36288774974145" lon="11.444515000380598"><ele>308.0</ele><time>2026-04-06T10:19:13Z</time></trkpt><trkpt lat="43.36289957972864" lon="11.444687201477254"><ele>308.0</ele><time>2026-04-06T10:19:14Z</time></trkpt><trkpt lat="43.362899065873776" lon="11.444885103378281"><ele>309.25</ele><time>2026-04-06T10:19:15Z</time></trkpt><trkpt lat="43.36288454416688" lon="11.445080644512617"><ele>310.5</ele><time>2026-04-06T10:19:16Z</time></trkpt><trkpt lat="43.362864652277295" lon="11.44526376897614"><ele>311.75</ele><time>2026-04-06T10:19:17Z</time></trkpt><trkpt lat="43.36284318731374" lon="11.445422893324368"><ele>313.0</ele><time>2026-04-06T10:19:18Z</time></trkpt><trkpt lat="43.362815439512964" lon="11.445571349444005"><ele>315.5</ele><time>2026-04-06T10:19:19Z</time></trkpt><trkpt lat="43.362775930519646" lon="11.445698445173372"><ele>318.0</ele><time>2026-04-06T10:19:20Z</time></trkpt><trkpt lat="43.362726835864656" lon="11.44580884854226"><ele>320.5</ele><time>2026-04-06T10:19:21Z</time></trkpt><trkpt lat="43.362655942232266" lon="11.445990346142498"><ele>323.0</ele><time>2026-04-06T10:19:22Z</time></trkpt><trkpt lat="43.362623248314065" lon="11.446180114713588"><ele>323.0</ele><time>2026-04-06T10:19:24Z</time></trkpt><trkpt lat="43.36264984914454" lon="11.44629170708619"><ele>323.0</ele><time>2026-04-06T10:19:25Z</time></trkpt><trkpt lat="43.36273916049547" lon="11.446390574361246"><ele>323.0</ele><time>2026-04-06T10:19:26Z</time></trkpt><trkpt lat="43.362928042583725" lon="11.4464863185055"><ele>323.0</ele><time>2026-04-06T10:19:28Z</time></trkpt><trkpt lat="43.363062787287525" lon="11.446193039220434"><ele>328.33333333333337</ele><time>2026-04-06T10:19:29Z</time></trkpt><trkpt lat="43.36322708494888" lon="11.446194156197388"><ele>333.6666666666667</ele><time>2026-04-06T10:19:30Z</time></trkpt><trkpt lat="43.36336326445525" lon="11.44621627291365"><ele>339.0</ele><time>2026-04-06T10:19:31Z</time></trkpt><trkpt lat="43.363514148286875" lon="11.44629351387021"><ele>340.0</ele><time>2026-04-06T10:19:32Z</time></trkpt><trkpt lat="43.363651040569806" lon="11.446394138671947"><ele>341.0</ele><time>2026-04-06T10:19:33Z</time></trkpt><trkpt lat="43.36377905998083" lon="11.44650070738959"><ele>342.0</ele><time>2026-04-06T10:19:34Z</time></trkpt><trkpt lat="43.36386592987653" lon="11.44656972993776"><ele>343.0</ele><time>2026-04-06T10:19:35Z</time></trkpt><trkpt lat="43.363963350503404" lon="11.446638688494732"><ele>343.0</ele><time>2026-04-06T10:19:36Z</time></trkpt><trkpt lat="43.36409247165668" lon="11.446697779400473"><ele>343.0</ele><time>2026-04-06T10:19:36.999Z</time></trkpt><trkpt lat="43.3641987916662" lon="11.4467050713859"><ele>343.0</ele><time>2026-04-06T10:19:37.999Z</time></trkpt><trkpt lat="43.36428027049012" lon="11.446666154496924"><ele>343.0</ele><time>2026-04-06T10:19:38.999Z</time></trkpt><trkpt lat="43.36440835235258" lon="11.446613391638202"><ele>343.0</ele><time>2026-04-06T10:19:39.999Z</time></trkpt><trkpt lat="43.36452494584865" lon="11.446495883365015"><ele>343.0</ele><time>2026-04-06T10:19:40.999Z</time></trkpt><trkpt lat="43.36464076284906" lon="11.446415191864205"><ele>343.0</ele><time>2026-04-06T10:19:41.999Z</time></trkpt><trkpt lat="43.36475986051579" lon="11.446332578722744"><ele>343.0</ele><time>2026-04-06T10:19:42.999Z</time></trkpt><trkpt lat="43.36488318302416" lon="11.446248910944124"><ele>343.5</ele><time>2026-04-06T10:19:43.999Z</time></trkpt><trkpt lat="43.36500759008654" lon="11.446164507255332"><ele>344.0</ele><time>2026-04-06T10:19:44.999Z</time></trkpt><trkpt lat="43.36512976158696" lon="11.446093077418512"><ele>344.5</ele><time>2026-04-06T10:19:45.999Z</time></trkpt><trkpt lat="43.365298945621866" lon="11.446053589968455"><ele>345.0</ele><time>2026-04-06T10:19:46.999Z</time></trkpt><trkpt lat="43.3654489477474" lon="11.446069354388506"><ele>344.6666666666667</ele><time>2026-04-06T10:19:47.999Z</time></trkpt><trkpt lat="43.365590083635595" lon="11.44609352125161"><ele>344.33333333333337</ele><time>2026-04-06T10:19:48.999Z</time></trkpt><trkpt lat="43.36575873800517" lon="11.446135689941332"><ele>344.0</ele><time>2026-04-06T10:19:49.999Z</time></trkpt><trkpt lat="43.36590167612433" lon="11.446201412416794"><ele>344.0</ele><time>2026-04-06T10:19:50.999Z</time></trkpt><trkpt lat="43.366043909327324" lon="11.446261239261467"><ele>344.0</ele><time>2026-04-06T10:19:51.999Z</time></trkpt><trkpt lat="43.36617836918596" lon="11.446333699119801"><ele>344.0</ele><time>2026-04-06T10:19:52.999Z</time></trkpt><trkpt lat="43.366310033002165" lon="11.446456660593617"><ele>342.33333333333337</ele><time>2026-04-06T10:19:53.999Z</time></trkpt><trkpt lat="43.36642386149921" lon="11.446595599338801"><ele>340.6666666666667</ele><time>2026-04-06T10:19:54.999Z</time></trkpt><trkpt lat="43.366569415174624" lon="11.446705952212247"><ele>339.0</ele><time>2026-04-06T10:19:55.999Z</time></trkpt><trkpt lat="43.36670368155959" lon="11.446810774945801"><ele>339.0</ele><time>2026-04-06T10:19:56.999Z</time></trkpt><trkpt lat="43.36683034031939" lon="11.446927010891608"><ele>339.0</ele><time>2026-04-06T10:19:57.999Z</time></trkpt><trkpt lat="43.36697556218797" lon="11.447026679263587"><ele>339.0</ele><time>2026-04-06T10:19:58.999Z</time></trkpt><trkpt lat="43.367124232540604" lon="11.44712915555292"><ele>338.3333333333333</ele><time>2026-04-06T10:19:59.999Z</time></trkpt><trkpt lat="43.367260409568445" lon="11.447240039275185"><ele>337.66666666666663</ele><time>2026-04-06T10:20:00.999Z</time></trkpt><trkpt lat="43.36739763222971" lon="11.447349265124634"><ele>337.0</ele><time>2026-04-06T10:20:01.999Z</time></trkpt><trkpt lat="43.36753250597732" lon="11.447459385389632"><ele>337.0</ele><time>2026-04-06T10:20:02.999Z</time></trkpt><trkpt lat="43.367644339638844" lon="11.447591306836214"><ele>337.0</ele><time>2026-04-06T10:20:03.999Z</time></trkpt><trkpt lat="43.36772663568356" lon="11.44774776827537"><ele>337.0</ele><time>2026-04-06T10:20:04.999Z</time></trkpt><trkpt lat="43.36782018530989" lon="11.447914066403396"><ele>337.0</ele><time>2026-04-06T10:20:05.999Z</time></trkpt><trkpt lat="43.36788982749811" lon="11.448099347436402"><ele>338.0</ele><time>2026-04-06T10:20:06.999Z</time></trkpt><trkpt lat="43.36796743746031" lon="11.448261048922044"><ele>339.0</ele><time>2026-04-06T10:20:07.999Z</time></trkpt><trkpt lat="43.36805042135154" lon="11.448438422915828"><ele>340.0</ele><time>2026-04-06T10:20:08.999Z</time></trkpt><trkpt lat="43.368138720926055" lon="11.448610994940573"><ele>341.0</ele><time>2026-04-06T10:20:09.999Z</time></trkpt><trkpt lat="43.36825874448129" lon="11.448744746120003"><ele>341.0</ele><time>2026-04-06T10:20:10.999Z</time></trkpt><trkpt lat="43.36840670649193" lon="11.448811576674663"><ele>341.0</ele><time>2026-04-06T10:20:11.999Z</time></trkpt><trkpt lat="43.3685017651007" lon="11.448805544218951"><ele>341.0</ele><time>2026-04-06T10:20:12.999Z</time></trkpt><trkpt lat="43.3685918867093" lon="11.448788878559778"><ele>341.0</ele><time>2026-04-06T10:20:13.999Z</time></trkpt><trkpt lat="43.36872046382801" lon="11.448761721228022"><ele>341.0</ele><time>2026-04-06T10:20:14.999Z</time></trkpt><trkpt lat="43.368845628986364" lon="11.448755669444376"><ele>341.0</ele><time>2026-04-06T10:20:15.999Z</time></trkpt><trkpt lat="43.369003987603556" lon="11.448747027804327"><ele>341.0</ele><time>2026-04-06T10:20:16.999Z</time></trkpt><trkpt lat="43.369158169901446" lon="11.44872169670548"><ele>341.0</ele><time>2026-04-06T10:20:17.999Z</time></trkpt><trkpt lat="43.36931276925898" lon="11.44868758098823"><ele>338.6666666666667</ele><time>2026-04-06T10:20:18.999Z</time></trkpt><trkpt lat="43.36947420632817" lon="11.448641679313795"><ele>336.3333333333333</ele><time>2026-04-06T10:20:19.999Z</time></trkpt><trkpt lat="43.36963366854057" lon="11.448589097149242"><ele>334.0</ele><time>2026-04-06T10:20:20.999Z</time></trkpt><trkpt lat="43.36977594492515" lon="11.448519831591547"><ele>331.66666666666663</ele><time>2026-04-06T10:20:21.999Z</time></trkpt><trkpt lat="43.369921868607705" lon="11.44847669553601"><ele>329.3333333333333</ele><time>2026-04-06T10:20:22.999Z</time></trkpt><trkpt lat="43.3700889806407" lon="11.448487109289003"><ele>327.0</ele><time>2026-04-06T10:20:23.999Z</time></trkpt><trkpt lat="43.37023136760762" lon="11.448594027101676"><ele>327.0</ele><time>2026-04-06T10:20:24.999Z</time></trkpt><trkpt lat="43.37035333849057" lon="11.448696848724552"><ele>327.0</ele><time>2026-04-06T10:20:25.999Z</time></trkpt><trkpt lat="43.370468675361344" lon="11.448794149221465"><ele>327.0</ele><time>2026-04-06T10:20:26.999Z</time></trkpt><trkpt lat="43.37058837998605" lon="11.448890054694585"><ele>327.0</ele><time>2026-04-06T10:20:27.999Z</time></trkpt><trkpt lat="43.37072272591524" lon="11.448983392157315"><ele>326.0</ele><time>2026-04-06T10:20:28.999Z</time></trkpt><trkpt lat="43.37085890410837" lon="11.449084775312427"><ele>325.0</ele><time>2026-04-06T10:20:29.998Z</time></trkpt><trkpt lat="43.37099164457734" lon="11.44918824798697"><ele>324.0</ele><time>2026-04-06T10:20:30.998Z</time></trkpt><trkpt lat="43.37112082210515" lon="11.449285396063319"><ele>324.0</ele><time>2026-04-06T10:20:31.998Z</time></trkpt><trkpt lat="43.37125602552692" lon="11.44938856919935"><ele>324.0</ele><time>2026-04-06T10:20:32.998Z</time></trkpt><trkpt lat="43.37139485339298" lon="11.449488839634052"><ele>324.0</ele><time>2026-04-06T10:20:33.998Z</time></trkpt><trkpt lat="43.3715293449256" lon="11.449584212338683"><ele>324.5</ele><time>2026-04-06T10:20:34.998Z</time></trkpt><trkpt lat="43.371654838561675" lon="11.449675166689527"><ele>325.0</ele><time>2026-04-06T10:20:35.998Z</time></trkpt><trkpt lat="43.37178080792762" lon="11.449790554186338"><ele>325.5</ele><time>2026-04-06T10:20:36.998Z</time></trkpt><trkpt lat="43.37188762309629" lon="11.449901833096561"><ele>326.0</ele><time>2026-04-06T10:20:37.998Z</time></trkpt><trkpt lat="43.37200895526046" lon="11.450026557557083"><ele>326.0</ele><time>2026-04-06T10:20:38.998Z</time></trkpt><trkpt lat="43.372125513216965" lon="11.45013821037991"><ele>326.0</ele><time>2026-04-06T10:20:39.998Z</time></trkpt><trkpt lat="43.37224253318696" lon="11.450248315792397"><ele>326.0</ele><time>2026-04-06T10:20:40.998Z</time></trkpt><trkpt lat="43.37238402663808" lon="11.450319449558904"><ele>326.0</ele><time>2026-04-06T10:20:41.998Z</time></trkpt><trkpt lat="43.37252363417361" lon="11.450388004535371"><ele>326.0</ele><time>2026-04-06T10:20:42.998Z</time></trkpt><trkpt lat="43.37266861132042" lon="11.450431069260711"><ele>326.0</ele><time>2026-04-06T10:20:43.998Z</time></trkpt><trkpt lat="43.37279993582703" lon="11.450459926378876"><ele>326.0</ele><time>2026-04-06T10:20:44.998Z</time></trkpt><trkpt lat="43.37295341482649" lon="11.450507027735496"><ele>326.0</ele><time>2026-04-06T10:20:45.998Z</time></trkpt><trkpt lat="43.37308190902994" lon="11.450553448246254"><ele>326.0</ele><time>2026-04-06T10:20:46.998Z</time></trkpt><trkpt lat="43.37319682083152" lon="11.450640962886457"><ele>326.0</ele><time>2026-04-06T10:20:47.998Z</time></trkpt><trkpt lat="43.373293242315036" lon="11.450768907850344"><ele>326.0</ele><time>2026-04-06T10:20:48.998Z</time></trkpt><trkpt lat="43.37338925618367" lon="11.450908568866913"><ele>326.0</ele><time>2026-04-06T10:20:49.998Z</time></trkpt><trkpt lat="43.37348048636325" lon="11.451038733196865"><ele>326.0</ele><time>2026-04-06T10:20:50.998Z</time></trkpt><trkpt lat="43.37359864957398" lon="11.451150780570703"><ele>326.0</ele><time>2026-04-06T10:20:51.998Z</time></trkpt><trkpt lat="43.373733068825466" lon="11.451163101986703"><ele>326.0</ele><time>2026-04-06T10:20:52.998Z</time></trkpt><trkpt lat="43.373867408521114" lon="11.451226104479607"><ele>326.0</ele><time>2026-04-06T10:20:53.998Z</time></trkpt><trkpt lat="43.37402555334208" lon="11.451242650545712"><ele>325.33333333333337</ele><time>2026-04-06T10:20:54.998Z</time></trkpt><trkpt lat="43.374169681364165" lon="11.451241953568218"><ele>324.6666666666667</ele><time>2026-04-06T10:20:55.998Z</time></trkpt><trkpt lat="43.374332777775095" lon="11.451217315392647"><ele>324.0</ele><time>2026-04-06T10:20:56.998Z</time></trkpt><trkpt lat="43.37448559475275" lon="11.451174334266444"><ele>324.0</ele><time>2026-04-06T10:20:57.998Z</time></trkpt><trkpt lat="43.374649722867076" lon="11.451137291039752"><ele>324.0</ele><time>2026-04-06T10:20:58.998Z</time></trkpt><trkpt lat="43.37481479486019" lon="11.45112687043937"><ele>324.0</ele><time>2026-04-06T10:20:59.998Z</time></trkpt><trkpt lat="43.37498350328484" lon="11.451104464375508"><ele>324.0</ele><time>2026-04-06T10:21:00.998Z</time></trkpt><trkpt lat="43.37514330558989" lon="11.451092678200787"><ele>324.0</ele><time>2026-04-06T10:21:01.998Z</time></trkpt><trkpt lat="43.37530681312505" lon="11.451071260346788"><ele>324.0</ele><time>2026-04-06T10:21:02.998Z</time></trkpt><trkpt lat="43.37547509275069" lon="11.451054281222364"><ele>325.0</ele><time>2026-04-06T10:21:03.998Z</time></trkpt><trkpt lat="43.37564235923428" lon="11.451038153606673"><ele>326.0</ele><time>2026-04-06T10:21:04.998Z</time></trkpt><trkpt lat="43.37580665380771" lon="11.451027951406383"><ele>327.0</ele><time>2026-04-06T10:21:05.998Z</time></trkpt><trkpt lat="43.37596163826034" lon="11.45104939403742"><ele>327.0</ele><time>2026-04-06T10:21:06.998Z</time></trkpt><trkpt lat="43.37610041189251" lon="11.451063031409698"><ele>327.0</ele><time>2026-04-06T10:21:07.998Z</time></trkpt><trkpt lat="43.37623714598098" lon="11.451101363200554"><ele>327.0</ele><time>2026-04-06T10:21:08.998Z</time></trkpt><trkpt lat="43.37638437152851" lon="11.451172783791536"><ele>327.0</ele><time>2026-04-06T10:21:09.998Z</time></trkpt><trkpt lat="43.3765309448609" lon="11.45125261468267"><ele>328.6666666666667</ele><time>2026-04-06T10:21:10.998Z</time></trkpt><trkpt lat="43.376673253479325" lon="11.451333079783137"><ele>330.33333333333337</ele><time>2026-04-06T10:21:11.998Z</time></trkpt><trkpt lat="43.37681476008407" lon="11.45142072850514"><ele>332.0</ele><time>2026-04-06T10:21:12.998Z</time></trkpt><trkpt lat="43.37695535342448" lon="11.45152194282913"><ele>332.0</ele><time>2026-04-06T10:21:13.998Z</time></trkpt><trkpt lat="43.377093169072296" lon="11.451637077236892"><ele>332.0</ele><time>2026-04-06T10:21:14.998Z</time></trkpt><trkpt lat="43.37721975669802" lon="11.451771104689376"><ele>332.0</ele><time>2026-04-06T10:21:15.998Z</time></trkpt><trkpt lat="43.37734468500473" lon="11.45190914195415"><ele>334.6666666666667</ele><time>2026-04-06T10:21:16.998Z</time></trkpt><trkpt lat="43.377459366022585" lon="11.45204668862202"><ele>337.3333333333333</ele><time>2026-04-06T10:21:18Z</time></trkpt><trkpt lat="43.37758022408399" lon="11.452183472054278"><ele>340.0</ele><time>2026-04-06T10:21:19Z</time></trkpt><trkpt lat="43.377696503790624" lon="11.45231591828967"><ele>341.25</ele><time>2026-04-06T10:21:20Z</time></trkpt><trkpt lat="43.37780200986317" lon="11.452451789170498"><ele>342.5</ele><time>2026-04-06T10:21:21Z</time></trkpt><trkpt lat="43.377908419756764" lon="11.452582469209672"><ele>343.75</ele><time>2026-04-06T10:21:22Z</time></trkpt><trkpt lat="43.37800218837812" lon="11.452714519046332"><ele>345.0</ele><time>2026-04-06T10:21:23Z</time></trkpt><trkpt lat="43.37809865110599" lon="11.452809053332734"><ele>345.75</ele><time>2026-04-06T10:21:24Z</time></trkpt><trkpt lat="43.378220423641196" lon="11.452895576828965"><ele>346.5</ele><time>2026-04-06T10:21:25Z</time></trkpt><trkpt lat="43.37835393068737" lon="11.452944064093634"><ele>347.25</ele><time>2026-04-06T10:21:26Z</time></trkpt><trkpt lat="43.378494331856466" lon="11.452989900849053"><ele>348.0</ele><time>2026-04-06T10:21:27Z</time></trkpt><trkpt lat="43.37863787317881" lon="11.453029293438323"><ele>348.0</ele><time>2026-04-06T10:21:28Z</time></trkpt><trkpt lat="43.37877195713267" lon="11.453062624830395"><ele>348.0</ele><time>2026-04-06T10:21:29Z</time></trkpt><trkpt lat="43.37891604496827" lon="11.453103845644527"><ele>348.0</ele><time>2026-04-06T10:21:30Z</time></trkpt><trkpt lat="43.37906246222359" lon="11.453147955806937"><ele>348.0</ele><time>2026-04-06T10:21:31Z</time></trkpt><trkpt lat="43.37921936420295" lon="11.453186649449139"><ele>349.6666666666667</ele><time>2026-04-06T10:21:32Z</time></trkpt><trkpt lat="43.37938210285889" lon="11.453230087121083"><ele>351.33333333333337</ele><time>2026-04-06T10:21:33Z</time></trkpt><trkpt lat="43.37954986262932" lon="11.453250534764072"><ele>353.0</ele><time>2026-04-06T10:21:34Z</time></trkpt><trkpt lat="43.37971941357746" lon="11.453290846385578"><ele>353.33333333333337</ele><time>2026-04-06T10:21:35Z</time></trkpt><trkpt lat="43.37989215642531" lon="11.453334969241393"><ele>353.6666666666667</ele><time>2026-04-06T10:21:36Z</time></trkpt><trkpt lat="43.38006533324507" lon="11.453404332386668"><ele>354.0</ele><time>2026-04-06T10:21:37Z</time></trkpt><trkpt lat="43.3802341822187" lon="11.453448623303606"><ele>354.0</ele><time>2026-04-06T10:21:38Z</time></trkpt><trkpt lat="43.3803986053705" lon="11.453498338126542"><ele>354.0</ele><time>2026-04-06T10:21:39Z</time></trkpt><trkpt lat="43.380561986558895" lon="11.453546678201928"><ele>354.0</ele><time>2026-04-06T10:21:40Z</time></trkpt><trkpt lat="43.380701363910575" lon="11.453604614147046"><ele>355.0</ele><time>2026-04-06T10:21:41Z</time></trkpt><trkpt lat="43.380846661872624" lon="11.453696901476032"><ele>356.0</ele><time>2026-04-06T10:21:41.999Z</time></trkpt><trkpt lat="43.380979891517754" lon="11.45379953025222"><ele>357.0</ele><time>2026-04-06T10:21:42.999Z</time></trkpt><trkpt lat="43.38109203778031" lon="11.453931593083738"><ele>358.0</ele><time>2026-04-06T10:21:43.999Z</time></trkpt><trkpt lat="43.38121449857957" lon="11.45405093892899"><ele>359.0</ele><time>2026-04-06T10:21:44.999Z</time></trkpt><trkpt lat="43.38133738221615" lon="11.45417033703154"><ele>360.0</ele><time>2026-04-06T10:21:45.999Z</time></trkpt><trkpt lat="43.381456200012316" lon="11.454283700671215"><ele>361.0</ele><time>2026-04-06T10:21:46.999Z</time></trkpt><trkpt lat="43.381573947636056" lon="11.45439604069011"><ele>361.0</ele><time>2026-04-06T10:21:47.999Z</time></trkpt><trkpt lat="43.381695964796094" lon="11.454492393239766"><ele>361.0</ele><time>2026-04-06T10:21:48.999Z</time></trkpt><trkpt lat="43.381803713540386" lon="11.454619555128238"><ele>361.0</ele><time>2026-04-06T10:21:49.999Z</time></trkpt><trkpt lat="43.38191958750159" lon="11.454732929245678"><ele>361.0</ele><time>2026-04-06T10:21:50.999Z</time></trkpt><trkpt lat="43.382033474443496" lon="11.454844359208755"><ele>363.0</ele><time>2026-04-06T10:21:51.999Z</time></trkpt><trkpt lat="43.382150890630996" lon="11.454959242276857"><ele>365.0</ele><time>2026-04-06T10:21:52.999Z</time></trkpt><trkpt lat="43.38226455158743" lon="11.45507045113855"><ele>367.0</ele><time>2026-04-06T10:21:53.999Z</time></trkpt><trkpt lat="43.38237093385793" lon="11.455178623793204"><ele>369.0</ele><time>2026-04-06T10:21:54.999Z</time></trkpt><trkpt lat="43.38248047054843" lon="11.45528841733181"><ele>369.25</ele><time>2026-04-06T10:21:55.999Z</time></trkpt><trkpt lat="43.38260230667974" lon="11.455385957743506"><ele>369.5</ele><time>2026-04-06T10:21:56.999Z</time></trkpt><trkpt lat="43.382730073918964" lon="11.455430808940218"><ele>369.75</ele><time>2026-04-06T10:21:57.999Z</time></trkpt><trkpt lat="43.3828585235166" lon="11.455467964780935"><ele>370.0</ele><time>2026-04-06T10:21:58.999Z</time></trkpt><trkpt lat="43.38298088455456" lon="11.455443533313039"><ele>371.0</ele><time>2026-04-06T10:21:59.999Z</time></trkpt><trkpt lat="43.38307661061388" lon="11.455435524321327"><ele>372.0</ele><time>2026-04-06T10:22:00.999Z</time></trkpt><trkpt lat="43.38322818057752" lon="11.455430054860726"><ele>373.0</ele><time>2026-04-06T10:22:01.999Z</time></trkpt><trkpt lat="43.383368209184376" lon="11.455436524941282"><ele>374.0</ele><time>2026-04-06T10:22:02.999Z</time></trkpt><trkpt lat="43.38349280498005" lon="11.455515026100304"><ele>374.0</ele><time>2026-04-06T10:22:03.999Z</time></trkpt><trkpt lat="43.38361978378514" lon="11.455582827137935"><ele>374.0</ele><time>2026-04-06T10:22:04.999Z</time></trkpt><trkpt lat="43.38372513169271" lon="11.455681259230134"><ele>374.0</ele><time>2026-04-06T10:22:05.999Z</time></trkpt><trkpt lat="43.3838258929581" lon="11.45577146215957"><ele>374.0</ele><time>2026-04-06T10:22:06.999Z</time></trkpt><trkpt lat="43.38394289194205" lon="11.455861117473814"><ele>374.75</ele><time>2026-04-06T10:22:07.999Z</time></trkpt><trkpt lat="43.38406549423389" lon="11.455944445043572"><ele>375.5</ele><time>2026-04-06T10:22:08.999Z</time></trkpt><trkpt lat="43.38419241077338" lon="11.456027443757074"><ele>376.25</ele><time>2026-04-06T10:22:09.999Z</time></trkpt><trkpt lat="43.384312576180506" lon="11.456116735223613"><ele>377.0</ele><time>2026-04-06T10:22:10.999Z</time></trkpt><trkpt lat="43.3844238483293" lon="11.456218299754656"><ele>377.5</ele><time>2026-04-06T10:22:11.999Z</time></trkpt><trkpt lat="43.384539679406245" lon="11.456316711641934"><ele>378.0</ele><time>2026-04-06T10:22:12.999Z</time></trkpt><trkpt lat="43.38465480131132" lon="11.456406598290414"><ele>378.5</ele><time>2026-04-06T10:22:13.999Z</time></trkpt><trkpt lat="43.38477220703455" lon="11.456472195165837"><ele>379.0</ele><time>2026-04-06T10:22:14.999Z</time></trkpt><trkpt lat="43.384894975629976" lon="11.456516234747664"><ele>379.0</ele><time>2026-04-06T10:22:15.999Z</time></trkpt><trkpt lat="43.38502145193624" lon="11.456548560516609"><ele>379.0</ele><time>2026-04-06T10:22:16.999Z</time></trkpt><trkpt lat="43.385143265155776" lon="11.456575148745529"><ele>379.0</ele><time>2026-04-06T10:22:17.999Z</time></trkpt><trkpt lat="43.38527159617335" lon="11.456605812221214"><ele>379.0</ele><time>2026-04-06T10:22:18.999Z</time></trkpt><trkpt lat="43.385395043029504" lon="11.456631116150032"><ele>380.0</ele><time>2026-04-06T10:22:19.999Z</time></trkpt><trkpt lat="43.385520216645006" lon="11.45663687796756"><ele>381.0</ele><time>2026-04-06T10:22:20.999Z</time></trkpt><trkpt lat="43.38564506854536" lon="11.456624468244662"><ele>382.0</ele><time>2026-04-06T10:22:21.999Z</time></trkpt><trkpt lat="43.385770140419595" lon="11.456609063496662"><ele>383.0</ele><time>2026-04-06T10:22:22.999Z</time></trkpt><trkpt lat="43.38588951252611" lon="11.456592292774662"><ele>383.0</ele><time>2026-04-06T10:22:23.999Z</time></trkpt><trkpt lat="43.386009987444346" lon="11.456601918863928"><ele>383.0</ele><time>2026-04-06T10:22:24.999Z</time></trkpt><trkpt lat="43.38612782288952" lon="11.456634979738986"><ele>383.0</ele><time>2026-04-06T10:22:25.999Z</time></trkpt><trkpt lat="43.386250928194556" lon="11.456689926028005"><ele>383.0</ele><time>2026-04-06T10:22:26.999Z</time></trkpt><trkpt lat="43.3863710339505" lon="11.456753963054096"><ele>383.0</ele><time>2026-04-06T10:22:27.999Z</time></trkpt><trkpt lat="43.38648550497866" lon="11.456832513040307"><ele>383.0</ele><time>2026-04-06T10:22:28.999Z</time></trkpt><trkpt lat="43.38659149757224" lon="11.456931019360942"><ele>383.0</ele><time>2026-04-06T10:22:29.999Z</time></trkpt><trkpt lat="43.38669238640252" lon="11.457040080950497"><ele>383.0</ele><time>2026-04-06T10:22:30.999Z</time></trkpt><trkpt lat="43.386797818994836" lon="11.457143384901567"><ele>384.5</ele><time>2026-04-06T10:22:31.999Z</time></trkpt><trkpt lat="43.38691126037761" lon="11.457226817938645"><ele>386.0</ele><time>2026-04-06T10:22:32.999Z</time></trkpt><trkpt lat="43.387028946419385" lon="11.45730224885349"><ele>387.5</ele><time>2026-04-06T10:22:33.999Z</time></trkpt><trkpt lat="43.38714618405307" lon="11.45737186914297"><ele>389.0</ele><time>2026-04-06T10:22:34.999Z</time></trkpt><trkpt lat="43.38725914732804" lon="11.457437043686957"><ele>389.0</ele><time>2026-04-06T10:22:35.998Z</time></trkpt><trkpt lat="43.38736790172347" lon="11.457489362321262"><ele>389.0</ele><time>2026-04-06T10:22:36.998Z</time></trkpt><trkpt lat="43.38747548599698" lon="11.457519574411027"><ele>389.0</ele><time>2026-04-06T10:22:37.998Z</time></trkpt><trkpt lat="43.38758997287727" lon="11.45753909229994"><ele>389.0</ele><time>2026-04-06T10:22:38.998Z</time></trkpt><trkpt lat="43.387703326660656" lon="11.45754187517779"><ele>389.0</ele><time>2026-04-06T10:22:39.998Z</time></trkpt><trkpt lat="43.38781109437534" lon="11.457491529096984"><ele>389.0</ele><time>2026-04-06T10:22:40.998Z</time></trkpt><trkpt lat="43.3879156953205" lon="11.457463504623894"><ele>389.0</ele><time>2026-04-06T10:22:41.998Z</time></trkpt><trkpt lat="43.38801390396126" lon="11.457460544056044"><ele>389.0</ele><time>2026-04-06T10:22:42.998Z</time></trkpt><trkpt lat="43.38810221645201" lon="11.457451067740497"><ele>389.0</ele><time>2026-04-06T10:22:43.998Z</time></trkpt><trkpt lat="43.38818436351183" lon="11.457446455840858"><ele>388.99999999999994</ele><time>2026-04-06T10:22:44.998Z</time></trkpt><trkpt lat="43.38827988388637" lon="11.457432809909376"><ele>389.0</ele><time>2026-04-06T10:22:46.998Z</time></trkpt><trkpt lat="43.38836529437161" lon="11.45743503358766"><ele>389.0</ele><time>2026-04-06T10:22:48.998Z</time></trkpt><trkpt lat="43.38846542181685" lon="11.457500039700275"><ele>389.0</ele><time>2026-04-06T10:22:50.998Z</time></trkpt><trkpt lat="43.388533732899965" lon="11.457520900221693"><ele>388.99999999999994</ele><time>2026-04-06T10:22:51.998Z</time></trkpt><trkpt lat="43.38861607155344" lon="11.45755582557154"><ele>389.0</ele><time>2026-04-06T10:22:52.998Z</time></trkpt><trkpt lat="43.3886878520467" lon="11.457589588678946"><ele>388.99999999999994</ele><time>2026-04-06T10:22:53.998Z</time></trkpt><trkpt lat="43.388764024019785" lon="11.457625432624953"><ele>389.0</ele><time>2026-04-06T10:22:54.998Z</time></trkpt><trkpt lat="43.38883431409579" lon="11.457667946319598"><ele>389.0</ele><time>2026-04-06T10:22:55.998Z</time></trkpt><trkpt lat="43.38890908395191" lon="11.457721764370778"><ele>389.0</ele><time>2026-04-06T10:22:56.998Z</time></trkpt><trkpt lat="43.38896983363876" lon="11.457793674752937"><ele>388.99999999999994</ele><time>2026-04-06T10:22:57.998Z</time></trkpt><trkpt lat="43.3890360801442" lon="11.457878074156602"><ele>389.0</ele><time>2026-04-06T10:22:58.998Z</time></trkpt><trkpt lat="43.38909553974855" lon="11.457962929419066"><ele>389.16666666666663</ele><time>2026-04-06T10:22:59.998Z</time></trkpt><trkpt lat="43.3891408283966" lon="11.458059009853582"><ele>389.3333333333333</ele><time>2026-04-06T10:23:00.998Z</time></trkpt><trkpt lat="43.3891777027188" lon="11.458160043015917"><ele>389.5</ele><time>2026-04-06T10:23:01.998Z</time></trkpt><trkpt lat="43.38920476691244" lon="11.458258980174294"><ele>389.66666666666663</ele><time>2026-04-06T10:23:02.998Z</time></trkpt><trkpt lat="43.3892240997871" lon="11.45835462660973"><ele>389.8333333333333</ele><time>2026-04-06T10:23:03.998Z</time></trkpt><trkpt lat="43.38924295955924" lon="11.458455699649987"><ele>390.0</ele><time>2026-04-06T10:23:04.998Z</time></trkpt><trkpt lat="43.389260026818754" lon="11.45854929827328"><ele>390.0</ele><time>2026-04-06T10:23:05.998Z</time></trkpt><trkpt lat="43.389278312587955" lon="11.458649579302898"><ele>390.0</ele><time>2026-04-06T10:23:06.998Z</time></trkpt><trkpt lat="43.3893006398384" lon="11.458773913589607"><ele>390.0</ele><time>2026-04-06T10:23:07.998Z</time></trkpt><trkpt lat="43.38931868133625" lon="11.45887884163502"><ele>390.0</ele><time>2026-04-06T10:23:08.998Z</time></trkpt><trkpt lat="43.389356172814225" lon="11.458992186258055"><ele>390.0</ele><time>2026-04-06T10:23:09.998Z</time></trkpt><trkpt lat="43.38936744266205" lon="11.459089753104548"><ele>390.0</ele><time>2026-04-06T10:23:10.998Z</time></trkpt><trkpt lat="43.389391565868664" lon="11.45918186675848"><ele>390.1666666666667</ele><time>2026-04-06T10:23:11.998Z</time></trkpt><trkpt lat="43.3894062599864" lon="11.459284203442937"><ele>390.33333333333337</ele><time>2026-04-06T10:23:12.998Z</time></trkpt><trkpt lat="43.389434170833056" lon="11.459371376576716"><ele>390.5</ele><time>2026-04-06T10:23:13.998Z</time></trkpt><trkpt lat="43.38947843023196" lon="11.459451636603843"><ele>390.6666666666667</ele><time>2026-04-06T10:23:14.998Z</time></trkpt><trkpt lat="43.38957764930676" lon="11.459558407684854"><ele>390.83333333333337</ele><time>2026-04-06T10:23:16.998Z</time></trkpt><trkpt lat="43.38967984816638" lon="11.459556389037907"><ele>391.0</ele><time>2026-04-06T10:23:17.998Z</time></trkpt><trkpt lat="43.38977292721403" lon="11.459623338764104"><ele>390.0</ele><time>2026-04-06T10:23:18.998Z</time></trkpt><trkpt lat="43.3899117964778" lon="11.459646533978002"><ele>389.0</ele><time>2026-04-06T10:23:20.998Z</time></trkpt><trkpt lat="43.39003363374883" lon="11.459686432909402"><ele>388.0</ele><time>2026-04-06T10:23:21.998Z</time></trkpt><trkpt lat="43.39015337169878" lon="11.459722976060524"><ele>387.0</ele><time>2026-04-06T10:23:23Z</time></trkpt><trkpt lat="43.390272077019965" lon="11.459754342466304"><ele>387.0</ele><time>2026-04-06T10:23:24Z</time></trkpt><trkpt lat="43.390402238248136" lon="11.459785858029859"><ele>387.0</ele><time>2026-04-06T10:23:25Z</time></trkpt><trkpt lat="43.390520350415485" lon="11.459811006068074"><ele>387.0</ele><time>2026-04-06T10:23:26Z</time></trkpt><trkpt lat="43.390648753694045" lon="11.459839150725797"><ele>387.0</ele><time>2026-04-06T10:23:27Z</time></trkpt><trkpt lat="43.39077961210144" lon="11.459874045153141"><ele>387.5</ele><time>2026-04-06T10:23:28Z</time></trkpt><trkpt lat="43.39091077960123" lon="11.459908892878708"><ele>388.0</ele><time>2026-04-06T10:23:29Z</time></trkpt><trkpt lat="43.391035185097046" lon="11.459948306180234"><ele>388.5</ele><time>2026-04-06T10:23:30Z</time></trkpt><trkpt lat="43.391152860796694" lon="11.460019168654535"><ele>389.0</ele><time>2026-04-06T10:23:31Z</time></trkpt><trkpt lat="43.39126518083886" lon="11.460117667285253"><ele>390.0</ele><time>2026-04-06T10:23:32Z</time></trkpt><trkpt lat="43.39138115285974" lon="11.460197991077566"><ele>391.0</ele><time>2026-04-06T10:23:33Z</time></trkpt><trkpt lat="43.39149396817829" lon="11.460265222953058"><ele>392.0</ele><time>2026-04-06T10:23:34Z</time></trkpt><trkpt lat="43.39161318051627" lon="11.460333264356324"><ele>393.0</ele><time>2026-04-06T10:23:35Z</time></trkpt><trkpt lat="43.391728512348905" lon="11.460399557669813"><ele>392.79999999999995</ele><time>2026-04-06T10:23:36Z</time></trkpt><trkpt lat="43.39184514729656" lon="11.460463123707736"><ele>392.6</ele><time>2026-04-06T10:23:37Z</time></trkpt><trkpt lat="43.39195097455877" lon="11.46052213107664"><ele>392.4</ele><time>2026-04-06T10:23:38Z</time></trkpt><trkpt lat="43.39204524494991" lon="11.460594553336387"><ele>392.20000000000005</ele><time>2026-04-06T10:23:39Z</time></trkpt><trkpt lat="43.39213411429126" lon="11.460645892875236"><ele>392.0</ele><time>2026-04-06T10:23:40Z</time></trkpt><trkpt lat="43.39219961878245" lon="11.460701044648008"><ele>393.16666666666663</ele><time>2026-04-06T10:23:41Z</time></trkpt><trkpt lat="43.39225654785407" lon="11.460809291483528"><ele>394.3333333333333</ele><time>2026-04-06T10:23:44Z</time></trkpt><trkpt lat="43.39230651322123" lon="11.460884780295345"><ele>395.5</ele><time>2026-04-06T10:23:46.999Z</time></trkpt><trkpt lat="43.39236571972591" lon="11.460932819085677"><ele>396.66666666666663</ele><time>2026-04-06T10:23:49.999Z</time></trkpt><trkpt lat="43.392440746812994" lon="11.460941400981715"><ele>397.8333333333333</ele><time>2026-04-06T10:26:03.999Z</time></trkpt><trkpt lat="43.39232842479686" lon="11.460994879165776"><ele>399.0</ele><time>2026-04-06T10:26:11.999Z</time></trkpt><trkpt lat="43.39234330678692" lon="11.461099385288458"><ele>399.0</ele><time>2026-04-06T10:26:12.999Z</time></trkpt><trkpt lat="43.39236216327824" lon="11.461199676743082"><ele>399.0</ele><time>2026-04-06T10:26:13.999Z</time></trkpt><trkpt lat="43.39234362701355" lon="11.461322015435032"><ele>399.0</ele><time>2026-04-06T10:26:14.999Z</time></trkpt><trkpt lat="43.39235726718841" lon="11.461454779778485"><ele>399.0</ele><time>2026-04-06T10:26:15.999Z</time></trkpt><trkpt lat="43.392369381978966" lon="11.461569586729007"><ele>399.0</ele><time>2026-04-06T10:26:16.999Z</time></trkpt><trkpt lat="43.39238135688012" lon="11.461679443397559"><ele>399.0</ele><time>2026-04-06T10:26:17.999Z</time></trkpt><trkpt lat="43.392395481386224" lon="11.461797028005712"><ele>398.6</ele><time>2026-04-06T10:26:18.999Z</time></trkpt><trkpt lat="43.39241571984438" lon="11.461920659884834"><ele>398.2</ele><time>2026-04-06T10:26:19.999Z</time></trkpt><trkpt lat="43.39243976672954" lon="11.46203999164106"><ele>397.8</ele><time>2026-04-06T10:26:20.999Z</time></trkpt><trkpt lat="43.392469537482164" lon="11.462167183773207"><ele>397.40000000000003</ele><time>2026-04-06T10:26:21.999Z</time></trkpt><trkpt lat="43.39250267606044" lon="11.46229499794613"><ele>397.0</ele><time>2026-04-06T10:26:22.999Z</time></trkpt><trkpt lat="43.392538452379405" lon="11.462419165807898"><ele>395.8</ele><time>2026-04-06T10:26:23.999Z</time></trkpt><trkpt lat="43.392591733501696" lon="11.462548110685345"><ele>394.6</ele><time>2026-04-06T10:26:24.999Z</time></trkpt><trkpt lat="43.3926411371401" lon="11.462684081706163"><ele>393.40000000000003</ele><time>2026-04-06T10:26:25.999Z</time></trkpt><trkpt lat="43.39269503856002" lon="11.462829481794332"><ele>392.20000000000005</ele><time>2026-04-06T10:26:26.999Z</time></trkpt><trkpt lat="43.39274133533787" lon="11.462965273557955"><ele>391.0</ele><time>2026-04-06T10:26:27.999Z</time></trkpt><trkpt lat="43.392792621857375" lon="11.46310172148248"><ele>391.0</ele><time>2026-04-06T10:26:28.999Z</time></trkpt><trkpt lat="43.39285785923441" lon="11.463234345480721"><ele>391.0</ele><time>2026-04-06T10:26:29.999Z</time></trkpt><trkpt lat="43.39292063181537" lon="11.463357180170975"><ele>391.0</ele><time>2026-04-06T10:26:30.999Z</time></trkpt><trkpt lat="43.39299348462458" lon="11.463485753842809"><ele>391.0</ele><time>2026-04-06T10:26:31.999Z</time></trkpt><trkpt lat="43.39305665120143" lon="11.463604843537318"><ele>391.0</ele><time>2026-04-06T10:26:32.999Z</time></trkpt><trkpt lat="43.39314494932878" lon="11.463730904328171"><ele>391.0</ele><time>2026-04-06T10:26:33.999Z</time></trkpt><trkpt lat="43.39323212371389" lon="11.46383139023584"><ele>391.0</ele><time>2026-04-06T10:26:34.999Z</time></trkpt><trkpt lat="43.393331195185134" lon="11.463903422953992"><ele>391.0</ele><time>2026-04-06T10:26:35.999Z</time></trkpt><trkpt lat="43.393447502589034" lon="11.46394593853957"><ele>387.4</ele><time>2026-04-06T10:26:36.999Z</time></trkpt><trkpt lat="43.393552583198115" lon="11.464017370342825"><ele>383.8</ele><time>2026-04-06T10:26:37.999Z</time></trkpt><trkpt lat="43.39363572755868" lon="11.464120620422882"><ele>380.2</ele><time>2026-04-06T10:26:38.999Z</time></trkpt><trkpt lat="43.39369810222965" lon="11.464223945766534"><ele>376.59999999999997</ele><time>2026-04-06T10:26:39.999Z</time></trkpt><trkpt lat="43.3937251756166" lon="11.464351015010486"><ele>373.0</ele><time>2026-04-06T10:26:40.999Z</time></trkpt><trkpt lat="43.39373888805751" lon="11.464477588764227"><ele>373.0</ele><time>2026-04-06T10:26:41.999Z</time></trkpt><trkpt lat="43.39376623622848" lon="11.464596525440042"><ele>373.0</ele><time>2026-04-06T10:26:42.999Z</time></trkpt><trkpt lat="43.393791214824475" lon="11.464724737554006"><ele>373.0</ele><time>2026-04-06T10:26:43.999Z</time></trkpt><trkpt lat="43.393835093583725" lon="11.46483653826405"><ele>373.0</ele><time>2026-04-06T10:26:44.999Z</time></trkpt><trkpt lat="43.393893489567304" lon="11.464946357357526"><ele>373.0</ele><time>2026-04-06T10:26:45.999Z</time></trkpt><trkpt lat="43.39397693463033" lon="11.465028416062658"><ele>373.0</ele><time>2026-04-06T10:26:46.999Z</time></trkpt><trkpt lat="43.39406304662194" lon="11.4650979734864"><ele>373.0</ele><time>2026-04-06T10:26:47.999Z</time></trkpt><trkpt lat="43.394159591174166" lon="11.465166372502274"><ele>373.0</ele><time>2026-04-06T10:26:48.999Z</time></trkpt><trkpt lat="43.39426183663051" lon="11.465225771351285"><ele>373.0</ele><time>2026-04-06T10:26:49.998Z</time></trkpt><trkpt lat="43.3943778008902" lon="11.465267025679129"><ele>373.0</ele><time>2026-04-06T10:26:50.998Z</time></trkpt><trkpt lat="43.394505791747704" lon="11.4653192718879"><ele>373.0</ele><time>2026-04-06T10:26:51.998Z</time></trkpt><trkpt lat="43.394631662802354" lon="11.465373516593305"><ele>373.0</ele><time>2026-04-06T10:26:52.998Z</time></trkpt><trkpt lat="43.394754537952956" lon="11.465421341282356"><ele>373.0</ele><time>2026-04-06T10:26:53.998Z</time></trkpt><trkpt lat="43.39487901645562" lon="11.465489544513327"><ele>373.0</ele><time>2026-04-06T10:26:54.998Z</time></trkpt><trkpt lat="43.39500087298744" lon="11.465519791108957"><ele>370.2</ele><time>2026-04-06T10:26:55.998Z</time></trkpt><trkpt lat="43.395111265342" lon="11.465565380444747"><ele>367.4</ele><time>2026-04-06T10:26:56.998Z</time></trkpt><trkpt lat="43.395217126678446" lon="11.46559041292865"><ele>364.59999999999997</ele><time>2026-04-06T10:26:57.998Z</time></trkpt><trkpt lat="43.39531569677886" lon="11.465648077609089"><ele>361.79999999999995</ele><time>2026-04-06T10:26:58.998Z</time></trkpt><trkpt lat="43.39540458151742" lon="11.465656105021598"><ele>359.0</ele><time>2026-04-06T10:26:59.998Z</time></trkpt><trkpt lat="43.3954913084803" lon="11.465703190908895"><ele>359.79999999999995</ele><time>2026-04-06T10:27:00.998Z</time></trkpt><trkpt lat="43.395560562908386" lon="11.465766989699917"><ele>360.59999999999997</ele><time>2026-04-06T10:27:01.998Z</time></trkpt><trkpt lat="43.39564721006068" lon="11.465846287315548"><ele>361.4</ele><time>2026-04-06T10:27:03.998Z</time></trkpt><trkpt lat="43.395744670121076" lon="11.465943250927685"><ele>362.2</ele><time>2026-04-06T10:27:04.998Z</time></trkpt><trkpt lat="43.39583847081346" lon="11.46598342051553"><ele>363.0</ele><time>2026-04-06T10:27:05.998Z</time></trkpt><trkpt lat="43.395910837991856" lon="11.465982627024584"><ele>363.0</ele><time>2026-04-06T10:27:06.998Z</time></trkpt><trkpt lat="43.39600056883818" lon="11.465998609753719"><ele>363.0</ele><time>2026-04-06T10:27:07.998Z</time></trkpt><trkpt lat="43.39610184262424" lon="11.466037617090866"><ele>363.0</ele><time>2026-04-06T10:27:08.998Z</time></trkpt><trkpt lat="43.39621618867988" lon="11.466076458754648"><ele>363.0</ele><time>2026-04-06T10:27:09.998Z</time></trkpt><trkpt lat="43.3963263869509" lon="11.466118324313044"><ele>363.0</ele><time>2026-04-06T10:27:10.998Z</time></trkpt><trkpt lat="43.39644249773708" lon="11.46616903126198"><ele>366.0</ele><time>2026-04-06T10:27:11.998Z</time></trkpt><trkpt lat="43.39656724069022" lon="11.466214783990946"><ele>369.0</ele><time>2026-04-06T10:27:12.998Z</time></trkpt><trkpt lat="43.39669972768742" lon="11.466239722010757"><ele>372.0</ele><time>2026-04-06T10:27:13.998Z</time></trkpt><trkpt lat="43.3968311599649" lon="11.466233111474494"><ele>375.0</ele><time>2026-04-06T10:27:14.998Z</time></trkpt><trkpt lat="43.39696354364535" lon="11.466193614204242"><ele>375.0</ele><time>2026-04-06T10:27:15.998Z</time></trkpt><trkpt lat="43.39710403056252" lon="11.466173047936891"><ele>375.0</ele><time>2026-04-06T10:27:16.998Z</time></trkpt><trkpt lat="43.39724102572782" lon="11.466182855260987"><ele>375.0</ele><time>2026-04-06T10:27:17.998Z</time></trkpt><trkpt lat="43.397377400157396" lon="11.466183746589842"><ele>375.0</ele><time>2026-04-06T10:27:18.998Z</time></trkpt><trkpt lat="43.39750651266554" lon="11.466137822525894"><ele>375.0</ele><time>2026-04-06T10:27:19.998Z</time></trkpt><trkpt lat="43.3976195261673" lon="11.46605821154726"><ele>375.0</ele><time>2026-04-06T10:27:20.998Z</time></trkpt><trkpt lat="43.397711607764776" lon="11.465959894650736"><ele>375.0</ele><time>2026-04-06T10:27:21.998Z</time></trkpt><trkpt lat="43.39786950004932" lon="11.4659231262063"><ele>375.0</ele><time>2026-04-06T10:27:22.998Z</time></trkpt><trkpt lat="43.398031267251724" lon="11.465911755700398"><ele>376.3333333333333</ele><time>2026-04-06T10:27:23.998Z</time></trkpt><trkpt lat="43.39817880844011" lon="11.465883486094016"><ele>377.66666666666663</ele><time>2026-04-06T10:27:24.998Z</time></trkpt><trkpt lat="43.398337999561114" lon="11.4658718624987"><ele>379.0</ele><time>2026-04-06T10:27:25.998Z</time></trkpt><trkpt lat="43.39849763141785" lon="11.46587507048075"><ele>379.0</ele><time>2026-04-06T10:27:26.998Z</time></trkpt><trkpt lat="43.39865227907447" lon="11.465900249990035"><ele>379.0</ele><time>2026-04-06T10:27:27.998Z</time></trkpt><trkpt lat="43.39881258595003" lon="11.465912267929244"><ele>379.0</ele><time>2026-04-06T10:27:28.998Z</time></trkpt><trkpt lat="43.39897148712175" lon="11.46592727629763"><ele>380.0</ele><time>2026-04-06T10:27:29.998Z</time></trkpt><trkpt lat="43.39911847652316" lon="11.465922927149185"><ele>381.0</ele><time>2026-04-06T10:27:30.998Z</time></trkpt><trkpt lat="43.39925297478568" lon="11.465907094407624"><ele>382.0</ele><time>2026-04-06T10:27:31.998Z</time></trkpt><trkpt lat="43.39937746305797" lon="11.465849247988196"><ele>383.0</ele><time>2026-04-06T10:27:33Z</time></trkpt><trkpt lat="43.39950923925391" lon="11.465749315074195"><ele>383.0</ele><time>2026-04-06T10:27:34Z</time></trkpt><trkpt lat="43.399659764286625" lon="11.465641400900552"><ele>383.0</ele><time>2026-04-06T10:27:35Z</time></trkpt><trkpt lat="43.39981242199206" lon="11.465616122644528"><ele>383.0</ele><time>2026-04-06T10:27:36Z</time></trkpt><trkpt lat="43.39997003307843" lon="11.46559617684041"><ele>382.75</ele><time>2026-04-06T10:27:37Z</time></trkpt><trkpt lat="43.400108039755146" lon="11.465598863699416"><ele>382.5</ele><time>2026-04-06T10:27:38Z</time></trkpt><trkpt lat="43.40023661162295" lon="11.465563712890127"><ele>382.25</ele><time>2026-04-06T10:27:39Z</time></trkpt><trkpt lat="43.40035453447837" lon="11.465586359240788"><ele>382.0</ele><time>2026-04-06T10:27:40Z</time></trkpt><trkpt lat="43.40049691267391" lon="11.465667958078175"><ele>383.0</ele><time>2026-04-06T10:27:41Z</time></trkpt><trkpt lat="43.40065713214777" lon="11.465692670933082"><ele>384.0</ele><time>2026-04-06T10:27:42Z</time></trkpt><trkpt lat="43.40081980621209" lon="11.465737721958746"><ele>385.0</ele><time>2026-04-06T10:27:43Z</time></trkpt><trkpt lat="43.40096414444099" lon="11.465775532555075"><ele>385.0</ele><time>2026-04-06T10:27:44Z</time></trkpt><trkpt lat="43.40110808985394" lon="11.465741954918462"><ele>385.0</ele><time>2026-04-06T10:27:45Z</time></trkpt><trkpt lat="43.40128017683313" lon="11.465712558812813"><ele>385.0</ele><time>2026-04-06T10:27:46Z</time></trkpt><trkpt lat="43.40145113393644" lon="11.465709178114286"><ele>385.6666666666667</ele><time>2026-04-06T10:27:47Z</time></trkpt><trkpt lat="43.40161197450943" lon="11.4657281399529"><ele>386.33333333333337</ele><time>2026-04-06T10:27:48Z</time></trkpt><trkpt lat="43.40177490301435" lon="11.465769068434573"><ele>387.0</ele><time>2026-04-06T10:27:49Z</time></trkpt><trkpt lat="43.401941960217044" lon="11.465801952912614"><ele>387.0</ele><time>2026-04-06T10:27:50Z</time></trkpt><trkpt lat="43.402098396887176" lon="11.465819285715629"><ele>387.0</ele><time>2026-04-06T10:27:51Z</time></trkpt><trkpt lat="43.40226552675426" lon="11.465851117026514"><ele>387.0</ele><time>2026-04-06T10:27:52Z</time></trkpt><trkpt lat="43.4024278115633" lon="11.465869573647115"><ele>388.66666666666663</ele><time>2026-04-06T10:27:53Z</time></trkpt><trkpt lat="43.402592542438285" lon="11.46587710529303"><ele>390.3333333333333</ele><time>2026-04-06T10:27:54Z</time></trkpt><trkpt lat="43.40275032127499" lon="11.465876614035926"><ele>392.0</ele><time>2026-04-06T10:27:55Z</time></trkpt><trkpt lat="43.40290666978493" lon="11.465858411205476"><ele>392.3333333333333</ele><time>2026-04-06T10:27:56Z</time></trkpt><trkpt lat="43.40307459366169" lon="11.46582001699733"><ele>392.66666666666663</ele><time>2026-04-06T10:27:57Z</time></trkpt><trkpt lat="43.40323678425067" lon="11.465793340803732"><ele>393.0</ele><time>2026-04-06T10:27:58Z</time></trkpt><trkpt lat="43.4033945530486" lon="11.465799636644771"><ele>393.0</ele><time>2026-04-06T10:27:59Z</time></trkpt><trkpt lat="43.403545235886924" lon="11.465844364441338"><ele>393.0</ele><time>2026-04-06T10:28:00Z</time></trkpt><trkpt lat="43.40368938595171" lon="11.465916533892635"><ele>393.0</ele><time>2026-04-06T10:28:01Z</time></trkpt><trkpt lat="43.40380582520825" lon="11.466045069206292"><ele>393.66666666666663</ele><time>2026-04-06T10:28:01.999Z</time></trkpt><trkpt lat="43.40392830858251" lon="11.466170552116603"><ele>394.3333333333333</ele><time>2026-04-06T10:28:02.999Z</time></trkpt><trkpt lat="43.40405446424616" lon="11.466287276092539"><ele>395.0</ele><time>2026-04-06T10:28:03.999Z</time></trkpt><trkpt lat="43.40420032245553" lon="11.466366461726192"><ele>395.0</ele><time>2026-04-06T10:28:04.999Z</time></trkpt><trkpt lat="43.40433716358065" lon="11.466453756467212"><ele>395.0</ele><time>2026-04-06T10:28:05.999Z</time></trkpt><trkpt lat="43.40447419384417" lon="11.466520660683235"><ele>395.0</ele><time>2026-04-06T10:28:06.999Z</time></trkpt><trkpt lat="43.404621873409226" lon="11.466601095407723"><ele>398.66666666666663</ele><time>2026-04-06T10:28:07.999Z</time></trkpt><trkpt lat="43.40476640654079" lon="11.466677259119631"><ele>402.33333333333337</ele><time>2026-04-06T10:28:08.999Z</time></trkpt><trkpt lat="43.40491363220183" lon="11.466743277150792"><ele>406.0</ele><time>2026-04-06T10:28:09.999Z</time></trkpt><trkpt lat="43.405063676818024" lon="11.466806949939594"><ele>406.0</ele><time>2026-04-06T10:28:10.999Z</time></trkpt><trkpt lat="43.4052143202093" lon="11.466887878356925"><ele>406.0</ele><time>2026-04-06T10:28:11.999Z</time></trkpt><trkpt lat="43.40537030360708" lon="11.466956616683715"><ele>406.0</ele><time>2026-04-06T10:28:12.999Z</time></trkpt><trkpt lat="43.405525140355564" lon="11.467015795006192"><ele>406.0</ele><time>2026-04-06T10:28:13.999Z</time></trkpt><trkpt lat="43.40568003844268" lon="11.467070422955759"><ele>406.0</ele><time>2026-04-06T10:28:14.999Z</time></trkpt><trkpt lat="43.40583503285064" lon="11.467115423739644"><ele>406.0</ele><time>2026-04-06T10:28:15.999Z</time></trkpt><trkpt lat="43.40598987432049" lon="11.46715528325271"><ele>406.0</ele><time>2026-04-06T10:28:16.999Z</time></trkpt><trkpt lat="43.40614144367944" lon="11.467191312827458"><ele>406.0</ele><time>2026-04-06T10:28:17.999Z</time></trkpt><trkpt lat="43.40629253509521" lon="11.467232212890371"><ele>406.0</ele><time>2026-04-06T10:28:18.999Z</time></trkpt><trkpt lat="43.40644015609741" lon="11.467309421453894"><ele>409.6666666666667</ele><time>2026-04-06T10:28:19.999Z</time></trkpt><trkpt lat="43.40657518954814" lon="11.467421977877587"><ele>413.33333333333337</ele><time>2026-04-06T10:28:20.999Z</time></trkpt><trkpt lat="43.40670038804398" lon="11.467546399976086"><ele>417.0</ele><time>2026-04-06T10:28:21.999Z</time></trkpt><trkpt lat="43.406820528644374" lon="11.467666828042915"><ele>417.0</ele><time>2026-04-06T10:28:22.999Z</time></trkpt><trkpt lat="43.406953520199075" lon="11.467759114667908"><ele>417.0</ele><time>2026-04-06T10:28:23.999Z</time></trkpt><trkpt lat="43.40710524388575" lon="11.467820316627988"><ele>417.0</ele><time>2026-04-06T10:28:24.999Z</time></trkpt><trkpt lat="43.407264375153986" lon="11.467846062235747"><ele>421.0</ele><time>2026-04-06T10:28:25.999Z</time></trkpt><trkpt lat="43.40741802856039" lon="11.467841953234476"><ele>425.0</ele><time>2026-04-06T10:28:26.999Z</time></trkpt><trkpt lat="43.40756445940436" lon="11.46783890976758"><ele>429.0</ele><time>2026-04-06T10:28:27.999Z</time></trkpt><trkpt lat="43.407706610958236" lon="11.467836584648456"><ele>433.0</ele><time>2026-04-06T10:28:28.999Z</time></trkpt><trkpt lat="43.40783968160279" lon="11.467790499901628"><ele>433.0</ele><time>2026-04-06T10:28:29.999Z</time></trkpt><trkpt lat="43.407971179187975" lon="11.467740183337048"><ele>433.0</ele><time>2026-04-06T10:28:30.999Z</time></trkpt><trkpt lat="43.408085165617074" lon="11.467657726884436"><ele>433.0</ele><time>2026-04-06T10:28:31.999Z</time></trkpt><trkpt lat="43.40818693610585" lon="11.467554803123386"><ele>433.0</ele><time>2026-04-06T10:28:32.999Z</time></trkpt><trkpt lat="43.40829308865029" lon="11.46744360058511"><ele>432.0</ele><time>2026-04-06T10:28:33.999Z</time></trkpt><trkpt lat="43.40844647077262" lon="11.467340756367014"><ele>431.0</ele><time>2026-04-06T10:28:34.999Z</time></trkpt><trkpt lat="43.40858578860388" lon="11.467333233258133"><ele>430.0</ele><time>2026-04-06T10:28:35.999Z</time></trkpt><trkpt lat="43.40870110938058" lon="11.467426813286586"><ele>429.0</ele><time>2026-04-06T10:28:36.999Z</time></trkpt><trkpt lat="43.40880507793673" lon="11.467490467311753"><ele>429.25</ele><time>2026-04-06T10:28:37.999Z</time></trkpt><trkpt lat="43.40890701662694" lon="11.46753880228369"><ele>429.5</ele><time>2026-04-06T10:28:38.999Z</time></trkpt><trkpt lat="43.40901903429455" lon="11.467579847150347"><ele>429.75</ele><time>2026-04-06T10:28:39.999Z</time></trkpt><trkpt lat="43.40913700294201" lon="11.46759718037796"><ele>430.0</ele><time>2026-04-06T10:28:40.999Z</time></trkpt><trkpt lat="43.409247469604274" lon="11.467600192306472"><ele>430.0</ele><time>2026-04-06T10:28:41.999Z</time></trkpt><trkpt lat="43.40936864824316" lon="11.467603125682022"><ele>430.0</ele><time>2026-04-06T10:28:42.999Z</time></trkpt><trkpt lat="43.409494420345204" lon="11.467579224858596"><ele>430.0</ele><time>2026-04-06T10:28:43.999Z</time></trkpt><trkpt lat="43.40961902291629" lon="11.467524522201018"><ele>430.0</ele><time>2026-04-06T10:28:44.999Z</time></trkpt><trkpt lat="43.40975248907492" lon="11.46749489230727"><ele>431.0</ele><time>2026-04-06T10:28:45.999Z</time></trkpt><trkpt lat="43.409890770216585" lon="11.467465642356657"><ele>432.0</ele><time>2026-04-06T10:28:46.999Z</time></trkpt><trkpt lat="43.41002952169729" lon="11.467444739392588"><ele>433.0</ele><time>2026-04-06T10:28:47.999Z</time></trkpt><trkpt lat="43.41016218778526" lon="11.467451583767621"><ele>434.0</ele><time>2026-04-06T10:28:48.999Z</time></trkpt><trkpt lat="43.410294391734396" lon="11.467466239443933"><ele>434.0</ele><time>2026-04-06T10:28:49.999Z</time></trkpt><trkpt lat="43.410436266984576" lon="11.467442962624663"><ele>434.0</ele><time>2026-04-06T10:28:50.999Z</time></trkpt><trkpt lat="43.41058196835869" lon="11.467389849558476"><ele>434.0</ele><time>2026-04-06T10:28:51.999Z</time></trkpt><trkpt lat="43.410732112208464" lon="11.467317221796941"><ele>435.0</ele><time>2026-04-06T10:28:52.999Z</time></trkpt><trkpt lat="43.41088097241164" lon="11.467263032641167"><ele>436.0</ele><time>2026-04-06T10:28:53.999Z</time></trkpt><trkpt lat="43.41103018888896" lon="11.467229522304638"><ele>437.0</ele><time>2026-04-06T10:28:54.999Z</time></trkpt><trkpt lat="43.41117954923522" lon="11.467224873016217"><ele>438.0</ele><time>2026-04-06T10:28:55.999Z</time></trkpt><trkpt lat="43.41133596931613" lon="11.46723324432804"><ele>439.0</ele><time>2026-04-06T10:28:56.998Z</time></trkpt><trkpt lat="43.41149404532231" lon="11.46722239763062"><ele>440.0</ele><time>2026-04-06T10:28:57.998Z</time></trkpt><trkpt lat="43.41165666104942" lon="11.467186500036306"><ele>440.0</ele><time>2026-04-06T10:28:58.998Z</time></trkpt><trkpt lat="43.41181704934284" lon="11.467131121643185"><ele>440.0</ele><time>2026-04-06T10:28:59.998Z</time></trkpt><trkpt lat="43.41197705314232" lon="11.467069133485047"><ele>440.0</ele><time>2026-04-06T10:29:00.998Z</time></trkpt><trkpt lat="43.412141097233715" lon="11.467015312552226"><ele>447.0</ele><time>2026-04-06T10:29:01.998Z</time></trkpt><trkpt lat="43.41230750531249" lon="11.466979205939367"><ele>454.0</ele><time>2026-04-06T10:29:02.998Z</time></trkpt><trkpt lat="43.41247500789973" lon="11.466967336582089"><ele>461.0</ele><time>2026-04-06T10:29:03.998Z</time></trkpt><trkpt lat="43.4126358091724" lon="11.466967484188071"><ele>461.0</ele><time>2026-04-06T10:29:04.998Z</time></trkpt><trkpt lat="43.412793376089446" lon="11.466955285125158"><ele>461.0</ele><time>2026-04-06T10:29:05.998Z</time></trkpt><trkpt lat="43.412945860621505" lon="11.466939461665714"><ele>461.0</ele><time>2026-04-06T10:29:06.998Z</time></trkpt><trkpt lat="43.41309918899597" lon="11.466946833959682"><ele>461.3333333333333</ele><time>2026-04-06T10:29:07.998Z</time></trkpt><trkpt lat="43.41325276766556" lon="11.466985891114975"><ele>461.66666666666663</ele><time>2026-04-06T10:29:08.998Z</time></trkpt><trkpt lat="43.41340813014179" lon="11.467039686222522"><ele>462.0</ele><time>2026-04-06T10:29:09.998Z</time></trkpt><trkpt lat="43.41356225171207" lon="11.467098006355803"><ele>462.33333333333337</ele><time>2026-04-06T10:29:10.998Z</time></trkpt><trkpt lat="43.413716427971956" lon="11.467153854248547"><ele>462.6666666666667</ele><time>2026-04-06T10:29:11.998Z</time></trkpt><trkpt lat="43.413863073214095" lon="11.467214469170813"><ele>463.0</ele><time>2026-04-06T10:29:12.998Z</time></trkpt><trkpt lat="43.41400862102574" lon="11.467265441887387"><ele>463.25</ele><time>2026-04-06T10:29:13.998Z</time></trkpt><trkpt lat="43.41413865741997" lon="11.467275452787776"><ele>463.5</ele><time>2026-04-06T10:29:14.998Z</time></trkpt><trkpt lat="43.41427423042692" lon="11.46723005627118"><ele>463.75</ele><time>2026-04-06T10:29:15.998Z</time></trkpt><trkpt lat="43.41438900389641" lon="11.46713621089219"><ele>464.0</ele><time>2026-04-06T10:29:16.998Z</time></trkpt><trkpt lat="43.41448775537801" lon="11.467008748949638"><ele>464.0</ele><time>2026-04-06T10:29:17.998Z</time></trkpt><trkpt lat="43.41455222944454" lon="11.466838780457712"><ele>464.0</ele><time>2026-04-06T10:29:18.998Z</time></trkpt><trkpt lat="43.41459425061741" lon="11.466668003844068"><ele>464.0</ele><time>2026-04-06T10:29:19.998Z</time></trkpt><trkpt lat="43.41466184913524" lon="11.466496357361933"><ele>464.0</ele><time>2026-04-06T10:29:20.998Z</time></trkpt><trkpt lat="43.4147117852927" lon="11.466300949018327"><ele>464.25</ele><time>2026-04-06T10:29:21.998Z</time></trkpt><trkpt lat="43.414799753938134" lon="11.46613291878777"><ele>464.5</ele><time>2026-04-06T10:29:22.998Z</time></trkpt><trkpt lat="43.414891542250245" lon="11.465974385484516"><ele>464.75</ele><time>2026-04-06T10:29:23.998Z</time></trkpt><trkpt lat="43.41500365302371" lon="11.465837883538356"><ele>465.0</ele><time>2026-04-06T10:29:24.998Z</time></trkpt><trkpt lat="43.41511693585423" lon="11.465715769854652"><ele>465.0</ele><time>2026-04-06T10:29:25.998Z</time></trkpt><trkpt lat="43.415220284674255" lon="11.465567405783027"><ele>465.0</ele><time>2026-04-06T10:29:26.998Z</time></trkpt><trkpt lat="43.41530003073587" lon="11.465388663208257"><ele>465.0</ele><time>2026-04-06T10:29:27.998Z</time></trkpt><trkpt lat="43.415373656566906" lon="11.46520540096179"><ele>461.66666666666663</ele><time>2026-04-06T10:29:28.998Z</time></trkpt><trkpt lat="43.415462193015195" lon="11.465028479522129"><ele>458.3333333333333</ele><time>2026-04-06T10:29:29.998Z</time></trkpt><trkpt lat="43.41556191262821" lon="11.464871820188511"><ele>455.0</ele><time>2026-04-06T10:29:30.998Z</time></trkpt><trkpt lat="43.41565584012613" lon="11.464709397500958"><ele>460.0</ele><time>2026-04-06T10:29:31.998Z</time></trkpt><trkpt lat="43.41573719924645" lon="11.46452968567174"><ele>465.0</ele><time>2026-04-06T10:29:32.998Z</time></trkpt><trkpt lat="43.41582210964127" lon="11.464348212155631"><ele>470.0</ele><time>2026-04-06T10:29:33.998Z</time></trkpt><trkpt lat="43.415908607889484" lon="11.464170121837412"><ele>470.0</ele><time>2026-04-06T10:29:34.998Z</time></trkpt><trkpt lat="43.415998382720474" lon="11.464022409536856"><ele>470.0</ele><time>2026-04-06T10:29:35.998Z</time></trkpt><trkpt lat="43.41608434501115" lon="11.46388487230056"><ele>470.0</ele><time>2026-04-06T10:29:36.998Z</time></trkpt><trkpt lat="43.416172404672714" lon="11.46375985011388"><ele>470.0</ele><time>2026-04-06T10:29:37.998Z</time></trkpt><trkpt lat="43.41624487623825" lon="11.46363557666291"><ele>471.25</ele><time>2026-04-06T10:29:39Z</time></trkpt><trkpt lat="43.41631751929161" lon="11.463486672302304"><ele>472.5</ele><time>2026-04-06T10:29:40Z</time></trkpt><trkpt lat="43.41638332171873" lon="11.463330934122887"><ele>473.75</ele><time>2026-04-06T10:29:41Z</time></trkpt><trkpt lat="43.41644438163549" lon="11.463165892400864"><ele>475.0</ele><time>2026-04-06T10:29:42Z</time></trkpt><trkpt lat="43.416493843334244" lon="11.463009244725875"><ele>471.0</ele><time>2026-04-06T10:29:43Z</time></trkpt><trkpt lat="43.41649914096852" lon="11.462860756645044"><ele>467.0</ele><time>2026-04-06T10:29:44Z</time></trkpt><trkpt lat="43.41647526980213" lon="11.46271385782712"><ele>463.0</ele><time>2026-04-06T10:29:45Z</time></trkpt><trkpt lat="43.416438810397146" lon="11.462567851361145"><ele>459.0</ele><time>2026-04-06T10:29:46Z</time></trkpt><trkpt lat="43.41639989574034" lon="11.462421858759411"><ele>455.0</ele><time>2026-04-06T10:29:47Z</time></trkpt><trkpt lat="43.416380924497794" lon="11.462221277925142"><ele>454.75</ele><time>2026-04-06T10:29:48Z</time></trkpt><trkpt lat="43.41643444795177" lon="11.462005770067428"><ele>454.5</ele><time>2026-04-06T10:29:49Z</time></trkpt><trkpt lat="43.416560025017475" lon="11.461861221232873"><ele>454.25</ele><time>2026-04-06T10:29:50Z</time></trkpt><trkpt lat="43.416632749661616" lon="11.461755898802217"><ele>454.0</ele><time>2026-04-06T10:29:51Z</time></trkpt><trkpt lat="43.41668461277434" lon="11.46163913872514"><ele>454.00000000000006</ele><time>2026-04-06T10:29:52Z</time></trkpt><trkpt lat="43.416711471130455" lon="11.461523217779684"><ele>454.0</ele><time>2026-04-06T10:29:53Z</time></trkpt><trkpt lat="43.416716936258275" lon="11.461406006928234"><ele>454.0</ele><time>2026-04-06T10:29:54Z</time></trkpt><trkpt lat="43.41671227077107" lon="11.461310075599574"><ele>454.0</ele><time>2026-04-06T10:29:55Z</time></trkpt><trkpt lat="43.41669083972486" lon="11.461201440215453"><ele>454.00000000000006</ele><time>2026-04-06T10:29:56Z</time></trkpt><trkpt lat="43.416644103692896" lon="11.461052820515587"><ele>454.0</ele><time>2026-04-06T10:29:57Z</time></trkpt><trkpt lat="43.41658097232516" lon="11.46093231344445"><ele>453.25</ele><time>2026-04-06T10:29:58Z</time></trkpt><trkpt lat="43.41650540430983" lon="11.460830920137633"><ele>452.5</ele><time>2026-04-06T10:29:59Z</time></trkpt><trkpt lat="43.41641591822539" lon="11.46074385426078"><ele>451.75</ele><time>2026-04-06T10:30:00Z</time></trkpt><trkpt lat="43.416307883466885" lon="11.460651465101128"><ele>451.0</ele><time>2026-04-06T10:30:01Z</time></trkpt><trkpt lat="43.416188606214895" lon="11.460500554389435"><ele>453.0</ele><time>2026-04-06T10:30:02Z</time></trkpt><trkpt lat="43.416105830813706" lon="11.46019826981743"><ele>455.0</ele><time>2026-04-06T10:30:03Z</time></trkpt><trkpt lat="43.416111644197606" lon="11.460032166285936"><ele>457.0</ele><time>2026-04-06T10:30:04Z</time></trkpt><trkpt lat="43.416103103085845" lon="11.459829957986496"><ele>457.00000000000006</ele><time>2026-04-06T10:30:06Z</time></trkpt><trkpt lat="43.41609059737017" lon="11.459718798290867"><ele>457.0</ele><time>2026-04-06T10:30:07Z</time></trkpt><trkpt lat="43.41605689945592" lon="11.459640083851799"><ele>457.0</ele><time>2026-04-06T10:30:07.999Z</time></trkpt><trkpt lat="43.416001852636334" lon="11.459549961279345"><ele>457.0</ele><time>2026-04-06T10:30:08.999Z</time></trkpt><trkpt lat="43.415962330985145" lon="11.45946074786288"><ele>457.00000000000006</ele><time>2026-04-06T10:30:09.999Z</time></trkpt><trkpt lat="43.41593465285281" lon="11.45934396418875"><ele>457.0</ele><time>2026-04-06T10:30:11.999Z</time></trkpt><trkpt lat="43.41589528886187" lon="11.459271561650274"><ele>455.25</ele><time>2026-04-06T10:30:13.999Z</time></trkpt><trkpt lat="43.41572990269764" lon="11.459346219163615"><ele>453.5</ele><time>2026-04-06T10:30:15.999Z</time></trkpt><trkpt lat="43.415825768895864" lon="11.459331048359452"><ele>451.75</ele><time>2026-04-06T10:30:16.999Z</time></trkpt><trkpt lat="43.41586340332113" lon="11.459441435703617"><ele>450.0</ele><time>2026-04-06T10:30:20.999Z</time></trkpt><trkpt lat="43.41588407737143" lon="11.459581672416679"><ele>451.4</ele><time>2026-04-06T10:30:22.999Z</time></trkpt><trkpt lat="43.41588658178084" lon="11.459715259094489"><ele>452.8</ele><time>2026-04-06T10:30:24.999Z</time></trkpt><trkpt lat="43.41589315442996" lon="11.459873867739773"><ele>454.20000000000005</ele><time>2026-04-06T10:30:26.999Z</time></trkpt><trkpt lat="43.415896016840755" lon="11.460039552080874"><ele>455.6</ele><time>2026-04-06T10:30:28.999Z</time></trkpt><trkpt lat="43.41589651658251" lon="11.460189311814528"><ele>457.0</ele><time>2026-04-06T10:30:30.999Z</time></trkpt><trkpt lat="43.41591630223233" lon="11.460341627716296"><ele>457.0</ele><time>2026-04-06T10:30:32.999Z</time></trkpt><trkpt lat="43.41593064497211" lon="11.46042828494027"><ele>457.00000000000006</ele><time>2026-04-06T10:30:33.999Z</time></trkpt><trkpt lat="43.41597385893542" lon="11.460580755888532"><ele>457.00000000000006</ele><time>2026-04-06T10:30:35.999Z</time></trkpt><trkpt lat="43.41604760426786" lon="11.46072871413441"><ele>457.0</ele><time>2026-04-06T10:30:37.999Z</time></trkpt><trkpt lat="43.416095609008046" lon="11.46085556502513"><ele>457.0</ele><time>2026-04-06T10:30:39.999Z</time></trkpt><trkpt lat="43.41606924290168" lon="11.460983075819303"><ele>459.33333333333337</ele><time>2026-04-06T10:30:40.999Z</time></trkpt><trkpt lat="43.416121039578044" lon="11.461120732418935"><ele>461.6666666666667</ele><time>2026-04-06T10:30:42.999Z</time></trkpt><trkpt lat="43.416121473387946" lon="11.461239576656766"><ele>464.0</ele><time>2026-04-06T10:30:44.999Z</time></trkpt><trkpt lat="43.4160743496009" lon="11.461319902763128"><ele>466.33333333333337</ele><time>2026-04-06T10:30:47.999Z</time></trkpt><trkpt lat="43.41600575156172" lon="11.461375107209168"><ele>468.6666666666667</ele><time>2026-04-06T10:31:09.998Z</time></trkpt><trkpt lat="43.41592750372183" lon="11.461405614676147"><ele>471.0</ele><time>2026-04-06T10:31:11.998Z</time></trkpt><trkpt lat="43.415817631427124" lon="11.461409275622422"><ele>471.0</ele><time>2026-04-06T10:31:14.998Z</time></trkpt><trkpt lat="43.41574034343211" lon="11.46133405706492"><ele>471.0</ele><time>2026-04-06T10:31:16.998Z</time></trkpt><trkpt lat="43.41570701549576" lon="11.461249358484274"><ele>471.0</ele><time>2026-04-06T10:31:17.998Z</time></trkpt><trkpt lat="43.41567425833893" lon="11.461098306199627"><ele>471.0</ele><time>2026-04-06T10:31:19.998Z</time></trkpt><trkpt lat="43.415621642861936" lon="11.460889579937476"><ele>471.0</ele><time>2026-04-06T10:31:21.998Z</time></trkpt><trkpt lat="43.41558249740899" lon="11.46078717604812"><ele>471.0</ele><time>2026-04-06T10:31:22.998Z</time></trkpt><trkpt lat="43.41552287335153" lon="11.460699887950192"><ele>471.0</ele><time>2026-04-06T10:31:23.998Z</time></trkpt><trkpt lat="43.41546201033583" lon="11.460670800860317"><ele>471.0</ele><time>2026-04-06T10:31:24.998Z</time></trkpt><trkpt lat="43.41540417283636" lon="11.460625376153486"><ele>471.0</ele><time>2026-04-06T10:31:26.998Z</time></trkpt><trkpt lat="43.41546866827029" lon="11.460676031958863"><ele>471.0</ele><time>2026-04-06T10:31:36.998Z</time></trkpt><trkpt lat="43.41556202005259" lon="11.460749380355884"><ele>471.0</ele><time>2026-04-06T10:31:42.998Z</time></trkpt><trkpt lat="43.41562878707595" lon="11.460886773199082"><ele>471.0</ele><time>2026-04-06T10:31:45Z</time></trkpt><trkpt lat="43.41565173547624" lon="11.460982787410188"><ele>471.0</ele><time>2026-04-06T10:31:46Z</time></trkpt><trkpt lat="43.415678807562735" lon="11.46111716892067"><ele>471.0</ele><time>2026-04-06T10:31:48Z</time></trkpt><trkpt lat="43.415700692843586" lon="11.46120187450402"><ele>471.0</ele><time>2026-04-06T10:31:50Z</time></trkpt><trkpt lat="43.414893033893975" lon="11.461959309490386"><ele>474.1666666666667</ele><time>2026-04-06T10:32:19.999Z</time></trkpt><trkpt lat="43.41484502858317" lon="11.462057915310899"><ele>477.33333333333337</ele><time>2026-04-06T10:32:21.999Z</time></trkpt><trkpt lat="43.414806398772924" lon="11.46215129885241"><ele>480.5</ele><time>2026-04-06T10:32:23.999Z</time></trkpt><trkpt lat="43.4147633437417" lon="11.462250873892502"><ele>483.6666666666667</ele><time>2026-04-06T10:32:25.999Z</time></trkpt><trkpt lat="43.414712659243555" lon="11.46235750549777"><ele>486.83333333333337</ele><time>2026-04-06T10:32:28.999Z</time></trkpt><trkpt lat="43.414699261995004" lon="11.462480439468864"><ele>490.0</ele><time>2026-04-06T10:32:31.999Z</time></trkpt><trkpt lat="43.41467823230748" lon="11.46264772611114"><ele>491.6</ele><time>2026-04-06T10:32:33.999Z</time></trkpt><trkpt lat="43.414674020636376" lon="11.462792653817008"><ele>493.2</ele><time>2026-04-06T10:32:35.999Z</time></trkpt><trkpt lat="43.414654214217315" lon="11.462951508188368"><ele>494.79999999999995</ele><time>2026-04-06T10:32:37.999Z</time></trkpt><trkpt lat="43.41465477973785" lon="11.463040881498019"><ele>496.4</ele><time>2026-04-06T10:32:38.999Z</time></trkpt><trkpt lat="43.41468207062945" lon="11.463159658938949"><ele>498.0</ele><time>2026-04-06T10:32:40.999Z</time></trkpt><trkpt lat="43.41468275852741" lon="11.46326980323042"><ele>500.0</ele><time>2026-04-06T10:32:42.999Z</time></trkpt><trkpt lat="43.41467057737224" lon="11.463394019918484"><ele>501.99999999999994</ele><time>2026-04-06T10:32:44.999Z</time></trkpt><trkpt lat="43.4146606085393" lon="11.463491513820621"><ele>503.99999999999994</ele><time>2026-04-06T10:32:45.999Z</time></trkpt><trkpt lat="43.41464236581866" lon="11.463652734448251"><ele>506.0</ele><time>2026-04-06T10:32:47.999Z</time></trkpt><trkpt lat="43.41461204588174" lon="11.463770854822348"><ele>508.0</ele><time>2026-04-06T10:32:49.999Z</time></trkpt><trkpt lat="43.41455238121261" lon="11.463888297462304"><ele>511.2</ele><time>2026-04-06T10:32:51.999Z</time></trkpt><trkpt lat="43.41447896750076" lon="11.46402399185578"><ele>514.4</ele><time>2026-04-06T10:32:52.999Z</time></trkpt><trkpt lat="43.41438704106441" lon="11.464129649417963"><ele>517.5999999999999</ele><time>2026-04-06T10:32:54.999Z</time></trkpt><trkpt lat="43.414333147452" lon="11.464185764301526"><ele>520.8</ele><time>2026-04-06T10:32:55.999Z</time></trkpt><trkpt lat="43.41426995382025" lon="11.46422905621506"><ele>524.0</ele><time>2026-04-06T10:32:56.999Z</time></trkpt><trkpt lat="43.41418868087191" lon="11.46430381522093"><ele>524.0</ele><time>2026-04-06T10:32:57.999Z</time></trkpt><trkpt lat="43.414093646717305" lon="11.464394237105454"><ele>524.0</ele><time>2026-04-06T10:32:59.999Z</time></trkpt><trkpt lat="43.41400021235515" lon="11.464434617518291"><ele>524.0</ele><time>2026-04-06T10:33:01.999Z</time></trkpt><trkpt lat="43.413927242956376" lon="11.464484800976853"><ele>524.0</ele><time>2026-04-06T10:33:02.999Z</time></trkpt><trkpt lat="43.413863808424345" lon="11.464504574877145"><ele>524.0</ele><time>2026-04-06T10:33:03.999Z</time></trkpt><trkpt lat="43.41376264637281" lon="11.464548016657538"><ele>525.4</ele><time>2026-04-06T10:33:05.999Z</time></trkpt><trkpt lat="43.41366981386491" lon="11.46459139451423"><ele>526.8</ele><time>2026-04-06T10:33:07.999Z</time></trkpt><trkpt lat="43.413575006100565" lon="11.464611773942018"><ele>528.2</ele><time>2026-04-06T10:33:09.999Z</time></trkpt><trkpt lat="43.41348949611964" lon="11.464609364028666"><ele>529.6</ele><time>2026-04-06T10:33:11.999Z</time></trkpt><trkpt lat="43.41340104502896" lon="11.46456165209535"><ele>531.0</ele><time>2026-04-06T10:33:13.998Z</time></trkpt><trkpt lat="43.41331641827054" lon="11.464555407603624"><ele>531.0</ele><time>2026-04-06T10:33:15.998Z</time></trkpt><trkpt lat="43.41321259067978" lon="11.46450864503163"><ele>531.0</ele><time>2026-04-06T10:33:17.998Z</time></trkpt><trkpt lat="43.41313577585297" lon="11.46445926120611"><ele>531.0</ele><time>2026-04-06T10:33:20.998Z</time></trkpt><trkpt lat="43.4132323235598" lon="11.464371181432464"><ele>531.0</ele><time>2026-04-06T10:33:25.998Z</time></trkpt><trkpt lat="43.413295264119675" lon="11.464353956459036"><ele>531.0</ele><time>2026-04-06T10:33:26.998Z</time></trkpt><trkpt lat="43.413402554997795" lon="11.46434870791353"><ele>531.0</ele><time>2026-04-06T10:33:28.998Z</time></trkpt><trkpt lat="43.41349599925023" lon="11.464331874716395"><ele>531.0</ele><time>2026-04-06T10:33:30.998Z</time></trkpt><trkpt lat="43.41358725579714" lon="11.464289754546451"><ele>531.0</ele><time>2026-04-06T10:33:32.998Z</time></trkpt><trkpt lat="43.41369655444528" lon="11.464249237746152"><ele>531.0</ele><time>2026-04-06T10:33:34.998Z</time></trkpt><trkpt lat="43.4137641427992" lon="11.464238948717314"><ele>531.0</ele><time>2026-04-06T10:33:36.998Z</time></trkpt><trkpt lat="43.41383646006928" lon="11.464249811398988"><ele>531.0</ele><time>2026-04-06T10:33:38.998Z</time></trkpt><trkpt lat="43.41394614287788" lon="11.464232349399333"><ele>529.8333333333334</ele><time>2026-04-06T10:33:41.998Z</time></trkpt><trkpt lat="43.41401256451337" lon="11.464129439052577"><ele>528.6666666666666</ele><time>2026-04-06T10:34:01Z</time></trkpt><trkpt lat="43.414036830089934" lon="11.464046316322644"><ele>527.5</ele><time>2026-04-06T10:34:27.999Z</time></trkpt><trkpt lat="43.41399398008191" lon="11.464121136914846"><ele>526.3333333333333</ele><time>2026-04-06T10:39:11.999Z</time></trkpt><trkpt lat="43.414055178102394" lon="11.464018884107917"><ele>525.1666666666666</ele><time>2026-04-06T10:43:33.999Z</time></trkpt><trkpt lat="43.414090356898654" lon="11.463934730235929"><ele>524.0</ele><time>2026-04-06T10:43:52.998Z</time></trkpt><trkpt lat="43.41409397594186" lon="11.463843516984369"><ele>524.5714285714286</ele><time>2026-04-06T10:44:03.998Z</time></trkpt><trkpt lat="43.41413302742067" lon="11.463757483522755"><ele>525.1428571428572</ele><time>2026-04-06T10:44:13.998Z</time></trkpt><trkpt lat="43.414154879617215" lon="11.463675670224335"><ele>525.7142857142858</ele><time>2026-04-06T10:44:24Z</time></trkpt><trkpt lat="43.41417309386944" lon="11.463589928674766"><ele>526.2857142857143</ele><time>2026-04-06T10:44:31Z</time></trkpt><trkpt lat="43.41419343721219" lon="11.463507751206848"><ele>526.8571428571429</ele><time>2026-04-06T10:44:39Z</time></trkpt><trkpt lat="43.41417994376695" lon="11.46341918141012"><ele>527.4285714285714</ele><time>2026-04-06T10:48:18.998Z</time></trkpt><trkpt lat="43.41414996251038" lon="11.463336564809483"><ele>528.0</ele><time>2026-04-06T10:48:36Z</time></trkpt><trkpt lat="43.414077327689185" lon="11.463313729823636"><ele>528.0</ele><time>2026-04-06T10:48:48Z</time></trkpt><trkpt lat="43.4140181350188" lon="11.463349688277217"><ele>528.0</ele><time>2026-04-06T10:48:53Z</time></trkpt><trkpt lat="43.41395268519461" lon="11.463348619720303"><ele>528.0</ele><time>2026-04-06T10:48:59Z</time></trkpt><trkpt lat="43.41389723322686" lon="11.463276025974354"><ele>528.0</ele><time>2026-04-06T10:49:08Z</time></trkpt><trkpt lat="43.41389723453193" lon="11.463182389470717"><ele>528.0</ele><time>2026-04-06T10:49:30.999Z</time></trkpt><trkpt lat="43.413902568642456" lon="11.46309057167639"><ele>528.0</ele><time>2026-04-06T10:49:49.999Z</time></trkpt><trkpt lat="43.41383232300056" lon="11.463080735141485"><ele>528.0</ele><time>2026-04-06T10:50:18.998Z</time></trkpt><trkpt lat="43.4137623661736" lon="11.463061692968566"><ele>528.4285714285714</ele><time>2026-04-06T10:50:28.998Z</time></trkpt><trkpt lat="43.41370073230181" lon="11.463035757761535"><ele>528.8571428571429</ele><time>2026-04-06T10:50:39Z</time></trkpt><trkpt lat="43.41363211557618" lon="11.463017613122723"><ele>529.2857142857143</ele><time>2026-04-06T10:50:54Z</time></trkpt><trkpt lat="43.4135666330707" lon="11.46299107358488"><ele>529.7142857142858</ele><time>2026-04-06T10:51:04Z</time></trkpt><trkpt lat="43.41350705010407" lon="11.462937367510333"><ele>530.1428571428572</ele><time>2026-04-06T10:51:15.999Z</time></trkpt><trkpt lat="43.41344313853802" lon="11.462921325316733"><ele>530.5714285714286</ele><time>2026-04-06T10:51:25.999Z</time></trkpt><trkpt lat="43.413376946802515" lon="11.46290903455266"><ele>531.0</ele><time>2026-04-06T10:51:34.999Z</time></trkpt><trkpt lat="43.41330149410608" lon="11.462917134022852"><ele>528.4285714285714</ele><time>2026-04-06T10:51:43.999Z</time></trkpt><trkpt lat="43.41323450851729" lon="11.46292272838874"><ele>525.8571428571429</ele><time>2026-04-06T10:52:30.998Z</time></trkpt><trkpt lat="43.41316561426707" lon="11.462900039654297"><ele>523.2857142857143</ele><time>2026-04-06T10:52:39.998Z</time></trkpt><trkpt lat="43.41323386909886" lon="11.462906672024069"><ele>520.7142857142858</ele><time>2026-04-06T10:56:28Z</time></trkpt><trkpt lat="43.41329980023126" lon="11.46289537656503"><ele>518.1428571428571</ele><time>2026-04-06T10:56:37Z</time></trkpt><trkpt lat="43.413382662272056" lon="11.462883772069114"><ele>515.5714285714287</ele><time>2026-04-06T10:56:48Z</time></trkpt><trkpt lat="43.413448993735834" lon="11.462899448169713"><ele>513.0</ele><time>2026-04-06T10:56:55Z</time></trkpt><trkpt lat="43.413519347532656" lon="11.462921686264002"><ele>513.0000000000001</ele><time>2026-04-06T10:57:02.999Z</time></trkpt><trkpt lat="43.413586299990456" lon="11.462945322530823"><ele>513.0</ele><time>2026-04-06T10:57:12.999Z</time></trkpt><trkpt lat="43.413685980717695" lon="11.46296329064757"><ele>513.0</ele><time>2026-04-06T10:57:37.999Z</time></trkpt><trkpt lat="43.41375508083441" lon="11.462979665928039"><ele>513.0</ele><time>2026-04-06T10:57:49.999Z</time></trkpt><trkpt lat="43.413802510866894" lon="11.463038001014095"><ele>513.0</ele><time>2026-04-06T10:58:10.998Z</time></trkpt><trkpt lat="43.41387150788874" lon="11.463048624405499"><ele>513.0000000000001</ele><time>2026-04-06T10:58:22Z</time></trkpt><trkpt lat="43.413931341370024" lon="11.463088117551102"><ele>513.0</ele><time>2026-04-06T10:58:32Z</time></trkpt><trkpt lat="43.41399621074039" lon="11.463094620313232"><ele>515.1428571428572</ele><time>2026-04-06T10:58:39Z</time></trkpt><trkpt lat="43.41402874646117" lon="11.463170203983124"><ele>517.2857142857143</ele><time>2026-04-06T10:58:49Z</time></trkpt><trkpt lat="43.414061014509016" lon="11.463246021610225"><ele>519.4285714285714</ele><time>2026-04-06T10:58:58Z</time></trkpt><trkpt lat="43.41405906135189" lon="11.46333384664039"><ele>521.5714285714287</ele><time>2026-04-06T10:59:06Z</time></trkpt><trkpt lat="43.41400042900663" lon="11.463373136864117"><ele>523.7142857142858</ele><time>2026-04-06T10:59:25.999Z</time></trkpt><trkpt lat="43.413925436958976" lon="11.46336299345088"><ele>525.8571428571429</ele><time>2026-04-06T10:59:48.999Z</time></trkpt><trkpt lat="43.41385706546566" lon="11.463368177171873"><ele>528.0</ele><time>2026-04-06T10:59:58.999Z</time></trkpt><trkpt lat="43.4138048082052" lon="11.463318754114514"><ele>528.4285714285714</ele><time>2026-04-06T11:00:08.999Z</time></trkpt><trkpt lat="43.413739815832564" lon="11.463293196130248"><ele>528.8571428571429</ele><time>2026-04-06T11:00:17Z</time></trkpt><trkpt lat="43.413668028912596" lon="11.463282911967722"><ele>529.2857142857143</ele><time>2026-04-06T11:00:26Z</time></trkpt><trkpt lat="43.41360715627174" lon="11.463259085373622"><ele>529.7142857142858</ele><time>2026-04-06T11:00:34Z</time></trkpt><trkpt lat="43.413554755135564" lon="11.463309187371033"><ele>530.1428571428572</ele><time>2026-04-06T11:00:44Z</time></trkpt><trkpt lat="43.41350101160294" lon="11.463357145238575"><ele>530.5714285714286</ele><time>2026-04-06T11:00:54Z</time></trkpt><trkpt lat="43.413440023570644" lon="11.463389042761131"><ele>531.0</ele><time>2026-04-06T11:01:15.999Z</time></trkpt><trkpt lat="43.413488691370404" lon="11.463493450851235"><ele>531.0</ele><time>2026-04-06T11:02:24.999Z</time></trkpt><trkpt lat="43.41344185113194" lon="11.463585587188549"><ele>531.0</ele><time>2026-04-06T11:02:55Z</time></trkpt><trkpt lat="43.4134022406389" lon="11.463657756654419"><ele>531.0</ele><time>2026-04-06T11:03:04.999Z</time></trkpt><trkpt lat="43.413322412996685" lon="11.463465424628573"><ele>531.0</ele><time>2026-04-06T11:06:19.997Z</time></trkpt><trkpt lat="43.41341348782049" lon="11.463519751832367"><ele>531.0</ele><time>2026-04-06T11:06:21.997Z</time></trkpt><trkpt lat="43.41345639967684" lon="11.463600968790033"><ele>531.0</ele><time>2026-04-06T11:06:22.997Z</time></trkpt><trkpt lat="43.413469582265606" lon="11.463693582962376"><ele>531.0</ele><time>2026-04-06T11:06:36.999Z</time></trkpt><trkpt lat="43.41353149678181" lon="11.463714634496885"><ele>531.0</ele><time>2026-04-06T11:06:41.999Z</time></trkpt><trkpt lat="43.41359481851065" lon="11.463710006823273"><ele>531.0</ele><time>2026-04-06T11:06:50.999Z</time></trkpt><trkpt lat="43.41369777638615" lon="11.463702757160263"><ele>531.0</ele><time>2026-04-06T11:07:20.999Z</time></trkpt><trkpt lat="43.41375703312366" lon="11.463752984526774"><ele>531.0</ele><time>2026-04-06T11:09:21.999Z</time></trkpt><trkpt lat="43.41374182637731" lon="11.463843926326776"><ele>531.0</ele><time>2026-04-06T11:09:35.999Z</time></trkpt><trkpt lat="43.413703477464324" lon="11.46393518303415"><ele>531.0</ele><time>2026-04-06T11:10:08.999Z</time></trkpt><trkpt lat="43.41367959486541" lon="11.464021825367428"><ele>531.0</ele><time>2026-04-06T11:10:18.999Z</time></trkpt><trkpt lat="43.413624640287125" lon="11.464066707536881"><ele>531.0</ele><time>2026-04-06T11:10:30.998Z</time></trkpt><trkpt lat="43.41355857625531" lon="11.46408061572278"><ele>531.0</ele><time>2026-04-06T11:10:39.998Z</time></trkpt><trkpt lat="43.413493570169194" lon="11.464114074628842"><ele>531.0</ele><time>2026-04-06T11:10:49.998Z</time></trkpt><trkpt lat="43.413437261622896" lon="11.46416395060361"><ele>531.0</ele><time>2026-04-06T11:10:56.998Z</time></trkpt><trkpt lat="43.413373314127625" lon="11.464158677319372"><ele>531.0</ele><time>2026-04-06T11:11:04.999Z</time></trkpt><trkpt lat="43.413310477084934" lon="11.464151333882793"><ele>531.0</ele><time>2026-04-06T11:11:17.999Z</time></trkpt><trkpt lat="43.4132556337716" lon="11.46419677937988"><ele>531.0</ele><time>2026-04-06T11:11:26.999Z</time></trkpt><trkpt lat="43.413195725102746" lon="11.464152297744"><ele>531.0</ele><time>2026-04-06T11:11:44.999Z</time></trkpt><trkpt lat="43.41318389497883" lon="11.464058789738118"><ele>531.0</ele><time>2026-04-06T11:11:55.999Z</time></trkpt><trkpt lat="43.41315179985625" lon="11.463975619336164"><ele>531.0</ele><time>2026-04-06T11:13:02.998Z</time></trkpt><trkpt lat="43.413143937118924" lon="11.463885658939425"><ele>531.0</ele><time>2026-04-06T11:14:31.999Z</time></trkpt><trkpt lat="43.41316565271764" lon="11.463796790894174"><ele>531.0</ele><time>2026-04-06T11:14:51.997Z</time></trkpt><trkpt lat="43.41314249561243" lon="11.463713194533273"><ele>531.0</ele><time>2026-04-06T11:15:37.998Z</time></trkpt><trkpt lat="43.413129049357885" lon="11.46362845601895"><ele>531.0</ele><time>2026-04-06T11:15:46.998Z</time></trkpt><trkpt lat="43.41310768872015" lon="11.463545466054226"><ele>531.0</ele><time>2026-04-06T11:15:58.999Z</time></trkpt><trkpt lat="43.413103474847595" lon="11.463450138047108"><ele>531.0</ele><time>2026-04-06T11:16:07.999Z</time></trkpt><trkpt lat="43.41303910975044" lon="11.463424403525478"><ele>531.0</ele><time>2026-04-06T11:16:17.999Z</time></trkpt><trkpt lat="43.41300801596053" lon="11.46334733982745"><ele>531.0</ele><time>2026-04-06T11:17:14.998Z</time></trkpt><trkpt lat="43.413094045536994" lon="11.463315546683814"><ele>531.0</ele><time>2026-04-06T11:18:04.999Z</time></trkpt><trkpt lat="43.41316043127685" lon="11.463295004563776"><ele>531.0</ele><time>2026-04-06T11:18:14.999Z</time></trkpt><trkpt lat="43.4132228041221" lon="11.463306967122072"><ele>531.0</ele><time>2026-04-06T11:18:22.999Z</time></trkpt><trkpt lat="43.413257115877656" lon="11.46322395788855"><ele>531.0</ele><time>2026-04-06T11:18:47.999Z</time></trkpt><trkpt lat="43.41319782815202" lon="11.46315723946111"><ele>531.0</ele><time>2026-04-06T11:19:27.999Z</time></trkpt><trkpt lat="43.413140292816095" lon="11.4631210161387"><ele>531.0</ele><time>2026-04-06T11:19:44.999Z</time></trkpt><trkpt lat="43.413221349740994" lon="11.463039340815339"><ele>531.0</ele><time>2026-04-06T11:24:19.001Z</time></trkpt><trkpt lat="43.41328142720276" lon="11.463004344859955"><ele>531.0</ele><time>2026-04-06T11:24:28.001Z</time></trkpt><trkpt lat="43.413274614354165" lon="11.46309201732048"><ele>531.0</ele><time>2026-04-06T11:24:47.001Z</time></trkpt><trkpt lat="43.41320511086557" lon="11.46309498252225"><ele>531.0</ele><time>2026-04-06T11:24:56.001Z</time></trkpt><trkpt lat="43.41322949569209" lon="11.463176044420228"><ele>531.0</ele><time>2026-04-06T11:26:58.001Z</time></trkpt><trkpt lat="43.41327634032749" lon="11.46324123372114"><ele>531.0</ele><time>2026-04-06T11:27:05.001Z</time></trkpt><trkpt lat="43.41326044224625" lon="11.46333069579498"><ele>531.0</ele><time>2026-04-06T11:27:17.001Z</time></trkpt><trkpt lat="43.413197212747974" lon="11.463340827211631"><ele>531.0</ele><time>2026-04-06T11:27:24.001Z</time></trkpt><trkpt lat="43.41315319730104" lon="11.463268789798786"><ele>531.0</ele><time>2026-04-06T11:27:31.002Z</time></trkpt><trkpt lat="43.41309945144363" lon="11.46321442098045"><ele>531.0</ele><time>2026-04-06T11:27:42.001Z</time></trkpt><trkpt lat="43.4131072839598" lon="11.463126265292745"><ele>531.0</ele><time>2026-04-06T11:27:50.001Z</time></trkpt><trkpt lat="43.413125558141594" lon="11.463042461501807"><ele>531.0</ele><time>2026-04-06T11:27:57.001Z</time></trkpt><trkpt lat="43.413141025961835" lon="11.462954634384975"><ele>531.0</ele><time>2026-04-06T11:28:04.001Z</time></trkpt><trkpt lat="43.413166985764676" lon="11.46287110365646"><ele>531.0</ele><time>2026-04-06T11:28:15.001Z</time></trkpt><trkpt lat="43.41318971306505" lon="11.462786187504664"><ele>531.0</ele><time>2026-04-06T11:28:24.001Z</time></trkpt><trkpt lat="43.41321758754958" lon="11.462698001100792"><ele>531.0</ele><time>2026-04-06T11:28:51.001Z</time></trkpt><trkpt lat="43.41324266598847" lon="11.462786752888224"><ele>531.0</ele><time>2026-04-06T11:29:31.001Z</time></trkpt><trkpt lat="43.413317397696325" lon="11.462854603909054"><ele>531.0</ele><time>2026-04-06T11:29:46.002Z</time></trkpt><trkpt lat="43.413380885071696" lon="11.4629024308837"><ele>531.0</ele><time>2026-04-06T11:29:57.002Z</time></trkpt><trkpt lat="43.41344173744626" lon="11.462930828599179"><ele>531.0</ele><time>2026-04-06T11:30:05.002Z</time></trkpt><trkpt lat="43.413505130459136" lon="11.462962927762979"><ele>531.0</ele><time>2026-04-06T11:30:11.001Z</time></trkpt><trkpt lat="43.413567267883465" lon="11.462984823662051"><ele>531.0</ele><time>2026-04-06T11:30:18.001Z</time></trkpt><trkpt lat="43.413640440642844" lon="11.463013962276126"><ele>531.0</ele><time>2026-04-06T11:30:27.001Z</time></trkpt><trkpt lat="43.413708158276094" lon="11.463029028500179"><ele>531.0</ele><time>2026-04-06T11:30:34.001Z</time></trkpt><trkpt lat="43.41377252643399" lon="11.463044889742546"><ele>531.0</ele><time>2026-04-06T11:30:44.001Z</time></trkpt><trkpt lat="43.41384114242302" lon="11.463069028084064"><ele>531.0</ele><time>2026-04-06T11:30:53.001Z</time></trkpt><trkpt lat="43.413888555185125" lon="11.463126579052316"><ele>531.0</ele><time>2026-04-06T11:31:01.001Z</time></trkpt><trkpt lat="43.41387677016484" lon="11.463213304511843"><ele>531.0</ele><time>2026-04-06T11:31:09.001Z</time></trkpt><trkpt lat="43.413894057195044" lon="11.46329900132612"><ele>531.0</ele><time>2026-04-06T11:31:18.001Z</time></trkpt><trkpt lat="43.41396062405449" lon="11.463335541577903"><ele>531.0</ele><time>2026-04-06T11:31:26.001Z</time></trkpt><trkpt lat="43.41402690459704" lon="11.463328676351354"><ele>530.5</ele><time>2026-04-06T11:31:37.001Z</time></trkpt><trkpt lat="43.41412609644887" lon="11.46334426193906"><ele>530.0</ele><time>2026-04-06T11:31:50.003Z</time></trkpt><trkpt lat="43.41418070031284" lon="11.46340381738169"><ele>529.5</ele><time>2026-04-06T11:32:05.002Z</time></trkpt><trkpt lat="43.414187803567245" lon="11.463490224430581"><ele>529.0</ele><time>2026-04-06T11:32:26.001Z</time></trkpt><trkpt lat="43.41417246649438" lon="11.46358352227021"><ele>528.5</ele><time>2026-04-06T11:33:00.001Z</time></trkpt><trkpt lat="43.41412600689779" lon="11.463664067115406"><ele>528.0</ele><time>2026-04-06T11:33:05.001Z</time></trkpt><trkpt lat="43.41409552930709" lon="11.463756965021041"><ele>528.0</ele><time>2026-04-06T11:33:12.001Z</time></trkpt><trkpt lat="43.41406331689925" lon="11.4638325764983"><ele>524.0</ele><time>2026-04-06T11:33:23.001Z</time></trkpt><trkpt lat="43.41402701529273" lon="11.463920318835044"><ele>524.0</ele><time>2026-04-06T11:33:32.001Z</time></trkpt><trkpt lat="43.41403274569648" lon="11.464009477520394"><ele>524.0</ele><time>2026-04-06T11:33:39Z</time></trkpt></trkseg><trkseg><trkpt lat="43.41588213841111" lon="11.458599332280802"><ele>446.0</ele><time>2026-04-06T11:56:49.999Z</time></trkpt><trkpt lat="43.415874318588" lon="11.458697405784163"><ele>446.0</ele><time>2026-04-06T11:56:55.999Z</time></trkpt><trkpt lat="43.41586316100574" lon="11.458783476864559"><ele>446.0</ele><time>2026-04-06T11:57:01.999Z</time></trkpt><trkpt lat="43.415884847111904" lon="11.45868451537582"><ele>446.0</ele><time>2026-04-06T11:57:47.999Z</time></trkpt><trkpt lat="43.415927805767204" lon="11.458594460425983"><ele>446.0</ele><time>2026-04-06T11:57:50.999Z</time></trkpt><trkpt lat="43.415973154449425" lon="11.45851973202176"><ele>446.0</ele><time>2026-04-06T11:57:52.999Z</time></trkpt><trkpt lat="43.4159786900976" lon="11.45840368727262"><ele>446.0</ele><time>2026-04-06T11:57:55.999Z</time></trkpt><trkpt lat="43.415917822938184" lon="11.458449414657093"><ele>446.0</ele><time>2026-04-06T11:57:59.999Z</time></trkpt><trkpt lat="43.41591703721377" lon="11.45854652830249"><ele>446.0</ele><time>2026-04-06T11:59:46Z</time></trkpt><trkpt lat="43.41589101973989" lon="11.458693695417855"><ele>446.0</ele><time>2026-04-06T11:59:47.999Z</time></trkpt><trkpt lat="43.41585146618393" lon="11.458845330209511"><ele>446.0</ele><time>2026-04-06T11:59:49.999Z</time></trkpt><trkpt lat="43.41583157608106" lon="11.458981966240179"><ele>446.0</ele><time>2026-04-06T11:59:51.999Z</time></trkpt><trkpt lat="43.4158272279255" lon="11.45909865410296"><ele>446.66666666666663</ele><time>2026-04-06T11:59:53.999Z</time></trkpt><trkpt lat="43.41584033557025" lon="11.459198448510534"><ele>447.3333333333333</ele><time>2026-04-06T11:59:55.999Z</time></trkpt><trkpt lat="43.41583689388736" lon="11.459316489309794"><ele>448.0</ele><time>2026-04-06T11:59:57.999Z</time></trkpt><trkpt lat="43.41589958720364" lon="11.45934661206504"><ele>448.66666666666663</ele><time>2026-04-06T12:00:14.999Z</time></trkpt><trkpt lat="43.41587858030419" lon="11.459243474239361"><ele>449.3333333333333</ele><time>2026-04-06T12:00:16.999Z</time></trkpt><trkpt lat="43.415847464909056" lon="11.459153723845237"><ele>450.0</ele><time>2026-04-06T12:00:18.999Z</time></trkpt><trkpt lat="43.41585264767244" lon="11.459027945632117"><ele>450.0</ele><time>2026-04-06T12:00:20.999Z</time></trkpt><trkpt lat="43.415874724273216" lon="11.45893161422509"><ele>450.0</ele><time>2026-04-06T12:00:22.999Z</time></trkpt><trkpt lat="43.415892633838325" lon="11.458842914106967"><ele>450.0</ele><time>2026-04-06T12:00:24.999Z</time></trkpt><trkpt lat="43.41593219283933" lon="11.458738005658585"><ele>450.0</ele><time>2026-04-06T12:00:27.999Z</time></trkpt><trkpt lat="43.41595866888278" lon="11.458633294675758"><ele>450.0</ele><time>2026-04-06T12:00:38.999Z</time></trkpt><trkpt lat="43.415976307883405" lon="11.458502588129203"><ele>450.0</ele><time>2026-04-06T12:00:40.999Z</time></trkpt><trkpt lat="43.415981159655544" lon="11.458379489147678"><ele>449.2</ele><time>2026-04-06T12:00:42.999Z</time></trkpt><trkpt lat="43.41598088508674" lon="11.458258301144562"><ele>448.4</ele><time>2026-04-06T12:00:44.999Z</time></trkpt><trkpt lat="43.415979979284366" lon="11.458164205705879"><ele>447.6</ele><time>2026-04-06T12:00:46.999Z</time></trkpt><trkpt lat="43.415991311642486" lon="11.45803875865437"><ele>446.8</ele><time>2026-04-06T12:00:48.999Z</time></trkpt><trkpt lat="43.41602213137755" lon="11.457867368891232"><ele>446.0</ele><time>2026-04-06T12:00:50.999Z</time></trkpt><trkpt lat="43.416077177279774" lon="11.45775584023233"><ele>446.0</ele><time>2026-04-06T12:00:51.999Z</time></trkpt><trkpt lat="43.41611912812994" lon="11.4576325758184"><ele>446.0</ele><time>2026-04-06T12:00:52.999Z</time></trkpt><trkpt lat="43.41616726273244" lon="11.457494910588428"><ele>446.0</ele><time>2026-04-06T12:00:53.999Z</time></trkpt><trkpt lat="43.416217082531354" lon="11.457354954975527"><ele>446.0</ele><time>2026-04-06T12:00:54.999Z</time></trkpt><trkpt lat="43.41626895386991" lon="11.457212094028867"><ele>446.0</ele><time>2026-04-06T12:00:55.999Z</time></trkpt><trkpt lat="43.416316598963775" lon="11.457065534178248"><ele>448.5</ele><time>2026-04-06T12:00:56.999Z</time></trkpt><trkpt lat="43.41637985427571" lon="11.456915675106988"><ele>451.0</ele><time>2026-04-06T12:00:57.999Z</time></trkpt><trkpt lat="43.41642200407996" lon="11.456763956587903"><ele>453.5</ele><time>2026-04-06T12:00:58.999Z</time></trkpt><trkpt lat="43.41642432197168" lon="11.456607090739208"><ele>456.0</ele><time>2026-04-06T12:01:00.001Z</time></trkpt><trkpt lat="43.416407555532324" lon="11.456476171456446"><ele>456.0</ele><time>2026-04-06T12:01:01.001Z</time></trkpt><trkpt lat="43.416358329445266" lon="11.456400475374991"><ele>456.0</ele><time>2026-04-06T12:01:02.001Z</time></trkpt><trkpt lat="43.41627910759538" lon="11.456286370501608"><ele>456.0</ele><time>2026-04-06T12:01:03.001Z</time></trkpt><trkpt lat="43.41617971446829" lon="11.456109808207204"><ele>456.0</ele><time>2026-04-06T12:01:04.001Z</time></trkpt><trkpt lat="43.41612888958815" lon="11.456021526891652"><ele>456.0</ele><time>2026-04-06T12:01:05.001Z</time></trkpt><trkpt lat="43.41606745896145" lon="11.455923168366102"><ele>455.6</ele><time>2026-04-06T12:01:06.001Z</time></trkpt><trkpt lat="43.41599828894073" lon="11.455842102539552"><ele>455.20000000000005</ele><time>2026-04-06T12:01:07.001Z</time></trkpt><trkpt lat="43.41590885779352" lon="11.455775186726262"><ele>454.79999999999995</ele><time>2026-04-06T12:01:08.001Z</time></trkpt><trkpt lat="43.415811252753706" lon="11.455712138726303"><ele>454.4</ele><time>2026-04-06T12:01:09.001Z</time></trkpt><trkpt lat="43.415705777872695" lon="11.455656903038877"><ele>454.0</ele><time>2026-04-06T12:01:10.001Z</time></trkpt><trkpt lat="43.415594883888005" lon="11.455615442170641"><ele>454.2</ele><time>2026-04-06T12:01:11.001Z</time></trkpt><trkpt lat="43.41548600153224" lon="11.455560917457928"><ele>454.4</ele><time>2026-04-06T12:01:12.001Z</time></trkpt><trkpt lat="43.41538470591781" lon="11.45552230741593"><ele>454.6</ele><time>2026-04-06T12:01:13.001Z</time></trkpt><trkpt lat="43.41530805421172" lon="11.455466753946189"><ele>454.8</ele><time>2026-04-06T12:01:14Z</time></trkpt><trkpt lat="43.415239317701605" lon="11.455404474969452"><ele>455.0</ele><time>2026-04-06T12:01:15Z</time></trkpt><trkpt lat="43.41515643043046" lon="11.455311467793285"><ele>455.0</ele><time>2026-04-06T12:01:16Z</time></trkpt><trkpt lat="43.41508515640061" lon="11.455192854075603"><ele>455.0</ele><time>2026-04-06T12:01:17Z</time></trkpt><trkpt lat="43.41502283201321" lon="11.45507934756935"><ele>455.0</ele><time>2026-04-06T12:01:18Z</time></trkpt><trkpt lat="43.414969651166466" lon="11.454965650163073"><ele>455.0</ele><time>2026-04-06T12:01:19Z</time></trkpt><trkpt lat="43.41494244457247" lon="11.454823483973563"><ele>455.0</ele><time>2026-04-06T12:01:20Z</time></trkpt><trkpt lat="43.41493129416933" lon="11.45465360570768"><ele>455.75</ele><time>2026-04-06T12:01:21Z</time></trkpt><trkpt lat="43.41494088332534" lon="11.454501724357714"><ele>456.5</ele><time>2026-04-06T12:01:22Z</time></trkpt><trkpt lat="43.414965534731294" lon="11.454341642959307"><ele>457.25</ele><time>2026-04-06T12:01:23Z</time></trkpt><trkpt lat="43.41501703019176" lon="11.454161837085715"><ele>458.0</ele><time>2026-04-06T12:01:24Z</time></trkpt><trkpt lat="43.415051409659135" lon="11.453977565211353"><ele>458.0</ele><time>2026-04-06T12:01:25Z</time></trkpt><trkpt lat="43.41508030245274" lon="11.45379592165162"><ele>458.0</ele><time>2026-04-06T12:01:26Z</time></trkpt><trkpt lat="43.415104663625016" lon="11.453633770992164"><ele>458.0</ele><time>2026-04-06T12:01:27Z</time></trkpt><trkpt lat="43.41513336101322" lon="11.453479222292746"><ele>458.0</ele><time>2026-04-06T12:01:28Z</time></trkpt><trkpt lat="43.415169843909936" lon="11.453326917532307"><ele>458.0</ele><time>2026-04-06T12:01:29Z</time></trkpt><trkpt lat="43.41521985806624" lon="11.453180286945134"><ele>458.0</ele><time>2026-04-06T12:01:30Z</time></trkpt><trkpt lat="43.41528904628858" lon="11.453027183451729"><ele>458.0</ele><time>2026-04-06T12:01:31Z</time></trkpt><trkpt lat="43.41535696037732" lon="11.45287412109928"><ele>458.0</ele><time>2026-04-06T12:01:32Z</time></trkpt><trkpt lat="43.41541580129143" lon="11.452731325660798"><ele>457.0</ele><time>2026-04-06T12:01:33Z</time></trkpt><trkpt lat="43.415466186196596" lon="11.45259685584342"><ele>456.0</ele><time>2026-04-06T12:01:34Z</time></trkpt><trkpt lat="43.41551447160571" lon="11.452460185594477"><ele>455.0</ele><time>2026-04-06T12:01:35Z</time></trkpt><trkpt lat="43.41557503750036" lon="11.45231961299951"><ele>454.0</ele><time>2026-04-06T12:01:36Z</time></trkpt><trkpt lat="43.41563368940836" lon="11.452170616849791"><ele>454.79999999999995</ele><time>2026-04-06T12:01:37Z</time></trkpt><trkpt lat="43.4156868012601" lon="11.452021775681208"><ele>455.59999999999997</ele><time>2026-04-06T12:01:38Z</time></trkpt><trkpt lat="43.4157200773763" lon="11.451879452514056"><ele>456.4</ele><time>2026-04-06T12:01:39Z</time></trkpt><trkpt lat="43.41573106397323" lon="11.451756688159076"><ele>457.2</ele><time>2026-04-06T12:01:40Z</time></trkpt><trkpt lat="43.41571795109114" lon="11.451622182399946"><ele>458.0</ele><time>2026-04-06T12:01:42Z</time></trkpt><trkpt lat="43.415689943176666" lon="11.45145040584585"><ele>458.0</ele><time>2026-04-06T12:02:03Z</time></trkpt><trkpt lat="43.415660957456474" lon="11.451329649846343"><ele>457.99999999999994</ele><time>2026-04-06T12:02:04Z</time></trkpt><trkpt lat="43.41562995788993" lon="11.451196854793029"><ele>457.99999999999994</ele><time>2026-04-06T12:02:05Z</time></trkpt><trkpt lat="43.41559693926026" lon="11.451053862799698"><ele>458.0</ele><time>2026-04-06T12:02:06Z</time></trkpt><trkpt lat="43.41556367915491" lon="11.450901421056415"><ele>458.0</ele><time>2026-04-06T12:02:07Z</time></trkpt><trkpt lat="43.41553396838456" lon="11.450727840893805"><ele>457.25</ele><time>2026-04-06T12:02:08Z</time></trkpt><trkpt lat="43.41550880876412" lon="11.450547616609024"><ele>456.5</ele><time>2026-04-06T12:02:09Z</time></trkpt><trkpt lat="43.415484647903675" lon="11.450358029746493"><ele>455.75</ele><time>2026-04-06T12:02:10Z</time></trkpt><trkpt lat="43.415446925820234" lon="11.450160438896509"><ele>455.0</ele><time>2026-04-06T12:02:11Z</time></trkpt><trkpt lat="43.41542094701532" lon="11.449954914558987"><ele>457.0</ele><time>2026-04-06T12:02:12Z</time></trkpt><trkpt lat="43.41539442690135" lon="11.44973374764697"><ele>459.0</ele><time>2026-04-06T12:02:13Z</time></trkpt><trkpt lat="43.41534730642751" lon="11.449524438416258"><ele>461.0</ele><time>2026-04-06T12:02:14Z</time></trkpt><trkpt lat="43.41526810729398" lon="11.449325821898217"><ele>461.0</ele><time>2026-04-06T12:02:15Z</time></trkpt><trkpt lat="43.4151874646451" lon="11.449123018922826"><ele>461.0</ele><time>2026-04-06T12:02:16Z</time></trkpt><trkpt lat="43.41509274300504" lon="11.448930856513073"><ele>461.0</ele><time>2026-04-06T12:02:17Z</time></trkpt><trkpt lat="43.41498958278988" lon="11.448746172337563"><ele>458.3333333333333</ele><time>2026-04-06T12:02:18Z</time></trkpt><trkpt lat="43.41486938148224" lon="11.448579381447324"><ele>455.66666666666663</ele><time>2026-04-06T12:02:18.999Z</time></trkpt><trkpt lat="43.41474585952754" lon="11.448418372511393"><ele>453.0</ele><time>2026-04-06T12:02:19.999Z</time></trkpt><trkpt lat="43.41462749219441" lon="11.448255856616615"><ele>453.0</ele><time>2026-04-06T12:02:20.999Z</time></trkpt><trkpt lat="43.41451680380498" lon="11.448098331630678"><ele>453.0</ele><time>2026-04-06T12:02:21.999Z</time></trkpt><trkpt lat="43.41440798997999" lon="11.447940024451915"><ele>453.0</ele><time>2026-04-06T12:02:22.999Z</time></trkpt><trkpt lat="43.414312568720995" lon="11.447777684024835"><ele>453.0</ele><time>2026-04-06T12:02:23.999Z</time></trkpt><trkpt lat="43.414258834556165" lon="11.447590985998483"><ele>453.0</ele><time>2026-04-06T12:02:24.999Z</time></trkpt><trkpt lat="43.41423080596186" lon="11.44740669593422"><ele>453.0</ele><time>2026-04-06T12:02:25.999Z</time></trkpt><trkpt lat="43.41424774715475" lon="11.447258170848672"><ele>453.0</ele><time>2026-04-06T12:02:26.999Z</time></trkpt><trkpt lat="43.41428883559545" lon="11.447149050205535"><ele>454.66666666666663</ele><time>2026-04-06T12:02:27.999Z</time></trkpt><trkpt lat="43.414389040215745" lon="11.446894503180657"><ele>456.3333333333333</ele><time>2026-04-06T12:02:28.999Z</time></trkpt><trkpt lat="43.41445815265496" lon="11.446664316685393"><ele>458.0</ele><time>2026-04-06T12:02:29.999Z</time></trkpt><trkpt lat="43.41452451319076" lon="11.446441029827978"><ele>460.66666666666663</ele><time>2026-04-06T12:02:30.999Z</time></trkpt><trkpt lat="43.41458830455351" lon="11.446220495316478"><ele>463.33333333333337</ele><time>2026-04-06T12:02:31.999Z</time></trkpt><trkpt lat="43.414654312840334" lon="11.445995551346329"><ele>466.0</ele><time>2026-04-06T12:02:32.999Z</time></trkpt><trkpt lat="43.41471430712861" lon="11.445762449525974"><ele>461.33333333333337</ele><time>2026-04-06T12:02:33.999Z</time></trkpt><trkpt lat="43.41476413820936" lon="11.445520845003736"><ele>456.66666666666663</ele><time>2026-04-06T12:02:34.999Z</time></trkpt><trkpt lat="43.414793047671346" lon="11.445274360668824"><ele>452.0</ele><time>2026-04-06T12:02:35.999Z</time></trkpt><trkpt lat="43.414793970023744" lon="11.445022336073315"><ele>452.0</ele><time>2026-04-06T12:02:36.999Z</time></trkpt><trkpt lat="43.414796065766865" lon="11.444773583258483"><ele>452.0</ele><time>2026-04-06T12:02:37.999Z</time></trkpt><trkpt lat="43.41478604364057" lon="11.44452202760522"><ele>452.0</ele><time>2026-04-06T12:02:38.999Z</time></trkpt><trkpt lat="43.41481191053788" lon="11.444263975167543"><ele>453.3333333333333</ele><time>2026-04-06T12:02:39.999Z</time></trkpt><trkpt lat="43.41484667869723" lon="11.444016084983895"><ele>454.66666666666663</ele><time>2026-04-06T12:02:40.999Z</time></trkpt><trkpt lat="43.41484482295836" lon="11.443778280493246"><ele>456.0</ele><time>2026-04-06T12:02:41.999Z</time></trkpt><trkpt lat="43.414835683435754" lon="11.44356640016632"><ele>456.5</ele><time>2026-04-06T12:02:42.999Z</time></trkpt><trkpt lat="43.41483492255899" lon="11.443366936302834"><ele>457.0</ele><time>2026-04-06T12:02:43.999Z</time></trkpt><trkpt lat="43.414876650323436" lon="11.44318873923549"><ele>457.5</ele><time>2026-04-06T12:02:44.999Z</time></trkpt><trkpt lat="43.41496036465963" lon="11.442994092438088"><ele>458.0</ele><time>2026-04-06T12:02:45.999Z</time></trkpt><trkpt lat="43.415068390964045" lon="11.44282307987224"><ele>460.3333333333333</ele><time>2026-04-06T12:02:46.999Z</time></trkpt><trkpt lat="43.41517196273725" lon="11.44260499379479"><ele>462.66666666666663</ele><time>2026-04-06T12:02:47.999Z</time></trkpt><trkpt lat="43.41528055084633" lon="11.442419221497527"><ele>465.0</ele><time>2026-04-06T12:02:48.999Z</time></trkpt><trkpt lat="43.4153893183235" lon="11.442233395269572"><ele>464.33333333333337</ele><time>2026-04-06T12:02:49.999Z</time></trkpt><trkpt lat="43.41549016765784" lon="11.442037190635633"><ele>463.6666666666667</ele><time>2026-04-06T12:02:50.999Z</time></trkpt><trkpt lat="43.415580708648974" lon="11.441832279798502"><ele>463.0</ele><time>2026-04-06T12:02:51.999Z</time></trkpt><trkpt lat="43.415656320817305" lon="11.441620577315279"><ele>463.0</ele><time>2026-04-06T12:02:52.999Z</time></trkpt><trkpt lat="43.41571484337597" lon="11.441402824035077"><ele>463.0</ele><time>2026-04-06T12:02:53.999Z</time></trkpt><trkpt lat="43.415757204923565" lon="11.44117850880962"><ele>463.0</ele><time>2026-04-06T12:02:54.999Z</time></trkpt><trkpt lat="43.415795114888176" lon="11.440947018284064"><ele>464.0</ele><time>2026-04-06T12:02:55.999Z</time></trkpt><trkpt lat="43.41584874598544" lon="11.440716970989403"><ele>465.0</ele><time>2026-04-06T12:02:56.999Z</time></trkpt><trkpt lat="43.41592299420095" lon="11.440498512274338"><ele>466.0</ele><time>2026-04-06T12:02:57.999Z</time></trkpt><trkpt lat="43.41600025948094" lon="11.440282573426941"><ele>466.33333333333337</ele><time>2026-04-06T12:02:58.999Z</time></trkpt><trkpt lat="43.41605944387899" lon="11.440068592384938"><ele>466.66666666666663</ele><time>2026-04-06T12:02:59.999Z</time></trkpt><trkpt lat="43.41607738072122" lon="11.439854242719129"><ele>467.0</ele><time>2026-04-06T12:03:00.999Z</time></trkpt><trkpt lat="43.41606165512818" lon="11.439631318780899"><ele>467.0</ele><time>2026-04-06T12:03:01.999Z</time></trkpt><trkpt lat="43.41602202435763" lon="11.43940080694325"><ele>467.0</ele><time>2026-04-06T12:03:02.999Z</time></trkpt><trkpt lat="43.4159762102351" lon="11.439174357223504"><ele>467.0</ele><time>2026-04-06T12:03:03.999Z</time></trkpt><trkpt lat="43.41593154363954" lon="11.438954014875355"><ele>466.66666666666663</ele><time>2026-04-06T12:03:04.999Z</time></trkpt><trkpt lat="43.41589749578672" lon="11.438742316913146"><ele>466.33333333333337</ele><time>2026-04-06T12:03:06.001Z</time></trkpt><trkpt lat="43.415879704209786" lon="11.43853455185742"><ele>466.0</ele><time>2026-04-06T12:03:07.001Z</time></trkpt><trkpt lat="43.41588349666906" lon="11.438311300266998"><ele>466.0</ele><time>2026-04-06T12:03:08.001Z</time></trkpt><trkpt lat="43.415910642754746" lon="11.438080121876036"><ele>466.0</ele><time>2026-04-06T12:03:09.001Z</time></trkpt><trkpt lat="43.41594485996404" lon="11.437850731961932"><ele>466.0</ele><time>2026-04-06T12:03:10.001Z</time></trkpt><trkpt lat="43.41597345400851" lon="11.437622378522944"><ele>465.0</ele><time>2026-04-06T12:03:11.001Z</time></trkpt><trkpt lat="43.41599149212201" lon="11.43739017222836"><ele>464.0</ele><time>2026-04-06T12:03:12.001Z</time></trkpt><trkpt lat="43.41600647767372" lon="11.43716003678549"><ele>463.0</ele><time>2026-04-06T12:03:13.001Z</time></trkpt><trkpt lat="43.41600768898916" lon="11.436935137224296"><ele>462.33333333333337</ele><time>2026-04-06T12:03:14.001Z</time></trkpt><trkpt lat="43.41598581193413" lon="11.436706562851667"><ele>461.66666666666663</ele><time>2026-04-06T12:03:15.001Z</time></trkpt><trkpt lat="43.41593023007632" lon="11.436474110940903"><ele>461.0</ele><time>2026-04-06T12:03:16.001Z</time></trkpt><trkpt lat="43.41583855855152" lon="11.43624191017725"><ele>462.3333333333333</ele><time>2026-04-06T12:03:17.001Z</time></trkpt><trkpt lat="43.41574598024865" lon="11.436015197847386"><ele>463.66666666666663</ele><time>2026-04-06T12:03:18.001Z</time></trkpt><trkpt lat="43.41566181065267" lon="11.43579246229113"><ele>465.0</ele><time>2026-04-06T12:03:19.001Z</time></trkpt><trkpt lat="43.41558930452527" lon="11.43557636696914"><ele>465.33333333333337</ele><time>2026-04-06T12:03:20Z</time></trkpt><trkpt lat="43.415517427219875" lon="11.43536644809376"><ele>465.6666666666667</ele><time>2026-04-06T12:03:21Z</time></trkpt><trkpt lat="43.41544040014341" lon="11.435154664048449"><ele>466.0</ele><time>2026-04-06T12:03:22Z</time></trkpt><trkpt lat="43.41533997558035" lon="11.434959785329138"><ele>462.6666666666667</ele><time>2026-04-06T12:03:23Z</time></trkpt><trkpt lat="43.41520308325867" lon="11.434792322513312"><ele>459.33333333333337</ele><time>2026-04-06T12:03:24Z</time></trkpt><trkpt lat="43.41503597481006" lon="11.434656957999849"><ele>456.0</ele><time>2026-04-06T12:03:25Z</time></trkpt><trkpt lat="43.414851380127594" lon="11.434549778332983"><ele>455.0</ele><time>2026-04-06T12:03:26Z</time></trkpt><trkpt lat="43.41466484750511" lon="11.43444623276934"><ele>454.0</ele><time>2026-04-06T12:03:27Z</time></trkpt><trkpt lat="43.414489166820786" lon="11.434328667667375"><ele>453.0</ele><time>2026-04-06T12:03:28Z</time></trkpt><trkpt lat="43.41433210146528" lon="11.434174132894476"><ele>456.0</ele><time>2026-04-06T12:03:29Z</time></trkpt><trkpt lat="43.414215361444306" lon="11.433979878547973"><ele>459.0</ele><time>2026-04-06T12:03:30Z</time></trkpt><trkpt lat="43.414136635737144" lon="11.43375218069"><ele>462.0</ele><time>2026-04-06T12:03:31Z</time></trkpt><trkpt lat="43.41407893227434" lon="11.43350957086022"><ele>462.0</ele><time>2026-04-06T12:03:32Z</time></trkpt><trkpt lat="43.414022280336525" lon="11.43326640622197"><ele>462.0</ele><time>2026-04-06T12:03:33Z</time></trkpt><trkpt lat="43.413964857926516" lon="11.433025640236187"><ele>462.0</ele><time>2026-04-06T12:03:34Z</time></trkpt><trkpt lat="43.41390638789519" lon="11.432791187601024"><ele>460.66666666666663</ele><time>2026-04-06T12:03:35Z</time></trkpt><trkpt lat="43.413847321548886" lon="11.432569325386261"><ele>459.3333333333333</ele><time>2026-04-06T12:03:36Z</time></trkpt><trkpt lat="43.41378154851373" lon="11.432359781054933"><ele>458.0</ele><time>2026-04-06T12:03:37Z</time></trkpt><trkpt lat="43.41371201890351" lon="11.432163402508063"><ele>460.75</ele><time>2026-04-06T12:03:38Z</time></trkpt><trkpt lat="43.413656199445235" lon="11.431974762743797"><ele>463.5</ele><time>2026-04-06T12:03:39Z</time></trkpt><trkpt lat="43.41363255966338" lon="11.431779920237696"><ele>466.25</ele><time>2026-04-06T12:03:40Z</time></trkpt><trkpt lat="43.41361712486597" lon="11.43158598916983"><ele>469.0</ele><time>2026-04-06T12:03:41Z</time></trkpt><trkpt lat="43.413589886156906" lon="11.431400713736677"><ele>468.5</ele><time>2026-04-06T12:03:42Z</time></trkpt><trkpt lat="43.41354299573032" lon="11.431230835070933"><ele>468.0</ele><time>2026-04-06T12:03:43Z</time></trkpt><trkpt lat="43.41348185632029" lon="11.43107580355888"><ele>467.5</ele><time>2026-04-06T12:03:44Z</time></trkpt><trkpt lat="43.41341827143259" lon="11.430928015363566"><ele>467.0</ele><time>2026-04-06T12:03:45Z</time></trkpt><trkpt lat="43.41335161085975" lon="11.430781656374675"><ele>467.0</ele><time>2026-04-06T12:03:46Z</time></trkpt><trkpt lat="43.41329023099937" lon="11.430637368118525"><ele>467.0</ele><time>2026-04-06T12:03:47Z</time></trkpt><trkpt lat="43.41323259911452" lon="11.430488074316711"><ele>467.0</ele><time>2026-04-06T12:03:48Z</time></trkpt><trkpt lat="43.41317695433652" lon="11.430338821135669"><ele>467.0</ele><time>2026-04-06T12:03:49Z</time></trkpt><trkpt lat="43.41310693629453" lon="11.430193542986842"><ele>467.75</ele><time>2026-04-06T12:03:50Z</time></trkpt><trkpt lat="43.4130114821255" lon="11.430071123972183"><ele>468.5</ele><time>2026-04-06T12:03:51Z</time></trkpt><trkpt lat="43.41289667470247" lon="11.42995678894686"><ele>469.25</ele><time>2026-04-06T12:03:52Z</time></trkpt><trkpt lat="43.41277882706005" lon="11.429830341656404"><ele>470.0</ele><time>2026-04-06T12:03:53Z</time></trkpt><trkpt lat="43.412677976304806" lon="11.429678149364447"><ele>466.3333333333333</ele><time>2026-04-06T12:03:54Z</time></trkpt><trkpt lat="43.41259095750728" lon="11.429504884606846"><ele>462.66666666666663</ele><time>2026-04-06T12:03:55Z</time></trkpt><trkpt lat="43.41251109997096" lon="11.429317732927467"><ele>459.0</ele><time>2026-04-06T12:03:56Z</time></trkpt><trkpt lat="43.4124375160768" lon="11.42912364306025"><ele>459.0</ele><time>2026-04-06T12:03:57Z</time></trkpt><trkpt lat="43.41237708343902" lon="11.428913066801002"><ele>459.0</ele><time>2026-04-06T12:03:58Z</time></trkpt><trkpt lat="43.41232238991825" lon="11.428696701852791"><ele>459.0</ele><time>2026-04-06T12:03:59Z</time></trkpt><trkpt lat="43.41227472161408" lon="11.428483499035726"><ele>460.66666666666663</ele><time>2026-04-06T12:04:00Z</time></trkpt><trkpt lat="43.41224049703035" lon="11.4282721839559"><ele>462.3333333333333</ele><time>2026-04-06T12:04:01Z</time></trkpt><trkpt lat="43.4122246910697" lon="11.428060098032688"><ele>464.0</ele><time>2026-04-06T12:04:02Z</time></trkpt><trkpt lat="43.412197390002305" lon="11.427858990431332"><ele>460.0</ele><time>2026-04-06T12:04:03Z</time></trkpt><trkpt lat="43.41212778049887" lon="11.427686197787382"><ele>456.0</ele><time>2026-04-06T12:04:04Z</time></trkpt><trkpt lat="43.412020648439984" lon="11.427549401906868"><ele>452.0</ele><time>2026-04-06T12:04:05Z</time></trkpt><trkpt lat="43.41188648436622" lon="11.427450079265968"><ele>448.0</ele><time>2026-04-06T12:04:06Z</time></trkpt><trkpt lat="43.41173739221303" lon="11.4273658972883"><ele>448.0</ele><time>2026-04-06T12:04:07Z</time></trkpt><trkpt lat="43.411588541539146" lon="11.427280797552447"><ele>448.0</ele><time>2026-04-06T12:04:08Z</time></trkpt><trkpt lat="43.41144695729937" lon="11.427172284700863"><ele>448.0</ele><time>2026-04-06T12:04:09Z</time></trkpt><trkpt lat="43.41131649574495" lon="11.42704918647473"><ele>445.33333333333337</ele><time>2026-04-06T12:04:10Z</time></trkpt><trkpt lat="43.411197725653345" lon="11.426923896317147"><ele>442.66666666666663</ele><time>2026-04-06T12:04:11Z</time></trkpt><trkpt lat="43.411080129648404" lon="11.42679752829012"><ele>440.0</ele><time>2026-04-06T12:04:12Z</time></trkpt><trkpt lat="43.41095966391592" lon="11.42666442273558"><ele>440.0</ele><time>2026-04-06T12:04:13Z</time></trkpt><trkpt lat="43.41084040395672" lon="11.426517666314535"><ele>440.0</ele><time>2026-04-06T12:04:14Z</time></trkpt><trkpt lat="43.4107355417023" lon="11.426366210647254"><ele>440.0</ele><time>2026-04-06T12:04:15Z</time></trkpt><trkpt lat="43.41065458610327" lon="11.426218802112679"><ele>440.0</ele><time>2026-04-06T12:04:16Z</time></trkpt><trkpt lat="43.41060877144674" lon="11.426068037125113"><ele>441.75</ele><time>2026-04-06T12:04:17Z</time></trkpt><trkpt lat="43.41060058610149" lon="11.425905389076087"><ele>443.5</ele><time>2026-04-06T12:04:18Z</time></trkpt><trkpt lat="43.41062128433679" lon="11.425740695010829"><ele>445.25</ele><time>2026-04-06T12:04:19Z</time></trkpt><trkpt lat="43.410637426836836" lon="11.425581018450002"><ele>447.0</ele><time>2026-04-06T12:04:20Z</time></trkpt><trkpt lat="43.410605169327425" lon="11.425430480038914"><ele>448.5</ele><time>2026-04-06T12:04:20.999Z</time></trkpt><trkpt lat="43.410512962476105" lon="11.425319036479898"><ele>450.0</ele><time>2026-04-06T12:04:21.999Z</time></trkpt><trkpt lat="43.41038426789591" lon="11.425241595636999"><ele>451.5</ele><time>2026-04-06T12:04:22.999Z</time></trkpt><trkpt lat="43.410239684421036" lon="11.42519769172586"><ele>453.0</ele><time>2026-04-06T12:04:23.999Z</time></trkpt><trkpt lat="43.41008590118055" lon="11.425177362239577"><ele>448.75</ele><time>2026-04-06T12:04:24.999Z</time></trkpt><trkpt lat="43.40993838028367" lon="11.425147305113224"><ele>444.5</ele><time>2026-04-06T12:04:25.999Z</time></trkpt><trkpt lat="43.409800964537915" lon="11.425089000883556"><ele>440.25</ele><time>2026-04-06T12:04:26.999Z</time></trkpt><trkpt lat="43.40966397476021" lon="11.42501417605758"><ele>436.0</ele><time>2026-04-06T12:04:27.999Z</time></trkpt><trkpt lat="43.40952527880874" lon="11.424938063274237"><ele>430.6666666666667</ele><time>2026-04-06T12:04:28.999Z</time></trkpt><trkpt lat="43.409379140900384" lon="11.424860703095955"><ele>425.33333333333337</ele><time>2026-04-06T12:04:29.999Z</time></trkpt><trkpt lat="43.40923110233873" lon="11.42477343088519"><ele>420.0</ele><time>2026-04-06T12:04:30.999Z</time></trkpt><trkpt lat="43.40908308348926" lon="11.424670194820651"><ele>419.33333333333337</ele><time>2026-04-06T12:04:31.999Z</time></trkpt><trkpt lat="43.408938549339744" lon="11.424563071252551"><ele>418.6666666666667</ele><time>2026-04-06T12:04:32.999Z</time></trkpt><trkpt lat="43.40880054630742" lon="11.42445269866434"><ele>418.0</ele><time>2026-04-06T12:04:33.999Z</time></trkpt><trkpt lat="43.40866772474419" lon="11.424336768718932"><ele>418.0</ele><time>2026-04-06T12:04:34.999Z</time></trkpt><trkpt lat="43.40854285079334" lon="11.424216845706097"><ele>418.0</ele><time>2026-04-06T12:04:35.999Z</time></trkpt><trkpt lat="43.40842620618872" lon="11.42410109397839"><ele>418.0</ele><time>2026-04-06T12:04:36.999Z</time></trkpt><trkpt lat="43.40831738995462" lon="11.42398034164024"><ele>418.0</ele><time>2026-04-06T12:04:37.999Z</time></trkpt><trkpt lat="43.40823326199416" lon="11.42383875438025"><ele>419.5</ele><time>2026-04-06T12:04:38.999Z</time></trkpt><trkpt lat="43.408179357973076" lon="11.42366683832476"><ele>421.0</ele><time>2026-04-06T12:04:39.999Z</time></trkpt><trkpt lat="43.40813973468932" lon="11.423469779602991"><ele>422.5</ele><time>2026-04-06T12:04:40.999Z</time></trkpt><trkpt lat="43.40809613233837" lon="11.423268814960716"><ele>424.0</ele><time>2026-04-06T12:04:41.999Z</time></trkpt><trkpt lat="43.40804233535302" lon="11.423080484827452"><ele>420.0</ele><time>2026-04-06T12:04:42.999Z</time></trkpt><trkpt lat="43.407990757291586" lon="11.422906167845172"><ele>416.0</ele><time>2026-04-06T12:04:43.999Z</time></trkpt><trkpt lat="43.40794476358931" lon="11.422751409066848"><ele>412.0</ele><time>2026-04-06T12:04:44.999Z</time></trkpt><trkpt lat="43.40790533533614" lon="11.422616789137741"><ele>408.0</ele><time>2026-04-06T12:04:45.999Z</time></trkpt><trkpt lat="43.40787279900838" lon="11.42249596423827"><ele>408.0</ele><time>2026-04-06T12:04:46.999Z</time></trkpt><trkpt lat="43.407842863084205" lon="11.422390177536029"><ele>408.0</ele><time>2026-04-06T12:04:47.999Z</time></trkpt><trkpt lat="43.407816013487945" lon="11.422300230999"><ele>408.0</ele><time>2026-04-06T12:04:48.999Z</time></trkpt><trkpt lat="43.40777774752706" lon="11.42223039068421"><ele>408.0</ele><time>2026-04-06T12:04:49.999Z</time></trkpt><trkpt lat="43.40770621745271" lon="11.422198810602646"><ele>408.0</ele><time>2026-04-06T12:04:50.999Z</time></trkpt><trkpt lat="43.40761570403758" lon="11.422216847511589"><ele>408.0</ele><time>2026-04-06T12:04:51.999Z</time></trkpt><trkpt lat="43.40752683369661" lon="11.422273825430356"><ele>408.0</ele><time>2026-04-06T12:04:52.999Z</time></trkpt><trkpt lat="43.40744784970943" lon="11.42235143912436"><ele>408.0</ele><time>2026-04-06T12:04:53.999Z</time></trkpt><trkpt lat="43.40737228334049" lon="11.422429464514183"><ele>408.0</ele><time>2026-04-06T12:04:54.999Z</time></trkpt><trkpt lat="43.407301233332255" lon="11.422507114682173"><ele>408.0</ele><time>2026-04-06T12:04:55.999Z</time></trkpt><trkpt lat="43.40724123500646" lon="11.422585838628963"><ele>408.0</ele><time>2026-04-06T12:04:56.999Z</time></trkpt><trkpt lat="43.40719109471882" lon="11.42267028993243"><ele>408.0</ele><time>2026-04-06T12:04:57.999Z</time></trkpt><trkpt lat="43.407156805896726" lon="11.422774361515003"><ele>407.8333333333333</ele><time>2026-04-06T12:04:58.999Z</time></trkpt><trkpt lat="43.40714277420557" lon="11.42289591466512"><ele>407.66666666666663</ele><time>2026-04-06T12:04:59.999Z</time></trkpt><trkpt lat="43.407155121131275" lon="11.423016398025556"><ele>407.5</ele><time>2026-04-06T12:05:00.999Z</time></trkpt><trkpt lat="43.407170325347856" lon="11.423128440853267"><ele>407.3333333333333</ele><time>2026-04-06T12:05:01.999Z</time></trkpt><trkpt lat="43.4071603940329" lon="11.42325351803657"><ele>407.16666666666663</ele><time>2026-04-06T12:05:02.999Z</time></trkpt><trkpt lat="43.40715737872721" lon="11.423381892333678"><ele>407.0</ele><time>2026-04-06T12:05:03.999Z</time></trkpt><trkpt lat="43.40715467778249" lon="11.423502976889932"><ele>405.0</ele><time>2026-04-06T12:05:04.999Z</time></trkpt><trkpt lat="43.40710586553408" lon="11.423609041534052"><ele>403.0</ele><time>2026-04-06T12:05:05.999Z</time></trkpt><trkpt lat="43.40705971575535" lon="11.423711558771192"><ele>401.0</ele><time>2026-04-06T12:05:06.999Z</time></trkpt><trkpt lat="43.40700645760041" lon="11.423810988998216"><ele>399.0</ele><time>2026-04-06T12:05:07.999Z</time></trkpt><trkpt lat="43.40691957776812" lon="11.423873921249756"><ele>397.0</ele><time>2026-04-06T12:05:08.999Z</time></trkpt><trkpt lat="43.406812465493175" lon="11.423881215175756"><ele>396.0</ele><time>2026-04-06T12:05:09.999Z</time></trkpt><trkpt lat="43.40669925265922" lon="11.423930067666316"><ele>395.0</ele><time>2026-04-06T12:05:10.999Z</time></trkpt><trkpt lat="43.40657143053981" lon="11.423968779844662"><ele>394.0</ele><time>2026-04-06T12:05:11.999Z</time></trkpt><trkpt lat="43.40643286679341" lon="11.4240281492978"><ele>393.0</ele><time>2026-04-06T12:05:12.999Z</time></trkpt><trkpt lat="43.406294984527335" lon="11.424089830739954"><ele>391.0</ele><time>2026-04-06T12:05:13.999Z</time></trkpt><trkpt lat="43.40616071319934" lon="11.424144806727755"><ele>389.0</ele><time>2026-04-06T12:05:14.999Z</time></trkpt><trkpt lat="43.40603138802819" lon="11.424201963969681"><ele>387.0</ele><time>2026-04-06T12:05:15.999Z</time></trkpt><trkpt lat="43.40590638464325" lon="11.424251178028413"><ele>385.0</ele><time>2026-04-06T12:05:16.999Z</time></trkpt><trkpt lat="43.405791664509415" lon="11.424291474005592"><ele>385.0</ele><time>2026-04-06T12:05:17.999Z</time></trkpt><trkpt lat="43.40568255921028" lon="11.424327821231978"><ele>385.0</ele><time>2026-04-06T12:05:18.999Z</time></trkpt><trkpt lat="43.40557142940665" lon="11.424364557104726"><ele>385.0</ele><time>2026-04-06T12:05:19.999Z</time></trkpt><trkpt lat="43.40546806919598" lon="11.424404139042645"><ele>385.0</ele><time>2026-04-06T12:05:20.999Z</time></trkpt><trkpt lat="43.40537550567748" lon="11.424439464393691"><ele>385.0</ele><time>2026-04-06T12:05:21.999Z</time></trkpt><trkpt lat="43.405294335518654" lon="11.42446674729795"><ele>384.6666666666667</ele><time>2026-04-06T12:05:22.999Z</time></trkpt><trkpt lat="43.40522353856267" lon="11.424494390286982"><ele>384.33333333333337</ele><time>2026-04-06T12:05:23.999Z</time></trkpt><trkpt lat="43.40515659580721" lon="11.424523903700939"><ele>384.0</ele><time>2026-04-06T12:05:24.999Z</time></trkpt><trkpt lat="43.40508733918042" lon="11.424555850539674"><ele>383.6666666666667</ele><time>2026-04-06T12:05:25.999Z</time></trkpt><trkpt lat="43.405004709698126" lon="11.4245862596773"><ele>383.33333333333337</ele><time>2026-04-06T12:05:26.999Z</time></trkpt><trkpt lat="43.40491757006877" lon="11.424619637991531"><ele>383.0</ele><time>2026-04-06T12:05:27.999Z</time></trkpt><trkpt lat="43.40483710080832" lon="11.424646007683194"><ele>382.7142857142857</ele><time>2026-04-06T12:05:28.999Z</time></trkpt><trkpt lat="43.404761693500916" lon="11.424672176496111"><ele>382.42857142857144</ele><time>2026-04-06T12:05:29.999Z</time></trkpt><trkpt lat="43.40468980324962" lon="11.424701584418372"><ele>382.1428571428571</ele><time>2026-04-06T12:05:30.999Z</time></trkpt><trkpt lat="43.40461981005577" lon="11.4247294456784"><ele>381.8571428571429</ele><time>2026-04-06T12:05:31.999Z</time></trkpt><trkpt lat="43.40455148361017" lon="11.424754570989068"><ele>381.5714285714286</ele><time>2026-04-06T12:05:32.999Z</time></trkpt><trkpt lat="43.404483781205364" lon="11.424781066040804"><ele>381.2857142857143</ele><time>2026-04-06T12:05:33.999Z</time></trkpt><trkpt lat="43.404409726188256" lon="11.424810075709996"><ele>381.0</ele><time>2026-04-06T12:05:34.999Z</time></trkpt><trkpt lat="43.40433033390607" lon="11.424844653290727"><ele>381.0</ele><time>2026-04-06T12:05:35.999Z</time></trkpt><trkpt lat="43.404248426718354" lon="11.424890627926603"><ele>381.0</ele><time>2026-04-06T12:05:37Z</time></trkpt><trkpt lat="43.40416211424537" lon="11.424942173479398"><ele>381.0</ele><time>2026-04-06T12:05:38Z</time></trkpt><trkpt lat="43.40407805268733" lon="11.424991567325186"><ele>381.0</ele><time>2026-04-06T12:05:39Z</time></trkpt><trkpt lat="43.40400018512595" lon="11.425045995278499"><ele>381.0</ele><time>2026-04-06T12:05:39.999Z</time></trkpt><trkpt lat="43.403923480036916" lon="11.425093798691243"><ele>381.0</ele><time>2026-04-06T12:05:40.999Z</time></trkpt><trkpt lat="43.40384837346224" lon="11.425134384617515"><ele>380.8</ele><time>2026-04-06T12:05:41.999Z</time></trkpt><trkpt lat="43.40378499395395" lon="11.425169310507169"><ele>380.6</ele><time>2026-04-06T12:05:42.999Z</time></trkpt><trkpt lat="43.40368841997611" lon="11.425222361039882"><ele>380.4</ele><time>2026-04-06T12:05:44.999Z</time></trkpt><trkpt lat="43.40359292165273" lon="11.425273277113964"><ele>380.2</ele><time>2026-04-06T12:05:46.999Z</time></trkpt><trkpt lat="43.403464689107764" lon="11.425317192568816"><ele>380.0</ele><time>2026-04-06T12:05:48.999Z</time></trkpt><trkpt lat="43.40339030537146" lon="11.425339129095192"><ele>380.0</ele><time>2026-04-06T12:05:49.999Z</time></trkpt><trkpt lat="43.40331112964328" lon="11.425357137601608"><ele>380.0</ele><time>2026-04-06T12:05:50.999Z</time></trkpt><trkpt lat="43.40323111528231" lon="11.425370952280835"><ele>380.0</ele><time>2026-04-06T12:05:51.999Z</time></trkpt><trkpt lat="43.40315482761314" lon="11.425395195600123"><ele>380.0</ele><time>2026-04-06T12:05:52.999Z</time></trkpt><trkpt lat="43.40309303418058" lon="11.42542050961294"><ele>380.0</ele><time>2026-04-06T12:05:53.999Z</time></trkpt><trkpt lat="43.40302201603533" lon="11.425453874486927"><ele>380.0</ele><time>2026-04-06T12:05:55.999Z</time></trkpt><trkpt lat="43.40295567550185" lon="11.42546765141698"><ele>380.0</ele><time>2026-04-06T12:05:58.999Z</time></trkpt><trkpt lat="43.402878314089335" lon="11.425469196882053"><ele>380.0</ele><time>2026-04-06T12:06:02.999Z</time></trkpt><trkpt lat="43.40296085314811" lon="11.425474034016457"><ele>380.0</ele><time>2026-04-06T12:08:20.999Z</time></trkpt><trkpt lat="43.403001716168326" lon="11.425595792104684"><ele>380.0</ele><time>2026-04-06T12:08:29.999Z</time></trkpt><trkpt lat="43.40296954252021" lon="11.42567551646595"><ele>380.0</ele><time>2026-04-06T12:08:31.999Z</time></trkpt><trkpt lat="43.40297016790012" lon="11.425502485533361"><ele>380.0</ele><time>2026-04-06T12:08:35.999Z</time></trkpt><trkpt lat="43.4028964118198" lon="11.425184659488428"><ele>379.57142857142856</ele><time>2026-04-06T12:09:01.032Z</time></trkpt><trkpt lat="43.40293204910885" lon="11.425277702517471"><ele>379.14285714285717</ele><time>2026-04-06T12:09:04.033Z</time></trkpt><trkpt lat="43.40289860931226" lon="11.425356455187861"><ele>378.71428571428567</ele><time>2026-04-06T12:09:05.999Z</time></trkpt><trkpt lat="43.40291184940945" lon="11.42544545365571"><ele>378.2857142857143</ele><time>2026-04-06T13:23:49.999Z</time></trkpt><trkpt lat="43.402900948742335" lon="11.425537015256339"><ele>377.85714285714283</ele><time>2026-04-06T13:23:55.999Z</time></trkpt><trkpt lat="43.40289368413025" lon="11.42544306085226"><ele>377.4285714285714</ele><time>2026-04-06T13:28:08.999Z</time></trkpt><trkpt lat="43.402977734276966" lon="11.42543351849835"><ele>377.0</ele><time>2026-04-06T13:34:38.999Z</time></trkpt><trkpt lat="43.40291675672466" lon="11.425488464140596"><ele>376.8</ele><time>2026-04-06T13:37:24.997Z</time></trkpt><trkpt lat="43.402871524081775" lon="11.425377091789759"><ele>376.6</ele><time>2026-04-06T13:37:28.997Z</time></trkpt><trkpt lat="43.402791695878044" lon="11.42529952170347"><ele>376.40000000000003</ele><time>2026-04-06T13:37:30.998Z</time></trkpt><trkpt lat="43.4028239966582" lon="11.425148125604727"><ele>376.20000000000005</ele><time>2026-04-06T13:37:32.998Z</time></trkpt><trkpt lat="43.402772317908536" lon="11.425075434283514"><ele>376.0</ele><time>2026-04-06T13:37:34.998Z</time></trkpt><trkpt lat="43.402729565448475" lon="11.4249112820753"><ele>376.0</ele><time>2026-04-06T13:37:35.998Z</time></trkpt><trkpt lat="43.40273035171215" lon="11.424757857349089"><ele>376.0</ele><time>2026-04-06T13:37:37.998Z</time></trkpt><trkpt lat="43.40269889214947" lon="11.424603291695682"><ele>376.0</ele><time>2026-04-06T13:37:39.998Z</time></trkpt><trkpt lat="43.402594015315394" lon="11.424551007287874"><ele>376.0</ele><time>2026-04-06T13:37:40.998Z</time></trkpt><trkpt lat="43.40253546016685" lon="11.424501498725967"><ele>376.0</ele><time>2026-04-06T13:37:41.998Z</time></trkpt><trkpt lat="43.40249149572332" lon="11.424434684441696"><ele>376.0</ele><time>2026-04-06T13:37:42.998Z</time></trkpt><trkpt lat="43.40242592881713" lon="11.424350995482701"><ele>376.0</ele><time>2026-04-06T13:37:43.998Z</time></trkpt><trkpt lat="43.40238614173917" lon="11.424278881253608"><ele>376.0</ele><time>2026-04-06T13:37:44.998Z</time></trkpt><trkpt lat="43.4025219432487" lon="11.424533090640647"><ele>376.0</ele><time>2026-04-06T13:37:46.998Z</time></trkpt><trkpt lat="43.402967061747574" lon="11.425433192193557"><ele>370.0</ele><time>2026-04-06T13:38:07.435Z</time></trkpt><trkpt lat="43.402840673576684" lon="11.42464570630188"><ele>371.5</ele><time>2026-04-06T13:38:10.031Z</time></trkpt><trkpt lat="43.402835182193" lon="11.42486967847983"><ele>373.0</ele><time>2026-04-06T13:38:11.031Z</time></trkpt><trkpt lat="43.40284122930118" lon="11.424966024916525"><ele>374.5</ele><time>2026-04-06T13:38:12.033Z</time></trkpt><trkpt lat="43.40290356712283" lon="11.425202887687142"><ele>376.0</ele><time>2026-04-06T13:38:14.033Z</time></trkpt><trkpt lat="43.402895712110606" lon="11.425325017455606"><ele>376.0</ele><time>2026-04-06T13:38:17.029Z</time></trkpt><trkpt lat="43.402935529453124" lon="11.425398231851982"><ele>376.0</ele><time>2026-04-06T14:15:19.001Z</time></trkpt><trkpt lat="43.4029982126653" lon="11.425439811422502"><ele>376.0</ele><time>2026-04-06T14:15:36.001Z</time></trkpt><trkpt lat="43.40300921722146" lon="11.425531118410813"><ele>376.0</ele><time>2026-04-06T14:15:42Z</time></trkpt><trkpt lat="43.40300864541931" lon="11.425623794974971"><ele>376.0</ele><time>2026-04-06T14:16:23Z</time></trkpt><trkpt lat="43.403081801681715" lon="11.425646839830629"><ele>376.0</ele><time>2026-04-06T14:16:27Z</time></trkpt><trkpt lat="43.403153719396606" lon="11.425693967122903"><ele>376.0</ele><time>2026-04-06T14:16:30Z</time></trkpt><trkpt lat="43.403220425096514" lon="11.425758773743503"><ele>376.8</ele><time>2026-04-06T14:16:31Z</time></trkpt><trkpt lat="43.403299657408084" lon="11.42582478645763"><ele>377.6</ele><time>2026-04-06T14:16:33Z</time></trkpt><trkpt lat="43.403359064197076" lon="11.425758726585954"><ele>378.4</ele><time>2026-04-06T14:16:36Z</time></trkpt><trkpt lat="43.40340738006424" lon="11.425700503499565"><ele>379.2</ele><time>2026-04-06T14:16:41Z</time></trkpt><trkpt lat="43.403422218465195" lon="11.425582950364952"><ele>380.0</ele><time>2026-04-06T14:16:44.999Z</time></trkpt><trkpt lat="43.403272925138175" lon="11.42545033917225"><ele>380.0</ele><time>2026-04-06T14:16:45.999Z</time></trkpt><trkpt lat="43.40321687364548" lon="11.42538206260163"><ele>380.0</ele><time>2026-04-06T14:16:46.999Z</time></trkpt><trkpt lat="43.40323274255499" lon="11.42528803435916"><ele>380.0</ele><time>2026-04-06T14:16:59.069Z</time></trkpt><trkpt lat="43.40330854630533" lon="11.425297944416467"><ele>380.0</ele><time>2026-04-06T14:17:07.036Z</time></trkpt><trkpt lat="43.403183852913756" lon="11.425307978317704"><ele>380.0</ele><time>2026-04-06T14:17:10.028Z</time></trkpt><trkpt lat="43.40310973097695" lon="11.425355575791803"><ele>380.0</ele><time>2026-04-06T14:17:19.028Z</time></trkpt><trkpt lat="43.403044447434524" lon="11.425352156473739"><ele>380.0</ele><time>2026-04-06T14:17:28.025Z</time></trkpt><trkpt lat="43.40298101148105" lon="11.425394566893852"><ele>380.0</ele><time>2026-04-06T14:17:46.021Z</time></trkpt><trkpt lat="43.4030851797132" lon="11.425405934146887"><ele>380.0</ele><time>2026-04-06T14:17:52.012Z</time></trkpt><trkpt lat="43.402984927716865" lon="11.42538926439088"><ele>380.0</ele><time>2026-04-06T14:18:16.014Z</time></trkpt><trkpt lat="43.402968556464586" lon="11.425477705785424"><ele>380.0</ele><time>2026-04-06T14:20:26.999Z</time></trkpt><trkpt lat="43.40294828567568" lon="11.425572211508893"><ele>380.0</ele><time>2026-04-06T14:20:56.999Z</time></trkpt><trkpt lat="43.402913516055946" lon="11.425496578490272"><ele>379.5</ele><time>2026-04-06T14:26:49.999Z</time></trkpt><trkpt lat="43.40284440992103" lon="11.425512676870673"><ele>379.0</ele><time>2026-04-06T14:26:52.999Z</time></trkpt><trkpt lat="43.40276017143428" lon="11.425529302488004"><ele>378.5</ele><time>2026-04-06T14:26:55.999Z</time></trkpt><trkpt lat="43.40269731593692" lon="11.425545945410525"><ele>378.0</ele><time>2026-04-06T14:26:59.999Z</time></trkpt><trkpt lat="43.40263472762116" lon="11.425569939753784"><ele>377.5</ele><time>2026-04-06T14:27:02.999Z</time></trkpt><trkpt lat="43.4025273223705" lon="11.42555790686538"><ele>377.0</ele><time>2026-04-06T14:27:04.999Z</time></trkpt><trkpt lat="43.4024316302576" lon="11.425538629263922"><ele>377.0</ele><time>2026-04-06T14:27:06.999Z</time></trkpt><trkpt lat="43.40236526221345" lon="11.425507600701048"><ele>377.0</ele><time>2026-04-06T14:27:08.999Z</time></trkpt><trkpt lat="43.40226956634355" lon="11.42549128267696"><ele>377.0</ele><time>2026-04-06T14:27:10.999Z</time></trkpt><trkpt lat="43.40220572238322" lon="11.425467708545673"><ele>377.0</ele><time>2026-04-06T14:27:11.999Z</time></trkpt><trkpt lat="43.40207761236954" lon="11.425418116473743"><ele>377.0</ele><time>2026-04-06T14:27:13.999Z</time></trkpt><trkpt lat="43.40200019313503" lon="11.425384091414827"><ele>377.0</ele><time>2026-04-06T14:27:14.999Z</time></trkpt><trkpt lat="43.4019170376691" lon="11.425352014135404"><ele>376.25</ele><time>2026-04-06T14:27:15.999Z</time></trkpt><trkpt lat="43.40183286191698" lon="11.4253110402699"><ele>375.5</ele><time>2026-04-06T14:27:16.999Z</time></trkpt><trkpt lat="43.401727760675335" lon="11.425259512728637"><ele>374.75</ele><time>2026-04-06T14:27:17.999Z</time></trkpt><trkpt lat="43.40162027965704" lon="11.425209911238209"><ele>374.0</ele><time>2026-04-06T14:27:18.999Z</time></trkpt><trkpt lat="43.401490642675206" lon="11.425149421282969"><ele>374.0</ele><time>2026-04-06T14:27:19.999Z</time></trkpt><trkpt lat="43.40137849689995" lon="11.425096712322997"><ele>374.0</ele><time>2026-04-06T14:27:20.999Z</time></trkpt><trkpt lat="43.4012671015416" lon="11.425040411527998"><ele>374.0</ele><time>2026-04-06T14:27:21.999Z</time></trkpt><trkpt lat="43.401153435581065" lon="11.42498353143772"><ele>374.0</ele><time>2026-04-06T14:27:22.999Z</time></trkpt><trkpt lat="43.4010451774072" lon="11.424923923159962"><ele>373.75</ele><time>2026-04-06T14:27:24.001Z</time></trkpt><trkpt lat="43.40093502540934" lon="11.424881940179494"><ele>373.5</ele><time>2026-04-06T14:27:25.001Z</time></trkpt><trkpt lat="43.400816789134716" lon="11.424819274573325"><ele>373.25</ele><time>2026-04-06T14:27:26.001Z</time></trkpt><trkpt lat="43.40071192984565" lon="11.424768729981295"><ele>373.0</ele><time>2026-04-06T14:27:27.001Z</time></trkpt><trkpt lat="43.400614082916285" lon="11.42471812189267"><ele>373.0</ele><time>2026-04-06T14:27:28.001Z</time></trkpt><trkpt lat="43.40053318381926" lon="11.424646346506876"><ele>373.0</ele><time>2026-04-06T14:27:29.001Z</time></trkpt><trkpt lat="43.40046578602729" lon="11.424550178474146"><ele>373.0</ele><time>2026-04-06T14:27:30.001Z</time></trkpt><trkpt lat="43.400420422472635" lon="11.424441724221303"><ele>373.0</ele><time>2026-04-06T14:27:31.001Z</time></trkpt><trkpt lat="43.40039484476323" lon="11.424292735476262"><ele>373.0</ele><time>2026-04-06T14:27:32.001Z</time></trkpt><trkpt lat="43.400359671877496" lon="11.424133589644967"><ele>372.0</ele><time>2026-04-06T14:27:33.001Z</time></trkpt><trkpt lat="43.40028679410502" lon="11.424021616902682"><ele>371.0</ele><time>2026-04-06T14:27:34.001Z</time></trkpt><trkpt lat="43.40020352982877" lon="11.423846139715604"><ele>370.0</ele><time>2026-04-06T14:27:35.001Z</time></trkpt><trkpt lat="43.40008754338875" lon="11.423709103866459"><ele>369.0</ele><time>2026-04-06T14:27:36.001Z</time></trkpt><trkpt lat="43.39996697402213" lon="11.423612856723834"><ele>367.5</ele><time>2026-04-06T14:27:37.001Z</time></trkpt><trkpt lat="43.39984702340816" lon="11.423516481628136"><ele>366.0</ele><time>2026-04-06T14:27:38.001Z</time></trkpt><trkpt lat="43.39973854361762" lon="11.423413885635993"><ele>364.5</ele><time>2026-04-06T14:27:39.001Z</time></trkpt><trkpt lat="43.39962940422721" lon="11.423295702289426"><ele>363.0</ele><time>2026-04-06T14:27:40.001Z</time></trkpt><trkpt lat="43.399530454908415" lon="11.4231766870707"><ele>363.0</ele><time>2026-04-06T14:27:41.001Z</time></trkpt><trkpt lat="43.39943570365166" lon="11.42306608535373"><ele>363.0</ele><time>2026-04-06T14:27:42.001Z</time></trkpt><trkpt lat="43.3993905606496" lon="11.422909097795321"><ele>363.0</ele><time>2026-04-06T14:27:43.001Z</time></trkpt><trkpt lat="43.39934936903562" lon="11.422732489068173"><ele>363.0</ele><time>2026-04-06T14:27:44Z</time></trkpt><trkpt lat="43.39931695126875" lon="11.422580193531884"><ele>361.0</ele><time>2026-04-06T14:27:45Z</time></trkpt><trkpt lat="43.39926640526592" lon="11.422413825994441"><ele>359.0</ele><time>2026-04-06T14:27:46Z</time></trkpt><trkpt lat="43.39916086300107" lon="11.422256083547147"><ele>357.0</ele><time>2026-04-06T14:27:47Z</time></trkpt><trkpt lat="43.399079628954716" lon="11.422101442066422"><ele>355.0</ele><time>2026-04-06T14:27:48Z</time></trkpt><trkpt lat="43.39901321709124" lon="11.421935372463933"><ele>354.0</ele><time>2026-04-06T14:27:49Z</time></trkpt><trkpt lat="43.398930210750144" lon="11.421787961785803"><ele>353.0</ele><time>2026-04-06T14:27:50Z</time></trkpt><trkpt lat="43.398846631684904" lon="11.421605730470016"><ele>352.0</ele><time>2026-04-06T14:27:51Z</time></trkpt><trkpt lat="43.398778569590945" lon="11.421406017437235"><ele>349.66666666666663</ele><time>2026-04-06T14:27:52Z</time></trkpt><trkpt lat="43.39869336064526" lon="11.42123113438097"><ele>347.3333333333333</ele><time>2026-04-06T14:27:53Z</time></trkpt><trkpt lat="43.39859098632827" lon="11.421062250728014"><ele>345.0</ele><time>2026-04-06T14:27:54Z</time></trkpt><trkpt lat="43.398484211885446" lon="11.420910272480633"><ele>345.0</ele><time>2026-04-06T14:27:55Z</time></trkpt><trkpt lat="43.39840202960094" lon="11.42074694093264"><ele>345.0</ele><time>2026-04-06T14:27:56Z</time></trkpt><trkpt lat="43.39832971801366" lon="11.42056359307063"><ele>345.0</ele><time>2026-04-06T14:27:57Z</time></trkpt><trkpt lat="43.398228250141194" lon="11.420411896576743"><ele>345.0</ele><time>2026-04-06T14:27:58Z</time></trkpt><trkpt lat="43.3981345231789" lon="11.420257171475402"><ele>341.75</ele><time>2026-04-06T14:27:59Z</time></trkpt><trkpt lat="43.39803333954109" lon="11.420090789013871"><ele>338.5</ele><time>2026-04-06T14:28:00Z</time></trkpt><trkpt lat="43.397913086041356" lon="11.419970957900992"><ele>335.25</ele><time>2026-04-06T14:28:01Z</time></trkpt><trkpt lat="43.39779564282482" lon="11.419858172274886"><ele>332.0</ele><time>2026-04-06T14:28:02Z</time></trkpt><trkpt lat="43.397675598873896" lon="11.419805478623497"><ele>332.0</ele><time>2026-04-06T14:28:03Z</time></trkpt><trkpt lat="43.397551765964906" lon="11.419764511316062"><ele>332.0</ele><time>2026-04-06T14:28:04Z</time></trkpt><trkpt lat="43.3974318880399" lon="11.419789163452322"><ele>332.0</ele><time>2026-04-06T14:28:05Z</time></trkpt><trkpt lat="43.39730176602946" lon="11.419858999505866"><ele>332.0</ele><time>2026-04-06T14:28:06Z</time></trkpt><trkpt lat="43.39717372931553" lon="11.41991382941783"><ele>329.0</ele><time>2026-04-06T14:28:07Z</time></trkpt><trkpt lat="43.396993619733" lon="11.419973733815839"><ele>326.0</ele><time>2026-04-06T14:28:08Z</time></trkpt><trkpt lat="43.39680143691013" lon="11.420002055830782"><ele>323.0</ele><time>2026-04-06T14:28:09Z</time></trkpt><trkpt lat="43.3966427354996" lon="11.419928350230734"><ele>323.0</ele><time>2026-04-06T14:28:10Z</time></trkpt><trkpt lat="43.39643470727148" lon="11.41987691166363"><ele>323.0</ele><time>2026-04-06T14:28:11Z</time></trkpt><trkpt lat="43.39627650992967" lon="11.419762728044512"><ele>323.0</ele><time>2026-04-06T14:28:12Z</time></trkpt><trkpt lat="43.39617969687734" lon="11.419633378123807"><ele>319.75</ele><time>2026-04-06T14:28:13Z</time></trkpt><trkpt lat="43.39607265477068" lon="11.419533999146818"><ele>316.5</ele><time>2026-04-06T14:28:14Z</time></trkpt><trkpt lat="43.395997437123306" lon="11.419433271297223"><ele>313.25</ele><time>2026-04-06T14:28:15Z</time></trkpt><trkpt lat="43.39587513915305" lon="11.419319766004886"><ele>310.0</ele><time>2026-04-06T14:28:16Z</time></trkpt><trkpt lat="43.39575421521467" lon="11.419196132474928"><ele>310.0</ele><time>2026-04-06T14:28:17Z</time></trkpt><trkpt lat="43.39563044084415" lon="11.419084622973084"><ele>310.0</ele><time>2026-04-06T14:28:18Z</time></trkpt><trkpt lat="43.39550233047391" lon="11.41897931500464"><ele>310.0</ele><time>2026-04-06T14:28:19Z</time></trkpt><trkpt lat="43.395351236120774" lon="11.41887900825838"><ele>307.3333333333333</ele><time>2026-04-06T14:28:20Z</time></trkpt><trkpt lat="43.3951952283974" lon="11.418763560569962"><ele>304.6666666666667</ele><time>2026-04-06T14:28:21Z</time></trkpt><trkpt lat="43.39503131207535" lon="11.418655469845397"><ele>302.0</ele><time>2026-04-06T14:28:22Z</time></trkpt><trkpt lat="43.39487316511315" lon="11.418502306581502"><ele>302.0</ele><time>2026-04-06T14:28:23Z</time></trkpt><trkpt lat="43.39475801497627" lon="11.418306784537604"><ele>302.0</ele><time>2026-04-06T14:28:24Z</time></trkpt><trkpt lat="43.394650992083" lon="11.418100179870663"><ele>302.0</ele><time>2026-04-06T14:28:25Z</time></trkpt><trkpt lat="43.394600200342495" lon="11.417907735678291"><ele>302.0</ele><time>2026-04-06T14:28:26Z</time></trkpt><trkpt lat="43.39450667970694" lon="11.41775397955865"><ele>302.0</ele><time>2026-04-06T14:28:27Z</time></trkpt><trkpt lat="43.39442212819707" lon="11.41762022733538"><ele>302.0</ele><time>2026-04-06T14:28:28Z</time></trkpt><trkpt lat="43.39429798080739" lon="11.41747299668556"><ele>302.0</ele><time>2026-04-06T14:28:29Z</time></trkpt><trkpt lat="43.394175430610645" lon="11.417348597954383"><ele>302.0</ele><time>2026-04-06T14:28:30Z</time></trkpt><trkpt lat="43.394050029115746" lon="11.4172205819254"><ele>302.0</ele><time>2026-04-06T14:28:31Z</time></trkpt><trkpt lat="43.39391102896077" lon="11.417083111207363"><ele>302.0</ele><time>2026-04-06T14:28:32Z</time></trkpt><trkpt lat="43.39374791445994" lon="11.41692716537882"><ele>300.6666666666667</ele><time>2026-04-06T14:28:33Z</time></trkpt><trkpt lat="43.39357606881542" lon="11.416763342761412"><ele>299.3333333333333</ele><time>2026-04-06T14:28:34Z</time></trkpt><trkpt lat="43.39342291214796" lon="11.416613241314696"><ele>298.0</ele><time>2026-04-06T14:28:35Z</time></trkpt><trkpt lat="43.3932652876369" lon="11.4164472108631"><ele>297.0</ele><time>2026-04-06T14:28:35.999Z</time></trkpt><trkpt lat="43.39312477523063" lon="11.416249060819354"><ele>296.0</ele><time>2026-04-06T14:28:36.999Z</time></trkpt><trkpt lat="43.3930141463852" lon="11.41603809511715"><ele>295.0</ele><time>2026-04-06T14:28:37.999Z</time></trkpt><trkpt lat="43.39291834451947" lon="11.415845934019478"><ele>295.0</ele><time>2026-04-06T14:28:38.999Z</time></trkpt><trkpt lat="43.39283845763703" lon="11.41567636502421"><ele>295.0</ele><time>2026-04-06T14:28:39.999Z</time></trkpt><trkpt lat="43.39279341683413" lon="11.415536006283999"><ele>295.0</ele><time>2026-04-06T14:28:40.999Z</time></trkpt><trkpt lat="43.39272127017561" lon="11.41537903330911"><ele>295.0</ele><time>2026-04-06T14:28:41.999Z</time></trkpt><trkpt lat="43.3926436023609" lon="11.415185802522558"><ele>289.75</ele><time>2026-04-06T14:28:42.999Z</time></trkpt><trkpt lat="43.39256627116204" lon="11.415025367875478"><ele>284.5</ele><time>2026-04-06T14:28:43.999Z</time></trkpt><trkpt lat="43.3924653801821" lon="11.41490925198196"><ele>279.25</ele><time>2026-04-06T14:28:44.999Z</time></trkpt><trkpt lat="43.39235389322376" lon="11.414830084605425"><ele>274.0</ele><time>2026-04-06T14:28:45.999Z</time></trkpt><trkpt lat="43.392237262272054" lon="11.414780683150957"><ele>274.66666666666663</ele><time>2026-04-06T14:28:46.999Z</time></trkpt><trkpt lat="43.392101551359744" lon="11.414774316653245"><ele>275.3333333333333</ele><time>2026-04-06T14:28:47.999Z</time></trkpt><trkpt lat="43.39195694942245" lon="11.414773512961876"><ele>276.0</ele><time>2026-04-06T14:28:48.999Z</time></trkpt><trkpt lat="43.391777476317905" lon="11.414755308449516"><ele>276.0</ele><time>2026-04-06T14:28:49.999Z</time></trkpt><trkpt lat="43.39163327142792" lon="11.414748879928966"><ele>276.0</ele><time>2026-04-06T14:28:50.999Z</time></trkpt><trkpt lat="43.39151584572362" lon="11.414671484889562"><ele>276.0</ele><time>2026-04-06T14:28:51.999Z</time></trkpt><trkpt lat="43.39143814500525" lon="11.414676207025009"><ele>276.0</ele><time>2026-04-06T14:28:52.999Z</time></trkpt><trkpt lat="43.3913214869468" lon="11.414631464706378"><ele>272.2</ele><time>2026-04-06T14:28:54.999Z</time></trkpt><trkpt lat="43.3912465332477" lon="11.414582345621737"><ele>268.40000000000003</ele><time>2026-04-06T14:28:55.999Z</time></trkpt><trkpt lat="43.39116516828921" lon="11.414521383794487"><ele>264.6</ele><time>2026-04-06T14:28:56.999Z</time></trkpt><trkpt lat="43.391103690238275" lon="11.4144617144143"><ele>260.8</ele><time>2026-04-06T14:28:57.999Z</time></trkpt><trkpt lat="43.39095226540382" lon="11.4143784382228"><ele>257.0</ele><time>2026-04-06T14:28:58.999Z</time></trkpt><trkpt lat="43.3907260100876" lon="11.414301637210448"><ele>257.0</ele><time>2026-04-06T14:28:59.999Z</time></trkpt><trkpt lat="43.39049943514483" lon="11.414195246355225"><ele>257.0</ele><time>2026-04-06T14:29:00.999Z</time></trkpt><trkpt lat="43.39039442111423" lon="11.414131328100067"><ele>257.0</ele><time>2026-04-06T14:29:01.999Z</time></trkpt><trkpt lat="43.39030545116811" lon="11.41410451767529"><ele>257.0</ele><time>2026-04-06T14:29:02.999Z</time></trkpt><trkpt lat="43.39014422338032" lon="11.414066005422553"><ele>257.0</ele><time>2026-04-06T14:29:03.999Z</time></trkpt><trkpt lat="43.39061876859545" lon="11.414250649587068"><ele>257.0</ele><time>2026-04-06T14:29:04.999Z</time></trkpt><trkpt lat="43.39069412455779" lon="11.414278260118754"><ele>257.0</ele><time>2026-04-06T14:29:06.999Z</time></trkpt><trkpt lat="43.39058194229013" lon="11.41422253926869"><ele>257.0</ele><time>2026-04-06T14:29:16.999Z</time></trkpt><trkpt lat="43.390497657174514" lon="11.414191629040134"><ele>257.0</ele><time>2026-04-06T14:29:17.999Z</time></trkpt><trkpt lat="43.39039693754868" lon="11.414158681013484"><ele>257.0</ele><time>2026-04-06T14:29:18.999Z</time></trkpt><trkpt lat="43.3903023326017" lon="11.414138714495571"><ele>257.0</ele><time>2026-04-06T14:29:19.999Z</time></trkpt><trkpt lat="43.39018249869437" lon="11.41411483932776"><ele>257.0</ele><time>2026-04-06T14:29:20.999Z</time></trkpt><trkpt lat="43.39003988113223" lon="11.414080682794392"><ele>257.0</ele><time>2026-04-06T14:29:21.999Z</time></trkpt><trkpt lat="43.389905519857415" lon="11.414040338704924"><ele>257.0</ele><time>2026-04-06T14:29:22.999Z</time></trkpt><trkpt lat="43.38975666999131" lon="11.413984867098561"><ele>258.6666666666667</ele><time>2026-04-06T14:29:23.999Z</time></trkpt><trkpt lat="43.389609467445425" lon="11.413936250073942"><ele>260.3333333333333</ele><time>2026-04-06T14:29:24.999Z</time></trkpt><trkpt lat="43.3894458973454" lon="11.413882216134674"><ele>262.0</ele><time>2026-04-06T14:29:25.999Z</time></trkpt><trkpt lat="43.38928072074511" lon="11.41383071436193"><ele>259.3333333333333</ele><time>2026-04-06T14:29:26.999Z</time></trkpt><trkpt lat="43.389119667253716" lon="11.413785787336959"><ele>256.6666666666667</ele><time>2026-04-06T14:29:27.999Z</time></trkpt><trkpt lat="43.38892570469048" lon="11.413744456923256"><ele>254.0</ele><time>2026-04-06T14:29:28.999Z</time></trkpt><trkpt lat="43.38875641936165" lon="11.41369614276987"><ele>254.0</ele><time>2026-04-06T14:29:30.001Z</time></trkpt><trkpt lat="43.388582903391324" lon="11.41364869474245"><ele>254.0</ele><time>2026-04-06T14:29:31.001Z</time></trkpt><trkpt lat="43.38840545599031" lon="11.413597148203069"><ele>254.0</ele><time>2026-04-06T14:29:32.001Z</time></trkpt><trkpt lat="43.38823176406244" lon="11.41354220850523"><ele>254.0</ele><time>2026-04-06T14:29:33.001Z</time></trkpt><trkpt lat="43.38805450728844" lon="11.413504904374312"><ele>254.0</ele><time>2026-04-06T14:29:34.001Z</time></trkpt><trkpt lat="43.387868620161676" lon="11.413478731741135"><ele>254.0</ele><time>2026-04-06T14:29:35.001Z</time></trkpt><trkpt lat="43.38768852470687" lon="11.413472286132869"><ele>253.66666666666669</ele><time>2026-04-06T14:29:36.001Z</time></trkpt><trkpt lat="43.38752330768071" lon="11.413479935736719"><ele>253.33333333333331</ele><time>2026-04-06T14:29:37.001Z</time></trkpt><trkpt lat="43.38735853711204" lon="11.413500704471156"><ele>253.0</ele><time>2026-04-06T14:29:38.001Z</time></trkpt><trkpt lat="43.38719203352493" lon="11.413559790429737"><ele>253.66666666666666</ele><time>2026-04-06T14:29:39.001Z</time></trkpt><trkpt lat="43.38703215345657" lon="11.413663826122695"><ele>254.33333333333331</ele><time>2026-04-06T14:29:40.001Z</time></trkpt><trkpt lat="43.386870288176056" lon="11.413771171743136"><ele>255.0</ele><time>2026-04-06T14:29:41.001Z</time></trkpt><trkpt lat="43.386717022176924" lon="11.41384138292716"><ele>256.3333333333333</ele><time>2026-04-06T14:29:42.001Z</time></trkpt><trkpt lat="43.38654606060129" lon="11.413872939857885"><ele>257.66666666666663</ele><time>2026-04-06T14:29:43.001Z</time></trkpt><trkpt lat="43.38637804354273" lon="11.413851387631997"><ele>259.0</ele><time>2026-04-06T14:29:44.001Z</time></trkpt><trkpt lat="43.38620847719262" lon="11.413774853504997"><ele>259.0</ele><time>2026-04-06T14:29:45.001Z</time></trkpt><trkpt lat="43.38606794764229" lon="11.413673750207046"><ele>259.0</ele><time>2026-04-06T14:29:46Z</time></trkpt><trkpt lat="43.38599040985679" lon="11.413587333774375"><ele>259.0</ele><time>2026-04-06T14:29:47Z</time></trkpt><trkpt lat="43.3859345014381" lon="11.413491096281893"><ele>259.0</ele><time>2026-04-06T14:29:48Z</time></trkpt><trkpt lat="43.38585729759189" lon="11.413402504523951"><ele>259.0</ele><time>2026-04-06T14:29:49Z</time></trkpt><trkpt lat="43.38580391653606" lon="11.41329402693299"><ele>259.0</ele><time>2026-04-06T14:29:50Z</time></trkpt><trkpt lat="43.385726304636904" lon="11.41321403288231"><ele>259.0</ele><time>2026-04-06T14:29:51Z</time></trkpt><trkpt lat="43.38561564374184" lon="11.413163438810612"><ele>259.0</ele><time>2026-04-06T14:29:52Z</time></trkpt><trkpt lat="43.3854936485563" lon="11.413163301224758"><ele>259.0</ele><time>2026-04-06T14:29:53Z</time></trkpt><trkpt lat="43.38536106545868" lon="11.4132135051498"><ele>259.25</ele><time>2026-04-06T14:29:54Z</time></trkpt><trkpt lat="43.38523981560289" lon="11.41328950540392"><ele>259.5</ele><time>2026-04-06T14:29:55Z</time></trkpt><trkpt lat="43.38513127832941" lon="11.413397673354513"><ele>259.75</ele><time>2026-04-06T14:29:56Z</time></trkpt><trkpt lat="43.38501063893553" lon="11.413463672378924"><ele>260.0</ele><time>2026-04-06T14:29:57Z</time></trkpt><trkpt lat="43.384884805086" lon="11.413546599525876"><ele>260.0</ele><time>2026-04-06T14:29:58Z</time></trkpt><trkpt lat="43.38469785677668" lon="11.413615447816523"><ele>260.0</ele><time>2026-04-06T14:29:59Z</time></trkpt><trkpt lat="43.384527782911626" lon="11.413704208740926"><ele>260.0</ele><time>2026-04-06T14:30:00Z</time></trkpt><trkpt lat="43.384373078293386" lon="11.413777172095081"><ele>263.0</ele><time>2026-04-06T14:30:01Z</time></trkpt><trkpt lat="43.3842204872279" lon="11.413832231516365"><ele>266.0</ele><time>2026-04-06T14:30:02Z</time></trkpt><trkpt lat="43.38402036563376" lon="11.41385761923612"><ele>269.0</ele><time>2026-04-06T14:30:03Z</time></trkpt><trkpt lat="43.383817646910174" lon="11.413849117351742"><ele>264.33333333333337</ele><time>2026-04-06T14:30:04Z</time></trkpt><trkpt lat="43.38360244950573" lon="11.413817349925857"><ele>259.6666666666667</ele><time>2026-04-06T14:30:05Z</time></trkpt><trkpt lat="43.38337155009746" lon="11.413783794112558"><ele>255.0</ele><time>2026-04-06T14:30:06Z</time></trkpt><trkpt lat="43.38317423767234" lon="11.413713357557786"><ele>256.6666666666667</ele><time>2026-04-06T14:30:07Z</time></trkpt><trkpt lat="43.38299476678179" lon="11.41361911453971"><ele>258.33333333333337</ele><time>2026-04-06T14:30:08Z</time></trkpt><trkpt lat="43.38280435565959" lon="11.41353921252993"><ele>260.0</ele><time>2026-04-06T14:30:09Z</time></trkpt><trkpt lat="43.382614998597596" lon="11.413394710355785"><ele>260.0</ele><time>2026-04-06T14:30:10Z</time></trkpt><trkpt lat="43.38245242942412" lon="11.413268253455644"><ele>260.0</ele><time>2026-04-06T14:30:11Z</time></trkpt><trkpt lat="43.38229037892277" lon="11.413146011147825"><ele>260.0</ele><time>2026-04-06T14:30:12Z</time></trkpt><trkpt lat="43.38211975365088" lon="11.413036730522455"><ele>261.33333333333337</ele><time>2026-04-06T14:30:13Z</time></trkpt><trkpt lat="43.38194590313781" lon="11.41297985658489"><ele>262.6666666666667</ele><time>2026-04-06T14:30:14Z</time></trkpt><trkpt lat="43.38176613690793" lon="11.412982093436737"><ele>264.0</ele><time>2026-04-06T14:30:15Z</time></trkpt><trkpt lat="43.38161904908263" lon="11.412998050761948"><ele>264.0</ele><time>2026-04-06T14:30:16Z</time></trkpt><trkpt lat="43.38145258613039" lon="11.413061026688867"><ele>264.0</ele><time>2026-04-06T14:30:17Z</time></trkpt><trkpt lat="43.38130593649436" lon="11.413151456691565"><ele>264.0</ele><time>2026-04-06T14:30:18Z</time></trkpt><trkpt lat="43.381118401630715" lon="11.413263485515767"><ele>261.3333333333333</ele><time>2026-04-06T14:30:19Z</time></trkpt><trkpt lat="43.38096111517997" lon="11.413365372322572"><ele>258.66666666666663</ele><time>2026-04-06T14:30:20Z</time></trkpt><trkpt lat="43.38084316387212" lon="11.413534867206417"><ele>256.0</ele><time>2026-04-06T14:30:21Z</time></trkpt><trkpt lat="43.38073855751766" lon="11.413737296412027"><ele>257.66666666666663</ele><time>2026-04-06T14:30:22Z</time></trkpt><trkpt lat="43.380616615736564" lon="11.41392435427571"><ele>259.3333333333333</ele><time>2026-04-06T14:30:23Z</time></trkpt><trkpt lat="43.38048007529111" lon="11.414089595095538"><ele>261.0</ele><time>2026-04-06T14:30:24Z</time></trkpt><trkpt lat="43.380355589802335" lon="11.414226213955043"><ele>261.0</ele><time>2026-04-06T14:30:25Z</time></trkpt><trkpt lat="43.38020445119641" lon="11.414307313196293"><ele>261.0</ele><time>2026-04-06T14:30:26Z</time></trkpt><trkpt lat="43.380046023730046" lon="11.414364929296331"><ele>261.0</ele><time>2026-04-06T14:30:27Z</time></trkpt><trkpt lat="43.37990908752859" lon="11.41442622672746"><ele>261.5</ele><time>2026-04-06T14:30:28Z</time></trkpt><trkpt lat="43.37964200701315" lon="11.414067895814155"><ele>262.0</ele><time>2026-04-06T14:30:29Z</time></trkpt><trkpt lat="43.37947416933484" lon="11.413962447782337"><ele>262.0</ele><time>2026-04-06T14:30:30Z</time></trkpt><trkpt lat="43.379328763533834" lon="11.413882240088604"><ele>262.0</ele><time>2026-04-06T14:30:31Z</time></trkpt><trkpt lat="43.37918143350177" lon="11.41378664965826"><ele>262.0</ele><time>2026-04-06T14:30:32Z</time></trkpt><trkpt lat="43.379040238760915" lon="11.413695451080018"><ele>260.0</ele><time>2026-04-06T14:30:33Z</time></trkpt><trkpt lat="43.378851975742066" lon="11.413593088867016"><ele>258.0</ele><time>2026-04-06T14:30:34Z</time></trkpt><trkpt lat="43.37869191567068" lon="11.413499478855138"><ele>256.0</ele><time>2026-04-06T14:30:35Z</time></trkpt><trkpt lat="43.37854001855623" lon="11.413405068256528"><ele>255.0</ele><time>2026-04-06T14:30:36Z</time></trkpt><trkpt lat="43.37837461894034" lon="11.413330906280626"><ele>254.0</ele><time>2026-04-06T14:30:37Z</time></trkpt><trkpt lat="43.37819772334901" lon="11.41328860557172"><ele>253.0</ele><time>2026-04-06T14:30:37.999Z</time></trkpt><trkpt lat="43.37801595536177" lon="11.413277038636798"><ele>252.66666666666666</ele><time>2026-04-06T14:30:38.999Z</time></trkpt><trkpt lat="43.37782967203199" lon="11.413266306228168"><ele>252.33333333333331</ele><time>2026-04-06T14:30:39.999Z</time></trkpt><trkpt lat="43.377639040902665" lon="11.41328162196775"><ele>252.0</ele><time>2026-04-06T14:30:40.999Z</time></trkpt><trkpt lat="43.37742644643899" lon="11.413316890653126"><ele>252.0</ele><time>2026-04-06T14:30:41.999Z</time></trkpt><trkpt lat="43.37722455070222" lon="11.4133604706452"><ele>252.0</ele><time>2026-04-06T14:30:42.999Z</time></trkpt><trkpt lat="43.3770396115079" lon="11.41343207415497"><ele>252.0</ele><time>2026-04-06T14:30:43.999Z</time></trkpt><trkpt lat="43.37685226781165" lon="11.413505189535776"><ele>250.66666666666669</ele><time>2026-04-06T14:30:44.999Z</time></trkpt><trkpt lat="43.376654559417524" lon="11.413556784369472"><ele>249.33333333333334</ele><time>2026-04-06T14:30:45.999Z</time></trkpt><trkpt lat="43.37644976198673" lon="11.413560338629374"><ele>248.0</ele><time>2026-04-06T14:30:46.999Z</time></trkpt><trkpt lat="43.376255349503225" lon="11.413573376890762"><ele>246.66666666666669</ele><time>2026-04-06T14:30:47.999Z</time></trkpt><trkpt lat="43.3760430089091" lon="11.413574985369152"><ele>245.33333333333331</ele><time>2026-04-06T14:30:48.999Z</time></trkpt><trkpt lat="43.37583069611218" lon="11.413585754397271"><ele>244.0</ele><time>2026-04-06T14:30:49.999Z</time></trkpt><trkpt lat="43.37561142543819" lon="11.413575903755293"><ele>242.66666666666666</ele><time>2026-04-06T14:30:50.999Z</time></trkpt><trkpt lat="43.37539770189343" lon="11.413576956009415"><ele>241.33333333333331</ele><time>2026-04-06T14:30:51.999Z</time></trkpt><trkpt lat="43.375186389320156" lon="11.413578476356378"><ele>240.0</ele><time>2026-04-06T14:30:52.999Z</time></trkpt><trkpt lat="43.374981463069844" lon="11.413580993155998"><ele>240.0</ele><time>2026-04-06T14:30:53.999Z</time></trkpt><trkpt lat="43.374780280230794" lon="11.4135845710079"><ele>240.0</ele><time>2026-04-06T14:30:54.999Z</time></trkpt><trkpt lat="43.37458651912077" lon="11.413588304090611"><ele>240.0</ele><time>2026-04-06T14:30:55.999Z</time></trkpt><trkpt lat="43.37439575425254" lon="11.413606739877698"><ele>239.33333333333331</ele><time>2026-04-06T14:30:56.999Z</time></trkpt><trkpt lat="43.37421232547881" lon="11.413662270700605"><ele>238.66666666666666</ele><time>2026-04-06T14:30:57.999Z</time></trkpt><trkpt lat="43.37403336776801" lon="11.41377104364805"><ele>238.0</ele><time>2026-04-06T14:30:58.999Z</time></trkpt><trkpt lat="43.37388922270371" lon="11.413916696215338"><ele>237.66666666666666</ele><time>2026-04-06T14:30:59.999Z</time></trkpt><trkpt lat="43.37374184134098" lon="11.414076146719065"><ele>237.33333333333331</ele><time>2026-04-06T14:31:00.999Z</time></trkpt><trkpt lat="43.373559702913745" lon="11.414213902311154"><ele>237.0</ele><time>2026-04-06T14:31:01.999Z</time></trkpt><trkpt lat="43.37340425951606" lon="11.414396548516466"><ele>237.0</ele><time>2026-04-06T14:31:02.999Z</time></trkpt><trkpt lat="43.373246022972914" lon="11.414611949060307"><ele>237.0</ele><time>2026-04-06T14:31:03.999Z</time></trkpt><trkpt lat="43.37306822471817" lon="11.414803173949043"><ele>237.0</ele><time>2026-04-06T14:31:04.999Z</time></trkpt><trkpt lat="43.372918654432326" lon="11.415002120401796"><ele>237.0</ele><time>2026-04-06T14:31:05.999Z</time></trkpt><trkpt lat="43.372760723557256" lon="11.41520763714477"><ele>237.0</ele><time>2026-04-06T14:31:06.999Z</time></trkpt><trkpt lat="43.37259202497615" lon="11.415395701546867"><ele>237.0</ele><time>2026-04-06T14:31:07.999Z</time></trkpt><trkpt lat="43.37241334607912" lon="11.415582143697709"><ele>236.0</ele><time>2026-04-06T14:31:08.999Z</time></trkpt><trkpt lat="43.37218169524051" lon="11.415702702336155"><ele>235.0</ele><time>2026-04-06T14:31:09.999Z</time></trkpt><trkpt lat="43.371981844142795" lon="11.415827097289243"><ele>235.0</ele><time>2026-04-06T14:31:10.999Z</time></trkpt><trkpt lat="43.37178098715353" lon="11.415947202754529"><ele>235.0</ele><time>2026-04-06T14:31:11.999Z</time></trkpt><trkpt lat="43.37158622487083" lon="11.416101361001758"><ele>235.0</ele><time>2026-04-06T14:31:12.999Z</time></trkpt><trkpt lat="43.37143804279604" lon="11.416316169287716"><ele>234.0</ele><time>2026-04-06T14:31:13.999Z</time></trkpt><trkpt lat="43.37129146839072" lon="11.416499171655014"><ele>233.0</ele><time>2026-04-06T14:31:14.999Z</time></trkpt><trkpt lat="43.37112565363608" lon="11.416675723630801"><ele>232.0</ele><time>2026-04-06T14:31:15.999Z</time></trkpt><trkpt lat="43.37099827113521" lon="11.416872905707988"><ele>232.0</ele><time>2026-04-06T14:31:16.999Z</time></trkpt><trkpt lat="43.37088222859414" lon="11.417053555252663"><ele>232.0</ele><time>2026-04-06T14:31:17.999Z</time></trkpt><trkpt lat="43.370719750803815" lon="11.417158477845875"><ele>232.0</ele><time>2026-04-06T14:31:18.999Z</time></trkpt><trkpt lat="43.370532553918416" lon="11.417212363970254"><ele>235.33333333333331</ele><time>2026-04-06T14:31:19.999Z</time></trkpt><trkpt lat="43.370352680197456" lon="11.41722597459219"><ele>238.66666666666669</ele><time>2026-04-06T14:31:20.999Z</time></trkpt><trkpt lat="43.3701446125416" lon="11.417219055557057"><ele>242.0</ele><time>2026-04-06T14:31:21.999Z</time></trkpt><trkpt lat="43.36993202422243" lon="11.41721061310521"><ele>242.0</ele><time>2026-04-06T14:31:22.999Z</time></trkpt><trkpt lat="43.36974899138416" lon="11.417221590825612"><ele>242.0</ele><time>2026-04-06T14:31:23.999Z</time></trkpt><trkpt lat="43.3695744263098" lon="11.417271691287704"><ele>242.0</ele><time>2026-04-06T14:31:24.999Z</time></trkpt><trkpt lat="43.36940805739008" lon="11.417359796221524"><ele>240.33333333333334</ele><time>2026-04-06T14:31:25.999Z</time></trkpt><trkpt lat="43.36923381043814" lon="11.417471270735422"><ele>238.66666666666669</ele><time>2026-04-06T14:31:26.999Z</time></trkpt><trkpt lat="43.36903408085704" lon="11.417590378270631"><ele>237.0</ele><time>2026-04-06T14:31:27.999Z</time></trkpt><trkpt lat="43.36883622932754" lon="11.417710185155117"><ele>235.66666666666669</ele><time>2026-04-06T14:31:28.999Z</time></trkpt><trkpt lat="43.36864549746555" lon="11.417836037437809"><ele>234.33333333333334</ele><time>2026-04-06T14:31:29.999Z</time></trkpt><trkpt lat="43.36844498649753" lon="11.417954292431876"><ele>233.0</ele><time>2026-04-06T14:31:30.999Z</time></trkpt><trkpt lat="43.36825015580514" lon="11.418080448288316"><ele>234.0</ele><time>2026-04-06T14:31:31.999Z</time></trkpt><trkpt lat="43.368047089071155" lon="11.418205480061243"><ele>235.0</ele><time>2026-04-06T14:31:32.999Z</time></trkpt><trkpt lat="43.36784859237771" lon="11.418329368668733"><ele>236.0</ele><time>2026-04-06T14:31:33.999Z</time></trkpt><trkpt lat="43.36765094372537" lon="11.418457453526601"><ele>236.0</ele><time>2026-04-06T14:31:34.999Z</time></trkpt><trkpt lat="43.36744448703874" lon="11.418584084012855"><ele>236.0</ele><time>2026-04-06T14:31:36.001Z</time></trkpt><trkpt lat="43.36724561033472" lon="11.418712340835649"><ele>236.0</ele><time>2026-04-06T14:31:37.001Z</time></trkpt><trkpt lat="43.367043887867446" lon="11.418837897047052"><ele>236.33333333333334</ele><time>2026-04-06T14:31:38.001Z</time></trkpt><trkpt lat="43.3668418115269" lon="11.418965493562544"><ele>236.66666666666669</ele><time>2026-04-06T14:31:39.001Z</time></trkpt><trkpt lat="43.3666425924856" lon="11.419095574188143"><ele>237.0</ele><time>2026-04-06T14:31:40.001Z</time></trkpt><trkpt lat="43.36644553206879" lon="11.419221935708073"><ele>236.66666666666669</ele><time>2026-04-06T14:31:41.001Z</time></trkpt><trkpt lat="43.36624974600003" lon="11.419344610172228"><ele>236.33333333333334</ele><time>2026-04-06T14:31:42.001Z</time></trkpt><trkpt lat="43.3660573231691" lon="11.419462375407619"><ele>236.0</ele><time>2026-04-06T14:31:43.001Z</time></trkpt><trkpt lat="43.36587600832738" lon="11.419572537594707"><ele>238.66666666666669</ele><time>2026-04-06T14:31:44.001Z</time></trkpt><trkpt lat="43.3656993669481" lon="11.41967447392639"><ele>241.33333333333331</ele><time>2026-04-06T14:31:45.001Z</time></trkpt><trkpt lat="43.365522007479164" lon="11.419756158279279"><ele>244.0</ele><time>2026-04-06T14:31:46.001Z</time></trkpt><trkpt lat="43.3653474729329" lon="11.419782671407631"><ele>243.75</ele><time>2026-04-06T14:31:47.001Z</time></trkpt><trkpt lat="43.36520620224995" lon="11.419752818175855"><ele>243.5</ele><time>2026-04-06T14:31:48.001Z</time></trkpt><trkpt lat="43.36507787123923" lon="11.419694438448293"><ele>243.25</ele><time>2026-04-06T14:31:49.001Z</time></trkpt><trkpt lat="43.364962613594805" lon="11.419626562328197"><ele>243.0</ele><time>2026-04-06T14:31:50.001Z</time></trkpt><trkpt lat="43.36480219694865" lon="11.419526020212981"><ele>245.33333333333331</ele><time>2026-04-06T14:31:51Z</time></trkpt><trkpt lat="43.364608965362386" lon="11.419437612179674"><ele>247.66666666666666</ele><time>2026-04-06T14:31:52Z</time></trkpt><trkpt lat="43.36447052224335" lon="11.419300612763298"><ele>250.0</ele><time>2026-04-06T14:31:53Z</time></trkpt><trkpt lat="43.36429241749846" lon="11.419135926113674"><ele>250.0</ele><time>2026-04-06T14:31:54Z</time></trkpt><trkpt lat="43.364168002473214" lon="11.41896173764551"><ele>250.0</ele><time>2026-04-06T14:31:55Z</time></trkpt><trkpt lat="43.36405538937069" lon="11.418826329078104"><ele>250.0</ele><time>2026-04-06T14:31:56Z</time></trkpt><trkpt lat="43.363959893014645" lon="11.418748397994657"><ele>250.0</ele><time>2026-04-06T14:31:57Z</time></trkpt><trkpt lat="43.36385237602707" lon="11.418671499037872"><ele>247.5</ele><time>2026-04-06T14:31:58Z</time></trkpt><trkpt lat="43.3637680806791" lon="11.418604488769578"><ele>245.0</ele><time>2026-04-06T14:31:59Z</time></trkpt><trkpt lat="43.36366185246046" lon="11.418550063677099"><ele>242.5</ele><time>2026-04-06T14:32:00Z</time></trkpt><trkpt lat="43.3635505653777" lon="11.418474938173437"><ele>240.0</ele><time>2026-04-06T14:32:01Z</time></trkpt><trkpt lat="43.36341343464019" lon="11.418446188257093"><ele>240.0</ele><time>2026-04-06T14:32:02Z</time></trkpt><trkpt lat="43.36323258192063" lon="11.418485452519624"><ele>240.0</ele><time>2026-04-06T14:32:03Z</time></trkpt><trkpt lat="43.36305434852455" lon="11.418485020344594"><ele>240.0</ele><time>2026-04-06T14:32:04Z</time></trkpt><trkpt lat="43.36287128989898" lon="11.418451861402366"><ele>239.0</ele><time>2026-04-06T14:32:05Z</time></trkpt><trkpt lat="43.362673361778015" lon="11.418387187826397"><ele>238.0</ele><time>2026-04-06T14:32:06Z</time></trkpt><trkpt lat="43.36250648719541" lon="11.418309901609959"><ele>237.0</ele><time>2026-04-06T14:32:07Z</time></trkpt><trkpt lat="43.36234446718222" lon="11.418272107134719"><ele>235.0</ele><time>2026-04-06T14:32:08Z</time></trkpt><trkpt lat="43.36217764451054" lon="11.418276119823119"><ele>233.0</ele><time>2026-04-06T14:32:09Z</time></trkpt><trkpt lat="43.36198556670752" lon="11.418298139678042"><ele>231.0</ele><time>2026-04-06T14:32:10Z</time></trkpt><trkpt lat="43.36180099825708" lon="11.418334341023469"><ele>231.0</ele><time>2026-04-06T14:32:11Z</time></trkpt><trkpt lat="43.36164633430687" lon="11.418399493259344"><ele>231.0</ele><time>2026-04-06T14:32:12Z</time></trkpt><trkpt lat="43.36147769737624" lon="11.418459850715122"><ele>231.0</ele><time>2026-04-06T14:32:13Z</time></trkpt><trkpt lat="43.36130792222106" lon="11.418535255390292"><ele>231.33333333333331</ele><time>2026-04-06T14:32:14Z</time></trkpt><trkpt lat="43.361155558161165" lon="11.418626486722076"><ele>231.66666666666666</ele><time>2026-04-06T14:32:15Z</time></trkpt><trkpt lat="43.361008566283424" lon="11.418735139393577"><ele>232.0</ele><time>2026-04-06T14:32:16Z</time></trkpt><trkpt lat="43.36086679071097" lon="11.418885796650283"><ele>232.0</ele><time>2026-04-06T14:32:17Z</time></trkpt><trkpt lat="43.36069700421851" lon="11.418962656256525"><ele>232.0</ele><time>2026-04-06T14:32:18Z</time></trkpt><trkpt lat="43.36054335887973" lon="11.419069085906635"><ele>232.0</ele><time>2026-04-06T14:32:19Z</time></trkpt><trkpt lat="43.36041139959536" lon="11.41919268887385"><ele>231.33333333333331</ele><time>2026-04-06T14:32:20Z</time></trkpt><trkpt lat="43.3602985257569" lon="11.419480626668252"><ele>230.66666666666669</ele><time>2026-04-06T14:32:21Z</time></trkpt><trkpt lat="43.360123413647045" lon="11.419544900713756"><ele>230.0</ele><time>2026-04-06T14:32:22Z</time></trkpt><trkpt lat="43.35998509029074" lon="11.41959673719539"><ele>230.66666666666669</ele><time>2026-04-06T14:32:23Z</time></trkpt><trkpt lat="43.359796216999776" lon="11.419667517202722"><ele>231.33333333333331</ele><time>2026-04-06T14:32:24Z</time></trkpt><trkpt lat="43.3595946503448" lon="11.419736699519115"><ele>232.0</ele><time>2026-04-06T14:32:25Z</time></trkpt><trkpt lat="43.35940614357585" lon="11.419816109826517"><ele>230.66666666666666</ele><time>2026-04-06T14:32:26Z</time></trkpt><trkpt lat="43.3592223450938" lon="11.419892446078169"><ele>229.33333333333331</ele><time>2026-04-06T14:32:27Z</time></trkpt><trkpt lat="43.359073865605346" lon="11.419936701648728"><ele>228.0</ele><time>2026-04-06T14:32:28Z</time></trkpt><trkpt lat="43.35895910498357" lon="11.419853989755724"><ele>228.0</ele><time>2026-04-06T14:32:29Z</time></trkpt><trkpt lat="43.35888868616004" lon="11.419737541670424"><ele>228.0</ele><time>2026-04-06T14:32:30Z</time></trkpt><trkpt lat="43.35882507499237" lon="11.41963656830445"><ele>228.0</ele><time>2026-04-06T14:32:31Z</time></trkpt><trkpt lat="43.35873678755258" lon="11.419499825897809"><ele>228.0</ele><time>2026-04-06T14:32:32Z</time></trkpt><trkpt lat="43.358644446169684" lon="11.419358226590449"><ele>226.0</ele><time>2026-04-06T14:32:33Z</time></trkpt><trkpt lat="43.35852034678191" lon="11.419167928510976"><ele>224.0</ele><time>2026-04-06T14:32:34Z</time></trkpt><trkpt lat="43.358366392316086" lon="11.418931849663776"><ele>222.0</ele><time>2026-04-06T14:32:35Z</time></trkpt><trkpt lat="43.35822927794512" lon="11.418721593970732"><ele>221.66666666666669</ele><time>2026-04-06T14:32:36Z</time></trkpt><trkpt lat="43.35812055482579" lon="11.418555152470576"><ele>221.33333333333334</ele><time>2026-04-06T14:32:37Z</time></trkpt><trkpt lat="43.35800356769807" lon="11.418376409298421"><ele>221.0</ele><time>2026-04-06T14:32:38Z</time></trkpt><trkpt lat="43.35788773505429" lon="11.418199430048075"><ele>220.66666666666669</ele><time>2026-04-06T14:32:39Z</time></trkpt><trkpt lat="43.357768191319224" lon="11.41801678079714"><ele>220.33333333333331</ele><time>2026-04-06T14:32:40Z</time></trkpt><trkpt lat="43.35764979670602" lon="11.41783588679306"><ele>220.0</ele><time>2026-04-06T14:32:41Z</time></trkpt><trkpt lat="43.357531847194025" lon="11.417655674659098"><ele>220.0</ele><time>2026-04-06T14:32:42Z</time></trkpt><trkpt lat="43.35742225337279" lon="11.417485113606102"><ele>220.0</ele><time>2026-04-06T14:32:42.999Z</time></trkpt><trkpt lat="43.357316638514284" lon="11.417320900700767"><ele>220.0</ele><time>2026-04-06T14:32:43.999Z</time></trkpt><trkpt lat="43.357213107037076" lon="11.417159927092474"><ele>219.75</ele><time>2026-04-06T14:32:44.999Z</time></trkpt><trkpt lat="43.357110985539435" lon="11.417003462817798"><ele>219.5</ele><time>2026-04-06T14:32:45.999Z</time></trkpt><trkpt lat="43.35701567888394" lon="11.416861027361142"><ele>219.25</ele><time>2026-04-06T14:32:46.999Z</time></trkpt><trkpt lat="43.35692819487097" lon="11.416734611010872"><ele>219.0</ele><time>2026-04-06T14:32:47.999Z</time></trkpt><trkpt lat="43.35685033155856" lon="11.416612847255323"><ele>219.0</ele><time>2026-04-06T14:32:48.999Z</time></trkpt><trkpt lat="43.356774860638964" lon="11.416491176296882"><ele>218.99999999999997</ele><time>2026-04-06T14:32:49.999Z</time></trkpt><trkpt lat="43.356705177129456" lon="11.416377039208593"><ele>218.99999999999997</ele><time>2026-04-06T14:32:50.999Z</time></trkpt><trkpt lat="43.35662569129645" lon="11.41626929507008"><ele>219.0</ele><time>2026-04-06T14:32:51.999Z</time></trkpt><trkpt lat="43.35656114951692" lon="11.416144579462106"><ele>219.0</ele><time>2026-04-06T14:32:52.999Z</time></trkpt><trkpt lat="43.356488586531206" lon="11.416028181232697"><ele>219.5</ele><time>2026-04-06T14:32:53.999Z</time></trkpt><trkpt lat="43.356394583712664" lon="11.415922095587664"><ele>220.0</ele><time>2026-04-06T14:32:54.999Z</time></trkpt><trkpt lat="43.35630202257605" lon="11.415850103317716"><ele>220.5</ele><time>2026-04-06T14:32:55.999Z</time></trkpt><trkpt lat="43.35619158647212" lon="11.415817125074044"><ele>221.0</ele><time>2026-04-06T14:32:56.999Z</time></trkpt><trkpt lat="43.356082340892286" lon="11.415869124160054"><ele>221.25</ele><time>2026-04-06T14:32:57.999Z</time></trkpt><trkpt lat="43.355962437550936" lon="11.415873503368603"><ele>221.5</ele><time>2026-04-06T14:32:58.999Z</time></trkpt><trkpt lat="43.35585469071523" lon="11.415891922823484"><ele>221.75</ele><time>2026-04-06T14:32:59.999Z</time></trkpt><trkpt lat="43.35575631756362" lon="11.415932386972898"><ele>222.0</ele><time>2026-04-06T14:33:00.999Z</time></trkpt><trkpt lat="43.35565072631691" lon="11.416054170423445"><ele>222.0</ele><time>2026-04-06T14:33:01.999Z</time></trkpt><trkpt lat="43.355548432985394" lon="11.416143074706866"><ele>222.0</ele><time>2026-04-06T14:33:02.999Z</time></trkpt><trkpt lat="43.35544960916599" lon="11.41619651691386"><ele>222.0</ele><time>2026-04-06T14:33:03.999Z</time></trkpt><trkpt lat="43.355309767046215" lon="11.41619855954616"><ele>222.0</ele><time>2026-04-06T14:33:04.999Z</time></trkpt><trkpt lat="43.35518572455704" lon="11.416192378602991"><ele>223.25</ele><time>2026-04-06T14:33:05.999Z</time></trkpt><trkpt lat="43.355053099979486" lon="11.416187261465831"><ele>224.5</ele><time>2026-04-06T14:33:06.999Z</time></trkpt><trkpt lat="43.35495611507211" lon="11.416152397434214"><ele>225.75</ele><time>2026-04-06T14:33:07.999Z</time></trkpt><trkpt lat="43.35485093586059" lon="11.416160935433082"><ele>227.0</ele><time>2026-04-06T14:33:08.999Z</time></trkpt><trkpt lat="43.35473731470959" lon="11.416152047348264"><ele>226.5</ele><time>2026-04-06T14:33:09.999Z</time></trkpt><trkpt lat="43.35460534402098" lon="11.416168664294048"><ele>226.0</ele><time>2026-04-06T14:33:10.999Z</time></trkpt><trkpt lat="43.354485043285706" lon="11.416150202138487"><ele>225.5</ele><time>2026-04-06T14:33:11.999Z</time></trkpt><trkpt lat="43.354369364789484" lon="11.416148089006642"><ele>225.0</ele><time>2026-04-06T14:33:12.999Z</time></trkpt><trkpt lat="43.354280600553594" lon="11.416125138675884"><ele>225.0</ele><time>2026-04-06T14:33:13.999Z</time></trkpt><trkpt lat="43.35417322720479" lon="11.41610928873613"><ele>225.0</ele><time>2026-04-06T14:33:14.999Z</time></trkpt><trkpt lat="43.354070013108114" lon="11.41610462414563"><ele>225.0</ele><time>2026-04-06T14:33:15.999Z</time></trkpt><trkpt lat="43.353974066354816" lon="11.41608414738335"><ele>225.0</ele><time>2026-04-06T14:33:16.999Z</time></trkpt><trkpt lat="43.35387438208605" lon="11.416073231922754"><ele>225.0</ele><time>2026-04-06T14:33:17.999Z</time></trkpt><trkpt lat="43.35376799783867" lon="11.416048043513452"><ele>224.5</ele><time>2026-04-06T14:33:18.999Z</time></trkpt><trkpt lat="43.35365245504696" lon="11.416021742408612"><ele>224.0</ele><time>2026-04-06T14:33:19.999Z</time></trkpt><trkpt lat="43.3535328695632" lon="11.41599049259898"><ele>223.5</ele><time>2026-04-06T14:33:20.999Z</time></trkpt><trkpt lat="43.35341646827895" lon="11.415946947995817"><ele>223.0</ele><time>2026-04-06T14:33:21.999Z</time></trkpt><trkpt lat="43.353296732860706" lon="11.415903545678777"><ele>223.0</ele><time>2026-04-06T14:33:22.999Z</time></trkpt><trkpt lat="43.353177431972334" lon="11.415869100990237"><ele>223.0</ele><time>2026-04-06T14:33:23.999Z</time></trkpt><trkpt lat="43.35304627157933" lon="11.415847481064697"><ele>223.0</ele><time>2026-04-06T14:33:24.999Z</time></trkpt><trkpt lat="43.352906992376916" lon="11.415822296851763"><ele>223.0</ele><time>2026-04-06T14:33:25.999Z</time></trkpt><trkpt lat="43.35276058890003" lon="11.415792486257866"><ele>223.0</ele><time>2026-04-06T14:33:26.999Z</time></trkpt><trkpt lat="43.352610924729206" lon="11.415747331285223"><ele>223.0</ele><time>2026-04-06T14:33:27.999Z</time></trkpt><trkpt lat="43.35246699223542" lon="11.41570176564625"><ele>223.0</ele><time>2026-04-06T14:33:28.999Z</time></trkpt><trkpt lat="43.35232832792589" lon="11.41566109670334"><ele>223.0</ele><time>2026-04-06T14:33:29.999Z</time></trkpt><trkpt lat="43.35218281304795" lon="11.415616695288538"><ele>222.5</ele><time>2026-04-06T14:33:30.999Z</time></trkpt><trkpt lat="43.35204076233774" lon="11.415570452722028"><ele>222.0</ele><time>2026-04-06T14:33:31.999Z</time></trkpt><trkpt lat="43.351897555857754" lon="11.415535283199254"><ele>221.5</ele><time>2026-04-06T14:33:32.999Z</time></trkpt><trkpt lat="43.35176599932472" lon="11.415500120054991"><ele>221.0</ele><time>2026-04-06T14:33:33.999Z</time></trkpt><trkpt lat="43.351635355286746" lon="11.41547426757114"><ele>221.00000000000003</ele><time>2026-04-06T14:33:34.999Z</time></trkpt><trkpt lat="43.35155432182189" lon="11.415451982149854"><ele>221.0</ele><time>2026-04-06T14:33:35.999Z</time></trkpt><trkpt lat="43.35147653741358" lon="11.415400639071391"><ele>221.0</ele><time>2026-04-06T14:33:36.999Z</time></trkpt><trkpt lat="43.351435649964024" lon="11.415263229525833"><ele>221.0</ele><time>2026-04-06T14:33:38.998Z</time></trkpt><trkpt lat="43.35142375329802" lon="11.415157870314209"><ele>221.00000000000003</ele><time>2026-04-06T14:33:41Z</time></trkpt><trkpt lat="43.35135002800917" lon="11.415107628404632"><ele>221.0</ele><time>2026-04-06T14:33:44Z</time></trkpt><trkpt lat="43.35133671775855" lon="11.415213484782786"><ele>221.0</ele><time>2026-04-06T14:33:46Z</time></trkpt><trkpt lat="43.35133641146951" lon="11.415312369728166"><ele>221.00000000000003</ele><time>2026-04-06T14:33:49Z</time></trkpt><trkpt lat="43.351384105238616" lon="11.415381893315185"><ele>221.00000000000003</ele><time>2026-04-06T14:34:18Z</time></trkpt><trkpt lat="43.35147905428271" lon="11.415449696889176"><ele>221.0</ele><time>2026-04-06T14:34:20Z</time></trkpt><trkpt lat="43.35158475277833" lon="11.415457436155936"><ele>221.0</ele><time>2026-04-06T14:34:22Z</time></trkpt><trkpt lat="43.35169643349757" lon="11.415496156859023"><ele>221.0</ele><time>2026-04-06T14:34:24Z</time></trkpt><trkpt lat="43.351772400623275" lon="11.415551880543996"><ele>221.00000000000003</ele><time>2026-04-06T14:34:26Z</time></trkpt><trkpt lat="43.35184463043019" lon="11.415604539569204"><ele>221.00000000000003</ele><time>2026-04-06T14:34:29Z</time></trkpt><trkpt lat="43.35178355958645" lon="11.415557732228667"><ele>221.0</ele><time>2026-04-06T14:38:26Z</time></trkpt><trkpt lat="43.351640743345975" lon="11.415451036685047"><ele>221.0</ele><time>2026-04-06T14:38:28Z</time></trkpt><trkpt lat="43.35155685938573" lon="11.415425373532745"><ele>221.0</ele><time>2026-04-06T14:38:29Z</time></trkpt><trkpt lat="43.35147219558157" lon="11.415401032560958"><ele>221.00000000000003</ele><time>2026-04-06T14:38:30Z</time></trkpt><trkpt lat="43.35138089190726" lon="11.415396989814527"><ele>221.00000000000003</ele><time>2026-04-06T14:38:31Z</time></trkpt><trkpt lat="43.35129152258861" lon="11.415348263427685"><ele>221.0</ele><time>2026-04-06T14:38:32Z</time></trkpt><trkpt lat="43.35119968612033" lon="11.415322213183632"><ele>221.0</ele><time>2026-04-06T14:38:33Z</time></trkpt><trkpt lat="43.351098623223656" lon="11.415292858928337"><ele>220.75</ele><time>2026-04-06T14:38:34Z</time></trkpt><trkpt lat="43.35099677371464" lon="11.415263858130604"><ele>220.5</ele><time>2026-04-06T14:38:35Z</time></trkpt><trkpt lat="43.350881364368476" lon="11.41523101010113"><ele>220.25</ele><time>2026-04-06T14:38:36Z</time></trkpt><trkpt lat="43.350761211992406" lon="11.415197097671994"><ele>220.0</ele><time>2026-04-06T14:38:37Z</time></trkpt><trkpt lat="43.35064269366096" lon="11.415163512096651"><ele>221.5</ele><time>2026-04-06T14:38:38Z</time></trkpt><trkpt lat="43.3505187039177" lon="11.415128006941432"><ele>223.0</ele><time>2026-04-06T14:38:39Z</time></trkpt><trkpt lat="43.350400774852055" lon="11.415093866537465"><ele>224.5</ele><time>2026-04-06T14:38:40Z</time></trkpt><trkpt lat="43.3502708685084" lon="11.415049868405372"><ele>226.0</ele><time>2026-04-06T14:38:41Z</time></trkpt><trkpt lat="43.350153953897205" lon="11.414987876100199"><ele>226.0</ele><time>2026-04-06T14:38:42Z</time></trkpt><trkpt lat="43.35004302268165" lon="11.41487304960316"><ele>226.0</ele><time>2026-04-06T14:38:43Z</time></trkpt><trkpt lat="43.34996395070134" lon="11.414716855979565"><ele>226.0</ele><time>2026-04-06T14:38:44Z</time></trkpt><trkpt lat="43.34985976045984" lon="11.41452922727084"><ele>226.0</ele><time>2026-04-06T14:38:45Z</time></trkpt><trkpt lat="43.34976750030401" lon="11.414363113002464"><ele>226.33333333333331</ele><time>2026-04-06T14:38:46Z</time></trkpt><trkpt lat="43.34967768881552" lon="11.41419618256428"><ele>226.66666666666669</ele><time>2026-04-06T14:38:47Z</time></trkpt><trkpt lat="43.34958925874405" lon="11.414013990701905"><ele>227.0</ele><time>2026-04-06T14:38:48Z</time></trkpt><trkpt lat="43.349504424144" lon="11.413802073556502"><ele>227.0</ele><time>2026-04-06T14:38:49Z</time></trkpt><trkpt lat="43.349437214020206" lon="11.413606470045835"><ele>227.0</ele><time>2026-04-06T14:38:50Z</time></trkpt><trkpt lat="43.34936897754114" lon="11.413413783594631"><ele>227.0</ele><time>2026-04-06T14:38:51Z</time></trkpt><trkpt lat="43.34928370811903" lon="11.41323027514027"><ele>227.0</ele><time>2026-04-06T14:38:52Z</time></trkpt><trkpt lat="43.349184147635505" lon="11.413064791868583"><ele>227.0</ele><time>2026-04-06T14:38:53Z</time></trkpt><trkpt lat="43.34903564726477" lon="11.412854885861979"><ele>227.0</ele><time>2026-04-06T14:38:54Z</time></trkpt><trkpt lat="43.34890738031407" lon="11.412670516467891"><ele>228.66666666666669</ele><time>2026-04-06T14:38:55Z</time></trkpt><trkpt lat="43.348802678256085" lon="11.412481899649627"><ele>230.33333333333331</ele><time>2026-04-06T14:38:56Z</time></trkpt><trkpt lat="43.348714243703554" lon="11.412275773426119"><ele>232.0</ele><time>2026-04-06T14:38:57Z</time></trkpt><trkpt lat="43.34863963929367" lon="11.412049335859049"><ele>232.0</ele><time>2026-04-06T14:38:58Z</time></trkpt><trkpt lat="43.34856268807011" lon="11.411817543389782"><ele>232.0</ele><time>2026-04-06T14:38:58.999Z</time></trkpt><trkpt lat="43.34853910612023" lon="11.411564623114053"><ele>232.0</ele><time>2026-04-06T14:38:59.999Z</time></trkpt><trkpt lat="43.34852867843985" lon="11.411306168381193"><ele>234.0</ele><time>2026-04-06T14:39:00.999Z</time></trkpt><trkpt lat="43.34851368145913" lon="11.411044361024011"><ele>236.0</ele><time>2026-04-06T14:39:01.999Z</time></trkpt><trkpt lat="43.348480185834305" lon="11.410789431048928"><ele>238.0</ele><time>2026-04-06T14:39:02.999Z</time></trkpt><trkpt lat="43.348429920699466" lon="11.410535723798343"><ele>238.66666666666666</ele><time>2026-04-06T14:39:03.999Z</time></trkpt><trkpt lat="43.348372869367424" lon="11.410284008914893"><ele>239.33333333333331</ele><time>2026-04-06T14:39:04.999Z</time></trkpt><trkpt lat="43.34831402480939" lon="11.41004882291428"><ele>240.0</ele><time>2026-04-06T14:39:05.999Z</time></trkpt><trkpt lat="43.348254945689064" lon="11.409825930303017"><ele>240.0</ele><time>2026-04-06T14:39:06.999Z</time></trkpt><trkpt lat="43.348199535935215" lon="11.409591682103558"><ele>240.0</ele><time>2026-04-06T14:39:07.999Z</time></trkpt><trkpt lat="43.34814727237095" lon="11.40936315402768"><ele>240.0</ele><time>2026-04-06T14:39:08.999Z</time></trkpt><trkpt lat="43.34810429312398" lon="11.409141936000726"><ele>240.0</ele><time>2026-04-06T14:39:09.999Z</time></trkpt><trkpt lat="43.34807492491806" lon="11.40892960199618"><ele>240.0</ele><time>2026-04-06T14:39:10.999Z</time></trkpt><trkpt lat="43.34806268709084" lon="11.408714920619826"><ele>240.0</ele><time>2026-04-06T14:39:11.999Z</time></trkpt><trkpt lat="43.34805633585245" lon="11.40851171323598"><ele>240.75</ele><time>2026-04-06T14:39:12.999Z</time></trkpt><trkpt lat="43.3480507516787" lon="11.408312520987279"><ele>241.5</ele><time>2026-04-06T14:39:13.999Z</time></trkpt><trkpt lat="43.34804457540879" lon="11.408102052486026"><ele>242.25</ele><time>2026-04-06T14:39:14.999Z</time></trkpt><trkpt lat="43.34804175044091" lon="11.407896079964537"><ele>243.0</ele><time>2026-04-06T14:39:15.999Z</time></trkpt><trkpt lat="43.34803985092498" lon="11.407690436267691"><ele>243.75</ele><time>2026-04-06T14:39:16.999Z</time></trkpt><trkpt lat="43.34804224287851" lon="11.4074760479173"><ele>244.5</ele><time>2026-04-06T14:39:17.999Z</time></trkpt><trkpt lat="43.34804713245552" lon="11.407271880787976"><ele>245.25</ele><time>2026-04-06T14:39:18.999Z</time></trkpt><trkpt lat="43.348054052996886" lon="11.4070732229395"><ele>246.0</ele><time>2026-04-06T14:39:19.999Z</time></trkpt><trkpt lat="43.348069293312435" lon="11.406870124644618"><ele>246.75</ele><time>2026-04-06T14:39:20.999Z</time></trkpt><trkpt lat="43.34809143504468" lon="11.406672106054586"><ele>247.5</ele><time>2026-04-06T14:39:21.999Z</time></trkpt><trkpt lat="43.34811815340498" lon="11.406475748946752"><ele>248.25</ele><time>2026-04-06T14:39:22.999Z</time></trkpt><trkpt lat="43.34816331406863" lon="11.406279666002916"><ele>249.0</ele><time>2026-04-06T14:39:23.999Z</time></trkpt><trkpt lat="43.348219352635496" lon="11.406096643079483"><ele>250.75</ele><time>2026-04-06T14:39:24.999Z</time></trkpt><trkpt lat="43.3482760152431" lon="11.405907312999997"><ele>252.5</ele><time>2026-04-06T14:39:25.999Z</time></trkpt><trkpt lat="43.348323056830104" lon="11.405735726140064"><ele>254.25</ele><time>2026-04-06T14:39:26.999Z</time></trkpt><trkpt lat="43.34836484416813" lon="11.4055472996944"><ele>256.0</ele><time>2026-04-06T14:39:27.999Z</time></trkpt><trkpt lat="43.3484195509732" lon="11.405357414393032"><ele>258.75</ele><time>2026-04-06T14:39:28.999Z</time></trkpt><trkpt lat="43.348444097043895" lon="11.405149578864789"><ele>261.5</ele><time>2026-04-06T14:39:29.999Z</time></trkpt><trkpt lat="43.34846304548275" lon="11.404958265494027"><ele>264.25</ele><time>2026-04-06T14:39:30.999Z</time></trkpt><trkpt lat="43.34848285474421" lon="11.404785818874531"><ele>267.0</ele><time>2026-04-06T14:39:31.999Z</time></trkpt><trkpt lat="43.34850866848601" lon="11.40458236082421"><ele>267.5</ele><time>2026-04-06T14:39:32.999Z</time></trkpt><trkpt lat="43.348567170905554" lon="11.404428405332721"><ele>268.0</ele><time>2026-04-06T14:39:33.999Z</time></trkpt><trkpt lat="43.34863183532075" lon="11.404301241359688"><ele>268.5</ele><time>2026-04-06T14:39:34.999Z</time></trkpt><trkpt lat="43.34871341866147" lon="11.404165618515135"><ele>269.0</ele><time>2026-04-06T14:39:35.999Z</time></trkpt><trkpt lat="43.34880375796038" lon="11.40403377315101"><ele>269.75</ele><time>2026-04-06T14:39:36.999Z</time></trkpt><trkpt lat="43.34887780013322" lon="11.403903878680564"><ele>270.5</ele><time>2026-04-06T14:39:37.999Z</time></trkpt><trkpt lat="43.34895397867022" lon="11.403787518736305"><ele>271.25</ele><time>2026-04-06T14:39:38.999Z</time></trkpt><trkpt lat="43.349028699857776" lon="11.403640563723572"><ele>272.0</ele><time>2026-04-06T14:39:39.999Z</time></trkpt><trkpt lat="43.34908324069113" lon="11.403477386075263"><ele>272.0</ele><time>2026-04-06T14:39:40.999Z</time></trkpt><trkpt lat="43.34911585985854" lon="11.403311051821458"><ele>272.0</ele><time>2026-04-06T14:39:41.999Z</time></trkpt><trkpt lat="43.34913251530524" lon="11.403144076638425"><ele>272.0</ele><time>2026-04-06T14:39:42.999Z</time></trkpt><trkpt lat="43.34914628077728" lon="11.402977105721325"><ele>272.0</ele><time>2026-04-06T14:39:43.999Z</time></trkpt><trkpt lat="43.34916807472721" lon="11.402818048760993"><ele>273.4</ele><time>2026-04-06T14:39:44.999Z</time></trkpt><trkpt lat="43.34919376804812" lon="11.402656962711648"><ele>274.79999999999995</ele><time>2026-04-06T14:39:45.999Z</time></trkpt><trkpt lat="43.349208577961676" lon="11.402516494566559"><ele>276.2</ele><time>2026-04-06T14:39:46.999Z</time></trkpt><trkpt lat="43.34922439176722" lon="11.40237297714408"><ele>277.59999999999997</ele><time>2026-04-06T14:39:47.999Z</time></trkpt><trkpt lat="43.349234618559265" lon="11.402230324691686"><ele>279.0</ele><time>2026-04-06T14:39:48.999Z</time></trkpt><trkpt lat="43.34922876575136" lon="11.402067449689278"><ele>280.59999999999997</ele><time>2026-04-06T14:39:49.999Z</time></trkpt><trkpt lat="43.34924888789431" lon="11.401941321397027"><ele>282.2</ele><time>2026-04-06T14:39:50.999Z</time></trkpt><trkpt lat="43.349304407609026" lon="11.401807963273455"><ele>283.79999999999995</ele><time>2026-04-06T14:39:51.999Z</time></trkpt><trkpt lat="43.34937642152202" lon="11.401677710624623"><ele>285.4</ele><time>2026-04-06T14:39:52.999Z</time></trkpt><trkpt lat="43.34947569705556" lon="11.401598689774485"><ele>287.0</ele><time>2026-04-06T14:39:53.998Z</time></trkpt><trkpt lat="43.34957965435106" lon="11.401596470400639"><ele>287.0</ele><time>2026-04-06T14:39:54.998Z</time></trkpt><trkpt lat="43.3496967115076" lon="11.401618259976534"><ele>287.0</ele><time>2026-04-06T14:39:55.998Z</time></trkpt><trkpt lat="43.3497937340266" lon="11.401664199954078"><ele>287.0</ele><time>2026-04-06T14:39:56.998Z</time></trkpt><trkpt lat="43.34990971347474" lon="11.40168266987543"><ele>287.0</ele><time>2026-04-06T14:39:58.001Z</time></trkpt><trkpt lat="43.35003769034812" lon="11.401648231081035"><ele>285.75</ele><time>2026-04-06T14:39:59.001Z</time></trkpt><trkpt lat="43.35015168354582" lon="11.401608650807816"><ele>284.5</ele><time>2026-04-06T14:40:00Z</time></trkpt><trkpt lat="43.35022885478494" lon="11.401490611503315"><ele>283.25</ele><time>2026-04-06T14:40:01.001Z</time></trkpt><trkpt lat="43.35025038910921" lon="11.401349141045413"><ele>282.0</ele><time>2026-04-06T14:40:02.001Z</time></trkpt><trkpt lat="43.35021215554709" lon="11.401194135322248"><ele>284.5</ele><time>2026-04-06T14:40:03Z</time></trkpt><trkpt lat="43.35012973746217" lon="11.401055941302053"><ele>287.0</ele><time>2026-04-06T14:40:04Z</time></trkpt><trkpt lat="43.35002043916908" lon="11.400909801599255"><ele>289.5</ele><time>2026-04-06T14:40:05Z</time></trkpt><trkpt lat="43.349930937116895" lon="11.400799707873698"><ele>292.0</ele><time>2026-04-06T14:40:05.999Z</time></trkpt><trkpt lat="43.34980861080968" lon="11.400714626011618"><ele>292.66666666666663</ele><time>2026-04-06T14:40:06.999Z</time></trkpt><trkpt lat="43.349680813446625" lon="11.400623647631432"><ele>293.3333333333333</ele><time>2026-04-06T14:40:08Z</time></trkpt><trkpt lat="43.34952230950159" lon="11.400626912310061"><ele>294.0</ele><time>2026-04-06T14:40:08.999Z</time></trkpt><trkpt lat="43.349357935638615" lon="11.400698079040428"><ele>294.0</ele><time>2026-04-06T14:40:10Z</time></trkpt><trkpt lat="43.34920285502595" lon="11.400778759034964"><ele>294.0</ele><time>2026-04-06T14:40:11Z</time></trkpt><trkpt lat="43.349054717005906" lon="11.40086455192173"><ele>294.0</ele><time>2026-04-06T14:40:11.999Z</time></trkpt><trkpt lat="43.34890203702974" lon="11.400965890526127"><ele>295.5</ele><time>2026-04-06T14:40:12.999Z</time></trkpt><trkpt lat="43.34876743081682" lon="11.401041670173019"><ele>297.0</ele><time>2026-04-06T14:40:13.999Z</time></trkpt><trkpt lat="43.34865293744416" lon="11.401056923685374"><ele>298.5</ele><time>2026-04-06T14:40:14.999Z</time></trkpt><trkpt lat="43.34854178245718" lon="11.400991177640394"><ele>300.0</ele><time>2026-04-06T14:40:15.999Z</time></trkpt><trkpt lat="43.34843486713116" lon="11.400875368483588"><ele>300.0</ele><time>2026-04-06T14:40:16.999Z</time></trkpt><trkpt lat="43.34831706826437" lon="11.40075548143486"><ele>300.0</ele><time>2026-04-06T14:40:17.999Z</time></trkpt><trkpt lat="43.34821689816795" lon="11.400616903064133"><ele>300.0</ele><time>2026-04-06T14:40:18.999Z</time></trkpt><trkpt lat="43.34809871734742" lon="11.400497711538133"><ele>300.0</ele><time>2026-04-06T14:40:19.999Z</time></trkpt><trkpt lat="43.34796846277433" lon="11.40039087923176"><ele>301.75</ele><time>2026-04-06T14:40:20.999Z</time></trkpt><trkpt lat="43.347834700237875" lon="11.4003061125622"><ele>303.5</ele><time>2026-04-06T14:40:21.999Z</time></trkpt><trkpt lat="43.34769979076435" lon="11.400224391013872"><ele>305.25</ele><time>2026-04-06T14:40:22.999Z</time></trkpt><trkpt lat="43.347592503675465" lon="11.40015099396832"><ele>307.0</ele><time>2026-04-06T14:40:23.999Z</time></trkpt><trkpt lat="43.34751310634059" lon="11.400064114043271"><ele>307.0</ele><time>2026-04-06T14:40:24.999Z</time></trkpt><trkpt lat="43.3474494945983" lon="11.399937609328006"><ele>307.0</ele><time>2026-04-06T14:40:25.999Z</time></trkpt><trkpt lat="43.347421945207955" lon="11.399800119869603"><ele>307.0</ele><time>2026-04-06T14:40:26.999Z</time></trkpt><trkpt lat="43.347456102551064" lon="11.399667367783819"><ele>307.0</ele><time>2026-04-06T14:40:27.999Z</time></trkpt><trkpt lat="43.347532046389965" lon="11.399531183388525"><ele>307.0</ele><time>2026-04-06T14:40:28.999Z</time></trkpt><trkpt lat="43.34762968560681" lon="11.39941875113297"><ele>307.25</ele><time>2026-04-06T14:40:29.999Z</time></trkpt><trkpt lat="43.34774158635008" lon="11.39933180425103"><ele>307.5</ele><time>2026-04-06T14:40:30.999Z</time></trkpt><trkpt lat="43.34786483756934" lon="11.399229646703663"><ele>307.75</ele><time>2026-04-06T14:40:31.999Z</time></trkpt><trkpt lat="43.348000160480176" lon="11.399152667552935"><ele>308.0</ele><time>2026-04-06T14:40:32.999Z</time></trkpt><trkpt lat="43.348146197706434" lon="11.399110356733651"><ele>308.6666666666667</ele><time>2026-04-06T14:40:33.999Z</time></trkpt><trkpt lat="43.348284868368594" lon="11.399064262062897"><ele>309.3333333333333</ele><time>2026-04-06T14:40:34.999Z</time></trkpt><trkpt lat="43.34843512355131" lon="11.399011271731432"><ele>310.0</ele><time>2026-04-06T14:40:35.999Z</time></trkpt><trkpt lat="43.3485958254995" lon="11.398950399912918"><ele>310.0</ele><time>2026-04-06T14:40:36.999Z</time></trkpt><trkpt lat="43.34875551866214" lon="11.398868968314925"><ele>310.0</ele><time>2026-04-06T14:40:37.999Z</time></trkpt><trkpt lat="43.34892765140923" lon="11.398807551709712"><ele>310.0</ele><time>2026-04-06T14:40:38.999Z</time></trkpt><trkpt lat="43.3490936739959" lon="11.398743359954464"><ele>309.0</ele><time>2026-04-06T14:40:39.999Z</time></trkpt><trkpt lat="43.34926015884562" lon="11.398685551462336"><ele>308.0</ele><time>2026-04-06T14:40:40.999Z</time></trkpt><trkpt lat="43.349429825676935" lon="11.398629447738918"><ele>307.0</ele><time>2026-04-06T14:40:41.999Z</time></trkpt><trkpt lat="43.349592847293" lon="11.398560828944408"><ele>308.0</ele><time>2026-04-06T14:40:42.999Z</time></trkpt><trkpt lat="43.34974998138297" lon="11.398487228006474"><ele>309.0</ele><time>2026-04-06T14:40:43.999Z</time></trkpt><trkpt lat="43.349902924591184" lon="11.398427101933976"><ele>310.0</ele><time>2026-04-06T14:40:44.999Z</time></trkpt><trkpt lat="43.35005240830099" lon="11.398369424165745"><ele>310.0</ele><time>2026-04-06T14:40:45.999Z</time></trkpt><trkpt lat="43.35018650749454" lon="11.398293879952616"><ele>310.0</ele><time>2026-04-06T14:40:46.999Z</time></trkpt><trkpt lat="43.350289020241625" lon="11.398168515836957"><ele>310.0</ele><time>2026-04-06T14:40:47.999Z</time></trkpt><trkpt lat="43.350353464818" lon="11.398006058321993"><ele>310.0</ele><time>2026-04-06T14:40:48.999Z</time></trkpt><trkpt lat="43.350377830402316" lon="11.397782015206584"><ele>309.0</ele><time>2026-04-06T14:40:49.999Z</time></trkpt><trkpt lat="43.35037229934349" lon="11.397556015226142"><ele>308.0</ele><time>2026-04-06T14:40:50.999Z</time></trkpt><trkpt lat="43.35037615383101" lon="11.397316623944118"><ele>307.0</ele><time>2026-04-06T14:40:51.999Z</time></trkpt><trkpt lat="43.35039038492632" lon="11.397071775525033"><ele>307.0</ele><time>2026-04-06T14:40:52.999Z</time></trkpt><trkpt lat="43.35041266937819" lon="11.396823356828536"><ele>307.0</ele><time>2026-04-06T14:40:53.999Z</time></trkpt><trkpt lat="43.35042963354375" lon="11.396557961467423"><ele>307.0</ele><time>2026-04-06T14:40:54.999Z</time></trkpt><trkpt lat="43.35044519080543" lon="11.396287486222281"><ele>306.3333333333333</ele><time>2026-04-06T14:40:55.999Z</time></trkpt><trkpt lat="43.350460272995214" lon="11.396011842959677"><ele>305.6666666666667</ele><time>2026-04-06T14:40:56.999Z</time></trkpt><trkpt lat="43.35047467503377" lon="11.395731042554166"><ele>305.0</ele><time>2026-04-06T14:40:57.999Z</time></trkpt><trkpt lat="43.35049164136753" lon="11.395437184134556"><ele>304.6666666666667</ele><time>2026-04-06T14:40:58.999Z</time></trkpt><trkpt lat="43.35049362785311" lon="11.39515334097714"><ele>304.3333333333333</ele><time>2026-04-06T14:40:59.999Z</time></trkpt><trkpt lat="43.35047672628802" lon="11.394871245319841"><ele>304.0</ele><time>2026-04-06T14:41:00.999Z</time></trkpt><trkpt lat="43.3504463301646" lon="11.394591254680549"><ele>304.0</ele><time>2026-04-06T14:41:01.999Z</time></trkpt><trkpt lat="43.350403294320465" lon="11.394305830450763"><ele>304.0</ele><time>2026-04-06T14:41:02.999Z</time></trkpt><trkpt lat="43.35035228203207" lon="11.394018408961013"><ele>304.0</ele><time>2026-04-06T14:41:03.998Z</time></trkpt><trkpt lat="43.35028985521683" lon="11.393732984222144"><ele>304.3333333333333</ele><time>2026-04-06T14:41:04.998Z</time></trkpt><trkpt lat="43.35021807027881" lon="11.393447789209663"><ele>304.6666666666667</ele><time>2026-04-06T14:41:05.998Z</time></trkpt><trkpt lat="43.350133158654884" lon="11.393171745407672"><ele>305.0</ele><time>2026-04-06T14:41:06.998Z</time></trkpt><trkpt lat="43.350033145257385" lon="11.392906286647383"><ele>306.0</ele><time>2026-04-06T14:41:07.998Z</time></trkpt><trkpt lat="43.349921559737766" lon="11.3926461656365"><ele>307.0</ele><time>2026-04-06T14:41:08.998Z</time></trkpt><trkpt lat="43.34979344181215" lon="11.392397219089485"><ele>308.0</ele><time>2026-04-06T14:41:09.998Z</time></trkpt><trkpt lat="43.34964509425986" lon="11.392172759067407"><ele>308.6666666666667</ele><time>2026-04-06T14:41:10.998Z</time></trkpt><trkpt lat="43.34948293851781" lon="11.391994836170502"><ele>309.3333333333333</ele><time>2026-04-06T14:41:11.998Z</time></trkpt><trkpt lat="43.349321562470536" lon="11.391822151577687"><ele>310.0</ele><time>2026-04-06T14:41:12.998Z</time></trkpt><trkpt lat="43.349166490738355" lon="11.391658676318405"><ele>310.0</ele><time>2026-04-06T14:41:13.998Z</time></trkpt><trkpt lat="43.34902516193105" lon="11.391507307634726"><ele>310.0</ele><time>2026-04-06T14:41:14.998Z</time></trkpt><trkpt lat="43.34889283856633" lon="11.39136356446186"><ele>310.0</ele><time>2026-04-06T14:41:15.998Z</time></trkpt><trkpt lat="43.34877614531832" lon="11.39121899018793"><ele>309.5</ele><time>2026-04-06T14:41:16.998Z</time></trkpt><trkpt lat="43.34869867787054" lon="11.391052456284239"><ele>309.0</ele><time>2026-04-06T14:41:17.998Z</time></trkpt><trkpt lat="43.34866080647616" lon="11.39086129266798"><ele>308.5</ele><time>2026-04-06T14:41:18.998Z</time></trkpt><trkpt lat="43.348660881348174" lon="11.390664791681026"><ele>308.0</ele><time>2026-04-06T14:41:19.998Z</time></trkpt><trkpt lat="43.34866980086754" lon="11.390460297995011"><ele>306.33333333333337</ele><time>2026-04-06T14:41:20.998Z</time></trkpt><trkpt lat="43.34870702810271" lon="11.390260555865915"><ele>304.6666666666667</ele><time>2026-04-06T14:41:21.998Z</time></trkpt><trkpt lat="43.34876867104128" lon="11.390039410114134"><ele>303.0</ele><time>2026-04-06T14:41:22.998Z</time></trkpt><trkpt lat="43.34885433427886" lon="11.389814786834929"><ele>303.0</ele><time>2026-04-06T14:41:23.998Z</time></trkpt><trkpt lat="43.34894780036477" lon="11.389585531161108"><ele>303.0</ele><time>2026-04-06T14:41:24.998Z</time></trkpt><trkpt lat="43.34903454819346" lon="11.389346524717922"><ele>303.0</ele><time>2026-04-06T14:41:25.998Z</time></trkpt><trkpt lat="43.34911833148254" lon="11.389097567178354"><ele>303.0</ele><time>2026-04-06T14:41:26.998Z</time></trkpt><trkpt lat="43.34919941195994" lon="11.388863937849099"><ele>303.0</ele><time>2026-04-06T14:41:27.998Z</time></trkpt><trkpt lat="43.349286354057675" lon="11.388650961734601"><ele>303.0</ele><time>2026-04-06T14:41:28.998Z</time></trkpt><trkpt lat="43.34939165305758" lon="11.388449357363488"><ele>300.3333333333333</ele><time>2026-04-06T14:41:29.998Z</time></trkpt><trkpt lat="43.34952382139692" lon="11.388268319545366"><ele>297.66666666666663</ele><time>2026-04-06T14:41:30.998Z</time></trkpt><trkpt lat="43.3496693837367" lon="11.388113023607099"><ele>295.0</ele><time>2026-04-06T14:41:31.998Z</time></trkpt><trkpt lat="43.34981152621478" lon="11.38795079095123"><ele>295.0</ele><time>2026-04-06T14:41:32.998Z</time></trkpt><trkpt lat="43.34994290850958" lon="11.387776394718228"><ele>295.0</ele><time>2026-04-06T14:41:33.998Z</time></trkpt><trkpt lat="43.35007254796577" lon="11.387612642196592"><ele>295.0</ele><time>2026-04-06T14:41:34.998Z</time></trkpt><trkpt lat="43.35015554507931" lon="11.387415872216991"><ele>295.0</ele><time>2026-04-06T14:41:35.998Z</time></trkpt><trkpt lat="43.35025146227678" lon="11.387241567778153"><ele>295.0</ele><time>2026-04-06T14:41:36.998Z</time></trkpt><trkpt lat="43.35034224820486" lon="11.387103611429714"><ele>295.0</ele><time>2026-04-06T14:41:37.998Z</time></trkpt><trkpt lat="43.35046809344193" lon="11.387030020145826"><ele>295.0</ele><time>2026-04-06T14:41:38.998Z</time></trkpt><trkpt lat="43.35058095718282" lon="11.386979059715769"><ele>295.0</ele><time>2026-04-06T14:41:39.998Z</time></trkpt><trkpt lat="43.350681927213394" lon="11.386983111218452"><ele>295.0</ele><time>2026-04-06T14:41:40.998Z</time></trkpt><trkpt lat="43.3507676348779" lon="11.386999643073263"><ele>295.0</ele><time>2026-04-06T14:41:41.998Z</time></trkpt><trkpt lat="43.35084862970145" lon="11.38700113454143"><ele>295.0</ele><time>2026-04-06T14:41:42.998Z</time></trkpt><trkpt lat="43.35095240265767" lon="11.386983474992725"><ele>295.0</ele><time>2026-04-06T14:41:43.998Z</time></trkpt><trkpt lat="43.35104319019162" lon="11.386907088117248"><ele>295.0</ele><time>2026-04-06T14:41:44.998Z</time></trkpt><trkpt lat="43.35107982683773" lon="11.386734482329924"><ele>295.0</ele><time>2026-04-06T14:41:45.998Z</time></trkpt><trkpt lat="43.35114267417425" lon="11.38663323947717"><ele>295.0</ele><time>2026-04-06T14:41:46.998Z</time></trkpt><trkpt lat="43.35109025500923" lon="11.386545735178403"><ele>295.0</ele><time>2026-04-06T14:41:47.998Z</time></trkpt><trkpt lat="43.35102616964517" lon="11.38646193099023"><ele>295.0</ele><time>2026-04-06T14:41:49.998Z</time></trkpt><trkpt lat="43.350941094481925" lon="11.386403579051292"><ele>295.0</ele><time>2026-04-06T14:41:51.998Z</time></trkpt><trkpt lat="43.35087968840831" lon="11.386369489390034"><ele>295.0</ele><time>2026-04-06T14:41:52.998Z</time></trkpt><trkpt lat="43.350806047138555" lon="11.386338153636133"><ele>295.0</ele><time>2026-04-06T14:41:53.998Z</time></trkpt><trkpt lat="43.35072308534466" lon="11.386310304279469"><ele>295.0</ele><time>2026-04-06T14:41:54.998Z</time></trkpt><trkpt lat="43.35061914403538" lon="11.386276393910816"><ele>295.0</ele><time>2026-04-06T14:41:55.998Z</time></trkpt><trkpt lat="43.35048284590958" lon="11.386231429964724"><ele>292.3333333333333</ele><time>2026-04-06T14:41:56.998Z</time></trkpt><trkpt lat="43.35036471337687" lon="11.386181692173702"><ele>289.6666666666667</ele><time>2026-04-06T14:41:57.998Z</time></trkpt><trkpt lat="43.35018150020199" lon="11.38607877468622"><ele>287.0</ele><time>2026-04-06T14:41:58.997Z</time></trkpt><trkpt lat="43.35001277995084" lon="11.38595279426259"><ele>287.0</ele><time>2026-04-06T14:41:59.997Z</time></trkpt><trkpt lat="43.34986023227812" lon="11.385823512332374"><ele>287.0</ele><time>2026-04-06T14:42:00.997Z</time></trkpt><trkpt lat="43.34971371389573" lon="11.385708395934792"><ele>287.0</ele><time>2026-04-06T14:42:01.997Z</time></trkpt><trkpt lat="43.349552010242405" lon="11.385608799374353"><ele>284.6666666666667</ele><time>2026-04-06T14:42:02.997Z</time></trkpt><trkpt lat="43.34939470092291" lon="11.385531896223139"><ele>282.3333333333333</ele><time>2026-04-06T14:42:03.999Z</time></trkpt><trkpt lat="43.34921678077305" lon="11.385444068842471"><ele>280.0</ele><time>2026-04-06T14:42:04.999Z</time></trkpt><trkpt lat="43.349088111158345" lon="11.385365185275509"><ele>280.0</ele><time>2026-04-06T14:42:05.999Z</time></trkpt><trkpt lat="43.34896508931531" lon="11.385280473601291"><ele>280.0</ele><time>2026-04-06T14:42:06.999Z</time></trkpt><trkpt lat="43.34885216262126" lon="11.385188022992837"><ele>280.0</ele><time>2026-04-06T14:42:07.999Z</time></trkpt><trkpt lat="43.34872161572266" lon="11.385059785506751"><ele>280.0</ele><time>2026-04-06T14:42:08.999Z</time></trkpt><trkpt lat="43.348606426230106" lon="11.384937413037102"><ele>278.25</ele><time>2026-04-06T14:42:09.999Z</time></trkpt><trkpt lat="43.3485137271195" lon="11.384826092437356"><ele>276.5</ele><time>2026-04-06T14:42:11Z</time></trkpt><trkpt lat="43.348406642063246" lon="11.384673458977769"><ele>274.75</ele><time>2026-04-06T14:42:11.999Z</time></trkpt><trkpt lat="43.34832712420509" lon="11.384508055903952"><ele>273.0</ele><time>2026-04-06T14:42:12.999Z</time></trkpt><trkpt lat="43.34822640831522" lon="11.38434355831803"><ele>272.75</ele><time>2026-04-06T14:42:14Z</time></trkpt><trkpt lat="43.34813342945992" lon="11.384193655264767"><ele>272.5</ele><time>2026-04-06T14:42:14.999Z</time></trkpt><trkpt lat="43.34805207945157" lon="11.384041896621225"><ele>272.25</ele><time>2026-04-06T14:42:15.999Z</time></trkpt><trkpt lat="43.34797643538158" lon="11.383869270861672"><ele>272.0</ele><time>2026-04-06T14:42:17Z</time></trkpt><trkpt lat="43.347936287763126" lon="11.383670369948202"><ele>269.0</ele><time>2026-04-06T14:42:17.999Z</time></trkpt><trkpt lat="43.3478816601503" lon="11.383451162574413"><ele>266.0</ele><time>2026-04-06T14:42:18.999Z</time></trkpt><trkpt lat="43.347825269193926" lon="11.383206688422945"><ele>263.0</ele><time>2026-04-06T14:42:19.999Z</time></trkpt><trkpt lat="43.34777018639702" lon="11.382960126983289"><ele>262.0</ele><time>2026-04-06T14:42:20.999Z</time></trkpt><trkpt lat="43.34772640303816" lon="11.38276173765571"><ele>261.0</ele><time>2026-04-06T14:42:21.999Z</time></trkpt><trkpt lat="43.34767410913726" lon="11.382524785639347"><ele>260.0</ele><time>2026-04-06T14:42:22.999Z</time></trkpt><trkpt lat="43.34762356776807" lon="11.382297614911428"><ele>260.25</ele><time>2026-04-06T14:42:23.999Z</time></trkpt><trkpt lat="43.34757692791524" lon="11.382092180705145"><ele>260.5</ele><time>2026-04-06T14:42:24.999Z</time></trkpt><trkpt lat="43.34753673095341" lon="11.381888668130921"><ele>260.75</ele><time>2026-04-06T14:42:25.999Z</time></trkpt><trkpt lat="43.347540278298794" lon="11.381708358309282"><ele>261.0</ele><time>2026-04-06T14:42:26.999Z</time></trkpt><trkpt lat="43.34758758241332" lon="11.381551022154216"><ele>261.0</ele><time>2026-04-06T14:42:27.999Z</time></trkpt><trkpt lat="43.34766943205767" lon="11.381430388367434"><ele>261.0</ele><time>2026-04-06T14:42:28.999Z</time></trkpt><trkpt lat="43.347760014609456" lon="11.381297060755976"><ele>261.0</ele><time>2026-04-06T14:42:29.999Z</time></trkpt><trkpt lat="43.34784774055733" lon="11.381140714000484"><ele>261.0</ele><time>2026-04-06T14:42:30.999Z</time></trkpt><trkpt lat="43.34793357749979" lon="11.381008912369593"><ele>261.2</ele><time>2026-04-06T14:42:31.999Z</time></trkpt><trkpt lat="43.34802529637495" lon="11.380911206159162"><ele>261.40000000000003</ele><time>2026-04-06T14:42:32.999Z</time></trkpt><trkpt lat="43.348137594393975" lon="11.380875657235087"><ele>261.6</ele><time>2026-04-06T14:42:33.999Z</time></trkpt><trkpt lat="43.34822721975841" lon="11.380886210421401"><ele>261.8</ele><time>2026-04-06T14:42:34.999Z</time></trkpt><trkpt lat="43.348330319027035" lon="11.38092138400974"><ele>262.0</ele><time>2026-04-06T14:42:35.999Z</time></trkpt><trkpt lat="43.34839980207137" lon="11.380998657410661"><ele>261.6</ele><time>2026-04-06T14:42:36.999Z</time></trkpt><trkpt lat="43.348463512803576" lon="11.381078377363837"><ele>261.2</ele><time>2026-04-06T14:42:37.999Z</time></trkpt><trkpt lat="43.34853038556048" lon="11.381182267796897"><ele>260.8</ele><time>2026-04-06T14:42:38.999Z</time></trkpt><trkpt lat="43.348596760183895" lon="11.381279685867359"><ele>260.4</ele><time>2026-04-06T14:42:39.999Z</time></trkpt><trkpt lat="43.34868292647887" lon="11.381402095187633"><ele>260.0</ele><time>2026-04-06T14:42:40.999Z</time></trkpt><trkpt lat="43.34877332795053" lon="11.381505577719176"><ele>260.2</ele><time>2026-04-06T14:42:41.999Z</time></trkpt><trkpt lat="43.348862328156464" lon="11.381593644014979"><ele>260.4</ele><time>2026-04-06T14:42:42.999Z</time></trkpt><trkpt lat="43.34893672957396" lon="11.38166388986655"><ele>260.6</ele><time>2026-04-06T14:42:43.999Z</time></trkpt><trkpt lat="43.348999302014334" lon="11.381723781320776"><ele>260.8</ele><time>2026-04-06T14:42:44.999Z</time></trkpt><trkpt lat="43.349098085082964" lon="11.38182021829553"><ele>261.0</ele><time>2026-04-06T14:42:45.999Z</time></trkpt><trkpt lat="43.34915975352408" lon="11.381867885247415"><ele>261.0</ele><time>2026-04-06T14:42:46.999Z</time></trkpt><trkpt lat="43.349286645081094" lon="11.381884479730195"><ele>261.0</ele><time>2026-04-06T14:42:47.999Z</time></trkpt><trkpt lat="43.34937744291932" lon="11.381815633573828"><ele>261.0</ele><time>2026-04-06T14:42:48.999Z</time></trkpt><trkpt lat="43.34943115480605" lon="11.381678754067053"><ele>261.0</ele><time>2026-04-06T14:42:49.999Z</time></trkpt><trkpt lat="43.34945908685094" lon="11.381559813890972"><ele>261.0</ele><time>2026-04-06T14:42:50.999Z</time></trkpt><trkpt lat="43.34947049904325" lon="11.381395421574052"><ele>261.0</ele><time>2026-04-06T14:42:51.999Z</time></trkpt><trkpt lat="43.34942260610161" lon="11.381166781458258"><ele>261.0</ele><time>2026-04-06T14:42:52.999Z</time></trkpt><trkpt lat="43.34939248335588" lon="11.381003099208733"><ele>261.0</ele><time>2026-04-06T14:42:53.999Z</time></trkpt><trkpt lat="43.34933482075191" lon="11.380784829263819"><ele>261.0</ele><time>2026-04-06T14:42:54.999Z</time></trkpt><trkpt lat="43.34923586041959" lon="11.380596143162105"><ele>261.0</ele><time>2026-04-06T14:42:55.999Z</time></trkpt><trkpt lat="43.349149888063145" lon="11.38036654180145"><ele>261.0</ele><time>2026-04-06T14:42:56.999Z</time></trkpt><trkpt lat="43.34904090591802" lon="11.380143587280267"><ele>263.6666666666667</ele><time>2026-04-06T14:42:57.999Z</time></trkpt><trkpt lat="43.348948433266585" lon="11.379928294812608"><ele>266.33333333333337</ele><time>2026-04-06T14:42:58.999Z</time></trkpt><trkpt lat="43.3488421539594" lon="11.379680858054444"><ele>269.0</ele><time>2026-04-06T14:42:59.999Z</time></trkpt><trkpt lat="43.348730810057475" lon="11.379421630036116"><ele>261.0</ele><time>2026-04-06T14:43:00.999Z</time></trkpt><trkpt lat="43.34861440169972" lon="11.379150634827086"><ele>253.0</ele><time>2026-04-06T14:43:01.999Z</time></trkpt><trkpt lat="43.348496019392606" lon="11.378872023449643"><ele>255.5</ele><time>2026-04-06T14:43:02.999Z</time></trkpt><trkpt lat="43.34837577488039" lon="11.378589029351664"><ele>258.0</ele><time>2026-04-06T14:43:03.999Z</time></trkpt><trkpt lat="43.34825957955281" lon="11.378315565004877"><ele>258.0</ele><time>2026-04-06T14:43:04.999Z</time></trkpt><trkpt lat="43.34814513801796" lon="11.37804622818107"><ele>258.0</ele><time>2026-04-06T14:43:05.999Z</time></trkpt><trkpt lat="43.34802455060074" lon="11.377765291596793"><ele>256.6666666666667</ele><time>2026-04-06T14:43:06.999Z</time></trkpt><trkpt lat="43.34791209598275" lon="11.377503409958337"><ele>255.33333333333334</ele><time>2026-04-06T14:43:07.999Z</time></trkpt><trkpt lat="43.34780093912762" lon="11.377235755376274"><ele>254.0</ele><time>2026-04-06T14:43:08.999Z</time></trkpt><trkpt lat="43.3477226319468" lon="11.376964781210308"><ele>254.0</ele><time>2026-04-06T14:43:09.999Z</time></trkpt><trkpt lat="43.34769399048087" lon="11.37669306146292"><ele>254.0</ele><time>2026-04-06T14:43:10.999Z</time></trkpt><trkpt lat="43.34764315704106" lon="11.376402684756952"><ele>254.0</ele><time>2026-04-06T14:43:11.999Z</time></trkpt><trkpt lat="43.34760306472919" lon="11.376111489425611"><ele>254.0</ele><time>2026-04-06T14:43:12.999Z</time></trkpt><trkpt lat="43.347598975100894" lon="11.375828233334301"><ele>254.0</ele><time>2026-04-06T14:43:13.998Z</time></trkpt><trkpt lat="43.34758968745065" lon="11.375567169339476"><ele>254.0</ele><time>2026-04-06T14:43:14.998Z</time></trkpt><trkpt lat="43.3475943648554" lon="11.375335148640902"><ele>252.33333333333334</ele><time>2026-04-06T14:43:15.998Z</time></trkpt><trkpt lat="43.34762814001506" lon="11.375100326074579"><ele>250.66666666666669</ele><time>2026-04-06T14:43:16.998Z</time></trkpt><trkpt lat="43.34767173422921" lon="11.37488157668216"><ele>249.0</ele><time>2026-04-06T14:43:17.998Z</time></trkpt><trkpt lat="43.34772005192666" lon="11.374686943574645"><ele>248.5</ele><time>2026-04-06T14:43:18.998Z</time></trkpt><trkpt lat="43.34777840530166" lon="11.374473950031597"><ele>248.0</ele><time>2026-04-06T14:43:19.998Z</time></trkpt><trkpt lat="43.34782010646511" lon="11.374323162646485"><ele>247.5</ele><time>2026-04-06T14:43:20.998Z</time></trkpt><trkpt lat="43.34786804592314" lon="11.374144467810556"><ele>247.0</ele><time>2026-04-06T14:43:21.998Z</time></trkpt><trkpt lat="43.347921394044796" lon="11.373932598297896"><ele>246.0</ele><time>2026-04-06T14:43:22.998Z</time></trkpt><trkpt lat="43.347968356224804" lon="11.373698086384122"><ele>245.0</ele><time>2026-04-06T14:43:23.998Z</time></trkpt><trkpt lat="43.348021227094996" lon="11.3734281217328"><ele>244.0</ele><time>2026-04-06T14:43:24.998Z</time></trkpt><trkpt lat="43.34804297442436" lon="11.373187397582425"><ele>242.66666666666666</ele><time>2026-04-06T14:43:25.998Z</time></trkpt><trkpt lat="43.34807921342023" lon="11.37293637277746"><ele>241.33333333333331</ele><time>2026-04-06T14:43:26.998Z</time></trkpt><trkpt lat="43.34812024419801" lon="11.372678713889785"><ele>240.0</ele><time>2026-04-06T14:43:27.998Z</time></trkpt><trkpt lat="43.34816457299463" lon="11.372410735536464"><ele>238.66666666666669</ele><time>2026-04-06T14:43:28.998Z</time></trkpt><trkpt lat="43.3482022671592" lon="11.372169918795855"><ele>237.33333333333334</ele><time>2026-04-06T14:43:29.998Z</time></trkpt><trkpt lat="43.34823679700041" lon="11.371939117702812"><ele>236.0</ele><time>2026-04-06T14:43:30.998Z</time></trkpt><trkpt lat="43.34827783000364" lon="11.371708843478215"><ele>236.0</ele><time>2026-04-06T14:43:31.998Z</time></trkpt><trkpt lat="43.34831510824857" lon="11.371488919004024"><ele>236.0</ele><time>2026-04-06T14:43:32.998Z</time></trkpt><trkpt lat="43.34835697558419" lon="11.371270595041091"><ele>236.0</ele><time>2026-04-06T14:43:33.998Z</time></trkpt><trkpt lat="43.34839815090292" lon="11.37106465898499"><ele>234.66666666666669</ele><time>2026-04-06T14:43:34.998Z</time></trkpt><trkpt lat="43.34843759169036" lon="11.370856906312337"><ele>233.33333333333331</ele><time>2026-04-06T14:43:35.998Z</time></trkpt><trkpt lat="43.34845736424572" lon="11.370662183591687"><ele>232.0</ele><time>2026-04-06T14:43:36.998Z</time></trkpt><trkpt lat="43.348468294204785" lon="11.37045106778952"><ele>230.66666666666666</ele><time>2026-04-06T14:43:37.998Z</time></trkpt><trkpt lat="43.348463966803905" lon="11.370232835672484"><ele>229.33333333333331</ele><time>2026-04-06T14:43:38.998Z</time></trkpt><trkpt lat="43.34842914351133" lon="11.369999252168636"><ele>228.0</ele><time>2026-04-06T14:43:39.998Z</time></trkpt><trkpt lat="43.34836731777219" lon="11.369760181136817"><ele>228.0</ele><time>2026-04-06T14:43:40.998Z</time></trkpt><trkpt lat="43.34829653897067" lon="11.369494305183405"><ele>228.0</ele><time>2026-04-06T14:43:41.998Z</time></trkpt><trkpt lat="43.34822616886739" lon="11.369219742960386"><ele>228.0</ele><time>2026-04-06T14:43:42.998Z</time></trkpt><trkpt lat="43.34815931788504" lon="11.368937469894899"><ele>228.33333333333331</ele><time>2026-04-06T14:43:43.998Z</time></trkpt><trkpt lat="43.348101670439654" lon="11.368657614757952"><ele>228.66666666666666</ele><time>2026-04-06T14:43:44.998Z</time></trkpt><trkpt lat="43.34805315983134" lon="11.368393134824855"><ele>229.0</ele><time>2026-04-06T14:43:45.998Z</time></trkpt><trkpt lat="43.348003299774334" lon="11.368153551600575"><ele>228.25</ele><time>2026-04-06T14:43:46.998Z</time></trkpt><trkpt lat="43.34796087538377" lon="11.36794264357854"><ele>227.5</ele><time>2026-04-06T14:43:47.998Z</time></trkpt><trkpt lat="43.347927442259824" lon="11.367750928452248"><ele>226.75</ele><time>2026-04-06T14:43:48.998Z</time></trkpt><trkpt lat="43.34791096293599" lon="11.367599871787194"><ele>226.0</ele><time>2026-04-06T14:43:49.998Z</time></trkpt><trkpt lat="43.34789728139092" lon="11.367470229308882"><ele>225.99999999999997</ele><time>2026-04-06T14:43:50.998Z</time></trkpt><trkpt lat="43.347882812587436" lon="11.367371961619192"><ele>226.0</ele><time>2026-04-06T14:43:51.998Z</time></trkpt><trkpt lat="43.34782447528964" lon="11.36730307754784"><ele>226.0</ele><time>2026-04-06T14:43:52.998Z</time></trkpt><trkpt lat="43.34776161982288" lon="11.367243784307128"><ele>226.0</ele><time>2026-04-06T14:43:53.998Z</time></trkpt><trkpt lat="43.3476985794376" lon="11.367165113829186"><ele>225.99999999999997</ele><time>2026-04-06T14:43:54.998Z</time></trkpt><trkpt lat="43.34761336892884" lon="11.367105369825197"><ele>226.0</ele><time>2026-04-06T14:43:55.998Z</time></trkpt><trkpt lat="43.347521868563426" lon="11.36705428134976"><ele>226.25</ele><time>2026-04-06T14:43:56.998Z</time></trkpt><trkpt lat="43.34743113746373" lon="11.3669591540021"><ele>226.5</ele><time>2026-04-06T14:43:57.998Z</time></trkpt><trkpt lat="43.34734776230476" lon="11.366837122046064"><ele>226.75</ele><time>2026-04-06T14:43:58.998Z</time></trkpt><trkpt lat="43.347269372649045" lon="11.366703062864586"><ele>227.0</ele><time>2026-04-06T14:43:59.998Z</time></trkpt><trkpt lat="43.347205071921955" lon="11.366565145951226"><ele>227.2</ele><time>2026-04-06T14:44:00.998Z</time></trkpt><trkpt lat="43.34717673018681" lon="11.366410205094725"><ele>227.39999999999998</ele><time>2026-04-06T14:44:01.998Z</time></trkpt><trkpt lat="43.34715187305476" lon="11.3662677878498"><ele>227.60000000000002</ele><time>2026-04-06T14:44:02.998Z</time></trkpt><trkpt lat="43.347148328156486" lon="11.366115112960216"><ele>227.8</ele><time>2026-04-06T14:44:03.998Z</time></trkpt><trkpt lat="43.347153086887516" lon="11.365958449052275"><ele>228.0</ele><time>2026-04-06T14:44:04.998Z</time></trkpt><trkpt lat="43.34715807867526" lon="11.365783122053694"><ele>229.5</ele><time>2026-04-06T14:44:05.998Z</time></trkpt><trkpt lat="43.34716215756821" lon="11.365590818329459"><ele>231.0</ele><time>2026-04-06T14:44:06.998Z</time></trkpt><trkpt lat="43.347165337763" lon="11.36538800579035"><ele>232.5</ele><time>2026-04-06T14:44:07.997Z</time></trkpt><trkpt lat="43.34716792355648" lon="11.365202913763994"><ele>234.0</ele><time>2026-04-06T14:44:09Z</time></trkpt><trkpt lat="43.347171416077735" lon="11.365030613528955"><ele>234.5</ele><time>2026-04-06T14:44:10Z</time></trkpt><trkpt lat="43.34717680074062" lon="11.364865823049298"><ele>235.0</ele><time>2026-04-06T14:44:11Z</time></trkpt><trkpt lat="43.34718691571605" lon="11.36471388825789"><ele>235.5</ele><time>2026-04-06T14:44:12Z</time></trkpt><trkpt lat="43.347212247924716" lon="11.364559317676376"><ele>236.0</ele><time>2026-04-06T14:44:13Z</time></trkpt><trkpt lat="43.347260834912674" lon="11.364416778070211"><ele>236.0</ele><time>2026-04-06T14:44:14Z</time></trkpt><trkpt lat="43.347337179166686" lon="11.364293620328391"><ele>236.0</ele><time>2026-04-06T14:44:15Z</time></trkpt><trkpt lat="43.34743024814451" lon="11.364179148795484"><ele>236.0</ele><time>2026-04-06T14:44:16Z</time></trkpt><trkpt lat="43.34753047478972" lon="11.364042608639284"><ele>236.0</ele><time>2026-04-06T14:44:17Z</time></trkpt><trkpt lat="43.34763407614704" lon="11.363892290743017"><ele>239.25</ele><time>2026-04-06T14:44:18Z</time></trkpt><trkpt lat="43.347734894017826" lon="11.363747370507346"><ele>242.5</ele><time>2026-04-06T14:44:19Z</time></trkpt><trkpt lat="43.347834098984144" lon="11.363617091352523"><ele>245.75</ele><time>2026-04-06T14:44:20Z</time></trkpt><trkpt lat="43.347926956052326" lon="11.363494272298494"><ele>249.0</ele><time>2026-04-06T14:44:21Z</time></trkpt><trkpt lat="43.34801576382948" lon="11.363389115629426"><ele>248.39999999999998</ele><time>2026-04-06T14:44:22Z</time></trkpt><trkpt lat="43.34809928974985" lon="11.363291685417794"><ele>247.79999999999998</ele><time>2026-04-06T14:44:23Z</time></trkpt><trkpt lat="43.348169386989376" lon="11.363187632369682"><ele>247.20000000000002</ele><time>2026-04-06T14:44:24Z</time></trkpt><trkpt lat="43.34821584431644" lon="11.363056537830255"><ele>246.60000000000002</ele><time>2026-04-06T14:44:24.999Z</time></trkpt><trkpt lat="43.34822942596668" lon="11.362895655528657"><ele>246.0</ele><time>2026-04-06T14:44:25.999Z</time></trkpt><trkpt lat="43.34821010713134" lon="11.362702052182653"><ele>246.0</ele><time>2026-04-06T14:44:26.999Z</time></trkpt><trkpt lat="43.34819490136731" lon="11.362496282367408"><ele>246.0</ele><time>2026-04-06T14:44:27.999Z</time></trkpt><trkpt lat="43.34819960172998" lon="11.362282000398432"><ele>246.0</ele><time>2026-04-06T14:44:28.999Z</time></trkpt><trkpt lat="43.34821670960446" lon="11.362053984835379"><ele>246.0</ele><time>2026-04-06T14:44:29.999Z</time></trkpt><trkpt lat="43.34822832363397" lon="11.361828441665015"><ele>246.0</ele><time>2026-04-06T14:44:30.999Z</time></trkpt><trkpt lat="43.34824459030911" lon="11.361602969619673"><ele>246.0</ele><time>2026-04-06T14:44:31.999Z</time></trkpt><trkpt lat="43.348274935949" lon="11.361379775111457"><ele>245.66666666666669</ele><time>2026-04-06T14:44:32.999Z</time></trkpt><trkpt lat="43.34829513406778" lon="11.361164182313017"><ele>245.33333333333334</ele><time>2026-04-06T14:44:33.999Z</time></trkpt><trkpt lat="43.34827473929424" lon="11.360952357442597"><ele>245.0</ele><time>2026-04-06T14:44:34.999Z</time></trkpt><trkpt lat="43.3482134902243" lon="11.360759843921574"><ele>245.0</ele><time>2026-04-06T14:44:35.999Z</time></trkpt><trkpt lat="43.348110226828986" lon="11.360596279898003"><ele>245.0</ele><time>2026-04-06T14:44:36.999Z</time></trkpt><trkpt lat="43.34798433339254" lon="11.360489581105933"><ele>245.0</ele><time>2026-04-06T14:44:37.999Z</time></trkpt><trkpt lat="43.34784413855646" lon="11.360442469369092"><ele>249.0</ele><time>2026-04-06T14:44:38.999Z</time></trkpt><trkpt lat="43.34769622747115" lon="11.360445254836437"><ele>253.0</ele><time>2026-04-06T14:44:39.999Z</time></trkpt><trkpt lat="43.34750713954471" lon="11.360515930577401"><ele>257.0</ele><time>2026-04-06T14:44:40.999Z</time></trkpt><trkpt lat="43.347343570576285" lon="11.360579397216975"><ele>260.0</ele><time>2026-04-06T14:44:41.999Z</time></trkpt><trkpt lat="43.34717589133827" lon="11.36062553743212"><ele>263.0</ele><time>2026-04-06T14:44:42.999Z</time></trkpt><trkpt lat="43.34700688235257" lon="11.360677296037862"><ele>266.0</ele><time>2026-04-06T14:44:43.999Z</time></trkpt><trkpt lat="43.346845480218384" lon="11.360752390309639"><ele>266.0</ele><time>2026-04-06T14:44:44.999Z</time></trkpt><trkpt lat="43.34668990078189" lon="11.360814337739992"><ele>266.0</ele><time>2026-04-06T14:44:45.999Z</time></trkpt><trkpt lat="43.34654338469031" lon="11.360858246915802"><ele>266.0</ele><time>2026-04-06T14:44:46.999Z</time></trkpt><trkpt lat="43.34640555785182" lon="11.360864876546067"><ele>266.25</ele><time>2026-04-06T14:44:47.999Z</time></trkpt><trkpt lat="43.346298904005806" lon="11.360831573957636"><ele>266.5</ele><time>2026-04-06T14:44:48.999Z</time></trkpt><trkpt lat="43.346224132943895" lon="11.360724287647017"><ele>266.75</ele><time>2026-04-06T14:44:49.999Z</time></trkpt><trkpt lat="43.34622269970366" lon="11.360566654629148"><ele>267.0</ele><time>2026-04-06T14:44:50.999Z</time></trkpt><trkpt lat="43.34619466758638" lon="11.360387514419239"><ele>267.0</ele><time>2026-04-06T14:44:51.999Z</time></trkpt><trkpt lat="43.346132115172615" lon="11.36022872741264"><ele>267.0</ele><time>2026-04-06T14:44:52.999Z</time></trkpt><trkpt lat="43.345999955302254" lon="11.360111891096565"><ele>267.0</ele><time>2026-04-06T14:44:53.999Z</time></trkpt><trkpt lat="43.345872178658965" lon="11.360039092408831"><ele>267.0</ele><time>2026-04-06T14:44:54.999Z</time></trkpt><trkpt lat="43.34573417500678" lon="11.359968302017966"><ele>267.0</ele><time>2026-04-06T14:44:55.999Z</time></trkpt><trkpt lat="43.34557822650738" lon="11.359887252611053"><ele>267.0</ele><time>2026-04-06T14:44:56.999Z</time></trkpt><trkpt lat="43.34542856796831" lon="11.359814300939052"><ele>267.0</ele><time>2026-04-06T14:44:57.999Z</time></trkpt><trkpt lat="43.345278569575214" lon="11.359757821803054"><ele>268.6666666666667</ele><time>2026-04-06T14:44:58.999Z</time></trkpt><trkpt lat="43.3451118888296" lon="11.359764750847829"><ele>270.33333333333337</ele><time>2026-04-06T14:44:59.999Z</time></trkpt><trkpt lat="43.34495658226553" lon="11.359820333694781"><ele>272.0</ele><time>2026-04-06T14:45:00.999Z</time></trkpt><trkpt lat="43.34481445440459" lon="11.35987233900154"><ele>274.0</ele><time>2026-04-06T14:45:01.999Z</time></trkpt><trkpt lat="43.34467215580704" lon="11.359843223737785"><ele>276.0</ele><time>2026-04-06T14:45:02.999Z</time></trkpt><trkpt lat="43.344536190354106" lon="11.359729818543581"><ele>278.0</ele><time>2026-04-06T14:45:03.999Z</time></trkpt><trkpt lat="43.34443901078493" lon="11.359592757018634"><ele>280.0</ele><time>2026-04-06T14:45:04.999Z</time></trkpt><trkpt lat="43.34433668249402" lon="11.359419982221937"><ele>280.0</ele><time>2026-04-06T14:45:05.999Z</time></trkpt><trkpt lat="43.34423646669438" lon="11.359236212255865"><ele>280.0</ele><time>2026-04-06T14:45:06.999Z</time></trkpt><trkpt lat="43.34414249683073" lon="11.359083896084519"><ele>280.0</ele><time>2026-04-06T14:45:07.999Z</time></trkpt><trkpt lat="43.3440521950803" lon="11.358945250605833"><ele>280.0</ele><time>2026-04-06T14:45:08.999Z</time></trkpt><trkpt lat="43.34394504569744" lon="11.358804748711389"><ele>278.3333333333333</ele><time>2026-04-06T14:45:09.999Z</time></trkpt><trkpt lat="43.343808340450586" lon="11.358699022381346"><ele>276.6666666666667</ele><time>2026-04-06T14:45:10.999Z</time></trkpt><trkpt lat="43.34364418922298" lon="11.358632842085031"><ele>275.0</ele><time>2026-04-06T14:45:11.999Z</time></trkpt><trkpt lat="43.343475025078504" lon="11.35857415841375"><ele>275.0</ele><time>2026-04-06T14:45:12.999Z</time></trkpt><trkpt lat="43.343293015089436" lon="11.35848990621258"><ele>275.0</ele><time>2026-04-06T14:45:13.999Z</time></trkpt><trkpt lat="43.3430984949547" lon="11.358419865495605"><ele>275.0</ele><time>2026-04-06T14:45:14.999Z</time></trkpt><trkpt lat="43.342893279714936" lon="11.3583555739133"><ele>273.6666666666667</ele><time>2026-04-06T14:45:15.999Z</time></trkpt><trkpt lat="43.34269116184724" lon="11.358306113885327"><ele>272.3333333333333</ele><time>2026-04-06T14:45:16.999Z</time></trkpt><trkpt lat="43.34248205773612" lon="11.358234786919583"><ele>271.0</ele><time>2026-04-06T14:45:17.999Z</time></trkpt><trkpt lat="43.342272800512696" lon="11.358159723443098"><ele>270.3333333333333</ele><time>2026-04-06T14:45:18.999Z</time></trkpt><trkpt lat="43.342061631973294" lon="11.358078584519555"><ele>269.6666666666667</ele><time>2026-04-06T14:45:19.998Z</time></trkpt><trkpt lat="43.34184625011985" lon="11.357999645341412"><ele>269.0</ele><time>2026-04-06T14:45:20.998Z</time></trkpt><trkpt lat="43.341630123281" lon="11.357915654079271"><ele>269.0</ele><time>2026-04-06T14:45:21.998Z</time></trkpt><trkpt lat="43.34141883236193" lon="11.357833836937527"><ele>269.0</ele><time>2026-04-06T14:45:22.998Z</time></trkpt><trkpt lat="43.34121319773993" lon="11.357755347660442"><ele>269.0</ele><time>2026-04-06T14:45:23.998Z</time></trkpt><trkpt lat="43.341022096141835" lon="11.357682773406118"><ele>266.0</ele><time>2026-04-06T14:45:24.998Z</time></trkpt><trkpt lat="43.340833082059355" lon="11.357610963975267"><ele>263.0</ele><time>2026-04-06T14:45:25.998Z</time></trkpt><trkpt lat="43.34063778239006" lon="11.35753521269607"><ele>260.0</ele><time>2026-04-06T14:45:26.998Z</time></trkpt><trkpt lat="43.340453354649284" lon="11.35745764174666"><ele>259.0</ele><time>2026-04-06T14:45:27.998Z</time></trkpt><trkpt lat="43.34027934676345" lon="11.357388004533565"><ele>258.0</ele><time>2026-04-06T14:45:28.998Z</time></trkpt><trkpt lat="43.34011576284047" lon="11.357301379165168"><ele>257.0</ele><time>2026-04-06T14:45:29.998Z</time></trkpt><trkpt lat="43.33997266880066" lon="11.357196753092909"><ele>257.0</ele><time>2026-04-06T14:45:30.998Z</time></trkpt><trkpt lat="43.339833884296354" lon="11.357100193895262"><ele>257.0</ele><time>2026-04-06T14:45:31.998Z</time></trkpt><trkpt lat="43.339691440377585" lon="11.357043560930641"><ele>257.0</ele><time>2026-04-06T14:45:32.998Z</time></trkpt><trkpt lat="43.33956339968141" lon="11.357062869705572"><ele>257.0</ele><time>2026-04-06T14:45:33.998Z</time></trkpt><trkpt lat="43.33945418031523" lon="11.357129423568205"><ele>259.25</ele><time>2026-04-06T14:45:34.998Z</time></trkpt><trkpt lat="43.33936489703618" lon="11.357267995124797"><ele>261.5</ele><time>2026-04-06T14:45:35.998Z</time></trkpt><trkpt lat="43.33929191864842" lon="11.357436540518528"><ele>263.75</ele><time>2026-04-06T14:45:36.998Z</time></trkpt><trkpt lat="43.339180782708254" lon="11.357578485497617"><ele>266.0</ele><time>2026-04-06T14:45:37.998Z</time></trkpt><trkpt lat="43.339052765961604" lon="11.357695515333505"><ele>266.0</ele><time>2026-04-06T14:45:38.998Z</time></trkpt><trkpt lat="43.338909179688876" lon="11.357810744013099"><ele>266.0</ele><time>2026-04-06T14:45:39.998Z</time></trkpt><trkpt lat="43.3387746135374" lon="11.35794160120776"><ele>266.0</ele><time>2026-04-06T14:45:40.998Z</time></trkpt><trkpt lat="43.338644345754005" lon="11.358084501221926"><ele>266.33333333333337</ele><time>2026-04-06T14:45:41.998Z</time></trkpt><trkpt lat="43.338494963211176" lon="11.35818601150023"><ele>266.6666666666667</ele><time>2026-04-06T14:45:42.998Z</time></trkpt><trkpt lat="43.3383609854158" lon="11.358296329927853"><ele>267.0</ele><time>2026-04-06T14:45:43.998Z</time></trkpt><trkpt lat="43.33822953427909" lon="11.358406865301115"><ele>267.0</ele><time>2026-04-06T14:45:44.998Z</time></trkpt><trkpt lat="43.33811229109316" lon="11.358503578134268"><ele>267.0</ele><time>2026-04-06T14:45:45.998Z</time></trkpt><trkpt lat="43.338010498950084" lon="11.358579522664414"><ele>267.0</ele><time>2026-04-06T14:45:46.998Z</time></trkpt><trkpt lat="43.33793960607284" lon="11.358593870410514"><ele>267.0</ele><time>2026-04-06T14:45:47.998Z</time></trkpt><trkpt lat="43.33784091221534" lon="11.358519232231234"><ele>267.0</ele><time>2026-04-06T14:45:49.998Z</time></trkpt><trkpt lat="43.33779719090222" lon="11.35840307378239"><ele>268.75</ele><time>2026-04-06T14:45:50.998Z</time></trkpt><trkpt lat="43.33779649315039" lon="11.358214131264448"><ele>270.5</ele><time>2026-04-06T14:45:51.998Z</time></trkpt><trkpt lat="43.337815410669144" lon="11.35801981349227"><ele>272.25</ele><time>2026-04-06T14:45:52.998Z</time></trkpt><trkpt lat="43.33781961343246" lon="11.357809170805472"><ele>274.0</ele><time>2026-04-06T14:45:53.998Z</time></trkpt><trkpt lat="43.33784292416271" lon="11.357588215921666"><ele>275.0</ele><time>2026-04-06T14:45:54.998Z</time></trkpt><trkpt lat="43.3378377510864" lon="11.35735777877098"><ele>276.0</ele><time>2026-04-06T14:45:55.998Z</time></trkpt><trkpt lat="43.33783116591929" lon="11.357124788175446"><ele>277.0</ele><time>2026-04-06T14:45:56.998Z</time></trkpt><trkpt lat="43.33780542766253" lon="11.356902802644147"><ele>278.3333333333333</ele><time>2026-04-06T14:45:57.998Z</time></trkpt><trkpt lat="43.33776904928465" lon="11.356689413004911"><ele>279.6666666666667</ele><time>2026-04-06T14:45:58.998Z</time></trkpt><trkpt lat="43.3377341500276" lon="11.356481930300307"><ele>281.0</ele><time>2026-04-06T14:45:59.998Z</time></trkpt><trkpt lat="43.33770080325518" lon="11.356284533478625"><ele>282.0</ele><time>2026-04-06T14:46:00.998Z</time></trkpt><trkpt lat="43.33766314064963" lon="11.356098741129237"><ele>283.0</ele><time>2026-04-06T14:46:01.998Z</time></trkpt><trkpt lat="43.337609250515825" lon="11.355927524409863"><ele>284.0</ele><time>2026-04-06T14:46:02.998Z</time></trkpt><trkpt lat="43.33753998696529" lon="11.355773582222724"><ele>285.0</ele><time>2026-04-06T14:46:03.998Z</time></trkpt><trkpt lat="43.33745720666484" lon="11.35562919922556"><ele>286.0</ele><time>2026-04-06T14:46:04.998Z</time></trkpt><trkpt lat="43.33736748136264" lon="11.355495280508372"><ele>287.0</ele><time>2026-04-06T14:46:05.998Z</time></trkpt><trkpt lat="43.337285852910234" lon="11.355370539643456"><ele>288.0</ele><time>2026-04-06T14:46:06.998Z</time></trkpt><trkpt lat="43.33719859722202" lon="11.355259427349168"><ele>289.0</ele><time>2026-04-06T14:46:07.998Z</time></trkpt><trkpt lat="43.337128683518124" lon="11.355126713705314"><ele>289.4</ele><time>2026-04-06T14:46:08.998Z</time></trkpt><trkpt lat="43.33707195512968" lon="11.355010318853235"><ele>289.79999999999995</ele><time>2026-04-06T14:46:09.998Z</time></trkpt><trkpt lat="43.337059246933286" lon="11.354861882346428"><ele>290.20000000000005</ele><time>2026-04-06T14:46:10.998Z</time></trkpt><trkpt lat="43.33705600571846" lon="11.354741978549496"><ele>290.6</ele><time>2026-04-06T14:46:11.998Z</time></trkpt><trkpt lat="43.337047464811164" lon="11.354615636462341"><ele>291.0</ele><time>2026-04-06T14:46:12.998Z</time></trkpt><trkpt lat="43.33702773591554" lon="11.354510053175252"><ele>291.40000000000003</ele><time>2026-04-06T14:46:13.998Z</time></trkpt><trkpt lat="43.336990357507595" lon="11.354415069982918"><ele>291.8</ele><time>2026-04-06T14:46:15Z</time></trkpt><trkpt lat="43.336932322835075" lon="11.354327006823185"><ele>292.20000000000005</ele><time>2026-04-06T14:46:16Z</time></trkpt><trkpt lat="43.33687402357863" lon="11.354202654176019"><ele>292.6</ele><time>2026-04-06T14:46:17Z</time></trkpt><trkpt lat="43.336790081569326" lon="11.354102637810747"><ele>293.0</ele><time>2026-04-06T14:46:18Z</time></trkpt><trkpt lat="43.336711857377814" lon="11.353972448178142"><ele>293.5</ele><time>2026-04-06T14:46:19Z</time></trkpt><trkpt lat="43.336630327028" lon="11.353838104980857"><ele>294.0</ele><time>2026-04-06T14:46:20Z</time></trkpt><trkpt lat="43.3365474292879" lon="11.353681271662914"><ele>294.5</ele><time>2026-04-06T14:46:21Z</time></trkpt><trkpt lat="43.33647083871072" lon="11.353520516335323"><ele>295.0</ele><time>2026-04-06T14:46:22Z</time></trkpt><trkpt lat="43.336396599758885" lon="11.353352321682879"><ele>298.3333333333333</ele><time>2026-04-06T14:46:23Z</time></trkpt><trkpt lat="43.336314800929294" lon="11.353165481653026"><ele>301.6666666666667</ele><time>2026-04-06T14:46:24Z</time></trkpt><trkpt lat="43.33623467770049" lon="11.352958175039488"><ele>305.0</ele><time>2026-04-06T14:46:25Z</time></trkpt><trkpt lat="43.336156270488146" lon="11.352780655515147"><ele>305.0</ele><time>2026-04-06T14:46:26Z</time></trkpt><trkpt lat="43.33607932831383" lon="11.352612683536394"><ele>305.0</ele><time>2026-04-06T14:46:27Z</time></trkpt><trkpt lat="43.33600637729287" lon="11.352450417002698"><ele>305.0</ele><time>2026-04-06T14:46:28Z</time></trkpt><trkpt lat="43.33594125507556" lon="11.352286647747386"><ele>305.0</ele><time>2026-04-06T14:46:29Z</time></trkpt><trkpt lat="43.335870097434984" lon="11.352133159740351"><ele>304.75</ele><time>2026-04-06T14:46:30Z</time></trkpt><trkpt lat="43.33579477908091" lon="11.35198173720231"><ele>304.5</ele><time>2026-04-06T14:46:31Z</time></trkpt><trkpt lat="43.33571472829275" lon="11.351837093948198"><ele>304.25</ele><time>2026-04-06T14:46:32Z</time></trkpt><trkpt lat="43.3356149301153" lon="11.351700282627121"><ele>304.0</ele><time>2026-04-06T14:46:32.999Z</time></trkpt><trkpt lat="43.33550485604491" lon="11.351591419869766"><ele>303.8</ele><time>2026-04-06T14:46:33.999Z</time></trkpt><trkpt lat="43.33539905724843" lon="11.351527829439698"><ele>303.59999999999997</ele><time>2026-04-06T14:46:34.999Z</time></trkpt><trkpt lat="43.33530448219438" lon="11.35147224149386"><ele>303.4</ele><time>2026-04-06T14:46:35.999Z</time></trkpt><trkpt lat="43.33521515810748" lon="11.351415261277056"><ele>303.2</ele><time>2026-04-06T14:46:36.999Z</time></trkpt><trkpt lat="43.335126142280274" lon="11.35134257688747"><ele>303.0</ele><time>2026-04-06T14:46:37.999Z</time></trkpt><trkpt lat="43.335040017590195" lon="11.351251971804405"><ele>303.0</ele><time>2026-04-06T14:46:38.999Z</time></trkpt><trkpt lat="43.33496879194649" lon="11.351132218159638"><ele>303.0</ele><time>2026-04-06T14:46:39.999Z</time></trkpt><trkpt lat="43.33489668192733" lon="11.350999327488463"><ele>303.0</ele><time>2026-04-06T14:46:40.999Z</time></trkpt><trkpt lat="43.33482645123031" lon="11.350889448415932"><ele>303.0</ele><time>2026-04-06T14:46:41.999Z</time></trkpt><trkpt lat="43.33476791570306" lon="11.35078076244627"><ele>303.0</ele><time>2026-04-06T14:46:42.999Z</time></trkpt><trkpt lat="43.33472403723426" lon="11.350677179144757"><ele>303.0</ele><time>2026-04-06T14:46:43.999Z</time></trkpt><trkpt lat="43.33467241319988" lon="11.350551425834379"><ele>303.0</ele><time>2026-04-06T14:46:44.999Z</time></trkpt><trkpt lat="43.334650156608404" lon="11.350436707306045"><ele>303.0</ele><time>2026-04-06T14:46:45.999Z</time></trkpt><trkpt lat="43.33463669308438" lon="11.350264153004298"><ele>303.0</ele><time>2026-04-06T14:46:46.999Z</time></trkpt><trkpt lat="43.33461814470711" lon="11.350112380884683"><ele>303.0</ele><time>2026-04-06T14:46:47.999Z</time></trkpt><trkpt lat="43.33458993696474" lon="11.349883791871559"><ele>303.6666666666667</ele><time>2026-04-06T14:46:48.999Z</time></trkpt><trkpt lat="43.334559860072986" lon="11.349643039728534"><ele>304.33333333333337</ele><time>2026-04-06T14:46:49.999Z</time></trkpt><trkpt lat="43.33451487725004" lon="11.349406407862812"><ele>305.0</ele><time>2026-04-06T14:46:50.999Z</time></trkpt><trkpt lat="43.33449436325624" lon="11.349161734498331"><ele>305.0</ele><time>2026-04-06T14:46:51.999Z</time></trkpt><trkpt lat="43.33446121098514" lon="11.348918019925902"><ele>305.0</ele><time>2026-04-06T14:46:52.999Z</time></trkpt><trkpt lat="43.33441870444625" lon="11.348676432092311"><ele>305.0</ele><time>2026-04-06T14:46:53.999Z</time></trkpt><trkpt lat="43.334376876376865" lon="11.348432234509074"><ele>306.33333333333337</ele><time>2026-04-06T14:46:54.999Z</time></trkpt><trkpt lat="43.334337633115574" lon="11.348193442895596"><ele>307.6666666666667</ele><time>2026-04-06T14:46:55.999Z</time></trkpt><trkpt lat="43.334290144173984" lon="11.347964672871825"><ele>309.0</ele><time>2026-04-06T14:46:56.999Z</time></trkpt><trkpt lat="43.33422833911578" lon="11.34775880368517"><ele>310.0</ele><time>2026-04-06T14:46:57.999Z</time></trkpt><trkpt lat="43.33415707359069" lon="11.347577304443725"><ele>311.0</ele><time>2026-04-06T14:46:58.999Z</time></trkpt><trkpt lat="43.334086673011335" lon="11.347399555158947"><ele>312.0</ele><time>2026-04-06T14:46:59.999Z</time></trkpt><trkpt lat="43.334022491449716" lon="11.347217321485017"><ele>313.0</ele><time>2026-04-06T14:47:00.999Z</time></trkpt><trkpt lat="43.3339634647811" lon="11.347039438924943"><ele>312.75</ele><time>2026-04-06T14:47:01.999Z</time></trkpt><trkpt lat="43.333919281779856" lon="11.346864339043133"><ele>312.5</ele><time>2026-04-06T14:47:02.999Z</time></trkpt><trkpt lat="43.33388909191849" lon="11.346682414282975"><ele>312.25</ele><time>2026-04-06T14:47:03.999Z</time></trkpt><trkpt lat="43.3338703286735" lon="11.346499893451975"><ele>312.0</ele><time>2026-04-06T14:47:04.999Z</time></trkpt><trkpt lat="43.33385720842317" lon="11.346317039886063"><ele>312.5</ele><time>2026-04-06T14:47:05.999Z</time></trkpt><trkpt lat="43.33385375145361" lon="11.346141620714539"><ele>313.0</ele><time>2026-04-06T14:47:06.999Z</time></trkpt><trkpt lat="43.333861941575336" lon="11.345953657461052"><ele>313.5</ele><time>2026-04-06T14:47:07.999Z</time></trkpt><trkpt lat="43.333895565357466" lon="11.345789130042707"><ele>314.0</ele><time>2026-04-06T14:47:08.999Z</time></trkpt><trkpt lat="43.333947736958656" lon="11.34563825642225"><ele>315.25</ele><time>2026-04-06T14:47:09.999Z</time></trkpt><trkpt lat="43.333990940152546" lon="11.345495949591324"><ele>316.5</ele><time>2026-04-06T14:47:10.999Z</time></trkpt><trkpt lat="43.334000149914225" lon="11.345342824063009"><ele>317.75</ele><time>2026-04-06T14:47:11.999Z</time></trkpt><trkpt lat="43.33396912913541" lon="11.345183949881159"><ele>319.0</ele><time>2026-04-06T14:47:12.999Z</time></trkpt><trkpt lat="43.333931582086" lon="11.345021942718311"><ele>317.4</ele><time>2026-04-06T14:47:13.999Z</time></trkpt><trkpt lat="43.33386969004237" lon="11.344888631428962"><ele>315.79999999999995</ele><time>2026-04-06T14:47:14.999Z</time></trkpt><trkpt lat="43.33379955073199" lon="11.344765937699071"><ele>314.20000000000005</ele><time>2026-04-06T14:47:15.999Z</time></trkpt><trkpt lat="43.333731564405014" lon="11.344662339882696"><ele>312.6</ele><time>2026-04-06T14:47:16.999Z</time></trkpt><trkpt lat="43.333659874986694" lon="11.344569411538494"><ele>311.0</ele><time>2026-04-06T14:47:17.999Z</time></trkpt><trkpt lat="43.333571621156544" lon="11.344482489591394"><ele>311.0</ele><time>2026-04-06T14:47:18.999Z</time></trkpt><trkpt lat="43.33346641638738" lon="11.34439815075326"><ele>311.0</ele><time>2026-04-06T14:47:19.999Z</time></trkpt><trkpt lat="43.333339944799036" lon="11.344332216607125"><ele>311.0</ele><time>2026-04-06T14:47:20.999Z</time></trkpt><trkpt lat="43.3331957730699" lon="11.34430117604546"><ele>311.0</ele><time>2026-04-06T14:47:21.999Z</time></trkpt><trkpt lat="43.33305304782146" lon="11.344286362296064"><ele>309.75</ele><time>2026-04-06T14:47:22.999Z</time></trkpt><trkpt lat="43.33291345503532" lon="11.344272076775786"><ele>308.5</ele><time>2026-04-06T14:47:23.999Z</time></trkpt><trkpt lat="43.33276789934966" lon="11.344255543273297"><ele>307.25</ele><time>2026-04-06T14:47:24.999Z</time></trkpt><trkpt lat="43.33262043979026" lon="11.344229028274166"><ele>306.0</ele><time>2026-04-06T14:47:25.999Z</time></trkpt><trkpt lat="43.332480226744124" lon="11.344212185388187"><ele>306.0</ele><time>2026-04-06T14:47:26.998Z</time></trkpt><trkpt lat="43.33232677733582" lon="11.344176842425012"><ele>306.0</ele><time>2026-04-06T14:47:27.998Z</time></trkpt><trkpt lat="43.33219101209123" lon="11.344135047317923"><ele>306.0</ele><time>2026-04-06T14:47:28.998Z</time></trkpt><trkpt lat="43.33206497042515" lon="11.34406846195304"><ele>306.0</ele><time>2026-04-06T14:47:29.998Z</time></trkpt><trkpt lat="43.331939852985585" lon="11.34399569645169"><ele>306.5</ele><time>2026-04-06T14:47:30.998Z</time></trkpt><trkpt lat="43.33181137018026" lon="11.343907997933401"><ele>307.0</ele><time>2026-04-06T14:47:31.998Z</time></trkpt><trkpt lat="43.33168153688975" lon="11.343812257769384"><ele>307.5</ele><time>2026-04-06T14:47:32.998Z</time></trkpt><trkpt lat="43.331555946853584" lon="11.343725084422614"><ele>308.0</ele><time>2026-04-06T14:47:33.998Z</time></trkpt><trkpt lat="43.33142960131089" lon="11.343637523098717"><ele>305.0</ele><time>2026-04-06T14:47:34.998Z</time></trkpt><trkpt lat="43.331302225173836" lon="11.343544996452867"><ele>302.0</ele><time>2026-04-06T14:47:35.998Z</time></trkpt><trkpt lat="43.331180139861644" lon="11.34344624495366"><ele>299.0</ele><time>2026-04-06T14:47:36.998Z</time></trkpt><trkpt lat="43.33105758678875" lon="11.343344826443685"><ele>296.0</ele><time>2026-04-06T14:47:37.998Z</time></trkpt><trkpt lat="43.330931779299775" lon="11.34323627296226"><ele>296.0</ele><time>2026-04-06T14:47:38.998Z</time></trkpt><trkpt lat="43.3308008984265" lon="11.34313795473816"><ele>296.0</ele><time>2026-04-06T14:47:39.998Z</time></trkpt><trkpt lat="43.330662209603766" lon="11.343059229253731"><ele>296.0</ele><time>2026-04-06T14:47:40.998Z</time></trkpt><trkpt lat="43.33051308040496" lon="11.343001389965607"><ele>296.25</ele><time>2026-04-06T14:47:41.998Z</time></trkpt><trkpt lat="43.33036424961376" lon="11.342959101204766"><ele>296.5</ele><time>2026-04-06T14:47:42.998Z</time></trkpt><trkpt lat="43.33022200053975" lon="11.342906504802313"><ele>296.75</ele><time>2026-04-06T14:47:43.998Z</time></trkpt><trkpt lat="43.330087361303576" lon="11.342852841308526"><ele>297.0</ele><time>2026-04-06T14:47:44.998Z</time></trkpt><trkpt lat="43.32995956759912" lon="11.342781508485242"><ele>297.0</ele><time>2026-04-06T14:47:45.998Z</time></trkpt><trkpt lat="43.32983608273831" lon="11.342701317007098"><ele>297.0</ele><time>2026-04-06T14:47:46.998Z</time></trkpt><trkpt lat="43.32970856575388" lon="11.342616855429462"><ele>297.0</ele><time>2026-04-06T14:47:47.998Z</time></trkpt><trkpt lat="43.32957384312029" lon="11.342535079980069"><ele>297.0</ele><time>2026-04-06T14:47:48.998Z</time></trkpt><trkpt lat="43.329432608967096" lon="11.342462626446524"><ele>295.25</ele><time>2026-04-06T14:47:49.998Z</time></trkpt><trkpt lat="43.32929386896961" lon="11.342393063643867"><ele>293.5</ele><time>2026-04-06T14:47:50.998Z</time></trkpt><trkpt lat="43.32916003181765" lon="11.342313644954046"><ele>291.75</ele><time>2026-04-06T14:47:51.998Z</time></trkpt><trkpt lat="43.32902457287366" lon="11.34221792234873"><ele>290.0</ele><time>2026-04-06T14:47:52.998Z</time></trkpt><trkpt lat="43.32888907793608" lon="11.342131624466614"><ele>288.33333333333337</ele><time>2026-04-06T14:47:53.998Z</time></trkpt><trkpt lat="43.328749006043886" lon="11.342035859998381"><ele>286.6666666666667</ele><time>2026-04-06T14:47:54.998Z</time></trkpt><trkpt lat="43.32861275668109" lon="11.341938928863314"><ele>285.0</ele><time>2026-04-06T14:47:55.998Z</time></trkpt><trkpt lat="43.32849583367547" lon="11.34181822500811"><ele>285.0</ele><time>2026-04-06T14:47:56.998Z</time></trkpt><trkpt lat="43.328399188135336" lon="11.34168019315265"><ele>285.0</ele><time>2026-04-06T14:47:57.998Z</time></trkpt><trkpt lat="43.32832990120237" lon="11.341538439767543"><ele>285.0</ele><time>2026-04-06T14:47:58.998Z</time></trkpt><trkpt lat="43.32826175973179" lon="11.341393859104638"><ele>285.0</ele><time>2026-04-06T14:47:59.998Z</time></trkpt><trkpt lat="43.32818615087236" lon="11.34125253485898"><ele>288.5</ele><time>2026-04-06T14:48:00.998Z</time></trkpt><trkpt lat="43.328092682481326" lon="11.341132973295718"><ele>292.0</ele><time>2026-04-06T14:48:01.998Z</time></trkpt><trkpt lat="43.32798626860453" lon="11.341040720443594"><ele>295.5</ele><time>2026-04-06T14:48:02.998Z</time></trkpt><trkpt lat="43.32787539193296" lon="11.340967241827657"><ele>299.0</ele><time>2026-04-06T14:48:03.998Z</time></trkpt><trkpt lat="43.327777324724124" lon="11.340898240430256"><ele>293.4</ele><time>2026-04-06T14:48:04.998Z</time></trkpt><trkpt lat="43.32770071169045" lon="11.34078199783439"><ele>287.79999999999995</ele><time>2026-04-06T14:48:05.998Z</time></trkpt><trkpt lat="43.32765830172908" lon="11.34065940583523"><ele>282.20000000000005</ele><time>2026-04-06T14:48:06.998Z</time></trkpt><trkpt lat="43.327645013679486" lon="11.340538541295182"><ele>276.6</ele><time>2026-04-06T14:48:07.998Z</time></trkpt><trkpt lat="43.327656483417314" lon="11.340424890334308"><ele>271.0</ele><time>2026-04-06T14:48:08.998Z</time></trkpt><trkpt lat="43.32768423384581" lon="11.34032629612217"><ele>269.8</ele><time>2026-04-06T14:48:09.998Z</time></trkpt><trkpt lat="43.327718129062376" lon="11.340215430270302"><ele>268.6</ele><time>2026-04-06T14:48:10.998Z</time></trkpt><trkpt lat="43.327763592534794" lon="11.340084721497998"><ele>267.4</ele><time>2026-04-06T14:48:11.998Z</time></trkpt><trkpt lat="43.32781655775133" lon="11.339947276599936"><ele>266.2</ele><time>2026-04-06T14:48:12.998Z</time></trkpt><trkpt lat="43.32787091261249" lon="11.33980687835278"><ele>265.0</ele><time>2026-04-06T14:48:13.998Z</time></trkpt><trkpt lat="43.3279419384621" lon="11.339663620831212"><ele>264.0</ele><time>2026-04-06T14:48:14.998Z</time></trkpt><trkpt lat="43.32799163456782" lon="11.339504801556433"><ele>263.0</ele><time>2026-04-06T14:48:15.998Z</time></trkpt><trkpt lat="43.328047640628085" lon="11.339363486177405"><ele>262.0</ele><time>2026-04-06T14:48:16.998Z</time></trkpt><trkpt lat="43.32811189717672" lon="11.339221945580775"><ele>261.0</ele><time>2026-04-06T14:48:17.998Z</time></trkpt><trkpt lat="43.328185461536066" lon="11.339096751074239"><ele>262.0</ele><time>2026-04-06T14:48:18.998Z</time></trkpt><trkpt lat="43.32825958970318" lon="11.338968799865514"><ele>263.0</ele><time>2026-04-06T14:48:20Z</time></trkpt><trkpt lat="43.32834022835879" lon="11.338846304570474"><ele>264.0</ele><time>2026-04-06T14:48:21Z</time></trkpt><trkpt lat="43.328411887203835" lon="11.338721108329684"><ele>265.0</ele><time>2026-04-06T14:48:22Z</time></trkpt><trkpt lat="43.32842651200906" lon="11.338587993216777"><ele>265.0</ele><time>2026-04-06T14:48:23Z</time></trkpt><trkpt lat="43.32841139292209" lon="11.33845645122364"><ele>265.0</ele><time>2026-04-06T14:48:24Z</time></trkpt><trkpt lat="43.32835695631154" lon="11.338335872398064"><ele>265.0</ele><time>2026-04-06T14:48:25Z</time></trkpt><trkpt lat="43.32826477950439" lon="11.3382478357415"><ele>265.0</ele><time>2026-04-06T14:48:26Z</time></trkpt><trkpt lat="43.32813651507477" lon="11.338137262313337"><ele>265.2</ele><time>2026-04-06T14:48:28Z</time></trkpt><trkpt lat="43.328117301376295" lon="11.338029353460485"><ele>265.4</ele><time>2026-04-06T14:48:29Z</time></trkpt><trkpt lat="43.32800119494888" lon="11.338077164800623"><ele>265.6</ele><time>2026-04-06T14:48:30Z</time></trkpt><trkpt lat="43.327937549469475" lon="11.338035907764217"><ele>265.8</ele><time>2026-04-06T14:48:31Z</time></trkpt><trkpt lat="43.32789896192804" lon="11.337960643900985"><ele>266.0</ele><time>2026-04-06T14:48:32Z</time></trkpt><trkpt lat="43.32784337112113" lon="11.337818593206853"><ele>265.5</ele><time>2026-04-06T14:48:34Z</time></trkpt><trkpt lat="43.32780298953267" lon="11.337724649565043"><ele>265.0</ele><time>2026-04-06T14:48:35Z</time></trkpt><trkpt lat="43.32787733872172" lon="11.337517840626784"><ele>264.5</ele><time>2026-04-06T14:48:36Z</time></trkpt><trkpt lat="43.327922370722966" lon="11.337361966908283"><ele>264.0</ele><time>2026-04-06T14:48:37Z</time></trkpt><trkpt lat="43.32796537855955" lon="11.337211974929277"><ele>264.0</ele><time>2026-04-06T14:48:38Z</time></trkpt><trkpt lat="43.32799372311086" lon="11.33704247240154"><ele>264.0</ele><time>2026-04-06T14:48:39Z</time></trkpt><trkpt lat="43.32801936697407" lon="11.336869609384678"><ele>264.0</ele><time>2026-04-06T14:48:39.999Z</time></trkpt><trkpt lat="43.32805621235982" lon="11.33667141145562"><ele>264.0</ele><time>2026-04-06T14:48:40.999Z</time></trkpt><trkpt lat="43.32807895992483" lon="11.336480367432369"><ele>267.5</ele><time>2026-04-06T14:48:41.999Z</time></trkpt><trkpt lat="43.32809980132101" lon="11.336291677080874"><ele>271.0</ele><time>2026-04-06T14:48:42.999Z</time></trkpt><trkpt lat="43.328113478293275" lon="11.336089058075524"><ele>274.5</ele><time>2026-04-06T14:48:43.999Z</time></trkpt><trkpt lat="43.328126974771926" lon="11.33588937899565"><ele>278.0</ele><time>2026-04-06T14:48:44.999Z</time></trkpt><trkpt lat="43.32812406382814" lon="11.335674179663618"><ele>277.75</ele><time>2026-04-06T14:48:45.999Z</time></trkpt><trkpt lat="43.3281150105286" lon="11.335466771099279"><ele>277.5</ele><time>2026-04-06T14:48:46.999Z</time></trkpt><trkpt lat="43.32810254507113" lon="11.335264981277236"><ele>277.25</ele><time>2026-04-06T14:48:47.999Z</time></trkpt><trkpt lat="43.328091724793744" lon="11.33506231595694"><ele>277.0</ele><time>2026-04-06T14:48:48.999Z</time></trkpt><trkpt lat="43.328094498112705" lon="11.334848526058494"><ele>278.0</ele><time>2026-04-06T14:48:49.999Z</time></trkpt><trkpt lat="43.328079010639414" lon="11.334640699469256"><ele>279.0</ele><time>2026-04-06T14:48:50.999Z</time></trkpt><trkpt lat="43.328066816588766" lon="11.334435816746272"><ele>280.0</ele><time>2026-04-06T14:48:51.999Z</time></trkpt><trkpt lat="43.32805653946143" lon="11.33423638401647"><ele>281.0</ele><time>2026-04-06T14:48:52.999Z</time></trkpt><trkpt lat="43.32803581890661" lon="11.334039327497276"><ele>280.5</ele><time>2026-04-06T14:48:53.999Z</time></trkpt><trkpt lat="43.328002585479105" lon="11.33384468323485"><ele>280.0</ele><time>2026-04-06T14:48:54.999Z</time></trkpt><trkpt lat="43.32796271680572" lon="11.333651170702941"><ele>279.5</ele><time>2026-04-06T14:48:55.999Z</time></trkpt><trkpt lat="43.327913394973784" lon="11.333462778358026"><ele>279.0</ele><time>2026-04-06T14:48:56.999Z</time></trkpt><trkpt lat="43.32785900212306" lon="11.33328038961194"><ele>279.0</ele><time>2026-04-06T14:48:57.999Z</time></trkpt><trkpt lat="43.32780340437389" lon="11.333103984332249"><ele>279.0</ele><time>2026-04-06T14:48:58.999Z</time></trkpt><trkpt lat="43.32775052721178" lon="11.33294238160058"><ele>279.0</ele><time>2026-04-06T14:48:59.999Z</time></trkpt><trkpt lat="43.32770092793911" lon="11.332797412992331"><ele>279.0</ele><time>2026-04-06T14:49:00.999Z</time></trkpt><trkpt lat="43.327653455216684" lon="11.33266737622525"><ele>280.0</ele><time>2026-04-06T14:49:01.999Z</time></trkpt><trkpt lat="43.32761410340699" lon="11.33254380137644"><ele>281.0</ele><time>2026-04-06T14:49:02.999Z</time></trkpt><trkpt lat="43.32760446747754" lon="11.33241757303653"><ele>282.0</ele><time>2026-04-06T14:49:03.999Z</time></trkpt><trkpt lat="43.327627644545174" lon="11.332292501464371"><ele>283.0</ele><time>2026-04-06T14:49:04.999Z</time></trkpt><trkpt lat="43.32765720763068" lon="11.332168604924297"><ele>284.0</ele><time>2026-04-06T14:49:05.999Z</time></trkpt><trkpt lat="43.327652947035766" lon="11.332049238481009"><ele>284.5</ele><time>2026-04-06T14:49:06.999Z</time></trkpt><trkpt lat="43.327610425012644" lon="11.331951053994858"><ele>285.0</ele><time>2026-04-06T14:49:07.999Z</time></trkpt><trkpt lat="43.32754470573668" lon="11.331875663664778"><ele>285.5</ele><time>2026-04-06T14:49:08.999Z</time></trkpt><trkpt lat="43.327480456367866" lon="11.33179566778789"><ele>286.0</ele><time>2026-04-06T14:49:09.999Z</time></trkpt><trkpt lat="43.327441232245214" lon="11.331688487005602"><ele>286.5</ele><time>2026-04-06T14:49:10.999Z</time></trkpt><trkpt lat="43.327414970106645" lon="11.331567994588015"><ele>287.0</ele><time>2026-04-06T14:49:11.999Z</time></trkpt><trkpt lat="43.32746679513155" lon="11.33141486298338"><ele>287.75</ele><time>2026-04-06T14:49:12.999Z</time></trkpt><trkpt lat="43.327513082616406" lon="11.33127300450168"><ele>288.5</ele><time>2026-04-06T14:49:13.999Z</time></trkpt><trkpt lat="43.327563008456686" lon="11.331127058352013"><ele>289.25</ele><time>2026-04-06T14:49:14.999Z</time></trkpt><trkpt lat="43.327610267206836" lon="11.330972607050912"><ele>290.0</ele><time>2026-04-06T14:49:15.999Z</time></trkpt><trkpt lat="43.327660108020524" lon="11.330814281628662"><ele>290.0</ele><time>2026-04-06T14:49:16.999Z</time></trkpt><trkpt lat="43.32771909553534" lon="11.330653441786762"><ele>290.0</ele><time>2026-04-06T14:49:17.999Z</time></trkpt><trkpt lat="43.327786885209505" lon="11.330493696708677"><ele>290.0</ele><time>2026-04-06T14:49:18.999Z</time></trkpt><trkpt lat="43.32786075691757" lon="11.330336932303045"><ele>290.0</ele><time>2026-04-06T14:49:19.999Z</time></trkpt><trkpt lat="43.32793493768656" lon="11.330176064764307"><ele>289.5</ele><time>2026-04-06T14:49:20.999Z</time></trkpt><trkpt lat="43.32800378925309" lon="11.330020402359906"><ele>289.0</ele><time>2026-04-06T14:49:21.999Z</time></trkpt><trkpt lat="43.32806736466582" lon="11.329869387945866"><ele>288.5</ele><time>2026-04-06T14:49:22.999Z</time></trkpt><trkpt lat="43.328130489356695" lon="11.329720872223117"><ele>288.0</ele><time>2026-04-06T14:49:23.999Z</time></trkpt><trkpt lat="43.32819400261072" lon="11.329579954897913"><ele>288.0</ele><time>2026-04-06T14:49:24.999Z</time></trkpt><trkpt lat="43.32824753827429" lon="11.329459056377516"><ele>288.0</ele><time>2026-04-06T14:49:25.999Z</time></trkpt><trkpt lat="43.32828461781214" lon="11.329373337001238"><ele>288.0</ele><time>2026-04-06T14:49:26.999Z</time></trkpt><trkpt lat="43.32836255050025" lon="11.32924449919831"><ele>288.0</ele><time>2026-04-06T14:49:28.999Z</time></trkpt><trkpt lat="43.32841101882451" lon="11.329152748861505"><ele>288.0</ele><time>2026-04-06T14:49:29.999Z</time></trkpt><trkpt lat="43.32846495875328" lon="11.329043750462645"><ele>288.0</ele><time>2026-04-06T14:49:30.999Z</time></trkpt><trkpt lat="43.32852840491972" lon="11.328924930231478"><ele>288.0</ele><time>2026-04-06T14:49:31.999Z</time></trkpt><trkpt lat="43.328598909213106" lon="11.328794393198184"><ele>288.0</ele><time>2026-04-06T14:49:32.999Z</time></trkpt><trkpt lat="43.32867989101" lon="11.328660121092517"><ele>288.0</ele><time>2026-04-06T14:49:33.998Z</time></trkpt><trkpt lat="43.328766615852594" lon="11.328521199596544"><ele>286.75</ele><time>2026-04-06T14:49:34.998Z</time></trkpt><trkpt lat="43.32885296153889" lon="11.32838414164665"><ele>285.5</ele><time>2026-04-06T14:49:35.998Z</time></trkpt><trkpt lat="43.328940983653524" lon="11.328245690864607"><ele>284.25</ele><time>2026-04-06T14:49:36.998Z</time></trkpt><trkpt lat="43.32903392131245" lon="11.328103950077574"><ele>283.0</ele><time>2026-04-06T14:49:37.998Z</time></trkpt><trkpt lat="43.32913127228522" lon="11.327959663655227"><ele>285.75</ele><time>2026-04-06T14:49:38.998Z</time></trkpt><trkpt lat="43.32923046315612" lon="11.32781178801783"><ele>288.5</ele><time>2026-04-06T14:49:39.998Z</time></trkpt><trkpt lat="43.3293313864423" lon="11.327661421649939"><ele>291.25</ele><time>2026-04-06T14:49:40.998Z</time></trkpt><trkpt lat="43.329436130782" lon="11.327510427920595"><ele>294.0</ele><time>2026-04-06T14:49:41.998Z</time></trkpt><trkpt lat="43.329544707189434" lon="11.327357260153281"><ele>291.6666666666667</ele><time>2026-04-06T14:49:42.998Z</time></trkpt><trkpt lat="43.329648580340795" lon="11.327197917810484"><ele>289.33333333333337</ele><time>2026-04-06T14:49:43.998Z</time></trkpt><trkpt lat="43.32974291155849" lon="11.327025904759482"><ele>287.0</ele><time>2026-04-06T14:49:44.998Z</time></trkpt><trkpt lat="43.32983103204351" lon="11.32684527503438"><ele>287.0</ele><time>2026-04-06T14:49:45.998Z</time></trkpt><trkpt lat="43.32990906309267" lon="11.326661548803372"><ele>287.0</ele><time>2026-04-06T14:49:46.998Z</time></trkpt><trkpt lat="43.32998324187908" lon="11.326486836446996"><ele>287.0</ele><time>2026-04-06T14:49:47.998Z</time></trkpt><trkpt lat="43.330046293765555" lon="11.326334322541447"><ele>287.0</ele><time>2026-04-06T14:49:48.998Z</time></trkpt><trkpt lat="43.330100369536744" lon="11.326217531484057"><ele>288.33333333333337</ele><time>2026-04-06T14:49:49.998Z</time></trkpt><trkpt lat="43.330133086619874" lon="11.32614329755829"><ele>289.6666666666667</ele><time>2026-04-06T14:49:50.998Z</time></trkpt><trkpt lat="43.330197631329256" lon="11.326009134929198"><ele>291.0</ele><time>2026-04-06T14:49:52.998Z</time></trkpt><trkpt lat="43.330224872686415" lon="11.32592314620923"><ele>292.3333333333333</ele><time>2026-04-06T14:49:53.998Z</time></trkpt><trkpt lat="43.3302444673781" lon="11.325819729581694"><ele>293.66666666666663</ele><time>2026-04-06T14:49:54.998Z</time></trkpt><trkpt lat="43.33026051838574" lon="11.32569285510963"><ele>295.0</ele><time>2026-04-06T14:49:55.998Z</time></trkpt><trkpt lat="43.33027430888455" lon="11.32555822539754"><ele>296.25</ele><time>2026-04-06T14:49:56.998Z</time></trkpt><trkpt lat="43.33029869833531" lon="11.325405900856804"><ele>297.5</ele><time>2026-04-06T14:49:57.998Z</time></trkpt><trkpt lat="43.33034244269383" lon="11.325247520980442"><ele>298.75</ele><time>2026-04-06T14:49:58.998Z</time></trkpt><trkpt lat="43.33040016780637" lon="11.325094344944878"><ele>300.0</ele><time>2026-04-06T14:49:59.998Z</time></trkpt><trkpt lat="43.330463556943535" lon="11.32493974687808"><ele>300.0</ele><time>2026-04-06T14:50:00.998Z</time></trkpt><trkpt lat="43.330520910189904" lon="11.324786549328069"><ele>300.0</ele><time>2026-04-06T14:50:01.998Z</time></trkpt><trkpt lat="43.330571320184475" lon="11.32462995675435"><ele>300.0</ele><time>2026-04-06T14:50:02.998Z</time></trkpt><trkpt lat="43.33061635992105" lon="11.324482504212137"><ele>300.0</ele><time>2026-04-06T14:50:03.998Z</time></trkpt><trkpt lat="43.33065534097126" lon="11.324339236040254"><ele>296.0</ele><time>2026-04-06T14:50:04.998Z</time></trkpt><trkpt lat="43.330679021308455" lon="11.32419563523429"><ele>292.0</ele><time>2026-04-06T14:50:05.998Z</time></trkpt><trkpt lat="43.330698112615195" lon="11.324051531136357"><ele>288.0</ele><time>2026-04-06T14:50:06.998Z</time></trkpt><trkpt lat="43.33071983167338" lon="11.323883386588733"><ele>284.0</ele><time>2026-04-06T14:50:07.998Z</time></trkpt><trkpt lat="43.33077322192693" lon="11.323704645313294"><ele>284.0</ele><time>2026-04-06T14:50:08.998Z</time></trkpt><trkpt lat="43.330850462325685" lon="11.323513339911676"><ele>284.0</ele><time>2026-04-06T14:50:09.998Z</time></trkpt><trkpt lat="43.33092621104283" lon="11.323307921031928"><ele>284.0</ele><time>2026-04-06T14:50:10.998Z</time></trkpt><trkpt lat="43.33099854778566" lon="11.323097619197346"><ele>287.33333333333337</ele><time>2026-04-06T14:50:11.998Z</time></trkpt><trkpt lat="43.33108410260938" lon="11.32291049523345"><ele>290.6666666666667</ele><time>2026-04-06T14:50:12.998Z</time></trkpt><trkpt lat="43.33114472012124" lon="11.322694887078702"><ele>294.0</ele><time>2026-04-06T14:50:13.998Z</time></trkpt><trkpt lat="43.33121019575767" lon="11.322481217373271"><ele>294.0</ele><time>2026-04-06T14:50:14.998Z</time></trkpt><trkpt lat="43.331272170376806" lon="11.322270161765987"><ele>294.0</ele><time>2026-04-06T14:50:15.998Z</time></trkpt><trkpt lat="43.33134138833123" lon="11.32205802716607"><ele>294.0</ele><time>2026-04-06T14:50:16.998Z</time></trkpt><trkpt lat="43.33141160709545" lon="11.321880740711986"><ele>292.6666666666667</ele><time>2026-04-06T14:50:17.998Z</time></trkpt><trkpt lat="43.3314768391036" lon="11.321681633023257"><ele>291.33333333333337</ele><time>2026-04-06T14:50:18.998Z</time></trkpt><trkpt lat="43.331542876010914" lon="11.321500173692078"><ele>290.0</ele><time>2026-04-06T14:50:19.998Z</time></trkpt><trkpt lat="43.33161540564233" lon="11.32132089987361"><ele>290.0</ele><time>2026-04-06T14:50:20.998Z</time></trkpt><trkpt lat="43.33168399845419" lon="11.321137494416384"><ele>290.0</ele><time>2026-04-06T14:50:21.998Z</time></trkpt><trkpt lat="43.331751594448974" lon="11.32095257526599"><ele>290.0</ele><time>2026-04-06T14:50:22.998Z</time></trkpt><trkpt lat="43.33182313436965" lon="11.320768589625969"><ele>290.0</ele><time>2026-04-06T14:50:23.998Z</time></trkpt><trkpt lat="43.33188874536221" lon="11.320582707833394"><ele>290.0</ele><time>2026-04-06T14:50:24.998Z</time></trkpt><trkpt lat="43.3319575260481" lon="11.320402768328378"><ele>290.0</ele><time>2026-04-06T14:50:25.999Z</time></trkpt><trkpt lat="43.33201899074348" lon="11.320221575670185"><ele>290.0</ele><time>2026-04-06T14:50:26.999Z</time></trkpt><trkpt lat="43.332073596067794" lon="11.320043026935839"><ele>290.0</ele><time>2026-04-06T14:50:27.999Z</time></trkpt><trkpt lat="43.33211854536839" lon="11.319877260085368"><ele>290.0</ele><time>2026-04-06T14:50:28.999Z</time></trkpt><trkpt lat="43.33215780201777" lon="11.319719968267151"><ele>290.0</ele><time>2026-04-06T14:50:29.999Z</time></trkpt><trkpt lat="43.33220157646857" lon="11.319584421495737"><ele>290.0</ele><time>2026-04-06T14:50:30.999Z</time></trkpt><trkpt lat="43.332265031766916" lon="11.319471476117819"><ele>290.0</ele><time>2026-04-06T14:50:31.999Z</time></trkpt><trkpt lat="43.33233619428399" lon="11.319386969214186"><ele>290.0</ele><time>2026-04-06T14:50:32.999Z</time></trkpt><trkpt lat="43.33238854521968" lon="11.319283794080391"><ele>290.0</ele><time>2026-04-06T14:50:33.999Z</time></trkpt><trkpt lat="43.332423462958985" lon="11.319150080098947"><ele>290.0</ele><time>2026-04-06T14:50:34.999Z</time></trkpt><trkpt lat="43.33241787770335" lon="11.318986370579275"><ele>290.0</ele><time>2026-04-06T14:50:35.999Z</time></trkpt><trkpt lat="43.33242006577854" lon="11.318808588997078"><ele>291.5</ele><time>2026-04-06T14:50:36.999Z</time></trkpt><trkpt lat="43.33246816954692" lon="11.318624054911204"><ele>293.0</ele><time>2026-04-06T14:50:37.999Z</time></trkpt><trkpt lat="43.332520417198346" lon="11.318442587119227"><ele>294.5</ele><time>2026-04-06T14:50:38.999Z</time></trkpt><trkpt lat="43.332579521788695" lon="11.318256577515138"><ele>296.0</ele><time>2026-04-06T14:50:39.999Z</time></trkpt><trkpt lat="43.33263808854402" lon="11.318067632965207"><ele>298.6666666666667</ele><time>2026-04-06T14:50:40.999Z</time></trkpt><trkpt lat="43.332692525094814" lon="11.317872375970307"><ele>301.3333333333333</ele><time>2026-04-06T14:50:41.999Z</time></trkpt><trkpt lat="43.33274734630063" lon="11.31767811246288"><ele>304.0</ele><time>2026-04-06T14:50:42.999Z</time></trkpt><trkpt lat="43.33280012694463" lon="11.317482395531902"><ele>304.0</ele><time>2026-04-06T14:50:43.999Z</time></trkpt><trkpt lat="43.332852812995775" lon="11.317287030853329"><ele>304.0</ele><time>2026-04-06T14:50:44.999Z</time></trkpt><trkpt lat="43.332906442861265" lon="11.317090411418446"><ele>304.0</ele><time>2026-04-06T14:50:45.999Z</time></trkpt><trkpt lat="43.33295870417397" lon="11.316894336837809"><ele>304.0</ele><time>2026-04-06T14:50:46.999Z</time></trkpt><trkpt lat="43.33300724197032" lon="11.316697998683136"><ele>304.0</ele><time>2026-04-06T14:50:47.999Z</time></trkpt><trkpt lat="43.33305508461051" lon="11.316500898430988"><ele>304.0</ele><time>2026-04-06T14:50:48.999Z</time></trkpt><trkpt lat="43.333101572299526" lon="11.316305368824475"><ele>304.0</ele><time>2026-04-06T14:50:49.999Z</time></trkpt><trkpt lat="43.33315025272444" lon="11.316114280197025"><ele>304.0</ele><time>2026-04-06T14:50:50.999Z</time></trkpt><trkpt lat="43.33320142525585" lon="11.315922588842362"><ele>304.0</ele><time>2026-04-06T14:50:51.999Z</time></trkpt><trkpt lat="43.33325249965108" lon="11.315731673715483"><ele>304.0</ele><time>2026-04-06T14:50:52.999Z</time></trkpt><trkpt lat="43.333299701861776" lon="11.315537697626569"><ele>305.25</ele><time>2026-04-06T14:50:53.999Z</time></trkpt><trkpt lat="43.33333713253319" lon="11.315341693720873"><ele>306.5</ele><time>2026-04-06T14:50:54.999Z</time></trkpt><trkpt lat="43.3333617786806" lon="11.31514277859476"><ele>307.75</ele><time>2026-04-06T14:50:55.999Z</time></trkpt><trkpt lat="43.33337319664444" lon="11.314940263239352"><ele>309.0</ele><time>2026-04-06T14:50:56.999Z</time></trkpt><trkpt lat="43.33337229574301" lon="11.314735552387104"><ele>309.75</ele><time>2026-04-06T14:50:57.999Z</time></trkpt><trkpt lat="43.33336812481239" lon="11.314530585575694"><ele>310.5</ele><time>2026-04-06T14:50:58.999Z</time></trkpt><trkpt lat="43.33336821422562" lon="11.314325253598959"><ele>311.25</ele><time>2026-04-06T14:50:59.999Z</time></trkpt><trkpt lat="43.333375648587264" lon="11.31412086256128"><ele>312.0</ele><time>2026-04-06T14:51:00.999Z</time></trkpt><trkpt lat="43.33338360916321" lon="11.313916100665827"><ele>312.75</ele><time>2026-04-06T14:51:01.999Z</time></trkpt><trkpt lat="43.33338686335164" lon="11.313712614763894"><ele>313.5</ele><time>2026-04-06T14:51:02.999Z</time></trkpt><trkpt lat="43.33338936574744" lon="11.313512381816594"><ele>314.25</ele><time>2026-04-06T14:51:03.999Z</time></trkpt><trkpt lat="43.333392828105524" lon="11.31331055173753"><ele>315.0</ele><time>2026-04-06T14:51:04.999Z</time></trkpt><trkpt lat="43.33339614258938" lon="11.313115378773634"><ele>317.0</ele><time>2026-04-06T14:51:05.999Z</time></trkpt><trkpt lat="43.33340177631578" lon="11.312939244353041"><ele>319.0</ele><time>2026-04-06T14:51:06.999Z</time></trkpt><trkpt lat="43.3334098000165" lon="11.312779467424052"><ele>321.0</ele><time>2026-04-06T14:51:07.999Z</time></trkpt><trkpt lat="43.333422660862915" lon="11.312646069325575"><ele>323.0</ele><time>2026-04-06T14:51:08.999Z</time></trkpt><trkpt lat="43.33345680233438" lon="11.31245127511755"><ele>323.0</ele><time>2026-04-06T14:51:10.999Z</time></trkpt><trkpt lat="43.33350695592247" lon="11.312292183379608"><ele>323.0</ele><time>2026-04-06T14:51:12.999Z</time></trkpt><trkpt lat="43.33354889674013" lon="11.312165822872098"><ele>323.0</ele><time>2026-04-06T14:51:14.999Z</time></trkpt><trkpt lat="43.33361115835782" lon="11.312025795027582"><ele>323.0</ele><time>2026-04-06T14:51:16.999Z</time></trkpt><trkpt lat="43.333647115850724" lon="11.3119388957329"><ele>323.0</ele><time>2026-04-06T14:51:17.999Z</time></trkpt><trkpt lat="43.333685225924015" lon="11.311842218748104"><ele>323.79999999999995</ele><time>2026-04-06T14:51:18.999Z</time></trkpt><trkpt lat="43.33372713041832" lon="11.311739033520904"><ele>324.6</ele><time>2026-04-06T14:51:19.999Z</time></trkpt><trkpt lat="43.33377466505485" lon="11.3116293459485"><ele>325.4</ele><time>2026-04-06T14:51:20.999Z</time></trkpt><trkpt lat="43.333824805669884" lon="11.31151272363935"><ele>326.20000000000005</ele><time>2026-04-06T14:51:21.999Z</time></trkpt><trkpt lat="43.333873697065634" lon="11.311401317344599"><ele>327.0</ele><time>2026-04-06T14:51:22.999Z</time></trkpt><trkpt lat="43.33392500292853" lon="11.311278862895247"><ele>327.0</ele><time>2026-04-06T14:51:23.999Z</time></trkpt><trkpt lat="43.33398171555453" lon="11.311150471337037"><ele>327.0</ele><time>2026-04-06T14:51:24.999Z</time></trkpt><trkpt lat="43.33403808035307" lon="11.311014013782643"><ele>327.0</ele><time>2026-04-06T14:51:25.999Z</time></trkpt><trkpt lat="43.33409581934488" lon="11.310873128833258"><ele>327.0</ele><time>2026-04-06T14:51:26.999Z</time></trkpt><trkpt lat="43.334151895653676" lon="11.310729551226846"><ele>327.0</ele><time>2026-04-06T14:51:27.999Z</time></trkpt><trkpt lat="43.334213487694164" lon="11.310588797645979"><ele>327.0</ele><time>2026-04-06T14:51:28.999Z</time></trkpt><trkpt lat="43.33427348073634" lon="11.310453794852423"><ele>327.0</ele><time>2026-04-06T14:51:29.999Z</time></trkpt><trkpt lat="43.33433288649117" lon="11.310322779963522"><ele>327.0</ele><time>2026-04-06T14:51:30.999Z</time></trkpt><trkpt lat="43.33438706264976" lon="11.310201779438865"><ele>329.0</ele><time>2026-04-06T14:51:31.999Z</time></trkpt><trkpt lat="43.334424405841915" lon="11.310084221510609"><ele>331.0</ele><time>2026-04-06T14:51:32.998Z</time></trkpt><trkpt lat="43.33443640463139" lon="11.309967572584219"><ele>333.0</ele><time>2026-04-06T14:51:33.998Z</time></trkpt><trkpt lat="43.33442255210048" lon="11.30986897503697"><ele>335.0</ele><time>2026-04-06T14:51:34.998Z</time></trkpt><trkpt lat="43.33438137913691" lon="11.30973655708077"><ele>337.0</ele><time>2026-04-06T14:51:36.998Z</time></trkpt><trkpt lat="43.3343700693182" lon="11.30963321367892"><ele>339.0</ele><time>2026-04-06T14:51:38.998Z</time></trkpt><trkpt lat="43.334435053358284" lon="11.309429558461265"><ele>339.6666666666667</ele><time>2026-04-06T14:51:41.998Z</time></trkpt><trkpt lat="43.33449983895955" lon="11.309357320422393"><ele>340.3333333333333</ele><time>2026-04-06T14:51:42.998Z</time></trkpt><trkpt lat="43.33457326975608" lon="11.309294664049435"><ele>341.0</ele><time>2026-04-06T14:51:43.998Z</time></trkpt><trkpt lat="43.33465349757829" lon="11.309229430818226"><ele>341.66666666666663</ele><time>2026-04-06T14:51:44.998Z</time></trkpt><trkpt lat="43.33473083294113" lon="11.309160386348225"><ele>342.3333333333333</ele><time>2026-04-06T14:51:45.998Z</time></trkpt><trkpt lat="43.3348076967572" lon="11.309093985658073"><ele>343.0</ele><time>2026-04-06T14:51:46.998Z</time></trkpt><trkpt lat="43.33488420888808" lon="11.30902961992092"><ele>343.0</ele><time>2026-04-06T14:51:47.998Z</time></trkpt><trkpt lat="43.33496004179159" lon="11.308972562899445"><ele>343.0</ele><time>2026-04-06T14:51:48.998Z</time></trkpt><trkpt lat="43.33502837479067" lon="11.308918639860668"><ele>343.0</ele><time>2026-04-06T14:51:49.998Z</time></trkpt><trkpt lat="43.33508976424663" lon="11.308868064966797"><ele>343.0</ele><time>2026-04-06T14:51:50.998Z</time></trkpt><trkpt lat="43.33514963032329" lon="11.30882371923444"><ele>343.0</ele><time>2026-04-06T14:51:51.998Z</time></trkpt><trkpt lat="43.335208225407584" lon="11.308777695434813"><ele>343.0</ele><time>2026-04-06T14:51:52.998Z</time></trkpt><trkpt lat="43.33527614159546" lon="11.308736472486148"><ele>343.0</ele><time>2026-04-06T14:51:53.998Z</time></trkpt><trkpt lat="43.33534172262321" lon="11.308689967826458"><ele>342.75</ele><time>2026-04-06T14:51:54.998Z</time></trkpt><trkpt lat="43.33532227525941" lon="11.30850614557405"><ele>342.5</ele><time>2026-04-06T14:51:55.998Z</time></trkpt><trkpt lat="43.33533143979693" lon="11.308376608808993"><ele>342.25</ele><time>2026-04-06T14:51:56.998Z</time></trkpt><trkpt lat="43.33533011480908" lon="11.308240853157434"><ele>342.0</ele><time>2026-04-06T14:51:57.998Z</time></trkpt><trkpt lat="43.33538490138872" lon="11.308091637997022"><ele>341.20000000000005</ele><time>2026-04-06T14:51:58.998Z</time></trkpt><trkpt lat="43.33541196823346" lon="11.307945529914875"><ele>340.4</ele><time>2026-04-06T14:51:59.998Z</time></trkpt><trkpt lat="43.335443001792854" lon="11.307812922613786"><ele>339.6</ele><time>2026-04-06T14:52:00.998Z</time></trkpt><trkpt lat="43.33547108963086" lon="11.307689443764081"><ele>338.79999999999995</ele><time>2026-04-06T14:52:01.998Z</time></trkpt><trkpt lat="43.33549452835906" lon="11.307583138287102"><ele>338.0</ele><time>2026-04-06T14:52:02.998Z</time></trkpt><trkpt lat="43.335519417117865" lon="11.307488192805371"><ele>338.0</ele><time>2026-04-06T14:52:03.998Z</time></trkpt><trkpt lat="43.33554535344334" lon="11.307395558563659"><ele>338.0</ele><time>2026-04-06T14:52:04.998Z</time></trkpt><trkpt lat="43.33557473132857" lon="11.307294312000414"><ele>338.0</ele><time>2026-04-06T14:52:05.998Z</time></trkpt><trkpt lat="43.33561021021743" lon="11.307186212888169"><ele>338.0</ele><time>2026-04-06T14:52:06.998Z</time></trkpt><trkpt lat="43.33564613628796" lon="11.307073108875477"><ele>338.0</ele><time>2026-04-06T14:52:07.998Z</time></trkpt><trkpt lat="43.33568557370491" lon="11.306952966534805"><ele>338.0</ele><time>2026-04-06T14:52:08.998Z</time></trkpt><trkpt lat="43.335738417898106" lon="11.306832879988544"><ele>337.5</ele><time>2026-04-06T14:52:09.998Z</time></trkpt><trkpt lat="43.335811589347294" lon="11.306725754789875"><ele>337.0</ele><time>2026-04-06T14:52:10.998Z</time></trkpt><trkpt lat="43.33591032225844" lon="11.306648513756372"><ele>336.5</ele><time>2026-04-06T14:52:11.998Z</time></trkpt><trkpt lat="43.336021173166145" lon="11.306597303178993"><ele>336.0</ele><time>2026-04-06T14:52:12.998Z</time></trkpt><trkpt lat="43.336134954664104" lon="11.306547709006216"><ele>336.0</ele><time>2026-04-06T14:52:13.998Z</time></trkpt><trkpt lat="43.33624951446351" lon="11.306492786029349"><ele>336.0</ele><time>2026-04-06T14:52:14.998Z</time></trkpt><trkpt lat="43.33636194931973" lon="11.306442400035495"><ele>336.0</ele><time>2026-04-06T14:52:15.998Z</time></trkpt><trkpt lat="43.3364672251818" lon="11.306398460260308"><ele>336.0</ele><time>2026-04-06T14:52:16.998Z</time></trkpt><trkpt lat="43.3365671927865" lon="11.30635343593836"><ele>336.4</ele><time>2026-04-06T14:52:17.998Z</time></trkpt><trkpt lat="43.336657651941174" lon="11.306286244471863"><ele>336.8</ele><time>2026-04-06T14:52:18.998Z</time></trkpt><trkpt lat="43.33673921807146" lon="11.306194761381514"><ele>337.2</ele><time>2026-04-06T14:52:19.998Z</time></trkpt><trkpt lat="43.33680321385771" lon="11.306086051403005"><ele>337.59999999999997</ele><time>2026-04-06T14:52:20.998Z</time></trkpt><trkpt lat="43.3368391879406" lon="11.305961289641683"><ele>338.0</ele><time>2026-04-06T14:52:21.998Z</time></trkpt><trkpt lat="43.33684186550848" lon="11.30582077424743"><ele>338.0</ele><time>2026-04-06T14:52:22.998Z</time></trkpt><trkpt lat="43.33681970604915" lon="11.305680620641333"><ele>338.0</ele><time>2026-04-06T14:52:23.998Z</time></trkpt><trkpt lat="43.33677726424407" lon="11.305543143835486"><ele>338.0</ele><time>2026-04-06T14:52:24.998Z</time></trkpt><trkpt lat="43.336724027263706" lon="11.30540693543603"><ele>338.0</ele><time>2026-04-06T14:52:25.998Z</time></trkpt><trkpt lat="43.33667814702571" lon="11.305266996033357"><ele>338.0</ele><time>2026-04-06T14:52:26.998Z</time></trkpt><trkpt lat="43.336645911125046" lon="11.305125274879893"><ele>338.2</ele><time>2026-04-06T14:52:27.998Z</time></trkpt><trkpt lat="43.33663430767144" lon="11.304999636103378"><ele>338.4</ele><time>2026-04-06T14:52:28.997Z</time></trkpt><trkpt lat="43.336653413934144" lon="11.304889569140824"><ele>338.59999999999997</ele><time>2026-04-06T14:52:29.997Z</time></trkpt><trkpt lat="43.33669506343042" lon="11.304789869307472"><ele>338.79999999999995</ele><time>2026-04-06T14:52:30.997Z</time></trkpt><trkpt lat="43.33674253279959" lon="11.304676754057029"><ele>339.0</ele><time>2026-04-06T14:52:31.999Z</time></trkpt><trkpt lat="43.336788859109625" lon="11.304542852251485"><ele>339.0</ele><time>2026-04-06T14:52:32.999Z</time></trkpt><trkpt lat="43.33684342511913" lon="11.304396405878895"><ele>339.0</ele><time>2026-04-06T14:52:33.999Z</time></trkpt><trkpt lat="43.336904312207736" lon="11.304238858655685"><ele>339.0</ele><time>2026-04-06T14:52:34.999Z</time></trkpt><trkpt lat="43.33697079666584" lon="11.304077397041006"><ele>339.0</ele><time>2026-04-06T14:52:35.999Z</time></trkpt><trkpt lat="43.337037055062034" lon="11.303916689959028"><ele>339.25</ele><time>2026-04-06T14:52:36.999Z</time></trkpt><trkpt lat="43.33710495777388" lon="11.30374756961415"><ele>339.5</ele><time>2026-04-06T14:52:37.999Z</time></trkpt><trkpt lat="43.33717343646356" lon="11.303573981670462"><ele>339.75</ele><time>2026-04-06T14:52:38.999Z</time></trkpt><trkpt lat="43.33724132684237" lon="11.303403555048504"><ele>340.0</ele><time>2026-04-06T14:52:39.999Z</time></trkpt><trkpt lat="43.33730550640262" lon="11.30324282602062"><ele>340.25</ele><time>2026-04-06T14:52:40.999Z</time></trkpt><trkpt lat="43.33736025439364" lon="11.303087270955178"><ele>340.5</ele><time>2026-04-06T14:52:41.999Z</time></trkpt><trkpt lat="43.337403886676825" lon="11.30293717681233"><ele>340.75</ele><time>2026-04-06T14:52:42.999Z</time></trkpt><trkpt lat="43.33743195990631" lon="11.302784734235553"><ele>341.0</ele><time>2026-04-06T14:52:43.999Z</time></trkpt><trkpt lat="43.33743550930788" lon="11.302623874372218"><ele>341.0</ele><time>2026-04-06T14:52:44.999Z</time></trkpt><trkpt lat="43.33740919811434" lon="11.302454356507992"><ele>341.0</ele><time>2026-04-06T14:52:45.999Z</time></trkpt><trkpt lat="43.33736739276475" lon="11.302283994611955"><ele>341.0</ele><time>2026-04-06T14:52:46.999Z</time></trkpt><trkpt lat="43.33731903235236" lon="11.302108872001192"><ele>341.0</ele><time>2026-04-06T14:52:47.999Z</time></trkpt><trkpt lat="43.33726847272845" lon="11.301929531887685"><ele>341.0</ele><time>2026-04-06T14:52:48.999Z</time></trkpt><trkpt lat="43.33721562459482" lon="11.301745258132742"><ele>341.0</ele><time>2026-04-06T14:52:49.999Z</time></trkpt><trkpt lat="43.337160583854455" lon="11.301561674162544"><ele>341.0</ele><time>2026-04-06T14:52:50.999Z</time></trkpt><trkpt lat="43.33710875662469" lon="11.30138174429292"><ele>341.0</ele><time>2026-04-06T14:52:51.999Z</time></trkpt><trkpt lat="43.33705807589708" lon="11.301206808104666"><ele>340.0</ele><time>2026-04-06T14:52:52.999Z</time></trkpt><trkpt lat="43.337008508713446" lon="11.301035410232874"><ele>339.0</ele><time>2026-04-06T14:52:53.999Z</time></trkpt><trkpt lat="43.33695753815378" lon="11.300869968801846"><ele>338.0</ele><time>2026-04-06T14:52:54.999Z</time></trkpt><trkpt lat="43.336899241700905" lon="11.300713457397169"><ele>337.0</ele><time>2026-04-06T14:52:55.999Z</time></trkpt><trkpt lat="43.33682636154379" lon="11.30056005601051"><ele>335.5</ele><time>2026-04-06T14:52:56.999Z</time></trkpt><trkpt lat="43.33674085047589" lon="11.300418672614253"><ele>334.0</ele><time>2026-04-06T14:52:57.999Z</time></trkpt><trkpt lat="43.33664263283188" lon="11.300299642574094"><ele>332.5</ele><time>2026-04-06T14:52:58.999Z</time></trkpt><trkpt lat="43.33653574108894" lon="11.300196597791203"><ele>331.0</ele><time>2026-04-06T14:52:59.999Z</time></trkpt><trkpt lat="43.336420923125445" lon="11.300113877033752"><ele>331.5</ele><time>2026-04-06T14:53:00.999Z</time></trkpt><trkpt lat="43.33630236503835" lon="11.300023593728008"><ele>332.0</ele><time>2026-04-06T14:53:01.999Z</time></trkpt><trkpt lat="43.33616251359025" lon="11.299992508591798"><ele>332.5</ele><time>2026-04-06T14:53:02.999Z</time></trkpt><trkpt lat="43.3360283999451" lon="11.299944652326147"><ele>333.0</ele><time>2026-04-06T14:53:03.999Z</time></trkpt><trkpt lat="43.3358932128147" lon="11.299892445352741"><ele>333.0</ele><time>2026-04-06T14:53:04.999Z</time></trkpt><trkpt lat="43.33575712569535" lon="11.299840811385609"><ele>333.0</ele><time>2026-04-06T14:53:05.999Z</time></trkpt><trkpt lat="43.33561970256871" lon="11.29979126534294"><ele>333.0</ele><time>2026-04-06T14:53:06.999Z</time></trkpt><trkpt lat="43.3354833508919" lon="11.29974095920359"><ele>333.0</ele><time>2026-04-06T14:53:07.999Z</time></trkpt><trkpt lat="43.335349024995914" lon="11.299690973220098"><ele>331.75</ele><time>2026-04-06T14:53:08.999Z</time></trkpt><trkpt lat="43.33521528216081" lon="11.299642843035059"><ele>330.5</ele><time>2026-04-06T14:53:09.999Z</time></trkpt><trkpt lat="43.33508345120143" lon="11.29959593669788"><ele>329.25</ele><time>2026-04-06T14:53:10.999Z</time></trkpt><trkpt lat="43.334951739471" lon="11.299549407382488"><ele>328.0</ele><time>2026-04-06T14:53:11.999Z</time></trkpt><trkpt lat="43.33482121727291" lon="11.299503049859592"><ele>328.0</ele><time>2026-04-06T14:53:12.999Z</time></trkpt><trkpt lat="43.3346997769692" lon="11.299456461911403"><ele>328.0</ele><time>2026-04-06T14:53:13.999Z</time></trkpt><trkpt lat="43.33458236188565" lon="11.299417777947562"><ele>328.0</ele><time>2026-04-06T14:53:14.999Z</time></trkpt><trkpt lat="43.33446884536917" lon="11.299385393979373"><ele>328.0</ele><time>2026-04-06T14:53:15.999Z</time></trkpt><trkpt lat="43.334360533258" lon="11.29934978297356"><ele>328.0</ele><time>2026-04-06T14:53:16.999Z</time></trkpt><trkpt lat="43.33425308339579" lon="11.299299630762674"><ele>328.0</ele><time>2026-04-06T14:53:17.999Z</time></trkpt><trkpt lat="43.33414076679662" lon="11.299236379742657"><ele>328.0</ele><time>2026-04-06T14:53:18.999Z</time></trkpt><trkpt lat="43.33402694885141" lon="11.29915876205257"><ele>328.0</ele><time>2026-04-06T14:53:19.999Z</time></trkpt><trkpt lat="43.33391753471982" lon="11.299056213768853"><ele>326.75</ele><time>2026-04-06T14:53:20.999Z</time></trkpt><trkpt lat="43.33381873962448" lon="11.298943019307256"><ele>325.5</ele><time>2026-04-06T14:53:21.999Z</time></trkpt><trkpt lat="43.333718830846244" lon="11.2988347753889"><ele>324.25</ele><time>2026-04-06T14:53:22.999Z</time></trkpt><trkpt lat="43.33361953916612" lon="11.298737859682262"><ele>323.0</ele><time>2026-04-06T14:53:23.999Z</time></trkpt><trkpt lat="43.333531689278935" lon="11.298657094613135"><ele>323.0</ele><time>2026-04-06T14:53:24.999Z</time></trkpt><trkpt lat="43.333456762433016" lon="11.298593296932728"><ele>323.0</ele><time>2026-04-06T14:53:25.999Z</time></trkpt><trkpt lat="43.333405117139236" lon="11.298525064054594"><ele>323.0</ele><time>2026-04-06T14:53:26.999Z</time></trkpt><trkpt lat="43.33334420608563" lon="11.298467260085891"><ele>323.0</ele><time>2026-04-06T14:53:27.999Z</time></trkpt><trkpt lat="43.33327648009354" lon="11.298402990745974"><ele>323.0</ele><time>2026-04-06T14:53:28.999Z</time></trkpt><trkpt lat="43.333189632848494" lon="11.298345225717634"><ele>323.0</ele><time>2026-04-06T14:53:29.999Z</time></trkpt><trkpt lat="43.3331051115671" lon="11.298267414611031"><ele>322.25</ele><time>2026-04-06T14:53:30.999Z</time></trkpt><trkpt lat="43.33302586628507" lon="11.298166693486733"><ele>321.5</ele><time>2026-04-06T14:53:31.999Z</time></trkpt><trkpt lat="43.33293255268746" lon="11.298078814987099"><ele>320.75</ele><time>2026-04-06T14:53:32.999Z</time></trkpt><trkpt lat="43.33282730276482" lon="11.298001695176328"><ele>320.0</ele><time>2026-04-06T14:53:33.999Z</time></trkpt><trkpt lat="43.33273125858893" lon="11.297900138444483"><ele>320.0</ele><time>2026-04-06T14:53:34.999Z</time></trkpt><trkpt lat="43.33263303599984" lon="11.297791352873482"><ele>320.0</ele><time>2026-04-06T14:53:35.999Z</time></trkpt><trkpt lat="43.33254058061164" lon="11.297682753935408"><ele>320.0</ele><time>2026-04-06T14:53:36.999Z</time></trkpt><trkpt lat="43.33245211725834" lon="11.297572711390407"><ele>320.0</ele><time>2026-04-06T14:53:37.999Z</time></trkpt><trkpt lat="43.332366156946115" lon="11.297462638700175"><ele>320.0</ele><time>2026-04-06T14:53:38.999Z</time></trkpt><trkpt lat="43.33228542095926" lon="11.297352354907014"><ele>320.0</ele><time>2026-04-06T14:53:39.999Z</time></trkpt><trkpt lat="43.33221221587693" lon="11.297240668055792"><ele>320.0</ele><time>2026-04-06T14:53:40.999Z</time></trkpt><trkpt lat="43.33215011352235" lon="11.297115294607678"><ele>320.0</ele><time>2026-04-06T14:53:41.999Z</time></trkpt><trkpt lat="43.332095982350204" lon="11.296973618216988"><ele>318.5</ele><time>2026-04-06T14:53:42.999Z</time></trkpt><trkpt lat="43.33205905353568" lon="11.296809188390768"><ele>317.0</ele><time>2026-04-06T14:53:43.999Z</time></trkpt><trkpt lat="43.33203855603355" lon="11.296634800869262"><ele>315.5</ele><time>2026-04-06T14:53:44.998Z</time></trkpt><trkpt lat="43.33202660217256" lon="11.29645879627427"><ele>314.0</ele><time>2026-04-06T14:53:45.998Z</time></trkpt><trkpt lat="43.33201458567754" lon="11.2962842073872"><ele>314.0</ele><time>2026-04-06T14:53:46.998Z</time></trkpt><trkpt lat="43.332005051250896" lon="11.296115354169215"><ele>314.0</ele><time>2026-04-06T14:53:47.998Z</time></trkpt><trkpt lat="43.331997977487" lon="11.295953459411836"><ele>314.0</ele><time>2026-04-06T14:53:48.998Z</time></trkpt><trkpt lat="43.33199407685765" lon="11.295800954515158"><ele>314.0</ele><time>2026-04-06T14:53:49.998Z</time></trkpt><trkpt lat="43.33198034041097" lon="11.295652493213977"><ele>313.75</ele><time>2026-04-06T14:53:50.998Z</time></trkpt><trkpt lat="43.33194333777964" lon="11.295508087814852"><ele>313.5</ele><time>2026-04-06T14:53:51.998Z</time></trkpt><trkpt lat="43.331878614336446" lon="11.295379716363817"><ele>313.25</ele><time>2026-04-06T14:53:52.998Z</time></trkpt><trkpt lat="43.331793736058444" lon="11.295273301684192"><ele>313.0</ele><time>2026-04-06T14:53:53.998Z</time></trkpt><trkpt lat="43.331693107444245" lon="11.295201365111414"><ele>313.0</ele><time>2026-04-06T14:53:54.998Z</time></trkpt><trkpt lat="43.331583971899654" lon="11.29515227241294"><ele>313.0</ele><time>2026-04-06T14:53:55.998Z</time></trkpt><trkpt lat="43.33146559122456" lon="11.295150007857131"><ele>313.0</ele><time>2026-04-06T14:53:56.998Z</time></trkpt><trkpt lat="43.33134599262923" lon="11.295146470868344"><ele>313.0</ele><time>2026-04-06T14:53:57.998Z</time></trkpt><trkpt lat="43.33122291355723" lon="11.295141479607066"><ele>311.25</ele><time>2026-04-06T14:53:58.998Z</time></trkpt><trkpt lat="43.331098967387305" lon="11.295128370418018"><ele>309.5</ele><time>2026-04-06T14:53:59.998Z</time></trkpt><trkpt lat="43.33097381044405" lon="11.295190244266795"><ele>307.75</ele><time>2026-04-06T14:54:00.998Z</time></trkpt><trkpt lat="43.33087203110804" lon="11.295296609334718"><ele>306.0</ele><time>2026-04-06T14:54:01.998Z</time></trkpt><trkpt lat="43.33080808092357" lon="11.295450499943929"><ele>306.5</ele><time>2026-04-06T14:54:02.998Z</time></trkpt><trkpt lat="43.330772764989824" lon="11.295595957077168"><ele>307.0</ele><time>2026-04-06T14:54:03.998Z</time></trkpt><trkpt lat="43.33074296764359" lon="11.29574309310315"><ele>307.5</ele><time>2026-04-06T14:54:04.998Z</time></trkpt><trkpt lat="43.330686342627125" lon="11.295881560504833"><ele>308.0</ele><time>2026-04-06T14:54:05.998Z</time></trkpt><trkpt lat="43.33062806434521" lon="11.296024579819905"><ele>308.0</ele><time>2026-04-06T14:54:06.998Z</time></trkpt><trkpt lat="43.330567250808784" lon="11.296164319250384"><ele>308.0</ele><time>2026-04-06T14:54:07.998Z</time></trkpt><trkpt lat="43.330467460556285" lon="11.29625985600682"><ele>308.0</ele><time>2026-04-06T14:54:08.998Z</time></trkpt><trkpt lat="43.330404071991346" lon="11.29638706612469"><ele>308.0</ele><time>2026-04-06T14:54:09.998Z</time></trkpt><trkpt lat="43.33034375347689" lon="11.296508115215168"><ele>307.0</ele><time>2026-04-06T14:54:10.998Z</time></trkpt><trkpt lat="43.33029773578778" lon="11.296600135274728"><ele>306.0</ele><time>2026-04-06T14:54:11.998Z</time></trkpt><trkpt lat="43.33025570538569" lon="11.296684014318078"><ele>305.0</ele><time>2026-04-06T14:54:13.998Z</time></trkpt><trkpt lat="43.33021940751383" lon="11.296541867486718"><ele>304.0</ele><time>2026-04-06T14:54:16.998Z</time></trkpt><trkpt lat="43.330238560721305" lon="11.296451976594883"><ele>303.0</ele><time>2026-04-06T14:54:17.998Z</time></trkpt><trkpt lat="43.330243117179336" lon="11.296361579580807"><ele>302.0</ele><time>2026-04-06T14:54:18.998Z</time></trkpt><trkpt lat="43.33024789974242" lon="11.296266752578196"><ele>301.7142857142857</ele><time>2026-04-06T14:54:19.998Z</time></trkpt><trkpt lat="43.33025049149167" lon="11.296178262705025"><ele>301.42857142857144</ele><time>2026-04-06T14:54:20.998Z</time></trkpt><trkpt lat="43.33025176269813" lon="11.296084576293206"><ele>301.1428571428571</ele><time>2026-04-06T14:54:21.998Z</time></trkpt><trkpt lat="43.330250926346544" lon="11.295986134868295"><ele>300.8571428571429</ele><time>2026-04-06T14:54:22.998Z</time></trkpt><trkpt lat="43.33025401551255" lon="11.295890060516642"><ele>300.57142857142856</ele><time>2026-04-06T14:54:23.998Z</time></trkpt><trkpt lat="43.33025924921546" lon="11.295790865003706"><ele>300.2857142857143</ele><time>2026-04-06T14:54:24.998Z</time></trkpt><trkpt lat="43.33026303444888" lon="11.29568021581173"><ele>300.0</ele><time>2026-04-06T14:54:25.998Z</time></trkpt><trkpt lat="43.33026697184534" lon="11.295571346038704"><ele>299.6666666666667</ele><time>2026-04-06T14:54:26.998Z</time></trkpt><trkpt lat="43.33026807905411" lon="11.295465419603648"><ele>299.3333333333333</ele><time>2026-04-06T14:54:27.998Z</time></trkpt><trkpt lat="43.33026860746279" lon="11.295363978488714"><ele>299.0</ele><time>2026-04-06T14:54:28.998Z</time></trkpt><trkpt lat="43.330268392949414" lon="11.295263729848289"><ele>298.66666666666663</ele><time>2026-04-06T14:54:29.998Z</time></trkpt><trkpt lat="43.330266006996474" lon="11.295172704427527"><ele>298.3333333333333</ele><time>2026-04-06T14:54:30.998Z</time></trkpt><trkpt lat="43.33026009867778" lon="11.295085280804503"><ele>298.0</ele><time>2026-04-06T14:54:31.998Z</time></trkpt><trkpt lat="43.330251144819194" lon="11.29494843608018"><ele>298.0</ele><time>2026-04-06T14:54:33.998Z</time></trkpt><trkpt lat="43.33028393358073" lon="11.294829733796014"><ele>298.0</ele><time>2026-04-06T14:54:38Z</time></trkpt><trkpt lat="43.330308635304874" lon="11.29473357188096"><ele>298.0</ele><time>2026-04-06T14:54:40Z</time></trkpt><trkpt lat="43.33032863706637" lon="11.294627092342282"><ele>298.0</ele><time>2026-04-06T14:54:42Z</time></trkpt><trkpt lat="43.33035756792311" lon="11.294523903752006"><ele>298.0</ele><time>2026-04-06T14:54:44Z</time></trkpt><trkpt lat="43.33037340262985" lon="11.294371415351913"><ele>298.0</ele><time>2026-04-06T14:54:46Z</time></trkpt><trkpt lat="43.330390033303374" lon="11.294283535993893"><ele>297.3333333333333</ele><time>2026-04-06T14:54:47Z</time></trkpt><trkpt lat="43.330411381286744" lon="11.294182267358257"><ele>296.66666666666663</ele><time>2026-04-06T14:54:48Z</time></trkpt><trkpt lat="43.3304266318916" lon="11.294083059176542"><ele>296.0</ele><time>2026-04-06T14:54:49Z</time></trkpt><trkpt lat="43.33044243424958" lon="11.293978024654548"><ele>295.3333333333333</ele><time>2026-04-06T14:54:50Z</time></trkpt><trkpt lat="43.33044352695878" lon="11.293866632397236"><ele>294.6666666666667</ele><time>2026-04-06T14:54:51Z</time></trkpt><trkpt lat="43.330461619617466" lon="11.293756645311653"><ele>294.0</ele><time>2026-04-06T14:54:52Z</time></trkpt><trkpt lat="43.33050712447679" lon="11.293653295408793"><ele>293.2</ele><time>2026-04-06T14:54:53Z</time></trkpt><trkpt lat="43.330538665550684" lon="11.29354017508506"><ele>292.4</ele><time>2026-04-06T14:54:54Z</time></trkpt><trkpt lat="43.33057929474866" lon="11.2934297037808"><ele>291.6</ele><time>2026-04-06T14:54:55Z</time></trkpt><trkpt lat="43.330630607503764" lon="11.293309179954434"><ele>290.8</ele><time>2026-04-06T14:54:56Z</time></trkpt><trkpt lat="43.3306911516997" lon="11.293179276222043"><ele>290.0</ele><time>2026-04-06T14:54:56.999Z</time></trkpt><trkpt lat="43.33075954962403" lon="11.293050593078307"><ele>286.25</ele><time>2026-04-06T14:54:57.999Z</time></trkpt><trkpt lat="43.33083278709097" lon="11.292921816409343"><ele>282.5</ele><time>2026-04-06T14:54:58.999Z</time></trkpt><trkpt lat="43.330895824398354" lon="11.29279025612884"><ele>278.75</ele><time>2026-04-06T14:54:59.999Z</time></trkpt><trkpt lat="43.33096280623394" lon="11.29265747564892"><ele>275.0</ele><time>2026-04-06T14:55:00.999Z</time></trkpt><trkpt lat="43.33102008803246" lon="11.292516127898441"><ele>275.0</ele><time>2026-04-06T14:55:01.999Z</time></trkpt><trkpt lat="43.33106908968302" lon="11.29236994639904"><ele>275.0</ele><time>2026-04-06T14:55:02.999Z</time></trkpt><trkpt lat="43.33112184573162" lon="11.292227739973878"><ele>275.0</ele><time>2026-04-06T14:55:03.999Z</time></trkpt><trkpt lat="43.33116886861094" lon="11.29207932570143"><ele>275.0</ele><time>2026-04-06T14:55:04.999Z</time></trkpt><trkpt lat="43.33121482655488" lon="11.291925841026892"><ele>273.25</ele><time>2026-04-06T14:55:05.999Z</time></trkpt><trkpt lat="43.33125100705082" lon="11.291755874906318"><ele>271.5</ele><time>2026-04-06T14:55:06.999Z</time></trkpt><trkpt lat="43.331284237350765" lon="11.291573990667622"><ele>269.75</ele><time>2026-04-06T14:55:07.999Z</time></trkpt><trkpt lat="43.33130235377256" lon="11.291427817320445"><ele>268.0</ele><time>2026-04-06T14:55:08.999Z</time></trkpt><trkpt lat="43.33130511675387" lon="11.291285282218565"><ele>267.75</ele><time>2026-04-06T14:55:09.999Z</time></trkpt><trkpt lat="43.33130410215632" lon="11.291155361643188"><ele>267.5</ele><time>2026-04-06T14:55:10.999Z</time></trkpt><trkpt lat="43.33130539899705" lon="11.290985001087785"><ele>267.25</ele><time>2026-04-06T14:55:11.999Z</time></trkpt><trkpt lat="43.331328293978906" lon="11.290708129616027"><ele>267.0</ele><time>2026-04-06T14:55:12.999Z</time></trkpt><trkpt lat="43.33136414367477" lon="11.290457763923902"><ele>268.75</ele><time>2026-04-06T14:55:13.999Z</time></trkpt><trkpt lat="43.331406985820145" lon="11.290237904885684"><ele>270.5</ele><time>2026-04-06T14:55:14.999Z</time></trkpt><trkpt lat="43.33144946842149" lon="11.290049799793987"><ele>272.25</ele><time>2026-04-06T14:55:15.999Z</time></trkpt><trkpt lat="43.331491615319976" lon="11.28987122650998"><ele>274.0</ele><time>2026-04-06T14:55:16.999Z</time></trkpt><trkpt lat="43.331538508917085" lon="11.289672376295101"><ele>275.66666666666663</ele><time>2026-04-06T14:55:17.999Z</time></trkpt><trkpt lat="43.331596400347514" lon="11.289419426240533"><ele>277.3333333333333</ele><time>2026-04-06T14:55:18.999Z</time></trkpt><trkpt lat="43.3316334658656" lon="11.289217562237585"><ele>279.0</ele><time>2026-04-06T14:55:19.999Z</time></trkpt><trkpt lat="43.331658367307334" lon="11.289020212084305"><ele>280.75</ele><time>2026-04-06T14:55:20.999Z</time></trkpt><trkpt lat="43.3316719625163" lon="11.28883749393424"><ele>282.5</ele><time>2026-04-06T14:55:21.999Z</time></trkpt><trkpt lat="43.331669967217444" lon="11.288676966758146"><ele>284.25</ele><time>2026-04-06T14:55:22.999Z</time></trkpt><trkpt lat="43.331644498716166" lon="11.28851566988262"><ele>286.0</ele><time>2026-04-06T14:55:23.999Z</time></trkpt><trkpt lat="43.33158880123761" lon="11.288324576432274"><ele>286.0</ele><time>2026-04-06T14:55:24.999Z</time></trkpt><trkpt lat="43.331521286402655" lon="11.2881278346881"><ele>286.0</ele><time>2026-04-06T14:55:25.999Z</time></trkpt><trkpt lat="43.33145416934023" lon="11.287930403167152"><ele>286.0</ele><time>2026-04-06T14:55:26.999Z</time></trkpt><trkpt lat="43.33138921739281" lon="11.287738681890634"><ele>290.5</ele><time>2026-04-06T14:55:27.999Z</time></trkpt><trkpt lat="43.331325767128035" lon="11.287551537330069"><ele>295.0</ele><time>2026-04-06T14:55:28.999Z</time></trkpt><trkpt lat="43.33126596450033" lon="11.287373177478338"><ele>299.5</ele><time>2026-04-06T14:55:29.999Z</time></trkpt><trkpt lat="43.33120845881272" lon="11.287185038056453"><ele>304.0</ele><time>2026-04-06T14:55:30.999Z</time></trkpt><trkpt lat="43.33116834544096" lon="11.28697241591279"><ele>305.3333333333333</ele><time>2026-04-06T14:55:31.999Z</time></trkpt><trkpt lat="43.331153864527636" lon="11.2867552841397"><ele>306.6666666666667</ele><time>2026-04-06T14:55:32.999Z</time></trkpt><trkpt lat="43.33115794632257" lon="11.286529135728383"><ele>308.0</ele><time>2026-04-06T14:55:33.999Z</time></trkpt><trkpt lat="43.33116540262" lon="11.286316336673165"><ele>310.0</ele><time>2026-04-06T14:55:34.999Z</time></trkpt><trkpt lat="43.33116294333236" lon="11.286124458765578"><ele>312.0</ele><time>2026-04-06T14:55:35.999Z</time></trkpt><trkpt lat="43.331145589030484" lon="11.285927728750227"><ele>314.0</ele><time>2026-04-06T14:55:36.999Z</time></trkpt><trkpt lat="43.33113879122079" lon="11.285727819829985"><ele>316.0</ele><time>2026-04-06T14:55:37.999Z</time></trkpt><trkpt lat="43.331138359406495" lon="11.285518829578132"><ele>316.75</ele><time>2026-04-06T14:55:38.999Z</time></trkpt><trkpt lat="43.331139899966026" lon="11.285323986342124"><ele>317.5</ele><time>2026-04-06T14:55:39.999Z</time></trkpt><trkpt lat="43.33113552005767" lon="11.285119898848507"><ele>318.25</ele><time>2026-04-06T14:55:40.999Z</time></trkpt><trkpt lat="43.33113046700766" lon="11.28492402880836"><ele>319.0</ele><time>2026-04-06T14:55:41.999Z</time></trkpt><trkpt lat="43.33112698415617" lon="11.284743322840166"><ele>319.25</ele><time>2026-04-06T14:55:42.999Z</time></trkpt><trkpt lat="43.33113040228336" lon="11.284552969189988"><ele>319.5</ele><time>2026-04-06T14:55:43.999Z</time></trkpt><trkpt lat="43.33115304686351" lon="11.284360128669588"><ele>319.75</ele><time>2026-04-06T14:55:44.999Z</time></trkpt><trkpt lat="43.331202903600335" lon="11.284157468106795"><ele>320.0</ele><time>2026-04-06T14:55:45.999Z</time></trkpt><trkpt lat="43.3312446411472" lon="11.28396241184885"><ele>320.0</ele><time>2026-04-06T14:55:46.999Z</time></trkpt><trkpt lat="43.33129478960242" lon="11.28378231771662"><ele>320.0</ele><time>2026-04-06T14:55:47.999Z</time></trkpt><trkpt lat="43.33134680334844" lon="11.28361003123925"><ele>320.0</ele><time>2026-04-06T14:55:48.999Z</time></trkpt><trkpt lat="43.33140408794968" lon="11.283446066423458"><ele>320.0</ele><time>2026-04-06T14:55:49.999Z</time></trkpt><trkpt lat="43.33145917573162" lon="11.283285365415354"><ele>320.0</ele><time>2026-04-06T14:55:50.999Z</time></trkpt><trkpt lat="43.33151783538539" lon="11.283115853344832"><ele>320.0</ele><time>2026-04-06T14:55:51.999Z</time></trkpt><trkpt lat="43.331577428082085" lon="11.282943011621738"><ele>320.0</ele><time>2026-04-06T14:55:52.999Z</time></trkpt><trkpt lat="43.33162746115243" lon="11.28279280215378"><ele>320.0</ele><time>2026-04-06T14:55:53.999Z</time></trkpt><trkpt lat="43.33167735008262" lon="11.282643025312641"><ele>321.0</ele><time>2026-04-06T14:55:54.999Z</time></trkpt><trkpt lat="43.33171608485938" lon="11.282526735646256"><ele>322.0</ele><time>2026-04-06T14:55:55.999Z</time></trkpt><trkpt lat="43.331756520536" lon="11.282406536535461"><ele>323.0</ele><time>2026-04-06T14:55:56.999Z</time></trkpt><trkpt lat="43.33178445310087" lon="11.282328020112141"><ele>324.0</ele><time>2026-04-06T14:55:57.998Z</time></trkpt><trkpt lat="43.33182942135305" lon="11.28222211188155"><ele>325.0</ele><time>2026-04-06T14:55:59.998Z</time></trkpt><trkpt lat="43.331884395031715" lon="11.282043566898096"><ele>326.0</ele><time>2026-04-06T14:56:02.998Z</time></trkpt><trkpt lat="43.331831598480655" lon="11.282197797510175"><ele>327.0</ele><time>2026-04-06T14:56:05.998Z</time></trkpt><trkpt lat="43.33188658163704" lon="11.282146683716473"><ele>328.0</ele><time>2026-04-06T14:56:16.998Z</time></trkpt><trkpt lat="43.3317618526193" lon="11.282074581485652"><ele>329.0</ele><time>2026-04-06T14:56:19.998Z</time></trkpt><trkpt lat="43.33169189831843" lon="11.282121847065453"><ele>330.0</ele><time>2026-04-06T14:56:20.998Z</time></trkpt><trkpt lat="43.331622273703616" lon="11.282178554633598"><ele>330.0</ele><time>2026-04-06T14:56:21.998Z</time></trkpt><trkpt lat="43.33155412953994" lon="11.282231496248752"><ele>330.0</ele><time>2026-04-06T14:56:22.998Z</time></trkpt><trkpt lat="43.331482876208796" lon="11.282260397653541"><ele>330.0</ele><time>2026-04-06T14:56:23.998Z</time></trkpt><trkpt lat="43.33141433541721" lon="11.282283849466825"><ele>330.0</ele><time>2026-04-06T14:56:24.998Z</time></trkpt><trkpt lat="43.33131934219029" lon="11.282294006722207"><ele>330.0</ele><time>2026-04-06T14:56:25.998Z</time></trkpt><trkpt lat="43.33121565013968" lon="11.282295667909587"><ele>330.0</ele><time>2026-04-06T14:56:26.998Z</time></trkpt><trkpt lat="43.33110862621349" lon="11.282306554032015"><ele>328.0</ele><time>2026-04-06T14:56:27.998Z</time></trkpt><trkpt lat="43.331004392530076" lon="11.282318250451675"><ele>326.0</ele><time>2026-04-06T14:56:28.998Z</time></trkpt><trkpt lat="43.3308753395653" lon="11.282315358479035"><ele>324.0</ele><time>2026-04-06T14:56:29.998Z</time></trkpt><trkpt lat="43.33074798636619" lon="11.282340584271019"><ele>322.0</ele><time>2026-04-06T14:56:30.998Z</time></trkpt><trkpt lat="43.33062367834561" lon="11.282386699683396"><ele>320.5</ele><time>2026-04-06T14:56:31.998Z</time></trkpt><trkpt lat="43.33050398408459" lon="11.28241586937953"><ele>319.0</ele><time>2026-04-06T14:56:32.998Z</time></trkpt><trkpt lat="43.33037452525038" lon="11.282440364858981"><ele>317.5</ele><time>2026-04-06T14:56:33.998Z</time></trkpt><trkpt lat="43.33023773248098" lon="11.282460049093253"><ele>316.0</ele><time>2026-04-06T14:56:34.998Z</time></trkpt><trkpt lat="43.33010625051958" lon="11.282481837926346"><ele>316.0</ele><time>2026-04-06T14:56:35.998Z</time></trkpt><trkpt lat="43.329993781762354" lon="11.282509856462465"><ele>316.0</ele><time>2026-04-06T14:56:36.998Z</time></trkpt><trkpt lat="43.329856543261904" lon="11.282522596104041"><ele>316.0</ele><time>2026-04-06T14:56:37.998Z</time></trkpt><trkpt lat="43.32973627312673" lon="11.282549646794845"><ele>316.0</ele><time>2026-04-06T14:56:38.998Z</time></trkpt><trkpt lat="43.329602104379674" lon="11.28260886256325"><ele>314.25</ele><time>2026-04-06T14:56:39.998Z</time></trkpt><trkpt lat="43.32946306639429" lon="11.282668960890875"><ele>312.5</ele><time>2026-04-06T14:56:40.998Z</time></trkpt><trkpt lat="43.329353179914506" lon="11.282714451332948"><ele>310.75</ele><time>2026-04-06T14:56:41.998Z</time></trkpt><trkpt lat="43.32923403923621" lon="11.282763591734776"><ele>309.0</ele><time>2026-04-06T14:56:42.998Z</time></trkpt><trkpt lat="43.32910324807792" lon="11.282814285220388"><ele>309.0</ele><time>2026-04-06T14:56:44Z</time></trkpt><trkpt lat="43.328988545934585" lon="11.282837430225477"><ele>309.0</ele><time>2026-04-06T14:56:45Z</time></trkpt><trkpt lat="43.328869647330194" lon="11.28289838047169"><ele>309.0</ele><time>2026-04-06T14:56:46Z</time></trkpt><trkpt lat="43.328723778190124" lon="11.282944775238066"><ele>309.0</ele><time>2026-04-06T14:56:47Z</time></trkpt><trkpt lat="43.32856611652809" lon="11.283024592610035"><ele>307.0</ele><time>2026-04-06T14:56:48Z</time></trkpt><trkpt lat="43.32840832684819" lon="11.283102370725427"><ele>305.0</ele><time>2026-04-06T14:56:49Z</time></trkpt><trkpt lat="43.328304767621425" lon="11.283143095762297"><ele>303.0</ele><time>2026-04-06T14:56:50Z</time></trkpt><trkpt lat="43.328220225830044" lon="11.283209021570974"><ele>301.0</ele><time>2026-04-06T14:56:51Z</time></trkpt><trkpt lat="43.3280973568482" lon="11.283317756387012"><ele>299.0</ele><time>2026-04-06T14:56:52Z</time></trkpt><trkpt lat="43.32797960696656" lon="11.28340872209524"><ele>297.0</ele><time>2026-04-06T14:56:53Z</time></trkpt><trkpt lat="43.3278561253305" lon="11.283498438140029"><ele>295.0</ele><time>2026-04-06T14:56:54Z</time></trkpt><trkpt lat="43.32769474117593" lon="11.283519579938181"><ele>293.0</ele><time>2026-04-06T14:56:55Z</time></trkpt><trkpt lat="43.32750778592389" lon="11.28347753464702"><ele>293.0</ele><time>2026-04-06T14:56:56Z</time></trkpt><trkpt lat="43.327401746035676" lon="11.283392557045932"><ele>293.0</ele><time>2026-04-06T14:56:57Z</time></trkpt><trkpt lat="43.32728624886925" lon="11.283324128169074"><ele>293.0</ele><time>2026-04-06T14:56:58Z</time></trkpt><trkpt lat="43.3271931262248" lon="11.283262013055047"><ele>293.0</ele><time>2026-04-06T14:56:59Z</time></trkpt><trkpt lat="43.327098295046596" lon="11.283200574344336"><ele>293.5</ele><time>2026-04-06T14:57:00Z</time></trkpt><trkpt lat="43.326976210482044" lon="11.283116708797191"><ele>294.0</ele><time>2026-04-06T14:57:01Z</time></trkpt><trkpt lat="43.326848859690095" lon="11.283029523998339"><ele>294.5</ele><time>2026-04-06T14:57:02Z</time></trkpt><trkpt lat="43.32672915888047" lon="11.282947390462276"><ele>295.0</ele><time>2026-04-06T14:57:04Z</time></trkpt><trkpt lat="43.32660477843365" lon="11.282863995416694"><ele>295.0</ele><time>2026-04-06T14:57:05Z</time></trkpt><trkpt lat="43.32647406650099" lon="11.282776355287686"><ele>295.0</ele><time>2026-04-06T14:57:06Z</time></trkpt><trkpt lat="43.32635550151941" lon="11.28269685946867"><ele>295.0</ele><time>2026-04-06T14:57:07Z</time></trkpt><trkpt lat="43.32624005289391" lon="11.282614599656158"><ele>295.0</ele><time>2026-04-06T14:57:08Z</time></trkpt><trkpt lat="43.326161543299214" lon="11.282566870925722"><ele>296.66666666666663</ele><time>2026-04-06T14:57:09Z</time></trkpt><trkpt lat="43.32608102866864" lon="11.282532991709257"><ele>298.3333333333333</ele><time>2026-04-06T14:57:10Z</time></trkpt><trkpt lat="43.32598630347625" lon="11.282529138770443"><ele>300.0</ele><time>2026-04-06T14:57:11Z</time></trkpt><trkpt lat="43.32590658837429" lon="11.282507621700665"><ele>301.6666666666667</ele><time>2026-04-06T14:57:12Z</time></trkpt><trkpt lat="43.325822468596066" lon="11.282512302324406"><ele>303.33333333333337</ele><time>2026-04-06T14:57:13.999Z</time></trkpt><trkpt lat="43.32572623965341" lon="11.28251407850696"><ele>305.0</ele><time>2026-04-06T14:57:15.999Z</time></trkpt><trkpt lat="43.32565904831981" lon="11.282489508526822"><ele>305.0</ele><time>2026-04-06T14:57:16.999Z</time></trkpt><trkpt lat="43.325566665432696" lon="11.282485935758505"><ele>305.0</ele><time>2026-04-06T14:57:17.999Z</time></trkpt><trkpt lat="43.32546471878431" lon="11.282468434473778"><ele>305.0</ele><time>2026-04-06T14:57:18.999Z</time></trkpt><trkpt lat="43.325347088540305" lon="11.282409087087869"><ele>305.0</ele><time>2026-04-06T14:57:19.999Z</time></trkpt><trkpt lat="43.32522399975501" lon="11.282352665518838"><ele>302.6666666666667</ele><time>2026-04-06T14:57:20.999Z</time></trkpt><trkpt lat="43.325066458246205" lon="11.282307419328049"><ele>300.3333333333333</ele><time>2026-04-06T14:57:21.999Z</time></trkpt><trkpt lat="43.32492030827073" lon="11.282249834182227"><ele>298.0</ele><time>2026-04-06T14:57:22.999Z</time></trkpt><trkpt lat="43.324784449316915" lon="11.282195426592331"><ele>294.3333333333333</ele><time>2026-04-06T14:57:23.999Z</time></trkpt><trkpt lat="43.324632543228105" lon="11.282135031567169"><ele>290.6666666666667</ele><time>2026-04-06T14:57:24.999Z</time></trkpt><trkpt lat="43.32448030245011" lon="11.282075186680862"><ele>287.0</ele><time>2026-04-06T14:57:25.999Z</time></trkpt><trkpt lat="43.32431842676195" lon="11.28199368874013"><ele>287.0</ele><time>2026-04-06T14:57:26.999Z</time></trkpt><trkpt lat="43.32415430760487" lon="11.281897666716992"><ele>287.0</ele><time>2026-04-06T14:57:27.999Z</time></trkpt><trkpt lat="43.32400474383023" lon="11.281802876120356"><ele>287.0</ele><time>2026-04-06T14:57:28.999Z</time></trkpt><trkpt lat="43.32385481893857" lon="11.281708527081992"><ele>285.33333333333337</ele><time>2026-04-06T14:57:29.999Z</time></trkpt><trkpt lat="43.323691782991745" lon="11.281615888384703"><ele>283.6666666666667</ele><time>2026-04-06T14:57:30.999Z</time></trkpt><trkpt lat="43.32352757325541" lon="11.281530871579102"><ele>282.0</ele><time>2026-04-06T14:57:31.999Z</time></trkpt><trkpt lat="43.32335817657795" lon="11.281457248585083"><ele>282.0</ele><time>2026-04-06T14:57:32.999Z</time></trkpt><trkpt lat="43.323184667079445" lon="11.28138684942836"><ele>282.0</ele><time>2026-04-06T14:57:33.999Z</time></trkpt><trkpt lat="43.3230094389818" lon="11.281313489588182"><ele>282.0</ele><time>2026-04-06T14:57:34.999Z</time></trkpt><trkpt lat="43.322840697692016" lon="11.281220495204117"><ele>282.0</ele><time>2026-04-06T14:57:35.999Z</time></trkpt><trkpt lat="43.322680378944966" lon="11.28110699435848"><ele>282.0</ele><time>2026-04-06T14:57:36.999Z</time></trkpt><trkpt lat="43.32253481447793" lon="11.280989923950111"><ele>282.0</ele><time>2026-04-06T14:57:37.999Z</time></trkpt><trkpt lat="43.32239120836371" lon="11.280874428560466"><ele>282.0</ele><time>2026-04-06T14:57:38.999Z</time></trkpt><trkpt lat="43.322249109883366" lon="11.280768212213165"><ele>282.0</ele><time>2026-04-06T14:57:39.999Z</time></trkpt><trkpt lat="43.32210437979583" lon="11.28067878641044"><ele>282.0</ele><time>2026-04-06T14:57:40.999Z</time></trkpt><trkpt lat="43.32195634209114" lon="11.280608793644275"><ele>283.75</ele><time>2026-04-06T14:57:41.999Z</time></trkpt><trkpt lat="43.321810587408685" lon="11.28054549158576"><ele>285.5</ele><time>2026-04-06T14:57:42.999Z</time></trkpt><trkpt lat="43.321672775740915" lon="11.280489020383067"><ele>287.25</ele><time>2026-04-06T14:57:43.999Z</time></trkpt><trkpt lat="43.32154359298294" lon="11.280436085056541"><ele>289.0</ele><time>2026-04-06T14:57:44.999Z</time></trkpt><trkpt lat="43.32142919282874" lon="11.280366104758292"><ele>290.0</ele><time>2026-04-06T14:57:45.999Z</time></trkpt><trkpt lat="43.321316163585095" lon="11.280334205376544"><ele>291.0</ele><time>2026-04-06T14:57:46.999Z</time></trkpt><trkpt lat="43.321221924468965" lon="11.280295890772418"><ele>292.0</ele><time>2026-04-06T14:57:47.999Z</time></trkpt><trkpt lat="43.32114588465529" lon="11.28025889645382"><ele>293.0</ele><time>2026-04-06T14:57:48.999Z</time></trkpt><trkpt lat="43.32103395548124" lon="11.280250142281709"><ele>294.0</ele><time>2026-04-06T14:57:50.999Z</time></trkpt><trkpt lat="43.32094066142554" lon="11.280241912242671"><ele>294.0</ele><time>2026-04-06T14:57:52.999Z</time></trkpt><trkpt lat="43.320839391314834" lon="11.280302536104946"><ele>294.0</ele><time>2026-04-06T14:57:54.999Z</time></trkpt><trkpt lat="43.32072998421561" lon="11.280421148078313"><ele>294.0</ele><time>2026-04-06T14:57:56.999Z</time></trkpt><trkpt lat="43.320664229353795" lon="11.280496834038175"><ele>294.0</ele><time>2026-04-06T14:57:57.999Z</time></trkpt><trkpt lat="43.32063070819587" lon="11.280637370009602"><ele>294.0</ele><time>2026-04-06T14:57:58.999Z</time></trkpt><trkpt lat="43.320580333950474" lon="11.280782463946712"><ele>292.75</ele><time>2026-04-06T14:57:59.999Z</time></trkpt><trkpt lat="43.32053233349285" lon="11.280933950101504"><ele>291.5</ele><time>2026-04-06T14:58:00.999Z</time></trkpt><trkpt lat="43.32048599170068" lon="11.281080878184126"><ele>290.25</ele><time>2026-04-06T14:58:01.999Z</time></trkpt><trkpt lat="43.32043942383595" lon="11.28122843099463"><ele>289.0</ele><time>2026-04-06T14:58:02.999Z</time></trkpt><trkpt lat="43.320389978436694" lon="11.281383907614565"><ele>290.0</ele><time>2026-04-06T14:58:03.999Z</time></trkpt><trkpt lat="43.32033923575443" lon="11.281544178715766"><ele>291.0</ele><time>2026-04-06T14:58:04.999Z</time></trkpt><trkpt lat="43.32028508014539" lon="11.281708213011388"><ele>292.0</ele><time>2026-04-06T14:58:05.999Z</time></trkpt><trkpt lat="43.320227820894495" lon="11.281870249790193"><ele>293.0</ele><time>2026-04-06T14:58:06.999Z</time></trkpt><trkpt lat="43.320158800559255" lon="11.282032887387713"><ele>293.0</ele><time>2026-04-06T14:58:07.999Z</time></trkpt><trkpt lat="43.320082706642566" lon="11.282191798919403"><ele>293.0</ele><time>2026-04-06T14:58:08.999Z</time></trkpt><trkpt lat="43.32000189365699" lon="11.282349323951085"><ele>293.0</ele><time>2026-04-06T14:58:09.999Z</time></trkpt><trkpt lat="43.319904443691726" lon="11.282493793703486"><ele>293.0</ele><time>2026-04-06T14:58:10.998Z</time></trkpt><trkpt lat="43.31982075951571" lon="11.282656864487901"><ele>294.25</ele><time>2026-04-06T14:58:11.998Z</time></trkpt><trkpt lat="43.31974934144175" lon="11.282825658222434"><ele>295.5</ele><time>2026-04-06T14:58:12.998Z</time></trkpt><trkpt lat="43.319669326000295" lon="11.282993457834053"><ele>296.75</ele><time>2026-04-06T14:58:13.998Z</time></trkpt><trkpt lat="43.31959055058505" lon="11.283168789908155"><ele>298.0</ele><time>2026-04-06T14:58:14.998Z</time></trkpt><trkpt lat="43.31950812566371" lon="11.283342541250821"><ele>299.66666666666663</ele><time>2026-04-06T14:58:15.998Z</time></trkpt><trkpt lat="43.31941876335608" lon="11.283518260299234"><ele>301.3333333333333</ele><time>2026-04-06T14:58:16.998Z</time></trkpt><trkpt lat="43.319338110654236" lon="11.283698220050049"><ele>303.0</ele><time>2026-04-06T14:58:17.998Z</time></trkpt><trkpt lat="43.31925235558896" lon="11.283877388694943"><ele>304.5</ele><time>2026-04-06T14:58:18.998Z</time></trkpt><trkpt lat="43.31917173421594" lon="11.284052273381544"><ele>306.0</ele><time>2026-04-06T14:58:19.998Z</time></trkpt><trkpt lat="43.31909710047399" lon="11.284216209964427"><ele>307.5</ele><time>2026-04-06T14:58:20.998Z</time></trkpt><trkpt lat="43.31902313357519" lon="11.284364671012721"><ele>309.0</ele><time>2026-04-06T14:58:21.998Z</time></trkpt><trkpt lat="43.318926276279456" lon="11.284492048705667"><ele>308.5</ele><time>2026-04-06T14:58:22.998Z</time></trkpt><trkpt lat="43.31882368485644" lon="11.284591636911353"><ele>308.0</ele><time>2026-04-06T14:58:23.998Z</time></trkpt><trkpt lat="43.31871517733279" lon="11.284675197036291"><ele>307.5</ele><time>2026-04-06T14:58:24.998Z</time></trkpt><trkpt lat="43.318603741408076" lon="11.28470562060929"><ele>307.0</ele><time>2026-04-06T14:58:25.998Z</time></trkpt><trkpt lat="43.31849151402577" lon="11.284754438927022"><ele>308.5</ele><time>2026-04-06T14:58:26.998Z</time></trkpt><trkpt lat="43.3183778718791" lon="11.28480411352787"><ele>310.0</ele><time>2026-04-06T14:58:27.998Z</time></trkpt><trkpt lat="43.3182519754087" lon="11.284860016074319"><ele>311.5</ele><time>2026-04-06T14:58:28.998Z</time></trkpt><trkpt lat="43.31813480884398" lon="11.284915410308272"><ele>313.0</ele><time>2026-04-06T14:58:29.998Z</time></trkpt><trkpt lat="43.31802265393664" lon="11.284969984541087"><ele>313.25</ele><time>2026-04-06T14:58:30.998Z</time></trkpt><trkpt lat="43.317893393009136" lon="11.285032882525712"><ele>313.5</ele><time>2026-04-06T14:58:31.998Z</time></trkpt><trkpt lat="43.31776513432537" lon="11.285095294452415"><ele>313.75</ele><time>2026-04-06T14:58:32.998Z</time></trkpt><trkpt lat="43.31763475741586" lon="11.285158735417872"><ele>314.0</ele><time>2026-04-06T14:58:33.998Z</time></trkpt><trkpt lat="43.317507341781166" lon="11.285220346902028"><ele>314.0</ele><time>2026-04-06T14:58:34.998Z</time></trkpt><trkpt lat="43.317381210605845" lon="11.285281203860395"><ele>314.0</ele><time>2026-04-06T14:58:35.998Z</time></trkpt><trkpt lat="43.317255508005296" lon="11.285341854034407"><ele>314.0</ele><time>2026-04-06T14:58:36.998Z</time></trkpt><trkpt lat="43.31712744291552" lon="11.285403552493468"><ele>314.0</ele><time>2026-04-06T14:58:37.998Z</time></trkpt><trkpt lat="43.31700732520309" lon="11.285482277038096"><ele>314.5</ele><time>2026-04-06T14:58:38.998Z</time></trkpt><trkpt lat="43.31687852891276" lon="11.285545516938853"><ele>315.0</ele><time>2026-04-06T14:58:39.998Z</time></trkpt><trkpt lat="43.316748687704745" lon="11.28559029786355"><ele>315.5</ele><time>2026-04-06T14:58:40.998Z</time></trkpt><trkpt lat="43.316623893441" lon="11.285662494145113"><ele>316.0</ele><time>2026-04-06T14:58:41.998Z</time></trkpt><trkpt lat="43.316501769495716" lon="11.285743412747518"><ele>320.25</ele><time>2026-04-06T14:58:42.998Z</time></trkpt><trkpt lat="43.316393929484704" lon="11.285853998365685"><ele>324.5</ele><time>2026-04-06T14:58:43.998Z</time></trkpt><trkpt lat="43.31627934000527" lon="11.285941002642076"><ele>328.75</ele><time>2026-04-06T14:58:44.998Z</time></trkpt><trkpt lat="43.31616375209632" lon="11.286030804071718"><ele>333.0</ele><time>2026-04-06T14:58:45.998Z</time></trkpt><trkpt lat="43.31605144012045" lon="11.286116844332877"><ele>333.0</ele><time>2026-04-06T14:58:46.998Z</time></trkpt><trkpt lat="43.315940215771846" lon="11.286193576669563"><ele>333.0</ele><time>2026-04-06T14:58:47.998Z</time></trkpt><trkpt lat="43.31583363684629" lon="11.286266075257505"><ele>333.0</ele><time>2026-04-06T14:58:48.998Z</time></trkpt><trkpt lat="43.3157244235864" lon="11.286342641259738"><ele>333.0</ele><time>2026-04-06T14:58:50Z</time></trkpt><trkpt lat="43.31562775664789" lon="11.286417611226964"><ele>334.59999999999997</ele><time>2026-04-06T14:58:51Z</time></trkpt><trkpt lat="43.31553919491909" lon="11.286495805663783"><ele>336.2</ele><time>2026-04-06T14:58:52Z</time></trkpt><trkpt lat="43.31543742281497" lon="11.286527002069976"><ele>337.8</ele><time>2026-04-06T14:58:53Z</time></trkpt><trkpt lat="43.31533053188642" lon="11.28656210992649"><ele>339.4</ele><time>2026-04-06T14:58:54Z</time></trkpt><trkpt lat="43.31522546119687" lon="11.286591337953633"><ele>341.0</ele><time>2026-04-06T14:58:55Z</time></trkpt><trkpt lat="43.31512036011281" lon="11.286616137900735"><ele>341.0</ele><time>2026-04-06T14:58:56Z</time></trkpt><trkpt lat="43.315022525811216" lon="11.286633835360504"><ele>341.0</ele><time>2026-04-06T14:58:57Z</time></trkpt><trkpt lat="43.31492479541625" lon="11.286651842242298"><ele>341.0</ele><time>2026-04-06T14:58:58Z</time></trkpt><trkpt lat="43.314827668832706" lon="11.286675229418709"><ele>341.0</ele><time>2026-04-06T14:58:59Z</time></trkpt><trkpt lat="43.314733914172145" lon="11.28669382537656"><ele>341.0</ele><time>2026-04-06T14:59:00Z</time></trkpt><trkpt lat="43.314631507185524" lon="11.286802239985944"><ele>343.8</ele><time>2026-04-06T14:59:01Z</time></trkpt><trkpt lat="43.31455850451437" lon="11.286883832022278"><ele>346.6</ele><time>2026-04-06T14:59:02Z</time></trkpt><trkpt lat="43.31447795205989" lon="11.286971998962622"><ele>349.4</ele><time>2026-04-06T14:59:03Z</time></trkpt><trkpt lat="43.31439450776871" lon="11.287079120858476"><ele>352.2</ele><time>2026-04-06T14:59:04Z</time></trkpt><trkpt lat="43.314324921412364" lon="11.287172270149517"><ele>355.0</ele><time>2026-04-06T14:59:05Z</time></trkpt><trkpt lat="43.31424527877923" lon="11.287259590257603"><ele>354.8333333333333</ele><time>2026-04-06T14:59:06Z</time></trkpt><trkpt lat="43.314156221732986" lon="11.287339333190298"><ele>354.66666666666663</ele><time>2026-04-06T14:59:07Z</time></trkpt><trkpt lat="43.31408019957321" lon="11.287418610553896"><ele>354.5</ele><time>2026-04-06T14:59:08Z</time></trkpt><trkpt lat="43.314016132755135" lon="11.287500965099227"><ele>354.3333333333333</ele><time>2026-04-06T14:59:09Z</time></trkpt><trkpt lat="43.31395281648867" lon="11.287581594989549"><ele>354.1666666666667</ele><time>2026-04-06T14:59:10Z</time></trkpt><trkpt lat="43.313902975471464" lon="11.287652737811197"><ele>354.0</ele><time>2026-04-06T14:59:11Z</time></trkpt><trkpt lat="43.31381650176295" lon="11.28774428802387"><ele>355.5</ele><time>2026-04-06T14:59:13Z</time></trkpt><trkpt lat="43.31377939738306" lon="11.287814714146034"><ele>357.0</ele><time>2026-04-06T14:59:16Z</time></trkpt><trkpt lat="43.31376441336477" lon="11.287703642935696"><ele>358.5</ele><time>2026-04-06T14:59:19Z</time></trkpt><trkpt lat="43.31375171405034" lon="11.287524549997144"><ele>360.0</ele><time>2026-04-06T14:59:21Z</time></trkpt><trkpt lat="43.31374254745295" lon="11.287408639973693"><ele>361.5</ele><time>2026-04-06T14:59:21.999Z</time></trkpt><trkpt lat="43.313732639429674" lon="11.287297699955444"><ele>363.0</ele><time>2026-04-06T14:59:22.999Z</time></trkpt><trkpt lat="43.31372010342647" lon="11.287199061911103"><ele>363.0</ele><time>2026-04-06T14:59:23.999Z</time></trkpt><trkpt lat="43.31370083917973" lon="11.287107260287037"><ele>363.0</ele><time>2026-04-06T14:59:24.999Z</time></trkpt><trkpt lat="43.313652200120686" lon="11.286956984447196"><ele>363.0</ele><time>2026-04-06T14:59:26.999Z</time></trkpt><trkpt lat="43.3136133632437" lon="11.286881335725429"><ele>363.0</ele><time>2026-04-06T14:59:27.999Z</time></trkpt><trkpt lat="43.31358689958013" lon="11.286768065766625"><ele>363.0</ele><time>2026-04-06T14:59:28.999Z</time></trkpt><trkpt lat="43.31354713492847" lon="11.28665609707024"><ele>363.0</ele><time>2026-04-06T14:59:29.999Z</time></trkpt><trkpt lat="43.31350034777535" lon="11.286539972962041"><ele>363.0</ele><time>2026-04-06T14:59:30.999Z</time></trkpt><trkpt lat="43.31343991602415" lon="11.286440975769658"><ele>363.0</ele><time>2026-04-06T14:59:31.999Z</time></trkpt><trkpt lat="43.313399525817736" lon="11.286329415470716"><ele>363.0</ele><time>2026-04-06T14:59:32.999Z</time></trkpt><trkpt lat="43.31336068568914" lon="11.28622360215678"><ele>363.0</ele><time>2026-04-06T14:59:33.999Z</time></trkpt><trkpt lat="43.31331730804147" lon="11.286121047347937"><ele>363.0</ele><time>2026-04-06T14:59:34.999Z</time></trkpt><trkpt lat="43.31327660368824" lon="11.286008520666485"><ele>363.0</ele><time>2026-04-06T14:59:35.999Z</time></trkpt><trkpt lat="43.31324324021834" lon="11.285878442889896"><ele>362.0</ele><time>2026-04-06T14:59:36.999Z</time></trkpt><trkpt lat="43.31323134283827" lon="11.285751672460508"><ele>361.0</ele><time>2026-04-06T14:59:37.999Z</time></trkpt><trkpt lat="43.3132229110458" lon="11.285619911120559"><ele>360.0</ele><time>2026-04-06T14:59:38.999Z</time></trkpt><trkpt lat="43.31320814478737" lon="11.285480432051601"><ele>359.0</ele><time>2026-04-06T14:59:39.999Z</time></trkpt><trkpt lat="43.3131943769262" lon="11.285333090054703"><ele>358.0</ele><time>2026-04-06T14:59:40.999Z</time></trkpt><trkpt lat="43.313175705428016" lon="11.285186613624838"><ele>357.59999999999997</ele><time>2026-04-06T14:59:41.999Z</time></trkpt><trkpt lat="43.313152687801924" lon="11.285044536340097"><ele>357.2</ele><time>2026-04-06T14:59:42.999Z</time></trkpt><trkpt lat="43.31312176657511" lon="11.28490767958571"><ele>356.8</ele><time>2026-04-06T14:59:43.999Z</time></trkpt><trkpt lat="43.31308647446966" lon="11.284780760804212"><ele>356.4</ele><time>2026-04-06T14:59:44.999Z</time></trkpt><trkpt lat="43.31304134547645" lon="11.284665033421073"><ele>356.0</ele><time>2026-04-06T14:59:45.999Z</time></trkpt><trkpt lat="43.31298946065191" lon="11.284568390171343"><ele>356.0</ele><time>2026-04-06T14:59:46.999Z</time></trkpt><trkpt lat="43.312936857312295" lon="11.284502206860767"><ele>356.0</ele><time>2026-04-06T14:59:47.999Z</time></trkpt><trkpt lat="43.312882476452046" lon="11.284457104254649"><ele>356.0</ele><time>2026-04-06T14:59:48.999Z</time></trkpt><trkpt lat="43.312762506604244" lon="11.284404663269667"><ele>356.0</ele><time>2026-04-06T14:59:50.999Z</time></trkpt><trkpt lat="43.312687068176174" lon="11.284432290353394"><ele>356.0</ele><time>2026-04-06T14:59:51.999Z</time></trkpt><trkpt lat="43.312607453695584" lon="11.28444781420272"><ele>356.0</ele><time>2026-04-06T14:59:52.999Z</time></trkpt><trkpt lat="43.31251273805232" lon="11.284459007704987"><ele>356.0</ele><time>2026-04-06T14:59:53.999Z</time></trkpt><trkpt lat="43.3124332098505" lon="11.284471571290428"><ele>356.0</ele><time>2026-04-06T14:59:54.999Z</time></trkpt><trkpt lat="43.312334450066984" lon="11.28449963772166"><ele>356.0</ele><time>2026-04-06T14:59:55.999Z</time></trkpt><trkpt lat="43.312238580070556" lon="11.284535680945586"><ele>356.0</ele><time>2026-04-06T14:59:56.999Z</time></trkpt><trkpt lat="43.31213416922743" lon="11.2845587258818"><ele>356.0</ele><time>2026-04-06T14:59:57.999Z</time></trkpt><trkpt lat="43.312014328697934" lon="11.284587894767393"><ele>357.0</ele><time>2026-04-06T14:59:58.999Z</time></trkpt><trkpt lat="43.31190887187182" lon="11.284604863039862"><ele>358.0</ele><time>2026-04-06T14:59:59.999Z</time></trkpt><trkpt lat="43.31180828983341" lon="11.284624056004578"><ele>359.0</ele><time>2026-04-06T15:00:00.999Z</time></trkpt><trkpt lat="43.311720261319046" lon="11.284653043558796"><ele>360.0</ele><time>2026-04-06T15:00:01.999Z</time></trkpt><trkpt lat="43.3116462065006" lon="11.284690335573503"><ele>361.0</ele><time>2026-04-06T15:00:02.999Z</time></trkpt><trkpt lat="43.31156899621241" lon="11.28474427910886"><ele>361.5</ele><time>2026-04-06T15:00:03.999Z</time></trkpt><trkpt lat="43.31149806527884" lon="11.284798677145158"><ele>362.0</ele><time>2026-04-06T15:00:04.999Z</time></trkpt><trkpt lat="43.311430296912235" lon="11.284862034105036"><ele>362.5</ele><time>2026-04-06T15:00:05.999Z</time></trkpt><trkpt lat="43.31136798906118" lon="11.28493901214081"><ele>363.0</ele><time>2026-04-06T15:00:06.999Z</time></trkpt><trkpt lat="43.31131410140664" lon="11.285019735999041"><ele>363.5</ele><time>2026-04-06T15:00:07.999Z</time></trkpt><trkpt lat="43.31124960151377" lon="11.28511698303767"><ele>364.0</ele><time>2026-04-06T15:00:08.999Z</time></trkpt><trkpt lat="43.31117916215584" lon="11.2851908925752"><ele>364.0</ele><time>2026-04-06T15:00:09.999Z</time></trkpt><trkpt lat="43.31109814117892" lon="11.285271023917009"><ele>364.0</ele><time>2026-04-06T15:00:10.999Z</time></trkpt><trkpt lat="43.31102683449176" lon="11.285342330575661"><ele>364.0</ele><time>2026-04-06T15:00:11.999Z</time></trkpt><trkpt lat="43.310954416608176" lon="11.285418055825675"><ele>364.0</ele><time>2026-04-06T15:00:12.999Z</time></trkpt><trkpt lat="43.31089004595842" lon="11.285488676529269"><ele>364.0</ele><time>2026-04-06T15:00:13.999Z</time></trkpt><trkpt lat="43.310825934727745" lon="11.285556219743482"><ele>364.0</ele><time>2026-04-06T15:00:14.999Z</time></trkpt><trkpt lat="43.31076180784776" lon="11.285613860124853"><ele>363.0</ele><time>2026-04-06T15:00:15.999Z</time></trkpt><trkpt lat="43.31069722652931" lon="11.285651220591236"><ele>362.0</ele><time>2026-04-06T15:00:16.998Z</time></trkpt><trkpt lat="43.31062167032697" lon="11.285691952325408"><ele>361.0</ele><time>2026-04-06T15:00:17.998Z</time></trkpt><trkpt lat="43.310549264781855" lon="11.285747961723487"><ele>360.0</ele><time>2026-04-06T15:00:18.998Z</time></trkpt><trkpt lat="43.31048146980377" lon="11.285820359185847"><ele>359.0</ele><time>2026-04-06T15:00:19.998Z</time></trkpt><trkpt lat="43.31036957358499" lon="11.285957260677606"><ele>359.0</ele><time>2026-04-06T15:00:21.998Z</time></trkpt><trkpt lat="43.31031617588357" lon="11.286046819284815"><ele>359.0</ele><time>2026-04-06T15:00:22.998Z</time></trkpt><trkpt lat="43.3102716718537" lon="11.286132818966024"><ele>359.0</ele><time>2026-04-06T15:00:23.998Z</time></trkpt><trkpt lat="43.31021905868849" lon="11.286221313483015"><ele>359.0</ele><time>2026-04-06T15:00:24.998Z</time></trkpt><trkpt lat="43.31016603973209" lon="11.286301615744222"><ele>359.0</ele><time>2026-04-06T15:00:25.998Z</time></trkpt><trkpt lat="43.31010805260039" lon="11.286379629081473"><ele>359.0</ele><time>2026-04-06T15:00:26.998Z</time></trkpt><trkpt lat="43.310050988033375" lon="11.286453192411557"><ele>358.1666666666667</ele><time>2026-04-06T15:00:27.998Z</time></trkpt><trkpt lat="43.30999022092871" lon="11.28652387756562"><ele>357.33333333333337</ele><time>2026-04-06T15:00:28.998Z</time></trkpt><trkpt lat="43.30992211681128" lon="11.286589370812768"><ele>356.5</ele><time>2026-04-06T15:00:29.998Z</time></trkpt><trkpt lat="43.30985017710945" lon="11.286653363841866"><ele>355.6666666666667</ele><time>2026-04-06T15:00:30.998Z</time></trkpt><trkpt lat="43.30977650738183" lon="11.286721058815495"><ele>354.8333333333333</ele><time>2026-04-06T15:00:31.998Z</time></trkpt><trkpt lat="43.30971059861731" lon="11.28679238979289"><ele>354.0</ele><time>2026-04-06T15:00:32.998Z</time></trkpt><trkpt lat="43.309653411631714" lon="11.286866125930231"><ele>353.5714285714286</ele><time>2026-04-06T15:00:33.998Z</time></trkpt><trkpt lat="43.309599763322815" lon="11.286938893910676"><ele>353.1428571428571</ele><time>2026-04-06T15:00:34.998Z</time></trkpt><trkpt lat="43.309549053208116" lon="11.287007400773915"><ele>352.7142857142857</ele><time>2026-04-06T15:00:35.998Z</time></trkpt><trkpt lat="43.30949874469329" lon="11.287072128841318"><ele>352.28571428571433</ele><time>2026-04-06T15:00:36.998Z</time></trkpt><trkpt lat="43.30944845305769" lon="11.287135678793025"><ele>351.8571428571429</ele><time>2026-04-06T15:00:37.998Z</time></trkpt><trkpt lat="43.30937515665553" lon="11.287228297972327"><ele>351.42857142857144</ele><time>2026-04-06T15:00:39.998Z</time></trkpt><trkpt lat="43.30932783078806" lon="11.287289901462353"><ele>351.0</ele><time>2026-04-06T15:00:42.998Z</time></trkpt><trkpt lat="43.30926882734332" lon="11.287367166397688"><ele>351.0</ele><time>2026-04-06T15:00:45.998Z</time></trkpt><trkpt lat="43.309212127452284" lon="11.287441414833525"><ele>351.0</ele><time>2026-04-06T15:00:48.998Z</time></trkpt><trkpt lat="43.30915858349837" lon="11.287510885635173"><ele>351.0</ele><time>2026-04-06T15:00:50.998Z</time></trkpt><trkpt lat="43.30909721975376" lon="11.287589363986928"><ele>351.0</ele><time>2026-04-06T15:00:52.998Z</time></trkpt><trkpt lat="43.30904917325161" lon="11.287648973680305"><ele>351.0</ele><time>2026-04-06T15:00:55Z</time></trkpt><trkpt lat="43.30898024202205" lon="11.28773442173617"><ele>351.0</ele><time>2026-04-06T15:00:57Z</time></trkpt><trkpt lat="43.30893270421592" lon="11.28779335022205"><ele>351.3333333333333</ele><time>2026-04-06T15:00:58Z</time></trkpt><trkpt lat="43.308871527692745" lon="11.287869185444265"><ele>351.6666666666667</ele><time>2026-04-06T15:00:59Z</time></trkpt><trkpt lat="43.308814731115596" lon="11.287939591299372"><ele>352.0</ele><time>2026-04-06T15:01:00Z</time></trkpt><trkpt lat="43.30875383148817" lon="11.288020704783106"><ele>352.33333333333337</ele><time>2026-04-06T15:01:01Z</time></trkpt><trkpt lat="43.30869168631532" lon="11.288106982922985"><ele>352.6666666666667</ele><time>2026-04-06T15:01:02Z</time></trkpt><trkpt lat="43.30863800102182" lon="11.28818447159413"><ele>353.0</ele><time>2026-04-06T15:01:03Z</time></trkpt><trkpt lat="43.30858498900905" lon="11.288262475672356"><ele>353.0</ele><time>2026-04-06T15:01:04Z</time></trkpt><trkpt lat="43.30852577754615" lon="11.288350017062218"><ele>353.0</ele><time>2026-04-06T15:01:05Z</time></trkpt><trkpt lat="43.308462862291265" lon="11.288443919558544"><ele>353.0</ele><time>2026-04-06T15:01:06Z</time></trkpt><trkpt lat="43.308398624149746" lon="11.288539796594797"><ele>353.0</ele><time>2026-04-06T15:01:07Z</time></trkpt><trkpt lat="43.308332671501404" lon="11.288638232454367"><ele>353.0</ele><time>2026-04-06T15:01:08Z</time></trkpt><trkpt lat="43.308262636202734" lon="11.288758098887286"><ele>353.0</ele><time>2026-04-06T15:01:09Z</time></trkpt><trkpt lat="43.30817925815493" lon="11.288878592913903"><ele>353.0</ele><time>2026-04-06T15:01:10Z</time></trkpt><trkpt lat="43.30809268894492" lon="11.288994885543591"><ele>353.0</ele><time>2026-04-06T15:01:11Z</time></trkpt><trkpt lat="43.307996188592725" lon="11.289081358642244"><ele>353.0</ele><time>2026-04-06T15:01:12Z</time></trkpt><trkpt lat="43.307914123287354" lon="11.289177849992528"><ele>351.5</ele><time>2026-04-06T15:01:13Z</time></trkpt><trkpt lat="43.30784313186448" lon="11.28925898799337"><ele>350.0</ele><time>2026-04-06T15:01:14Z</time></trkpt><trkpt lat="43.30778239588487" lon="11.289325302431013"><ele>348.5</ele><time>2026-04-06T15:01:15Z</time></trkpt><trkpt lat="43.3077292277299" lon="11.289380012817459"><ele>347.0</ele><time>2026-04-06T15:01:16Z</time></trkpt><trkpt lat="43.30764704880306" lon="11.289445039618675"><ele>345.5</ele><time>2026-04-06T15:01:17.999Z</time></trkpt><trkpt lat="43.30758519790425" lon="11.289467132741121"><ele>344.0</ele><time>2026-04-06T15:01:19.999Z</time></trkpt><trkpt lat="43.30751320762552" lon="11.28951168468267"><ele>344.0</ele><time>2026-04-06T15:01:22.999Z</time></trkpt><trkpt lat="43.30743155921982" lon="11.289476199161252"><ele>344.0</ele><time>2026-04-06T15:01:25.999Z</time></trkpt><trkpt lat="43.30735174098821" lon="11.289484848951462"><ele>344.0</ele><time>2026-04-06T15:01:27.999Z</time></trkpt><trkpt lat="43.30725538456314" lon="11.289461754964176"><ele>344.0</ele><time>2026-04-06T15:01:29.999Z</time></trkpt><trkpt lat="43.30715080818766" lon="11.289433343054217"><ele>344.0</ele><time>2026-04-06T15:01:31.999Z</time></trkpt><trkpt lat="43.30704486549783" lon="11.28938879225148"><ele>342.83333333333337</ele><time>2026-04-06T15:01:33.999Z</time></trkpt><trkpt lat="43.306921968039276" lon="11.289400973378632"><ele>341.6666666666667</ele><time>2026-04-06T15:01:35.999Z</time></trkpt><trkpt lat="43.3068622493978" lon="11.289429344924706"><ele>340.5</ele><time>2026-04-06T15:01:36.999Z</time></trkpt><trkpt lat="43.30680950178484" lon="11.289476805925425"><ele>339.3333333333333</ele><time>2026-04-06T15:01:37.999Z</time></trkpt><trkpt lat="43.306769319110664" lon="11.28955791655287"><ele>338.16666666666663</ele><time>2026-04-06T15:01:38.999Z</time></trkpt><trkpt lat="43.306743186684955" lon="11.289639772488266"><ele>337.0</ele><time>2026-04-06T15:01:39.999Z</time></trkpt><trkpt lat="43.3067250977027" lon="11.289725444666642"><ele>338.8333333333333</ele><time>2026-04-06T15:01:40.999Z</time></trkpt><trkpt lat="43.30668905681038" lon="11.289890133962748"><ele>340.66666666666663</ele><time>2026-04-06T15:01:42.999Z</time></trkpt><trkpt lat="43.30667204268475" lon="11.289978030023727"><ele>342.5</ele><time>2026-04-06T15:01:43.999Z</time></trkpt><trkpt lat="43.306655348557996" lon="11.29006427295669"><ele>344.3333333333333</ele><time>2026-04-06T15:01:44.999Z</time></trkpt><trkpt lat="43.306668597273564" lon="11.290165741487405"><ele>346.1666666666667</ele><time>2026-04-06T15:01:45.999Z</time></trkpt><trkpt lat="43.30665145217566" lon="11.290259079450468"><ele>348.0</ele><time>2026-04-06T15:01:46.999Z</time></trkpt><trkpt lat="43.30662736910333" lon="11.290355686258822"><ele>348.0</ele><time>2026-04-06T15:01:47.999Z</time></trkpt><trkpt lat="43.30660342781376" lon="11.290449401961078"><ele>348.0</ele><time>2026-04-06T15:01:48.999Z</time></trkpt><trkpt lat="43.30658368583854" lon="11.29054490167572"><ele>348.0</ele><time>2026-04-06T15:01:49.999Z</time></trkpt><trkpt lat="43.30653029382106" lon="11.290622904473057"><ele>348.0</ele><time>2026-04-06T15:01:50.999Z</time></trkpt><trkpt lat="43.30650381862988" lon="11.290715155456363"><ele>348.0</ele><time>2026-04-06T15:01:51.999Z</time></trkpt><trkpt lat="43.30646976886246" lon="11.290799905508349"><ele>348.0</ele><time>2026-04-06T15:01:52.999Z</time></trkpt><trkpt lat="43.30642954219969" lon="11.290878429622115"><ele>348.0</ele><time>2026-04-06T15:01:53.999Z</time></trkpt><trkpt lat="43.306384960150204" lon="11.290950868245504"><ele>348.2</ele><time>2026-04-06T15:01:54.999Z</time></trkpt><trkpt lat="43.30633898655016" lon="11.291014839603994"><ele>348.4</ele><time>2026-04-06T15:01:55.999Z</time></trkpt><trkpt lat="43.306248389919716" lon="11.29111506892536"><ele>348.59999999999997</ele><time>2026-04-06T15:01:57.999Z</time></trkpt><trkpt lat="43.30618511200777" lon="11.29117352985519"><ele>348.79999999999995</ele><time>2026-04-06T15:01:59.999Z</time></trkpt><trkpt lat="43.30616344658525" lon="11.291380795100743"><ele>349.0</ele><time>2026-04-06T15:02:05.999Z</time></trkpt><trkpt lat="43.30620546315358" lon="11.291472293982707"><ele>349.0</ele><time>2026-04-06T15:02:08.999Z</time></trkpt><trkpt lat="43.30626595182742" lon="11.291515469474973"><ele>349.0</ele><time>2026-04-06T15:06:33.999Z</time></trkpt><trkpt lat="43.306333973853036" lon="11.291539745353937"><ele>349.0</ele><time>2026-04-06T15:06:47.998Z</time></trkpt><trkpt lat="43.30640037803847" lon="11.291571606145052"><ele>349.0</ele><time>2026-04-06T15:06:58.998Z</time></trkpt><trkpt lat="43.30647993866044" lon="11.291579213747237"><ele>349.0</ele><time>2026-04-06T15:07:09.998Z</time></trkpt><trkpt lat="43.30657656501452" lon="11.291525759146138"><ele>349.0</ele><time>2026-04-06T15:07:24Z</time></trkpt><trkpt lat="43.3066247339661" lon="11.291462959027989"><ele>350.1428571428571</ele><time>2026-04-06T15:07:34Z</time></trkpt><trkpt lat="43.3066791647974" lon="11.291395474957017"><ele>351.2857142857143</ele><time>2026-04-06T15:07:42Z</time></trkpt><trkpt lat="43.30670734262481" lon="11.291311520617192"><ele>352.42857142857144</ele><time>2026-04-06T15:07:50Z</time></trkpt><trkpt lat="43.306729504607915" lon="11.291226518106214"><ele>353.57142857142856</ele><time>2026-04-06T15:07:59.999Z</time></trkpt><trkpt lat="43.30673030068408" lon="11.291131460627874"><ele>354.7142857142857</ele><time>2026-04-06T15:08:08.999Z</time></trkpt><trkpt lat="43.30671133687561" lon="11.291038493489408"><ele>355.85714285714283</ele><time>2026-04-06T15:08:17.999Z</time></trkpt><trkpt lat="43.30671387108702" lon="11.290944790630666"><ele>357.0</ele><time>2026-04-06T15:08:24.999Z</time></trkpt><trkpt lat="43.306708270860405" lon="11.290856373310133"><ele>357.0</ele><time>2026-04-06T15:08:31.999Z</time></trkpt><trkpt lat="43.306704834707475" lon="11.290767062802633"><ele>357.0</ele><time>2026-04-06T15:08:38.999Z</time></trkpt><trkpt lat="43.30670741206194" lon="11.290678051852597"><ele>357.0</ele><time>2026-04-06T15:08:48.999Z</time></trkpt><trkpt lat="43.306720218485836" lon="11.290583241370207"><ele>357.0</ele><time>2026-04-06T15:08:58.998Z</time></trkpt><trkpt lat="43.306746736713386" lon="11.290501914511621"><ele>357.0</ele><time>2026-04-06T15:09:06.998Z</time></trkpt><trkpt lat="43.30676378836375" lon="11.290409320796593"><ele>357.0</ele><time>2026-04-06T15:09:15.998Z</time></trkpt><trkpt lat="43.30677567764355" lon="11.290318878234343"><ele>357.0</ele><time>2026-04-06T15:09:22.999Z</time></trkpt><trkpt lat="43.306785191072905" lon="11.290227323101416"><ele>355.7142857142857</ele><time>2026-04-06T15:09:30.999Z</time></trkpt><trkpt lat="43.30681424050442" lon="11.290135022987187"><ele>354.42857142857144</ele><time>2026-04-06T15:09:39.999Z</time></trkpt><trkpt lat="43.306846085436284" lon="11.290049246762988"><ele>353.1428571428571</ele><time>2026-04-06T15:09:47.999Z</time></trkpt><trkpt lat="43.3068939626955" lon="11.289990309422638"><ele>351.8571428571429</ele><time>2026-04-06T15:09:55.999Z</time></trkpt><trkpt lat="43.30696149942627" lon="11.289974617373394"><ele>350.57142857142856</ele><time>2026-04-06T15:10:03.999Z</time></trkpt><trkpt lat="43.307036095507456" lon="11.289952891920104"><ele>349.2857142857143</ele><time>2026-04-06T15:10:12.999Z</time></trkpt><trkpt lat="43.30708947685109" lon="11.290002408520946"><ele>348.0</ele><time>2026-04-06T15:10:27.999Z</time></trkpt><trkpt lat="43.307129508725986" lon="11.290072758663735"><ele>348.0</ele><time>2026-04-06T15:10:46.999Z</time></trkpt><trkpt lat="43.30709077740241" lon="11.290156728309617"><ele>348.0</ele><time>2026-04-06T15:11:24.998Z</time></trkpt><trkpt lat="43.30702859966263" lon="11.290131635157945"><ele>348.0</ele><time>2026-04-06T15:12:03.999Z</time></trkpt><trkpt lat="43.306965475376245" lon="11.290153132750286"><ele>348.0</ele><time>2026-04-06T15:12:13.999Z</time></trkpt><trkpt lat="43.306931218219624" lon="11.290231269370187"><ele>348.0</ele><time>2026-04-06T15:12:24.999Z</time></trkpt><trkpt lat="43.306910383297854" lon="11.290317444684687"><ele>348.0</ele><time>2026-04-06T15:12:33.999Z</time></trkpt><trkpt lat="43.30687669842437" lon="11.290395281611747"><ele>348.0</ele><time>2026-04-06T15:12:41.998Z</time></trkpt><trkpt lat="43.30686417950182" lon="11.29048319433463"><ele>348.0</ele><time>2026-04-06T15:12:48.998Z</time></trkpt><trkpt lat="43.30683677162926" lon="11.290563145995932"><ele>348.0</ele><time>2026-04-06T15:12:55.998Z</time></trkpt><trkpt lat="43.30683579987904" lon="11.290650963928162"><ele>348.0</ele><time>2026-04-06T15:13:02.998Z</time></trkpt><trkpt lat="43.3068450000615" lon="11.290746359754763"><ele>348.0</ele><time>2026-04-06T15:13:10.998Z</time></trkpt><trkpt lat="43.30685006231219" lon="11.290845323179976"><ele>348.0</ele><time>2026-04-06T15:13:18.998Z</time></trkpt><trkpt lat="43.306874053882225" lon="11.29092993919583"><ele>348.0</ele><time>2026-04-06T15:13:27.998Z</time></trkpt><trkpt lat="43.306910461699054" lon="11.29100743481996"><ele>348.0</ele><time>2026-04-06T15:13:36.999Z</time></trkpt><trkpt lat="43.306945135456765" lon="11.291085880910233"><ele>349.2857142857143</ele><time>2026-04-06T15:13:46.999Z</time></trkpt><trkpt lat="43.30699227427714" lon="11.291163770274393"><ele>350.57142857142856</ele><time>2026-04-06T15:13:53.999Z</time></trkpt><trkpt lat="43.30704394201723" lon="11.291232617009413"><ele>351.8571428571429</ele><time>2026-04-06T15:14:03.999Z</time></trkpt><trkpt lat="43.307088476009085" lon="11.291298272583813"><ele>353.1428571428571</ele><time>2026-04-06T15:14:09.999Z</time></trkpt><trkpt lat="43.30714623556209" lon="11.29133703955623"><ele>354.42857142857144</ele><time>2026-04-06T15:14:15.999Z</time></trkpt><trkpt lat="43.30720997098604" lon="11.291318324670925"><ele>355.7142857142857</ele><time>2026-04-06T15:14:32.999Z</time></trkpt><trkpt lat="43.30723138376274" lon="11.291207838293378"><ele>357.0</ele><time>2026-04-06T15:14:37.999Z</time></trkpt><trkpt lat="43.307237798831515" lon="11.291117608702901"><ele>357.0</ele><time>2026-04-06T15:14:42.999Z</time></trkpt><trkpt lat="43.307227538084035" lon="11.29102976801985"><ele>357.0</ele><time>2026-04-06T15:14:51.999Z</time></trkpt><trkpt lat="43.30718728949871" lon="11.290879615710729"><ele>357.0</ele><time>2026-04-06T15:15:08.999Z</time></trkpt><trkpt lat="43.30723597843043" lon="11.29080929154888"><ele>357.0</ele><time>2026-04-06T15:15:17.999Z</time></trkpt><trkpt lat="43.30724601749997" lon="11.290718190429551"><ele>357.0</ele><time>2026-04-06T15:15:25.999Z</time></trkpt><trkpt lat="43.30722936011683" lon="11.290625697065465"><ele>357.0</ele><time>2026-04-06T15:15:36Z</time></trkpt><trkpt lat="43.3071870059514" lon="11.29052796598241"><ele>355.7142857142857</ele><time>2026-04-06T15:15:44Z</time></trkpt><trkpt lat="43.3071617857889" lon="11.29044337800469"><ele>354.42857142857144</ele><time>2026-04-06T15:15:52Z</time></trkpt><trkpt lat="43.30715769215144" lon="11.290356041917468"><ele>353.1428571428571</ele><time>2026-04-06T15:16:00Z</time></trkpt><trkpt lat="43.30713422395054" lon="11.290274224703923"><ele>351.8571428571429</ele><time>2026-04-06T15:16:16Z</time></trkpt><trkpt lat="43.30708234104537" lon="11.290220455749795"><ele>350.57142857142856</ele><time>2026-04-06T15:17:22.999Z</time></trkpt><trkpt lat="43.30705839005387" lon="11.29008958573372"><ele>349.2857142857143</ele><time>2026-04-06T15:17:34.999Z</time></trkpt><trkpt lat="43.30700952436246" lon="11.290024398307292"><ele>348.0</ele><time>2026-04-06T15:20:55.999Z</time></trkpt><trkpt lat="43.306938080982874" lon="11.2900348331587"><ele>348.0</ele><time>2026-04-06T15:21:04.999Z</time></trkpt><trkpt lat="43.306892526345074" lon="11.290099440499768"><ele>348.0</ele><time>2026-04-06T15:21:11.999Z</time></trkpt><trkpt lat="43.30685785900569" lon="11.29017851737265"><ele>348.0</ele><time>2026-04-06T15:21:20.999Z</time></trkpt><trkpt lat="43.30684110421698" lon="11.290261934840368"><ele>348.0</ele><time>2026-04-06T15:21:28.999Z</time></trkpt><trkpt lat="43.306808312658575" lon="11.290337107307336"><ele>348.0</ele><time>2026-04-06T15:21:36.999Z</time></trkpt><trkpt lat="43.30678541786293" lon="11.290420954169255"><ele>348.0</ele><time>2026-04-06T15:21:44.999Z</time></trkpt><trkpt lat="43.30676438862029" lon="11.290514958397045"><ele>348.0</ele><time>2026-04-06T15:21:52.999Z</time></trkpt><trkpt lat="43.30675386349269" lon="11.290601405038315"><ele>349.2857142857143</ele><time>2026-04-06T15:22:01.999Z</time></trkpt><trkpt lat="43.306738621376546" lon="11.290701656037914"><ele>350.57142857142856</ele><time>2026-04-06T15:22:10.999Z</time></trkpt><trkpt lat="43.30673179654624" lon="11.290797853304047"><ele>351.8571428571429</ele><time>2026-04-06T15:22:19.999Z</time></trkpt><trkpt lat="43.30674530208032" lon="11.290889754018146"><ele>353.1428571428571</ele><time>2026-04-06T15:22:31.999Z</time></trkpt><trkpt lat="43.306768363210615" lon="11.290987661008613"><ele>354.42857142857144</ele><time>2026-04-06T15:22:38.999Z</time></trkpt><trkpt lat="43.30676030077312" lon="11.29108518613113"><ele>355.7142857142857</ele><time>2026-04-06T15:22:46.999Z</time></trkpt><trkpt lat="43.30675681559759" lon="11.291174485375485"><ele>357.0</ele><time>2026-04-06T15:22:57.999Z</time></trkpt><trkpt lat="43.30675790846347" lon="11.29126164358003"><ele>357.0</ele><time>2026-04-06T15:23:06.999Z</time></trkpt><trkpt lat="43.30673728213327" lon="11.291349493205432"><ele>357.0</ele><time>2026-04-06T15:23:15.999Z</time></trkpt><trkpt lat="43.306706893711194" lon="11.291428134613646"><ele>357.0</ele><time>2026-04-06T15:23:23.999Z</time></trkpt><trkpt lat="43.30666058143683" lon="11.291506077070775"><ele>357.0</ele><time>2026-04-06T15:23:32.999Z</time></trkpt><trkpt lat="43.306597455088415" lon="11.29154508858325"><ele>357.0</ele><time>2026-04-06T15:23:44.999Z</time></trkpt><trkpt lat="43.30653691422173" lon="11.291579753979214"><ele>357.0</ele><time>2026-04-06T15:23:53.999Z</time></trkpt><trkpt lat="43.30647218891978" lon="11.29158282012592"><ele>357.0</ele><time>2026-04-06T15:24:00.999Z</time></trkpt><trkpt lat="43.306404906902706" lon="11.291569834696503"><ele>355.85714285714283</ele><time>2026-04-06T15:24:09.999Z</time></trkpt><trkpt lat="43.30633517033836" lon="11.291554443512807"><ele>354.7142857142857</ele><time>2026-04-06T15:24:18Z</time></trkpt><trkpt lat="43.306275667892045" lon="11.291515612094665"><ele>353.57142857142856</ele><time>2026-04-06T15:24:26Z</time></trkpt><trkpt lat="43.3062276645548" lon="11.29145897785368"><ele>352.42857142857144</ele><time>2026-04-06T15:24:39Z</time></trkpt><trkpt lat="43.3062887849822" lon="11.291421296083982"><ele>351.2857142857143</ele><time>2026-04-06T15:26:41.001Z</time></trkpt><trkpt lat="43.306225963749164" lon="11.291322674606988"><ele>350.1428571428571</ele><time>2026-04-06T15:30:17.002Z</time></trkpt><trkpt lat="43.306251626674225" lon="11.291214099775122"><ele>349.0</ele><time>2026-04-06T15:30:20.002Z</time></trkpt><trkpt lat="43.30631539718048" lon="11.29116783868254"><ele>348.3333333333333</ele><time>2026-04-06T15:30:21.002Z</time></trkpt><trkpt lat="43.306368777996674" lon="11.291108566155488"><ele>347.66666666666663</ele><time>2026-04-06T15:30:22.002Z</time></trkpt><trkpt lat="43.30641562829935" lon="11.291026045754307"><ele>347.0</ele><time>2026-04-06T15:30:23.002Z</time></trkpt><trkpt lat="43.30646525926352" lon="11.290930020333418"><ele>346.3333333333333</ele><time>2026-04-06T15:30:24.002Z</time></trkpt><trkpt lat="43.306509692471906" lon="11.290833010155259"><ele>345.6666666666667</ele><time>2026-04-06T15:30:25.002Z</time></trkpt><trkpt lat="43.3065539308209" lon="11.29074034709866"><ele>345.0</ele><time>2026-04-06T15:30:26.002Z</time></trkpt><trkpt lat="43.306577690984916" lon="11.2906446889295"><ele>345.5</ele><time>2026-04-06T15:30:27.002Z</time></trkpt><trkpt lat="43.30663058850055" lon="11.290489491931531"><ele>346.0</ele><time>2026-04-06T15:30:29.002Z</time></trkpt><trkpt lat="43.30664486209492" lon="11.290400461347895"><ele>346.5</ele><time>2026-04-06T15:30:30.002Z</time></trkpt><trkpt lat="43.30665595689634" lon="11.290313445250934"><ele>347.0</ele><time>2026-04-06T15:30:31.002Z</time></trkpt><trkpt lat="43.30667826368853" lon="11.290213851989524"><ele>347.5</ele><time>2026-04-06T15:30:32.002Z</time></trkpt><trkpt lat="43.30670059923082" lon="11.290104333348298"><ele>348.0</ele><time>2026-04-06T15:30:33.001Z</time></trkpt><trkpt lat="43.30672524017424" lon="11.289985283483862"><ele>348.0</ele><time>2026-04-06T15:30:34.001Z</time></trkpt><trkpt lat="43.306745720452696" lon="11.289888455581313"><ele>348.0</ele><time>2026-04-06T15:30:35.001Z</time></trkpt><trkpt lat="43.306753353925515" lon="11.289790397403692"><ele>348.0</ele><time>2026-04-06T15:30:36.001Z</time></trkpt><trkpt lat="43.30681371230313" lon="11.28962502224468"><ele>348.0</ele><time>2026-04-06T15:30:38.001Z</time></trkpt><trkpt lat="43.30685160816705" lon="11.289527873702786"><ele>348.0</ele><time>2026-04-06T15:30:39.001Z</time></trkpt><trkpt lat="43.306914986327534" lon="11.289469588887956"><ele>348.0</ele><time>2026-04-06T15:30:40.001Z</time></trkpt><trkpt lat="43.30699688951095" lon="11.289466860871093"><ele>347.0</ele><time>2026-04-06T15:30:41.001Z</time></trkpt><trkpt lat="43.30711829339854" lon="11.289437703737491"><ele>346.0</ele><time>2026-04-06T15:30:43.001Z</time></trkpt><trkpt lat="43.3071822038053" lon="11.289469279674341"><ele>345.0</ele><time>2026-04-06T15:30:44.001Z</time></trkpt><trkpt lat="43.30731384422179" lon="11.289508317301555"><ele>344.0</ele><time>2026-04-06T15:30:46.001Z</time></trkpt><trkpt lat="43.30746819490654" lon="11.289521800849966"><ele>344.0</ele><time>2026-04-06T15:30:48.001Z</time></trkpt><trkpt lat="43.30756122121284" lon="11.289515831462616"><ele>344.0</ele><time>2026-04-06T15:30:49.001Z</time></trkpt><trkpt lat="43.307625077880246" lon="11.289483078219728"><ele>344.0</ele><time>2026-04-06T15:30:50.001Z</time></trkpt><trkpt lat="43.30770124478576" lon="11.289469317722508"><ele>344.0</ele><time>2026-04-06T15:30:51.001Z</time></trkpt><trkpt lat="43.3077699937602" lon="11.289425004168752"><ele>344.0</ele><time>2026-04-06T15:30:52.001Z</time></trkpt><trkpt lat="43.30784580459916" lon="11.289345616799293"><ele>344.0</ele><time>2026-04-06T15:30:53.001Z</time></trkpt><trkpt lat="43.30790987454862" lon="11.289272053904357"><ele>344.0</ele><time>2026-04-06T15:30:54.001Z</time></trkpt><trkpt lat="43.30799804948402" lon="11.289189337716786"><ele>344.0</ele><time>2026-04-06T15:30:55.001Z</time></trkpt><trkpt lat="43.30808692785334" lon="11.289055201087189"><ele>344.0</ele><time>2026-04-06T15:30:56.001Z</time></trkpt><trkpt lat="43.30817354802513" lon="11.288945999431046"><ele>344.0</ele><time>2026-04-06T15:30:57.001Z</time></trkpt><trkpt lat="43.30823648934223" lon="11.28884591585679"><ele>345.79999999999995</ele><time>2026-04-06T15:30:58.001Z</time></trkpt><trkpt lat="43.30830388949152" lon="11.288747626875551"><ele>347.59999999999997</ele><time>2026-04-06T15:30:59.001Z</time></trkpt><trkpt lat="43.30836623883327" lon="11.288648022761084"><ele>349.4</ele><time>2026-04-06T15:31:00.001Z</time></trkpt><trkpt lat="43.3084372108194" lon="11.288549472694177"><ele>351.2</ele><time>2026-04-06T15:31:01.001Z</time></trkpt><trkpt lat="43.30850633432749" lon="11.288443635880787"><ele>353.0</ele><time>2026-04-06T15:31:02.001Z</time></trkpt><trkpt lat="43.30857658401823" lon="11.28834540869134"><ele>353.0</ele><time>2026-04-06T15:31:03.001Z</time></trkpt><trkpt lat="43.30863680607554" lon="11.288244718976328"><ele>353.0</ele><time>2026-04-06T15:31:04.001Z</time></trkpt><trkpt lat="43.30869511150732" lon="11.288148534194816"><ele>353.0</ele><time>2026-04-06T15:31:05.001Z</time></trkpt><trkpt lat="43.30876112011653" lon="11.28805401396069"><ele>353.0</ele><time>2026-04-06T15:31:06.001Z</time></trkpt><trkpt lat="43.3088299164945" lon="11.287960039742542"><ele>353.0</ele><time>2026-04-06T15:31:07.001Z</time></trkpt><trkpt lat="43.308899715223994" lon="11.287873818679476"><ele>352.59999999999997</ele><time>2026-04-06T15:31:08.001Z</time></trkpt><trkpt lat="43.30896553071587" lon="11.287788506672968"><ele>352.2</ele><time>2026-04-06T15:31:09.001Z</time></trkpt><trkpt lat="43.30904657043674" lon="11.287713712964033"><ele>351.8</ele><time>2026-04-06T15:31:10.001Z</time></trkpt><trkpt lat="43.30911672670914" lon="11.287613406958005"><ele>351.4</ele><time>2026-04-06T15:31:11.001Z</time></trkpt><trkpt lat="43.30919103939453" lon="11.287528287749858"><ele>351.0</ele><time>2026-04-06T15:31:12.001Z</time></trkpt><trkpt lat="43.309258925002254" lon="11.287437965754854"><ele>351.0</ele><time>2026-04-06T15:31:13.001Z</time></trkpt><trkpt lat="43.30933547821087" lon="11.287350008675054"><ele>351.0</ele><time>2026-04-06T15:31:14.001Z</time></trkpt><trkpt lat="43.309405622271306" lon="11.287264286475919"><ele>351.0</ele><time>2026-04-06T15:31:15.001Z</time></trkpt><trkpt lat="43.30947586404876" lon="11.28718284406304"><ele>351.0</ele><time>2026-04-06T15:31:16Z</time></trkpt><trkpt lat="43.30954784276493" lon="11.28709503479537"><ele>351.0</ele><time>2026-04-06T15:31:17Z</time></trkpt><trkpt lat="43.30961692592655" lon="11.287008578175442"><ele>350.6666666666667</ele><time>2026-04-06T15:31:18Z</time></trkpt><trkpt lat="43.30968199566179" lon="11.286920776932954"><ele>350.3333333333333</ele><time>2026-04-06T15:31:19Z</time></trkpt><trkpt lat="43.30974631734538" lon="11.286835076472011"><ele>350.0</ele><time>2026-04-06T15:31:20Z</time></trkpt><trkpt lat="43.30981152374" lon="11.286752522037954"><ele>349.66666666666663</ele><time>2026-04-06T15:31:21Z</time></trkpt><trkpt lat="43.30987609629346" lon="11.286682622667213"><ele>349.3333333333333</ele><time>2026-04-06T15:31:22Z</time></trkpt><trkpt lat="43.30994098167653" lon="11.28662165245056"><ele>349.0</ele><time>2026-04-06T15:31:23Z</time></trkpt><trkpt lat="43.31000936396424" lon="11.286553695368962"><ele>350.0</ele><time>2026-04-06T15:31:24Z</time></trkpt><trkpt lat="43.310078802081705" lon="11.286476917748764"><ele>351.0</ele><time>2026-04-06T15:31:25Z</time></trkpt><trkpt lat="43.31014874878893" lon="11.28638486906246"><ele>352.0</ele><time>2026-04-06T15:31:26Z</time></trkpt><trkpt lat="43.31021004481374" lon="11.286288037457277"><ele>353.0</ele><time>2026-04-06T15:31:27Z</time></trkpt><trkpt lat="43.310277733366426" lon="11.28619426551778"><ele>354.0</ele><time>2026-04-06T15:31:28Z</time></trkpt><trkpt lat="43.31034346925083" lon="11.286095429388675"><ele>354.42857142857144</ele><time>2026-04-06T15:31:29Z</time></trkpt><trkpt lat="43.31039668980704" lon="11.286004055156244"><ele>354.85714285714283</ele><time>2026-04-06T15:31:30Z</time></trkpt><trkpt lat="43.31045085014673" lon="11.285929480882515"><ele>355.2857142857143</ele><time>2026-04-06T15:31:31Z</time></trkpt><trkpt lat="43.31050514818952" lon="11.285856131824001"><ele>355.7142857142857</ele><time>2026-04-06T15:31:32Z</time></trkpt><trkpt lat="43.31055834529671" lon="11.285794146355581"><ele>356.1428571428571</ele><time>2026-04-06T15:31:33Z</time></trkpt><trkpt lat="43.3106129111328" lon="11.285743150068749"><ele>356.57142857142856</ele><time>2026-04-06T15:31:34Z</time></trkpt><trkpt lat="43.31068254590761" lon="11.28570801004994"><ele>357.0</ele><time>2026-04-06T15:31:35Z</time></trkpt><trkpt lat="43.31077031255537" lon="11.28565501319146"><ele>358.1666666666667</ele><time>2026-04-06T15:31:36Z</time></trkpt><trkpt lat="43.310851183586635" lon="11.285587389043876"><ele>359.3333333333333</ele><time>2026-04-06T15:31:37Z</time></trkpt><trkpt lat="43.31092505180675" lon="11.285508705483004"><ele>360.5</ele><time>2026-04-06T15:31:38Z</time></trkpt><trkpt lat="43.31098543760763" lon="11.285442456517933"><ele>361.66666666666663</ele><time>2026-04-06T15:31:39Z</time></trkpt><trkpt lat="43.3110489217242" lon="11.285376711780025"><ele>362.8333333333333</ele><time>2026-04-06T15:31:40Z</time></trkpt><trkpt lat="43.31111881460572" lon="11.285306819024797"><ele>364.0</ele><time>2026-04-06T15:31:41Z</time></trkpt><trkpt lat="43.31118539833271" lon="11.285240932383076"><ele>364.0</ele><time>2026-04-06T15:31:42Z</time></trkpt><trkpt lat="43.31124872577722" lon="11.28517692860584"><ele>364.0</ele><time>2026-04-06T15:31:43Z</time></trkpt><trkpt lat="43.31131056791054" lon="11.285095725239975"><ele>364.0</ele><time>2026-04-06T15:31:44Z</time></trkpt><trkpt lat="43.31136869557606" lon="11.284986126656205"><ele>364.0</ele><time>2026-04-06T15:31:46Z</time></trkpt><trkpt lat="43.31143267061929" lon="11.28490460040331"><ele>364.0</ele><time>2026-04-06T15:31:48Z</time></trkpt><trkpt lat="43.311542603835505" lon="11.284845781741272"><ele>363.5</ele><time>2026-04-06T15:31:50Z</time></trkpt><trkpt lat="43.31160082409787" lon="11.284788478063353"><ele>363.0</ele><time>2026-04-06T15:31:51Z</time></trkpt><trkpt lat="43.31170812764176" lon="11.284707799681765"><ele>362.5</ele><time>2026-04-06T15:31:53Z</time></trkpt><trkpt lat="43.31180953144886" lon="11.28463242802224"><ele>362.0</ele><time>2026-04-06T15:31:55Z</time></trkpt><trkpt lat="43.31187523725854" lon="11.284637007775727"><ele>361.5</ele><time>2026-04-06T15:31:56Z</time></trkpt><trkpt lat="43.311943963547094" lon="11.284629627256363"><ele>361.0</ele><time>2026-04-06T15:31:57Z</time></trkpt><trkpt lat="43.312020353372866" lon="11.28461922674307"><ele>361.0</ele><time>2026-04-06T15:31:58Z</time></trkpt><trkpt lat="43.31210242069754" lon="11.284606188285533"><ele>361.0</ele><time>2026-04-06T15:31:59Z</time></trkpt><trkpt lat="43.31219352224468" lon="11.284588972807915"><ele>361.0</ele><time>2026-04-06T15:32:00Z</time></trkpt><trkpt lat="43.31229845474487" lon="11.284563873523041"><ele>361.0</ele><time>2026-04-06T15:32:01Z</time></trkpt><trkpt lat="43.31240805490489" lon="11.284535480241503"><ele>361.0</ele><time>2026-04-06T15:32:02Z</time></trkpt><trkpt lat="43.3124995602321" lon="11.284511095219745"><ele>360.16666666666663</ele><time>2026-04-06T15:32:03Z</time></trkpt><trkpt lat="43.31259368528644" lon="11.284485682806277"><ele>359.3333333333333</ele><time>2026-04-06T15:32:04Z</time></trkpt><trkpt lat="43.31268607404005" lon="11.28446242159157"><ele>358.5</ele><time>2026-04-06T15:32:05Z</time></trkpt><trkpt lat="43.312768701182286" lon="11.284453202616572"><ele>357.6666666666667</ele><time>2026-04-06T15:32:06Z</time></trkpt><trkpt lat="43.31283504732014" lon="11.2844641177987"><ele>356.83333333333337</ele><time>2026-04-06T15:32:07Z</time></trkpt><trkpt lat="43.312900286409366" lon="11.284495750683684"><ele>356.0</ele><time>2026-04-06T15:32:08Z</time></trkpt><trkpt lat="43.31299751573999" lon="11.284650524090829"><ele>356.0</ele><time>2026-04-06T15:32:10Z</time></trkpt><trkpt lat="43.313040187353664" lon="11.284744517507772"><ele>356.0</ele><time>2026-04-06T15:32:11Z</time></trkpt><trkpt lat="43.313073322545314" lon="11.284853888461921"><ele>356.0</ele><time>2026-04-06T15:32:12Z</time></trkpt><trkpt lat="43.313095908249934" lon="11.284977651930301"><ele>356.0</ele><time>2026-04-06T15:32:13Z</time></trkpt><trkpt lat="43.31311849163473" lon="11.285132074971024"><ele>356.0</ele><time>2026-04-06T15:32:14Z</time></trkpt><trkpt lat="43.313129309304365" lon="11.285235377470137"><ele>355.6</ele><time>2026-04-06T15:32:15Z</time></trkpt><trkpt lat="43.313140346350416" lon="11.285367953258925"><ele>355.20000000000005</ele><time>2026-04-06T15:32:16Z</time></trkpt><trkpt lat="43.313147621090884" lon="11.28550557692793"><ele>354.79999999999995</ele><time>2026-04-06T15:32:17Z</time></trkpt><trkpt lat="43.31315887494189" lon="11.285652519261268"><ele>354.4</ele><time>2026-04-06T15:32:18Z</time></trkpt><trkpt lat="43.31317908980867" lon="11.285815842007915"><ele>354.0</ele><time>2026-04-06T15:32:19Z</time></trkpt><trkpt lat="43.31321680797172" lon="11.285952064555508"><ele>354.79999999999995</ele><time>2026-04-06T15:32:20Z</time></trkpt><trkpt lat="43.31325724214526" lon="11.28605731225167"><ele>355.59999999999997</ele><time>2026-04-06T15:32:21Z</time></trkpt><trkpt lat="43.31328974956706" lon="11.286139932607332"><ele>356.4</ele><time>2026-04-06T15:32:23.002Z</time></trkpt><trkpt lat="43.31333785231127" lon="11.286262191786598"><ele>357.2</ele><time>2026-04-06T15:32:26.002Z</time></trkpt><trkpt lat="43.313404910805694" lon="11.286374682166961"><ele>358.0</ele><time>2026-04-06T15:32:28.002Z</time></trkpt><trkpt lat="43.31345752755324" lon="11.286529352301047"><ele>358.8333333333333</ele><time>2026-04-06T15:32:30.002Z</time></trkpt><trkpt lat="43.31349050118087" lon="11.286608513640973"><ele>359.66666666666663</ele><time>2026-04-06T15:32:31.002Z</time></trkpt><trkpt lat="43.31352143447263" lon="11.286687285456159"><ele>360.5</ele><time>2026-04-06T15:32:32.002Z</time></trkpt><trkpt lat="43.31356357734462" lon="11.286776244142091"><ele>361.3333333333333</ele><time>2026-04-06T15:32:33.002Z</time></trkpt><trkpt lat="43.31358943669177" lon="11.286873441052654"><ele>362.1666666666667</ele><time>2026-04-06T15:32:34.001Z</time></trkpt><trkpt lat="43.313621273822214" lon="11.286975059720563"><ele>363.0</ele><time>2026-04-06T15:32:35.001Z</time></trkpt><trkpt lat="43.3136407850367" lon="11.28710096401131"><ele>363.0</ele><time>2026-04-06T15:32:36.001Z</time></trkpt><trkpt lat="43.313685338920685" lon="11.287221276405228"><ele>363.0</ele><time>2026-04-06T15:32:37.001Z</time></trkpt><trkpt lat="43.31368737810886" lon="11.287348065489656"><ele>363.0</ele><time>2026-04-06T15:32:38.001Z</time></trkpt><trkpt lat="43.31369720208414" lon="11.287467549539908"><ele>363.0</ele><time>2026-04-06T15:32:39.001Z</time></trkpt><trkpt lat="43.313704441451826" lon="11.287565660838466"><ele>363.0</ele><time>2026-04-06T15:32:40.001Z</time></trkpt><trkpt lat="43.313710636963954" lon="11.287653033427356"><ele>363.0</ele><time>2026-04-06T15:32:41.001Z</time></trkpt><trkpt lat="43.31371939738599" lon="11.287748178588165"><ele>362.8333333333333</ele><time>2026-04-06T15:32:42.001Z</time></trkpt><trkpt lat="43.3137328493676" lon="11.287840128984453"><ele>362.6666666666667</ele><time>2026-04-06T15:32:43.001Z</time></trkpt><trkpt lat="43.313747507903344" lon="11.287925865941265"><ele>362.5</ele><time>2026-04-06T15:32:44.001Z</time></trkpt><trkpt lat="43.31366893707922" lon="11.28794013774161"><ele>362.33333333333337</ele><time>2026-04-06T15:32:45.001Z</time></trkpt><trkpt lat="43.31359617960003" lon="11.288068437556982"><ele>362.1666666666667</ele><time>2026-04-06T15:32:47.001Z</time></trkpt><trkpt lat="43.31354603762725" lon="11.28815930787574"><ele>362.0</ele><time>2026-04-06T15:32:48.001Z</time></trkpt><trkpt lat="43.31350236727677" lon="11.28823845031806"><ele>362.0</ele><time>2026-04-06T15:32:49.001Z</time></trkpt><trkpt lat="43.31344808069014" lon="11.288331975790392"><ele>362.0</ele><time>2026-04-06T15:32:50.001Z</time></trkpt><trkpt lat="43.31339750314239" lon="11.288412054198515"><ele>362.0</ele><time>2026-04-06T15:32:51.001Z</time></trkpt><trkpt lat="43.31334696603855" lon="11.28848334176618"><ele>362.0</ele><time>2026-04-06T15:32:52.001Z</time></trkpt><trkpt lat="43.31328815512638" lon="11.288561983664554"><ele>362.0</ele><time>2026-04-06T15:32:53.001Z</time></trkpt><trkpt lat="43.3132197055207" lon="11.288653851123193"><ele>362.0</ele><time>2026-04-06T15:32:54.001Z</time></trkpt><trkpt lat="43.31312640852009" lon="11.288774990159384"><ele>362.6666666666667</ele><time>2026-04-06T15:32:55.001Z</time></trkpt><trkpt lat="43.313046376915715" lon="11.288918980932529"><ele>363.3333333333333</ele><time>2026-04-06T15:32:56.001Z</time></trkpt><trkpt lat="43.31296164290946" lon="11.289120295836788"><ele>364.0</ele><time>2026-04-06T15:32:57.001Z</time></trkpt><trkpt lat="43.312900931699986" lon="11.289313633347682"><ele>364.25</ele><time>2026-04-06T15:32:58.001Z</time></trkpt><trkpt lat="43.31285310880656" lon="11.289477158485738"><ele>364.5</ele><time>2026-04-06T15:32:59.001Z</time></trkpt><trkpt lat="43.31280257674461" lon="11.289658425133254"><ele>364.75</ele><time>2026-04-06T15:33:00.001Z</time></trkpt><trkpt lat="43.31275500920536" lon="11.289853368523548"><ele>365.0</ele><time>2026-04-06T15:33:01.001Z</time></trkpt><trkpt lat="43.31272148036713" lon="11.290048175347424"><ele>365.0</ele><time>2026-04-06T15:33:02.001Z</time></trkpt><trkpt lat="43.31269766556043" lon="11.290259829817645"><ele>365.0</ele><time>2026-04-06T15:33:03.001Z</time></trkpt><trkpt lat="43.31268746864784" lon="11.290461045101992"><ele>365.0</ele><time>2026-04-06T15:33:04.001Z</time></trkpt><trkpt lat="43.312683878243504" lon="11.290656629297972"><ele>365.0</ele><time>2026-04-06T15:33:05.001Z</time></trkpt><trkpt lat="43.3126792538497" lon="11.290848242824548"><ele>363.5</ele><time>2026-04-06T15:33:06.001Z</time></trkpt><trkpt lat="43.31266302747643" lon="11.291026418652814"><ele>362.0</ele><time>2026-04-06T15:33:07.001Z</time></trkpt><trkpt lat="43.312630863117455" lon="11.291202788272694"><ele>360.5</ele><time>2026-04-06T15:33:08.001Z</time></trkpt><trkpt lat="43.3125832213606" lon="11.291370880101594"><ele>359.0</ele><time>2026-04-06T15:33:09Z</time></trkpt><trkpt lat="43.31251288479713" lon="11.29151567110671"><ele>356.75</ele><time>2026-04-06T15:33:10Z</time></trkpt><trkpt lat="43.31242691121118" lon="11.291652784781148"><ele>354.5</ele><time>2026-04-06T15:33:11Z</time></trkpt><trkpt lat="43.31233357173653" lon="11.291805317237335"><ele>352.25</ele><time>2026-04-06T15:33:12Z</time></trkpt><trkpt lat="43.312243686290884" lon="11.291954576245201"><ele>350.0</ele><time>2026-04-06T15:33:13Z</time></trkpt><trkpt lat="43.31215550294192" lon="11.292100737153651"><ele>350.0</ele><time>2026-04-06T15:33:14Z</time></trkpt><trkpt lat="43.31206475740035" lon="11.292249463707082"><ele>350.0</ele><time>2026-04-06T15:33:15Z</time></trkpt><trkpt lat="43.31197927008105" lon="11.292419213564587"><ele>350.0</ele><time>2026-04-06T15:33:16Z</time></trkpt><trkpt lat="43.311920483427464" lon="11.292613596312002"><ele>350.0</ele><time>2026-04-06T15:33:17Z</time></trkpt><trkpt lat="43.311876242063455" lon="11.292788163182774"><ele>347.25</ele><time>2026-04-06T15:33:18Z</time></trkpt><trkpt lat="43.31183207033496" lon="11.292971857382051"><ele>344.5</ele><time>2026-04-06T15:33:19Z</time></trkpt><trkpt lat="43.31179077835033" lon="11.293146956570569"><ele>341.75</ele><time>2026-04-06T15:33:20Z</time></trkpt><trkpt lat="43.311750233087" lon="11.293316574705019"><ele>339.0</ele><time>2026-04-06T15:33:21Z</time></trkpt><trkpt lat="43.31171021608617" lon="11.293483982894246"><ele>338.0</ele><time>2026-04-06T15:33:22Z</time></trkpt><trkpt lat="43.3116696876599" lon="11.293648691039529"><ele>337.0</ele><time>2026-04-06T15:33:23Z</time></trkpt><trkpt lat="43.31162359910854" lon="11.293793725532348"><ele>336.0</ele><time>2026-04-06T15:33:24Z</time></trkpt><trkpt lat="43.31155954992079" lon="11.293941530083256"><ele>335.0</ele><time>2026-04-06T15:33:25Z</time></trkpt><trkpt lat="43.31148408312474" lon="11.294080878672828"><ele>333.5</ele><time>2026-04-06T15:33:26Z</time></trkpt><trkpt lat="43.31139938522278" lon="11.294234499631456"><ele>332.0</ele><time>2026-04-06T15:33:27Z</time></trkpt><trkpt lat="43.311316696010174" lon="11.294384272438545"><ele>330.5</ele><time>2026-04-06T15:33:28Z</time></trkpt><trkpt lat="43.311226747979156" lon="11.294546096092537"><ele>329.0</ele><time>2026-04-06T15:33:29Z</time></trkpt><trkpt lat="43.31113745408231" lon="11.294704270222942"><ele>328.5</ele><time>2026-04-06T15:33:30Z</time></trkpt><trkpt lat="43.311047280599496" lon="11.294851056568893"><ele>328.0</ele><time>2026-04-06T15:33:31Z</time></trkpt><trkpt lat="43.310951596036055" lon="11.294970667646616"><ele>327.5</ele><time>2026-04-06T15:33:32Z</time></trkpt><trkpt lat="43.31084036961118" lon="11.295073905415945"><ele>327.0</ele><time>2026-04-06T15:33:33Z</time></trkpt><trkpt lat="43.31071804593815" lon="11.295175715761713"><ele>327.0</ele><time>2026-04-06T15:33:34Z</time></trkpt><trkpt lat="43.310594511590175" lon="11.295277130415476"><ele>327.0</ele><time>2026-04-06T15:33:35Z</time></trkpt><trkpt lat="43.31048343807729" lon="11.295374419601307"><ele>327.0</ele><time>2026-04-06T15:33:36Z</time></trkpt><trkpt lat="43.3103693867923" lon="11.295490694404064"><ele>327.0</ele><time>2026-04-06T15:33:37Z</time></trkpt><trkpt lat="43.31028375616476" lon="11.295632617119928"><ele>324.25</ele><time>2026-04-06T15:33:38Z</time></trkpt><trkpt lat="43.31019114883573" lon="11.295773775547346"><ele>321.5</ele><time>2026-04-06T15:33:39Z</time></trkpt><trkpt lat="43.310151783176174" lon="11.295937452768637"><ele>318.75</ele><time>2026-04-06T15:33:40Z</time></trkpt><trkpt lat="43.310126599374954" lon="11.29609576118934"><ele>316.0</ele><time>2026-04-06T15:33:41Z</time></trkpt><trkpt lat="43.31009001136621" lon="11.296316512438365"><ele>317.25</ele><time>2026-04-06T15:33:42Z</time></trkpt><trkpt lat="43.310055075473265" lon="11.296520676571355"><ele>318.5</ele><time>2026-04-06T15:33:43Z</time></trkpt><trkpt lat="43.31002035665184" lon="11.29672187701776"><ele>319.75</ele><time>2026-04-06T15:33:44Z</time></trkpt><trkpt lat="43.30998758519408" lon="11.29691170632573"><ele>321.0</ele><time>2026-04-06T15:33:45Z</time></trkpt><trkpt lat="43.309939323093644" lon="11.297193281794202"><ele>322.3333333333333</ele><time>2026-04-06T15:33:46Z</time></trkpt><trkpt lat="43.30990546583034" lon="11.29740302006304"><ele>323.66666666666663</ele><time>2026-04-06T15:33:47Z</time></trkpt><trkpt lat="43.3098751867467" lon="11.297607040412142"><ele>325.0</ele><time>2026-04-06T15:33:48Z</time></trkpt><trkpt lat="43.309850441009345" lon="11.297808506900054"><ele>325.0</ele><time>2026-04-06T15:33:49Z</time></trkpt><trkpt lat="43.309818043963325" lon="11.29803017949661"><ele>325.0</ele><time>2026-04-06T15:33:50Z</time></trkpt><trkpt lat="43.30977571758273" lon="11.298206219273771"><ele>325.0</ele><time>2026-04-06T15:33:51Z</time></trkpt><trkpt lat="43.30973831916011" lon="11.298345155512308"><ele>325.0</ele><time>2026-04-06T15:33:52Z</time></trkpt><trkpt lat="43.309710319857466" lon="11.29849191441875"><ele>326.25</ele><time>2026-04-06T15:33:53Z</time></trkpt><trkpt lat="43.30969796351318" lon="11.298630121930541"><ele>327.5</ele><time>2026-04-06T15:33:54Z</time></trkpt><trkpt lat="43.30968993096484" lon="11.298786546198626"><ele>328.75</ele><time>2026-04-06T15:33:55Z</time></trkpt><trkpt lat="43.30972089303474" lon="11.29894183768614"><ele>330.0</ele><time>2026-04-06T15:33:56Z</time></trkpt><trkpt lat="43.30976985575529" lon="11.29909923095755"><ele>330.0</ele><time>2026-04-06T15:33:57Z</time></trkpt><trkpt lat="43.30983524676317" lon="11.299263441788561"><ele>330.0</ele><time>2026-04-06T15:33:58Z</time></trkpt><trkpt lat="43.30991421679714" lon="11.299419672182662"><ele>330.0</ele><time>2026-04-06T15:33:59Z</time></trkpt><trkpt lat="43.30998988749919" lon="11.29956190446802"><ele>330.0</ele><time>2026-04-06T15:34:00Z</time></trkpt><trkpt lat="43.31005431151932" lon="11.299700159274709"><ele>330.0</ele><time>2026-04-06T15:34:01Z</time></trkpt><trkpt lat="43.31008049570091" lon="11.299850901902117"><ele>330.0</ele><time>2026-04-06T15:34:02Z</time></trkpt><trkpt lat="43.3101064881454" lon="11.299998612364783"><ele>330.0</ele><time>2026-04-06T15:34:03Z</time></trkpt><trkpt lat="43.310121085920166" lon="11.300138516293872"><ele>330.0</ele><time>2026-04-06T15:34:04Z</time></trkpt><trkpt lat="43.31013098534211" lon="11.300298019104842"><ele>330.0</ele><time>2026-04-06T15:34:05Z</time></trkpt><trkpt lat="43.31013294522665" lon="11.300445977560711"><ele>330.25</ele><time>2026-04-06T15:34:06Z</time></trkpt><trkpt lat="43.310117031286886" lon="11.30059715649143"><ele>330.5</ele><time>2026-04-06T15:34:07Z</time></trkpt><trkpt lat="43.31009289316552" lon="11.300769406818251"><ele>330.75</ele><time>2026-04-06T15:34:08Z</time></trkpt><trkpt lat="43.31006605105401" lon="11.300946346747297"><ele>331.0</ele><time>2026-04-06T15:34:09Z</time></trkpt><trkpt lat="43.310035434985785" lon="11.301119961620024"><ele>331.0</ele><time>2026-04-06T15:34:10Z</time></trkpt><trkpt lat="43.30999706151135" lon="11.301290730926752"><ele>331.0</ele><time>2026-04-06T15:34:11Z</time></trkpt><trkpt lat="43.309950666572895" lon="11.301459009875643"><ele>331.0</ele><time>2026-04-06T15:34:12Z</time></trkpt><trkpt lat="43.30990085993299" lon="11.301629450698798"><ele>331.0</ele><time>2026-04-06T15:34:12.999Z</time></trkpt><trkpt lat="43.309851242953584" lon="11.301792635068065"><ele>330.75</ele><time>2026-04-06T15:34:13.999Z</time></trkpt><trkpt lat="43.30979972033442" lon="11.301956245215584"><ele>330.5</ele><time>2026-04-06T15:34:14.999Z</time></trkpt><trkpt lat="43.30974756922742" lon="11.302126535275807"><ele>330.25</ele><time>2026-04-06T15:34:15.999Z</time></trkpt><trkpt lat="43.309698651329455" lon="11.302290528096522"><ele>330.0</ele><time>2026-04-06T15:34:16.999Z</time></trkpt><trkpt lat="43.30965251643855" lon="11.302444170047316"><ele>330.0</ele><time>2026-04-06T15:34:17.999Z</time></trkpt><trkpt lat="43.309608071377234" lon="11.302591095123564"><ele>330.0</ele><time>2026-04-06T15:34:18.999Z</time></trkpt><trkpt lat="43.30955731072534" lon="11.302708147428318"><ele>330.0</ele><time>2026-04-06T15:34:19.999Z</time></trkpt><trkpt lat="43.309492573013095" lon="11.302806833305446"><ele>330.0</ele><time>2026-04-06T15:34:20.999Z</time></trkpt><trkpt lat="43.30941316059345" lon="11.302923949050593"><ele>330.0</ele><time>2026-04-06T15:34:21.999Z</time></trkpt><trkpt lat="43.3093345926672" lon="11.3030520872746"><ele>329.75</ele><time>2026-04-06T15:34:22.999Z</time></trkpt><trkpt lat="43.30925294878766" lon="11.303187783359338"><ele>329.5</ele><time>2026-04-06T15:34:23.999Z</time></trkpt><trkpt lat="43.3091695732543" lon="11.303338281211888"><ele>329.25</ele><time>2026-04-06T15:34:24.999Z</time></trkpt><trkpt lat="43.3090839427636" lon="11.303486978707834"><ele>329.0</ele><time>2026-04-06T15:34:25.999Z</time></trkpt><trkpt lat="43.308998132933404" lon="11.3036353150642"><ele>329.0</ele><time>2026-04-06T15:34:26.999Z</time></trkpt><trkpt lat="43.308911498173075" lon="11.303762590500146"><ele>329.0</ele><time>2026-04-06T15:34:27.999Z</time></trkpt><trkpt lat="43.308815033117476" lon="11.303868462967568"><ele>329.0</ele><time>2026-04-06T15:34:29.001Z</time></trkpt><trkpt lat="43.3087088527044" lon="11.303960059276164"><ele>329.0</ele><time>2026-04-06T15:34:30.001Z</time></trkpt><trkpt lat="43.30863120382837" lon="11.304123481897468"><ele>327.5</ele><time>2026-04-06T15:34:31.001Z</time></trkpt><trkpt lat="43.30851490699149" lon="11.30421087472757"><ele>326.0</ele><time>2026-04-06T15:34:32.001Z</time></trkpt><trkpt lat="43.308392264203036" lon="11.304307780222247"><ele>324.5</ele><time>2026-04-06T15:34:33.001Z</time></trkpt><trkpt lat="43.30827914592882" lon="11.304424736387348"><ele>323.0</ele><time>2026-04-06T15:34:34.001Z</time></trkpt><trkpt lat="43.30818795977266" lon="11.304567292529635"><ele>323.0</ele><time>2026-04-06T15:34:35.001Z</time></trkpt><trkpt lat="43.30813141195005" lon="11.304733559496977"><ele>323.0</ele><time>2026-04-06T15:34:36.001Z</time></trkpt><trkpt lat="43.308101037170104" lon="11.304916797066948"><ele>323.0</ele><time>2026-04-06T15:34:37.001Z</time></trkpt><trkpt lat="43.30809501253247" lon="11.305103488511818"><ele>323.0</ele><time>2026-04-06T15:34:38.001Z</time></trkpt><trkpt lat="43.308077770632394" lon="11.305281167048555"><ele>323.59999999999997</ele><time>2026-04-06T15:34:39.001Z</time></trkpt><trkpt lat="43.30804397995825" lon="11.305438986451371"><ele>324.2</ele><time>2026-04-06T15:34:40.001Z</time></trkpt><trkpt lat="43.30799989911032" lon="11.30557551958386"><ele>324.8</ele><time>2026-04-06T15:34:41.001Z</time></trkpt><trkpt lat="43.30794540708671" lon="11.305693184982575"><ele>325.4</ele><time>2026-04-06T15:34:42.001Z</time></trkpt><trkpt lat="43.30788429567062" lon="11.305789842535736"><ele>326.0</ele><time>2026-04-06T15:34:43.001Z</time></trkpt><trkpt lat="43.307813790119816" lon="11.305857095676094"><ele>326.0</ele><time>2026-04-06T15:34:44.001Z</time></trkpt><trkpt lat="43.30773382843395" lon="11.30590227812849"><ele>326.0</ele><time>2026-04-06T15:34:45.001Z</time></trkpt><trkpt lat="43.307643601125534" lon="11.305923171870486"><ele>326.0</ele><time>2026-04-06T15:34:46.001Z</time></trkpt><trkpt lat="43.307554101401514" lon="11.305928640637488"><ele>326.0</ele><time>2026-04-06T15:34:47.001Z</time></trkpt><trkpt lat="43.30746573221918" lon="11.305943800010395"><ele>326.0</ele><time>2026-04-06T15:34:48.001Z</time></trkpt><trkpt lat="43.307380711580464" lon="11.305970849018056"><ele>326.0</ele><time>2026-04-06T15:34:49.001Z</time></trkpt><trkpt lat="43.30730155008406" lon="11.30601379646557"><ele>325.4</ele><time>2026-04-06T15:34:50.001Z</time></trkpt><trkpt lat="43.3072211117458" lon="11.306076403676169"><ele>324.8</ele><time>2026-04-06T15:34:51.001Z</time></trkpt><trkpt lat="43.30713415369222" lon="11.306154919835608"><ele>324.2</ele><time>2026-04-06T15:34:52.001Z</time></trkpt><trkpt lat="43.30703649612597" lon="11.306218413129505"><ele>323.59999999999997</ele><time>2026-04-06T15:34:53.001Z</time></trkpt><trkpt lat="43.30693597939858" lon="11.30628487303725"><ele>323.0</ele><time>2026-04-06T15:34:54Z</time></trkpt><trkpt lat="43.3068391303269" lon="11.30636024779167"><ele>323.5</ele><time>2026-04-06T15:34:55Z</time></trkpt><trkpt lat="43.306757320581205" lon="11.306462639541946"><ele>324.0</ele><time>2026-04-06T15:34:56Z</time></trkpt><trkpt lat="43.30670256081162" lon="11.30658990929404"><ele>324.5</ele><time>2026-04-06T15:34:57Z</time></trkpt><trkpt lat="43.30666406787558" lon="11.306737344262965"><ele>325.0</ele><time>2026-04-06T15:34:58Z</time></trkpt><trkpt lat="43.306631881604645" lon="11.306893066847561"><ele>325.0</ele><time>2026-04-06T15:34:59Z</time></trkpt><trkpt lat="43.30659974046982" lon="11.30705270694184"><ele>325.0</ele><time>2026-04-06T15:35:00Z</time></trkpt><trkpt lat="43.30656483080284" lon="11.307213259044898"><ele>325.0</ele><time>2026-04-06T15:35:01Z</time></trkpt><trkpt lat="43.30646717498028" lon="11.307353248520267"><ele>325.0</ele><time>2026-04-06T15:35:02Z</time></trkpt><trkpt lat="43.306421331233246" lon="11.307503834261732"><ele>324.25</ele><time>2026-04-06T15:35:03Z</time></trkpt><trkpt lat="43.30635537616816" lon="11.307642535134926"><ele>323.5</ele><time>2026-04-06T15:35:04Z</time></trkpt><trkpt lat="43.30627475212545" lon="11.307770683728165"><ele>322.75</ele><time>2026-04-06T15:35:05Z</time></trkpt><trkpt lat="43.30619773409608" lon="11.307905763643818"><ele>322.0</ele><time>2026-04-06T15:35:06Z</time></trkpt><trkpt lat="43.30613939057401" lon="11.30806233004907"><ele>321.20000000000005</ele><time>2026-04-06T15:35:07Z</time></trkpt><trkpt lat="43.306095675371644" lon="11.308215134448398"><ele>320.40000000000003</ele><time>2026-04-06T15:35:08Z</time></trkpt><trkpt lat="43.30606007790222" lon="11.308363580278064"><ele>319.6</ele><time>2026-04-06T15:35:09Z</time></trkpt><trkpt lat="43.306025331336436" lon="11.308500998556367"><ele>318.8</ele><time>2026-04-06T15:35:10Z</time></trkpt><trkpt lat="43.30599122304831" lon="11.308634339398454"><ele>318.0</ele><time>2026-04-06T15:35:11Z</time></trkpt><trkpt lat="43.3059527868365" lon="11.3087585031098"><ele>318.0</ele><time>2026-04-06T15:35:12Z</time></trkpt><trkpt lat="43.30590202196691" lon="11.308862399803614"><ele>318.0</ele><time>2026-04-06T15:35:13Z</time></trkpt><trkpt lat="43.30583491390381" lon="11.308963541603095"><ele>318.0</ele><time>2026-04-06T15:35:14Z</time></trkpt><trkpt lat="43.305760574962235" lon="11.309065152688515"><ele>318.0</ele><time>2026-04-06T15:35:15Z</time></trkpt><trkpt lat="43.30568692527606" lon="11.309178737460725"><ele>318.0</ele><time>2026-04-06T15:35:16Z</time></trkpt><trkpt lat="43.305625901473555" lon="11.309279988199572"><ele>316.8333333333333</ele><time>2026-04-06T15:35:17Z</time></trkpt><trkpt lat="43.30558037775373" lon="11.309365966348931"><ele>315.6666666666667</ele><time>2026-04-06T15:35:18Z</time></trkpt><trkpt lat="43.30549760996454" lon="11.309410912996466"><ele>314.5</ele><time>2026-04-06T15:35:20Z</time></trkpt><trkpt lat="43.30542608724815" lon="11.309387788548436"><ele>313.33333333333337</ele><time>2026-04-06T15:35:21Z</time></trkpt><trkpt lat="43.30536815574154" lon="11.309295672173711"><ele>312.1666666666667</ele><time>2026-04-06T15:35:22Z</time></trkpt><trkpt lat="43.30529411217681" lon="11.309217494224121"><ele>311.0</ele><time>2026-04-06T15:35:23Z</time></trkpt><trkpt lat="43.3052060866073" lon="11.309153942576318"><ele>310.2</ele><time>2026-04-06T15:35:24Z</time></trkpt><trkpt lat="43.30509793294535" lon="11.309132117194068"><ele>309.40000000000003</ele><time>2026-04-06T15:35:25Z</time></trkpt><trkpt lat="43.30498895730646" lon="11.309143246517221"><ele>308.6</ele><time>2026-04-06T15:35:26Z</time></trkpt><trkpt lat="43.304884364609336" lon="11.309146302730369"><ele>307.8</ele><time>2026-04-06T15:35:27Z</time></trkpt><trkpt lat="43.30479343219869" lon="11.309140084174887"><ele>307.0</ele><time>2026-04-06T15:35:28Z</time></trkpt><trkpt lat="43.30468704175319" lon="11.309139894296564"><ele>305.4</ele><time>2026-04-06T15:35:29Z</time></trkpt><trkpt lat="43.304580949073745" lon="11.309152312912497"><ele>303.79999999999995</ele><time>2026-04-06T15:35:30Z</time></trkpt><trkpt lat="43.30446671386758" lon="11.309150552389518"><ele>302.2</ele><time>2026-04-06T15:35:31Z</time></trkpt><trkpt lat="43.304367015493035" lon="11.309135827752247"><ele>300.59999999999997</ele><time>2026-04-06T15:35:32Z</time></trkpt><trkpt lat="43.3042724661581" lon="11.309104468837798"><ele>299.0</ele><time>2026-04-06T15:35:33Z</time></trkpt><trkpt lat="43.304145945699524" lon="11.309060791441993"><ele>299.0</ele><time>2026-04-06T15:35:34Z</time></trkpt><trkpt lat="43.30403391275896" lon="11.30900398550551"><ele>299.0</ele><time>2026-04-06T15:35:36Z</time></trkpt><trkpt lat="43.303920798286626" lon="11.309002551459058"><ele>299.0</ele><time>2026-04-06T15:35:37.069Z</time></trkpt><trkpt lat="43.30379116839272" lon="11.309046296094664"><ele>299.0</ele><time>2026-04-06T15:35:38.064Z</time></trkpt><trkpt lat="43.30366822435669" lon="11.309035916218381"><ele>296.75</ele><time>2026-04-06T15:35:39.053Z</time></trkpt><trkpt lat="43.30355843114759" lon="11.30907874940698"><ele>294.5</ele><time>2026-04-06T15:35:40.049Z</time></trkpt><trkpt lat="43.303453069483304" lon="11.30920133761356"><ele>292.25</ele><time>2026-04-06T15:35:41.052Z</time></trkpt><trkpt lat="43.303325037337686" lon="11.30914178484716"><ele>290.0</ele><time>2026-04-06T15:35:42.042Z</time></trkpt><trkpt lat="43.30320822241988" lon="11.309177323043059"><ele>277.0</ele><time>2026-04-06T15:35:43.041Z</time></trkpt><trkpt lat="43.30203138341028" lon="11.309843404317741"><ele>277.0</ele><time>2026-04-06T15:35:56.111Z</time></trkpt><trkpt lat="43.30196602636259" lon="11.30992064326674"><ele>277.0</ele><time>2026-04-06T15:35:59.732Z</time></trkpt><trkpt lat="43.30240150510175" lon="11.311056791753309"><ele>265.0</ele><time>2026-04-06T15:36:11.841Z</time></trkpt><trkpt lat="43.30285773144436" lon="11.311691999724767"><ele>265.0</ele><time>2026-04-06T15:36:12.999Z</time></trkpt><trkpt lat="43.30289307688677" lon="11.31177924785933"><ele>265.0</ele><time>2026-04-06T15:36:13.999Z</time></trkpt><trkpt lat="43.302823130790685" lon="11.311593041951612"><ele>265.0</ele><time>2026-04-06T15:36:16.999Z</time></trkpt><trkpt lat="43.30266856221548" lon="11.311192791722922"><ele>265.0</ele><time>2026-04-06T15:36:17.999Z</time></trkpt><trkpt lat="43.302708939044116" lon="11.311308813530557"><ele>265.0</ele><time>2026-04-06T15:36:19.999Z</time></trkpt><trkpt lat="43.30278664532279" lon="11.311464118734486"><ele>265.0</ele><time>2026-04-06T15:36:20.999Z</time></trkpt><trkpt lat="43.30273783757707" lon="11.311385791187448"><ele>265.0</ele><time>2026-04-06T15:36:23.999Z</time></trkpt><trkpt lat="43.3026710294248" lon="11.311273546791194"><ele>265.0</ele><time>2026-04-06T15:36:28.999Z</time></trkpt><trkpt lat="43.30263038118797" lon="11.311199751352701"><ele>265.4</ele><time>2026-04-06T15:36:31.999Z</time></trkpt><trkpt lat="43.3024995553428" lon="11.311241628641147"><ele>265.8</ele><time>2026-04-06T15:36:35Z</time></trkpt><trkpt lat="43.30243427590903" lon="11.311282598358002"><ele>266.2</ele><time>2026-04-06T15:36:36Z</time></trkpt><trkpt lat="43.302353771625306" lon="11.311255951579518"><ele>266.6</ele><time>2026-04-06T15:36:37Z</time></trkpt><trkpt lat="43.302287238428704" lon="11.31127553462935"><ele>267.0</ele><time>2026-04-06T15:36:38Z</time></trkpt><trkpt lat="43.30216302501696" lon="11.311270851287794"><ele>268.25</ele><time>2026-04-06T15:36:40Z</time></trkpt><trkpt lat="43.30212285132421" lon="11.311358802114343"><ele>269.5</ele><time>2026-04-06T15:36:42Z</time></trkpt><trkpt lat="43.302177471227786" lon="11.311675353873463"><ele>270.75</ele><time>2026-04-06T15:36:45Z</time></trkpt><trkpt lat="43.30220520426723" lon="11.311804709684424"><ele>272.0</ele><time>2026-04-06T15:36:46Z</time></trkpt><trkpt lat="43.30222704585647" lon="11.311906586813027"><ele>272.2</ele><time>2026-04-06T15:36:47Z</time></trkpt><trkpt lat="43.30222522686839" lon="11.312045251695983"><ele>272.4</ele><time>2026-04-06T15:36:48Z</time></trkpt><trkpt lat="43.3022093994538" lon="11.31221196778574"><ele>272.6</ele><time>2026-04-06T15:36:49Z</time></trkpt><trkpt lat="43.30219325621771" lon="11.31235941325987"><ele>272.8</ele><time>2026-04-06T15:36:50Z</time></trkpt><trkpt lat="43.30213037125517" lon="11.312494680491765"><ele>273.0</ele><time>2026-04-06T15:36:51Z</time></trkpt><trkpt lat="43.30203372603489" lon="11.312528759451641"><ele>273.5</ele><time>2026-04-06T15:36:52Z</time></trkpt><trkpt lat="43.30193577905588" lon="11.312593313825088"><ele>274.0</ele><time>2026-04-06T15:36:53Z</time></trkpt><trkpt lat="43.30182473589159" lon="11.31264238738315"><ele>274.5</ele><time>2026-04-06T15:36:54Z</time></trkpt><trkpt lat="43.30171059913505" lon="11.312703408682506"><ele>275.0</ele><time>2026-04-06T15:36:55Z</time></trkpt><trkpt lat="43.30157368367499" lon="11.312776608241794"><ele>275.0</ele><time>2026-04-06T15:36:56Z</time></trkpt><trkpt lat="43.301457105406264" lon="11.312838804728939"><ele>275.0</ele><time>2026-04-06T15:36:57Z</time></trkpt><trkpt lat="43.301327484964894" lon="11.31290731592697"><ele>275.0</ele><time>2026-04-06T15:36:58Z</time></trkpt><trkpt lat="43.30121469219942" lon="11.312972038257437"><ele>275.0</ele><time>2026-04-06T15:36:59Z</time></trkpt><trkpt lat="43.30111598597178" lon="11.313034254005974"><ele>277.0</ele><time>2026-04-06T15:37:00Z</time></trkpt><trkpt lat="43.300994911842764" lon="11.313119365292923"><ele>279.0</ele><time>2026-04-06T15:37:01Z</time></trkpt><trkpt lat="43.300890911150624" lon="11.31321268787908"><ele>281.0</ele><time>2026-04-06T15:37:02Z</time></trkpt><trkpt lat="43.30079285395046" lon="11.313298442627975"><ele>283.0</ele><time>2026-04-06T15:37:03Z</time></trkpt><trkpt lat="43.30070859774463" lon="11.313400764044337"><ele>283.0</ele><time>2026-04-06T15:37:04Z</time></trkpt><trkpt lat="43.30063501278713" lon="11.313521331599912"><ele>283.0</ele><time>2026-04-06T15:37:05Z</time></trkpt><trkpt lat="43.300582376741545" lon="11.313607574416201"><ele>283.0</ele><time>2026-04-06T15:37:06Z</time></trkpt><trkpt lat="43.300522107592066" lon="11.313707881775288"><ele>283.0</ele><time>2026-04-06T15:37:07Z</time></trkpt><trkpt lat="43.30045053612456" lon="11.31380543197846"><ele>283.0</ele><time>2026-04-06T15:37:08Z</time></trkpt><trkpt lat="43.300395194664354" lon="11.313924849822206"><ele>284.8333333333333</ele><time>2026-04-06T15:37:09Z</time></trkpt><trkpt lat="43.30033402554724" lon="11.314031335471373"><ele>286.66666666666663</ele><time>2026-04-06T15:37:10Z</time></trkpt><trkpt lat="43.30027943411694" lon="11.314135261914963"><ele>288.5</ele><time>2026-04-06T15:37:11Z</time></trkpt><trkpt lat="43.300224859069296" lon="11.314222599783198"><ele>290.3333333333333</ele><time>2026-04-06T15:37:12Z</time></trkpt><trkpt lat="43.30016431793229" lon="11.314289941016659"><ele>292.1666666666667</ele><time>2026-04-06T15:37:13Z</time></trkpt><trkpt lat="43.300122216115156" lon="11.314362755230857"><ele>294.0</ele><time>2026-04-06T15:37:14Z</time></trkpt><trkpt lat="43.300082085267775" lon="11.314470560251586"><ele>294.0</ele><time>2026-04-06T15:37:15Z</time></trkpt><trkpt lat="43.300039610100285" lon="11.31461242965561"><ele>294.0</ele><time>2026-04-06T15:37:16Z</time></trkpt><trkpt lat="43.300004832546655" lon="11.314726612665403"><ele>294.0</ele><time>2026-04-06T15:37:17Z</time></trkpt><trkpt lat="43.29993593336248" lon="11.31482416978194"><ele>294.0</ele><time>2026-04-06T15:37:18Z</time></trkpt><trkpt lat="43.299839719074726" lon="11.314928972530456"><ele>294.0</ele><time>2026-04-06T15:37:19Z</time></trkpt><trkpt lat="43.29974034607647" lon="11.315036220536483"><ele>292.25</ele><time>2026-04-06T15:37:20Z</time></trkpt><trkpt lat="43.29965304434309" lon="11.315147865736732"><ele>290.5</ele><time>2026-04-06T15:37:21Z</time></trkpt><trkpt lat="43.2995513135344" lon="11.315276176973704"><ele>288.75</ele><time>2026-04-06T15:37:22Z</time></trkpt><trkpt lat="43.29945251164944" lon="11.315423292811007"><ele>287.0</ele><time>2026-04-06T15:37:23Z</time></trkpt><trkpt lat="43.29934249507582" lon="11.315576741995931"><ele>285.33333333333337</ele><time>2026-04-06T15:37:24Z</time></trkpt><trkpt lat="43.29922513028949" lon="11.315725430910968"><ele>283.6666666666667</ele><time>2026-04-06T15:37:25Z</time></trkpt><trkpt lat="43.299107178076525" lon="11.315862307757715"><ele>282.0</ele><time>2026-04-06T15:37:26Z</time></trkpt><trkpt lat="43.29898129041743" lon="11.315995370873878"><ele>282.75</ele><time>2026-04-06T15:37:27Z</time></trkpt><trkpt lat="43.298863749139244" lon="11.316106696384487"><ele>283.5</ele><time>2026-04-06T15:37:28Z</time></trkpt><trkpt lat="43.298744451370325" lon="11.316226282663996"><ele>284.25</ele><time>2026-04-06T15:37:29Z</time></trkpt><trkpt lat="43.298594786750904" lon="11.316290541839775"><ele>285.0</ele><time>2026-04-06T15:37:30Z</time></trkpt><trkpt lat="43.29844475560413" lon="11.316374883043498"><ele>282.6666666666667</ele><time>2026-04-06T15:37:31Z</time></trkpt><trkpt lat="43.29830791521264" lon="11.316454281997007"><ele>280.33333333333337</ele><time>2026-04-06T15:37:32Z</time></trkpt><trkpt lat="43.29816259009741" lon="11.3165416217028"><ele>278.0</ele><time>2026-04-06T15:37:33Z</time></trkpt><trkpt lat="43.298014302344704" lon="11.316630907865076"><ele>278.0</ele><time>2026-04-06T15:37:34Z</time></trkpt><trkpt lat="43.297870475684576" lon="11.316719843118804"><ele>278.0</ele><time>2026-04-06T15:37:35Z</time></trkpt><trkpt lat="43.29775766181333" lon="11.316786516805937"><ele>278.0</ele><time>2026-04-06T15:37:36Z</time></trkpt><trkpt lat="43.297638049627274" lon="11.31684290391273"><ele>278.0</ele><time>2026-04-06T15:37:36.999Z</time></trkpt><trkpt lat="43.29753097448978" lon="11.316862087052229"><ele>278.0</ele><time>2026-04-06T15:37:37.999Z</time></trkpt><trkpt lat="43.29741939665316" lon="11.316860387189081"><ele>278.0</ele><time>2026-04-06T15:37:38.999Z</time></trkpt><trkpt lat="43.297273084102" lon="11.316839364955301"><ele>278.0</ele><time>2026-04-06T15:37:39.999Z</time></trkpt><trkpt lat="43.297141484570425" lon="11.316801738489513"><ele>278.0</ele><time>2026-04-06T15:37:40.999Z</time></trkpt><trkpt lat="43.29696766186381" lon="11.316745866934713"><ele>276.75</ele><time>2026-04-06T15:37:41.999Z</time></trkpt><trkpt lat="43.29683972090732" lon="11.316701896507405"><ele>275.5</ele><time>2026-04-06T15:37:42.999Z</time></trkpt><trkpt lat="43.29670906595479" lon="11.316662699971936"><ele>274.25</ele><time>2026-04-06T15:37:43.999Z</time></trkpt><trkpt lat="43.29659400231385" lon="11.31665571242477"><ele>273.0</ele><time>2026-04-06T15:37:44.999Z</time></trkpt><trkpt lat="43.29647251380475" lon="11.316655500881124"><ele>273.0</ele><time>2026-04-06T15:37:45.999Z</time></trkpt><trkpt lat="43.296368304792374" lon="11.316709392058142"><ele>273.0</ele><time>2026-04-06T15:37:46.999Z</time></trkpt><trkpt lat="43.29630109608292" lon="11.316819947351192"><ele>273.0</ele><time>2026-04-06T15:37:47.999Z</time></trkpt><trkpt lat="43.29624005217724" lon="11.316963950800162"><ele>273.0</ele><time>2026-04-06T15:37:48.999Z</time></trkpt><trkpt lat="43.29618511299473" lon="11.317110908292747"><ele>272.3333333333333</ele><time>2026-04-06T15:37:49.999Z</time></trkpt><trkpt lat="43.29611235664871" lon="11.317264090953243"><ele>271.66666666666663</ele><time>2026-04-06T15:37:50.999Z</time></trkpt><trkpt lat="43.296043175889636" lon="11.317448149385525"><ele>271.0</ele><time>2026-04-06T15:37:51.999Z</time></trkpt><trkpt lat="43.29591714248185" lon="11.317634624789767"><ele>271.0</ele><time>2026-04-06T15:37:52.999Z</time></trkpt><trkpt lat="43.29582481823265" lon="11.317794361922578"><ele>271.0</ele><time>2026-04-06T15:37:53.999Z</time></trkpt><trkpt lat="43.295733581708305" lon="11.31793237631761"><ele>271.0</ele><time>2026-04-06T15:37:54.999Z</time></trkpt><trkpt lat="43.295624985457614" lon="11.318086479296575"><ele>271.0</ele><time>2026-04-06T15:37:55.999Z</time></trkpt><trkpt lat="43.29550869746135" lon="11.318170162729263"><ele>271.25</ele><time>2026-04-06T15:37:56.999Z</time></trkpt><trkpt lat="43.29538706617987" lon="11.318211362783014"><ele>271.5</ele><time>2026-04-06T15:37:57.999Z</time></trkpt><trkpt lat="43.295295084602586" lon="11.318189490825022"><ele>271.75</ele><time>2026-04-06T15:37:58.999Z</time></trkpt><trkpt lat="43.2951521476851" lon="11.318173606820922"><ele>272.0</ele><time>2026-04-06T15:37:59.999Z</time></trkpt><trkpt lat="43.295012454196566" lon="11.318162358507946"><ele>272.0</ele><time>2026-04-06T15:38:00.999Z</time></trkpt><trkpt lat="43.29489684156121" lon="11.318160602636084"><ele>272.0</ele><time>2026-04-06T15:38:01.999Z</time></trkpt><trkpt lat="43.29474868785391" lon="11.318166231876365"><ele>272.0</ele><time>2026-04-06T15:38:02.999Z</time></trkpt><trkpt lat="43.294576773412324" lon="11.318175611610542"><ele>272.0</ele><time>2026-04-06T15:38:03.999Z</time></trkpt><trkpt lat="43.294410019269684" lon="11.318184905169403"><ele>270.5</ele><time>2026-04-06T15:38:04.999Z</time></trkpt><trkpt lat="43.29427410995035" lon="11.318192223207413"><ele>269.0</ele><time>2026-04-06T15:38:05.999Z</time></trkpt><trkpt lat="43.294142207054506" lon="11.318198775616434"><ele>267.5</ele><time>2026-04-06T15:38:06.999Z</time></trkpt><trkpt lat="43.29400786330656" lon="11.318205449277842"><ele>266.0</ele><time>2026-04-06T15:38:07.999Z</time></trkpt><trkpt lat="43.293832882908916" lon="11.318217035624132"><ele>265.6666666666667</ele><time>2026-04-06T15:38:08.999Z</time></trkpt><trkpt lat="43.293648460534186" lon="11.318233769747966"><ele>265.3333333333333</ele><time>2026-04-06T15:38:09.999Z</time></trkpt><trkpt lat="43.2934803978795" lon="11.31825030720579"><ele>265.0</ele><time>2026-04-06T15:38:10.999Z</time></trkpt><trkpt lat="43.29329291358224" lon="11.318270073568854"><ele>265.0</ele><time>2026-04-06T15:38:11.999Z</time></trkpt><trkpt lat="43.293100410916594" lon="11.318290795192896"><ele>265.0</ele><time>2026-04-06T15:38:12.999Z</time></trkpt><trkpt lat="43.292930149313975" lon="11.31830948327483"><ele>265.0</ele><time>2026-04-06T15:38:13.999Z</time></trkpt><trkpt lat="43.29276389334644" lon="11.318327731739638"><ele>265.0</ele><time>2026-04-06T15:38:14.999Z</time></trkpt><trkpt lat="43.292563316005605" lon="11.318352726819924"><ele>265.0</ele><time>2026-04-06T15:38:15.999Z</time></trkpt><trkpt lat="43.29236171468363" lon="11.318396089553474"><ele>265.0</ele><time>2026-04-06T15:38:16.999Z</time></trkpt><trkpt lat="43.2921856030806" lon="11.318434552903053"><ele>263.66666666666663</ele><time>2026-04-06T15:38:17.999Z</time></trkpt><trkpt lat="43.291965976030376" lon="11.318471509564676"><ele>262.3333333333333</ele><time>2026-04-06T15:38:18.999Z</time></trkpt><trkpt lat="43.29175639481704" lon="11.318493198409048"><ele>261.0</ele><time>2026-04-06T15:38:19.999Z</time></trkpt><trkpt lat="43.29155937945734" lon="11.318499016854124"><ele>262.3333333333333</ele><time>2026-04-06T15:38:20.999Z</time></trkpt><trkpt lat="43.29134853466611" lon="11.318494504364688"><ele>263.66666666666663</ele><time>2026-04-06T15:38:21.999Z</time></trkpt><trkpt lat="43.29116464421954" lon="11.318500292571255"><ele>265.0</ele><time>2026-04-06T15:38:22.999Z</time></trkpt><trkpt lat="43.29097439719958" lon="11.31852783734963"><ele>265.0</ele><time>2026-04-06T15:38:23.999Z</time></trkpt><trkpt lat="43.290796089432305" lon="11.318527150358243"><ele>265.0</ele><time>2026-04-06T15:38:24.999Z</time></trkpt><trkpt lat="43.290614731318456" lon="11.318491742388995"><ele>265.0</ele><time>2026-04-06T15:38:25.999Z</time></trkpt><trkpt lat="43.29043191705443" lon="11.318462751474655"><ele>265.3333333333333</ele><time>2026-04-06T15:38:26.999Z</time></trkpt><trkpt lat="43.29024608330428" lon="11.318435262240323"><ele>265.6666666666667</ele><time>2026-04-06T15:38:27.999Z</time></trkpt><trkpt lat="43.290062509129946" lon="11.318408378998189"><ele>266.0</ele><time>2026-04-06T15:38:28.999Z</time></trkpt><trkpt lat="43.289889255831376" lon="11.318383007158907"><ele>264.33333333333337</ele><time>2026-04-06T15:38:29.999Z</time></trkpt><trkpt lat="43.28971207561728" lon="11.318359464961679"><ele>262.6666666666667</ele><time>2026-04-06T15:38:30.999Z</time></trkpt><trkpt lat="43.28953484822543" lon="11.318341545806419"><ele>261.0</ele><time>2026-04-06T15:38:31.999Z</time></trkpt><trkpt lat="43.28937395885153" lon="11.318339539893197"><ele>261.0</ele><time>2026-04-06T15:38:32.999Z</time></trkpt><trkpt lat="43.28917592869468" lon="11.318367599423395"><ele>261.0</ele><time>2026-04-06T15:38:33.999Z</time></trkpt><trkpt lat="43.28899946170099" lon="11.31839648671076"><ele>261.0</ele><time>2026-04-06T15:38:34.999Z</time></trkpt><trkpt lat="43.28882316252485" lon="11.318423532130288"><ele>259.6666666666667</ele><time>2026-04-06T15:38:35.999Z</time></trkpt><trkpt lat="43.288639500004514" lon="11.318451708863144"><ele>258.33333333333337</ele><time>2026-04-06T15:38:36.999Z</time></trkpt><trkpt lat="43.288451454752156" lon="11.318482041993686"><ele>257.0</ele><time>2026-04-06T15:38:37.999Z</time></trkpt><trkpt lat="43.2882802883269" lon="11.31850952185114"><ele>257.0</ele><time>2026-04-06T15:38:38.999Z</time></trkpt><trkpt lat="43.28810550263203" lon="11.318535475759061"><ele>257.0</ele><time>2026-04-06T15:38:39.999Z</time></trkpt><trkpt lat="43.287943297480375" lon="11.318548329766813"><ele>257.0</ele><time>2026-04-06T15:38:41.001Z</time></trkpt><trkpt lat="43.2877802996622" lon="11.318528594151326"><ele>257.33333333333337</ele><time>2026-04-06T15:38:42.001Z</time></trkpt><trkpt lat="43.28762039418744" lon="11.318498781380363"><ele>257.6666666666667</ele><time>2026-04-06T15:38:43Z</time></trkpt><trkpt lat="43.287451541640664" lon="11.3184511481553"><ele>258.0</ele><time>2026-04-06T15:38:44.001Z</time></trkpt><trkpt lat="43.28727390211534" lon="11.318380365838104"><ele>258.0</ele><time>2026-04-06T15:38:45.001Z</time></trkpt><trkpt lat="43.287105652854365" lon="11.318302643753203"><ele>258.0</ele><time>2026-04-06T15:38:46Z</time></trkpt><trkpt lat="43.28694129995384" lon="11.318226721614591"><ele>258.0</ele><time>2026-04-06T15:38:47Z</time></trkpt><trkpt lat="43.28678261754064" lon="11.318153418896038"><ele>258.0</ele><time>2026-04-06T15:38:48.001Z</time></trkpt><trkpt lat="43.28661592929321" lon="11.318074838453258"><ele>258.0</ele><time>2026-04-06T15:38:49Z</time></trkpt><trkpt lat="43.28644926827588" lon="11.318004567374475"><ele>258.0</ele><time>2026-04-06T15:38:50Z</time></trkpt><trkpt lat="43.286285904083414" lon="11.317947781384522"><ele>257.0</ele><time>2026-04-06T15:38:51Z</time></trkpt><trkpt lat="43.286127119872475" lon="11.317909672844312"><ele>256.0</ele><time>2026-04-06T15:38:52Z</time></trkpt><trkpt lat="43.285976121878825" lon="11.317903863066697"><ele>255.0</ele><time>2026-04-06T15:38:53Z</time></trkpt><trkpt lat="43.28583004086359" lon="11.317994038480908"><ele>254.75</ele><time>2026-04-06T15:38:54Z</time></trkpt><trkpt lat="43.28573307446398" lon="11.3181426102614"><ele>254.5</ele><time>2026-04-06T15:38:55Z</time></trkpt><trkpt lat="43.28563802775606" lon="11.318282049540832"><ele>254.25</ele><time>2026-04-06T15:38:56Z</time></trkpt><trkpt lat="43.28552150217536" lon="11.318394335006584"><ele>254.0</ele><time>2026-04-06T15:38:57Z</time></trkpt><trkpt lat="43.28538423787657" lon="11.318483629917628"><ele>254.5</ele><time>2026-04-06T15:38:58Z</time></trkpt><trkpt lat="43.28524173241086" lon="11.318505239179746"><ele>255.0</ele><time>2026-04-06T15:38:59Z</time></trkpt><trkpt lat="43.28511020684947" lon="11.318553614719743"><ele>255.5</ele><time>2026-04-06T15:39:00Z</time></trkpt><trkpt lat="43.28498184697053" lon="11.318564229344668"><ele>256.0</ele><time>2026-04-06T15:39:01Z</time></trkpt><trkpt lat="43.284846466754225" lon="11.31852620352643"><ele>255.0</ele><time>2026-04-06T15:39:02Z</time></trkpt><trkpt lat="43.284707353900366" lon="11.318477758866074"><ele>254.0</ele><time>2026-04-06T15:39:03Z</time></trkpt><trkpt lat="43.2845587405711" lon="11.31842357148613"><ele>253.0</ele><time>2026-04-06T15:39:04Z</time></trkpt><trkpt lat="43.28438863097831" lon="11.318381266304677"><ele>253.0</ele><time>2026-04-06T15:39:05Z</time></trkpt><trkpt lat="43.28422692605901" lon="11.318369584285412"><ele>253.0</ele><time>2026-04-06T15:39:06Z</time></trkpt><trkpt lat="43.28406965132387" lon="11.318389601251232"><ele>253.0</ele><time>2026-04-06T15:39:07Z</time></trkpt><trkpt lat="43.283910534009216" lon="11.318446676724923"><ele>251.66666666666666</ele><time>2026-04-06T15:39:08Z</time></trkpt><trkpt lat="43.28375707719111" lon="11.318517171296586"><ele>250.33333333333331</ele><time>2026-04-06T15:39:09Z</time></trkpt><trkpt lat="43.2836398813058" lon="11.318630597591833"><ele>249.0</ele><time>2026-04-06T15:39:10Z</time></trkpt><trkpt lat="43.28353350987077" lon="11.318777869877817"><ele>250.25</ele><time>2026-04-06T15:39:11Z</time></trkpt><trkpt lat="43.28345696405839" lon="11.31895455620566"><ele>251.5</ele><time>2026-04-06T15:39:12Z</time></trkpt><trkpt lat="43.28340583944695" lon="11.319143075891322"><ele>252.75</ele><time>2026-04-06T15:39:13Z</time></trkpt><trkpt lat="43.28331454657675" lon="11.31930317725409"><ele>254.0</ele><time>2026-04-06T15:39:14Z</time></trkpt><trkpt lat="43.28321359532378" lon="11.31947242625027"><ele>254.0</ele><time>2026-04-06T15:39:15Z</time></trkpt><trkpt lat="43.28310357062488" lon="11.319667615068786"><ele>254.0</ele><time>2026-04-06T15:39:16Z</time></trkpt><trkpt lat="43.28299671136589" lon="11.319903003261349"><ele>254.0</ele><time>2026-04-06T15:39:17Z</time></trkpt><trkpt lat="43.28287342552121" lon="11.320056878363"><ele>253.33333333333334</ele><time>2026-04-06T15:39:18Z</time></trkpt><trkpt lat="43.28274403703695" lon="11.320189830555366"><ele>252.66666666666669</ele><time>2026-04-06T15:39:19Z</time></trkpt><trkpt lat="43.282587346587135" lon="11.32031140069359"><ele>252.0</ele><time>2026-04-06T15:39:20Z</time></trkpt><trkpt lat="43.28242834360889" lon="11.320417565482321"><ele>252.0</ele><time>2026-04-06T15:39:21Z</time></trkpt><trkpt lat="43.2822722482491" lon="11.3205016730892"><ele>252.0</ele><time>2026-04-06T15:39:22Z</time></trkpt><trkpt lat="43.28209685766764" lon="11.320569664608886"><ele>252.0</ele><time>2026-04-06T15:39:23Z</time></trkpt><trkpt lat="43.28191996771238" lon="11.320645494290488"><ele>251.66666666666669</ele><time>2026-04-06T15:39:24Z</time></trkpt><trkpt lat="43.281737603336474" lon="11.320701410171171"><ele>251.33333333333334</ele><time>2026-04-06T15:39:25Z</time></trkpt><trkpt lat="43.281553322411185" lon="11.320754527621107"><ele>251.0</ele><time>2026-04-06T15:39:26Z</time></trkpt><trkpt lat="43.28136650497088" lon="11.320813932397533"><ele>250.0</ele><time>2026-04-06T15:39:27Z</time></trkpt><trkpt lat="43.2811941840369" lon="11.320894626439074"><ele>249.0</ele><time>2026-04-06T15:39:28Z</time></trkpt><trkpt lat="43.2810288083615" lon="11.321002124934209"><ele>248.0</ele><time>2026-04-06T15:39:29Z</time></trkpt><trkpt lat="43.280868960974665" lon="11.3211152341979"><ele>248.0</ele><time>2026-04-06T15:39:30Z</time></trkpt><trkpt lat="43.28072082953817" lon="11.321219084968934"><ele>248.0</ele><time>2026-04-06T15:39:31Z</time></trkpt><trkpt lat="43.28059914711539" lon="11.321335321395086"><ele>248.0</ele><time>2026-04-06T15:39:32Z</time></trkpt><trkpt lat="43.280479544852014" lon="11.321474786258703"><ele>247.0</ele><time>2026-04-06T15:39:33Z</time></trkpt><trkpt lat="43.28037538310317" lon="11.321643694089254"><ele>246.0</ele><time>2026-04-06T15:39:34Z</time></trkpt><trkpt lat="43.28030129855997" lon="11.321849427597709"><ele>245.0</ele><time>2026-04-06T15:39:35Z</time></trkpt><trkpt lat="43.28023785291894" lon="11.322076670082744"><ele>246.0</ele><time>2026-04-06T15:39:36Z</time></trkpt><trkpt lat="43.28016045811243" lon="11.322296319793802"><ele>247.0</ele><time>2026-04-06T15:39:37Z</time></trkpt><trkpt lat="43.280059685128684" lon="11.322506090346781"><ele>248.0</ele><time>2026-04-06T15:39:38Z</time></trkpt><trkpt lat="43.27993917857666" lon="11.322694187313942"><ele>248.0</ele><time>2026-04-06T15:39:39Z</time></trkpt><trkpt lat="43.27980464463363" lon="11.322863867663164"><ele>248.0</ele><time>2026-04-06T15:39:40Z</time></trkpt><trkpt lat="43.279669345688696" lon="11.323020985534592"><ele>248.0</ele><time>2026-04-06T15:39:41Z</time></trkpt><trkpt lat="43.27952654315558" lon="11.32316524182089"><ele>247.33333333333334</ele><time>2026-04-06T15:39:42Z</time></trkpt><trkpt lat="43.2793591824611" lon="11.323249290240359"><ele>246.66666666666669</ele><time>2026-04-06T15:39:43Z</time></trkpt><trkpt lat="43.27918342439693" lon="11.323320398788095"><ele>246.0</ele><time>2026-04-06T15:39:44Z</time></trkpt><trkpt lat="43.27900897502057" lon="11.32337310951212"><ele>245.33333333333331</ele><time>2026-04-06T15:39:45Z</time></trkpt><trkpt lat="43.27884305060341" lon="11.32346209232568"><ele>244.66666666666666</ele><time>2026-04-06T15:39:46Z</time></trkpt><trkpt lat="43.27867644777586" lon="11.32357503430571"><ele>244.0</ele><time>2026-04-06T15:39:47Z</time></trkpt><trkpt lat="43.278525858086056" lon="11.32371700469626"><ele>244.0</ele><time>2026-04-06T15:39:48Z</time></trkpt><trkpt lat="43.27837755300897" lon="11.323843789189516"><ele>244.0</ele><time>2026-04-06T15:39:49Z</time></trkpt><trkpt lat="43.27821846240763" lon="11.323955800025459"><ele>244.0</ele><time>2026-04-06T15:39:50Z</time></trkpt><trkpt lat="43.278033124225196" lon="11.324063765741375"><ele>244.66666666666666</ele><time>2026-04-06T15:39:51Z</time></trkpt><trkpt lat="43.27786081323602" lon="11.324163613822297"><ele>245.33333333333331</ele><time>2026-04-06T15:39:52Z</time></trkpt><trkpt lat="43.27768047833704" lon="11.324268024609777"><ele>246.0</ele><time>2026-04-06T15:39:52.999Z</time></trkpt><trkpt lat="43.27750616140223" lon="11.32438300330608"><ele>246.0</ele><time>2026-04-06T15:39:53.999Z</time></trkpt><trkpt lat="43.27733683766704" lon="11.324552223121458"><ele>246.0</ele><time>2026-04-06T15:39:54.999Z</time></trkpt><trkpt lat="43.277195223447706" lon="11.324738520555078"><ele>246.0</ele><time>2026-04-06T15:39:55.999Z</time></trkpt><trkpt lat="43.277069381163635" lon="11.324918324556014"><ele>245.33333333333331</ele><time>2026-04-06T15:39:56.999Z</time></trkpt><trkpt lat="43.27693241319008" lon="11.325119627393608"><ele>244.66666666666666</ele><time>2026-04-06T15:39:57.999Z</time></trkpt><trkpt lat="43.276801733592706" lon="11.325336778225166"><ele>244.0</ele><time>2026-04-06T15:39:58.999Z</time></trkpt><trkpt lat="43.27667444563686" lon="11.32555492367924"><ele>245.0</ele><time>2026-04-06T15:39:59.999Z</time></trkpt><trkpt lat="43.27654826337011" lon="11.325773480566612"><ele>246.0</ele><time>2026-04-06T15:40:00.999Z</time></trkpt><trkpt lat="43.27642021987015" lon="11.325994675485175"><ele>247.0</ele><time>2026-04-06T15:40:01.999Z</time></trkpt><trkpt lat="43.27629081165087" lon="11.326217286414966"><ele>248.33333333333331</ele><time>2026-04-06T15:40:02.999Z</time></trkpt><trkpt lat="43.27616360362039" lon="11.326437248936488"><ele>249.66666666666669</ele><time>2026-04-06T15:40:03.999Z</time></trkpt><trkpt lat="43.276039069234976" lon="11.326652778766425"><ele>251.0</ele><time>2026-04-06T15:40:04.999Z</time></trkpt><trkpt lat="43.27590527482258" lon="11.326850602877737"><ele>251.0</ele><time>2026-04-06T15:40:05.999Z</time></trkpt><trkpt lat="43.275757264917296" lon="11.327032261133175"><ele>251.0</ele><time>2026-04-06T15:40:06.999Z</time></trkpt><trkpt lat="43.27559658928991" lon="11.327222008023961"><ele>251.0</ele><time>2026-04-06T15:40:07.999Z</time></trkpt><trkpt lat="43.275438944476726" lon="11.327407749468787"><ele>250.0</ele><time>2026-04-06T15:40:08.999Z</time></trkpt><trkpt lat="43.275283932778166" lon="11.327590388682314"><ele>249.0</ele><time>2026-04-06T15:40:09.999Z</time></trkpt><trkpt lat="43.27513170971664" lon="11.327769742210348"><ele>248.0</ele><time>2026-04-06T15:40:10.999Z</time></trkpt><trkpt lat="43.274981492007264" lon="11.327947309453023"><ele>248.33333333333334</ele><time>2026-04-06T15:40:11.999Z</time></trkpt><trkpt lat="43.274847258903236" lon="11.328139827101387"><ele>248.66666666666669</ele><time>2026-04-06T15:40:12.999Z</time></trkpt><trkpt lat="43.274716182706285" lon="11.328329849624101"><ele>249.0</ele><time>2026-04-06T15:40:13.999Z</time></trkpt><trkpt lat="43.27460684613119" lon="11.32854996556868"><ele>249.33333333333331</ele><time>2026-04-06T15:40:14.999Z</time></trkpt><trkpt lat="43.27452353136456" lon="11.328787348343116"><ele>249.66666666666666</ele><time>2026-04-06T15:40:15.999Z</time></trkpt><trkpt lat="43.27443778682514" lon="11.32901931065279"><ele>250.0</ele><time>2026-04-06T15:40:16.999Z</time></trkpt><trkpt lat="43.27433440396409" lon="11.329224119104671"><ele>250.0</ele><time>2026-04-06T15:40:17.999Z</time></trkpt><trkpt lat="43.274218681175384" lon="11.32942381340761"><ele>250.0</ele><time>2026-04-06T15:40:18.999Z</time></trkpt><trkpt lat="43.2740792290642" lon="11.329611625976355"><ele>250.0</ele><time>2026-04-06T15:40:19.999Z</time></trkpt><trkpt lat="43.27392518313031" lon="11.329791693906143"><ele>246.33333333333331</ele><time>2026-04-06T15:40:20.999Z</time></trkpt><trkpt lat="43.27375098993223" lon="11.329934197760048"><ele>242.66666666666669</ele><time>2026-04-06T15:40:21.999Z</time></trkpt><trkpt lat="43.273577360875244" lon="11.33008020155307"><ele>239.0</ele><time>2026-04-06T15:40:22.999Z</time></trkpt><trkpt lat="43.27340915505929" lon="11.33021324497369"><ele>239.0</ele><time>2026-04-06T15:40:23.999Z</time></trkpt><trkpt lat="43.273228641612505" lon="11.33033711658186"><ele>239.0</ele><time>2026-04-06T15:40:24.999Z</time></trkpt><trkpt lat="43.273051956940925" lon="11.330448389214984"><ele>239.0</ele><time>2026-04-06T15:40:25.999Z</time></trkpt><trkpt lat="43.27287184733228" lon="11.33054136811665"><ele>239.66666666666669</ele><time>2026-04-06T15:40:26.999Z</time></trkpt><trkpt lat="43.272689407911855" lon="11.330606330498316"><ele>240.33333333333331</ele><time>2026-04-06T15:40:27.999Z</time></trkpt><trkpt lat="43.272508315657944" lon="11.33065835202338"><ele>241.0</ele><time>2026-04-06T15:40:28.999Z</time></trkpt><trkpt lat="43.27233296798384" lon="11.330703374750716"><ele>240.66666666666666</ele><time>2026-04-06T15:40:29.999Z</time></trkpt><trkpt lat="43.27215419657782" lon="11.330742595408038"><ele>240.33333333333331</ele><time>2026-04-06T15:40:30.999Z</time></trkpt><trkpt lat="43.2719938168264" lon="11.330764846313825"><ele>240.0</ele><time>2026-04-06T15:40:31.999Z</time></trkpt><trkpt lat="43.27183401264098" lon="11.330768134622025"><ele>240.0</ele><time>2026-04-06T15:40:32.999Z</time></trkpt><trkpt lat="43.27167082094862" lon="11.330778983238254"><ele>240.0</ele><time>2026-04-06T15:40:33.999Z</time></trkpt><trkpt lat="43.27148613188207" lon="11.330808495301486"><ele>240.0</ele><time>2026-04-06T15:40:34.999Z</time></trkpt><trkpt lat="43.271300182586046" lon="11.330862955470105"><ele>239.66666666666669</ele><time>2026-04-06T15:40:35.999Z</time></trkpt><trkpt lat="43.27112690224413" lon="11.330923513278687"><ele>239.33333333333334</ele><time>2026-04-06T15:40:36.999Z</time></trkpt><trkpt lat="43.27095217314742" lon="11.330990958481198"><ele>239.0</ele><time>2026-04-06T15:40:37.999Z</time></trkpt><trkpt lat="43.27077155935517" lon="11.33109196299872"><ele>238.0</ele><time>2026-04-06T15:40:38.999Z</time></trkpt><trkpt lat="43.2705741236541" lon="11.331235283124085"><ele>237.0</ele><time>2026-04-06T15:40:39.999Z</time></trkpt><trkpt lat="43.27039483948761" lon="11.331412881604114"><ele>236.0</ele><time>2026-04-06T15:40:40.999Z</time></trkpt><trkpt lat="43.27023589301761" lon="11.331598427610164"><ele>236.0</ele><time>2026-04-06T15:40:41.999Z</time></trkpt><trkpt lat="43.27007984992013" lon="11.33178600149191"><ele>236.0</ele><time>2026-04-06T15:40:42.999Z</time></trkpt><trkpt lat="43.269915431020706" lon="11.331983643691496"><ele>236.0</ele><time>2026-04-06T15:40:43.999Z</time></trkpt><trkpt lat="43.269746698432776" lon="11.332183285355882"><ele>234.66666666666669</ele><time>2026-04-06T15:40:44.999Z</time></trkpt><trkpt lat="43.26957524477046" lon="11.3323855896326"><ele>233.33333333333331</ele><time>2026-04-06T15:40:45.999Z</time></trkpt><trkpt lat="43.26940985581154" lon="11.332580738253576"><ele>232.0</ele><time>2026-04-06T15:40:47.001Z</time></trkpt><trkpt lat="43.26924421933592" lon="11.332768232195011"><ele>232.0</ele><time>2026-04-06T15:40:48.001Z</time></trkpt><trkpt lat="43.26907281825809" lon="11.332911641125033"><ele>232.0</ele><time>2026-04-06T15:40:49.001Z</time></trkpt><trkpt lat="43.26890264251779" lon="11.333018186738864"><ele>232.0</ele><time>2026-04-06T15:40:50.001Z</time></trkpt><trkpt lat="43.26872138986261" lon="11.33307901782185"><ele>232.0</ele><time>2026-04-06T15:40:51.001Z</time></trkpt><trkpt lat="43.26853709852701" lon="11.333113637599078"><ele>232.0</ele><time>2026-04-06T15:40:52.001Z</time></trkpt><trkpt lat="43.26835176546466" lon="11.333114224514066"><ele>232.0</ele><time>2026-04-06T15:40:53.001Z</time></trkpt><trkpt lat="43.268148621829084" lon="11.33310097808112"><ele>232.0</ele><time>2026-04-06T15:40:54.001Z</time></trkpt><trkpt lat="43.26794030554818" lon="11.333087394329315"><ele>232.0</ele><time>2026-04-06T15:40:55.001Z</time></trkpt><trkpt lat="43.26773555218603" lon="11.333074042932104"><ele>232.0</ele><time>2026-04-06T15:40:56.001Z</time></trkpt><trkpt lat="43.26752553611605" lon="11.333060348323022"><ele>232.0</ele><time>2026-04-06T15:40:57.001Z</time></trkpt><trkpt lat="43.267321995578214" lon="11.333052511787805"><ele>232.0</ele><time>2026-04-06T15:40:58.001Z</time></trkpt><trkpt lat="43.267128148600136" lon="11.333056513413693"><ele>232.0</ele><time>2026-04-06T15:40:59.001Z</time></trkpt><trkpt lat="43.26692022863266" lon="11.333077054148296"><ele>232.0</ele><time>2026-04-06T15:41:00.001Z</time></trkpt><trkpt lat="43.26672099008597" lon="11.333106321030225"><ele>232.0</ele><time>2026-04-06T15:41:01.001Z</time></trkpt><trkpt lat="43.26652694056743" lon="11.333142084890902"><ele>232.0</ele><time>2026-04-06T15:41:02.001Z</time></trkpt><trkpt lat="43.2663331860422" lon="11.333180992365174"><ele>231.0</ele><time>2026-04-06T15:41:03.001Z</time></trkpt><trkpt lat="43.26613760777376" lon="11.333223901605498"><ele>230.0</ele><time>2026-04-06T15:41:04.001Z</time></trkpt><trkpt lat="43.26594230610953" lon="11.333270119519185"><ele>229.0</ele><time>2026-04-06T15:41:05.001Z</time></trkpt><trkpt lat="43.26573783371082" lon="11.333337903698"><ele>228.0</ele><time>2026-04-06T15:41:06.001Z</time></trkpt><trkpt lat="43.26553674806774" lon="11.333415809553681"><ele>227.0</ele><time>2026-04-06T15:41:07.001Z</time></trkpt><trkpt lat="43.265334440982755" lon="11.333511047098416"><ele>226.0</ele><time>2026-04-06T15:41:08.001Z</time></trkpt><trkpt lat="43.26514191792592" lon="11.333601259817478"><ele>226.0</ele><time>2026-04-06T15:41:09.001Z</time></trkpt><trkpt lat="43.264943586263236" lon="11.333697787195803"><ele>226.0</ele><time>2026-04-06T15:41:10Z</time></trkpt><trkpt lat="43.26474612956059" lon="11.333789263245801"><ele>226.0</ele><time>2026-04-06T15:41:11Z</time></trkpt><trkpt lat="43.264542276312405" lon="11.333864465940884"><ele>226.0</ele><time>2026-04-06T15:41:12Z</time></trkpt><trkpt lat="43.2643326470582" lon="11.333919138290522"><ele>226.0</ele><time>2026-04-06T15:41:13Z</time></trkpt><trkpt lat="43.264118929845125" lon="11.333959911527792"><ele>226.0</ele><time>2026-04-06T15:41:14Z</time></trkpt><trkpt lat="43.26390325948336" lon="11.334002345312877"><ele>226.0</ele><time>2026-04-06T15:41:15Z</time></trkpt><trkpt lat="43.26368832224913" lon="11.334061864314217"><ele>226.0</ele><time>2026-04-06T15:41:16Z</time></trkpt><trkpt lat="43.26348204443954" lon="11.334142561970365"><ele>226.0</ele><time>2026-04-06T15:41:17Z</time></trkpt><trkpt lat="43.263282188618376" lon="11.334247104768835"><ele>225.66666666666666</ele><time>2026-04-06T15:41:18Z</time></trkpt><trkpt lat="43.263090489105515" lon="11.33438753640653"><ele>225.33333333333331</ele><time>2026-04-06T15:41:19Z</time></trkpt><trkpt lat="43.26289951192179" lon="11.334537518868746"><ele>225.0</ele><time>2026-04-06T15:41:20Z</time></trkpt><trkpt lat="43.26271120811085" lon="11.334686557212581"><ele>223.66666666666669</ele><time>2026-04-06T15:41:21Z</time></trkpt><trkpt lat="43.262535170943096" lon="11.334825886766405"><ele>222.33333333333334</ele><time>2026-04-06T15:41:22Z</time></trkpt><trkpt lat="43.26236116487845" lon="11.334967212995466"><ele>221.0</ele><time>2026-04-06T15:41:23Z</time></trkpt><trkpt lat="43.2621908554117" lon="11.3350820157209"><ele>220.33333333333334</ele><time>2026-04-06T15:41:24Z</time></trkpt><trkpt lat="43.26201321606981" lon="11.33514543810661"><ele>219.66666666666669</ele><time>2026-04-06T15:41:25Z</time></trkpt><trkpt lat="43.261841614926254" lon="11.335127471763181"><ele>219.0</ele><time>2026-04-06T15:41:26Z</time></trkpt><trkpt lat="43.26167383120108" lon="11.335045360999949"><ele>219.0</ele><time>2026-04-06T15:41:27Z</time></trkpt><trkpt lat="43.26151024778762" lon="11.334920809871477"><ele>219.0</ele><time>2026-04-06T15:41:28Z</time></trkpt><trkpt lat="43.26134242385419" lon="11.334812067333095"><ele>219.0</ele><time>2026-04-06T15:41:29Z</time></trkpt><trkpt lat="43.261176476525044" lon="11.334669509744906"><ele>217.0</ele><time>2026-04-06T15:41:30Z</time></trkpt><trkpt lat="43.261007125498615" lon="11.334557086190472"><ele>215.0</ele><time>2026-04-06T15:41:31Z</time></trkpt><trkpt lat="43.260844050504765" lon="11.334448828976067"><ele>213.0</ele><time>2026-04-06T15:41:32Z</time></trkpt><trkpt lat="43.26067067210406" lon="11.334344660701195"><ele>214.5</ele><time>2026-04-06T15:41:33Z</time></trkpt><trkpt lat="43.26041444651927" lon="11.334470999930971"><ele>216.0</ele><time>2026-04-06T15:41:34Z</time></trkpt><trkpt lat="43.26021986890953" lon="11.334451463486479"><ele>216.0</ele><time>2026-04-06T15:41:35Z</time></trkpt><trkpt lat="43.26002911677904" lon="11.334468881221966"><ele>216.0</ele><time>2026-04-06T15:41:36Z</time></trkpt><trkpt lat="43.259843876815225" lon="11.334528855393405"><ele>216.0</ele><time>2026-04-06T15:41:37Z</time></trkpt><trkpt lat="43.259669228452104" lon="11.334611465751768"><ele>217.33333333333331</ele><time>2026-04-06T15:41:38Z</time></trkpt><trkpt lat="43.25949036138998" lon="11.334704975302074"><ele>218.66666666666666</ele><time>2026-04-06T15:41:39Z</time></trkpt><trkpt lat="43.259303547044816" lon="11.334784850388788"><ele>220.0</ele><time>2026-04-06T15:41:40Z</time></trkpt><trkpt lat="43.25911338333342" lon="11.334854275519161"><ele>222.66666666666666</ele><time>2026-04-06T15:41:41Z</time></trkpt><trkpt lat="43.25892292500536" lon="11.334902841358492"><ele>225.33333333333331</ele><time>2026-04-06T15:41:42Z</time></trkpt><trkpt lat="43.25873760184778" lon="11.334918002906976"><ele>228.0</ele><time>2026-04-06T15:41:43Z</time></trkpt><trkpt lat="43.25855855176777" lon="11.334914096160821"><ele>228.0</ele><time>2026-04-06T15:41:44Z</time></trkpt><trkpt lat="43.25838620194036" lon="11.334964168983698"><ele>228.0</ele><time>2026-04-06T15:41:45Z</time></trkpt><trkpt lat="43.25821716363245" lon="11.335062605428215"><ele>228.0</ele><time>2026-04-06T15:41:46Z</time></trkpt><trkpt lat="43.258043788120474" lon="11.335166928698017"><ele>228.0</ele><time>2026-04-06T15:41:47Z</time></trkpt><trkpt lat="43.25786413723744" lon="11.335238357273575"><ele>228.0</ele><time>2026-04-06T15:41:48Z</time></trkpt><trkpt lat="43.257677066412974" lon="11.335276039472722"><ele>228.0</ele><time>2026-04-06T15:41:49Z</time></trkpt><trkpt lat="43.25748169790126" lon="11.33527812186961"><ele>226.66666666666669</ele><time>2026-04-06T15:41:50Z</time></trkpt><trkpt lat="43.25728118496763" lon="11.335271540957107"><ele>225.33333333333334</ele><time>2026-04-06T15:41:51Z</time></trkpt><trkpt lat="43.257078452824814" lon="11.335263601619609"><ele>224.0</ele><time>2026-04-06T15:41:52Z</time></trkpt><trkpt lat="43.25687145079258" lon="11.335263344876358"><ele>224.0</ele><time>2026-04-06T15:41:53Z</time></trkpt><trkpt lat="43.25665954575249" lon="11.335259668115434"><ele>224.0</ele><time>2026-04-06T15:41:54Z</time></trkpt><trkpt lat="43.25644641754366" lon="11.335253238274847"><ele>224.0</ele><time>2026-04-06T15:41:55Z</time></trkpt><trkpt lat="43.2562329198276" lon="11.335251473433033"><ele>223.66666666666669</ele><time>2026-04-06T15:41:56Z</time></trkpt><trkpt lat="43.25602608010507" lon="11.335250543987417"><ele>223.33333333333331</ele><time>2026-04-06T15:41:57Z</time></trkpt><trkpt lat="43.25582465515316" lon="11.335244050103112"><ele>223.0</ele><time>2026-04-06T15:41:58Z</time></trkpt><trkpt lat="43.25563599092577" lon="11.335229037881417"><ele>224.0</ele><time>2026-04-06T15:41:59Z</time></trkpt><trkpt lat="43.255452500223385" lon="11.3352013968957"><ele>225.0</ele><time>2026-04-06T15:42:00Z</time></trkpt><trkpt lat="43.25527475181576" lon="11.335135864976639"><ele>226.0</ele><time>2026-04-06T15:42:01Z</time></trkpt><trkpt lat="43.25510800180206" lon="11.335017357860817"><ele>226.0</ele><time>2026-04-06T15:42:02Z</time></trkpt><trkpt lat="43.254976429185874" lon="11.334845317645602"><ele>226.0</ele><time>2026-04-06T15:42:03Z</time></trkpt><trkpt lat="43.254882604648266" lon="11.334662277919591"><ele>226.0</ele><time>2026-04-06T15:42:04Z</time></trkpt><trkpt lat="43.254774300064476" lon="11.334506648956195"><ele>223.0</ele><time>2026-04-06T15:42:05Z</time></trkpt><trkpt lat="43.25463629811232" lon="11.33439777810212"><ele>220.0</ele><time>2026-04-06T15:42:06Z</time></trkpt><trkpt lat="43.254486777597826" lon="11.334315716827618"><ele>217.0</ele><time>2026-04-06T15:42:07Z</time></trkpt><trkpt lat="43.25433203557572" lon="11.334251385585908"><ele>217.0</ele><time>2026-04-06T15:42:07.999Z</time></trkpt><trkpt lat="43.254174428177684" lon="11.334239147169464"><ele>217.0</ele><time>2026-04-06T15:42:08.999Z</time></trkpt><trkpt lat="43.25402953773194" lon="11.334269149652949"><ele>217.0</ele><time>2026-04-06T15:42:09.999Z</time></trkpt><trkpt lat="43.25390999363068" lon="11.334367400941499"><ele>217.0</ele><time>2026-04-06T15:42:10.999Z</time></trkpt><trkpt lat="43.25379854707755" lon="11.334491669686546"><ele>215.25</ele><time>2026-04-06T15:42:11.999Z</time></trkpt><trkpt lat="43.25371337508889" lon="11.334644921000221"><ele>213.5</ele><time>2026-04-06T15:42:12.999Z</time></trkpt><trkpt lat="43.253661789242464" lon="11.334794242815397"><ele>211.75</ele><time>2026-04-06T15:42:13.999Z</time></trkpt><trkpt lat="43.25363535984784" lon="11.334960877136737"><ele>210.0</ele><time>2026-04-06T15:42:14.999Z</time></trkpt><trkpt lat="43.25362165474653" lon="11.335136551753541"><ele>210.0</ele><time>2026-04-06T15:42:15.999Z</time></trkpt><trkpt lat="43.253633706403946" lon="11.335334786969398"><ele>210.0</ele><time>2026-04-06T15:42:16.999Z</time></trkpt><trkpt lat="43.253634853870246" lon="11.335509414451693"><ele>210.0</ele><time>2026-04-06T15:42:17.999Z</time></trkpt><trkpt lat="43.253668943211686" lon="11.33567494399361"><ele>210.0</ele><time>2026-04-06T15:42:18.999Z</time></trkpt><trkpt lat="43.253625897457596" lon="11.335842175090225"><ele>211.25</ele><time>2026-04-06T15:42:19.999Z</time></trkpt><trkpt lat="43.25357660192567" lon="11.335975597126582"><ele>212.5</ele><time>2026-04-06T15:42:20.999Z</time></trkpt><trkpt lat="43.25349196818187" lon="11.33608656584895"><ele>213.75</ele><time>2026-04-06T15:42:21.999Z</time></trkpt><trkpt lat="43.253392258743844" lon="11.336153002822781"><ele>215.0</ele><time>2026-04-06T15:42:22.999Z</time></trkpt><trkpt lat="43.25327431965263" lon="11.336164979523481"><ele>215.0</ele><time>2026-04-06T15:42:23.999Z</time></trkpt><trkpt lat="43.253156240118" lon="11.336128565305271"><ele>215.0</ele><time>2026-04-06T15:42:24.999Z</time></trkpt><trkpt lat="43.25303693720975" lon="11.336061621986298"><ele>215.0</ele><time>2026-04-06T15:42:25.999Z</time></trkpt><trkpt lat="43.252923548673415" lon="11.335983740857445"><ele>215.0</ele><time>2026-04-06T15:42:26.999Z</time></trkpt><trkpt lat="43.252789701516974" lon="11.335923925997497"><ele>214.33333333333334</ele><time>2026-04-06T15:42:27.999Z</time></trkpt><trkpt lat="43.25264432328179" lon="11.335873331293731"><ele>213.66666666666669</ele><time>2026-04-06T15:42:28.999Z</time></trkpt><trkpt lat="43.25249017264067" lon="11.335823292622763"><ele>213.0</ele><time>2026-04-06T15:42:29.999Z</time></trkpt><trkpt lat="43.25233078326834" lon="11.33580489867709"><ele>211.66666666666669</ele><time>2026-04-06T15:42:30.999Z</time></trkpt><trkpt lat="43.25216355064113" lon="11.335840251978013"><ele>210.33333333333334</ele><time>2026-04-06T15:42:31.999Z</time></trkpt><trkpt lat="43.25200346762577" lon="11.335906981586541"><ele>209.0</ele><time>2026-04-06T15:42:32.999Z</time></trkpt><trkpt lat="43.25184563022667" lon="11.33600626589641"><ele>209.0</ele><time>2026-04-06T15:42:33.999Z</time></trkpt><trkpt lat="43.25168604691092" lon="11.336130036125576"><ele>209.0</ele><time>2026-04-06T15:42:34.999Z</time></trkpt><trkpt lat="43.25154950705959" lon="11.336267081442243"><ele>209.0</ele><time>2026-04-06T15:42:35.999Z</time></trkpt><trkpt lat="43.25139913786602" lon="11.336403261490974"><ele>207.66666666666669</ele><time>2026-04-06T15:42:36.999Z</time></trkpt><trkpt lat="43.25124734297814" lon="11.336497483321875"><ele>206.33333333333331</ele><time>2026-04-06T15:42:37.999Z</time></trkpt><trkpt lat="43.25111903193377" lon="11.336643205772935"><ele>205.0</ele><time>2026-04-06T15:42:38.999Z</time></trkpt><trkpt lat="43.251007800869814" lon="11.336807594025332"><ele>205.0</ele><time>2026-04-06T15:42:39.999Z</time></trkpt><trkpt lat="43.250919470699095" lon="11.336988405848395"><ele>205.0</ele><time>2026-04-06T15:42:40.999Z</time></trkpt><trkpt lat="43.250874820013664" lon="11.33718807102327"><ele>205.0</ele><time>2026-04-06T15:42:41.999Z</time></trkpt><trkpt lat="43.25084089312372" lon="11.337379262868147"><ele>205.5</ele><time>2026-04-06T15:42:42.999Z</time></trkpt><trkpt lat="43.25082815357533" lon="11.337566502270953"><ele>206.0</ele><time>2026-04-06T15:42:43.999Z</time></trkpt><trkpt lat="43.25084331375007" lon="11.337754013556262"><ele>206.5</ele><time>2026-04-06T15:42:44.999Z</time></trkpt><trkpt lat="43.250876997937596" lon="11.33794132379689"><ele>207.0</ele><time>2026-04-06T15:42:45.999Z</time></trkpt><trkpt lat="43.25089842707278" lon="11.33812270064216"><ele>206.0</ele><time>2026-04-06T15:42:46.999Z</time></trkpt><trkpt lat="43.25093604652694" lon="11.338298318934909"><ele>205.0</ele><time>2026-04-06T15:42:47.999Z</time></trkpt><trkpt lat="43.25096637902531" lon="11.338472959743218"><ele>204.0</ele><time>2026-04-06T15:42:48.999Z</time></trkpt><trkpt lat="43.250986166759056" lon="11.338645871669488"><ele>203.0</ele><time>2026-04-06T15:42:49.999Z</time></trkpt><trkpt lat="43.25100022711228" lon="11.33881987747276"><ele>202.25</ele><time>2026-04-06T15:42:50.999Z</time></trkpt><trkpt lat="43.25099904851121" lon="11.338990087412125"><ele>201.5</ele><time>2026-04-06T15:42:51.999Z</time></trkpt><trkpt lat="43.25100869248125" lon="11.339159471735606"><ele>200.75</ele><time>2026-04-06T15:42:53.001Z</time></trkpt><trkpt lat="43.25099079896103" lon="11.339326118538176"><ele>200.0</ele><time>2026-04-06T15:42:54.001Z</time></trkpt><trkpt lat="43.25097011500815" lon="11.339491223203988"><ele>200.0</ele><time>2026-04-06T15:42:55.001Z</time></trkpt><trkpt lat="43.2509444030112" lon="11.339657052190983"><ele>200.0</ele><time>2026-04-06T15:42:56.001Z</time></trkpt><trkpt lat="43.25091570401802" lon="11.339825603179943"><ele>200.0</ele><time>2026-04-06T15:42:57.001Z</time></trkpt><trkpt lat="43.250867509358635" lon="11.339989489024937"><ele>200.0</ele><time>2026-04-06T15:42:58.001Z</time></trkpt><trkpt lat="43.25084942554169" lon="11.340167508575291"><ele>200.0</ele><time>2026-04-06T15:42:59.001Z</time></trkpt><trkpt lat="43.25080967776453" lon="11.34033801840444"><ele>200.0</ele><time>2026-04-06T15:43:00.001Z</time></trkpt><trkpt lat="43.25077501279883" lon="11.340511840179854"><ele>200.0</ele><time>2026-04-06T15:43:01.001Z</time></trkpt><trkpt lat="43.25072251644246" lon="11.340680297831387"><ele>200.0</ele><time>2026-04-06T15:43:02.001Z</time></trkpt><trkpt lat="43.25065374291418" lon="11.340838932968666"><ele>197.75</ele><time>2026-04-06T15:43:03.001Z</time></trkpt><trkpt lat="43.25056660882307" lon="11.340987877152413"><ele>195.5</ele><time>2026-04-06T15:43:04.001Z</time></trkpt><trkpt lat="43.250465950332824" lon="11.341127931368776"><ele>193.25</ele><time>2026-04-06T15:43:05.001Z</time></trkpt><trkpt lat="43.25035072552326" lon="11.34125543467671"><ele>191.0</ele><time>2026-04-06T15:43:06.001Z</time></trkpt><trkpt lat="43.250225339409894" lon="11.341375828911492"><ele>192.0</ele><time>2026-04-06T15:43:07.001Z</time></trkpt><trkpt lat="43.2500919750847" lon="11.341490280746907"><ele>193.0</ele><time>2026-04-06T15:43:08.001Z</time></trkpt><trkpt lat="43.24995374043895" lon="11.341592186548262"><ele>194.0</ele><time>2026-04-06T15:43:09.001Z</time></trkpt><trkpt lat="43.249807529690116" lon="11.341647841676918"><ele>192.25</ele><time>2026-04-06T15:43:10.001Z</time></trkpt><trkpt lat="43.24966573179063" lon="11.341693156929376"><ele>190.5</ele><time>2026-04-06T15:43:11.001Z</time></trkpt><trkpt lat="43.249528590366175" lon="11.341706931146494"><ele>188.75</ele><time>2026-04-06T15:43:12.001Z</time></trkpt><trkpt lat="43.24938447337974" lon="11.341701326024396"><ele>187.0</ele><time>2026-04-06T15:43:13.001Z</time></trkpt><trkpt lat="43.24923208706875" lon="11.341695879097678"><ele>187.0</ele><time>2026-04-06T15:43:14.001Z</time></trkpt><trkpt lat="43.24908799647351" lon="11.341662879585996"><ele>187.0</ele><time>2026-04-06T15:43:15.001Z</time></trkpt><trkpt lat="43.248942660670856" lon="11.341638824456053"><ele>187.0</ele><time>2026-04-06T15:43:16.001Z</time></trkpt><trkpt lat="43.24880693457902" lon="11.341615644011297"><ele>187.0</ele><time>2026-04-06T15:43:17.001Z</time></trkpt><trkpt lat="43.248672329599266" lon="11.341572624655742"><ele>186.66666666666669</ele><time>2026-04-06T15:43:18.001Z</time></trkpt><trkpt lat="43.24852812814071" lon="11.341545470863748"><ele>186.33333333333334</ele><time>2026-04-06T15:43:19.001Z</time></trkpt><trkpt lat="43.2483699776284" lon="11.341514253536232"><ele>186.0</ele><time>2026-04-06T15:43:20Z</time></trkpt><trkpt lat="43.248208753493536" lon="11.341483074138111"><ele>186.66666666666666</ele><time>2026-04-06T15:43:21Z</time></trkpt><trkpt lat="43.248031913791074" lon="11.341448874819639"><ele>187.33333333333331</ele><time>2026-04-06T15:43:22Z</time></trkpt><trkpt lat="43.24784839987771" lon="11.341413384763383"><ele>188.0</ele><time>2026-04-06T15:43:23Z</time></trkpt><trkpt lat="43.24764901900688" lon="11.341382948744393"><ele>188.66666666666666</ele><time>2026-04-06T15:43:24Z</time></trkpt><trkpt lat="43.24745567497393" lon="11.341306354572843"><ele>189.33333333333334</ele><time>2026-04-06T15:43:25Z</time></trkpt><trkpt lat="43.24726576445984" lon="11.341211813561122"><ele>190.0</ele><time>2026-04-06T15:43:26Z</time></trkpt><trkpt lat="43.24708249044725" lon="11.341121474838964"><ele>190.0</ele><time>2026-04-06T15:43:27Z</time></trkpt><trkpt lat="43.24689608178721" lon="11.341045757585418"><ele>190.0</ele><time>2026-04-06T15:43:28Z</time></trkpt><trkpt lat="43.246699750200726" lon="11.340982762411809"><ele>190.0</ele><time>2026-04-06T15:43:29Z</time></trkpt><trkpt lat="43.246496693370766" lon="11.340940459543429"><ele>191.33333333333334</ele><time>2026-04-06T15:43:30Z</time></trkpt><trkpt lat="43.24629047290537" lon="11.340910536512107"><ele>192.66666666666669</ele><time>2026-04-06T15:43:31Z</time></trkpt><trkpt lat="43.24608669516303" lon="11.34089118258539"><ele>194.0</ele><time>2026-04-06T15:43:32Z</time></trkpt><trkpt lat="43.245883348210214" lon="11.340875724629926"><ele>194.0</ele><time>2026-04-06T15:43:33Z</time></trkpt><trkpt lat="43.24567886893056" lon="11.340862639534864"><ele>194.0</ele><time>2026-04-06T15:43:34Z</time></trkpt><trkpt lat="43.24546492986514" lon="11.340859025986813"><ele>194.0</ele><time>2026-04-06T15:43:35Z</time></trkpt><trkpt lat="43.2452350011039" lon="11.340824744652114"><ele>195.0</ele><time>2026-04-06T15:43:36Z</time></trkpt><trkpt lat="43.245023535223844" lon="11.340779917024754"><ele>196.0</ele><time>2026-04-06T15:43:37Z</time></trkpt><trkpt lat="43.24481211842927" lon="11.34072844320198"><ele>197.0</ele><time>2026-04-06T15:43:38Z</time></trkpt><trkpt lat="43.24460071244779" lon="11.340657767175092"><ele>195.66666666666669</ele><time>2026-04-06T15:43:39Z</time></trkpt><trkpt lat="43.24439142969559" lon="11.340572800514495"><ele>194.33333333333331</ele><time>2026-04-06T15:43:40Z</time></trkpt><trkpt lat="43.244183463915824" lon="11.340481231505866"><ele>193.0</ele><time>2026-04-06T15:43:41Z</time></trkpt><trkpt lat="43.24397414366007" lon="11.340388739229464"><ele>194.66666666666666</ele><time>2026-04-06T15:43:42Z</time></trkpt><trkpt lat="43.24376367915374" lon="11.340298858193693"><ele>196.33333333333331</ele><time>2026-04-06T15:43:43Z</time></trkpt><trkpt lat="43.24355402472725" lon="11.34020782089531"><ele>198.0</ele><time>2026-04-06T15:43:44Z</time></trkpt><trkpt lat="43.243360060045234" lon="11.340117593764225"><ele>198.0</ele><time>2026-04-06T15:43:45Z</time></trkpt><trkpt lat="43.24316802080091" lon="11.340050117644292"><ele>198.0</ele><time>2026-04-06T15:43:46Z</time></trkpt><trkpt lat="43.24298189578131" lon="11.340028932498754"><ele>198.0</ele><time>2026-04-06T15:43:47Z</time></trkpt><trkpt lat="43.242805270400645" lon="11.34006521881078"><ele>198.66666666666669</ele><time>2026-04-06T15:43:48Z</time></trkpt><trkpt lat="43.242641462962524" lon="11.340143006552617"><ele>199.33333333333334</ele><time>2026-04-06T15:43:49Z</time></trkpt><trkpt lat="43.242497716588296" lon="11.340235623977081"><ele>200.0</ele><time>2026-04-06T15:43:50Z</time></trkpt><trkpt lat="43.242368081733275" lon="11.340319112306036"><ele>201.4</ele><time>2026-04-06T15:43:51Z</time></trkpt><trkpt lat="43.242241200877935" lon="11.340355349096871"><ele>202.8</ele><time>2026-04-06T15:43:52Z</time></trkpt><trkpt lat="43.24211612865828" lon="11.340342760745454"><ele>204.2</ele><time>2026-04-06T15:43:53Z</time></trkpt><trkpt lat="43.24202091427077" lon="11.340259082651942"><ele>205.6</ele><time>2026-04-06T15:43:54Z</time></trkpt><trkpt lat="43.241978182610126" lon="11.340169223774518"><ele>207.0</ele><time>2026-04-06T15:43:55Z</time></trkpt><trkpt lat="43.24194933786043" lon="11.340029237206844"><ele>207.0</ele><time>2026-04-06T15:43:56Z</time></trkpt><trkpt lat="43.24195644638775" lon="11.339892352150981"><ele>207.0</ele><time>2026-04-06T15:43:57Z</time></trkpt><trkpt lat="43.241951702162844" lon="11.339758793804206"><ele>207.0</ele><time>2026-04-06T15:43:58Z</time></trkpt><trkpt lat="43.24192810502201" lon="11.339581998676065"><ele>207.0</ele><time>2026-04-06T15:43:59Z</time></trkpt><trkpt lat="43.24187458306641" lon="11.339398234952778"><ele>206.0</ele><time>2026-04-06T15:44:00Z</time></trkpt><trkpt lat="43.241751976067185" lon="11.33919417113351"><ele>205.0</ele><time>2026-04-06T15:44:01Z</time></trkpt><trkpt lat="43.24161742681949" lon="11.339079142027465"><ele>204.0</ele><time>2026-04-06T15:44:02Z</time></trkpt><trkpt lat="43.24146485160808" lon="11.338997553605617"><ele>204.0</ele><time>2026-04-06T15:44:03Z</time></trkpt><trkpt lat="43.24129366584067" lon="11.338970807822474"><ele>204.0</ele><time>2026-04-06T15:44:04Z</time></trkpt><trkpt lat="43.241115811153804" lon="11.339000418435152"><ele>204.0</ele><time>2026-04-06T15:44:05Z</time></trkpt><trkpt lat="43.240975465299194" lon="11.339039507677285"><ele>204.0</ele><time>2026-04-06T15:44:06Z</time></trkpt><trkpt lat="43.24086119982564" lon="11.339071452942713"><ele>204.0</ele><time>2026-04-06T15:44:07Z</time></trkpt><trkpt lat="43.24071737516094" lon="11.339111081934767"><ele>204.0</ele><time>2026-04-06T15:44:08Z</time></trkpt><trkpt lat="43.240589648414606" lon="11.339169209833077"><ele>204.0</ele><time>2026-04-06T15:44:09Z</time></trkpt><trkpt lat="43.24043196171714" lon="11.339205097247305"><ele>203.33333333333331</ele><time>2026-04-06T15:44:10Z</time></trkpt><trkpt lat="43.240242941646414" lon="11.33926052441422"><ele>202.66666666666666</ele><time>2026-04-06T15:44:11Z</time></trkpt><trkpt lat="43.240053444651245" lon="11.339323560947639"><ele>202.0</ele><time>2026-04-06T15:44:12Z</time></trkpt><trkpt lat="43.23988135870979" lon="11.339421685642954"><ele>201.66666666666666</ele><time>2026-04-06T15:44:13Z</time></trkpt><trkpt lat="43.239716422946884" lon="11.339547803122063"><ele>201.33333333333331</ele><time>2026-04-06T15:44:14Z</time></trkpt><trkpt lat="43.23954341962185" lon="11.339680313485603"><ele>201.0</ele><time>2026-04-06T15:44:15Z</time></trkpt><trkpt lat="43.23936866212459" lon="11.33980491714246"><ele>202.66666666666669</ele><time>2026-04-06T15:44:16Z</time></trkpt><trkpt lat="43.239205114699274" lon="11.339906958579697"><ele>204.33333333333334</ele><time>2026-04-06T15:44:16.999Z</time></trkpt><trkpt lat="43.239041845814945" lon="11.340035818181333"><ele>206.0</ele><time>2026-04-06T15:44:17.999Z</time></trkpt><trkpt lat="43.23890782639522" lon="11.340186927353342"><ele>206.0</ele><time>2026-04-06T15:44:18.999Z</time></trkpt><trkpt lat="43.238775245763215" lon="11.340341065786244"><ele>206.0</ele><time>2026-04-06T15:44:19.999Z</time></trkpt><trkpt lat="43.23865259280278" lon="11.34049507467297"><ele>206.0</ele><time>2026-04-06T15:44:20.999Z</time></trkpt><trkpt lat="43.23852717786877" lon="11.340610121436534"><ele>206.0</ele><time>2026-04-06T15:44:21.999Z</time></trkpt><trkpt lat="43.23839852403785" lon="11.340606656742507"><ele>206.0</ele><time>2026-04-06T15:44:22.999Z</time></trkpt><trkpt lat="43.238303722832505" lon="11.340535466099446"><ele>206.0</ele><time>2026-04-06T15:44:23.999Z</time></trkpt><trkpt lat="43.23824149244413" lon="11.340439612266675"><ele>206.0</ele><time>2026-04-06T15:44:24.999Z</time></trkpt><trkpt lat="43.238197550514705" lon="11.340310493895807"><ele>206.0</ele><time>2026-04-06T15:44:25.999Z</time></trkpt><trkpt lat="43.2381729276811" lon="11.340175259072616"><ele>205.66666666666669</ele><time>2026-04-06T15:44:26.999Z</time></trkpt><trkpt lat="43.23812550134339" lon="11.339991744924982"><ele>205.33333333333331</ele><time>2026-04-06T15:44:27.999Z</time></trkpt><trkpt lat="43.23801605022459" lon="11.339798586859462"><ele>205.0</ele><time>2026-04-06T15:44:28.999Z</time></trkpt><trkpt lat="43.23785529044881" lon="11.339709105165163"><ele>206.5</ele><time>2026-04-06T15:44:29.999Z</time></trkpt><trkpt lat="43.23770391355587" lon="11.339763799688269"><ele>208.0</ele><time>2026-04-06T15:44:30.999Z</time></trkpt><trkpt lat="43.23758237121553" lon="11.339836360828741"><ele>209.5</ele><time>2026-04-06T15:44:31.999Z</time></trkpt><trkpt lat="43.237462005806016" lon="11.339900881505653"><ele>211.0</ele><time>2026-04-06T15:44:32.999Z</time></trkpt><trkpt lat="43.2373038470785" lon="11.3399719918189"><ele>212.0</ele><time>2026-04-06T15:44:33.999Z</time></trkpt><trkpt lat="43.23716239610117" lon="11.34001585096855"><ele>213.0</ele><time>2026-04-06T15:44:34.999Z</time></trkpt><trkpt lat="43.23701077512129" lon="11.34002591656287"><ele>214.0</ele><time>2026-04-06T15:44:35.999Z</time></trkpt><trkpt lat="43.236879348809076" lon="11.339999434649146"><ele>215.0</ele><time>2026-04-06T15:44:36.999Z</time></trkpt><trkpt lat="43.23673127318594" lon="11.339948200114463"><ele>215.0</ele><time>2026-04-06T15:44:37.999Z</time></trkpt><trkpt lat="43.23660721887627" lon="11.339914227772177"><ele>215.0</ele><time>2026-04-06T15:44:38.999Z</time></trkpt><trkpt lat="43.23646340084195" lon="11.339913234237914"><ele>215.0</ele><time>2026-04-06T15:44:39.999Z</time></trkpt><trkpt lat="43.23630727713532" lon="11.339989915355815"><ele>215.0</ele><time>2026-04-06T15:44:40.999Z</time></trkpt><trkpt lat="43.23619162618288" lon="11.340131483586514"><ele>214.5</ele><time>2026-04-06T15:44:41.999Z</time></trkpt><trkpt lat="43.236125807889294" lon="11.340299911729302"><ele>214.0</ele><time>2026-04-06T15:44:42.999Z</time></trkpt><trkpt lat="43.23608876242734" lon="11.340482436170973"><ele>213.5</ele><time>2026-04-06T15:44:43.999Z</time></trkpt><trkpt lat="43.2360389296113" lon="11.340655921135562"><ele>213.0</ele><time>2026-04-06T15:44:44.999Z</time></trkpt><trkpt lat="43.23593977411724" lon="11.340771999547544"><ele>214.5</ele><time>2026-04-06T15:44:45.999Z</time></trkpt><trkpt lat="43.235817112021024" lon="11.340828279307049"><ele>216.0</ele><time>2026-04-06T15:44:46.999Z</time></trkpt><trkpt lat="43.23570101110298" lon="11.340852593984655"><ele>217.5</ele><time>2026-04-06T15:44:47.999Z</time></trkpt><trkpt lat="43.235610802387306" lon="11.340811955364547"><ele>219.0</ele><time>2026-04-06T15:44:48.999Z</time></trkpt><trkpt lat="43.235517768356154" lon="11.340717665435205"><ele>218.75</ele><time>2026-04-06T15:44:49.999Z</time></trkpt><trkpt lat="43.235436315815285" lon="11.340608380406776"><ele>218.5</ele><time>2026-04-06T15:44:50.999Z</time></trkpt><trkpt lat="43.2353500315546" lon="11.340482460079876"><ele>218.25</ele><time>2026-04-06T15:44:51.999Z</time></trkpt><trkpt lat="43.23527552699344" lon="11.340391837157744"><ele>218.0</ele><time>2026-04-06T15:44:52.999Z</time></trkpt><trkpt lat="43.23518787225379" lon="11.34026685957108"><ele>218.0</ele><time>2026-04-06T15:44:53.999Z</time></trkpt><trkpt lat="43.235078260568514" lon="11.340173443320207"><ele>218.0</ele><time>2026-04-06T15:44:54.999Z</time></trkpt><trkpt lat="43.234934043974505" lon="11.340101535675068"><ele>218.0</ele><time>2026-04-06T15:44:55.999Z</time></trkpt><trkpt lat="43.234791863377865" lon="11.340080112785149"><ele>218.0</ele><time>2026-04-06T15:44:56.999Z</time></trkpt><trkpt lat="43.234639528526685" lon="11.340096599631341"><ele>219.25</ele><time>2026-04-06T15:44:57.999Z</time></trkpt><trkpt lat="43.23453154567133" lon="11.340135518302832"><ele>220.5</ele><time>2026-04-06T15:44:59.001Z</time></trkpt><trkpt lat="43.23441216632536" lon="11.340205708610963"><ele>221.75</ele><time>2026-04-06T15:45:00.001Z</time></trkpt><trkpt lat="43.234297692343716" lon="11.340267117924633"><ele>223.0</ele><time>2026-04-06T15:45:01.001Z</time></trkpt><trkpt lat="43.234183771967196" lon="11.340304520829784"><ele>223.0</ele><time>2026-04-06T15:45:02.001Z</time></trkpt><trkpt lat="43.23405978649955" lon="11.340311253799829"><ele>223.0</ele><time>2026-04-06T15:45:03.001Z</time></trkpt><trkpt lat="43.233971192938164" lon="11.340254657991219"><ele>223.0</ele><time>2026-04-06T15:45:04.001Z</time></trkpt><trkpt lat="43.23386931715308" lon="11.340152670508639"><ele>223.0</ele><time>2026-04-06T15:45:05.001Z</time></trkpt><trkpt lat="43.23383919305213" lon="11.340032259399472"><ele>223.0</ele><time>2026-04-06T15:45:06.001Z</time></trkpt><trkpt lat="43.23381754461116" lon="11.339933631194281"><ele>225.0</ele><time>2026-04-06T15:45:07.001Z</time></trkpt><trkpt lat="43.233812551465306" lon="11.339815291526426"><ele>227.0</ele><time>2026-04-06T15:45:08.001Z</time></trkpt><trkpt lat="43.23381956282816" lon="11.339655564623556"><ele>229.0</ele><time>2026-04-06T15:45:09.001Z</time></trkpt><trkpt lat="43.2338597555681" lon="11.339507233075263"><ele>231.0</ele><time>2026-04-06T15:45:10.001Z</time></trkpt><trkpt lat="43.23386312339408" lon="11.339358151712892"><ele>233.0</ele><time>2026-04-06T15:45:11.001Z</time></trkpt><trkpt lat="43.233843346139544" lon="11.339189868864585"><ele>233.0</ele><time>2026-04-06T15:45:12.001Z</time></trkpt><trkpt lat="43.233796071446335" lon="11.339036761925511"><ele>233.0</ele><time>2026-04-06T15:45:13.001Z</time></trkpt><trkpt lat="43.233694200960734" lon="11.338870797966527"><ele>233.0</ele><time>2026-04-06T15:45:14.001Z</time></trkpt><trkpt lat="43.23358405244816" lon="11.33873137066494"><ele>233.0</ele><time>2026-04-06T15:45:15.001Z</time></trkpt><trkpt lat="43.233449822031766" lon="11.338562325519144"><ele>232.66666666666669</ele><time>2026-04-06T15:45:16.001Z</time></trkpt><trkpt lat="43.2333231453382" lon="11.33840307269293"><ele>232.33333333333331</ele><time>2026-04-06T15:45:17.001Z</time></trkpt><trkpt lat="43.23319425418527" lon="11.338238201514747"><ele>232.0</ele><time>2026-04-06T15:45:18.001Z</time></trkpt><trkpt lat="43.23306700742851" lon="11.338075433690726"><ele>232.33333333333331</ele><time>2026-04-06T15:45:19.001Z</time></trkpt><trkpt lat="43.23295074899148" lon="11.337927539510767"><ele>232.66666666666669</ele><time>2026-04-06T15:45:20.001Z</time></trkpt><trkpt lat="43.232827503993775" lon="11.337777334356751"><ele>233.0</ele><time>2026-04-06T15:45:21Z</time></trkpt><trkpt lat="43.23270033257083" lon="11.337674012577796"><ele>233.0</ele><time>2026-04-06T15:45:22Z</time></trkpt><trkpt lat="43.2325361592237" lon="11.337631018436927"><ele>233.0</ele><time>2026-04-06T15:45:23Z</time></trkpt><trkpt lat="43.23235455861653" lon="11.337681999331112"><ele>233.0</ele><time>2026-04-06T15:45:24Z</time></trkpt><trkpt lat="43.232188306539676" lon="11.337784056048159"><ele>234.25</ele><time>2026-04-06T15:45:25Z</time></trkpt><trkpt lat="43.232041372343126" lon="11.33788119809498"><ele>235.5</ele><time>2026-04-06T15:45:26Z</time></trkpt><trkpt lat="43.2319229107859" lon="11.337918024652794"><ele>236.75</ele><time>2026-04-06T15:45:27Z</time></trkpt><trkpt lat="43.23179019705441" lon="11.337912369513116"><ele>238.0</ele><time>2026-04-06T15:45:28Z</time></trkpt><trkpt lat="43.231676976400806" lon="11.337874034779768"><ele>238.0</ele><time>2026-04-06T15:45:29Z</time></trkpt><trkpt lat="43.23154090486826" lon="11.337792865001077"><ele>238.0</ele><time>2026-04-06T15:45:30Z</time></trkpt><trkpt lat="43.23139592687991" lon="11.337704289097974"><ele>238.0</ele><time>2026-04-06T15:45:31Z</time></trkpt><trkpt lat="43.231244635398355" lon="11.337611855787191"><ele>239.0</ele><time>2026-04-06T15:45:32Z</time></trkpt><trkpt lat="43.23107143196621" lon="11.33751272594282"><ele>240.0</ele><time>2026-04-06T15:45:33Z</time></trkpt><trkpt lat="43.23087262475154" lon="11.337429104443816"><ele>241.0</ele><time>2026-04-06T15:45:34Z</time></trkpt><trkpt lat="43.2306877421713" lon="11.337374956298692"><ele>241.66666666666666</ele><time>2026-04-06T15:45:35Z</time></trkpt><trkpt lat="43.23048600282927" lon="11.337316470676278"><ele>242.33333333333331</ele><time>2026-04-06T15:45:36Z</time></trkpt><trkpt lat="43.2302996216682" lon="11.337260020445207"><ele>243.0</ele><time>2026-04-06T15:45:37Z</time></trkpt><trkpt lat="43.23009812954374" lon="11.337202541902911"><ele>243.0</ele><time>2026-04-06T15:45:38Z</time></trkpt><trkpt lat="43.229902976959686" lon="11.337105320381871"><ele>243.0</ele><time>2026-04-06T15:45:39Z</time></trkpt><trkpt lat="43.22971242062574" lon="11.336993801047797"><ele>243.0</ele><time>2026-04-06T15:45:40Z</time></trkpt><trkpt lat="43.229522614850886" lon="11.336889127752649"><ele>244.66666666666669</ele><time>2026-04-06T15:45:41Z</time></trkpt><trkpt lat="43.22933622641093" lon="11.336788850562758"><ele>246.33333333333334</ele><time>2026-04-06T15:45:42Z</time></trkpt><trkpt lat="43.22914477276822" lon="11.33668255989356"><ele>248.0</ele><time>2026-04-06T15:45:43Z</time></trkpt><trkpt lat="43.22895571203748" lon="11.33658601520784"><ele>249.66666666666669</ele><time>2026-04-06T15:45:44Z</time></trkpt><trkpt lat="43.22876512538869" lon="11.336504338327337"><ele>251.33333333333331</ele><time>2026-04-06T15:45:45Z</time></trkpt><trkpt lat="43.22856741467047" lon="11.33644175360396"><ele>253.0</ele><time>2026-04-06T15:45:46Z</time></trkpt><trkpt lat="43.22836878652922" lon="11.336405267727729"><ele>253.33333333333331</ele><time>2026-04-06T15:45:47Z</time></trkpt><trkpt lat="43.228177821201356" lon="11.336379082049138"><ele>253.66666666666669</ele><time>2026-04-06T15:45:48Z</time></trkpt><trkpt lat="43.22798915646503" lon="11.336340594691197"><ele>254.0</ele><time>2026-04-06T15:45:49Z</time></trkpt><trkpt lat="43.227809733477855" lon="11.336313668747485"><ele>254.66666666666669</ele><time>2026-04-06T15:45:50Z</time></trkpt><trkpt lat="43.2276274197214" lon="11.336289735222412"><ele>255.33333333333331</ele><time>2026-04-06T15:45:51Z</time></trkpt><trkpt lat="43.22744621501754" lon="11.33627919033176"><ele>256.0</ele><time>2026-04-06T15:45:52Z</time></trkpt><trkpt lat="43.227266162669096" lon="11.336297609654524"><ele>258.0</ele><time>2026-04-06T15:45:53Z</time></trkpt><trkpt lat="43.22709247331865" lon="11.336355920249309"><ele>260.0</ele><time>2026-04-06T15:45:54Z</time></trkpt><trkpt lat="43.22693719994733" lon="11.336407906543913"><ele>262.0</ele><time>2026-04-06T15:45:55Z</time></trkpt><trkpt lat="43.226799598752315" lon="11.33645829183229"><ele>262.0</ele><time>2026-04-06T15:45:56Z</time></trkpt><trkpt lat="43.22665776513924" lon="11.336441423609484"><ele>262.0</ele><time>2026-04-06T15:45:57Z</time></trkpt><trkpt lat="43.226517598649686" lon="11.336377427865715"><ele>262.0</ele><time>2026-04-06T15:45:58Z</time></trkpt><trkpt lat="43.22637675288702" lon="11.336309601290814"><ele>262.0</ele><time>2026-04-06T15:45:59Z</time></trkpt><trkpt lat="43.22623146718275" lon="11.336246564447496"><ele>265.0</ele><time>2026-04-06T15:46:00Z</time></trkpt><trkpt lat="43.22608555968508" lon="11.33616492184146"><ele>268.0</ele><time>2026-04-06T15:46:01Z</time></trkpt><trkpt lat="43.22595501605761" lon="11.336062118085325"><ele>271.0</ele><time>2026-04-06T15:46:02Z</time></trkpt><trkpt lat="43.22585474615394" lon="11.335929570404582"><ele>274.0</ele><time>2026-04-06T15:46:03Z</time></trkpt><trkpt lat="43.22575336536032" lon="11.335796316655161"><ele>274.0</ele><time>2026-04-06T15:46:04Z</time></trkpt><trkpt lat="43.22565175858245" lon="11.335652817144153"><ele>274.0</ele><time>2026-04-06T15:46:05Z</time></trkpt><trkpt lat="43.22554766047005" lon="11.335504440731702"><ele>274.0</ele><time>2026-04-06T15:46:05.999Z</time></trkpt><trkpt lat="43.22543117052557" lon="11.335338936521314"><ele>275.0</ele><time>2026-04-06T15:46:06.999Z</time></trkpt><trkpt lat="43.22531769127276" lon="11.33517770964444"><ele>276.0</ele><time>2026-04-06T15:46:07.999Z</time></trkpt><trkpt lat="43.22520175453229" lon="11.335010829358584"><ele>277.0</ele><time>2026-04-06T15:46:08.999Z</time></trkpt><trkpt lat="43.225083761399716" lon="11.334832201722477"><ele>277.0</ele><time>2026-04-06T15:46:09.999Z</time></trkpt><trkpt lat="43.2249782955761" lon="11.33465848324446"><ele>277.0</ele><time>2026-04-06T15:46:10.999Z</time></trkpt><trkpt lat="43.22487533404553" lon="11.334486012576926"><ele>277.0</ele><time>2026-04-06T15:46:11.999Z</time></trkpt><trkpt lat="43.22477241031333" lon="11.334310708705377"><ele>277.66666666666663</ele><time>2026-04-06T15:46:12.999Z</time></trkpt><trkpt lat="43.224664183960776" lon="11.334142223340017"><ele>278.3333333333333</ele><time>2026-04-06T15:46:13.999Z</time></trkpt><trkpt lat="43.22454850329164" lon="11.333985341453914"><ele>279.0</ele><time>2026-04-06T15:46:14.999Z</time></trkpt><trkpt lat="43.224428051758224" lon="11.333852148758462"><ele>279.5</ele><time>2026-04-06T15:46:15.999Z</time></trkpt><trkpt lat="43.22431587751345" lon="11.333739951719933"><ele>280.0</ele><time>2026-04-06T15:46:16.999Z</time></trkpt><trkpt lat="43.224212157907886" lon="11.333639508983419"><ele>280.5</ele><time>2026-04-06T15:46:17.999Z</time></trkpt><trkpt lat="43.22411661396228" lon="11.333563299596259"><ele>281.0</ele><time>2026-04-06T15:46:18.999Z</time></trkpt><trkpt lat="43.2240318833037" lon="11.333464161490161"><ele>280.8</ele><time>2026-04-06T15:46:19.999Z</time></trkpt><trkpt lat="43.22393711936196" lon="11.333381133783812"><ele>280.6</ele><time>2026-04-06T15:46:20.999Z</time></trkpt><trkpt lat="43.22384655130205" lon="11.333295824908966"><ele>280.4</ele><time>2026-04-06T15:46:21.999Z</time></trkpt><trkpt lat="43.22376735866488" lon="11.333218515070145"><ele>280.2</ele><time>2026-04-06T15:46:22.999Z</time></trkpt><trkpt lat="43.223682242945955" lon="11.333132996075147"><ele>280.0</ele><time>2026-04-06T15:46:23.999Z</time></trkpt><trkpt lat="43.223603650835265" lon="11.333051308088208"><ele>280.5</ele><time>2026-04-06T15:46:24.999Z</time></trkpt><trkpt lat="43.223519456628004" lon="11.332963528686467"><ele>281.0</ele><time>2026-04-06T15:46:25.999Z</time></trkpt><trkpt lat="43.22344362178472" lon="11.33285453728432"><ele>281.5</ele><time>2026-04-06T15:46:26.999Z</time></trkpt><trkpt lat="43.22335967551832" lon="11.332735955765052"><ele>282.0</ele><time>2026-04-06T15:46:27.999Z</time></trkpt><trkpt lat="43.22328843863928" lon="11.332599539793693"><ele>282.0</ele><time>2026-04-06T15:46:28.999Z</time></trkpt><trkpt lat="43.223208901828876" lon="11.332466583544564"><ele>282.0</ele><time>2026-04-06T15:46:29.999Z</time></trkpt><trkpt lat="43.22313073075672" lon="11.332333961265324"><ele>282.0</ele><time>2026-04-06T15:46:30.999Z</time></trkpt><trkpt lat="43.223050664521026" lon="11.33219912494927"><ele>282.0</ele><time>2026-04-06T15:46:31.999Z</time></trkpt><trkpt lat="43.22297126429333" lon="11.33206409346428"><ele>282.75</ele><time>2026-04-06T15:46:32.999Z</time></trkpt><trkpt lat="43.222887182910775" lon="11.331927465998076"><ele>283.5</ele><time>2026-04-06T15:46:33.999Z</time></trkpt><trkpt lat="43.22279224310171" lon="11.331796950868254"><ele>284.25</ele><time>2026-04-06T15:46:34.999Z</time></trkpt><trkpt lat="43.22266552609276" lon="11.33170182831575"><ele>285.0</ele><time>2026-04-06T15:46:35.999Z</time></trkpt><trkpt lat="43.222546357464374" lon="11.33162574736267"><ele>285.0</ele><time>2026-04-06T15:46:36.999Z</time></trkpt><trkpt lat="43.22243798668099" lon="11.331549014780562"><ele>285.0</ele><time>2026-04-06T15:46:37.999Z</time></trkpt><trkpt lat="43.22232771132208" lon="11.331416621464573"><ele>285.0</ele><time>2026-04-06T15:46:38.999Z</time></trkpt><trkpt lat="43.222215810353106" lon="11.331298188307917"><ele>285.0</ele><time>2026-04-06T15:46:39.999Z</time></trkpt><trkpt lat="43.222096664936984" lon="11.33118655787471"><ele>286.25</ele><time>2026-04-06T15:46:40.999Z</time></trkpt><trkpt lat="43.22197800371606" lon="11.331079418505615"><ele>287.5</ele><time>2026-04-06T15:46:41.999Z</time></trkpt><trkpt lat="43.22186198018452" lon="11.330960874600251"><ele>288.75</ele><time>2026-04-06T15:46:42.999Z</time></trkpt><trkpt lat="43.22174383575928" lon="11.330838311925728"><ele>290.0</ele><time>2026-04-06T15:46:43.999Z</time></trkpt><trkpt lat="43.22162783519928" lon="11.330716803655838"><ele>290.0</ele><time>2026-04-06T15:46:44.999Z</time></trkpt><trkpt lat="43.221521776611674" lon="11.330600541754876"><ele>290.0</ele><time>2026-04-06T15:46:45.999Z</time></trkpt><trkpt lat="43.22142288072835" lon="11.330495805546157"><ele>290.0</ele><time>2026-04-06T15:46:46.999Z</time></trkpt><trkpt lat="43.221326057878464" lon="11.330399237726484"><ele>290.0</ele><time>2026-04-06T15:46:47.999Z</time></trkpt><trkpt lat="43.22123447363081" lon="11.330313670565431"><ele>291.25</ele><time>2026-04-06T15:46:48.999Z</time></trkpt><trkpt lat="43.221148436440245" lon="11.33019706530167"><ele>292.5</ele><time>2026-04-06T15:46:49.999Z</time></trkpt><trkpt lat="43.221051030979474" lon="11.33009318338293"><ele>293.75</ele><time>2026-04-06T15:46:50.999Z</time></trkpt><trkpt lat="43.22094647241947" lon="11.329980127597798"><ele>295.0</ele><time>2026-04-06T15:46:51.999Z</time></trkpt><trkpt lat="43.220849128429165" lon="11.329874188306354"><ele>295.0</ele><time>2026-04-06T15:46:52.999Z</time></trkpt><trkpt lat="43.22075197488344" lon="11.329768456297096"><ele>295.0</ele><time>2026-04-06T15:46:53.999Z</time></trkpt><trkpt lat="43.22065585267495" lon="11.329656984537579"><ele>295.0</ele><time>2026-04-06T15:46:54.999Z</time></trkpt><trkpt lat="43.22055662377001" lon="11.329555926774036"><ele>295.0</ele><time>2026-04-06T15:46:55.999Z</time></trkpt><trkpt lat="43.220470277904134" lon="11.329425001237869"><ele>297.75</ele><time>2026-04-06T15:46:56.999Z</time></trkpt><trkpt lat="43.220375037382496" lon="11.329302757876892"><ele>300.5</ele><time>2026-04-06T15:46:57.999Z</time></trkpt><trkpt lat="43.22028144668805" lon="11.329187808662576"><ele>303.25</ele><time>2026-04-06T15:46:58.999Z</time></trkpt><trkpt lat="43.22022246319751" lon="11.329043786902046"><ele>306.0</ele><time>2026-04-06T15:46:59.999Z</time></trkpt><trkpt lat="43.22016997614959" lon="11.328905629760031"><ele>305.5</ele><time>2026-04-06T15:47:00.999Z</time></trkpt><trkpt lat="43.22011524879333" lon="11.328774212297533"><ele>305.0</ele><time>2026-04-06T15:47:01.999Z</time></trkpt><trkpt lat="43.22005427250602" lon="11.328634266570889"><ele>304.5</ele><time>2026-04-06T15:47:02.998Z</time></trkpt><trkpt lat="43.219993315960814" lon="11.328494366522804"><ele>304.0</ele><time>2026-04-06T15:47:03.998Z</time></trkpt><trkpt lat="43.219931018163855" lon="11.328357024188414"><ele>304.0</ele><time>2026-04-06T15:47:05.001Z</time></trkpt><trkpt lat="43.21986424973673" lon="11.328210838511543"><ele>304.0</ele><time>2026-04-06T15:47:06.001Z</time></trkpt><trkpt lat="43.21979144533671" lon="11.328065254821551"><ele>304.0</ele><time>2026-04-06T15:47:07.001Z</time></trkpt><trkpt lat="43.219705654853094" lon="11.327925285479557"><ele>304.0</ele><time>2026-04-06T15:47:08.001Z</time></trkpt><trkpt lat="43.21960938519991" lon="11.327791538487382"><ele>307.25</ele><time>2026-04-06T15:47:09.001Z</time></trkpt><trkpt lat="43.219507937485744" lon="11.327655455822764"><ele>310.5</ele><time>2026-04-06T15:47:10.001Z</time></trkpt><trkpt lat="43.21940992715249" lon="11.32752182719826"><ele>313.75</ele><time>2026-04-06T15:47:11.001Z</time></trkpt><trkpt lat="43.21930843508795" lon="11.327391864338448"><ele>317.0</ele><time>2026-04-06T15:47:12.001Z</time></trkpt><trkpt lat="43.219211159091586" lon="11.327243914056602"><ele>316.0</ele><time>2026-04-06T15:47:13.001Z</time></trkpt><trkpt lat="43.219135316810615" lon="11.327066711395315"><ele>315.0</ele><time>2026-04-06T15:47:14.001Z</time></trkpt><trkpt lat="43.21906972605106" lon="11.326872841708559"><ele>314.0</ele><time>2026-04-06T15:47:15.001Z</time></trkpt><trkpt lat="43.21901312382923" lon="11.326675714326926"><ele>318.33333333333337</ele><time>2026-04-06T15:47:16.001Z</time></trkpt><trkpt lat="43.21896674337631" lon="11.326470399206531"><ele>322.6666666666667</ele><time>2026-04-06T15:47:17.001Z</time></trkpt><trkpt lat="43.218923518559585" lon="11.326265001952478"><ele>327.0</ele><time>2026-04-06T15:47:18.001Z</time></trkpt><trkpt lat="43.218877419087036" lon="11.326049773186526"><ele>328.3333333333333</ele><time>2026-04-06T15:47:19.001Z</time></trkpt><trkpt lat="43.218831258254156" lon="11.32583260876326"><ele>329.66666666666663</ele><time>2026-04-06T15:47:20.001Z</time></trkpt><trkpt lat="43.218789380290076" lon="11.325611566939378"><ele>331.0</ele><time>2026-04-06T15:47:21.001Z</time></trkpt><trkpt lat="43.21874922600692" lon="11.325386049907484"><ele>331.3333333333333</ele><time>2026-04-06T15:47:22.001Z</time></trkpt><trkpt lat="43.218701549680006" lon="11.325157952736399"><ele>331.6666666666667</ele><time>2026-04-06T15:47:23.001Z</time></trkpt><trkpt lat="43.2186570198675" lon="11.32492690391048"><ele>332.0</ele><time>2026-04-06T15:47:24.001Z</time></trkpt><trkpt lat="43.218613113120185" lon="11.324696516191155"><ele>333.33333333333337</ele><time>2026-04-06T15:47:25.001Z</time></trkpt><trkpt lat="43.21856483420686" lon="11.324470647078522"><ele>334.6666666666667</ele><time>2026-04-06T15:47:26.001Z</time></trkpt><trkpt lat="43.218487377204575" lon="11.324262823802082"><ele>336.0</ele><time>2026-04-06T15:47:27Z</time></trkpt><trkpt lat="43.218381464271495" lon="11.324067064885446"><ele>338.6666666666667</ele><time>2026-04-06T15:47:28Z</time></trkpt><trkpt lat="43.21825184005642" lon="11.323894690629862"><ele>341.33333333333337</ele><time>2026-04-06T15:47:29Z</time></trkpt><trkpt lat="43.21810220515818" lon="11.323751245556918"><ele>344.0</ele><time>2026-04-06T15:47:30Z</time></trkpt><trkpt lat="43.2179550528449" lon="11.323618329973627"><ele>345.0</ele><time>2026-04-06T15:47:31Z</time></trkpt><trkpt lat="43.21779072745173" lon="11.32350900255169"><ele>346.0</ele><time>2026-04-06T15:47:32Z</time></trkpt><trkpt lat="43.217623507681" lon="11.323405504768823"><ele>347.0</ele><time>2026-04-06T15:47:33Z</time></trkpt><trkpt lat="43.21744513815414" lon="11.323314705726528"><ele>346.33333333333337</ele><time>2026-04-06T15:47:34Z</time></trkpt><trkpt lat="43.21727569039251" lon="11.323195270131992"><ele>345.6666666666667</ele><time>2026-04-06T15:47:35Z</time></trkpt><trkpt lat="43.21710780116927" lon="11.32307590552795"><ele>345.0</ele><time>2026-04-06T15:47:36Z</time></trkpt><trkpt lat="43.216928226274064" lon="11.322959099961949"><ele>346.3333333333333</ele><time>2026-04-06T15:47:37Z</time></trkpt><trkpt lat="43.21675234024904" lon="11.32285300926876"><ele>347.66666666666663</ele><time>2026-04-06T15:47:38Z</time></trkpt><trkpt lat="43.216577674315985" lon="11.322741844358761"><ele>349.0</ele><time>2026-04-06T15:47:39Z</time></trkpt><trkpt lat="43.21639173554356" lon="11.322623412820805"><ele>349.0</ele><time>2026-04-06T15:47:40Z</time></trkpt><trkpt lat="43.21620186593385" lon="11.322502736968229"><ele>349.0</ele><time>2026-04-06T15:47:41Z</time></trkpt><trkpt lat="43.21600939847499" lon="11.322381557514957"><ele>349.0</ele><time>2026-04-06T15:47:42Z</time></trkpt><trkpt lat="43.215815104336336" lon="11.322260636346849"><ele>350.3333333333333</ele><time>2026-04-06T15:47:43Z</time></trkpt><trkpt lat="43.21562115937312" lon="11.322138691618992"><ele>351.6666666666667</ele><time>2026-04-06T15:47:44Z</time></trkpt><trkpt lat="43.21542665191798" lon="11.322018196519005"><ele>353.0</ele><time>2026-04-06T15:47:45Z</time></trkpt><trkpt lat="43.21523333630713" lon="11.32189283846709"><ele>353.0</ele><time>2026-04-06T15:47:46Z</time></trkpt><trkpt lat="43.21504060943832" lon="11.321768473241592"><ele>353.0</ele><time>2026-04-06T15:47:47Z</time></trkpt><trkpt lat="43.21484938862917" lon="11.321648045101572"><ele>353.0</ele><time>2026-04-06T15:47:48Z</time></trkpt><trkpt lat="43.214659540042334" lon="11.321535456261536"><ele>354.33333333333337</ele><time>2026-04-06T15:47:49Z</time></trkpt><trkpt lat="43.21447235624089" lon="11.321424324786713"><ele>355.6666666666667</ele><time>2026-04-06T15:47:50Z</time></trkpt><trkpt lat="43.214286842739796" lon="11.32131328821467"><ele>357.0</ele><time>2026-04-06T15:47:51Z</time></trkpt><trkpt lat="43.2141034917987" lon="11.32120878459125"><ele>357.6666666666667</ele><time>2026-04-06T15:47:52Z</time></trkpt><trkpt lat="43.21392935761796" lon="11.321077088188952"><ele>358.33333333333337</ele><time>2026-04-06T15:47:53Z</time></trkpt><trkpt lat="43.21374286172693" lon="11.320985896509015"><ele>359.0</ele><time>2026-04-06T15:47:54Z</time></trkpt><trkpt lat="43.21356201435886" lon="11.320874352920614"><ele>359.0</ele><time>2026-04-06T15:47:55Z</time></trkpt><trkpt lat="43.21337084138767" lon="11.32075564572077"><ele>359.0</ele><time>2026-04-06T15:47:56Z</time></trkpt><trkpt lat="43.21318226007875" lon="11.320639013003879"><ele>359.0</ele><time>2026-04-06T15:47:57Z</time></trkpt><trkpt lat="43.21299903623448" lon="11.320525397915148"><ele>359.6666666666667</ele><time>2026-04-06T15:47:57.999Z</time></trkpt><trkpt lat="43.21282243307079" lon="11.320389876853907"><ele>360.3333333333333</ele><time>2026-04-06T15:47:58.999Z</time></trkpt><trkpt lat="43.21263607550076" lon="11.320271959479532"><ele>361.0</ele><time>2026-04-06T15:47:59.999Z</time></trkpt><trkpt lat="43.21244197406895" lon="11.320167934615029"><ele>362.0</ele><time>2026-04-06T15:48:00.999Z</time></trkpt><trkpt lat="43.21225986266744" lon="11.320037670178484"><ele>363.0</ele><time>2026-04-06T15:48:01.999Z</time></trkpt><trkpt lat="43.21208680347086" lon="11.319913905817955"><ele>364.0</ele><time>2026-04-06T15:48:02.999Z</time></trkpt><trkpt lat="43.21191907443887" lon="11.319794946321815"><ele>363.3333333333333</ele><time>2026-04-06T15:48:03.999Z</time></trkpt><trkpt lat="43.211755521674206" lon="11.319682094722054"><ele>362.6666666666667</ele><time>2026-04-06T15:48:04.999Z</time></trkpt><trkpt lat="43.21159245430517" lon="11.319555753550427"><ele>362.0</ele><time>2026-04-06T15:48:05.999Z</time></trkpt><trkpt lat="43.21143538146006" lon="11.319410168749185"><ele>362.0</ele><time>2026-04-06T15:48:06.999Z</time></trkpt><trkpt lat="43.21130161475386" lon="11.319231113528067"><ele>362.0</ele><time>2026-04-06T15:48:07.999Z</time></trkpt><trkpt lat="43.211171649198086" lon="11.319055034735554"><ele>362.0</ele><time>2026-04-06T15:48:08.999Z</time></trkpt><trkpt lat="43.211050820273364" lon="11.318872494876969"><ele>361.33333333333337</ele><time>2026-04-06T15:48:09.999Z</time></trkpt><trkpt lat="43.21093206181642" lon="11.31868855776081"><ele>360.6666666666667</ele><time>2026-04-06T15:48:10.999Z</time></trkpt><trkpt lat="43.21081705647672" lon="11.31851043359724"><ele>360.0</ele><time>2026-04-06T15:48:11.999Z</time></trkpt><trkpt lat="43.21062723359406" lon="11.318405048872219"><ele>360.0</ele><time>2026-04-06T15:48:12.999Z</time></trkpt><trkpt lat="43.210468746492445" lon="11.318237563509676"><ele>360.0</ele><time>2026-04-06T15:48:13.999Z</time></trkpt><trkpt lat="43.210307569997966" lon="11.318084634933422"><ele>360.0</ele><time>2026-04-06T15:48:14.999Z</time></trkpt><trkpt lat="43.21015582268787" lon="11.317946537941596"><ele>356.6666666666667</ele><time>2026-04-06T15:48:15.999Z</time></trkpt><trkpt lat="43.210014206983814" lon="11.317819055463584"><ele>353.33333333333337</ele><time>2026-04-06T15:48:16.999Z</time></trkpt><trkpt lat="43.209876999755615" lon="11.317705037311692"><ele>350.0</ele><time>2026-04-06T15:48:17.999Z</time></trkpt><trkpt lat="43.209754371529876" lon="11.31758835956125"><ele>350.0</ele><time>2026-04-06T15:48:18.999Z</time></trkpt><trkpt lat="43.20963980158929" lon="11.317483482842647"><ele>350.0</ele><time>2026-04-06T15:48:19.999Z</time></trkpt><trkpt lat="43.209518111173104" lon="11.317399387671879"><ele>350.0</ele><time>2026-04-06T15:48:20.999Z</time></trkpt><trkpt lat="43.20940947661982" lon="11.317350755448324"><ele>350.0</ele><time>2026-04-06T15:48:21.999Z</time></trkpt><trkpt lat="43.209297573968584" lon="11.317388247343155"><ele>350.0</ele><time>2026-04-06T15:48:22.998Z</time></trkpt><trkpt lat="43.20921556205848" lon="11.317461717284724"><ele>350.0</ele><time>2026-04-06T15:48:23.998Z</time></trkpt><trkpt lat="43.20914914401057" lon="11.317574970794519"><ele>350.0</ele><time>2026-04-06T15:48:24.998Z</time></trkpt><trkpt lat="43.209071425373935" lon="11.317694217254438"><ele>350.0</ele><time>2026-04-06T15:48:25.998Z</time></trkpt><trkpt lat="43.208966133520825" lon="11.317813009582887"><ele>346.0</ele><time>2026-04-06T15:48:26.998Z</time></trkpt><trkpt lat="43.20883698000917" lon="11.317916455461797"><ele>342.0</ele><time>2026-04-06T15:48:27.998Z</time></trkpt><trkpt lat="43.20867838203487" lon="11.31798887836033"><ele>338.0</ele><time>2026-04-06T15:48:28.998Z</time></trkpt><trkpt lat="43.20850364197497" lon="11.318029240995607"><ele>339.33333333333337</ele><time>2026-04-06T15:48:29.998Z</time></trkpt><trkpt lat="43.20834749207279" lon="11.318080256516033"><ele>340.6666666666667</ele><time>2026-04-06T15:48:30.998Z</time></trkpt><trkpt lat="43.20818093676581" lon="11.318129389144218"><ele>342.0</ele><time>2026-04-06T15:48:31.998Z</time></trkpt><trkpt lat="43.20801382045804" lon="11.318174215537647"><ele>342.0</ele><time>2026-04-06T15:48:32.998Z</time></trkpt><trkpt lat="43.207852762334376" lon="11.318236783354005"><ele>342.0</ele><time>2026-04-06T15:48:33.998Z</time></trkpt><trkpt lat="43.20764329275801" lon="11.318337481830135"><ele>342.0</ele><time>2026-04-06T15:48:34.998Z</time></trkpt><trkpt lat="43.207464438962006" lon="11.318464373313201"><ele>342.0</ele><time>2026-04-06T15:48:35.998Z</time></trkpt><trkpt lat="43.20733421322503" lon="11.31860783214026"><ele>342.0</ele><time>2026-04-06T15:48:36.998Z</time></trkpt><trkpt lat="43.207206922313304" lon="11.318771502135359"><ele>342.0</ele><time>2026-04-06T15:48:37.998Z</time></trkpt><trkpt lat="43.20708354132439" lon="11.318947267679798"><ele>343.3333333333333</ele><time>2026-04-06T15:48:38.998Z</time></trkpt><trkpt lat="43.206959895415345" lon="11.319112794833535"><ele>344.66666666666663</ele><time>2026-04-06T15:48:39.998Z</time></trkpt><trkpt lat="43.20687640863973" lon="11.319295143809734"><ele>346.0</ele><time>2026-04-06T15:48:40.998Z</time></trkpt><trkpt lat="43.20676329015131" lon="11.319470315047832"><ele>346.0</ele><time>2026-04-06T15:48:41.998Z</time></trkpt><trkpt lat="43.20664877493358" lon="11.319644045140292"><ele>346.0</ele><time>2026-04-06T15:48:42.998Z</time></trkpt><trkpt lat="43.20654724932366" lon="11.31983183351812"><ele>346.0</ele><time>2026-04-06T15:48:43.998Z</time></trkpt><trkpt lat="43.20646746467376" lon="11.320040998654862"><ele>346.0</ele><time>2026-04-06T15:48:44.998Z</time></trkpt><trkpt lat="43.20640035273356" lon="11.320250866422215"><ele>346.0</ele><time>2026-04-06T15:48:45.998Z</time></trkpt><trkpt lat="43.20634756164497" lon="11.320450776343943"><ele>346.0</ele><time>2026-04-06T15:48:46.998Z</time></trkpt><trkpt lat="43.206293324736215" lon="11.320644257872157"><ele>346.0</ele><time>2026-04-06T15:48:47.998Z</time></trkpt><trkpt lat="43.20620536715393" lon="11.320796251637285"><ele>346.0</ele><time>2026-04-06T15:48:48.998Z</time></trkpt><trkpt lat="43.206106703961076" lon="11.32093340442413"><ele>346.0</ele><time>2026-04-06T15:48:49.998Z</time></trkpt><trkpt lat="43.2059792590619" lon="11.321050076143482"><ele>346.0</ele><time>2026-04-06T15:48:50.998Z</time></trkpt><trkpt lat="43.20584669621894" lon="11.321186529538023"><ele>346.0</ele><time>2026-04-06T15:48:51.998Z</time></trkpt><trkpt lat="43.20570391374759" lon="11.321328520084656"><ele>346.0</ele><time>2026-04-06T15:48:52.998Z</time></trkpt><trkpt lat="43.20556918549155" lon="11.321441732857174"><ele>346.0</ele><time>2026-04-06T15:48:53.998Z</time></trkpt><trkpt lat="43.20542355579478" lon="11.321528867182984"><ele>343.66666666666663</ele><time>2026-04-06T15:48:54.998Z</time></trkpt><trkpt lat="43.20528625997335" lon="11.321604025330922"><ele>341.3333333333333</ele><time>2026-04-06T15:48:55.998Z</time></trkpt><trkpt lat="43.2051337640075" lon="11.321662400379012"><ele>339.0</ele><time>2026-04-06T15:48:56.998Z</time></trkpt><trkpt lat="43.20498295533388" lon="11.321710673826322"><ele>339.0</ele><time>2026-04-06T15:48:57.998Z</time></trkpt><trkpt lat="43.20483987395195" lon="11.321750305914687"><ele>339.0</ele><time>2026-04-06T15:48:58.998Z</time></trkpt><trkpt lat="43.20472788665687" lon="11.321830704110258"><ele>339.0</ele><time>2026-04-06T15:48:59.998Z</time></trkpt><trkpt lat="43.20462965686923" lon="11.32192008899263"><ele>339.0</ele><time>2026-04-06T15:49:00.998Z</time></trkpt><trkpt lat="43.20454329346277" lon="11.321985597707068"><ele>337.3333333333333</ele><time>2026-04-06T15:49:01.998Z</time></trkpt><trkpt lat="43.20449092556298" lon="11.322054243376096"><ele>335.6666666666667</ele><time>2026-04-06T15:49:02.998Z</time></trkpt><trkpt lat="43.204441622302234" lon="11.322115405829965"><ele>334.0</ele><time>2026-04-06T15:49:03.998Z</time></trkpt><trkpt lat="43.20433711284646" lon="11.322134826871658"><ele>332.33333333333337</ele><time>2026-04-06T15:49:05.998Z</time></trkpt><trkpt lat="43.20426680974751" lon="11.322012965724356"><ele>330.6666666666667</ele><time>2026-04-06T15:49:07.998Z</time></trkpt><trkpt lat="43.204266963459254" lon="11.321909047719199"><ele>329.0</ele><time>2026-04-06T15:49:08.998Z</time></trkpt><trkpt lat="43.20428459584675" lon="11.32176318557602"><ele>329.0</ele><time>2026-04-06T15:49:09.998Z</time></trkpt><trkpt lat="43.20428195708396" lon="11.321629820387633"><ele>329.0</ele><time>2026-04-06T15:49:11Z</time></trkpt><trkpt lat="43.20427679357779" lon="11.321500650804182"><ele>329.0</ele><time>2026-04-06T15:49:12Z</time></trkpt><trkpt lat="43.20427879736947" lon="11.321360088561194"><ele>329.0</ele><time>2026-04-06T15:49:13Z</time></trkpt><trkpt lat="43.20428337900812" lon="11.321211236430758"><ele>329.0</ele><time>2026-04-06T15:49:14Z</time></trkpt><trkpt lat="43.204283856566484" lon="11.32105551449229"><ele>328.6</ele><time>2026-04-06T15:49:15Z</time></trkpt><trkpt lat="43.204266233145844" lon="11.320901347723156"><ele>328.2</ele><time>2026-04-06T15:49:16Z</time></trkpt><trkpt lat="43.20423324673781" lon="11.320757358495456"><ele>327.8</ele><time>2026-04-06T15:49:17Z</time></trkpt><trkpt lat="43.20419764662955" lon="11.320631118883226"><ele>327.40000000000003</ele><time>2026-04-06T15:49:18Z</time></trkpt><trkpt lat="43.204170005397856" lon="11.32051293708623"><ele>327.0</ele><time>2026-04-06T15:49:19Z</time></trkpt><trkpt lat="43.20414098509968" lon="11.32040634049628"><ele>327.0</ele><time>2026-04-06T15:49:20Z</time></trkpt><trkpt lat="43.20410994340705" lon="11.320316641583927"><ele>327.0</ele><time>2026-04-06T15:49:21Z</time></trkpt><trkpt lat="43.20407989807569" lon="11.320224070456476"><ele>327.0</ele><time>2026-04-06T15:49:22Z</time></trkpt><trkpt lat="43.204054506235174" lon="11.320128558783077"><ele>327.0</ele><time>2026-04-06T15:49:23Z</time></trkpt><trkpt lat="43.20402406384977" lon="11.320024470161675"><ele>327.0</ele><time>2026-04-06T15:49:24Z</time></trkpt><trkpt lat="43.203991846294" lon="11.319919083496222"><ele>327.0</ele><time>2026-04-06T15:49:25Z</time></trkpt><trkpt lat="43.20395615107628" lon="11.31981699819412"><ele>326.0</ele><time>2026-04-06T15:49:26Z</time></trkpt><trkpt lat="43.20393002669105" lon="11.319713758928449"><ele>325.0</ele><time>2026-04-06T15:49:27Z</time></trkpt><trkpt lat="43.203907660206035" lon="11.319612307846945"><ele>324.0</ele><time>2026-04-06T15:49:28Z</time></trkpt><trkpt lat="43.20387874041951" lon="11.31951818996962"><ele>323.0</ele><time>2026-04-06T15:49:29Z</time></trkpt><trkpt lat="43.203851751793685" lon="11.319427146530229"><ele>322.0</ele><time>2026-04-06T15:49:30Z</time></trkpt><trkpt lat="43.20382441000547" lon="11.31934269400714"><ele>321.0</ele><time>2026-04-06T15:49:31Z</time></trkpt><trkpt lat="43.20379976014411" lon="11.319259118021836"><ele>320.0</ele><time>2026-04-06T15:49:32Z</time></trkpt><trkpt lat="43.20377396897591" lon="11.319174907566948"><ele>320.0</ele><time>2026-04-06T15:49:32.999Z</time></trkpt><trkpt lat="43.20374555315859" lon="11.319085839099372"><ele>320.0</ele><time>2026-04-06T15:49:33.999Z</time></trkpt><trkpt lat="43.203719941194215" lon="11.3190003754753"><ele>320.0</ele><time>2026-04-06T15:49:34.999Z</time></trkpt><trkpt lat="43.203692984878636" lon="11.318916435659043"><ele>320.0</ele><time>2026-04-06T15:49:35.999Z</time></trkpt><trkpt lat="43.2036615821368" lon="11.318836388934189"><ele>320.0</ele><time>2026-04-06T15:49:36.999Z</time></trkpt><trkpt lat="43.20362020020832" lon="11.31877026233062"><ele>320.0</ele><time>2026-04-06T15:49:37.999Z</time></trkpt><trkpt lat="43.203562658162376" lon="11.318725500553361"><ele>320.0</ele><time>2026-04-06T15:49:38.999Z</time></trkpt><trkpt lat="43.203478757646316" lon="11.318719200196366"><ele>318.0</ele><time>2026-04-06T15:49:39.999Z</time></trkpt><trkpt lat="43.203371750665106" lon="11.3187432971249"><ele>316.0</ele><time>2026-04-06T15:49:40.999Z</time></trkpt><trkpt lat="43.20324204785657" lon="11.31877171842544"><ele>314.0</ele><time>2026-04-06T15:49:41.999Z</time></trkpt><trkpt lat="43.2030790866149" lon="11.318798964853771"><ele>312.0</ele><time>2026-04-06T15:49:42.999Z</time></trkpt><trkpt lat="43.20290123873133" lon="11.318827337689955"><ele>309.6666666666667</ele><time>2026-04-06T15:49:43.999Z</time></trkpt><trkpt lat="43.20271327133559" lon="11.318855698121196"><ele>307.33333333333337</ele><time>2026-04-06T15:49:44.999Z</time></trkpt><trkpt lat="43.20251824207599" lon="11.318876636036519"><ele>305.0</ele><time>2026-04-06T15:49:45.999Z</time></trkpt><trkpt lat="43.202313836033596" lon="11.318892254465736"><ele>305.33333333333337</ele><time>2026-04-06T15:49:46.999Z</time></trkpt><trkpt lat="43.2021121390266" lon="11.318900236170943"><ele>305.6666666666667</ele><time>2026-04-06T15:49:47.999Z</time></trkpt><trkpt lat="43.20191731660058" lon="11.318915225767709"><ele>306.0</ele><time>2026-04-06T15:49:48.999Z</time></trkpt><trkpt lat="43.20171772757457" lon="11.318939250852859"><ele>306.0</ele><time>2026-04-06T15:49:49.999Z</time></trkpt><trkpt lat="43.20152307911942" lon="11.318958608276336"><ele>306.0</ele><time>2026-04-06T15:49:50.999Z</time></trkpt><trkpt lat="43.20134753587445" lon="11.318973743601683"><ele>306.0</ele><time>2026-04-06T15:49:51.999Z</time></trkpt><trkpt lat="43.20117182769978" lon="11.318989711801668"><ele>306.3333333333333</ele><time>2026-04-06T15:49:52.999Z</time></trkpt><trkpt lat="43.20100845262793" lon="11.319029425975673"><ele>306.66666666666663</ele><time>2026-04-06T15:49:53.999Z</time></trkpt><trkpt lat="43.20086612104822" lon="11.319123940994507"><ele>307.0</ele><time>2026-04-06T15:49:54.999Z</time></trkpt><trkpt lat="43.20075415838146" lon="11.319263532645058"><ele>309.3333333333333</ele><time>2026-04-06T15:49:55.999Z</time></trkpt><trkpt lat="43.200662636590906" lon="11.319422107736868"><ele>311.6666666666667</ele><time>2026-04-06T15:49:56.999Z</time></trkpt><trkpt lat="43.200560397588056" lon="11.319566848071165"><ele>314.0</ele><time>2026-04-06T15:49:57.999Z</time></trkpt><trkpt lat="43.20044833037236" lon="11.319727021033556"><ele>314.6666666666667</ele><time>2026-04-06T15:49:58.999Z</time></trkpt><trkpt lat="43.200339147780795" lon="11.319899030734298"><ele>315.3333333333333</ele><time>2026-04-06T15:49:59.999Z</time></trkpt><trkpt lat="43.200206564218185" lon="11.320085999612553"><ele>316.0</ele><time>2026-04-06T15:50:00.999Z</time></trkpt><trkpt lat="43.20006674837294" lon="11.320259574124014"><ele>316.0</ele><time>2026-04-06T15:50:01.999Z</time></trkpt><trkpt lat="43.19993187449949" lon="11.320443603464295"><ele>316.0</ele><time>2026-04-06T15:50:02.999Z</time></trkpt><trkpt lat="43.199857133623716" lon="11.3206430013035"><ele>316.0</ele><time>2026-04-06T15:50:03.999Z</time></trkpt><trkpt lat="43.19978954802714" lon="11.320842781574475"><ele>319.3333333333333</ele><time>2026-04-06T15:50:04.999Z</time></trkpt><trkpt lat="43.199719738998894" lon="11.321013923516992"><ele>322.6666666666667</ele><time>2026-04-06T15:50:05.999Z</time></trkpt><trkpt lat="43.199601006449655" lon="11.321178044326121"><ele>326.0</ele><time>2026-04-06T15:50:06.999Z</time></trkpt><trkpt lat="43.199489396145886" lon="11.321307661862319"><ele>324.0</ele><time>2026-04-06T15:50:07.999Z</time></trkpt><trkpt lat="43.19936459198352" lon="11.321478056741173"><ele>322.0</ele><time>2026-04-06T15:50:08.999Z</time></trkpt><trkpt lat="43.199281818913185" lon="11.321660255705025"><ele>320.0</ele><time>2026-04-06T15:50:09.999Z</time></trkpt><trkpt lat="43.1991954066418" lon="11.321830245756802"><ele>320.0</ele><time>2026-04-06T15:50:10.999Z</time></trkpt><trkpt lat="43.19908225034757" lon="11.321971857768224"><ele>320.0</ele><time>2026-04-06T15:50:11.999Z</time></trkpt><trkpt lat="43.19892295918473" lon="11.3220215863265"><ele>320.0</ele><time>2026-04-06T15:50:12.999Z</time></trkpt><trkpt lat="43.1987812479348" lon="11.322020302546001"><ele>321.5</ele><time>2026-04-06T15:50:13.999Z</time></trkpt><trkpt lat="43.19867225002169" lon="11.321993994275532"><ele>323.0</ele><time>2026-04-06T15:50:14.999Z</time></trkpt><trkpt lat="43.198579014827956" lon="11.322013011486192"><ele>324.5</ele><time>2026-04-06T15:50:15.999Z</time></trkpt><trkpt lat="43.19841814460119" lon="11.32209556257127"><ele>326.0</ele><time>2026-04-06T15:50:16.999Z</time></trkpt><trkpt lat="43.198312270508474" lon="11.322207376226695"><ele>325.75</ele><time>2026-04-06T15:50:17.999Z</time></trkpt><trkpt lat="43.19824250805618" lon="11.322345050933547"><ele>325.5</ele><time>2026-04-06T15:50:18.999Z</time></trkpt><trkpt lat="43.19816354246538" lon="11.322508901749575"><ele>325.25</ele><time>2026-04-06T15:50:19.999Z</time></trkpt><trkpt lat="43.19811461959505" lon="11.322691876237101"><ele>325.0</ele><time>2026-04-06T15:50:20.999Z</time></trkpt><trkpt lat="43.19808870752415" lon="11.322878691771711"><ele>325.0</ele><time>2026-04-06T15:50:21.999Z</time></trkpt><trkpt lat="43.19808042536389" lon="11.32305257712748"><ele>325.0</ele><time>2026-04-06T15:50:22.999Z</time></trkpt><trkpt lat="43.1980055412878" lon="11.323238909026502"><ele>325.0</ele><time>2026-04-06T15:50:23.999Z</time></trkpt><trkpt lat="43.19790424186205" lon="11.323409145902401"><ele>325.0</ele><time>2026-04-06T15:50:24.999Z</time></trkpt><trkpt lat="43.19780074073369" lon="11.323517446471008"><ele>322.5</ele><time>2026-04-06T15:50:25.998Z</time></trkpt><trkpt lat="43.197670475001786" lon="11.323575996021328"><ele>320.0</ele><time>2026-04-06T15:50:26.998Z</time></trkpt><trkpt lat="43.19753900678621" lon="11.32356555263965"><ele>317.5</ele><time>2026-04-06T15:50:27.998Z</time></trkpt><trkpt lat="43.19742428215167" lon="11.323516150231493"><ele>315.0</ele><time>2026-04-06T15:50:28.998Z</time></trkpt><trkpt lat="43.19733206745802" lon="11.323424554471293"><ele>314.25</ele><time>2026-04-06T15:50:29.998Z</time></trkpt><trkpt lat="43.197233261429325" lon="11.323324139523562"><ele>313.5</ele><time>2026-04-06T15:50:30.998Z</time></trkpt><trkpt lat="43.19709687807966" lon="11.323254657414227"><ele>312.75</ele><time>2026-04-06T15:50:31.998Z</time></trkpt><trkpt lat="43.19696813323105" lon="11.32320419682694"><ele>312.0</ele><time>2026-04-06T15:50:32.998Z</time></trkpt><trkpt lat="43.196829005758254" lon="11.323148572275361"><ele>312.0</ele><time>2026-04-06T15:50:33.998Z</time></trkpt><trkpt lat="43.19672055596307" lon="11.323097735121294"><ele>312.0</ele><time>2026-04-06T15:50:34.998Z</time></trkpt><trkpt lat="43.196611159135756" lon="11.323036818379697"><ele>312.0</ele><time>2026-04-06T15:50:35.998Z</time></trkpt><trkpt lat="43.19652160782003" lon="11.323056310460618"><ele>312.0</ele><time>2026-04-06T15:50:36.998Z</time></trkpt><trkpt lat="43.1964538912804" lon="11.323137679982223"><ele>312.0</ele><time>2026-04-06T15:50:37.998Z</time></trkpt><trkpt lat="43.19639766503613" lon="11.323222396112486"><ele>310.5</ele><time>2026-04-06T15:50:38.998Z</time></trkpt><trkpt lat="43.196329868504215" lon="11.323333967170742"><ele>309.0</ele><time>2026-04-06T15:50:39.998Z</time></trkpt><trkpt lat="43.19627673731136" lon="11.323455938551596"><ele>307.5</ele><time>2026-04-06T15:50:40.998Z</time></trkpt><trkpt lat="43.19619944033244" lon="11.32358465999106"><ele>306.0</ele><time>2026-04-06T15:50:41.998Z</time></trkpt><trkpt lat="43.196125926052" lon="11.323726325863216"><ele>306.0</ele><time>2026-04-06T15:50:42.998Z</time></trkpt><trkpt lat="43.19604796994437" lon="11.323892791381555"><ele>306.0</ele><time>2026-04-06T15:50:43.998Z</time></trkpt><trkpt lat="43.19594286175263" lon="11.324091405600145"><ele>306.0</ele><time>2026-04-06T15:50:44.998Z</time></trkpt><trkpt lat="43.195808728208874" lon="11.324246988178233"><ele>310.6666666666667</ele><time>2026-04-06T15:50:45.998Z</time></trkpt><trkpt lat="43.195623912665326" lon="11.324339711494472"><ele>315.33333333333337</ele><time>2026-04-06T15:50:46.998Z</time></trkpt><trkpt lat="43.19545600196389" lon="11.324345510940091"><ele>320.0</ele><time>2026-04-06T15:50:47.998Z</time></trkpt><trkpt lat="43.195295652312616" lon="11.324311598504655"><ele>320.0</ele><time>2026-04-06T15:50:48.998Z</time></trkpt><trkpt lat="43.195166213574545" lon="11.324253724856813"><ele>320.0</ele><time>2026-04-06T15:50:49.998Z</time></trkpt><trkpt lat="43.19503277806794" lon="11.324191226558325"><ele>320.0</ele><time>2026-04-06T15:50:50.998Z</time></trkpt><trkpt lat="43.19489929273514" lon="11.32414617944822"><ele>320.0</ele><time>2026-04-06T15:50:51.998Z</time></trkpt><trkpt lat="43.19479440507862" lon="11.324125450963086"><ele>321.4</ele><time>2026-04-06T15:50:52.998Z</time></trkpt><trkpt lat="43.19471310015005" lon="11.324114079197509"><ele>322.8</ele><time>2026-04-06T15:50:53.998Z</time></trkpt><trkpt lat="43.19462302397332" lon="11.324108664906339"><ele>324.20000000000005</ele><time>2026-04-06T15:50:54.998Z</time></trkpt><trkpt lat="43.19450824592041" lon="11.324068893885817"><ele>325.6</ele><time>2026-04-06T15:50:55.998Z</time></trkpt><trkpt lat="43.1943741123388" lon="11.323998324567093"><ele>327.0</ele><time>2026-04-06T15:50:56.998Z</time></trkpt><trkpt lat="43.1942378125483" lon="11.32396628470361"><ele>327.0</ele><time>2026-04-06T15:50:57.998Z</time></trkpt><trkpt lat="43.194110827784684" lon="11.323956994089956"><ele>327.0</ele><time>2026-04-06T15:50:58.998Z</time></trkpt><trkpt lat="43.1940009401921" lon="11.323901388014992"><ele>327.0</ele><time>2026-04-06T15:50:59.998Z</time></trkpt><trkpt lat="43.193889634804734" lon="11.323828263751437"><ele>327.0</ele><time>2026-04-06T15:51:00.998Z</time></trkpt><trkpt lat="43.19380038846002" lon="11.323787936795705"><ele>326.6666666666667</ele><time>2026-04-06T15:51:01.998Z</time></trkpt><trkpt lat="43.19371748258645" lon="11.32381567531903"><ele>326.3333333333333</ele><time>2026-04-06T15:51:02.998Z</time></trkpt><trkpt lat="43.19366771232765" lon="11.323883204300804"><ele>326.0</ele><time>2026-04-06T15:51:03.998Z</time></trkpt><trkpt lat="43.19365689790583" lon="11.32398824793801"><ele>325.66666666666663</ele><time>2026-04-06T15:51:04.998Z</time></trkpt><trkpt lat="43.193640963262375" lon="11.32410101773926"><ele>325.3333333333333</ele><time>2026-04-06T15:51:05.998Z</time></trkpt><trkpt lat="43.193583877400805" lon="11.324207871944589"><ele>325.0</ele><time>2026-04-06T15:51:06.998Z</time></trkpt><trkpt lat="43.19344073060767" lon="11.324288736971752"><ele>328.75</ele><time>2026-04-06T15:51:07.998Z</time></trkpt><trkpt lat="43.193319486249614" lon="11.324371366041234"><ele>332.5</ele><time>2026-04-06T15:51:08.998Z</time></trkpt><trkpt lat="43.19319178114169" lon="11.324472853697433"><ele>336.25</ele><time>2026-04-06T15:51:09.998Z</time></trkpt><trkpt lat="43.193085249396226" lon="11.324522774204135"><ele>340.0</ele><time>2026-04-06T15:51:10.998Z</time></trkpt><trkpt lat="43.19299440820602" lon="11.324504533232862"><ele>340.75</ele><time>2026-04-06T15:51:11.998Z</time></trkpt><trkpt lat="43.19285830373409" lon="11.324502323527623"><ele>341.5</ele><time>2026-04-06T15:51:12.998Z</time></trkpt><trkpt lat="43.192720992418266" lon="11.324566311576023"><ele>342.25</ele><time>2026-04-06T15:51:13.998Z</time></trkpt><trkpt lat="43.192613099436336" lon="11.32464012220341"><ele>343.0</ele><time>2026-04-06T15:51:14.998Z</time></trkpt><trkpt lat="43.192504150020426" lon="11.324698275198113"><ele>343.0</ele><time>2026-04-06T15:51:15.998Z</time></trkpt><trkpt lat="43.192373164727115" lon="11.324677707446423"><ele>343.0</ele><time>2026-04-06T15:51:17Z</time></trkpt><trkpt lat="43.19224342654296" lon="11.324643441814475"><ele>343.0</ele><time>2026-04-06T15:51:18Z</time></trkpt><trkpt lat="43.192083979969006" lon="11.324483711421621"><ele>345.0</ele><time>2026-04-06T15:51:19Z</time></trkpt><trkpt lat="43.19195847789675" lon="11.324468985544417"><ele>347.0</ele><time>2026-04-06T15:51:20Z</time></trkpt><trkpt lat="43.191834563064695" lon="11.324417846076976"><ele>349.0</ele><time>2026-04-06T15:51:21Z</time></trkpt><trkpt lat="43.19167118893045" lon="11.324275770507573"><ele>351.0</ele><time>2026-04-06T15:51:22Z</time></trkpt><trkpt lat="43.19149461075862" lon="11.324260691402028"><ele>354.0</ele><time>2026-04-06T15:51:23Z</time></trkpt><trkpt lat="43.19133389513366" lon="11.324299779193035"><ele>357.0</ele><time>2026-04-06T15:51:24Z</time></trkpt><trkpt lat="43.191176402986784" lon="11.324350666398946"><ele>360.0</ele><time>2026-04-06T15:51:25Z</time></trkpt><trkpt lat="43.19102806608337" lon="11.324410392408238"><ele>360.0</ele><time>2026-04-06T15:51:26Z</time></trkpt><trkpt lat="43.190928606164825" lon="11.324392597776752"><ele>360.0</ele><time>2026-04-06T15:51:27Z</time></trkpt><trkpt lat="43.1908000114014" lon="11.324352230713693"><ele>360.0</ele><time>2026-04-06T15:51:28Z</time></trkpt><trkpt lat="43.190707043082625" lon="11.324274607796463"><ele>360.0</ele><time>2026-04-06T15:51:29Z</time></trkpt><trkpt lat="43.19064944855153" lon="11.324205617511776"><ele>360.0</ele><time>2026-04-06T15:51:30Z</time></trkpt><trkpt lat="43.19054962915712" lon="11.32422523178907"><ele>361.4</ele><time>2026-04-06T15:51:31Z</time></trkpt><trkpt lat="43.19044822334974" lon="11.324199736491922"><ele>362.8</ele><time>2026-04-06T15:51:32Z</time></trkpt><trkpt lat="43.19034156262938" lon="11.324268131467756"><ele>364.20000000000005</ele><time>2026-04-06T15:51:33Z</time></trkpt><trkpt lat="43.190265438336546" lon="11.32433662770878"><ele>365.6</ele><time>2026-04-06T15:51:34Z</time></trkpt><trkpt lat="43.19014748929797" lon="11.324400855520638"><ele>367.0</ele><time>2026-04-06T15:51:35Z</time></trkpt><trkpt lat="43.19001774444282" lon="11.324453587155087"><ele>367.0</ele><time>2026-04-06T15:51:36Z</time></trkpt><trkpt lat="43.189896249790856" lon="11.324413641139873"><ele>367.0</ele><time>2026-04-06T15:51:36.999Z</time></trkpt><trkpt lat="43.18973967707512" lon="11.324435892748802"><ele>367.0</ele><time>2026-04-06T15:51:38.999Z</time></trkpt><trkpt lat="43.18965814017518" lon="11.324442814944584"><ele>367.0</ele><time>2026-04-06T15:51:39.999Z</time></trkpt><trkpt lat="43.18952917901008" lon="11.324506565633133"><ele>368.0</ele><time>2026-04-06T15:51:40.999Z</time></trkpt><trkpt lat="43.1894423663451" lon="11.324552688752952"><ele>369.0</ele><time>2026-04-06T15:51:41.999Z</time></trkpt><trkpt lat="43.18937339860144" lon="11.324584613555443"><ele>370.0</ele><time>2026-04-06T15:51:42.999Z</time></trkpt><trkpt lat="43.189242762481925" lon="11.324615853703179"><ele>371.0</ele><time>2026-04-06T15:51:43.999Z</time></trkpt><trkpt lat="43.189131338368405" lon="11.324635246719568"><ele>372.0</ele><time>2026-04-06T15:51:44.999Z</time></trkpt><trkpt lat="43.18900874955383" lon="11.324660385861355"><ele>373.25</ele><time>2026-04-06T15:51:45.999Z</time></trkpt><trkpt lat="43.18887875636782" lon="11.324709476429073"><ele>374.5</ele><time>2026-04-06T15:51:46.999Z</time></trkpt><trkpt lat="43.18876142696916" lon="11.324732216979315"><ele>375.75</ele><time>2026-04-06T15:51:47.999Z</time></trkpt><trkpt lat="43.18863236936929" lon="11.324754306506064"><ele>377.0</ele><time>2026-04-06T15:51:48.999Z</time></trkpt><trkpt lat="43.18853236855557" lon="11.324778442273365"><ele>377.0</ele><time>2026-04-06T15:51:49.999Z</time></trkpt><trkpt lat="43.18835600094201" lon="11.324726049485205"><ele>377.0</ele><time>2026-04-06T15:51:50.999Z</time></trkpt><trkpt lat="43.188202290791274" lon="11.324885056353132"><ele>377.0</ele><time>2026-04-06T15:51:51.999Z</time></trkpt><trkpt lat="43.18811273431785" lon="11.325062446460537"><ele>380.25</ele><time>2026-04-06T15:51:52.999Z</time></trkpt><trkpt lat="43.1880376598762" lon="11.32524131526043"><ele>383.5</ele><time>2026-04-06T15:51:53.999Z</time></trkpt><trkpt lat="43.187955801672736" lon="11.325436610175293"><ele>386.75</ele><time>2026-04-06T15:51:54.999Z</time></trkpt><trkpt lat="43.187880774745835" lon="11.325589293645287"><ele>390.0</ele><time>2026-04-06T15:51:55.999Z</time></trkpt><trkpt lat="43.187786740805954" lon="11.325708735970265"><ele>392.5</ele><time>2026-04-06T15:51:56.999Z</time></trkpt><trkpt lat="43.18768043132135" lon="11.325831910280984"><ele>395.0</ele><time>2026-04-06T15:51:57.999Z</time></trkpt><trkpt lat="43.187543929587996" lon="11.325902352699318"><ele>397.5</ele><time>2026-04-06T15:51:58.999Z</time></trkpt><trkpt lat="43.18742248697149" lon="11.325960873509235"><ele>400.0</ele><time>2026-04-06T15:51:59.999Z</time></trkpt><trkpt lat="43.187301854980085" lon="11.326021748291183"><ele>400.0</ele><time>2026-04-06T15:52:00.999Z</time></trkpt><trkpt lat="43.18717787759395" lon="11.326065115253433"><ele>400.0</ele><time>2026-04-06T15:52:01.999Z</time></trkpt><trkpt lat="43.18705225431706" lon="11.326153545654389"><ele>400.0</ele><time>2026-04-06T15:52:02.999Z</time></trkpt><trkpt lat="43.18696291705656" lon="11.326223127909909"><ele>400.0</ele><time>2026-04-06T15:52:03.999Z</time></trkpt><trkpt lat="43.18683229405341" lon="11.326327860668052"><ele>402.0</ele><time>2026-04-06T15:52:04.999Z</time></trkpt><trkpt lat="43.18672637726891" lon="11.326402896425892"><ele>404.0</ele><time>2026-04-06T15:52:05.999Z</time></trkpt><trkpt lat="43.18659394932292" lon="11.326461447084649"><ele>406.0</ele><time>2026-04-06T15:52:06.999Z</time></trkpt><trkpt lat="43.18646933271245" lon="11.326520313067356"><ele>408.0</ele><time>2026-04-06T15:52:07.999Z</time></trkpt><trkpt lat="43.18633175725598" lon="11.326580332405019"><ele>408.66666666666663</ele><time>2026-04-06T15:52:08.999Z</time></trkpt><trkpt lat="43.18618437243261" lon="11.326655349650446"><ele>409.3333333333333</ele><time>2026-04-06T15:52:09.999Z</time></trkpt><trkpt lat="43.18603890616526" lon="11.326708927912023"><ele>410.0</ele><time>2026-04-06T15:52:10.999Z</time></trkpt><trkpt lat="43.18584328638316" lon="11.326763302209223"><ele>412.0</ele><time>2026-04-06T15:52:11.999Z</time></trkpt><trkpt lat="43.185636562539564" lon="11.32682794786183"><ele>414.0</ele><time>2026-04-06T15:52:12.999Z</time></trkpt><trkpt lat="43.18540355318703" lon="11.326873288525247"><ele>416.0</ele><time>2026-04-06T15:52:13.999Z</time></trkpt><trkpt lat="43.185270832559155" lon="11.326867343445025"><ele>416.0</ele><time>2026-04-06T15:52:14.999Z</time></trkpt><trkpt lat="43.18511263189367" lon="11.326828674636232"><ele>416.0</ele><time>2026-04-06T15:52:15.999Z</time></trkpt><trkpt lat="43.184978707242756" lon="11.326700213907527"><ele>416.0</ele><time>2026-04-06T15:52:16.999Z</time></trkpt><trkpt lat="43.18489854293678" lon="11.326577892835974"><ele>416.0</ele><time>2026-04-06T15:52:17.999Z</time></trkpt><trkpt lat="43.18486490749907" lon="11.326397269260708"><ele>418.5</ele><time>2026-04-06T15:52:18.999Z</time></trkpt><trkpt lat="43.18480724785276" lon="11.326257672667163"><ele>421.0</ele><time>2026-04-06T15:52:19.999Z</time></trkpt><trkpt lat="43.18471606630207" lon="11.326087564606247"><ele>423.5</ele><time>2026-04-06T15:52:20.999Z</time></trkpt><trkpt lat="43.184584789087815" lon="11.325985355480025"><ele>426.0</ele><time>2026-04-06T15:52:21.999Z</time></trkpt><trkpt lat="43.18446468372745" lon="11.325920605320817"><ele>426.0</ele><time>2026-04-06T15:52:22.999Z</time></trkpt><trkpt lat="43.18431508930274" lon="11.325854699073034"><ele>426.0</ele><time>2026-04-06T15:52:23.999Z</time></trkpt><trkpt lat="43.18416242076878" lon="11.325777833949656"><ele>426.0</ele><time>2026-04-06T15:52:24.999Z</time></trkpt><trkpt lat="43.18400653397152" lon="11.32569808282386"><ele>428.33333333333337</ele><time>2026-04-06T15:52:25.999Z</time></trkpt><trkpt lat="43.18386159983521" lon="11.3256262508578"><ele>430.6666666666667</ele><time>2026-04-06T15:52:26.999Z</time></trkpt><trkpt lat="43.183714448053365" lon="11.325571885473094"><ele>433.0</ele><time>2026-04-06T15:52:27.998Z</time></trkpt><trkpt lat="43.183562497124434" lon="11.325538674481669"><ele>433.0</ele><time>2026-04-06T15:52:28.998Z</time></trkpt><trkpt lat="43.1834246337633" lon="11.325525986194666"><ele>433.0</ele><time>2026-04-06T15:52:29.998Z</time></trkpt><trkpt lat="43.18326164775091" lon="11.325510882213143"><ele>433.0</ele><time>2026-04-06T15:52:30.998Z</time></trkpt><trkpt lat="43.1831011326404" lon="11.325479125015175"><ele>436.6666666666667</ele><time>2026-04-06T15:52:31.998Z</time></trkpt><trkpt lat="43.18296908285598" lon="11.325487350898616"><ele>440.33333333333337</ele><time>2026-04-06T15:52:32.998Z</time></trkpt><trkpt lat="43.182810468607705" lon="11.325488221462852"><ele>444.0</ele><time>2026-04-06T15:52:33.998Z</time></trkpt><trkpt lat="43.1826474324956" lon="11.325484375360821"><ele>444.0</ele><time>2026-04-06T15:52:34.998Z</time></trkpt><trkpt lat="43.182429590160446" lon="11.32543124088212"><ele>444.0</ele><time>2026-04-06T15:52:35.998Z</time></trkpt><trkpt lat="43.18227540947411" lon="11.3253381790117"><ele>444.0</ele><time>2026-04-06T15:52:36.998Z</time></trkpt><trkpt lat="43.18213108904702" lon="11.32523171576644"><ele>441.66666666666663</ele><time>2026-04-06T15:52:37.998Z</time></trkpt><trkpt lat="43.181985841327986" lon="11.325059414539792"><ele>439.3333333333333</ele><time>2026-04-06T15:52:38.998Z</time></trkpt><trkpt lat="43.181856188560175" lon="11.324915990535539"><ele>437.0</ele><time>2026-04-06T15:52:39.998Z</time></trkpt><trkpt lat="43.18174649471428" lon="11.324801075214598"><ele>437.0</ele><time>2026-04-06T15:52:40.998Z</time></trkpt><trkpt lat="43.181601685368804" lon="11.324761084669477"><ele>437.0</ele><time>2026-04-06T15:52:41.998Z</time></trkpt><trkpt lat="43.181455127187" lon="11.324787930919179"><ele>437.0</ele><time>2026-04-06T15:52:42.998Z</time></trkpt><trkpt lat="43.18131575522469" lon="11.32482565726178"><ele>437.0</ele><time>2026-04-06T15:52:43.998Z</time></trkpt><trkpt lat="43.18115332143449" lon="11.324823014312825"><ele>435.0</ele><time>2026-04-06T15:52:44.998Z</time></trkpt><trkpt lat="43.18101299418768" lon="11.3248059840368"><ele>433.0</ele><time>2026-04-06T15:52:45.998Z</time></trkpt><trkpt lat="43.18084051612097" lon="11.324770486560018"><ele>431.0</ele><time>2026-04-06T15:52:46.998Z</time></trkpt><trkpt lat="43.18066692532413" lon="11.324732379216924"><ele>433.0</ele><time>2026-04-06T15:52:47.998Z</time></trkpt><trkpt lat="43.180490425379325" lon="11.324694734645593"><ele>435.0</ele><time>2026-04-06T15:52:48.998Z</time></trkpt><trkpt lat="43.18031654896821" lon="11.324650963805471"><ele>437.0</ele><time>2026-04-06T15:52:49.998Z</time></trkpt><trkpt lat="43.18014576120089" lon="11.324616047894837"><ele>437.0</ele><time>2026-04-06T15:52:50.998Z</time></trkpt><trkpt lat="43.17998428661893" lon="11.324575512826756"><ele>437.0</ele><time>2026-04-06T15:52:51.998Z</time></trkpt><trkpt lat="43.17981066879513" lon="11.324549150714908"><ele>437.0</ele><time>2026-04-06T15:52:52.998Z</time></trkpt><trkpt lat="43.17964210688797" lon="11.32455582041104"><ele>435.66666666666663</ele><time>2026-04-06T15:52:53.998Z</time></trkpt><trkpt lat="43.179474767814845" lon="11.32459796584487"><ele>434.33333333333337</ele><time>2026-04-06T15:52:54.998Z</time></trkpt><trkpt lat="43.179312119862026" lon="11.324673009817285"><ele>433.0</ele><time>2026-04-06T15:52:55.998Z</time></trkpt><trkpt lat="43.17912605224072" lon="11.324750072885323"><ele>435.33333333333337</ele><time>2026-04-06T15:52:56.998Z</time></trkpt><trkpt lat="43.178925715004574" lon="11.324831140383012"><ele>437.66666666666663</ele><time>2026-04-06T15:52:57.998Z</time></trkpt><trkpt lat="43.17873359207871" lon="11.324930645395048"><ele>440.0</ele><time>2026-04-06T15:52:58.998Z</time></trkpt><trkpt lat="43.17854935654142" lon="11.325022372428078"><ele>440.0</ele><time>2026-04-06T15:52:59.998Z</time></trkpt><trkpt lat="43.1783514986615" lon="11.325128468283882"><ele>440.0</ele><time>2026-04-06T15:53:00.998Z</time></trkpt><trkpt lat="43.17815415158978" lon="11.325218878424202"><ele>440.0</ele><time>2026-04-06T15:53:01.998Z</time></trkpt><trkpt lat="43.17795286758718" lon="11.325312187961186"><ele>440.0</ele><time>2026-04-06T15:53:02.998Z</time></trkpt><trkpt lat="43.177743468334135" lon="11.325409896442807"><ele>440.0</ele><time>2026-04-06T15:53:03.998Z</time></trkpt><trkpt lat="43.17753702023518" lon="11.325505082975042"><ele>440.0</ele><time>2026-04-06T15:53:04.998Z</time></trkpt><trkpt lat="43.1773319685987" lon="11.32560821204641"><ele>440.0</ele><time>2026-04-06T15:53:05.998Z</time></trkpt><trkpt lat="43.177122838649254" lon="11.325715712172194"><ele>440.0</ele><time>2026-04-06T15:53:06.998Z</time></trkpt><trkpt lat="43.176912171698746" lon="11.32582125014226"><ele>440.0</ele><time>2026-04-06T15:53:07.998Z</time></trkpt><trkpt lat="43.17670694346058" lon="11.325925021508045"><ele>438.66666666666663</ele><time>2026-04-06T15:53:08.998Z</time></trkpt><trkpt lat="43.176516272358285" lon="11.326021977586475"><ele>437.33333333333337</ele><time>2026-04-06T15:53:09.998Z</time></trkpt><trkpt lat="43.17632718648144" lon="11.326121204995044"><ele>436.0</ele><time>2026-04-06T15:53:10.998Z</time></trkpt><trkpt lat="43.17614555063281" lon="11.32622100395094"><ele>436.0</ele><time>2026-04-06T15:53:11.998Z</time></trkpt><trkpt lat="43.17596713050288" lon="11.326300140924644"><ele>436.0</ele><time>2026-04-06T15:53:12.998Z</time></trkpt><trkpt lat="43.17578299373082" lon="11.326337427698968"><ele>436.0</ele><time>2026-04-06T15:53:13.998Z</time></trkpt><trkpt lat="43.17559765085831" lon="11.32632799170291"><ele>439.33333333333337</ele><time>2026-04-06T15:53:14.998Z</time></trkpt><trkpt lat="43.175420683804994" lon="11.326254355084211"><ele>442.66666666666663</ele><time>2026-04-06T15:53:15.998Z</time></trkpt><trkpt lat="43.1752657156097" lon="11.326118303736655"><ele>446.0</ele><time>2026-04-06T15:53:16.998Z</time></trkpt><trkpt lat="43.17514466924522" lon="11.325923804623779"><ele>446.0</ele><time>2026-04-06T15:53:17.998Z</time></trkpt><trkpt lat="43.175055820642925" lon="11.32569401356849"><ele>446.0</ele><time>2026-04-06T15:53:18.998Z</time></trkpt><trkpt lat="43.17495044582993" lon="11.32544989766326"><ele>446.0</ele><time>2026-04-06T15:53:19.998Z</time></trkpt><trkpt lat="43.17485025925441" lon="11.325203853345505"><ele>444.66666666666663</ele><time>2026-04-06T15:53:20.998Z</time></trkpt><trkpt lat="43.17473688511299" lon="11.324981767517219"><ele>443.33333333333337</ele><time>2026-04-06T15:53:22Z</time></trkpt><trkpt lat="43.17467811092744" lon="11.324735144962522"><ele>442.0</ele><time>2026-04-06T15:53:23Z</time></trkpt><trkpt lat="43.174603566185134" lon="11.324489808094913"><ele>442.0</ele><time>2026-04-06T15:53:24Z</time></trkpt><trkpt lat="43.17451983397891" lon="11.32424843611305"><ele>442.0</ele><time>2026-04-06T15:53:25Z</time></trkpt><trkpt lat="43.174433200722454" lon="11.324030324755697"><ele>442.0</ele><time>2026-04-06T15:53:26Z</time></trkpt><trkpt lat="43.17432253374189" lon="11.323853960841248"><ele>438.6666666666667</ele><time>2026-04-06T15:53:27Z</time></trkpt><trkpt lat="43.17418039620036" lon="11.323752400882723"><ele>435.33333333333337</ele><time>2026-04-06T15:53:28Z</time></trkpt><trkpt lat="43.17401644551161" lon="11.323680811729085"><ele>432.0</ele><time>2026-04-06T15:53:29Z</time></trkpt><trkpt lat="43.173849618481704" lon="11.323643608413468"><ele>431.66666666666663</ele><time>2026-04-06T15:53:30Z</time></trkpt><trkpt lat="43.173670394396645" lon="11.323617376892576"><ele>431.3333333333333</ele><time>2026-04-06T15:53:31Z</time></trkpt><trkpt lat="43.173483753720625" lon="11.32356471266165"><ele>431.0</ele><time>2026-04-06T15:53:32Z</time></trkpt><trkpt lat="43.17333682973573" lon="11.32347995643599"><ele>431.0</ele><time>2026-04-06T15:53:33Z</time></trkpt><trkpt lat="43.17319041362502" lon="11.323386695384084"><ele>431.0</ele><time>2026-04-06T15:53:34Z</time></trkpt><trkpt lat="43.173045360566235" lon="11.323319416964711"><ele>431.0</ele><time>2026-04-06T15:53:35Z</time></trkpt><trkpt lat="43.17288528401853" lon="11.323234932427523"><ele>430.0</ele><time>2026-04-06T15:53:36Z</time></trkpt><trkpt lat="43.17273003935728" lon="11.323207796978894"><ele>429.0</ele><time>2026-04-06T15:53:37Z</time></trkpt><trkpt lat="43.172551717240964" lon="11.323202449466685"><ele>428.0</ele><time>2026-04-06T15:53:38Z</time></trkpt><trkpt lat="43.17237089038129" lon="11.323253157650663"><ele>424.66666666666663</ele><time>2026-04-06T15:53:39Z</time></trkpt><trkpt lat="43.172180722882445" lon="11.323323688696302"><ele>421.33333333333337</ele><time>2026-04-06T15:53:40Z</time></trkpt><trkpt lat="43.1719434750636" lon="11.323418353662856"><ele>418.0</ele><time>2026-04-06T15:53:40.999Z</time></trkpt><trkpt lat="43.17171557376774" lon="11.323515804938904"><ele>416.0</ele><time>2026-04-06T15:53:41.999Z</time></trkpt><trkpt lat="43.17151333961512" lon="11.323601993876274"><ele>414.0</ele><time>2026-04-06T15:53:42.999Z</time></trkpt><trkpt lat="43.1713146771615" lon="11.323676607143499"><ele>412.0</ele><time>2026-04-06T15:53:43.999Z</time></trkpt><trkpt lat="43.17114927289092" lon="11.323726012244629"><ele>412.0</ele><time>2026-04-06T15:53:44.999Z</time></trkpt><trkpt lat="43.17097563496825" lon="11.323786990499373"><ele>412.0</ele><time>2026-04-06T15:53:45.999Z</time></trkpt><trkpt lat="43.17080452388388" lon="11.323839007640375"><ele>412.0</ele><time>2026-04-06T15:53:46.999Z</time></trkpt><trkpt lat="43.170651532925646" lon="11.323875198893065"><ele>413.0</ele><time>2026-04-06T15:53:47.999Z</time></trkpt><trkpt lat="43.17049828974658" lon="11.32390087602125"><ele>414.0</ele><time>2026-04-06T15:53:48.999Z</time></trkpt><trkpt lat="43.17033815632512" lon="11.323920368407464"><ele>415.0</ele><time>2026-04-06T15:53:49.999Z</time></trkpt><trkpt lat="43.170174812007936" lon="11.323935072124865"><ele>415.0</ele><time>2026-04-06T15:53:50.999Z</time></trkpt><trkpt lat="43.17003156825323" lon="11.323947823556116"><ele>415.0</ele><time>2026-04-06T15:53:51.999Z</time></trkpt><trkpt lat="43.16992205821658" lon="11.32395734616737"><ele>415.0</ele><time>2026-04-06T15:53:52.999Z</time></trkpt><trkpt lat="43.16982180267835" lon="11.323966064041418"><ele>415.0</ele><time>2026-04-06T15:53:53.999Z</time></trkpt><trkpt lat="43.16971716528691" lon="11.32397416717571"><ele>415.25</ele><time>2026-04-06T15:53:54.999Z</time></trkpt><trkpt lat="43.169616194482515" lon="11.323982024255558"><ele>415.5</ele><time>2026-04-06T15:53:55.999Z</time></trkpt><trkpt lat="43.16950997959108" lon="11.323990289409295"><ele>415.75</ele><time>2026-04-06T15:53:56.999Z</time></trkpt><trkpt lat="43.16939515694278" lon="11.32399919004722"><ele>416.0</ele><time>2026-04-06T15:53:57.999Z</time></trkpt><trkpt lat="43.16926320485528" lon="11.324009194714488"><ele>416.0</ele><time>2026-04-06T15:53:58.999Z</time></trkpt><trkpt lat="43.16913619229498" lon="11.324053268037261"><ele>416.0</ele><time>2026-04-06T15:53:59.999Z</time></trkpt><trkpt lat="43.16901039805006" lon="11.324063704368715"><ele>416.0</ele><time>2026-04-06T15:54:00.999Z</time></trkpt><trkpt lat="43.16888918682862" lon="11.32408083540599"><ele>416.0</ele><time>2026-04-06T15:54:01.999Z</time></trkpt><trkpt lat="43.16877562261909" lon="11.324096848984539"><ele>415.20000000000005</ele><time>2026-04-06T15:54:02.999Z</time></trkpt><trkpt lat="43.168676075820535" lon="11.324117288476522"><ele>414.40000000000003</ele><time>2026-04-06T15:54:03.999Z</time></trkpt><trkpt lat="43.168580589092485" lon="11.324136855257192"><ele>413.6</ele><time>2026-04-06T15:54:04.999Z</time></trkpt><trkpt lat="43.168479735552076" lon="11.324108368911038"><ele>412.8</ele><time>2026-04-06T15:54:05.999Z</time></trkpt><trkpt lat="43.16837607544186" lon="11.324132186875685"><ele>412.0</ele><time>2026-04-06T15:54:06.999Z</time></trkpt><trkpt lat="43.16826774018004" lon="11.324161097321413"><ele>412.0</ele><time>2026-04-06T15:54:07.999Z</time></trkpt><trkpt lat="43.168167198469625" lon="11.324191920363177"><ele>412.0</ele><time>2026-04-06T15:54:08.999Z</time></trkpt><trkpt lat="43.168046073131045" lon="11.324221260051749"><ele>412.0</ele><time>2026-04-06T15:54:09.999Z</time></trkpt><trkpt lat="43.167918603847994" lon="11.324251820606419"><ele>412.0</ele><time>2026-04-06T15:54:10.999Z</time></trkpt><trkpt lat="43.16778368891095" lon="11.324313951523804"><ele>412.0</ele><time>2026-04-06T15:54:11.999Z</time></trkpt><trkpt lat="43.16763866502136" lon="11.324347549159617"><ele>412.0</ele><time>2026-04-06T15:54:12.999Z</time></trkpt><trkpt lat="43.16748853066005" lon="11.324383393900687"><ele>412.0</ele><time>2026-04-06T15:54:13.999Z</time></trkpt><trkpt lat="43.16733436151956" lon="11.324423555828796"><ele>412.33333333333337</ele><time>2026-04-06T15:54:14.999Z</time></trkpt><trkpt lat="43.16717527540899" lon="11.324462436742957"><ele>412.66666666666663</ele><time>2026-04-06T15:54:15.999Z</time></trkpt><trkpt lat="43.16701079073009" lon="11.324501237503114"><ele>413.0</ele><time>2026-04-06T15:54:16.999Z</time></trkpt><trkpt lat="43.16684615870933" lon="11.32454355692624"><ele>413.0</ele><time>2026-04-06T15:54:17.999Z</time></trkpt><trkpt lat="43.166683136749285" lon="11.324587367194242"><ele>413.0</ele><time>2026-04-06T15:54:18.999Z</time></trkpt><trkpt lat="43.166515409116" lon="11.32460876632661"><ele>413.0</ele><time>2026-04-06T15:54:19.999Z</time></trkpt><trkpt lat="43.16635288766133" lon="11.324671609937617"><ele>414.75</ele><time>2026-04-06T15:54:20.999Z</time></trkpt><trkpt lat="43.16619515046361" lon="11.324687236928515"><ele>416.5</ele><time>2026-04-06T15:54:21.999Z</time></trkpt><trkpt lat="43.166070278708276" lon="11.324717207312109"><ele>418.25</ele><time>2026-04-06T15:54:22.999Z</time></trkpt><trkpt lat="43.1659605497398" lon="11.324743368420927"><ele>420.0</ele><time>2026-04-06T15:54:23.999Z</time></trkpt><trkpt lat="43.165857504250994" lon="11.32476753544114"><ele>420.25</ele><time>2026-04-06T15:54:24.999Z</time></trkpt><trkpt lat="43.165733257290945" lon="11.32479686488107"><ele>420.5</ele><time>2026-04-06T15:54:25.999Z</time></trkpt><trkpt lat="43.16561292200701" lon="11.32484947458599"><ele>420.75</ele><time>2026-04-06T15:54:26.999Z</time></trkpt><trkpt lat="43.1654858294999" lon="11.324867870160238"><ele>421.0</ele><time>2026-04-06T15:54:27.999Z</time></trkpt><trkpt lat="43.16534928793475" lon="11.324883739561617"><ele>423.0</ele><time>2026-04-06T15:54:28.999Z</time></trkpt><trkpt lat="43.165214326482186" lon="11.324896950236818"><ele>425.0</ele><time>2026-04-06T15:54:29.999Z</time></trkpt><trkpt lat="43.165077242873394" lon="11.32491424593114"><ele>427.0</ele><time>2026-04-06T15:54:30.999Z</time></trkpt><trkpt lat="43.16494979004132" lon="11.324931417416256"><ele>429.0</ele><time>2026-04-06T15:54:31.999Z</time></trkpt><trkpt lat="43.16480882406703" lon="11.324936941859471"><ele>430.5</ele><time>2026-04-06T15:54:32.999Z</time></trkpt><trkpt lat="43.16467080456626" lon="11.324935715769191"><ele>432.0</ele><time>2026-04-06T15:54:33.999Z</time></trkpt><trkpt lat="43.164533548043956" lon="11.324936555627875"><ele>433.5</ele><time>2026-04-06T15:54:34.999Z</time></trkpt><trkpt lat="43.164399920651306" lon="11.324940454954397"><ele>435.0</ele><time>2026-04-06T15:54:35.998Z</time></trkpt><trkpt lat="43.164267942010305" lon="11.324946998343927"><ele>435.0</ele><time>2026-04-06T15:54:36.998Z</time></trkpt><trkpt lat="43.164139403558764" lon="11.32495334315931"><ele>435.0</ele><time>2026-04-06T15:54:37.998Z</time></trkpt><trkpt lat="43.164020014848944" lon="11.324959238082306"><ele>435.0</ele><time>2026-04-06T15:54:38.998Z</time></trkpt><trkpt lat="43.163913008054905" lon="11.324964520062748"><ele>435.0</ele><time>2026-04-06T15:54:39.998Z</time></trkpt><trkpt lat="43.16382192809158" lon="11.324973671521692"><ele>435.0</ele><time>2026-04-06T15:54:40.998Z</time></trkpt><trkpt lat="43.16373991392064" lon="11.324997923053598"><ele>436.1666666666667</ele><time>2026-04-06T15:54:41.998Z</time></trkpt><trkpt lat="43.163665061916426" lon="11.325002168723202"><ele>437.33333333333337</ele><time>2026-04-06T15:54:42.998Z</time></trkpt><trkpt lat="43.16359654656866" lon="11.325023542419109"><ele>438.5</ele><time>2026-04-06T15:54:43.998Z</time></trkpt><trkpt lat="43.163528912074185" lon="11.325023844211378"><ele>439.6666666666667</ele><time>2026-04-06T15:54:44.998Z</time></trkpt><trkpt lat="43.16347790170445" lon="11.32514317390799"><ele>440.83333333333337</ele><time>2026-04-06T15:54:45.998Z</time></trkpt><trkpt lat="43.163446372466794" lon="11.325259109790972"><ele>442.0</ele><time>2026-04-06T15:54:46.998Z</time></trkpt><trkpt lat="43.16333981776604" lon="11.325231617637245"><ele>442.00000000000006</ele><time>2026-04-06T15:54:47.998Z</time></trkpt><trkpt lat="43.16326195920559" lon="11.325268371578687"><ele>442.0</ele><time>2026-04-06T15:54:48.998Z</time></trkpt><trkpt lat="43.16319112626673" lon="11.325319528764416"><ele>442.0</ele><time>2026-04-06T15:54:49.998Z</time></trkpt><trkpt lat="43.16309975845592" lon="11.325372740867538"><ele>442.0</ele><time>2026-04-06T15:54:50.998Z</time></trkpt><trkpt lat="43.16301559738573" lon="11.325416252684104"><ele>442.00000000000006</ele><time>2026-04-06T15:54:51.998Z</time></trkpt><trkpt lat="43.16292537004038" lon="11.325447658152344"><ele>442.0</ele><time>2026-04-06T15:54:52.998Z</time></trkpt><trkpt lat="43.16285876130289" lon="11.325485888643918"><ele>441.83333333333337</ele><time>2026-04-06T15:54:53.998Z</time></trkpt><trkpt lat="43.16278993033273" lon="11.32553127385469"><ele>441.6666666666667</ele><time>2026-04-06T15:54:54.998Z</time></trkpt><trkpt lat="43.16272230243547" lon="11.325557562345281"><ele>441.5</ele><time>2026-04-06T15:54:55.998Z</time></trkpt><trkpt lat="43.16266271428768" lon="11.325595228072377"><ele>441.33333333333337</ele><time>2026-04-06T15:54:56.998Z</time></trkpt><trkpt lat="43.16259889706748" lon="11.325635404293617"><ele>441.1666666666667</ele><time>2026-04-06T15:54:57.998Z</time></trkpt><trkpt lat="43.162519590370856" lon="11.325652625531692"><ele>441.0</ele><time>2026-04-06T15:54:58.998Z</time></trkpt><trkpt lat="43.16243368049744" lon="11.325700066406975"><ele>442.8</ele><time>2026-04-06T15:54:59.998Z</time></trkpt><trkpt lat="43.16234043736675" lon="11.325751556824962"><ele>444.6</ele><time>2026-04-06T15:55:00.998Z</time></trkpt><trkpt lat="43.162246078308335" lon="11.325803663466552"><ele>446.4</ele><time>2026-04-06T15:55:01.998Z</time></trkpt><trkpt lat="43.16215602298701" lon="11.325853393519541"><ele>448.2</ele><time>2026-04-06T15:55:02.998Z</time></trkpt><trkpt lat="43.16206630997941" lon="11.325902934532193"><ele>450.0</ele><time>2026-04-06T15:55:03.998Z</time></trkpt><trkpt lat="43.16197346483952" lon="11.325954874255359"><ele>450.0</ele><time>2026-04-06T15:55:04.998Z</time></trkpt><trkpt lat="43.161871703882234" lon="11.326012131464298"><ele>450.0</ele><time>2026-04-06T15:55:05.998Z</time></trkpt><trkpt lat="43.161759586088266" lon="11.32607362477349"><ele>450.0</ele><time>2026-04-06T15:55:06.998Z</time></trkpt><trkpt lat="43.16165103943648" lon="11.326132720547255"><ele>450.0</ele><time>2026-04-06T15:55:07.998Z</time></trkpt><trkpt lat="43.16154090669325" lon="11.326197630924309"><ele>450.4</ele><time>2026-04-06T15:55:08.998Z</time></trkpt><trkpt lat="43.16143678636065" lon="11.326279848171518"><ele>450.8</ele><time>2026-04-06T15:55:09.998Z</time></trkpt><trkpt lat="43.1613363891988" lon="11.326335407849902"><ele>451.20000000000005</ele><time>2026-04-06T15:55:10.998Z</time></trkpt><trkpt lat="43.1612313449882" lon="11.326358137674275"><ele>451.6</ele><time>2026-04-06T15:55:11.998Z</time></trkpt><trkpt lat="43.161142639624366" lon="11.326387119575209"><ele>452.0</ele><time>2026-04-06T15:55:12.998Z</time></trkpt><trkpt lat="43.16104439684422" lon="11.326414676119521"><ele>451.40000000000003</ele><time>2026-04-06T15:55:13.998Z</time></trkpt><trkpt lat="43.160970472782" lon="11.326466097321438"><ele>450.80000000000007</ele><time>2026-04-06T15:55:14.998Z</time></trkpt><trkpt lat="43.160877981720425" lon="11.326514123961347"><ele>450.2</ele><time>2026-04-06T15:55:15.998Z</time></trkpt><trkpt lat="43.160791853449275" lon="11.326533684384748"><ele>449.6</ele><time>2026-04-06T15:55:16.998Z</time></trkpt><trkpt lat="43.160722660627506" lon="11.326540820678511"><ele>449.0</ele><time>2026-04-06T15:55:17.998Z</time></trkpt><trkpt lat="43.16059443779538" lon="11.326501246358726"><ele>448.99999999999994</ele><time>2026-04-06T15:55:19.998Z</time></trkpt><trkpt lat="43.16049578247337" lon="11.326451434476995"><ele>449.0</ele><time>2026-04-06T15:55:20.998Z</time></trkpt><trkpt lat="43.1604179788336" lon="11.326410602329922"><ele>449.0</ele><time>2026-04-06T15:55:21.998Z</time></trkpt><trkpt lat="43.1603515230762" lon="11.32637906152392"><ele>449.0</ele><time>2026-04-06T15:55:22.998Z</time></trkpt><trkpt lat="43.16028340244406" lon="11.326349211989383"><ele>448.99999999999994</ele><time>2026-04-06T15:55:23.998Z</time></trkpt><trkpt lat="43.160203128133155" lon="11.32631403687663"><ele>449.0</ele><time>2026-04-06T15:55:24.998Z</time></trkpt><trkpt lat="43.16011799080935" lon="11.326276730865523"><ele>448.99999999999994</ele><time>2026-04-06T15:55:25.998Z</time></trkpt><trkpt lat="43.16002454326983" lon="11.326236265097826"><ele>449.0</ele><time>2026-04-06T15:55:26.998Z</time></trkpt><trkpt lat="43.159946124174475" lon="11.326205805716524"><ele>449.0</ele><time>2026-04-06T15:55:28Z</time></trkpt><trkpt lat="43.15987318080046" lon="11.32617600648502"><ele>449.0</ele><time>2026-04-06T15:55:29Z</time></trkpt><trkpt lat="43.1598076832042" lon="11.326147162069836"><ele>448.99999999999994</ele><time>2026-04-06T15:55:30Z</time></trkpt><trkpt lat="43.15970428051701" lon="11.326092700955604"><ele>449.0</ele><time>2026-04-06T15:55:32Z</time></trkpt><trkpt lat="43.15962813025159" lon="11.326075187662983"><ele>449.99999999999994</ele><time>2026-04-06T15:55:33Z</time></trkpt><trkpt lat="43.15956328376478" lon="11.326023531939326"><ele>451.0</ele><time>2026-04-06T15:55:34Z</time></trkpt><trkpt lat="43.15949177873802" lon="11.325998584277993"><ele>452.0</ele><time>2026-04-06T15:55:35Z</time></trkpt><trkpt lat="43.159418458256226" lon="11.32602481325214"><ele>453.0</ele><time>2026-04-06T15:55:36Z</time></trkpt><trkpt lat="43.15934677927705" lon="11.32601203464683"><ele>453.99999999999994</ele><time>2026-04-06T15:55:37Z</time></trkpt><trkpt lat="43.15926064481939" lon="11.32599957947545"><ele>455.0</ele><time>2026-04-06T15:55:38Z</time></trkpt><trkpt lat="43.15917453108707" lon="11.326018081704522"><ele>455.0</ele><time>2026-04-06T15:55:39Z</time></trkpt><trkpt lat="43.15911419229118" lon="11.326072891469742"><ele>455.0</ele><time>2026-04-06T15:55:40Z</time></trkpt><trkpt lat="43.15899694203622" lon="11.326141003813872"><ele>455.0</ele><time>2026-04-06T15:55:42Z</time></trkpt><trkpt lat="43.15890127878415" lon="11.326085847254268"><ele>455.0</ele><time>2026-04-06T15:55:43Z</time></trkpt><trkpt lat="43.1588306577645" lon="11.32613152082939"><ele>455.0</ele><time>2026-04-06T15:55:44Z</time></trkpt><trkpt lat="43.15874557835647" lon="11.32621107484723"><ele>458.0</ele><time>2026-04-06T15:55:46Z</time></trkpt><trkpt lat="43.158684972107395" lon="11.326153355743553"><ele>461.0</ele><time>2026-04-06T15:55:46.999Z</time></trkpt><trkpt lat="43.1586152753342" lon="11.326182758587217"><ele>464.0</ele><time>2026-04-06T15:55:47.999Z</time></trkpt><trkpt lat="43.158539973492964" lon="11.326265761155781"><ele>467.0</ele><time>2026-04-06T15:55:48.999Z</time></trkpt><trkpt lat="43.15869768891136" lon="11.326526949734221"><ele>467.16666666666663</ele><time>2026-04-06T15:55:49.999Z</time></trkpt><trkpt lat="43.15868707537191" lon="11.326706364076946"><ele>467.3333333333333</ele><time>2026-04-06T15:55:51.999Z</time></trkpt><trkpt lat="43.158667566040585" lon="11.326800857282004"><ele>467.5</ele><time>2026-04-06T15:55:52.999Z</time></trkpt><trkpt lat="43.15863764809811" lon="11.326906205192582"><ele>467.66666666666663</ele><time>2026-04-06T15:55:53.999Z</time></trkpt><trkpt lat="43.158618073214456" lon="11.327004684560897"><ele>467.8333333333333</ele><time>2026-04-06T15:55:54.999Z</time></trkpt><trkpt lat="43.158577984612045" lon="11.3270780984945"><ele>468.0</ele><time>2026-04-06T15:55:55.999Z</time></trkpt><trkpt lat="43.1585465811537" lon="11.327163042312497"><ele>467.1666666666667</ele><time>2026-04-06T15:55:56.999Z</time></trkpt><trkpt lat="43.15851301891612" lon="11.327261521663809"><ele>466.33333333333337</ele><time>2026-04-06T15:55:57.999Z</time></trkpt><trkpt lat="43.1584714186825" lon="11.327377108100562"><ele>465.5</ele><time>2026-04-06T15:55:58.999Z</time></trkpt><trkpt lat="43.158424125772875" lon="11.327488181059122"><ele>464.6666666666667</ele><time>2026-04-06T15:55:59.999Z</time></trkpt><trkpt lat="43.158367788123385" lon="11.327574594782813"><ele>463.83333333333337</ele><time>2026-04-06T15:56:00.999Z</time></trkpt><trkpt lat="43.15831572046996" lon="11.327656759781062"><ele>463.0</ele><time>2026-04-06T15:56:01.999Z</time></trkpt><trkpt lat="43.158256169064074" lon="11.327748273756054"><ele>465.4</ele><time>2026-04-06T15:56:02.999Z</time></trkpt><trkpt lat="43.158198222856335" lon="11.327836836472473"><ele>467.79999999999995</ele><time>2026-04-06T15:56:03.999Z</time></trkpt><trkpt lat="43.15813708819729" lon="11.32793027218474"><ele>470.2</ele><time>2026-04-06T15:56:04.999Z</time></trkpt><trkpt lat="43.1580733473267" lon="11.328024562077799"><ele>472.6</ele><time>2026-04-06T15:56:05.999Z</time></trkpt><trkpt lat="43.15800586902974" lon="11.328111439172105"><ele>475.0</ele><time>2026-04-06T15:56:06.999Z</time></trkpt><trkpt lat="43.157923846179166" lon="11.328210166003574"><ele>475.0</ele><time>2026-04-06T15:56:07.999Z</time></trkpt><trkpt lat="43.15782713560988" lon="11.328253489867826"><ele>475.0</ele><time>2026-04-06T15:56:08.999Z</time></trkpt><trkpt lat="43.15773069415589" lon="11.328324867180331"><ele>475.0</ele><time>2026-04-06T15:56:09.999Z</time></trkpt><trkpt lat="43.15764456496655" lon="11.328398448228713"><ele>475.0</ele><time>2026-04-06T15:56:10.999Z</time></trkpt><trkpt lat="43.157556205433565" lon="11.328473665526753"><ele>475.0</ele><time>2026-04-06T15:56:11.999Z</time></trkpt><trkpt lat="43.15746057035568" lon="11.328555076240026"><ele>475.2</ele><time>2026-04-06T15:56:12.999Z</time></trkpt><trkpt lat="43.157365954264506" lon="11.32863561949966"><ele>475.4</ele><time>2026-04-06T15:56:13.999Z</time></trkpt><trkpt lat="43.15727139842059" lon="11.328714499750491"><ele>475.6</ele><time>2026-04-06T15:56:14.999Z</time></trkpt><trkpt lat="43.1571832019224" lon="11.32878627514221"><ele>475.8</ele><time>2026-04-06T15:56:15.999Z</time></trkpt><trkpt lat="43.157091354224164" lon="11.328861022059959"><ele>476.0</ele><time>2026-04-06T15:56:16.999Z</time></trkpt><trkpt lat="43.15701217803414" lon="11.328939193616742"><ele>476.0</ele><time>2026-04-06T15:56:17.999Z</time></trkpt><trkpt lat="43.15693142740556" lon="11.328977847621156"><ele>476.0</ele><time>2026-04-06T15:56:18.999Z</time></trkpt><trkpt lat="43.156850826189554" lon="11.329015713449005"><ele>476.0</ele><time>2026-04-06T15:56:19.999Z</time></trkpt><trkpt lat="43.15676516282184" lon="11.329022114971801"><ele>476.0</ele><time>2026-04-06T15:56:20.999Z</time></trkpt><trkpt lat="43.15667240579892" lon="11.329080953119858"><ele>476.0</ele><time>2026-04-06T15:56:21.999Z</time></trkpt><trkpt lat="43.156574999785555" lon="11.329169537084223"><ele>474.0</ele><time>2026-04-06T15:56:22.999Z</time></trkpt><trkpt lat="43.156479179030434" lon="11.329289377362057"><ele>472.0</ele><time>2026-04-06T15:56:23.999Z</time></trkpt><trkpt lat="43.15638332898916" lon="11.32938882255098"><ele>470.0</ele><time>2026-04-06T15:56:24.999Z</time></trkpt><trkpt lat="43.156297187755975" lon="11.329482874149008"><ele>468.0</ele><time>2026-04-06T15:56:25.999Z</time></trkpt><trkpt lat="43.156224330369206" lon="11.32957632227342"><ele>468.0</ele><time>2026-04-06T15:56:26.999Z</time></trkpt><trkpt lat="43.15616592609821" lon="11.329661231729379"><ele>467.99999999999994</ele><time>2026-04-06T15:56:27.999Z</time></trkpt><trkpt lat="43.15611203849222" lon="11.329745831951172"><ele>467.99999999999994</ele><time>2026-04-06T15:56:28.999Z</time></trkpt><trkpt lat="43.156045966219324" lon="11.329830979032048"><ele>468.0</ele><time>2026-04-06T15:56:29.999Z</time></trkpt><trkpt lat="43.15596766198165" lon="11.329925046080337"><ele>468.0</ele><time>2026-04-06T15:56:30.999Z</time></trkpt><trkpt lat="43.15589204230796" lon="11.330024264585681"><ele>468.0</ele><time>2026-04-06T15:56:31.999Z</time></trkpt><trkpt lat="43.15581457860517" lon="11.330148614996668"><ele>468.0</ele><time>2026-04-06T15:56:32.999Z</time></trkpt><trkpt lat="43.155768028622305" lon="11.330295746410332"><ele>468.0</ele><time>2026-04-06T15:56:33.999Z</time></trkpt><trkpt lat="43.15573410593271" lon="11.330440236870267"><ele>468.0</ele><time>2026-04-06T15:56:34.999Z</time></trkpt><trkpt lat="43.155667177101726" lon="11.330563835769805"><ele>464.75</ele><time>2026-04-06T15:56:35.999Z</time></trkpt><trkpt lat="43.15558256396611" lon="11.330670449851775"><ele>461.5</ele><time>2026-04-06T15:56:36.999Z</time></trkpt><trkpt lat="43.155477163835336" lon="11.330763806696332"><ele>458.25</ele><time>2026-04-06T15:56:37.999Z</time></trkpt><trkpt lat="43.15536284052624" lon="11.330836126695266"><ele>455.0</ele><time>2026-04-06T15:56:38.999Z</time></trkpt><trkpt lat="43.15526647736652" lon="11.330920679785672"><ele>455.0</ele><time>2026-04-06T15:56:39.999Z</time></trkpt><trkpt lat="43.15515845165114" lon="11.330997547369787"><ele>455.0</ele><time>2026-04-06T15:56:40.999Z</time></trkpt><trkpt lat="43.1550461705762" lon="11.331079308844675"><ele>455.0</ele><time>2026-04-06T15:56:41.998Z</time></trkpt><trkpt lat="43.1549263301185" lon="11.331146648250835"><ele>455.0</ele><time>2026-04-06T15:56:42.998Z</time></trkpt><trkpt lat="43.15480948335086" lon="11.33122528246815"><ele>452.0</ele><time>2026-04-06T15:56:43.998Z</time></trkpt><trkpt lat="43.15468236580157" lon="11.3312780764238"><ele>449.0</ele><time>2026-04-06T15:56:44.998Z</time></trkpt><trkpt lat="43.154550277537275" lon="11.331252074468651"><ele>446.0</ele><time>2026-04-06T15:56:45.998Z</time></trkpt><trkpt lat="43.15442022069225" lon="11.331226479171644"><ele>443.0</ele><time>2026-04-06T15:56:46.998Z</time></trkpt><trkpt lat="43.15428049799808" lon="11.331213479093488"><ele>443.0</ele><time>2026-04-06T15:56:47.998Z</time></trkpt><trkpt lat="43.154132292909274" lon="11.33122157221879"><ele>443.0</ele><time>2026-04-06T15:56:48.998Z</time></trkpt><trkpt lat="43.15398138501133" lon="11.33124774481778"><ele>443.0</ele><time>2026-04-06T15:56:49.998Z</time></trkpt><trkpt lat="43.15383275973347" lon="11.331294170708913"><ele>441.75</ele><time>2026-04-06T15:56:50.998Z</time></trkpt><trkpt lat="43.15370864318607" lon="11.331353481021496"><ele>440.5</ele><time>2026-04-06T15:56:51.998Z</time></trkpt><trkpt lat="43.15358786935515" lon="11.3314336295967"><ele>439.25</ele><time>2026-04-06T15:56:52.998Z</time></trkpt><trkpt lat="43.153457494488244" lon="11.331552033868636"><ele>438.0</ele><time>2026-04-06T15:56:53.998Z</time></trkpt><trkpt lat="43.15328889769563" lon="11.331643348820462"><ele>435.0</ele><time>2026-04-06T15:56:54.998Z</time></trkpt><trkpt lat="43.15310690750701" lon="11.331776552172897"><ele>432.0</ele><time>2026-04-06T15:56:55.998Z</time></trkpt><trkpt lat="43.15295640930316" lon="11.331893373315703"><ele>429.0</ele><time>2026-04-06T15:56:56.998Z</time></trkpt><trkpt lat="43.15280576136459" lon="11.332001148779666"><ele>429.0</ele><time>2026-04-06T15:56:57.998Z</time></trkpt><trkpt lat="43.1526630067334" lon="11.332090411007021"><ele>429.0</ele><time>2026-04-06T15:56:58.998Z</time></trkpt><trkpt lat="43.15251149723372" lon="11.332147501860183"><ele>429.0</ele><time>2026-04-06T15:56:59.998Z</time></trkpt><trkpt lat="43.152359871074346" lon="11.332209433063625"><ele>426.66666666666663</ele><time>2026-04-06T15:57:00.998Z</time></trkpt><trkpt lat="43.15221309422" lon="11.332233551375408"><ele>424.3333333333333</ele><time>2026-04-06T15:57:01.998Z</time></trkpt><trkpt lat="43.15205381615821" lon="11.332216919974746"><ele>422.0</ele><time>2026-04-06T15:57:02.998Z</time></trkpt><trkpt lat="43.15189104919937" lon="11.332205651040695"><ele>422.0</ele><time>2026-04-06T15:57:03.998Z</time></trkpt><trkpt lat="43.151723786585634" lon="11.332210229815075"><ele>422.0</ele><time>2026-04-06T15:57:04.998Z</time></trkpt><trkpt lat="43.15154813365848" lon="11.332243157539462"><ele>422.0</ele><time>2026-04-06T15:57:05.998Z</time></trkpt><trkpt lat="43.151372332586" lon="11.332304202272528"><ele>423.3333333333333</ele><time>2026-04-06T15:57:06.998Z</time></trkpt><trkpt lat="43.15119476802782" lon="11.33238157410968"><ele>424.66666666666663</ele><time>2026-04-06T15:57:07.998Z</time></trkpt><trkpt lat="43.151023012630326" lon="11.332459276851905"><ele>426.0</ele><time>2026-04-06T15:57:08.998Z</time></trkpt><trkpt lat="43.15085233442894" lon="11.332535765162392"><ele>424.33333333333337</ele><time>2026-04-06T15:57:09.998Z</time></trkpt><trkpt lat="43.150679070013936" lon="11.33261270036704"><ele>422.6666666666667</ele><time>2026-04-06T15:57:10.998Z</time></trkpt><trkpt lat="43.150513529471056" lon="11.332686205889882"><ele>421.0</ele><time>2026-04-06T15:57:11.998Z</time></trkpt><trkpt lat="43.15035395764633" lon="11.332778531099152"><ele>421.0</ele><time>2026-04-06T15:57:12.998Z</time></trkpt><trkpt lat="43.150198409427986" lon="11.332862064334131"><ele>421.0</ele><time>2026-04-06T15:57:13.998Z</time></trkpt><trkpt lat="43.15005880911225" lon="11.332956013746148"><ele>421.0</ele><time>2026-04-06T15:57:14.998Z</time></trkpt><trkpt lat="43.14993542629431" lon="11.333073190415206"><ele>421.75</ele><time>2026-04-06T15:57:15.998Z</time></trkpt><trkpt lat="43.1498298552214" lon="11.333197524456123"><ele>422.5</ele><time>2026-04-06T15:57:16.998Z</time></trkpt><trkpt lat="43.149719421621306" lon="11.333309330715553"><ele>423.25</ele><time>2026-04-06T15:57:17.998Z</time></trkpt><trkpt lat="43.149594741276985" lon="11.333333240174719"><ele>424.0</ele><time>2026-04-06T15:57:18.998Z</time></trkpt><trkpt lat="43.14949264882913" lon="11.333293167103557"><ele>424.0</ele><time>2026-04-06T15:57:19.998Z</time></trkpt><trkpt lat="43.149378273646334" lon="11.333221718730963"><ele>424.0</ele><time>2026-04-06T15:57:20.998Z</time></trkpt><trkpt lat="43.14925151750446" lon="11.333145809538792"><ele>424.0</ele><time>2026-04-06T15:57:21.998Z</time></trkpt><trkpt lat="43.14911029573716" lon="11.333065167856477"><ele>424.0</ele><time>2026-04-06T15:57:22.998Z</time></trkpt><trkpt lat="43.148953055646665" lon="11.333000678468318"><ele>428.0</ele><time>2026-04-06T15:57:23.998Z</time></trkpt><trkpt lat="43.1487953024786" lon="11.33290157151488"><ele>432.0</ele><time>2026-04-06T15:57:24.998Z</time></trkpt><trkpt lat="43.14861209408617" lon="11.332811695655325"><ele>436.0</ele><time>2026-04-06T15:57:25.998Z</time></trkpt><trkpt lat="43.148427720961486" lon="11.332734127783155"><ele>436.0</ele><time>2026-04-06T15:57:26.998Z</time></trkpt><trkpt lat="43.148260547697454" lon="11.332643939304493"><ele>436.0</ele><time>2026-04-06T15:57:27.998Z</time></trkpt><trkpt lat="43.14809412945053" lon="11.332565480968878"><ele>436.0</ele><time>2026-04-06T15:57:28.998Z</time></trkpt><trkpt lat="43.14792932884351" lon="11.33250418754817"><ele>439.0</ele><time>2026-04-06T15:57:29.998Z</time></trkpt><trkpt lat="43.14776933416605" lon="11.332452321142178"><ele>442.0</ele><time>2026-04-06T15:57:30.998Z</time></trkpt><trkpt lat="43.14761810818863" lon="11.33240554574118"><ele>445.0</ele><time>2026-04-06T15:57:31.998Z</time></trkpt><trkpt lat="43.14746603134696" lon="11.33235767957502"><ele>444.75</ele><time>2026-04-06T15:57:32.998Z</time></trkpt><trkpt lat="43.147322684313295" lon="11.33230662700644"><ele>444.5</ele><time>2026-04-06T15:57:34Z</time></trkpt><trkpt lat="43.147188258434454" lon="11.33229072396259"><ele>444.25</ele><time>2026-04-06T15:57:35Z</time></trkpt><trkpt lat="43.14704066756317" lon="11.332279885505228"><ele>444.0</ele><time>2026-04-06T15:57:36Z</time></trkpt><trkpt lat="43.14687924526745" lon="11.332262150056103"><ele>444.0</ele><time>2026-04-06T15:57:37Z</time></trkpt><trkpt lat="43.146723335925806" lon="11.33223841807595"><ele>444.0</ele><time>2026-04-06T15:57:38Z</time></trkpt><trkpt lat="43.146573236681306" lon="11.332218009224928"><ele>444.0</ele><time>2026-04-06T15:57:39Z</time></trkpt><trkpt lat="43.14642843526395" lon="11.3321930914495"><ele>445.0</ele><time>2026-04-06T15:57:40Z</time></trkpt><trkpt lat="43.146277200936005" lon="11.33216854042921"><ele>446.0</ele><time>2026-04-06T15:57:41Z</time></trkpt><trkpt lat="43.14613548387597" lon="11.332130693152349"><ele>447.0</ele><time>2026-04-06T15:57:42Z</time></trkpt><trkpt lat="43.14598630370664" lon="11.332074073379584"><ele>447.0</ele><time>2026-04-06T15:57:43Z</time></trkpt><trkpt lat="43.145821033676675" lon="11.332000900244038"><ele>447.0</ele><time>2026-04-06T15:57:44Z</time></trkpt><trkpt lat="43.14568961374877" lon="11.331899687020325"><ele>447.0</ele><time>2026-04-06T15:57:45Z</time></trkpt><trkpt lat="43.14555004621057" lon="11.331830201646824"><ele>447.66666666666663</ele><time>2026-04-06T15:57:46Z</time></trkpt><trkpt lat="43.14539240824659" lon="11.331814166349808"><ele>448.3333333333333</ele><time>2026-04-06T15:57:47Z</time></trkpt><trkpt lat="43.14524375671716" lon="11.331861216321425"><ele>449.0</ele><time>2026-04-06T15:57:48Z</time></trkpt><trkpt lat="43.14508771156749" lon="11.331946834293952"><ele>449.0</ele><time>2026-04-06T15:57:49Z</time></trkpt><trkpt lat="43.14497845909446" lon="11.332047783529232"><ele>449.0</ele><time>2026-04-06T15:57:50Z</time></trkpt><trkpt lat="43.144893006050495" lon="11.332186916472647"><ele>449.0</ele><time>2026-04-06T15:57:51Z</time></trkpt><trkpt lat="43.14483786665676" lon="11.332288716939546"><ele>449.0</ele><time>2026-04-06T15:57:52Z</time></trkpt><trkpt lat="43.144760679728144" lon="11.332353332284164"><ele>449.0</ele><time>2026-04-06T15:57:53Z</time></trkpt><trkpt lat="43.144668600427714" lon="11.332392102994174"><ele>450.0</ele><time>2026-04-06T15:57:53.999Z</time></trkpt><trkpt lat="43.144552178278" lon="11.33243082677527"><ele>451.0</ele><time>2026-04-06T15:57:54.999Z</time></trkpt><trkpt lat="43.14442926627468" lon="11.332479675714078"><ele>452.0</ele><time>2026-04-06T15:57:55.999Z</time></trkpt><trkpt lat="43.14430143908464" lon="11.332533573208"><ele>453.0</ele><time>2026-04-06T15:57:56.999Z</time></trkpt><trkpt lat="43.14419041378479" lon="11.332592704558941"><ele>453.0</ele><time>2026-04-06T15:57:57.999Z</time></trkpt><trkpt lat="43.14407386955457" lon="11.33266700267602"><ele>452.99999999999994</ele><time>2026-04-06T15:57:58.999Z</time></trkpt><trkpt lat="43.1440083901252" lon="11.332772538951488"><ele>452.99999999999994</ele><time>2026-04-06T15:57:59.999Z</time></trkpt><trkpt lat="43.14399040007779" lon="11.332896973279755"><ele>453.0</ele><time>2026-04-06T15:58:00.999Z</time></trkpt><trkpt lat="43.144021277889486" lon="11.333018649684888"><ele>453.0</ele><time>2026-04-06T15:58:01.999Z</time></trkpt><trkpt lat="43.14403261735898" lon="11.333158209826065"><ele>453.75</ele><time>2026-04-06T15:58:02.999Z</time></trkpt><trkpt lat="43.14398994529476" lon="11.333303893764288"><ele>454.5</ele><time>2026-04-06T15:58:03.999Z</time></trkpt><trkpt lat="43.14395457301824" lon="11.333488983990035"><ele>455.25</ele><time>2026-04-06T15:58:04.999Z</time></trkpt><trkpt lat="43.14385005946808" lon="11.333656232544394"><ele>456.0</ele><time>2026-04-06T15:58:05.999Z</time></trkpt><trkpt lat="43.14376468063641" lon="11.333812447759822"><ele>455.25</ele><time>2026-04-06T15:58:06.999Z</time></trkpt><trkpt lat="43.1436821991633" lon="11.333973199563294"><ele>454.5</ele><time>2026-04-06T15:58:07.999Z</time></trkpt><trkpt lat="43.14360725821895" lon="11.334132647000521"><ele>453.75</ele><time>2026-04-06T15:58:08.999Z</time></trkpt><trkpt lat="43.14353412501947" lon="11.33431532435807"><ele>453.0</ele><time>2026-04-06T15:58:09.999Z</time></trkpt><trkpt lat="43.14348288372379" lon="11.334506675746574"><ele>453.0</ele><time>2026-04-06T15:58:10.999Z</time></trkpt><trkpt lat="43.143472564582424" lon="11.334694122830598"><ele>453.0</ele><time>2026-04-06T15:58:11.999Z</time></trkpt><trkpt lat="43.14345061536404" lon="11.334893766921047"><ele>453.0</ele><time>2026-04-06T15:58:12.999Z</time></trkpt><trkpt lat="43.14341895693186" lon="11.335107748194227"><ele>453.0</ele><time>2026-04-06T15:58:13.999Z</time></trkpt><trkpt lat="43.14337061317089" lon="11.335345470272749"><ele>453.66666666666663</ele><time>2026-04-06T15:58:14.999Z</time></trkpt><trkpt lat="43.143329465900884" lon="11.335566675873773"><ele>454.3333333333333</ele><time>2026-04-06T15:58:15.999Z</time></trkpt><trkpt lat="43.14329225005295" lon="11.335782651072728"><ele>455.0</ele><time>2026-04-06T15:58:16.999Z</time></trkpt><trkpt lat="43.14326296397364" lon="11.335989776337328"><ele>455.0</ele><time>2026-04-06T15:58:17.999Z</time></trkpt><trkpt lat="43.143248848677544" lon="11.336203429302472"><ele>455.0</ele><time>2026-04-06T15:58:18.999Z</time></trkpt><trkpt lat="43.14325589544683" lon="11.336433546476957"><ele>455.0</ele><time>2026-04-06T15:58:19.999Z</time></trkpt><trkpt lat="43.143287873993586" lon="11.336635984854098"><ele>455.66666666666663</ele><time>2026-04-06T15:58:20.999Z</time></trkpt><trkpt lat="43.14332626671007" lon="11.336843998263967"><ele>456.33333333333337</ele><time>2026-04-06T15:58:21.999Z</time></trkpt><trkpt lat="43.14336158799893" lon="11.337053984249364"><ele>457.0</ele><time>2026-04-06T15:58:22.999Z</time></trkpt><trkpt lat="43.14339627919413" lon="11.337273330705864"><ele>457.33333333333337</ele><time>2026-04-06T15:58:23.999Z</time></trkpt><trkpt lat="43.14343581145234" lon="11.337501308580435"><ele>457.66666666666663</ele><time>2026-04-06T15:58:24.999Z</time></trkpt><trkpt lat="43.14344988294347" lon="11.337718304955686"><ele>458.0</ele><time>2026-04-06T15:58:25.999Z</time></trkpt><trkpt lat="43.14345507047495" lon="11.337939901891286"><ele>457.66666666666663</ele><time>2026-04-06T15:58:26.999Z</time></trkpt><trkpt lat="43.143430559470616" lon="11.338152652499542"><ele>457.33333333333337</ele><time>2026-04-06T15:58:27.999Z</time></trkpt><trkpt lat="43.14339388387367" lon="11.338349225649436"><ele>457.0</ele><time>2026-04-06T15:58:28.999Z</time></trkpt><trkpt lat="43.143328785882524" lon="11.338551116572873"><ele>457.0</ele><time>2026-04-06T15:58:29.999Z</time></trkpt><trkpt lat="43.14323722994872" lon="11.338714701161457"><ele>457.0</ele><time>2026-04-06T15:58:30.999Z</time></trkpt><trkpt lat="43.14314974036333" lon="11.338890786420889"><ele>457.0</ele><time>2026-04-06T15:58:31.999Z</time></trkpt><trkpt lat="43.14308602110251" lon="11.339086800850104"><ele>460.0</ele><time>2026-04-06T15:58:32.999Z</time></trkpt><trkpt lat="43.14303379154032" lon="11.339293734999028"><ele>463.0</ele><time>2026-04-06T15:58:33.999Z</time></trkpt><trkpt lat="43.142960885077706" lon="11.339507811338533"><ele>466.0</ele><time>2026-04-06T15:58:34.999Z</time></trkpt><trkpt lat="43.142905196325266" lon="11.339732227694446"><ele>466.0</ele><time>2026-04-06T15:58:35.999Z</time></trkpt><trkpt lat="43.142845563624206" lon="11.33995969135321"><ele>466.0</ele><time>2026-04-06T15:58:36.999Z</time></trkpt><trkpt lat="43.14280452475207" lon="11.340192422062914"><ele>466.0</ele><time>2026-04-06T15:58:37.999Z</time></trkpt><trkpt lat="43.14276166139439" lon="11.34042412563682"><ele>464.0</ele><time>2026-04-06T15:58:38.999Z</time></trkpt><trkpt lat="43.14272279144586" lon="11.34064957013761"><ele>462.0</ele><time>2026-04-06T15:58:39.999Z</time></trkpt><trkpt lat="43.14269178339642" lon="11.34086081739972"><ele>460.0</ele><time>2026-04-06T15:58:40.999Z</time></trkpt><trkpt lat="43.1426459689262" lon="11.34106418250365"><ele>460.0</ele><time>2026-04-06T15:58:41.999Z</time></trkpt><trkpt lat="43.14259240186508" lon="11.34126012780427"><ele>460.0</ele><time>2026-04-06T15:58:42.999Z</time></trkpt><trkpt lat="43.14251799492332" lon="11.341447120183021"><ele>460.0</ele><time>2026-04-06T15:58:43.999Z</time></trkpt><trkpt lat="43.142423706448874" lon="11.341606055910518"><ele>458.75</ele><time>2026-04-06T15:58:44.999Z</time></trkpt><trkpt lat="43.14233460598588" lon="11.341798362979283"><ele>457.5</ele><time>2026-04-06T15:58:45.999Z</time></trkpt><trkpt lat="43.142288851884786" lon="11.341949600193333"><ele>456.25</ele><time>2026-04-06T15:58:46.999Z</time></trkpt><trkpt lat="43.14222304274682" lon="11.342100469430584"><ele>455.0</ele><time>2026-04-06T15:58:47.998Z</time></trkpt><trkpt lat="43.142149711198414" lon="11.342232208339952"><ele>455.0</ele><time>2026-04-06T15:58:48.998Z</time></trkpt><trkpt lat="43.14202998629089" lon="11.342340813854683"><ele>455.0</ele><time>2026-04-06T15:58:49.998Z</time></trkpt><trkpt lat="43.14191457634889" lon="11.342424294130309"><ele>455.0</ele><time>2026-04-06T15:58:50.998Z</time></trkpt><trkpt lat="43.14180676401873" lon="11.342505791152913"><ele>455.0</ele><time>2026-04-06T15:58:51.998Z</time></trkpt><trkpt lat="43.14169743919649" lon="11.342584507244968"><ele>455.0</ele><time>2026-04-06T15:58:52.998Z</time></trkpt><trkpt lat="43.14158221839857" lon="11.34266105754908"><ele>455.0</ele><time>2026-04-06T15:58:53.998Z</time></trkpt><trkpt lat="43.14147805318628" lon="11.342731242108403"><ele>455.0</ele><time>2026-04-06T15:58:54.998Z</time></trkpt><trkpt lat="43.14136876183086" lon="11.342811333839753"><ele>455.0</ele><time>2026-04-06T15:58:55.998Z</time></trkpt><trkpt lat="43.14125497505851" lon="11.342885156507903"><ele>457.0</ele><time>2026-04-06T15:58:56.998Z</time></trkpt><trkpt lat="43.14114062068609" lon="11.342938575723492"><ele>459.0</ele><time>2026-04-06T15:58:57.998Z</time></trkpt><trkpt lat="43.1410312575759" lon="11.343003292994668"><ele>461.0</ele><time>2026-04-06T15:58:58.998Z</time></trkpt><trkpt lat="43.1409312592026" lon="11.343078516608344"><ele>463.0</ele><time>2026-04-06T15:58:59.998Z</time></trkpt><trkpt lat="43.140792036695885" lon="11.343142342643912"><ele>458.25</ele><time>2026-04-06T15:59:00.998Z</time></trkpt><trkpt lat="43.14065982886493" lon="11.343213542232839"><ele>453.5</ele><time>2026-04-06T15:59:01.998Z</time></trkpt><trkpt lat="43.140562964716985" lon="11.343317576977379"><ele>448.75</ele><time>2026-04-06T15:59:02.998Z</time></trkpt><trkpt lat="43.14045346589296" lon="11.343408391689998"><ele>444.0</ele><time>2026-04-06T15:59:03.998Z</time></trkpt><trkpt lat="43.14033434103829" lon="11.343478400031287"><ele>444.0</ele><time>2026-04-06T15:59:04.998Z</time></trkpt><trkpt lat="43.140215366370704" lon="11.343546457467236"><ele>444.0</ele><time>2026-04-06T15:59:05.998Z</time></trkpt><trkpt lat="43.140077910960564" lon="11.34360830189886"><ele>444.0</ele><time>2026-04-06T15:59:06.998Z</time></trkpt><trkpt lat="43.13994166632507" lon="11.343677650507773"><ele>444.0</ele><time>2026-04-06T15:59:07.998Z</time></trkpt><trkpt lat="43.13980560560329" lon="11.343754311283472"><ele>440.75</ele><time>2026-04-06T15:59:08.998Z</time></trkpt><trkpt lat="43.13966827300877" lon="11.343827834237931"><ele>437.5</ele><time>2026-04-06T15:59:09.998Z</time></trkpt><trkpt lat="43.13953053345672" lon="11.343882753135224"><ele>434.25</ele><time>2026-04-06T15:59:10.998Z</time></trkpt><trkpt lat="43.13939410486969" lon="11.343930706631111"><ele>431.0</ele><time>2026-04-06T15:59:11.998Z</time></trkpt><trkpt lat="43.139268285833474" lon="11.343999922795048"><ele>431.0</ele><time>2026-04-06T15:59:12.998Z</time></trkpt><trkpt lat="43.13916106376783" lon="11.344104163471325"><ele>431.0</ele><time>2026-04-06T15:59:13.998Z</time></trkpt><trkpt lat="43.13907942956377" lon="11.344240769612515"><ele>431.0</ele><time>2026-04-06T15:59:14.998Z</time></trkpt><trkpt lat="43.139028197090674" lon="11.344386359387865"><ele>431.0</ele><time>2026-04-06T15:59:15.998Z</time></trkpt><trkpt lat="43.13898463119411" lon="11.344526748140906"><ele>427.75</ele><time>2026-04-06T15:59:16.998Z</time></trkpt><trkpt lat="43.13899761162321" lon="11.344680466698605"><ele>424.5</ele><time>2026-04-06T15:59:17.998Z</time></trkpt><trkpt lat="43.13898780456632" lon="11.34482740675114"><ele>421.25</ele><time>2026-04-06T15:59:18.998Z</time></trkpt><trkpt lat="43.138991532332376" lon="11.3449810328698"><ele>418.0</ele><time>2026-04-06T15:59:19.998Z</time></trkpt><trkpt lat="43.13900180280831" lon="11.345149903031098"><ele>418.0</ele><time>2026-04-06T15:59:20.998Z</time></trkpt><trkpt lat="43.13899341551232" lon="11.34533500414827"><ele>418.0</ele><time>2026-04-06T15:59:21.998Z</time></trkpt><trkpt lat="43.13895323298835" lon="11.345518483859125"><ele>418.0</ele><time>2026-04-06T15:59:22.998Z</time></trkpt><trkpt lat="43.13889549948036" lon="11.34569226970489"><ele>418.0</ele><time>2026-04-06T15:59:23.998Z</time></trkpt><trkpt lat="43.138815608884556" lon="11.345845906659289"><ele>418.0</ele><time>2026-04-06T15:59:24.998Z</time></trkpt><trkpt lat="43.13875562770627" lon="11.345995287192164"><ele>418.0</ele><time>2026-04-06T15:59:25.998Z</time></trkpt><trkpt lat="43.13866417819607" lon="11.346122677679109"><ele>418.0</ele><time>2026-04-06T15:59:26.998Z</time></trkpt><trkpt lat="43.13859029718078" lon="11.346262485439084"><ele>418.0</ele><time>2026-04-06T15:59:27.998Z</time></trkpt><trkpt lat="43.13852553629318" lon="11.34642670530355"><ele>418.75</ele><time>2026-04-06T15:59:28.998Z</time></trkpt><trkpt lat="43.13848425136386" lon="11.346620223817505"><ele>419.5</ele><time>2026-04-06T15:59:29.998Z</time></trkpt><trkpt lat="43.138475748732546" lon="11.34681524245107"><ele>420.25</ele><time>2026-04-06T15:59:30.998Z</time></trkpt><trkpt lat="43.13847414946386" lon="11.346988302904217"><ele>421.0</ele><time>2026-04-06T15:59:31.998Z</time></trkpt><trkpt lat="43.13847059278443" lon="11.347172306626087"><ele>419.25</ele><time>2026-04-06T15:59:32.998Z</time></trkpt><trkpt lat="43.13846179340595" lon="11.347343780916503"><ele>417.5</ele><time>2026-04-06T15:59:33.998Z</time></trkpt><trkpt lat="43.13844148653094" lon="11.347485234351296"><ele>415.75</ele><time>2026-04-06T15:59:34.998Z</time></trkpt><trkpt lat="43.13838003673555" lon="11.347602885648485"><ele>414.0</ele><time>2026-04-06T15:59:35.998Z</time></trkpt><trkpt lat="43.13827197692879" lon="11.34767112074999"><ele>413.25</ele><time>2026-04-06T15:59:36.998Z</time></trkpt><trkpt lat="43.13815233770625" lon="11.347696955538122"><ele>412.5</ele><time>2026-04-06T15:59:37.998Z</time></trkpt><trkpt lat="43.13801586472234" lon="11.347655060893393"><ele>411.75</ele><time>2026-04-06T15:59:38.998Z</time></trkpt><trkpt lat="43.13787602371464" lon="11.347663503322675"><ele>411.0</ele><time>2026-04-06T15:59:40Z</time></trkpt><trkpt lat="43.137730590429136" lon="11.347695245019104"><ele>411.0</ele><time>2026-04-06T15:59:41Z</time></trkpt><trkpt lat="43.13760311036226" lon="11.347741634082519"><ele>411.0</ele><time>2026-04-06T15:59:42Z</time></trkpt><trkpt lat="43.13747236889084" lon="11.347782682113985"><ele>411.0</ele><time>2026-04-06T15:59:43Z</time></trkpt><trkpt lat="43.137347683419826" lon="11.347786512157903"><ele>411.0</ele><time>2026-04-06T15:59:44Z</time></trkpt><trkpt lat="43.13723397394759" lon="11.347748927605336"><ele>408.0</ele><time>2026-04-06T15:59:45Z</time></trkpt><trkpt lat="43.13711500598784" lon="11.347671368517172"><ele>405.0</ele><time>2026-04-06T15:59:46Z</time></trkpt><trkpt lat="43.13699516222001" lon="11.347581786943131"><ele>402.0</ele><time>2026-04-06T15:59:47Z</time></trkpt><trkpt lat="43.13688037574254" lon="11.347470938213725"><ele>399.0</ele><time>2026-04-06T15:59:48Z</time></trkpt><trkpt lat="43.13677574428677" lon="11.347352228935726"><ele>399.0</ele><time>2026-04-06T15:59:49Z</time></trkpt><trkpt lat="43.13667587908661" lon="11.347223065012583"><ele>399.0</ele><time>2026-04-06T15:59:50Z</time></trkpt><trkpt lat="43.13659589651318" lon="11.34711620031748"><ele>399.0</ele><time>2026-04-06T15:59:51Z</time></trkpt><trkpt lat="43.13652938111618" lon="11.347026521954152"><ele>399.0</ele><time>2026-04-06T15:59:52Z</time></trkpt><trkpt lat="43.13641161974827" lon="11.34688907084979"><ele>395.33333333333337</ele><time>2026-04-06T15:59:53Z</time></trkpt><trkpt lat="43.13626762910053" lon="11.346789562524743"><ele>391.6666666666667</ele><time>2026-04-06T15:59:54Z</time></trkpt><trkpt lat="43.13611283446061" lon="11.346728901551081"><ele>388.0</ele><time>2026-04-06T15:59:55Z</time></trkpt><trkpt lat="43.135971294205675" lon="11.346703240447864"><ele>388.0</ele><time>2026-04-06T15:59:56Z</time></trkpt><trkpt lat="43.135821726765336" lon="11.346686120712029"><ele>388.0</ele><time>2026-04-06T15:59:57Z</time></trkpt><trkpt lat="43.13567180220885" lon="11.346695325238462"><ele>388.0</ele><time>2026-04-06T15:59:58Z</time></trkpt><trkpt lat="43.1355373726662" lon="11.346719263697791"><ele>388.0</ele><time>2026-04-06T15:59:59Z</time></trkpt><trkpt lat="43.135399095801624" lon="11.346751398944424"><ele>385.33333333333337</ele><time>2026-04-06T16:00:00Z</time></trkpt><trkpt lat="43.13525740993329" lon="11.346791397328026"><ele>382.6666666666667</ele><time>2026-04-06T16:00:01Z</time></trkpt><trkpt lat="43.135109444656806" lon="11.346830703763715"><ele>380.0</ele><time>2026-04-06T16:00:01.999Z</time></trkpt><trkpt lat="43.134934754565904" lon="11.346871723074063"><ele>376.0</ele><time>2026-04-06T16:00:02.999Z</time></trkpt><trkpt lat="43.13478188915162" lon="11.346919373666587"><ele>372.0</ele><time>2026-04-06T16:00:03.999Z</time></trkpt><trkpt lat="43.13462949382027" lon="11.346981555121074"><ele>368.0</ele><time>2026-04-06T16:00:04.999Z</time></trkpt><trkpt lat="43.13449979504434" lon="11.34704271995852"><ele>368.0</ele><time>2026-04-06T16:00:05.999Z</time></trkpt><trkpt lat="43.13436641989514" lon="11.347088897443184"><ele>368.0</ele><time>2026-04-06T16:00:06.999Z</time></trkpt><trkpt lat="43.134192731627145" lon="11.347132971052442"><ele>368.0</ele><time>2026-04-06T16:00:07.999Z</time></trkpt><trkpt lat="43.13403698414453" lon="11.347161464980438"><ele>362.75</ele><time>2026-04-06T16:00:08.999Z</time></trkpt><trkpt lat="43.133887148019944" lon="11.347161828962664"><ele>357.5</ele><time>2026-04-06T16:00:09.999Z</time></trkpt><trkpt lat="43.13373756084067" lon="11.34714786565611"><ele>352.25</ele><time>2026-04-06T16:00:10.999Z</time></trkpt><trkpt lat="43.13359520568219" lon="11.34712838453375"><ele>347.0</ele><time>2026-04-06T16:00:11.999Z</time></trkpt><trkpt lat="43.13343720477484" lon="11.347103912374664"><ele>347.0</ele><time>2026-04-06T16:00:12.999Z</time></trkpt><trkpt lat="43.13328251889065" lon="11.347078131383766"><ele>347.0</ele><time>2026-04-06T16:00:13.999Z</time></trkpt><trkpt lat="43.13312977050911" lon="11.347052673291556"><ele>347.0</ele><time>2026-04-06T16:00:14.999Z</time></trkpt><trkpt lat="43.13298932669158" lon="11.347029265960657"><ele>344.25</ele><time>2026-04-06T16:00:15.999Z</time></trkpt><trkpt lat="43.132862845650855" lon="11.347008185761593"><ele>341.5</ele><time>2026-04-06T16:00:16.999Z</time></trkpt><trkpt lat="43.13274892862899" lon="11.346965804659224"><ele>338.75</ele><time>2026-04-06T16:00:17.999Z</time></trkpt><trkpt lat="43.132658478325496" lon="11.34687002510548"><ele>336.0</ele><time>2026-04-06T16:00:18.999Z</time></trkpt><trkpt lat="43.132572364098685" lon="11.346762377652949"><ele>336.0</ele><time>2026-04-06T16:00:19.999Z</time></trkpt><trkpt lat="43.13250481270983" lon="11.346647360429122"><ele>336.0</ele><time>2026-04-06T16:00:20.999Z</time></trkpt><trkpt lat="43.13244308103266" lon="11.34653833327312"><ele>336.0</ele><time>2026-04-06T16:00:21.999Z</time></trkpt><trkpt lat="43.132388885423175" lon="11.346415021215309"><ele>336.0</ele><time>2026-04-06T16:00:22.999Z</time></trkpt><trkpt lat="43.13233003388184" lon="11.346291697806038"><ele>336.0</ele><time>2026-04-06T16:00:23.999Z</time></trkpt><trkpt lat="43.132270756790916" lon="11.346166086988886"><ele>333.20000000000005</ele><time>2026-04-06T16:00:24.999Z</time></trkpt><trkpt lat="43.13221073554682" lon="11.346044586037655"><ele>330.40000000000003</ele><time>2026-04-06T16:00:25.999Z</time></trkpt><trkpt lat="43.13214515716994" lon="11.345924306116151"><ele>327.6</ele><time>2026-04-06T16:00:26.999Z</time></trkpt><trkpt lat="43.13207793110341" lon="11.345806581838891"><ele>324.8</ele><time>2026-04-06T16:00:27.999Z</time></trkpt><trkpt lat="43.13200698695466" lon="11.34569743140957"><ele>322.0</ele><time>2026-04-06T16:00:28.999Z</time></trkpt><trkpt lat="43.131956735053336" lon="11.345594379464837"><ele>321.5</ele><time>2026-04-06T16:00:29.999Z</time></trkpt><trkpt lat="43.13190867060954" lon="11.345501765502593"><ele>321.0</ele><time>2026-04-06T16:00:30.999Z</time></trkpt><trkpt lat="43.13186100974909" lon="11.345420838437915"><ele>320.5</ele><time>2026-04-06T16:00:31.999Z</time></trkpt><trkpt lat="43.13180823251529" lon="11.345340420759868"><ele>320.0</ele><time>2026-04-06T16:00:32.999Z</time></trkpt><trkpt lat="43.13174929770781" lon="11.34526621018888"><ele>319.5</ele><time>2026-04-06T16:00:33.999Z</time></trkpt><trkpt lat="43.131688603925426" lon="11.34518478535574"><ele>319.0</ele><time>2026-04-06T16:00:34.999Z</time></trkpt><trkpt lat="43.13162406892176" lon="11.345106986174114"><ele>318.3333333333333</ele><time>2026-04-06T16:00:35.999Z</time></trkpt><trkpt lat="43.13155647979222" lon="11.345042979914606"><ele>317.66666666666663</ele><time>2026-04-06T16:00:36.999Z</time></trkpt><trkpt lat="43.13149174984529" lon="11.344972745509688"><ele>317.0</ele><time>2026-04-06T16:00:37.999Z</time></trkpt><trkpt lat="43.13142689732502" lon="11.34490279452108"><ele>316.3333333333333</ele><time>2026-04-06T16:00:38.999Z</time></trkpt><trkpt lat="43.1313554424783" lon="11.344833055334533"><ele>315.6666666666667</ele><time>2026-04-06T16:00:39.999Z</time></trkpt><trkpt lat="43.13127811458068" lon="11.34477784657554"><ele>315.0</ele><time>2026-04-06T16:00:40.999Z</time></trkpt><trkpt lat="43.13120221274676" lon="11.344737051770025"><ele>315.4</ele><time>2026-04-06T16:00:41.999Z</time></trkpt><trkpt lat="43.13111544134637" lon="11.344683717950009"><ele>315.8</ele><time>2026-04-06T16:00:42.999Z</time></trkpt><trkpt lat="43.131029828509035" lon="11.344625037398734"><ele>316.2</ele><time>2026-04-06T16:00:43.999Z</time></trkpt><trkpt lat="43.130942132132695" lon="11.344573872566551"><ele>316.6</ele><time>2026-04-06T16:00:44.999Z</time></trkpt><trkpt lat="43.13084644738685" lon="11.344522475050034"><ele>317.0</ele><time>2026-04-06T16:00:45.999Z</time></trkpt><trkpt lat="43.13075211824186" lon="11.344473056711795"><ele>316.2</ele><time>2026-04-06T16:00:46.999Z</time></trkpt><trkpt lat="43.1306579457425" lon="11.34442357646224"><ele>315.4</ele><time>2026-04-06T16:00:47.999Z</time></trkpt><trkpt lat="43.13054674432487" lon="11.344374763133954"><ele>314.6</ele><time>2026-04-06T16:00:48.999Z</time></trkpt><trkpt lat="43.13044327461392" lon="11.34432475199201"><ele>313.8</ele><time>2026-04-06T16:00:49.999Z</time></trkpt><trkpt lat="43.130346371266164" lon="11.344270871124966"><ele>313.0</ele><time>2026-04-06T16:00:50.999Z</time></trkpt><trkpt lat="43.13025573058812" lon="11.344213719561056"><ele>313.0</ele><time>2026-04-06T16:00:51.999Z</time></trkpt><trkpt lat="43.13015859887483" lon="11.344151379325643"><ele>313.0</ele><time>2026-04-06T16:00:52.999Z</time></trkpt><trkpt lat="43.130063125916685" lon="11.344089396425868"><ele>313.0</ele><time>2026-04-06T16:00:53.999Z</time></trkpt><trkpt lat="43.12997288900037" lon="11.34402441798435"><ele>313.0</ele><time>2026-04-06T16:00:54.999Z</time></trkpt><trkpt lat="43.129888924277715" lon="11.343953208637108"><ele>313.0</ele><time>2026-04-06T16:00:55.999Z</time></trkpt><trkpt lat="43.129807529782376" lon="11.34388804486523"><ele>312.5</ele><time>2026-04-06T16:00:56.998Z</time></trkpt><trkpt lat="43.12972948144411" lon="11.343829480943217"><ele>312.0</ele><time>2026-04-06T16:00:57.998Z</time></trkpt><trkpt lat="43.12965613930734" lon="11.343774072544392"><ele>311.5</ele><time>2026-04-06T16:00:58.998Z</time></trkpt><trkpt lat="43.12957733863155" lon="11.34373203994003"><ele>311.0</ele><time>2026-04-06T16:00:59.998Z</time></trkpt><trkpt lat="43.129488482814594" lon="11.343699984971785"><ele>310.5</ele><time>2026-04-06T16:01:00.998Z</time></trkpt><trkpt lat="43.12940346200746" lon="11.343673179068253"><ele>310.0</ele><time>2026-04-06T16:01:01.998Z</time></trkpt><trkpt lat="43.12930107534211" lon="11.34366495857968"><ele>310.0</ele><time>2026-04-06T16:01:02.998Z</time></trkpt><trkpt lat="43.12919119666815" lon="11.343656323512068"><ele>310.0</ele><time>2026-04-06T16:01:03.998Z</time></trkpt><trkpt lat="43.129097179303365" lon="11.343653127110699"><ele>310.0</ele><time>2026-04-06T16:01:04.998Z</time></trkpt><trkpt lat="43.12901425981282" lon="11.343631274527905"><ele>310.0</ele><time>2026-04-06T16:01:05.998Z</time></trkpt><trkpt lat="43.128933568166815" lon="11.343625375315252"><ele>310.0</ele><time>2026-04-06T16:01:06.998Z</time></trkpt><trkpt lat="43.12884545916539" lon="11.343628189084221"><ele>306.5</ele><time>2026-04-06T16:01:07.998Z</time></trkpt><trkpt lat="43.128743926137055" lon="11.343620789477333"><ele>303.0</ele><time>2026-04-06T16:01:08.998Z</time></trkpt><trkpt lat="43.1286344371187" lon="11.343612948507673"><ele>299.5</ele><time>2026-04-06T16:01:09.998Z</time></trkpt><trkpt lat="43.12852131654903" lon="11.343631376600397"><ele>296.0</ele><time>2026-04-06T16:01:10.998Z</time></trkpt><trkpt lat="43.128368675348234" lon="11.343677346187464"><ele>294.33333333333337</ele><time>2026-04-06T16:01:11.998Z</time></trkpt><trkpt lat="43.12820245282952" lon="11.343713741354172"><ele>292.6666666666667</ele><time>2026-04-06T16:01:12.998Z</time></trkpt><trkpt lat="43.12802532319883" lon="11.343781458657919"><ele>291.0</ele><time>2026-04-06T16:01:13.998Z</time></trkpt><trkpt lat="43.12785384471694" lon="11.343831205646016"><ele>291.0</ele><time>2026-04-06T16:01:14.998Z</time></trkpt><trkpt lat="43.12767640770305" lon="11.343868646087845"><ele>291.0</ele><time>2026-04-06T16:01:15.998Z</time></trkpt><trkpt lat="43.12748320063351" lon="11.343884175534862"><ele>291.0</ele><time>2026-04-06T16:01:16.998Z</time></trkpt><trkpt lat="43.12727840178247" lon="11.34394272531754"><ele>291.6666666666667</ele><time>2026-04-06T16:01:17.998Z</time></trkpt><trkpt lat="43.127056989429434" lon="11.34399103951442"><ele>292.33333333333337</ele><time>2026-04-06T16:01:18.998Z</time></trkpt><trkpt lat="43.126841089600816" lon="11.344043096532289"><ele>293.0</ele><time>2026-04-06T16:01:19.998Z</time></trkpt><trkpt lat="43.12663497571497" lon="11.344105600799205"><ele>292.33333333333337</ele><time>2026-04-06T16:01:20.998Z</time></trkpt><trkpt lat="43.126452545800916" lon="11.344154681964925"><ele>291.6666666666667</ele><time>2026-04-06T16:01:21.998Z</time></trkpt><trkpt lat="43.12627447730646" lon="11.34417460862659"><ele>291.0</ele><time>2026-04-06T16:01:22.998Z</time></trkpt><trkpt lat="43.12609107808332" lon="11.344200593809948"><ele>291.0</ele><time>2026-04-06T16:01:23.998Z</time></trkpt><trkpt lat="43.12591351831476" lon="11.344226129607774"><ele>291.0</ele><time>2026-04-06T16:01:24.998Z</time></trkpt><trkpt lat="43.1257389823967" lon="11.344266476373486"><ele>291.0</ele><time>2026-04-06T16:01:25.998Z</time></trkpt><trkpt lat="43.12556064983838" lon="11.344304385304437"><ele>294.0</ele><time>2026-04-06T16:01:26.998Z</time></trkpt><trkpt lat="43.12538273186757" lon="11.344328597288406"><ele>297.0</ele><time>2026-04-06T16:01:27.998Z</time></trkpt><trkpt lat="43.125209360746695" lon="11.344347453725227"><ele>300.0</ele><time>2026-04-06T16:01:28.998Z</time></trkpt><trkpt lat="43.12506347558612" lon="11.3443828829087"><ele>300.0</ele><time>2026-04-06T16:01:29.998Z</time></trkpt><trkpt lat="43.124912924514106" lon="11.344380369029334"><ele>300.0</ele><time>2026-04-06T16:01:30.998Z</time></trkpt><trkpt lat="43.12476557353708" lon="11.344349938941285"><ele>300.0</ele><time>2026-04-06T16:01:31.998Z</time></trkpt><trkpt lat="43.12464086908807" lon="11.34431569618516"><ele>300.0</ele><time>2026-04-06T16:01:32.998Z</time></trkpt><trkpt lat="43.12448584894749" lon="11.344306377146301"><ele>301.6666666666667</ele><time>2026-04-06T16:01:33.998Z</time></trkpt><trkpt lat="43.124324155547335" lon="11.344292668125666"><ele>303.33333333333337</ele><time>2026-04-06T16:01:34.998Z</time></trkpt><trkpt lat="43.12417060271821" lon="11.344296077988753"><ele>305.0</ele><time>2026-04-06T16:01:35.998Z</time></trkpt><trkpt lat="43.124022730470614" lon="11.344325130247327"><ele>305.25</ele><time>2026-04-06T16:01:36.998Z</time></trkpt><trkpt lat="43.123877023880176" lon="11.34437692191404"><ele>305.5</ele><time>2026-04-06T16:01:37.998Z</time></trkpt><trkpt lat="43.12373287410946" lon="11.34441706048144"><ele>305.75</ele><time>2026-04-06T16:01:38.998Z</time></trkpt><trkpt lat="43.123592991329495" lon="11.344453998285019"><ele>306.0</ele><time>2026-04-06T16:01:39.998Z</time></trkpt><trkpt lat="43.1234648925095" lon="11.344495298228798"><ele>306.0</ele><time>2026-04-06T16:01:40.998Z</time></trkpt><trkpt lat="43.12332965841485" lon="11.344533304217721"><ele>306.0</ele><time>2026-04-06T16:01:41.998Z</time></trkpt><trkpt lat="43.12320289437258" lon="11.344585855013976"><ele>306.0</ele><time>2026-04-06T16:01:42.998Z</time></trkpt><trkpt lat="43.12310020111333" lon="11.344640589750417"><ele>306.0</ele><time>2026-04-06T16:01:43.998Z</time></trkpt><trkpt lat="43.1229952863932" lon="11.344711007791995"><ele>308.75</ele><time>2026-04-06T16:01:44.998Z</time></trkpt><trkpt lat="43.1228950739871" lon="11.344813729002647"><ele>311.5</ele><time>2026-04-06T16:01:46Z</time></trkpt><trkpt lat="43.12282097743911" lon="11.34492309266729"><ele>314.25</ele><time>2026-04-06T16:01:47Z</time></trkpt><trkpt lat="43.12273616934688" lon="11.345026081713593"><ele>317.0</ele><time>2026-04-06T16:01:48Z</time></trkpt><trkpt lat="43.12262393590097" lon="11.345132635064047"><ele>317.0</ele><time>2026-04-06T16:01:49Z</time></trkpt><trkpt lat="43.12252003552514" lon="11.345234154710356"><ele>317.0</ele><time>2026-04-06T16:01:50Z</time></trkpt><trkpt lat="43.12243993309054" lon="11.345344939848061"><ele>317.0</ele><time>2026-04-06T16:01:51Z</time></trkpt><trkpt lat="43.12236390236641" lon="11.345465545281028"><ele>317.0</ele><time>2026-04-06T16:01:52Z</time></trkpt><trkpt lat="43.122270634155825" lon="11.345546148402462"><ele>314.75</ele><time>2026-04-06T16:01:53Z</time></trkpt><trkpt lat="43.12214234334271" lon="11.34564612459743"><ele>312.5</ele><time>2026-04-06T16:01:54Z</time></trkpt><trkpt lat="43.12200120313958" lon="11.345739263587253"><ele>310.25</ele><time>2026-04-06T16:01:55Z</time></trkpt><trkpt lat="43.121875652992976" lon="11.345804245341885"><ele>308.0</ele><time>2026-04-06T16:01:56Z</time></trkpt><trkpt lat="43.12172794061583" lon="11.345899661946738"><ele>306.6666666666667</ele><time>2026-04-06T16:01:57Z</time></trkpt><trkpt lat="43.12155352341444" lon="11.345950142205412"><ele>305.3333333333333</ele><time>2026-04-06T16:01:58Z</time></trkpt><trkpt lat="43.12137826766856" lon="11.345995218173647"><ele>304.0</ele><time>2026-04-06T16:01:59Z</time></trkpt><trkpt lat="43.1212293363118" lon="11.346039620480267"><ele>304.0</ele><time>2026-04-06T16:02:00Z</time></trkpt><trkpt lat="43.12108437580125" lon="11.346071612956397"><ele>304.0</ele><time>2026-04-06T16:02:01Z</time></trkpt><trkpt lat="43.120959301582026" lon="11.346087250341684"><ele>304.0</ele><time>2026-04-06T16:02:02Z</time></trkpt><trkpt lat="43.12083101091877" lon="11.34606201114031"><ele>304.0</ele><time>2026-04-06T16:02:03Z</time></trkpt><trkpt lat="43.12074339633203" lon="11.346021427063391"><ele>301.59999999999997</ele><time>2026-04-06T16:02:04Z</time></trkpt><trkpt lat="43.120667548907626" lon="11.345957774593764"><ele>299.2</ele><time>2026-04-06T16:02:05Z</time></trkpt><trkpt lat="43.12057334710706" lon="11.345868957863415"><ele>296.79999999999995</ele><time>2026-04-06T16:02:06Z</time></trkpt><trkpt lat="43.12049856119954" lon="11.345777384756184"><ele>294.4</ele><time>2026-04-06T16:02:07Z</time></trkpt><trkpt lat="43.12040799009055" lon="11.345687182217679"><ele>292.0</ele><time>2026-04-06T16:02:08Z</time></trkpt><trkpt lat="43.120302793090644" lon="11.345595702621969"><ele>293.0</ele><time>2026-04-06T16:02:09Z</time></trkpt><trkpt lat="43.12020270782987" lon="11.345503916938503"><ele>294.0</ele><time>2026-04-06T16:02:09.999Z</time></trkpt><trkpt lat="43.120101577906695" lon="11.345415946981385"><ele>295.0</ele><time>2026-04-06T16:02:10.999Z</time></trkpt><trkpt lat="43.12000351687982" lon="11.34532465345369"><ele>296.0</ele><time>2026-04-06T16:02:11.999Z</time></trkpt><trkpt lat="43.11990354679214" lon="11.34521170059439"><ele>295.0</ele><time>2026-04-06T16:02:12.999Z</time></trkpt><trkpt lat="43.119802187554434" lon="11.345085800065648"><ele>294.0</ele><time>2026-04-06T16:02:13.999Z</time></trkpt><trkpt lat="43.11969249553468" lon="11.344960879167916"><ele>293.0</ele><time>2026-04-06T16:02:14.999Z</time></trkpt><trkpt lat="43.1195822867386" lon="11.344826980084541"><ele>292.0</ele><time>2026-04-06T16:02:15.999Z</time></trkpt><trkpt lat="43.11948198775145" lon="11.344681542103084"><ele>292.0</ele><time>2026-04-06T16:02:16.999Z</time></trkpt><trkpt lat="43.119382944422355" lon="11.344534733739808"><ele>292.0</ele><time>2026-04-06T16:02:17.999Z</time></trkpt><trkpt lat="43.119278788560884" lon="11.344406014427364"><ele>292.0</ele><time>2026-04-06T16:02:18.999Z</time></trkpt><trkpt lat="43.119166156760734" lon="11.344293499425728"><ele>292.0</ele><time>2026-04-06T16:02:19.999Z</time></trkpt><trkpt lat="43.11903518546207" lon="11.344209393514493"><ele>290.25</ele><time>2026-04-06T16:02:20.999Z</time></trkpt><trkpt lat="43.118884370654946" lon="11.344150489397402"><ele>288.5</ele><time>2026-04-06T16:02:21.999Z</time></trkpt><trkpt lat="43.118747690303884" lon="11.344103061065526"><ele>286.75</ele><time>2026-04-06T16:02:22.999Z</time></trkpt><trkpt lat="43.11862345333111" lon="11.344047519094564"><ele>285.0</ele><time>2026-04-06T16:02:23.999Z</time></trkpt><trkpt lat="43.118499482049565" lon="11.343979799602993"><ele>285.0</ele><time>2026-04-06T16:02:24.999Z</time></trkpt><trkpt lat="43.118377445728264" lon="11.343919377108735"><ele>285.0</ele><time>2026-04-06T16:02:25.999Z</time></trkpt><trkpt lat="43.118248947047476" lon="11.343869741887037"><ele>285.0</ele><time>2026-04-06T16:02:26.999Z</time></trkpt><trkpt lat="43.118137502387476" lon="11.343838909715876"><ele>285.0</ele><time>2026-04-06T16:02:27.999Z</time></trkpt><trkpt lat="43.118029735160114" lon="11.343815944250169"><ele>285.5</ele><time>2026-04-06T16:02:28.999Z</time></trkpt><trkpt lat="43.11792043995614" lon="11.343795507391707"><ele>286.0</ele><time>2026-04-06T16:02:29.999Z</time></trkpt><trkpt lat="43.11780668164718" lon="11.34377896267509"><ele>286.5</ele><time>2026-04-06T16:02:30.999Z</time></trkpt><trkpt lat="43.11769335795908" lon="11.343750957728343"><ele>287.0</ele><time>2026-04-06T16:02:31.999Z</time></trkpt><trkpt lat="43.11758052971734" lon="11.343729785886904"><ele>287.0</ele><time>2026-04-06T16:02:32.999Z</time></trkpt><trkpt lat="43.11747264289767" lon="11.343724910900246"><ele>287.0</ele><time>2026-04-06T16:02:33.999Z</time></trkpt><trkpt lat="43.11736657236463" lon="11.343709292529931"><ele>287.0</ele><time>2026-04-06T16:02:34.999Z</time></trkpt><trkpt lat="43.11725607263912" lon="11.343695554111525"><ele>287.0</ele><time>2026-04-06T16:02:35.999Z</time></trkpt><trkpt lat="43.11713020722393" lon="11.343683346732876"><ele>284.25</ele><time>2026-04-06T16:02:36.999Z</time></trkpt><trkpt lat="43.11697982021709" lon="11.343672507456862"><ele>281.5</ele><time>2026-04-06T16:02:37.999Z</time></trkpt><trkpt lat="43.11684009150506" lon="11.34363555302004"><ele>278.75</ele><time>2026-04-06T16:02:38.999Z</time></trkpt><trkpt lat="43.11670607006985" lon="11.343572138875496"><ele>276.0</ele><time>2026-04-06T16:02:39.999Z</time></trkpt><trkpt lat="43.11657453641671" lon="11.343495362711499"><ele>273.5</ele><time>2026-04-06T16:02:40.999Z</time></trkpt><trkpt lat="43.11644425363273" lon="11.343424493741713"><ele>271.0</ele><time>2026-04-06T16:02:41.999Z</time></trkpt><trkpt lat="43.1163214661641" lon="11.343367044247135"><ele>268.5</ele><time>2026-04-06T16:02:42.999Z</time></trkpt><trkpt lat="43.11620032880121" lon="11.343277710440677"><ele>266.0</ele><time>2026-04-06T16:02:43.999Z</time></trkpt><trkpt lat="43.116083216613795" lon="11.343155529362814"><ele>264.6666666666667</ele><time>2026-04-06T16:02:44.999Z</time></trkpt><trkpt lat="43.11595908779937" lon="11.342989890553055"><ele>263.3333333333333</ele><time>2026-04-06T16:02:45.999Z</time></trkpt><trkpt lat="43.11586517872921" lon="11.34285288739622"><ele>262.0</ele><time>2026-04-06T16:02:46.999Z</time></trkpt><trkpt lat="43.115768283002105" lon="11.342690371824956"><ele>261.3333333333333</ele><time>2026-04-06T16:02:47.999Z</time></trkpt><trkpt lat="43.11569022877015" lon="11.342504606096112"><ele>260.6666666666667</ele><time>2026-04-06T16:02:48.999Z</time></trkpt><trkpt lat="43.11563949809115" lon="11.34230938465573"><ele>260.0</ele><time>2026-04-06T16:02:49.999Z</time></trkpt><trkpt lat="43.11560642046717" lon="11.342109772412595"><ele>260.0</ele><time>2026-04-06T16:02:50.999Z</time></trkpt><trkpt lat="43.11557478589646" lon="11.341908850736251"><ele>260.0</ele><time>2026-04-06T16:02:51.999Z</time></trkpt><trkpt lat="43.11554225459506" lon="11.341709561796609"><ele>260.0</ele><time>2026-04-06T16:02:52.999Z</time></trkpt><trkpt lat="43.115506464620594" lon="11.341493757721244"><ele>262.0</ele><time>2026-04-06T16:02:53.999Z</time></trkpt><trkpt lat="43.11547485668492" lon="11.341279061353204"><ele>264.0</ele><time>2026-04-06T16:02:54.999Z</time></trkpt><trkpt lat="43.11544030789996" lon="11.341061362180888"><ele>266.0</ele><time>2026-04-06T16:02:55.999Z</time></trkpt><trkpt lat="43.11540635363797" lon="11.340854216891396"><ele>266.0</ele><time>2026-04-06T16:02:56.999Z</time></trkpt><trkpt lat="43.11537295081235" lon="11.340658743171764"><ele>266.0</ele><time>2026-04-06T16:02:57.999Z</time></trkpt><trkpt lat="43.11534720649232" lon="11.340475778991973"><ele>266.0</ele><time>2026-04-06T16:02:58.999Z</time></trkpt><trkpt lat="43.11532958959266" lon="11.340316292901608"><ele>266.0</ele><time>2026-04-06T16:02:59.999Z</time></trkpt><trkpt lat="43.11530043203068" lon="11.340184905753128"><ele>267.8</ele><time>2026-04-06T16:03:00.999Z</time></trkpt><trkpt lat="43.11525675325127" lon="11.340075038123954"><ele>269.6</ele><time>2026-04-06T16:03:01.999Z</time></trkpt><trkpt lat="43.115209197115966" lon="11.339965579185256"><ele>271.4</ele><time>2026-04-06T16:03:02.999Z</time></trkpt><trkpt lat="43.11515322794784" lon="11.339859075108613"><ele>273.2</ele><time>2026-04-06T16:03:03.999Z</time></trkpt><trkpt lat="43.11508059903626" lon="11.339756041298752"><ele>275.0</ele><time>2026-04-06T16:03:04.998Z</time></trkpt><trkpt lat="43.114989526074666" lon="11.339672627739379"><ele>274.0</ele><time>2026-04-06T16:03:05.998Z</time></trkpt><trkpt lat="43.114879384914175" lon="11.33960407650585"><ele>273.0</ele><time>2026-04-06T16:03:06.998Z</time></trkpt><trkpt lat="43.11476535718269" lon="11.339502348565642"><ele>272.0</ele><time>2026-04-06T16:03:07.998Z</time></trkpt><trkpt lat="43.11465257012271" lon="11.339395186907083"><ele>271.0</ele><time>2026-04-06T16:03:08.998Z</time></trkpt><trkpt lat="43.114540613455375" lon="11.339276937050089"><ele>271.0</ele><time>2026-04-06T16:03:09.998Z</time></trkpt><trkpt lat="43.11441535962991" lon="11.339176478603385"><ele>271.0</ele><time>2026-04-06T16:03:10.998Z</time></trkpt><trkpt lat="43.11428282632695" lon="11.339082140931179"><ele>271.0</ele><time>2026-04-06T16:03:11.998Z</time></trkpt><trkpt lat="43.114135217824845" lon="11.339044714404512"><ele>271.0</ele><time>2026-04-06T16:03:12.998Z</time></trkpt><trkpt lat="43.11397572516" lon="11.339000159695097"><ele>267.3333333333333</ele><time>2026-04-06T16:03:13.998Z</time></trkpt><trkpt lat="43.11381355104763" lon="11.338966722074689"><ele>263.6666666666667</ele><time>2026-04-06T16:03:14.998Z</time></trkpt><trkpt lat="43.113665537594386" lon="11.338937083096017"><ele>260.0</ele><time>2026-04-06T16:03:15.998Z</time></trkpt><trkpt lat="43.11347397293771" lon="11.338883344289666"><ele>259.0</ele><time>2026-04-06T16:03:16.998Z</time></trkpt><trkpt lat="43.11332041863402" lon="11.33882352737084"><ele>258.0</ele><time>2026-04-06T16:03:17.998Z</time></trkpt><trkpt lat="43.11314960423936" lon="11.338719434094193"><ele>257.0</ele><time>2026-04-06T16:03:18.998Z</time></trkpt><trkpt lat="43.11302877695558" lon="11.338618879881267"><ele>257.0</ele><time>2026-04-06T16:03:19.998Z</time></trkpt><trkpt lat="43.112911943145924" lon="11.338516590498818"><ele>257.0</ele><time>2026-04-06T16:03:20.998Z</time></trkpt><trkpt lat="43.11278775112981" lon="11.338398502744433"><ele>257.0</ele><time>2026-04-06T16:03:21.998Z</time></trkpt><trkpt lat="43.11268634400695" lon="11.338274803048225"><ele>257.0</ele><time>2026-04-06T16:03:22.998Z</time></trkpt><trkpt lat="43.11259280115412" lon="11.338172380984208"><ele>257.6</ele><time>2026-04-06T16:03:23.998Z</time></trkpt><trkpt lat="43.112535770343754" lon="11.338049799535769"><ele>258.2</ele><time>2026-04-06T16:03:24.998Z</time></trkpt><trkpt lat="43.11247394355379" lon="11.337933322338834"><ele>258.8</ele><time>2026-04-06T16:03:25.998Z</time></trkpt><trkpt lat="43.11243523504116" lon="11.337851521635786"><ele>259.4</ele><time>2026-04-06T16:03:26.998Z</time></trkpt><trkpt lat="43.11247804916115" lon="11.33773138842811"><ele>260.0</ele><time>2026-04-06T16:03:30.998Z</time></trkpt><trkpt lat="43.11255909661577" lon="11.337663716250553"><ele>260.0</ele><time>2026-04-06T16:03:32.998Z</time></trkpt><trkpt lat="43.1126239468081" lon="11.337522370240773"><ele>260.0</ele><time>2026-04-06T16:03:34.998Z</time></trkpt><trkpt lat="43.11268475231396" lon="11.337394035795567"><ele>260.0</ele><time>2026-04-06T16:03:36.998Z</time></trkpt><trkpt lat="43.11270672752157" lon="11.337229648354073"><ele>260.0</ele><time>2026-04-06T16:03:38.998Z</time></trkpt><trkpt lat="43.1127137520031" lon="11.337120884749114"><ele>260.0</ele><time>2026-04-06T16:03:39.998Z</time></trkpt><trkpt lat="43.112703756441235" lon="11.336996084489808"><ele>259.25</ele><time>2026-04-06T16:03:40.998Z</time></trkpt><trkpt lat="43.11267151705089" lon="11.336872639498802"><ele>258.5</ele><time>2026-04-06T16:03:41.998Z</time></trkpt><trkpt lat="43.11263031633475" lon="11.336724443221755"><ele>257.75</ele><time>2026-04-06T16:03:42.998Z</time></trkpt><trkpt lat="43.1125861640514" lon="11.336582625801807"><ele>257.0</ele><time>2026-04-06T16:03:43.998Z</time></trkpt><trkpt lat="43.11252822777018" lon="11.336417344689167"><ele>256.5</ele><time>2026-04-06T16:03:44.998Z</time></trkpt><trkpt lat="43.11247414827594" lon="11.336273178120779"><ele>256.0</ele><time>2026-04-06T16:03:45.998Z</time></trkpt><trkpt lat="43.112418134307056" lon="11.336141004742938"><ele>255.5</ele><time>2026-04-06T16:03:46.998Z</time></trkpt><trkpt lat="43.11234605378413" lon="11.336020149166416"><ele>255.0</ele><time>2026-04-06T16:03:47.998Z</time></trkpt><trkpt lat="43.11224548637746" lon="11.335892109381975"><ele>255.0</ele><time>2026-04-06T16:03:48.998Z</time></trkpt><trkpt lat="43.112171611383545" lon="11.335798829147926"><ele>255.0</ele><time>2026-04-06T16:03:49.998Z</time></trkpt><trkpt lat="43.11210991285889" lon="11.33572062026492"><ele>255.0</ele><time>2026-04-06T16:03:50.998Z</time></trkpt><trkpt lat="43.112017694972906" lon="11.335593659355919"><ele>255.0</ele><time>2026-04-06T16:03:52Z</time></trkpt><trkpt lat="43.11195558151282" lon="11.335458599158624"><ele>255.0</ele><time>2026-04-06T16:03:53Z</time></trkpt><trkpt lat="43.111911401987484" lon="11.335334007700695"><ele>253.8</ele><time>2026-04-06T16:03:54Z</time></trkpt><trkpt lat="43.1118652865906" lon="11.33524035075492"><ele>252.6</ele><time>2026-04-06T16:03:55Z</time></trkpt><trkpt lat="43.11179362640783" lon="11.335145716262554"><ele>251.39999999999998</ele><time>2026-04-06T16:03:57Z</time></trkpt><trkpt lat="43.11168903722602" lon="11.335078802612257"><ele>250.2</ele><time>2026-04-06T16:03:59Z</time></trkpt><trkpt lat="43.11156739797664" lon="11.335047046060405"><ele>249.0</ele><time>2026-04-06T16:04:01Z</time></trkpt><trkpt lat="43.1114598374078" lon="11.3350656677222"><ele>249.0</ele><time>2026-04-06T16:04:03Z</time></trkpt><trkpt lat="43.111395631951034" lon="11.335107181542368"><ele>248.99999999999997</ele><time>2026-04-06T16:04:04Z</time></trkpt><trkpt lat="43.11133734682489" lon="11.335158915340786"><ele>248.99999999999997</ele><time>2026-04-06T16:04:05Z</time></trkpt><trkpt lat="43.11128131814857" lon="11.33524309656876"><ele>249.0</ele><time>2026-04-06T16:04:06Z</time></trkpt><trkpt lat="43.11113873698698" lon="11.335108440610897"><ele>249.0</ele><time>2026-04-06T16:04:07Z</time></trkpt><trkpt lat="43.111063965062414" lon="11.33509476971513"><ele>249.0</ele><time>2026-04-06T16:04:08Z</time></trkpt><trkpt lat="43.11099866507957" lon="11.335058378508114"><ele>248.99999999999997</ele><time>2026-04-06T16:04:09Z</time></trkpt><trkpt lat="43.11091904914236" lon="11.335025038976898"><ele>248.99999999999997</ele><time>2026-04-06T16:04:10Z</time></trkpt><trkpt lat="43.1108405560117" lon="11.335018964227451"><ele>249.0</ele><time>2026-04-06T16:04:11Z</time></trkpt><trkpt lat="43.110758163160746" lon="11.33489813475024"><ele>249.0</ele><time>2026-04-06T16:04:16Z</time></trkpt><trkpt lat="43.11066619913547" lon="11.334812172833848"><ele>247.33333333333334</ele><time>2026-04-06T16:04:17.999Z</time></trkpt><trkpt lat="43.110633590636105" lon="11.334735209073996"><ele>245.66666666666669</ele><time>2026-04-06T16:04:18.999Z</time></trkpt><trkpt lat="43.11057343337144" lon="11.334680618897268"><ele>244.0</ele><time>2026-04-06T16:04:19.999Z</time></trkpt><trkpt lat="43.110501699366374" lon="11.33460808800553"><ele>242.33333333333334</ele><time>2026-04-06T16:04:20.999Z</time></trkpt><trkpt lat="43.11043398531255" lon="11.33453837161308"><ele>240.66666666666669</ele><time>2026-04-06T16:04:21.999Z</time></trkpt><trkpt lat="43.110350424501355" lon="11.334388067658496"><ele>239.0</ele><time>2026-04-06T16:04:23.999Z</time></trkpt><trkpt lat="43.1103073494813" lon="11.334319108422486"><ele>239.00000000000003</ele><time>2026-04-06T16:04:24.999Z</time></trkpt><trkpt lat="43.110266035460356" lon="11.334246039903853"><ele>239.0</ele><time>2026-04-06T16:04:25.999Z</time></trkpt><trkpt lat="43.11022133706584" lon="11.33417514520266"><ele>239.00000000000003</ele><time>2026-04-06T16:04:26.999Z</time></trkpt><trkpt lat="43.1101758158984" lon="11.334099467429951"><ele>239.00000000000003</ele><time>2026-04-06T16:04:27.999Z</time></trkpt><trkpt lat="43.11012881641655" lon="11.334016589019473"><ele>239.0</ele><time>2026-04-06T16:04:28.999Z</time></trkpt><trkpt lat="43.11008068984237" lon="11.333944398627612"><ele>239.00000000000003</ele><time>2026-04-06T16:04:29.999Z</time></trkpt><trkpt lat="43.110037901231" lon="11.333867554609784"><ele>239.00000000000003</ele><time>2026-04-06T16:04:30.999Z</time></trkpt><trkpt lat="43.11000851327005" lon="11.333785005605618"><ele>239.33333333333334</ele><time>2026-04-06T16:04:31.999Z</time></trkpt><trkpt lat="43.109984534861795" lon="11.333702789522388"><ele>239.66666666666669</ele><time>2026-04-06T16:04:32.999Z</time></trkpt><trkpt lat="43.10994686410641" lon="11.333552407718281"><ele>240.0</ele><time>2026-04-06T16:04:34.999Z</time></trkpt><trkpt lat="43.10992358600633" lon="11.333471832595633"><ele>240.33333333333331</ele><time>2026-04-06T16:04:35.999Z</time></trkpt><trkpt lat="43.10989706554285" lon="11.333385484266834"><ele>240.66666666666666</ele><time>2026-04-06T16:04:36.999Z</time></trkpt><trkpt lat="43.109873547359314" lon="11.333284610883792"><ele>241.0</ele><time>2026-04-06T16:04:37.999Z</time></trkpt><trkpt lat="43.10984874491606" lon="11.333171420029252"><ele>240.99999999999997</ele><time>2026-04-06T16:04:38.999Z</time></trkpt><trkpt lat="43.1098126890828" lon="11.33305990634582"><ele>241.0</ele><time>2026-04-06T16:04:39.999Z</time></trkpt><trkpt lat="43.109785683953724" lon="11.332936555148345"><ele>241.0</ele><time>2026-04-06T16:04:40.999Z</time></trkpt><trkpt lat="43.10975818632486" lon="11.33282473212341"><ele>241.0</ele><time>2026-04-06T16:04:41.999Z</time></trkpt><trkpt lat="43.10973041678386" lon="11.332709501952671"><ele>240.99999999999997</ele><time>2026-04-06T16:04:42.999Z</time></trkpt><trkpt lat="43.109690979337955" lon="11.332601253321464"><ele>241.0</ele><time>2026-04-06T16:04:43.999Z</time></trkpt><trkpt lat="43.10963533008811" lon="11.332503099413783"><ele>240.60000000000002</ele><time>2026-04-06T16:04:44.999Z</time></trkpt><trkpt lat="43.1095848263784" lon="11.33239405830697"><ele>240.20000000000002</ele><time>2026-04-06T16:04:45.999Z</time></trkpt><trkpt lat="43.10951800813426" lon="11.332307407517288"><ele>239.79999999999998</ele><time>2026-04-06T16:04:46.999Z</time></trkpt><trkpt lat="43.10943597691582" lon="11.332225861724382"><ele>239.39999999999998</ele><time>2026-04-06T16:04:47.999Z</time></trkpt><trkpt lat="43.109337485221474" lon="11.332192472406538"><ele>239.0</ele><time>2026-04-06T16:04:48.999Z</time></trkpt><trkpt lat="43.10925031004226" lon="11.332127385537081"><ele>238.6</ele><time>2026-04-06T16:04:49.999Z</time></trkpt><trkpt lat="43.10915090971658" lon="11.332075381674283"><ele>238.2</ele><time>2026-04-06T16:04:50.999Z</time></trkpt><trkpt lat="43.10905110711538" lon="11.332022981560813"><ele>237.79999999999998</ele><time>2026-04-06T16:04:51.999Z</time></trkpt><trkpt lat="43.10894984819868" lon="11.33197006317487"><ele>237.39999999999998</ele><time>2026-04-06T16:04:52.999Z</time></trkpt><trkpt lat="43.108844717279226" lon="11.331918554450601"><ele>237.0</ele><time>2026-04-06T16:04:53.999Z</time></trkpt><trkpt lat="43.108731784539664" lon="11.331882276332966"><ele>234.0</ele><time>2026-04-06T16:04:54.999Z</time></trkpt><trkpt lat="43.10861820633746" lon="11.331859874342921"><ele>231.0</ele><time>2026-04-06T16:04:55.999Z</time></trkpt><trkpt lat="43.1085068147479" lon="11.331863376829265"><ele>228.0</ele><time>2026-04-06T16:04:56.999Z</time></trkpt><trkpt lat="43.10839644016802" lon="11.331837924326363"><ele>225.0</ele><time>2026-04-06T16:04:57.999Z</time></trkpt><trkpt lat="43.1082848450416" lon="11.331810447776252"><ele>222.75</ele><time>2026-04-06T16:04:58.999Z</time></trkpt><trkpt lat="43.10816033705919" lon="11.331779675211815"><ele>220.5</ele><time>2026-04-06T16:04:59.999Z</time></trkpt><trkpt lat="43.10803601972615" lon="11.331776642622641"><ele>218.25</ele><time>2026-04-06T16:05:00.999Z</time></trkpt><trkpt lat="43.10790127531605" lon="11.331735633187085"><ele>216.0</ele><time>2026-04-06T16:05:01.999Z</time></trkpt><trkpt lat="43.10778255757551" lon="11.331740536109454"><ele>216.0</ele><time>2026-04-06T16:05:02.999Z</time></trkpt><trkpt lat="43.10763634014453" lon="11.331717529711439"><ele>216.0</ele><time>2026-04-06T16:05:03.999Z</time></trkpt><trkpt lat="43.10749689572557" lon="11.331648153636692"><ele>216.0</ele><time>2026-04-06T16:05:04.999Z</time></trkpt><trkpt lat="43.10736962497889" lon="11.331592546436044"><ele>216.0</ele><time>2026-04-06T16:05:05.999Z</time></trkpt><trkpt lat="43.10726035192101" lon="11.33154361431439"><ele>215.4</ele><time>2026-04-06T16:05:06.999Z</time></trkpt><trkpt lat="43.10715477904648" lon="11.33149633895003"><ele>214.8</ele><time>2026-04-06T16:05:07.999Z</time></trkpt><trkpt lat="43.107059997457206" lon="11.331453895951196"><ele>214.20000000000002</ele><time>2026-04-06T16:05:08.999Z</time></trkpt><trkpt lat="43.1069642888624" lon="11.331411037908273"><ele>213.60000000000002</ele><time>2026-04-06T16:05:09.999Z</time></trkpt><trkpt lat="43.1068681298945" lon="11.331367978138761"><ele>213.0</ele><time>2026-04-06T16:05:10.999Z</time></trkpt><trkpt lat="43.10676503406876" lon="11.331322822129"><ele>213.0</ele><time>2026-04-06T16:05:11.998Z</time></trkpt><trkpt lat="43.10664797378255" lon="11.331290154391558"><ele>213.0</ele><time>2026-04-06T16:05:12.998Z</time></trkpt><trkpt lat="43.10652704191955" lon="11.331239345243477"><ele>213.0</ele><time>2026-04-06T16:05:13.998Z</time></trkpt><trkpt lat="43.10642268228014" lon="11.33117445181248"><ele>213.0</ele><time>2026-04-06T16:05:14.998Z</time></trkpt><trkpt lat="43.10630815364458" lon="11.331124543194752"><ele>212.0</ele><time>2026-04-06T16:05:15.998Z</time></trkpt><trkpt lat="43.10620600696215" lon="11.331077138404297"><ele>211.0</ele><time>2026-04-06T16:05:16.998Z</time></trkpt><trkpt lat="43.106086095939006" lon="11.331044789725608"><ele>210.0</ele><time>2026-04-06T16:05:17.998Z</time></trkpt><trkpt lat="43.10595069495952" lon="11.33102335511681"><ele>209.0</ele><time>2026-04-06T16:05:18.998Z</time></trkpt><trkpt lat="43.10581550947492" lon="11.330996682324775"><ele>207.0</ele><time>2026-04-06T16:05:19.998Z</time></trkpt><trkpt lat="43.10567117980872" lon="11.33095954514927"><ele>205.0</ele><time>2026-04-06T16:05:20.998Z</time></trkpt><trkpt lat="43.10552207973829" lon="11.330912548877038"><ele>203.0</ele><time>2026-04-06T16:05:21.998Z</time></trkpt><trkpt lat="43.1054055932502" lon="11.330839430444914"><ele>201.0</ele><time>2026-04-06T16:05:22.998Z</time></trkpt><trkpt lat="43.105295212652635" lon="11.330721750681686"><ele>201.0</ele><time>2026-04-06T16:05:23.998Z</time></trkpt><trkpt lat="43.10521399533686" lon="11.33057918509759"><ele>201.0</ele><time>2026-04-06T16:05:24.998Z</time></trkpt><trkpt lat="43.10512886388982" lon="11.330435744497628"><ele>201.0</ele><time>2026-04-06T16:05:25.998Z</time></trkpt><trkpt lat="43.105044309749424" lon="11.33029690587497"><ele>201.0</ele><time>2026-04-06T16:05:26.998Z</time></trkpt><trkpt lat="43.10494848586211" lon="11.330155707181715"><ele>200.33333333333331</ele><time>2026-04-06T16:05:27.998Z</time></trkpt><trkpt lat="43.10483750232707" lon="11.330009426896938"><ele>199.66666666666666</ele><time>2026-04-06T16:05:28.998Z</time></trkpt><trkpt lat="43.104745253224884" lon="11.329830249269838"><ele>199.0</ele><time>2026-04-06T16:05:29.998Z</time></trkpt><trkpt lat="43.104641475542365" lon="11.329666252410302"><ele>199.0</ele><time>2026-04-06T16:05:30.998Z</time></trkpt><trkpt lat="43.104531534249595" lon="11.329519660072396"><ele>199.0</ele><time>2026-04-06T16:05:31.998Z</time></trkpt><trkpt lat="43.10443524115125" lon="11.329363924952624"><ele>199.0</ele><time>2026-04-06T16:05:32.998Z</time></trkpt><trkpt lat="43.10433773879349" lon="11.329212624677146"><ele>199.0</ele><time>2026-04-06T16:05:33.998Z</time></trkpt><trkpt lat="43.10424965295491" lon="11.329067266196082"><ele>199.0</ele><time>2026-04-06T16:05:34.998Z</time></trkpt><trkpt lat="43.10417037722806" lon="11.328924858408032"><ele>199.0</ele><time>2026-04-06T16:05:35.998Z</time></trkpt><trkpt lat="43.10409999716126" lon="11.328810872149779"><ele>199.0</ele><time>2026-04-06T16:05:36.998Z</time></trkpt><trkpt lat="43.10400712254205" lon="11.328707065170892"><ele>197.5</ele><time>2026-04-06T16:05:37.998Z</time></trkpt><trkpt lat="43.103907535237965" lon="11.32861653219804"><ele>196.0</ele><time>2026-04-06T16:05:38.998Z</time></trkpt><trkpt lat="43.103819664446995" lon="11.328500472565754"><ele>194.5</ele><time>2026-04-06T16:05:39.998Z</time></trkpt><trkpt lat="43.10373062616254" lon="11.328414277063048"><ele>193.0</ele><time>2026-04-06T16:05:40.998Z</time></trkpt><trkpt lat="43.1036272685527" lon="11.328338236183013"><ele>193.0</ele><time>2026-04-06T16:05:41.998Z</time></trkpt><trkpt lat="43.10354614464529" lon="11.328242054766722"><ele>193.0</ele><time>2026-04-06T16:05:42.998Z</time></trkpt><trkpt lat="43.1034508678298" lon="11.328148039814582"><ele>193.0</ele><time>2026-04-06T16:05:43.998Z</time></trkpt><trkpt lat="43.10334745911066" lon="11.328060007397488"><ele>193.0</ele><time>2026-04-06T16:05:44.998Z</time></trkpt><trkpt lat="43.103249456336584" lon="11.327948471076903"><ele>190.25</ele><time>2026-04-06T16:05:45.998Z</time></trkpt><trkpt lat="43.10315252914404" lon="11.32785463883355"><ele>187.5</ele><time>2026-04-06T16:05:46.998Z</time></trkpt><trkpt lat="43.103049428513266" lon="11.327775955610656"><ele>184.75</ele><time>2026-04-06T16:05:47.998Z</time></trkpt><trkpt lat="43.10294098804944" lon="11.327669506725949"><ele>182.0</ele><time>2026-04-06T16:05:48.998Z</time></trkpt><trkpt lat="43.10283712410666" lon="11.327573978834629"><ele>182.0</ele><time>2026-04-06T16:05:49.998Z</time></trkpt><trkpt lat="43.102739269378894" lon="11.327476421582372"><ele>182.0</ele><time>2026-04-06T16:05:50.998Z</time></trkpt><trkpt lat="43.1026428846685" lon="11.327377858218435"><ele>182.0</ele><time>2026-04-06T16:05:51.998Z</time></trkpt><trkpt lat="43.10254508081967" lon="11.32727772532079"><ele>182.0</ele><time>2026-04-06T16:05:52.998Z</time></trkpt><trkpt lat="43.10244062318316" lon="11.327181882026606"><ele>180.0</ele><time>2026-04-06T16:05:53.998Z</time></trkpt><trkpt lat="43.10233049765627" lon="11.327086737842253"><ele>178.0</ele><time>2026-04-06T16:05:54.998Z</time></trkpt><trkpt lat="43.10223248855419" lon="11.326984475494665"><ele>176.0</ele><time>2026-04-06T16:05:55.998Z</time></trkpt><trkpt lat="43.10212861196482" lon="11.326877187626135"><ele>174.0</ele><time>2026-04-06T16:05:56.998Z</time></trkpt><trkpt lat="43.10202242325605" lon="11.326763939215542"><ele>174.0</ele><time>2026-04-06T16:05:58Z</time></trkpt><trkpt lat="43.10191077168255" lon="11.326646134956825"><ele>174.0</ele><time>2026-04-06T16:05:59Z</time></trkpt><trkpt lat="43.10179457150165" lon="11.326537932226648"><ele>174.0</ele><time>2026-04-06T16:06:00Z</time></trkpt><trkpt lat="43.10167664597656" lon="11.32642757530086"><ele>174.0</ele><time>2026-04-06T16:06:01Z</time></trkpt><trkpt lat="43.10155358566535" lon="11.326313574527635"><ele>170.0</ele><time>2026-04-06T16:06:02Z</time></trkpt><trkpt lat="43.10143518716522" lon="11.326181512890571"><ele>166.0</ele><time>2026-04-06T16:06:03Z</time></trkpt><trkpt lat="43.10130531629439" lon="11.326054625503366"><ele>162.0</ele><time>2026-04-06T16:06:04Z</time></trkpt><trkpt lat="43.10117421230147" lon="11.325928805081412"><ele>162.0</ele><time>2026-04-06T16:06:05Z</time></trkpt><trkpt lat="43.10105285858624" lon="11.325812099227964"><ele>162.0</ele><time>2026-04-06T16:06:06Z</time></trkpt><trkpt lat="43.10093857073183" lon="11.32569655279415"><ele>162.0</ele><time>2026-04-06T16:06:07Z</time></trkpt><trkpt lat="43.10083053862188" lon="11.32558693799561"><ele>162.0</ele><time>2026-04-06T16:06:08Z</time></trkpt><trkpt lat="43.100717922650375" lon="11.325483793251243"><ele>158.75</ele><time>2026-04-06T16:06:09Z</time></trkpt><trkpt lat="43.100606941441846" lon="11.325386175440581"><ele>155.5</ele><time>2026-04-06T16:06:10Z</time></trkpt><trkpt lat="43.100515219637806" lon="11.325282525506541"><ele>152.25</ele><time>2026-04-06T16:06:11Z</time></trkpt><trkpt lat="43.100430898221525" lon="11.325186912582339"><ele>149.0</ele><time>2026-04-06T16:06:12Z</time></trkpt><trkpt lat="43.100347206546296" lon="11.325118861882615"><ele>149.0</ele><time>2026-04-06T16:06:13Z</time></trkpt><trkpt lat="43.100246637842766" lon="11.325086048911112"><ele>149.0</ele><time>2026-04-06T16:06:14Z</time></trkpt><trkpt lat="43.10015840478122" lon="11.325061048124786"><ele>149.0</ele><time>2026-04-06T16:06:15Z</time></trkpt><trkpt lat="43.10007499892274" lon="11.325115521453505"><ele>149.0</ele><time>2026-04-06T16:06:16Z</time></trkpt><trkpt lat="43.09999935552085" lon="11.325208240643443"><ele>149.0</ele><time>2026-04-06T16:06:17Z</time></trkpt><trkpt lat="43.099922390160124" lon="11.32529058694094"><ele>146.0</ele><time>2026-04-06T16:06:18Z</time></trkpt><trkpt lat="43.099846458741865" lon="11.325388179944595"><ele>143.0</ele><time>2026-04-06T16:06:19Z</time></trkpt><trkpt lat="43.09976614174002" lon="11.325495671872108"><ele>140.0</ele><time>2026-04-06T16:06:20Z</time></trkpt><trkpt lat="43.09968987925736" lon="11.325600555540083"><ele>137.0</ele><time>2026-04-06T16:06:21Z</time></trkpt><trkpt lat="43.099620433645555" lon="11.325701415519333"><ele>134.0</ele><time>2026-04-06T16:06:22Z</time></trkpt><trkpt lat="43.099547002321586" lon="11.325811219348514"><ele>134.0</ele><time>2026-04-06T16:06:23Z</time></trkpt><trkpt lat="43.099465667361535" lon="11.325926601058068"><ele>134.0</ele><time>2026-04-06T16:06:23.999Z</time></trkpt><trkpt lat="43.099363105820615" lon="11.326039996242221"><ele>134.0</ele><time>2026-04-06T16:06:24.999Z</time></trkpt><trkpt lat="43.099262996005514" lon="11.326110288449637"><ele>134.0</ele><time>2026-04-06T16:06:25.999Z</time></trkpt><trkpt lat="43.09916427356255" lon="11.326174380957461"><ele>132.5</ele><time>2026-04-06T16:06:26.999Z</time></trkpt><trkpt lat="43.099068032919156" lon="11.326224253187767"><ele>131.0</ele><time>2026-04-06T16:06:27.999Z</time></trkpt><trkpt lat="43.098962597444576" lon="11.326271187996822"><ele>129.5</ele><time>2026-04-06T16:06:28.999Z</time></trkpt><trkpt lat="43.0988089147512" lon="11.3262895178997"><ele>128.0</ele><time>2026-04-06T16:06:29.999Z</time></trkpt><trkpt lat="43.09867070828494" lon="11.326348490772421"><ele>128.0</ele><time>2026-04-06T16:06:30.999Z</time></trkpt><trkpt lat="43.09852952516384" lon="11.326414148104273"><ele>128.0</ele><time>2026-04-06T16:06:31.999Z</time></trkpt><trkpt lat="43.09838464663592" lon="11.326468301709532"><ele>128.0</ele><time>2026-04-06T16:06:32.999Z</time></trkpt><trkpt lat="43.09823594609388" lon="11.326523883727123"><ele>126.66666666666666</ele><time>2026-04-06T16:06:33.999Z</time></trkpt><trkpt lat="43.09808659329771" lon="11.32657945512781"><ele>125.33333333333334</ele><time>2026-04-06T16:06:34.999Z</time></trkpt><trkpt lat="43.09794081421759" lon="11.326633689049402"><ele>124.0</ele><time>2026-04-06T16:06:35.999Z</time></trkpt><trkpt lat="43.09779875400028" lon="11.326686539500791"><ele>124.0</ele><time>2026-04-06T16:06:36.999Z</time></trkpt><trkpt lat="43.097660543613046" lon="11.326740272078233"><ele>124.0</ele><time>2026-04-06T16:06:37.999Z</time></trkpt><trkpt lat="43.09753064912408" lon="11.326791701762541"><ele>124.0</ele><time>2026-04-06T16:06:38.999Z</time></trkpt><trkpt lat="43.097410363144434" lon="11.326838609655907"><ele>124.0</ele><time>2026-04-06T16:06:39.999Z</time></trkpt><trkpt lat="43.09729520914785" lon="11.32688272132814"><ele>125.0</ele><time>2026-04-06T16:06:40.999Z</time></trkpt><trkpt lat="43.09718674242192" lon="11.32692398880362"><ele>126.0</ele><time>2026-04-06T16:06:41.999Z</time></trkpt><trkpt lat="43.09708279744017" lon="11.326963801496763"><ele>127.0</ele><time>2026-04-06T16:06:42.999Z</time></trkpt><trkpt lat="43.09699482932185" lon="11.3269980499419"><ele>128.0</ele><time>2026-04-06T16:06:43.999Z</time></trkpt><trkpt lat="43.09690906603537" lon="11.327033238662365"><ele>129.0</ele><time>2026-04-06T16:06:44.999Z</time></trkpt><trkpt lat="43.09682599016264" lon="11.327068473974338"><ele>129.0</ele><time>2026-04-06T16:06:45.999Z</time></trkpt><trkpt lat="43.09673941249999" lon="11.327114347152985"><ele>129.0</ele><time>2026-04-06T16:06:46.999Z</time></trkpt><trkpt lat="43.09664265170131" lon="11.327150990338207"><ele>129.0</ele><time>2026-04-06T16:06:47.999Z</time></trkpt><trkpt lat="43.096537884359314" lon="11.3271946446344"><ele>129.0</ele><time>2026-04-06T16:06:48.999Z</time></trkpt><trkpt lat="43.09643225459091" lon="11.32723303089135"><ele>129.0</ele><time>2026-04-06T16:06:49.999Z</time></trkpt><trkpt lat="43.09632458697992" lon="11.327261747437888"><ele>129.0</ele><time>2026-04-06T16:06:50.999Z</time></trkpt><trkpt lat="43.09621181194494" lon="11.327253573979196"><ele>129.0</ele><time>2026-04-06T16:06:51.999Z</time></trkpt><trkpt lat="43.09611037872829" lon="11.327255775378223"><ele>129.0</ele><time>2026-04-06T16:06:52.999Z</time></trkpt><trkpt lat="43.09601676826326" lon="11.327248045036637"><ele>129.0</ele><time>2026-04-06T16:06:53.999Z</time></trkpt><trkpt lat="43.09592975539984" lon="11.327223614218422"><ele>129.0</ele><time>2026-04-06T16:06:54.999Z</time></trkpt><trkpt lat="43.095842205060016" lon="11.327176423795287"><ele>129.2</ele><time>2026-04-06T16:06:55.999Z</time></trkpt><trkpt lat="43.09576162103357" lon="11.327103814195558"><ele>129.4</ele><time>2026-04-06T16:06:56.999Z</time></trkpt><trkpt lat="43.095697101505685" lon="11.327006728091398"><ele>129.6</ele><time>2026-04-06T16:06:57.999Z</time></trkpt><trkpt lat="43.09563340479645" lon="11.326891193909157"><ele>129.8</ele><time>2026-04-06T16:06:58.999Z</time></trkpt><trkpt lat="43.09557823959497" lon="11.326762456317192"><ele>130.0</ele><time>2026-04-06T16:06:59.999Z</time></trkpt><trkpt lat="43.095521625504425" lon="11.326621663108616"><ele>132.0</ele><time>2026-04-06T16:07:00.999Z</time></trkpt><trkpt lat="43.095452986645235" lon="11.326488126835322"><ele>134.0</ele><time>2026-04-06T16:07:01.999Z</time></trkpt><trkpt lat="43.09540062750103" lon="11.326351150799368"><ele>136.0</ele><time>2026-04-06T16:07:02.999Z</time></trkpt><trkpt lat="43.09534828244433" lon="11.326215950815676"><ele>138.0</ele><time>2026-04-06T16:07:03.999Z</time></trkpt><trkpt lat="43.095299648976386" lon="11.326094768739194"><ele>140.0</ele><time>2026-04-06T16:07:04.999Z</time></trkpt><trkpt lat="43.09524107300048" lon="11.32598891484977"><ele>140.8</ele><time>2026-04-06T16:07:05.999Z</time></trkpt><trkpt lat="43.095185444354904" lon="11.32587179979923"><ele>141.6</ele><time>2026-04-06T16:07:06.999Z</time></trkpt><trkpt lat="43.09512725110942" lon="11.325764749251144"><ele>142.4</ele><time>2026-04-06T16:07:07.999Z</time></trkpt><trkpt lat="43.095062383867045" lon="11.325672994919406"><ele>143.2</ele><time>2026-04-06T16:07:08.999Z</time></trkpt><trkpt lat="43.09500147824169" lon="11.325585347681933"><ele>144.0</ele><time>2026-04-06T16:07:09.999Z</time></trkpt><trkpt lat="43.094944390326816" lon="11.325498721519246"><ele>144.8</ele><time>2026-04-06T16:07:10.999Z</time></trkpt><trkpt lat="43.094871180674104" lon="11.325399160930266"><ele>145.60000000000002</ele><time>2026-04-06T16:07:11.999Z</time></trkpt><trkpt lat="43.09481344922162" lon="11.325285775639546"><ele>146.4</ele><time>2026-04-06T16:07:12.999Z</time></trkpt><trkpt lat="43.094759156440276" lon="11.325173234506915"><ele>147.20000000000002</ele><time>2026-04-06T16:07:13.999Z</time></trkpt><trkpt lat="43.09470928133086" lon="11.325010435853654"><ele>148.0</ele><time>2026-04-06T16:07:14.999Z</time></trkpt><trkpt lat="43.094677579572476" lon="11.324854152421226"><ele>149.75</ele><time>2026-04-06T16:07:15.999Z</time></trkpt><trkpt lat="43.09464227050742" lon="11.324687999248578"><ele>151.5</ele><time>2026-04-06T16:07:16.999Z</time></trkpt><trkpt lat="43.09460407130291" lon="11.324524790587501"><ele>153.25</ele><time>2026-04-06T16:07:17.999Z</time></trkpt><trkpt lat="43.094567128382835" lon="11.324360072877548"><ele>155.0</ele><time>2026-04-06T16:07:18.998Z</time></trkpt><trkpt lat="43.09452660862683" lon="11.32419419689985"><ele>155.0</ele><time>2026-04-06T16:07:19.998Z</time></trkpt><trkpt lat="43.094488663130996" lon="11.324030873179368"><ele>155.0</ele><time>2026-04-06T16:07:20.998Z</time></trkpt><trkpt lat="43.09445022916786" lon="11.32387094014013"><ele>155.0</ele><time>2026-04-06T16:07:21.998Z</time></trkpt><trkpt lat="43.09441477179172" lon="11.32371022638133"><ele>155.0</ele><time>2026-04-06T16:07:22.998Z</time></trkpt><trkpt lat="43.09438170622741" lon="11.323549831137113"><ele>157.25</ele><time>2026-04-06T16:07:23.998Z</time></trkpt><trkpt lat="43.09434682871385" lon="11.323395018289316"><ele>159.5</ele><time>2026-04-06T16:07:24.998Z</time></trkpt><trkpt lat="43.094317111181915" lon="11.323245880993682"><ele>161.75</ele><time>2026-04-06T16:07:25.998Z</time></trkpt><trkpt lat="43.09428632348028" lon="11.32309836600337"><ele>164.0</ele><time>2026-04-06T16:07:26.998Z</time></trkpt><trkpt lat="43.0942559714886" lon="11.322946459558285"><ele>166.0</ele><time>2026-04-06T16:07:27.998Z</time></trkpt><trkpt lat="43.09422617993203" lon="11.322795278960887"><ele>168.0</ele><time>2026-04-06T16:07:28.998Z</time></trkpt><trkpt lat="43.09419466979396" lon="11.322648674317442"><ele>170.0</ele><time>2026-04-06T16:07:29.998Z</time></trkpt><trkpt lat="43.0941643101604" lon="11.32251767468138"><ele>172.0</ele><time>2026-04-06T16:07:30.998Z</time></trkpt><trkpt lat="43.09414147463715" lon="11.322373618255028"><ele>174.0</ele><time>2026-04-06T16:07:31.998Z</time></trkpt><trkpt lat="43.0941221583545" lon="11.322239337054864"><ele>176.0</ele><time>2026-04-06T16:07:32.998Z</time></trkpt><trkpt lat="43.09411064770164" lon="11.322098236362756"><ele>178.0</ele><time>2026-04-06T16:07:33.998Z</time></trkpt><trkpt lat="43.09411979903284" lon="11.321957013004342"><ele>180.0</ele><time>2026-04-06T16:07:34.998Z</time></trkpt><trkpt lat="43.094147951273285" lon="11.321818261933212"><ele>182.0</ele><time>2026-04-06T16:07:35.998Z</time></trkpt><trkpt lat="43.09417594286134" lon="11.321678636672305"><ele>184.0</ele><time>2026-04-06T16:07:36.998Z</time></trkpt><trkpt lat="43.094196452047534" lon="11.32153517784058"><ele>187.0</ele><time>2026-04-06T16:07:37.998Z</time></trkpt><trkpt lat="43.094211429282765" lon="11.321390414313486"><ele>190.0</ele><time>2026-04-06T16:07:38.998Z</time></trkpt><trkpt lat="43.09422449426537" lon="11.32124443791303"><ele>193.0</ele><time>2026-04-06T16:07:39.998Z</time></trkpt><trkpt lat="43.09422097795447" lon="11.321099768771568"><ele>196.0</ele><time>2026-04-06T16:07:40.998Z</time></trkpt><trkpt lat="43.09419278942974" lon="11.320957612476143"><ele>199.0</ele><time>2026-04-06T16:07:41.998Z</time></trkpt><trkpt lat="43.094151741673606" lon="11.32081902349235"><ele>199.0</ele><time>2026-04-06T16:07:42.998Z</time></trkpt><trkpt lat="43.094108977899616" lon="11.320686204847501"><ele>199.0</ele><time>2026-04-06T16:07:43.998Z</time></trkpt><trkpt lat="43.09406514427128" lon="11.320547194648045"><ele>199.0</ele><time>2026-04-06T16:07:44.998Z</time></trkpt><trkpt lat="43.094020452528305" lon="11.320410778741612"><ele>199.0</ele><time>2026-04-06T16:07:45.998Z</time></trkpt><trkpt lat="43.09397950260989" lon="11.320272858019154"><ele>199.0</ele><time>2026-04-06T16:07:46.998Z</time></trkpt><trkpt lat="43.0939385254513" lon="11.320124790635903"><ele>200.6</ele><time>2026-04-06T16:07:47.998Z</time></trkpt><trkpt lat="43.093892007539" lon="11.319985078264954"><ele>202.2</ele><time>2026-04-06T16:07:48.998Z</time></trkpt><trkpt lat="43.09382886485636" lon="11.319857352964311"><ele>203.79999999999998</ele><time>2026-04-06T16:07:49.998Z</time></trkpt><trkpt lat="43.093765670663885" lon="11.319746238832252"><ele>205.39999999999998</ele><time>2026-04-06T16:07:50.998Z</time></trkpt><trkpt lat="43.09367708183706" lon="11.319643840595502"><ele>207.0</ele><time>2026-04-06T16:07:51.998Z</time></trkpt><trkpt lat="43.093574023248195" lon="11.319571516947983"><ele>210.8</ele><time>2026-04-06T16:07:52.998Z</time></trkpt><trkpt lat="43.093469865271636" lon="11.31951120961075"><ele>214.6</ele><time>2026-04-06T16:07:53.998Z</time></trkpt><trkpt lat="43.093367343492964" lon="11.319457110400974"><ele>218.40000000000003</ele><time>2026-04-06T16:07:54.998Z</time></trkpt><trkpt lat="43.09326562801308" lon="11.319407939480811"><ele>222.20000000000002</ele><time>2026-04-06T16:07:55.998Z</time></trkpt><trkpt lat="43.09316354911131" lon="11.319381007153618"><ele>226.0</ele><time>2026-04-06T16:07:56.998Z</time></trkpt><trkpt lat="43.09307344106098" lon="11.319334954205562"><ele>225.99999999999997</ele><time>2026-04-06T16:07:57.998Z</time></trkpt><trkpt lat="43.092987157776896" lon="11.319292676529901"><ele>226.0</ele><time>2026-04-06T16:07:58.998Z</time></trkpt><trkpt lat="43.09289763449473" lon="11.319248313331183"><ele>226.0</ele><time>2026-04-06T16:07:59.998Z</time></trkpt><trkpt lat="43.092811222901105" lon="11.319208645861952"><ele>226.0</ele><time>2026-04-06T16:08:00.998Z</time></trkpt><trkpt lat="43.09272751334023" lon="11.319172074210273"><ele>225.99999999999997</ele><time>2026-04-06T16:08:01.998Z</time></trkpt><trkpt lat="43.09265865516929" lon="11.319136946210152"><ele>226.0</ele><time>2026-04-06T16:08:03Z</time></trkpt><trkpt lat="43.09259220139421" lon="11.3191064158212"><ele>226.0</ele><time>2026-04-06T16:08:04Z</time></trkpt><trkpt lat="43.09252469945755" lon="11.319079316290345"><ele>226.00000000000003</ele><time>2026-04-06T16:08:05Z</time></trkpt><trkpt lat="43.092417246550006" lon="11.319035000152185"><ele>226.00000000000003</ele><time>2026-04-06T16:08:06Z</time></trkpt><trkpt lat="43.09231454851647" lon="11.318988467918931"><ele>226.0</ele><time>2026-04-06T16:08:07Z</time></trkpt><trkpt lat="43.09218017346691" lon="11.318917252196762"><ele>226.0</ele><time>2026-04-06T16:08:08Z</time></trkpt><trkpt lat="43.09209115861681" lon="11.318832401723657"><ele>225.60000000000002</ele><time>2026-04-06T16:08:09Z</time></trkpt><trkpt lat="43.0920046948224" lon="11.318732651738468"><ele>225.20000000000002</ele><time>2026-04-06T16:08:10Z</time></trkpt><trkpt lat="43.09192947407541" lon="11.31861750577189"><ele>224.79999999999998</ele><time>2026-04-06T16:08:11Z</time></trkpt><trkpt lat="43.09185870857844" lon="11.318501549621965"><ele>224.39999999999998</ele><time>2026-04-06T16:08:12Z</time></trkpt><trkpt lat="43.09179394468385" lon="11.318379509953127"><ele>224.0</ele><time>2026-04-06T16:08:13Z</time></trkpt><trkpt lat="43.09172170599472" lon="11.318259391859025"><ele>224.0</ele><time>2026-04-06T16:08:14Z</time></trkpt><trkpt lat="43.09164877631735" lon="11.318145995637177"><ele>223.99999999999997</ele><time>2026-04-06T16:08:15Z</time></trkpt><trkpt lat="43.09157624267362" lon="11.31803754041358"><ele>223.99999999999997</ele><time>2026-04-06T16:08:16Z</time></trkpt><trkpt lat="43.09151878760304" lon="11.31793242618242"><ele>224.0</ele><time>2026-04-06T16:08:17Z</time></trkpt><trkpt lat="43.09146112217896" lon="11.31781847154634"><ele>224.0</ele><time>2026-04-06T16:08:18Z</time></trkpt><trkpt lat="43.09141380846596" lon="11.317697138285073"><ele>223.2</ele><time>2026-04-06T16:08:19Z</time></trkpt><trkpt lat="43.09137295547705" lon="11.317573675156563"><ele>222.39999999999998</ele><time>2026-04-06T16:08:20Z</time></trkpt><trkpt lat="43.091346693941695" lon="11.317437895516207"><ele>221.6</ele><time>2026-04-06T16:08:21Z</time></trkpt><trkpt lat="43.091344417514435" lon="11.317295040552942"><ele>220.8</ele><time>2026-04-06T16:08:22Z</time></trkpt><trkpt lat="43.09134604386337" lon="11.317145913604342"><ele>220.0</ele><time>2026-04-06T16:08:23Z</time></trkpt><trkpt lat="43.09137253675194" lon="11.317011552031236"><ele>219.5</ele><time>2026-04-06T16:08:24Z</time></trkpt><trkpt lat="43.091418318776434" lon="11.316862095094598"><ele>219.0</ele><time>2026-04-06T16:08:25Z</time></trkpt><trkpt lat="43.091481564252355" lon="11.31672321319366"><ele>218.5</ele><time>2026-04-06T16:08:26Z</time></trkpt><trkpt lat="43.09155449319057" lon="11.316589395323632"><ele>218.0</ele><time>2026-04-06T16:08:27Z</time></trkpt><trkpt lat="43.09162418124895" lon="11.31643648773563"><ele>215.75</ele><time>2026-04-06T16:08:28Z</time></trkpt><trkpt lat="43.09168074853004" lon="11.316278769706182"><ele>213.5</ele><time>2026-04-06T16:08:29Z</time></trkpt><trkpt lat="43.091724797655786" lon="11.316123551813282"><ele>211.25</ele><time>2026-04-06T16:08:30Z</time></trkpt><trkpt lat="43.091759517439705" lon="11.315961821560608"><ele>209.0</ele><time>2026-04-06T16:08:31Z</time></trkpt><trkpt lat="43.091796797708206" lon="11.315798966244026"><ele>209.0</ele><time>2026-04-06T16:08:31.999Z</time></trkpt><trkpt lat="43.09182054851094" lon="11.315626236581815"><ele>209.0</ele><time>2026-04-06T16:08:32.999Z</time></trkpt><trkpt lat="43.09183976603136" lon="11.315459928436871"><ele>209.0</ele><time>2026-04-06T16:08:33.999Z</time></trkpt><trkpt lat="43.09186439055987" lon="11.315286059051418"><ele>209.0</ele><time>2026-04-06T16:08:34.999Z</time></trkpt><trkpt lat="43.091885589390166" lon="11.315105019788856"><ele>208.25</ele><time>2026-04-06T16:08:35.999Z</time></trkpt><trkpt lat="43.09189723474747" lon="11.314925193678379"><ele>207.5</ele><time>2026-04-06T16:08:36.999Z</time></trkpt><trkpt lat="43.09191284197758" lon="11.31474516954375"><ele>206.75</ele><time>2026-04-06T16:08:37.999Z</time></trkpt><trkpt lat="43.09192700441713" lon="11.314564949362662"><ele>206.0</ele><time>2026-04-06T16:08:38.999Z</time></trkpt><trkpt lat="43.091937610693826" lon="11.3143865209332"><ele>206.0</ele><time>2026-04-06T16:08:39.999Z</time></trkpt><trkpt lat="43.091953528583275" lon="11.314218743523561"><ele>206.0</ele><time>2026-04-06T16:08:40.999Z</time></trkpt><trkpt lat="43.09197372323817" lon="11.314048061443199"><ele>206.0</ele><time>2026-04-06T16:08:41.999Z</time></trkpt><trkpt lat="43.09199313190371" lon="11.313881465328517"><ele>206.0</ele><time>2026-04-06T16:08:42.999Z</time></trkpt><trkpt lat="43.09200959613247" lon="11.313717895649928"><ele>206.5</ele><time>2026-04-06T16:08:43.999Z</time></trkpt><trkpt lat="43.092028022625826" lon="11.313552366788898"><ele>207.0</ele><time>2026-04-06T16:08:44.999Z</time></trkpt><trkpt lat="43.09205283173418" lon="11.313382708780404"><ele>207.5</ele><time>2026-04-06T16:08:45.999Z</time></trkpt><trkpt lat="43.09207945732536" lon="11.3132119489047"><ele>208.0</ele><time>2026-04-06T16:08:46.999Z</time></trkpt><trkpt lat="43.09209780409438" lon="11.313039127964391"><ele>208.25</ele><time>2026-04-06T16:08:47.999Z</time></trkpt><trkpt lat="43.09211442591512" lon="11.312859328990655"><ele>208.5</ele><time>2026-04-06T16:08:48.999Z</time></trkpt><trkpt lat="43.09213453507972" lon="11.312677337063544"><ele>208.75</ele><time>2026-04-06T16:08:49.999Z</time></trkpt><trkpt lat="43.09214781246614" lon="11.312492311600268"><ele>209.0</ele><time>2026-04-06T16:08:50.999Z</time></trkpt><trkpt lat="43.0921403170207" lon="11.312311984093187"><ele>209.0</ele><time>2026-04-06T16:08:51.999Z</time></trkpt><trkpt lat="43.09212845931317" lon="11.312121774708416"><ele>209.0</ele><time>2026-04-06T16:08:52.999Z</time></trkpt><trkpt lat="43.09211170013866" lon="11.31193285580816"><ele>209.0</ele><time>2026-04-06T16:08:53.999Z</time></trkpt><trkpt lat="43.09208853516879" lon="11.311743764854462"><ele>209.0</ele><time>2026-04-06T16:08:54.999Z</time></trkpt><trkpt lat="43.092059636255826" lon="11.311551852346694"><ele>209.5</ele><time>2026-04-06T16:08:55.999Z</time></trkpt><trkpt lat="43.0920035932776" lon="11.311369602485906"><ele>210.0</ele><time>2026-04-06T16:08:56.999Z</time></trkpt><trkpt lat="43.09196515035529" lon="11.311186359552"><ele>210.5</ele><time>2026-04-06T16:08:57.999Z</time></trkpt><trkpt lat="43.091930590921386" lon="11.31100157792133"><ele>211.0</ele><time>2026-04-06T16:08:58.999Z</time></trkpt><trkpt lat="43.091914703576286" lon="11.310808127867855"><ele>211.0</ele><time>2026-04-06T16:08:59.999Z</time></trkpt><trkpt lat="43.091912679386176" lon="11.310632562953638"><ele>211.0</ele><time>2026-04-06T16:09:00.999Z</time></trkpt><trkpt lat="43.091910595162354" lon="11.310465900100931"><ele>211.0</ele><time>2026-04-06T16:09:01.999Z</time></trkpt><trkpt lat="43.09191170709723" lon="11.31029421857543"><ele>211.0</ele><time>2026-04-06T16:09:02.999Z</time></trkpt><trkpt lat="43.09190940646359" lon="11.310121534373318"><ele>211.4</ele><time>2026-04-06T16:09:03.999Z</time></trkpt><trkpt lat="43.09190624750931" lon="11.309953389419803"><ele>211.8</ele><time>2026-04-06T16:09:04.999Z</time></trkpt><trkpt lat="43.091903621921475" lon="11.309787033580761"><ele>212.20000000000002</ele><time>2026-04-06T16:09:05.999Z</time></trkpt><trkpt lat="43.09190103772206" lon="11.309646949430313"><ele>212.60000000000002</ele><time>2026-04-06T16:09:06.999Z</time></trkpt><trkpt lat="43.09189927294287" lon="11.309527203607967"><ele>213.0</ele><time>2026-04-06T16:09:07.999Z</time></trkpt><trkpt lat="43.0919056309212" lon="11.309426114825914"><ele>213.16666666666666</ele><time>2026-04-06T16:09:08.999Z</time></trkpt><trkpt lat="43.09192392260823" lon="11.3093182688228"><ele>213.33333333333331</ele><time>2026-04-06T16:09:09.999Z</time></trkpt><trkpt lat="43.09196075777549" lon="11.309221282026549"><ele>213.5</ele><time>2026-04-06T16:09:10.999Z</time></trkpt><trkpt lat="43.0920215228601" lon="11.309136598972849"><ele>213.66666666666666</ele><time>2026-04-06T16:09:11.999Z</time></trkpt><trkpt lat="43.092087148983" lon="11.309055026878148"><ele>213.83333333333331</ele><time>2026-04-06T16:09:12.999Z</time></trkpt><trkpt lat="43.09215856910935" lon="11.30896794549565"><ele>214.0</ele><time>2026-04-06T16:09:13.999Z</time></trkpt><trkpt lat="43.092229325023006" lon="11.308879995990875"><ele>213.39999999999998</ele><time>2026-04-06T16:09:14.999Z</time></trkpt><trkpt lat="43.09228870303004" lon="11.308766393976942"><ele>212.79999999999998</ele><time>2026-04-06T16:09:15.999Z</time></trkpt><trkpt lat="43.09231329973426" lon="11.308636934793489"><ele>212.2</ele><time>2026-04-06T16:09:16.999Z</time></trkpt><trkpt lat="43.09231159350526" lon="11.308502125036815"><ele>211.60000000000002</ele><time>2026-04-06T16:09:17.999Z</time></trkpt><trkpt lat="43.09230284963327" lon="11.308382695494489"><ele>211.0</ele><time>2026-04-06T16:09:18.999Z</time></trkpt><trkpt lat="43.09230158151729" lon="11.30828203685702"><ele>211.0</ele><time>2026-04-06T16:09:19.999Z</time></trkpt><trkpt lat="43.09229933275338" lon="11.308190228796516"><ele>211.0</ele><time>2026-04-06T16:09:20.999Z</time></trkpt><trkpt lat="43.092303085898536" lon="11.308031597767728"><ele>211.0</ele><time>2026-04-06T16:09:22.999Z</time></trkpt><trkpt lat="43.092300061074134" lon="11.307904255721084"><ele>211.0</ele><time>2026-04-06T16:09:24.999Z</time></trkpt><trkpt lat="43.092294056232745" lon="11.30777255851194"><ele>211.0</ele><time>2026-04-06T16:09:26.998Z</time></trkpt><trkpt lat="43.09224699494798" lon="11.307684056232034"><ele>212.33333333333331</ele><time>2026-04-06T16:09:28.998Z</time></trkpt><trkpt lat="43.092246939573535" lon="11.307586077657238"><ele>213.66666666666666</ele><time>2026-04-06T16:09:31.998Z</time></trkpt><trkpt lat="43.09223326535186" lon="11.30746453413249"><ele>215.0</ele><time>2026-04-06T16:09:36.998Z</time></trkpt><trkpt lat="43.09214222340144" lon="11.307445985775898"><ele>216.33333333333331</ele><time>2026-04-06T16:09:37.998Z</time></trkpt><trkpt lat="43.092037755286704" lon="11.307380208319612"><ele>217.66666666666666</ele><time>2026-04-06T16:09:39.998Z</time></trkpt><trkpt lat="43.091993950856285" lon="11.307315533618771"><ele>219.0</ele><time>2026-04-06T16:09:40.998Z</time></trkpt><trkpt lat="43.0919493319041" lon="11.307236338185445"><ele>219.83333333333334</ele><time>2026-04-06T16:09:41.998Z</time></trkpt><trkpt lat="43.09190048261487" lon="11.30714060488246"><ele>220.66666666666669</ele><time>2026-04-06T16:09:42.998Z</time></trkpt><trkpt lat="43.0918547727265" lon="11.307036589971938"><ele>221.5</ele><time>2026-04-06T16:09:43.998Z</time></trkpt><trkpt lat="43.09180758560695" lon="11.306936728777442"><ele>222.33333333333334</ele><time>2026-04-06T16:09:44.998Z</time></trkpt><trkpt lat="43.09176092944076" lon="11.30684005133793"><ele>223.16666666666669</ele><time>2026-04-06T16:09:45.998Z</time></trkpt><trkpt lat="43.091711722873995" lon="11.306740937893592"><ele>224.0</ele><time>2026-04-06T16:09:46.998Z</time></trkpt><trkpt lat="43.09166551036184" lon="11.306618701805947"><ele>224.0</ele><time>2026-04-06T16:09:47.998Z</time></trkpt><trkpt lat="43.091618303576155" lon="11.306489418118959"><ele>223.99999999999997</ele><time>2026-04-06T16:09:48.998Z</time></trkpt><trkpt lat="43.091570166370445" lon="11.306362366659329"><ele>223.99999999999997</ele><time>2026-04-06T16:09:49.998Z</time></trkpt><trkpt lat="43.09152305085139" lon="11.306230314833456"><ele>224.0</ele><time>2026-04-06T16:09:50.998Z</time></trkpt><trkpt lat="43.09147945436343" lon="11.306088438226807"><ele>224.0</ele><time>2026-04-06T16:09:51.998Z</time></trkpt><trkpt lat="43.09143703234164" lon="11.305945542996666"><ele>221.25</ele><time>2026-04-06T16:09:52.998Z</time></trkpt><trkpt lat="43.09139714399961" lon="11.305801583713196"><ele>218.5</ele><time>2026-04-06T16:09:53.998Z</time></trkpt><trkpt lat="43.09135208654903" lon="11.305655970692905"><ele>215.75</ele><time>2026-04-06T16:09:54.998Z</time></trkpt><trkpt lat="43.09129200169868" lon="11.305517540744422"><ele>213.0</ele><time>2026-04-06T16:09:55.998Z</time></trkpt><trkpt lat="43.09121549679834" lon="11.305397193328458"><ele>213.0</ele><time>2026-04-06T16:09:56.998Z</time></trkpt><trkpt lat="43.09112874126241" lon="11.305282753773398"><ele>213.0</ele><time>2026-04-06T16:09:57.998Z</time></trkpt><trkpt lat="43.09104117323996" lon="11.305168112761391"><ele>213.0</ele><time>2026-04-06T16:09:58.998Z</time></trkpt><trkpt lat="43.09096000664999" lon="11.305036692501071"><ele>213.0</ele><time>2026-04-06T16:09:59.998Z</time></trkpt><trkpt lat="43.09089118435812" lon="11.304892969793645"><ele>213.0</ele><time>2026-04-06T16:10:00.998Z</time></trkpt><trkpt lat="43.090832416838325" lon="11.304751829717949"><ele>213.0</ele><time>2026-04-06T16:10:01.998Z</time></trkpt><trkpt lat="43.090775334822816" lon="11.304634543582818"><ele>213.0</ele><time>2026-04-06T16:10:02.998Z</time></trkpt><trkpt lat="43.090717645635074" lon="11.304523024326276"><ele>213.0</ele><time>2026-04-06T16:10:03.998Z</time></trkpt><trkpt lat="43.0906328534468" lon="11.304447145522062"><ele>213.0</ele><time>2026-04-06T16:10:04.998Z</time></trkpt><trkpt lat="43.09053022832369" lon="11.304424390455997"><ele>210.8</ele><time>2026-04-06T16:10:05.998Z</time></trkpt><trkpt lat="43.09042575073147" lon="11.304467912517127"><ele>208.60000000000002</ele><time>2026-04-06T16:10:06.998Z</time></trkpt><trkpt lat="43.09033763384033" lon="11.304509227416"><ele>206.39999999999998</ele><time>2026-04-06T16:10:08Z</time></trkpt><trkpt lat="43.09023473384125" lon="11.304559772521038"><ele>204.2</ele><time>2026-04-06T16:10:09Z</time></trkpt><trkpt lat="43.090120804274605" lon="11.304604605541957"><ele>202.0</ele><time>2026-04-06T16:10:10Z</time></trkpt><trkpt lat="43.089986384465746" lon="11.304622280865056"><ele>199.0</ele><time>2026-04-06T16:10:11Z</time></trkpt><trkpt lat="43.08986174284013" lon="11.304609986804975"><ele>196.0</ele><time>2026-04-06T16:10:12Z</time></trkpt><trkpt lat="43.08972257419986" lon="11.304592900662477"><ele>193.0</ele><time>2026-04-06T16:10:13Z</time></trkpt><trkpt lat="43.0895887802677" lon="11.304575211105544"><ele>190.0</ele><time>2026-04-06T16:10:14Z</time></trkpt><trkpt lat="43.0894448141826" lon="11.304566490470993"><ele>190.0</ele><time>2026-04-06T16:10:15Z</time></trkpt><trkpt lat="43.089300451025586" lon="11.304594556325542"><ele>190.0</ele><time>2026-04-06T16:10:16Z</time></trkpt><trkpt lat="43.0891576912379" lon="11.304647672315543"><ele>190.0</ele><time>2026-04-06T16:10:17Z</time></trkpt><trkpt lat="43.08901032360833" lon="11.304689341983273"><ele>190.0</ele><time>2026-04-06T16:10:18Z</time></trkpt><trkpt lat="43.08885640191599" lon="11.30471586054371"><ele>187.33333333333334</ele><time>2026-04-06T16:10:19Z</time></trkpt><trkpt lat="43.08869486958526" lon="11.304743722105295"><ele>184.66666666666666</ele><time>2026-04-06T16:10:20Z</time></trkpt><trkpt lat="43.088524314743125" lon="11.304775582196555"><ele>182.0</ele><time>2026-04-06T16:10:21Z</time></trkpt><trkpt lat="43.08837902043818" lon="11.304808383753013"><ele>178.0</ele><time>2026-04-06T16:10:22Z</time></trkpt><trkpt lat="43.088231889867835" lon="11.304840557102635"><ele>174.0</ele><time>2026-04-06T16:10:23Z</time></trkpt><trkpt lat="43.08807927633245" lon="11.30487025727719"><ele>170.0</ele><time>2026-04-06T16:10:24Z</time></trkpt><trkpt lat="43.08793911201384" lon="11.30489753458025"><ele>166.0</ele><time>2026-04-06T16:10:25Z</time></trkpt><trkpt lat="43.08778795112782" lon="11.304931270238647"><ele>166.0</ele><time>2026-04-06T16:10:26Z</time></trkpt><trkpt lat="43.087639823733404" lon="11.304967094167331"><ele>166.0</ele><time>2026-04-06T16:10:27Z</time></trkpt><trkpt lat="43.08748800454067" lon="11.30500413201997"><ele>166.0</ele><time>2026-04-06T16:10:28Z</time></trkpt><trkpt lat="43.087351671701015" lon="11.305041550535915"><ele>166.0</ele><time>2026-04-06T16:10:29Z</time></trkpt><trkpt lat="43.08722470079799" lon="11.305085264837526"><ele>163.5</ele><time>2026-04-06T16:10:30Z</time></trkpt><trkpt lat="43.087117630288105" lon="11.30518653767117"><ele>161.0</ele><time>2026-04-06T16:10:31Z</time></trkpt><trkpt lat="43.08702422967789" lon="11.305298635194283"><ele>158.5</ele><time>2026-04-06T16:10:32Z</time></trkpt><trkpt lat="43.08693579880826" lon="11.305401847854094"><ele>156.0</ele><time>2026-04-06T16:10:33Z</time></trkpt><trkpt lat="43.08684038866083" lon="11.305506462912236"><ele>156.0</ele><time>2026-04-06T16:10:34Z</time></trkpt><trkpt lat="43.08671138200396" lon="11.305563292404168"><ele>156.0</ele><time>2026-04-06T16:10:35Z</time></trkpt><trkpt lat="43.08657951017492" lon="11.305581106137568"><ele>156.0</ele><time>2026-04-06T16:10:35.999Z</time></trkpt><trkpt lat="43.08646656227982" lon="11.305519764419238"><ele>156.0</ele><time>2026-04-06T16:10:36.999Z</time></trkpt><trkpt lat="43.086358584194016" lon="11.305455315714987"><ele>155.2</ele><time>2026-04-06T16:10:37.999Z</time></trkpt><trkpt lat="43.08625175755976" lon="11.305388988227097"><ele>154.39999999999998</ele><time>2026-04-06T16:10:38.999Z</time></trkpt><trkpt lat="43.08616628681882" lon="11.305315298708068"><ele>153.6</ele><time>2026-04-06T16:10:39.999Z</time></trkpt><trkpt lat="43.08608375451654" lon="11.305223511800145"><ele>152.79999999999998</ele><time>2026-04-06T16:10:40.999Z</time></trkpt><trkpt lat="43.086002701606084" lon="11.305115511112618"><ele>152.0</ele><time>2026-04-06T16:10:41.999Z</time></trkpt><trkpt lat="43.08591604500862" lon="11.304997871284174"><ele>152.0</ele><time>2026-04-06T16:10:42.999Z</time></trkpt><trkpt lat="43.08581547062117" lon="11.304886827220086"><ele>152.0</ele><time>2026-04-06T16:10:43.999Z</time></trkpt><trkpt lat="43.08571099862253" lon="11.304783100443645"><ele>152.0</ele><time>2026-04-06T16:10:44.999Z</time></trkpt><trkpt lat="43.08561029160088" lon="11.304694321107263"><ele>152.0</ele><time>2026-04-06T16:10:45.999Z</time></trkpt><trkpt lat="43.085511314045675" lon="11.304612016014717"><ele>151.75</ele><time>2026-04-06T16:10:46.999Z</time></trkpt><trkpt lat="43.08541191022292" lon="11.30453022439561"><ele>151.5</ele><time>2026-04-06T16:10:47.999Z</time></trkpt><trkpt lat="43.08531154685074" lon="11.304445674344395"><ele>151.25</ele><time>2026-04-06T16:10:48.999Z</time></trkpt><trkpt lat="43.08521082848523" lon="11.304359866025726"><ele>151.0</ele><time>2026-04-06T16:10:49.999Z</time></trkpt><trkpt lat="43.08508714548894" lon="11.304276929682343"><ele>151.0</ele><time>2026-04-06T16:10:50.999Z</time></trkpt><trkpt lat="43.084987570798184" lon="11.30417407671234"><ele>151.0</ele><time>2026-04-06T16:10:51.999Z</time></trkpt><trkpt lat="43.08488491022882" lon="11.304077847524203"><ele>151.0</ele><time>2026-04-06T16:10:52.999Z</time></trkpt><trkpt lat="43.08479061377722" lon="11.304006735814442"><ele>151.0</ele><time>2026-04-06T16:10:53.999Z</time></trkpt><trkpt lat="43.08470396085936" lon="11.303918753413733"><ele>151.8</ele><time>2026-04-06T16:10:54.999Z</time></trkpt><trkpt lat="43.084605813682785" lon="11.303851420187163"><ele>152.6</ele><time>2026-04-06T16:10:55.999Z</time></trkpt><trkpt lat="43.08450239531345" lon="11.303782766182128"><ele>153.4</ele><time>2026-04-06T16:10:56.999Z</time></trkpt><trkpt lat="43.08441168086249" lon="11.303709298174581"><ele>154.2</ele><time>2026-04-06T16:10:57.999Z</time></trkpt><trkpt lat="43.08430835433436" lon="11.303643179448542"><ele>155.0</ele><time>2026-04-06T16:10:58.999Z</time></trkpt><trkpt lat="43.08425069291732" lon="11.303591139489352"><ele>155.0</ele><time>2026-04-06T16:10:59.999Z</time></trkpt><trkpt lat="43.08415739837442" lon="11.303514005433145"><ele>155.0</ele><time>2026-04-06T16:11:00.999Z</time></trkpt><trkpt lat="43.08406419310456" lon="11.30343389135078"><ele>155.0</ele><time>2026-04-06T16:11:01.999Z</time></trkpt><trkpt lat="43.083979570062255" lon="11.303360845719235"><ele>155.0</ele><time>2026-04-06T16:11:02.999Z</time></trkpt><trkpt lat="43.083906324241816" lon="11.303286681099712"><ele>155.0</ele><time>2026-04-06T16:11:03.999Z</time></trkpt><trkpt lat="43.08382381774619" lon="11.303221321622054"><ele>154.85714285714286</ele><time>2026-04-06T16:11:04.999Z</time></trkpt><trkpt lat="43.083751210501134" lon="11.303164384093167"><ele>154.71428571428572</ele><time>2026-04-06T16:11:05.999Z</time></trkpt><trkpt lat="43.08367385465524" lon="11.303115365000396"><ele>154.57142857142856</ele><time>2026-04-06T16:11:06.999Z</time></trkpt><trkpt lat="43.083608200494" lon="11.30308842170992"><ele>154.42857142857144</ele><time>2026-04-06T16:11:07.999Z</time></trkpt><trkpt lat="43.08354566876525" lon="11.303063757002976"><ele>154.28571428571428</ele><time>2026-04-06T16:11:08.999Z</time></trkpt><trkpt lat="43.08348533572918" lon="11.303021492807162"><ele>154.14285714285714</ele><time>2026-04-06T16:11:09.999Z</time></trkpt><trkpt lat="43.08341589369433" lon="11.30298820512584"><ele>154.0</ele><time>2026-04-06T16:11:10.999Z</time></trkpt><trkpt lat="43.08334187090881" lon="11.302947703910842"><ele>154.0</ele><time>2026-04-06T16:11:11.999Z</time></trkpt><trkpt lat="43.08327604488841" lon="11.302898018701455"><ele>154.0</ele><time>2026-04-06T16:11:12.999Z</time></trkpt><trkpt lat="43.083189073025714" lon="11.302843028484478"><ele>154.0</ele><time>2026-04-06T16:11:13.999Z</time></trkpt><trkpt lat="43.0831041412252" lon="11.30278294998429"><ele>154.0</ele><time>2026-04-06T16:11:14.999Z</time></trkpt><trkpt lat="43.083014327267435" lon="11.302711142509697"><ele>154.0</ele><time>2026-04-06T16:11:15.999Z</time></trkpt><trkpt lat="43.08292821673814" lon="11.302642249061648"><ele>153.8</ele><time>2026-04-06T16:11:16.999Z</time></trkpt><trkpt lat="43.08284740961531" lon="11.302575883619378"><ele>153.60000000000002</ele><time>2026-04-06T16:11:17.999Z</time></trkpt><trkpt lat="43.08276132770211" lon="11.30249226295138"><ele>153.4</ele><time>2026-04-06T16:11:18.999Z</time></trkpt><trkpt lat="43.08268253259447" lon="11.302409554369925"><ele>153.20000000000002</ele><time>2026-04-06T16:11:19.999Z</time></trkpt><trkpt lat="43.0826067303053" lon="11.302326483258469"><ele>153.0</ele><time>2026-04-06T16:11:20.999Z</time></trkpt><trkpt lat="43.082531577871904" lon="11.302237131109063"><ele>153.4</ele><time>2026-04-06T16:11:21.999Z</time></trkpt><trkpt lat="43.082454719028966" lon="11.302151818484111"><ele>153.8</ele><time>2026-04-06T16:11:22.999Z</time></trkpt><trkpt lat="43.082376213010114" lon="11.30207483061752"><ele>154.2</ele><time>2026-04-06T16:11:23.999Z</time></trkpt><trkpt lat="43.0822981882319" lon="11.301998202973842"><ele>154.6</ele><time>2026-04-06T16:11:24.999Z</time></trkpt><trkpt lat="43.08221724292606" lon="11.301921665105521"><ele>155.0</ele><time>2026-04-06T16:11:25.999Z</time></trkpt><trkpt lat="43.08214220483501" lon="11.30184982213277"><ele>155.0</ele><time>2026-04-06T16:11:26.999Z</time></trkpt><trkpt lat="43.08207048760558" lon="11.301782344320973"><ele>155.0</ele><time>2026-04-06T16:11:27.999Z</time></trkpt><trkpt lat="43.08201597177558" lon="11.301697092935951"><ele>155.0</ele><time>2026-04-06T16:11:28.999Z</time></trkpt><trkpt lat="43.081955644536734" lon="11.301630539384783"><ele>155.0</ele><time>2026-04-06T16:11:29.998Z</time></trkpt><trkpt lat="43.08189255648661" lon="11.301560940222847"><ele>155.0</ele><time>2026-04-06T16:11:30.998Z</time></trkpt><trkpt lat="43.08182923078072" lon="11.301490518984277"><ele>155.0</ele><time>2026-04-06T16:11:31.998Z</time></trkpt><trkpt lat="43.08176536180018" lon="11.301412686321521"><ele>155.33333333333331</ele><time>2026-04-06T16:11:32.998Z</time></trkpt><trkpt lat="43.081706034285354" lon="11.301338714005057"><ele>155.66666666666666</ele><time>2026-04-06T16:11:33.998Z</time></trkpt><trkpt lat="43.08165823063424" lon="11.301268754698336"><ele>156.0</ele><time>2026-04-06T16:11:34.998Z</time></trkpt><trkpt lat="43.08159242963198" lon="11.301161423124993"><ele>156.33333333333334</ele><time>2026-04-06T16:11:36.998Z</time></trkpt><trkpt lat="43.08154417852888" lon="11.301076396106772"><ele>156.66666666666669</ele><time>2026-04-06T16:11:52.998Z</time></trkpt><trkpt lat="43.081468129660685" lon="11.300973001193416"><ele>157.0</ele><time>2026-04-06T16:11:54.998Z</time></trkpt><trkpt lat="43.08141677251972" lon="11.300884294231615"><ele>157.0</ele><time>2026-04-06T16:11:56.998Z</time></trkpt><trkpt lat="43.08136342059267" lon="11.300784571258234"><ele>157.0</ele><time>2026-04-06T16:12:00.998Z</time></trkpt><trkpt lat="43.0813319070024" lon="11.300688450136438"><ele>157.0</ele><time>2026-04-06T16:12:04.998Z</time></trkpt><trkpt lat="43.08127103031196" lon="11.300639205815884"><ele>157.0</ele><time>2026-04-06T16:12:18Z</time></trkpt><trkpt lat="43.08121219474482" lon="11.30054036431924"><ele>157.0</ele><time>2026-04-06T16:12:25Z</time></trkpt><trkpt lat="43.08121096299613" lon="11.300446753992443"><ele>157.0</ele><time>2026-04-06T16:12:27Z</time></trkpt><trkpt lat="43.08119156804958" lon="11.300347028947286"><ele>159.0</ele><time>2026-04-06T16:12:29Z</time></trkpt><trkpt lat="43.081197181427896" lon="11.300250561744848"><ele>161.0</ele><time>2026-04-06T16:12:31Z</time></trkpt><trkpt lat="43.08114444436707" lon="11.300166410216685"><ele>163.0</ele><time>2026-04-06T16:12:33Z</time></trkpt><trkpt lat="43.08107304412676" lon="11.300075901035726"><ele>165.0</ele><time>2026-04-06T16:12:35Z</time></trkpt><trkpt lat="43.08103384704296" lon="11.299999350751664"><ele>167.0</ele><time>2026-04-06T16:12:37Z</time></trkpt><trkpt lat="43.08100955015044" lon="11.299916663538495"><ele>169.0</ele><time>2026-04-06T16:12:40Z</time></trkpt><trkpt lat="43.08101716003394" lon="11.300009474195935"><ele>169.0</ele><time>2026-04-06T16:12:43.999Z</time></trkpt><trkpt lat="43.08093179947191" lon="11.299994457802253"><ele>169.0</ele><time>2026-04-06T16:12:46.999Z</time></trkpt><trkpt lat="43.08088798370452" lon="11.299926581575043"><ele>169.0</ele><time>2026-04-06T16:12:47.999Z</time></trkpt><trkpt lat="43.08079588424151" lon="11.29990181862405"><ele>169.0</ele><time>2026-04-06T16:13:05.999Z</time></trkpt><trkpt lat="43.0807266940906" lon="11.299850726930147"><ele>169.0</ele><time>2026-04-06T16:13:07.999Z</time></trkpt><trkpt lat="43.080632598057356" lon="11.29980035750393"><ele>169.0</ele><time>2026-04-06T16:13:09.999Z</time></trkpt><trkpt lat="43.080523474943426" lon="11.299755485495144"><ele>169.6</ele><time>2026-04-06T16:13:11.999Z</time></trkpt><trkpt lat="43.08045941007744" lon="11.29971970889848"><ele>170.2</ele><time>2026-04-06T16:13:12.999Z</time></trkpt><trkpt lat="43.08039773095228" lon="11.299698776175672"><ele>170.79999999999998</ele><time>2026-04-06T16:13:13.999Z</time></trkpt><trkpt lat="43.0802863464232" lon="11.299646378983875"><ele>171.39999999999998</ele><time>2026-04-06T16:13:15.999Z</time></trkpt><trkpt lat="43.08017033677466" lon="11.29961858335598"><ele>172.0</ele><time>2026-04-06T16:13:17.999Z</time></trkpt><trkpt lat="43.0800807534834" lon="11.29960617195415"><ele>172.0</ele><time>2026-04-06T16:13:19.999Z</time></trkpt><trkpt lat="43.08000096720976" lon="11.299597532991983"><ele>172.0</ele><time>2026-04-06T16:13:21.999Z</time></trkpt><trkpt lat="43.07990671031311" lon="11.299587327364204"><ele>172.0</ele><time>2026-04-06T16:13:23.999Z</time></trkpt><trkpt lat="43.079803962197126" lon="11.299575984982193"><ele>172.0</ele><time>2026-04-06T16:13:25.999Z</time></trkpt><trkpt lat="43.079689595553106" lon="11.299621214806036"><ele>172.0</ele><time>2026-04-06T16:13:27.999Z</time></trkpt><trkpt lat="43.07958309545705" lon="11.299609346043297"><ele>170.0</ele><time>2026-04-06T16:13:29.999Z</time></trkpt><trkpt lat="43.07946498732998" lon="11.299551594139906"><ele>168.0</ele><time>2026-04-06T16:13:31.999Z</time></trkpt><trkpt lat="43.07939244120459" lon="11.299570629592273"><ele>166.0</ele><time>2026-04-06T16:13:32.999Z</time></trkpt><trkpt lat="43.07932105353802" lon="11.299628221573595"><ele>164.0</ele><time>2026-04-06T16:13:33.999Z</time></trkpt><trkpt lat="43.079272435848374" lon="11.299698535312958"><ele>162.0</ele><time>2026-04-06T16:13:34.999Z</time></trkpt><trkpt lat="43.079197256688666" lon="11.299803734246142"><ele>162.75</ele><time>2026-04-06T16:13:36.998Z</time></trkpt><trkpt lat="43.07911664942225" lon="11.299912333521581"><ele>163.5</ele><time>2026-04-06T16:13:38.998Z</time></trkpt><trkpt lat="43.07904617435331" lon="11.300061951193838"><ele>164.25</ele><time>2026-04-06T16:13:40.998Z</time></trkpt><trkpt lat="43.079070940021765" lon="11.30021256390717"><ele>165.0</ele><time>2026-04-06T16:13:42.998Z</time></trkpt><trkpt lat="43.07914378759728" lon="11.300318912183464"><ele>165.83333333333334</ele><time>2026-04-06T16:13:44.998Z</time></trkpt><trkpt lat="43.07922686063317" lon="11.300418249341389"><ele>166.66666666666666</ele><time>2026-04-06T16:13:46.998Z</time></trkpt><trkpt lat="43.07927682537524" lon="11.300481850818247"><ele>167.5</ele><time>2026-04-06T16:13:47.998Z</time></trkpt><trkpt lat="43.0793451328755" lon="11.30056818885136"><ele>168.33333333333331</ele><time>2026-04-06T16:13:48.998Z</time></trkpt><trkpt lat="43.079406827831825" lon="11.300650235082625"><ele>169.16666666666666</ele><time>2026-04-06T16:13:49.998Z</time></trkpt><trkpt lat="43.0794628905415" lon="11.30073545873733"><ele>170.0</ele><time>2026-04-06T16:13:50.998Z</time></trkpt><trkpt lat="43.07952147228334" lon="11.300822096762818"><ele>170.0</ele><time>2026-04-06T16:13:51.998Z</time></trkpt><trkpt lat="43.079571685063044" lon="11.30090477683861"><ele>170.0</ele><time>2026-04-06T16:13:52.998Z</time></trkpt><trkpt lat="43.07961776199005" lon="11.300982861785965"><ele>170.0</ele><time>2026-04-06T16:13:53.998Z</time></trkpt><trkpt lat="43.079641678587805" lon="11.30106786083216"><ele>170.0</ele><time>2026-04-06T16:13:54.998Z</time></trkpt><trkpt lat="43.079660587002174" lon="11.30115730313977"><ele>170.0</ele><time>2026-04-06T16:13:55.998Z</time></trkpt><trkpt lat="43.07964227269022" lon="11.301335383030166"><ele>170.0</ele><time>2026-04-06T16:13:57.998Z</time></trkpt><trkpt lat="43.079608346399574" lon="11.301435874372709"><ele>172.4</ele><time>2026-04-06T16:13:58.998Z</time></trkpt><trkpt lat="43.079562708116704" lon="11.30153755870827"><ele>174.8</ele><time>2026-04-06T16:13:59.998Z</time></trkpt><trkpt lat="43.079512956293655" lon="11.301642630592932"><ele>177.2</ele><time>2026-04-06T16:14:00.998Z</time></trkpt><trkpt lat="43.079455654017934" lon="11.301753576238857"><ele>179.6</ele><time>2026-04-06T16:14:01.998Z</time></trkpt><trkpt lat="43.079395363765265" lon="11.301877583497646"><ele>182.0</ele><time>2026-04-06T16:14:02.998Z</time></trkpt><trkpt lat="43.07934244858618" lon="11.302003067565728"><ele>182.0</ele><time>2026-04-06T16:14:03.998Z</time></trkpt><trkpt lat="43.079297117768725" lon="11.302125067634273"><ele>182.0</ele><time>2026-04-06T16:14:04.998Z</time></trkpt><trkpt lat="43.07925267731572" lon="11.30225019071374"><ele>182.0</ele><time>2026-04-06T16:14:05.998Z</time></trkpt><trkpt lat="43.07921083287507" lon="11.302370624660462"><ele>182.0</ele><time>2026-04-06T16:14:06.998Z</time></trkpt><trkpt lat="43.07917042033971" lon="11.302486937426046"><ele>182.0</ele><time>2026-04-06T16:14:07.998Z</time></trkpt><trkpt lat="43.07912962688049" lon="11.302604346614423"><ele>185.0</ele><time>2026-04-06T16:14:08.998Z</time></trkpt><trkpt lat="43.07909281961369" lon="11.302709825527014"><ele>188.0</ele><time>2026-04-06T16:14:09.998Z</time></trkpt><trkpt lat="43.07905169689911" lon="11.302824868773483"><ele>191.0</ele><time>2026-04-06T16:14:10.998Z</time></trkpt><trkpt lat="43.07900775070748" lon="11.302947810693517"><ele>194.0</ele><time>2026-04-06T16:14:11.998Z</time></trkpt><trkpt lat="43.078961684824975" lon="11.303079738312233"><ele>197.0</ele><time>2026-04-06T16:14:12.998Z</time></trkpt><trkpt lat="43.07891932943243" lon="11.303213542964198"><ele>198.6</ele><time>2026-04-06T16:14:13.998Z</time></trkpt><trkpt lat="43.07888132953672" lon="11.303355045487196"><ele>200.2</ele><time>2026-04-06T16:14:14.998Z</time></trkpt><trkpt lat="43.07884699800734" lon="11.303497952822799"><ele>201.8</ele><time>2026-04-06T16:14:15.998Z</time></trkpt><trkpt lat="43.07881178579032" lon="11.303644525804708"><ele>203.4</ele><time>2026-04-06T16:14:16.998Z</time></trkpt><trkpt lat="43.07877665247558" lon="11.303790770343156"><ele>205.0</ele><time>2026-04-06T16:14:17.998Z</time></trkpt><trkpt lat="43.078741816243024" lon="11.303936152147472"><ele>207.5</ele><time>2026-04-06T16:14:19Z</time></trkpt><trkpt lat="43.07870811928461" lon="11.30408043204771"><ele>210.0</ele><time>2026-04-06T16:14:20Z</time></trkpt><trkpt lat="43.07867391548196" lon="11.304226882276856"><ele>212.5</ele><time>2026-04-06T16:14:21Z</time></trkpt><trkpt lat="43.078635157142664" lon="11.304394191480714"><ele>215.0</ele><time>2026-04-06T16:14:22Z</time></trkpt><trkpt lat="43.07859949932385" lon="11.304548838282434"><ele>215.0</ele><time>2026-04-06T16:14:23Z</time></trkpt><trkpt lat="43.07856458698346" lon="11.304700251736575"><ele>215.0</ele><time>2026-04-06T16:14:24Z</time></trkpt><trkpt lat="43.07853188898178" lon="11.30484206185291"><ele>215.0</ele><time>2026-04-06T16:14:25Z</time></trkpt><trkpt lat="43.07850054641726" lon="11.304973096227767"><ele>215.0</ele><time>2026-04-06T16:14:26Z</time></trkpt><trkpt lat="43.07847935352627" lon="11.30511485249001"><ele>215.0</ele><time>2026-04-06T16:14:27Z</time></trkpt><trkpt lat="43.07848249420278" lon="11.305275006882214"><ele>216.5</ele><time>2026-04-06T16:14:28Z</time></trkpt><trkpt lat="43.07850063967464" lon="11.305435547825278"><ele>218.0</ele><time>2026-04-06T16:14:29Z</time></trkpt><trkpt lat="43.07852800281077" lon="11.30560504492436"><ele>219.5</ele><time>2026-04-06T16:14:30Z</time></trkpt><trkpt lat="43.07855917806943" lon="11.305767782859018"><ele>221.0</ele><time>2026-04-06T16:14:31Z</time></trkpt><trkpt lat="43.07860672584883" lon="11.305951649896029"><ele>222.33333333333334</ele><time>2026-04-06T16:14:32Z</time></trkpt><trkpt lat="43.07862936131244" lon="11.3061597519073"><ele>223.66666666666669</ele><time>2026-04-06T16:14:33Z</time></trkpt><trkpt lat="43.07866573602699" lon="11.306365940072492"><ele>225.0</ele><time>2026-04-06T16:14:34Z</time></trkpt><trkpt lat="43.07870112582884" lon="11.30656915801518"><ele>226.25</ele><time>2026-04-06T16:14:35Z</time></trkpt><trkpt lat="43.07874003201841" lon="11.306761357567018"><ele>227.5</ele><time>2026-04-06T16:14:36Z</time></trkpt><trkpt lat="43.07877946738168" lon="11.306964978335959"><ele>228.75</ele><time>2026-04-06T16:14:37Z</time></trkpt><trkpt lat="43.078815065393336" lon="11.307155833968887"><ele>230.0</ele><time>2026-04-06T16:14:38Z</time></trkpt><trkpt lat="43.07884731415129" lon="11.3073526422663"><ele>231.0</ele><time>2026-04-06T16:14:39Z</time></trkpt><trkpt lat="43.07887877813513" lon="11.307548128536544"><ele>232.0</ele><time>2026-04-06T16:14:40Z</time></trkpt><trkpt lat="43.078893761854424" lon="11.30773994685704"><ele>233.0</ele><time>2026-04-06T16:14:41Z</time></trkpt><trkpt lat="43.078901947394435" lon="11.307927630475316"><ele>234.0</ele><time>2026-04-06T16:14:42Z</time></trkpt><trkpt lat="43.07890667021624" lon="11.308114026670289"><ele>235.75</ele><time>2026-04-06T16:14:43Z</time></trkpt><trkpt lat="43.078902897065554" lon="11.3083035827616"><ele>237.5</ele><time>2026-04-06T16:14:44Z</time></trkpt><trkpt lat="43.078884130268925" lon="11.308483490344276"><ele>239.25</ele><time>2026-04-06T16:14:45Z</time></trkpt><trkpt lat="43.07885251495694" lon="11.308632384305533"><ele>241.0</ele><time>2026-04-06T16:14:46Z</time></trkpt><trkpt lat="43.07880388910844" lon="11.30878764507274"><ele>241.0</ele><time>2026-04-06T16:14:47Z</time></trkpt><trkpt lat="43.07873280529977" lon="11.308893242569892"><ele>241.00000000000003</ele><time>2026-04-06T16:14:48Z</time></trkpt><trkpt lat="43.078635739289275" lon="11.308952090717368"><ele>241.00000000000003</ele><time>2026-04-06T16:14:49Z</time></trkpt><trkpt lat="43.078536127723865" lon="11.308988176794115"><ele>241.0</ele><time>2026-04-06T16:14:50Z</time></trkpt><trkpt lat="43.07843897189509" lon="11.309032330267526"><ele>241.0</ele><time>2026-04-06T16:14:51Z</time></trkpt><trkpt lat="43.07834300620047" lon="11.309092369856955"><ele>245.5</ele><time>2026-04-06T16:14:51.999Z</time></trkpt><trkpt lat="43.07821789911771" lon="11.309112220013597"><ele>250.0</ele><time>2026-04-06T16:14:52.999Z</time></trkpt><trkpt lat="43.07808114568319" lon="11.309152373928926"><ele>254.5</ele><time>2026-04-06T16:14:53.999Z</time></trkpt><trkpt lat="43.07794346583363" lon="11.309192480586947"><ele>259.0</ele><time>2026-04-06T16:14:54.999Z</time></trkpt><trkpt lat="43.07779828091413" lon="11.309233278125387"><ele>259.0</ele><time>2026-04-06T16:14:55.999Z</time></trkpt><trkpt lat="43.077657580488385" lon="11.309276745974284"><ele>259.0</ele><time>2026-04-06T16:14:56.999Z</time></trkpt><trkpt lat="43.077519474876794" lon="11.30932543841334"><ele>259.0</ele><time>2026-04-06T16:14:57.999Z</time></trkpt><trkpt lat="43.07739382532412" lon="11.30941208341221"><ele>259.0</ele><time>2026-04-06T16:14:58.999Z</time></trkpt><trkpt lat="43.07727121917814" lon="11.309521502075489"><ele>261.0</ele><time>2026-04-06T16:14:59.999Z</time></trkpt><trkpt lat="43.077140423826116" lon="11.309646328856537"><ele>263.0</ele><time>2026-04-06T16:15:00.999Z</time></trkpt><trkpt lat="43.07702485958423" lon="11.30977578560829"><ele>265.0</ele><time>2026-04-06T16:15:01.999Z</time></trkpt><trkpt lat="43.07690393756389" lon="11.309866077727415"><ele>267.0</ele><time>2026-04-06T16:15:02.999Z</time></trkpt><trkpt lat="43.07675868083033" lon="11.309951957707861"><ele>268.0</ele><time>2026-04-06T16:15:03.999Z</time></trkpt><trkpt lat="43.07661931270874" lon="11.31002107130166"><ele>269.0</ele><time>2026-04-06T16:15:04.999Z</time></trkpt><trkpt lat="43.076475599656035" lon="11.310064251696165"><ele>270.0</ele><time>2026-04-06T16:15:05.999Z</time></trkpt><trkpt lat="43.07635597866363" lon="11.310027775333275"><ele>271.0</ele><time>2026-04-06T16:15:06.999Z</time></trkpt><trkpt lat="43.07623359500946" lon="11.309981542928078"><ele>274.75</ele><time>2026-04-06T16:15:07.999Z</time></trkpt><trkpt lat="43.07611334592927" lon="11.309918166633699"><ele>278.5</ele><time>2026-04-06T16:15:08.999Z</time></trkpt><trkpt lat="43.07601433089879" lon="11.309865090376391"><ele>282.25</ele><time>2026-04-06T16:15:09.999Z</time></trkpt><trkpt lat="43.075898724504455" lon="11.309818029227754"><ele>286.0</ele><time>2026-04-06T16:15:10.999Z</time></trkpt><trkpt lat="43.075767239839664" lon="11.30985678886293"><ele>287.25</ele><time>2026-04-06T16:15:11.999Z</time></trkpt><trkpt lat="43.075643196131345" lon="11.310034903197534"><ele>288.5</ele><time>2026-04-06T16:15:12.999Z</time></trkpt><trkpt lat="43.075566817959874" lon="11.310185635566471"><ele>289.75</ele><time>2026-04-06T16:15:13.999Z</time></trkpt><trkpt lat="43.07550723644782" lon="11.310307465295054"><ele>291.0</ele><time>2026-04-06T16:15:14.999Z</time></trkpt><trkpt lat="43.075457563395055" lon="11.310408864323422"><ele>292.0</ele><time>2026-04-06T16:15:15.999Z</time></trkpt><trkpt lat="43.075365097561736" lon="11.310597456169004"><ele>293.0</ele><time>2026-04-06T16:15:17.999Z</time></trkpt><trkpt lat="43.07529550016916" lon="11.310722287852395"><ele>294.0</ele><time>2026-04-06T16:15:18.999Z</time></trkpt><trkpt lat="43.07521451991399" lon="11.310812178962959"><ele>295.0</ele><time>2026-04-06T16:15:19.999Z</time></trkpt><trkpt lat="43.07511504888146" lon="11.310865321502378"><ele>295.0</ele><time>2026-04-06T16:15:20.999Z</time></trkpt><trkpt lat="43.074994366471785" lon="11.310931274084783"><ele>295.0</ele><time>2026-04-06T16:15:21.999Z</time></trkpt><trkpt lat="43.07485387528915" lon="11.310997542593194"><ele>295.0</ele><time>2026-04-06T16:15:22.999Z</time></trkpt><trkpt lat="43.07471963296887" lon="11.3110547354347"><ele>295.0</ele><time>2026-04-06T16:15:23.999Z</time></trkpt><trkpt lat="43.07459459480938" lon="11.311108178397198"><ele>296.25</ele><time>2026-04-06T16:15:24.999Z</time></trkpt><trkpt lat="43.074435580898204" lon="11.311184616403615"><ele>297.5</ele><time>2026-04-06T16:15:25.999Z</time></trkpt><trkpt lat="43.07432681620922" lon="11.311268234774797"><ele>298.75</ele><time>2026-04-06T16:15:26.999Z</time></trkpt><trkpt lat="43.074205727025415" lon="11.311310747764894"><ele>300.0</ele><time>2026-04-06T16:15:27.999Z</time></trkpt><trkpt lat="43.07409162157876" lon="11.3113733009301"><ele>305.0</ele><time>2026-04-06T16:15:28.999Z</time></trkpt><trkpt lat="43.07397266786001" lon="11.311439377001866"><ele>310.0</ele><time>2026-04-06T16:15:29.999Z</time></trkpt><trkpt lat="43.07387121958437" lon="11.31149861013081"><ele>315.0</ele><time>2026-04-06T16:15:30.999Z</time></trkpt><trkpt lat="43.07378166805893" lon="11.311556795103334"><ele>320.0</ele><time>2026-04-06T16:15:31.999Z</time></trkpt><trkpt lat="43.07366557551283" lon="11.311557956688388"><ele>320.0</ele><time>2026-04-06T16:15:32.999Z</time></trkpt><trkpt lat="43.073544429590214" lon="11.311532684580465"><ele>320.0</ele><time>2026-04-06T16:15:33.999Z</time></trkpt><trkpt lat="43.07342740304594" lon="11.311465470828859"><ele>320.0</ele><time>2026-04-06T16:15:34.999Z</time></trkpt><trkpt lat="43.073308680583644" lon="11.311377528095406"><ele>320.0</ele><time>2026-04-06T16:15:35.999Z</time></trkpt><trkpt lat="43.0731970439115" lon="11.311278439235762"><ele>322.25</ele><time>2026-04-06T16:15:36.999Z</time></trkpt><trkpt lat="43.07309270788679" lon="11.31116952500508"><ele>324.5</ele><time>2026-04-06T16:15:37.999Z</time></trkpt><trkpt lat="43.07299190874918" lon="11.311078638039323"><ele>326.75</ele><time>2026-04-06T16:15:38.999Z</time></trkpt><trkpt lat="43.072861613827705" lon="11.310979947866294"><ele>329.0</ele><time>2026-04-06T16:15:39.999Z</time></trkpt><trkpt lat="43.07273659870774" lon="11.310893887136666"><ele>329.0</ele><time>2026-04-06T16:15:40.999Z</time></trkpt><trkpt lat="43.07261105056399" lon="11.310804131217592"><ele>329.0</ele><time>2026-04-06T16:15:41.999Z</time></trkpt><trkpt lat="43.07247956030718" lon="11.310707400823052"><ele>329.0</ele><time>2026-04-06T16:15:42.999Z</time></trkpt><trkpt lat="43.0723549516723" lon="11.310615733317643"><ele>329.0</ele><time>2026-04-06T16:15:43.999Z</time></trkpt><trkpt lat="43.072232038772256" lon="11.310529755980884"><ele>331.5</ele><time>2026-04-06T16:15:44.999Z</time></trkpt><trkpt lat="43.07211289463442" lon="11.310452482764106"><ele>334.0</ele><time>2026-04-06T16:15:45.999Z</time></trkpt><trkpt lat="43.07199134282494" lon="11.310368529580401"><ele>336.5</ele><time>2026-04-06T16:15:46.998Z</time></trkpt><trkpt lat="43.071870144190044" lon="11.310270276259955"><ele>339.0</ele><time>2026-04-06T16:15:47.998Z</time></trkpt><trkpt lat="43.07178948352606" lon="11.310147733115368"><ele>339.0</ele><time>2026-04-06T16:15:48.998Z</time></trkpt><trkpt lat="43.07172132616712" lon="11.310007076312587"><ele>339.0</ele><time>2026-04-06T16:15:49.998Z</time></trkpt><trkpt lat="43.07166442233374" lon="11.309869140402567"><ele>339.0</ele><time>2026-04-06T16:15:50.998Z</time></trkpt><trkpt lat="43.07160804080887" lon="11.309729040536089"><ele>339.0</ele><time>2026-04-06T16:15:51.998Z</time></trkpt><trkpt lat="43.07153786025159" lon="11.309585642399867"><ele>339.75</ele><time>2026-04-06T16:15:52.998Z</time></trkpt><trkpt lat="43.071450193921244" lon="11.309458321818994"><ele>340.5</ele><time>2026-04-06T16:15:53.998Z</time></trkpt><trkpt lat="43.071333318304916" lon="11.309342057160313"><ele>341.25</ele><time>2026-04-06T16:15:54.998Z</time></trkpt><trkpt lat="43.0711879992234" lon="11.309288270487233"><ele>342.0</ele><time>2026-04-06T16:15:55.998Z</time></trkpt><trkpt lat="43.0710412536288" lon="11.309294285889644"><ele>342.0</ele><time>2026-04-06T16:15:56.998Z</time></trkpt><trkpt lat="43.07089476913532" lon="11.309336717463983"><ele>342.0</ele><time>2026-04-06T16:15:57.998Z</time></trkpt><trkpt lat="43.070761764809234" lon="11.309390127640436"><ele>342.0</ele><time>2026-04-06T16:15:58.998Z</time></trkpt><trkpt lat="43.070626692488176" lon="11.309458954757357"><ele>342.0</ele><time>2026-04-06T16:15:59.998Z</time></trkpt><trkpt lat="43.070505938024205" lon="11.309520418991145"><ele>342.0</ele><time>2026-04-06T16:16:00.998Z</time></trkpt><trkpt lat="43.070382201973445" lon="11.309579193839365"><ele>342.0</ele><time>2026-04-06T16:16:01.998Z</time></trkpt><trkpt lat="43.07025170529235" lon="11.309609507296283"><ele>342.0</ele><time>2026-04-06T16:16:02.998Z</time></trkpt><trkpt lat="43.070097960601956" lon="11.309617897216633"><ele>342.0</ele><time>2026-04-06T16:16:03.998Z</time></trkpt><trkpt lat="43.069933747400455" lon="11.30960756869471"><ele>342.0</ele><time>2026-04-06T16:16:04.998Z</time></trkpt><trkpt lat="43.069743038451875" lon="11.3095775250968"><ele>342.0</ele><time>2026-04-06T16:16:05.998Z</time></trkpt><trkpt lat="43.0695722420315" lon="11.309551299639669"><ele>342.0</ele><time>2026-04-06T16:16:06.998Z</time></trkpt><trkpt lat="43.0693954629753" lon="11.309552780809767"><ele>342.0</ele><time>2026-04-06T16:16:07.998Z</time></trkpt><trkpt lat="43.06922608280191" lon="11.309586497645123"><ele>342.0</ele><time>2026-04-06T16:16:08.998Z</time></trkpt><trkpt lat="43.069085300700756" lon="11.309632783492754"><ele>342.0</ele><time>2026-04-06T16:16:09.998Z</time></trkpt><trkpt lat="43.06894066139911" lon="11.309665232156224"><ele>343.6666666666667</ele><time>2026-04-06T16:16:10.998Z</time></trkpt><trkpt lat="43.068748184892414" lon="11.309690648336252"><ele>345.33333333333337</ele><time>2026-04-06T16:16:11.998Z</time></trkpt><trkpt lat="43.068574938450375" lon="11.30970159462526"><ele>347.0</ele><time>2026-04-06T16:16:12.998Z</time></trkpt><trkpt lat="43.06841747153614" lon="11.309706215440924"><ele>347.0</ele><time>2026-04-06T16:16:13.998Z</time></trkpt><trkpt lat="43.06828239953671" lon="11.309709717041253"><ele>347.0</ele><time>2026-04-06T16:16:14.998Z</time></trkpt><trkpt lat="43.06815830400361" lon="11.309710294351822"><ele>347.0</ele><time>2026-04-06T16:16:15.998Z</time></trkpt><trkpt lat="43.068052268475405" lon="11.309682928700544"><ele>347.0</ele><time>2026-04-06T16:16:16.998Z</time></trkpt><trkpt lat="43.0679630887636" lon="11.30960937443672"><ele>350.40000000000003</ele><time>2026-04-06T16:16:17.998Z</time></trkpt><trkpt lat="43.067905118812476" lon="11.309511912063106"><ele>353.8</ele><time>2026-04-06T16:16:18.998Z</time></trkpt><trkpt lat="43.067883632187666" lon="11.309386089848871"><ele>357.2</ele><time>2026-04-06T16:16:19.998Z</time></trkpt><trkpt lat="43.0678316835221" lon="11.309281569218134"><ele>360.6</ele><time>2026-04-06T16:16:20.998Z</time></trkpt><trkpt lat="43.06776936015602" lon="11.30916343926463"><ele>364.0</ele><time>2026-04-06T16:16:21.998Z</time></trkpt><trkpt lat="43.067698201679555" lon="11.309043046596754"><ele>364.0</ele><time>2026-04-06T16:16:22.998Z</time></trkpt><trkpt lat="43.06762082500866" lon="11.308925487596413"><ele>364.0</ele><time>2026-04-06T16:16:23.998Z</time></trkpt><trkpt lat="43.067529307187144" lon="11.308800175642235"><ele>364.0</ele><time>2026-04-06T16:16:25Z</time></trkpt><trkpt lat="43.06742199299387" lon="11.308663833190852"><ele>364.0</ele><time>2026-04-06T16:16:26Z</time></trkpt><trkpt lat="43.06732892541613" lon="11.308560056159148"><ele>365.5</ele><time>2026-04-06T16:16:27Z</time></trkpt><trkpt lat="43.06719639788031" lon="11.308437764379432"><ele>367.0</ele><time>2026-04-06T16:16:28Z</time></trkpt><trkpt lat="43.06707670956179" lon="11.308356802246474"><ele>368.5</ele><time>2026-04-06T16:16:29Z</time></trkpt><trkpt lat="43.066939659339944" lon="11.308318177796323"><ele>370.0</ele><time>2026-04-06T16:16:30Z</time></trkpt><trkpt lat="43.066801634149044" lon="11.308344397272815"><ele>370.0</ele><time>2026-04-06T16:16:31Z</time></trkpt><trkpt lat="43.066701061039794" lon="11.308377688345042"><ele>370.0</ele><time>2026-04-06T16:16:32Z</time></trkpt><trkpt lat="43.06659466083788" lon="11.308396988832929"><ele>370.0</ele><time>2026-04-06T16:16:33Z</time></trkpt><trkpt lat="43.06647641796839" lon="11.308395537544547"><ele>370.0</ele><time>2026-04-06T16:16:34Z</time></trkpt><trkpt lat="43.06639058691154" lon="11.308372458380031"><ele>370.0</ele><time>2026-04-06T16:16:35Z</time></trkpt><trkpt lat="43.066306842513136" lon="11.308312036770321"><ele>372.4</ele><time>2026-04-06T16:16:36Z</time></trkpt><trkpt lat="43.066250351848225" lon="11.308253058596014"><ele>374.8</ele><time>2026-04-06T16:16:37Z</time></trkpt><trkpt lat="43.06619673002296" lon="11.308193639557727"><ele>377.20000000000005</ele><time>2026-04-06T16:16:38Z</time></trkpt><trkpt lat="43.066142881399635" lon="11.308132424479803"><ele>379.6</ele><time>2026-04-06T16:16:39Z</time></trkpt><trkpt lat="43.06600174155793" lon="11.308159694733927"><ele>382.0</ele><time>2026-04-06T16:16:40Z</time></trkpt><trkpt lat="43.06591168743965" lon="11.30810755813897"><ele>379.75</ele><time>2026-04-06T16:16:41Z</time></trkpt><trkpt lat="43.06581594722367" lon="11.308066317808459"><ele>377.5</ele><time>2026-04-06T16:16:42Z</time></trkpt><trkpt lat="43.065719003329704" lon="11.307997993141832"><ele>375.25</ele><time>2026-04-06T16:16:43Z</time></trkpt><trkpt lat="43.06559194170698" lon="11.307930174931984"><ele>373.0</ele><time>2026-04-06T16:16:44Z</time></trkpt><trkpt lat="43.065476633124945" lon="11.307866646917516"><ele>377.75</ele><time>2026-04-06T16:16:45Z</time></trkpt><trkpt lat="43.065362209451" lon="11.307804262076102"><ele>382.5</ele><time>2026-04-06T16:16:46Z</time></trkpt><trkpt lat="43.06524794250005" lon="11.30773926049417"><ele>387.25</ele><time>2026-04-06T16:16:47Z</time></trkpt><trkpt lat="43.06513356465695" lon="11.307680750425222"><ele>392.0</ele><time>2026-04-06T16:16:48Z</time></trkpt><trkpt lat="43.06502020032552" lon="11.307628291336751"><ele>394.40000000000003</ele><time>2026-04-06T16:16:49Z</time></trkpt><trkpt lat="43.06491604638171" lon="11.307574157105497"><ele>396.8</ele><time>2026-04-06T16:16:50Z</time></trkpt><trkpt lat="43.064812472523144" lon="11.307521122552977"><ele>399.2</ele><time>2026-04-06T16:16:51Z</time></trkpt><trkpt lat="43.06471240753614" lon="11.307471269461981"><ele>401.6</ele><time>2026-04-06T16:16:52Z</time></trkpt><trkpt lat="43.06462229843743" lon="11.307424644314446"><ele>404.0</ele><time>2026-04-06T16:16:53Z</time></trkpt><trkpt lat="43.06453210539352" lon="11.307400167430082"><ele>403.99999999999994</ele><time>2026-04-06T16:16:54Z</time></trkpt><trkpt lat="43.06443860489712" lon="11.307382436876882"><ele>404.0</ele><time>2026-04-06T16:16:55Z</time></trkpt><trkpt lat="43.06435705156591" lon="11.30742894523254"><ele>404.0</ele><time>2026-04-06T16:16:56Z</time></trkpt><trkpt lat="43.06427387680192" lon="11.307493482995001"><ele>404.0</ele><time>2026-04-06T16:16:56.999Z</time></trkpt><trkpt lat="43.06419629242259" lon="11.307561838800808"><ele>403.99999999999994</ele><time>2026-04-06T16:16:57.999Z</time></trkpt><trkpt lat="43.06412248223152" lon="11.307593793034183"><ele>404.0</ele><time>2026-04-06T16:16:58.999Z</time></trkpt><trkpt lat="43.064052058669915" lon="11.307598145541677"><ele>403.79999999999995</ele><time>2026-04-06T16:16:59.999Z</time></trkpt><trkpt lat="43.063931261950636" lon="11.307525621143895"><ele>403.59999999999997</ele><time>2026-04-06T16:17:01.999Z</time></trkpt><trkpt lat="43.06384964933583" lon="11.307477745891108"><ele>403.4</ele><time>2026-04-06T16:17:02.999Z</time></trkpt><trkpt lat="43.06377452067104" lon="11.307391397811731"><ele>403.2</ele><time>2026-04-06T16:17:03.999Z</time></trkpt><trkpt lat="43.06369919794934" lon="11.307344986574158"><ele>403.0</ele><time>2026-04-06T16:17:04.999Z</time></trkpt><trkpt lat="43.06363365256209" lon="11.307263591553806"><ele>403.5</ele><time>2026-04-06T16:17:05.999Z</time></trkpt><trkpt lat="43.0635465911827" lon="11.30717825304406"><ele>404.0</ele><time>2026-04-06T16:17:06.999Z</time></trkpt><trkpt lat="43.06343206719413" lon="11.307086376759655"><ele>404.5</ele><time>2026-04-06T16:17:07.999Z</time></trkpt><trkpt lat="43.06334116082447" lon="11.307025250237283"><ele>405.0</ele><time>2026-04-06T16:17:08.999Z</time></trkpt><trkpt lat="43.06324020421986" lon="11.306961103179141"><ele>405.0</ele><time>2026-04-06T16:17:09.999Z</time></trkpt><trkpt lat="43.06313283316109" lon="11.306918181044292"><ele>405.0</ele><time>2026-04-06T16:17:10.999Z</time></trkpt><trkpt lat="43.06303355629506" lon="11.306845364274684"><ele>405.0</ele><time>2026-04-06T16:17:11.999Z</time></trkpt><trkpt lat="43.06293058678683" lon="11.306768034571812"><ele>405.0</ele><time>2026-04-06T16:17:12.999Z</time></trkpt><trkpt lat="43.06282470032338" lon="11.306685172701043"><ele>405.0</ele><time>2026-04-06T16:17:13.999Z</time></trkpt><trkpt lat="43.06271846921588" lon="11.306596290590676"><ele>405.0</ele><time>2026-04-06T16:17:14.999Z</time></trkpt><trkpt lat="43.0626165487417" lon="11.306497393956018"><ele>405.0</ele><time>2026-04-06T16:17:15.999Z</time></trkpt><trkpt lat="43.06251889105016" lon="11.306390585113318"><ele>405.0</ele><time>2026-04-06T16:17:16.999Z</time></trkpt><trkpt lat="43.062421647069606" lon="11.306275815149517"><ele>404.75</ele><time>2026-04-06T16:17:17.999Z</time></trkpt><trkpt lat="43.06232201514857" lon="11.30615522371963"><ele>404.5</ele><time>2026-04-06T16:17:18.999Z</time></trkpt><trkpt lat="43.06222588648032" lon="11.306017109783761"><ele>404.25</ele><time>2026-04-06T16:17:19.999Z</time></trkpt><trkpt lat="43.062131399962574" lon="11.305884702168953"><ele>404.0</ele><time>2026-04-06T16:17:20.999Z</time></trkpt><trkpt lat="43.062041906097036" lon="11.30574497748024"><ele>404.0</ele><time>2026-04-06T16:17:21.999Z</time></trkpt><trkpt lat="43.06195035909407" lon="11.305600815864254"><ele>404.0</ele><time>2026-04-06T16:17:22.999Z</time></trkpt><trkpt lat="43.06186120048316" lon="11.305454398927592"><ele>404.0</ele><time>2026-04-06T16:17:23.999Z</time></trkpt><trkpt lat="43.06177232156043" lon="11.305306954610279"><ele>404.0</ele><time>2026-04-06T16:17:24.999Z</time></trkpt><trkpt lat="43.061680210993444" lon="11.305165080548253"><ele>404.25</ele><time>2026-04-06T16:17:25.999Z</time></trkpt><trkpt lat="43.06158812723512" lon="11.305023010925424"><ele>404.5</ele><time>2026-04-06T16:17:26.999Z</time></trkpt><trkpt lat="43.06149091713727" lon="11.304889705913649"><ele>404.75</ele><time>2026-04-06T16:17:27.999Z</time></trkpt><trkpt lat="43.06138615137823" lon="11.304758384129316"><ele>405.0</ele><time>2026-04-06T16:17:28.999Z</time></trkpt><trkpt lat="43.061273915685575" lon="11.304637377126435"><ele>405.0</ele><time>2026-04-06T16:17:29.999Z</time></trkpt><trkpt lat="43.061155664563955" lon="11.304517060315272"><ele>405.0</ele><time>2026-04-06T16:17:30.999Z</time></trkpt><trkpt lat="43.06102939661117" lon="11.304398109987238"><ele>405.0</ele><time>2026-04-06T16:17:31.999Z</time></trkpt><trkpt lat="43.060900016219556" lon="11.304277161410548"><ele>406.0</ele><time>2026-04-06T16:17:32.999Z</time></trkpt><trkpt lat="43.06077255047221" lon="11.304153240924876"><ele>407.0</ele><time>2026-04-06T16:17:33.999Z</time></trkpt><trkpt lat="43.06065081633237" lon="11.304038392755551"><ele>408.0</ele><time>2026-04-06T16:17:34.999Z</time></trkpt><trkpt lat="43.06053527538697" lon="11.303903546092911"><ele>409.0</ele><time>2026-04-06T16:17:35.999Z</time></trkpt><trkpt lat="43.06044249730729" lon="11.303749560386484"><ele>410.0</ele><time>2026-04-06T16:17:36.999Z</time></trkpt><trkpt lat="43.06037467012569" lon="11.303558075606972"><ele>411.0</ele><time>2026-04-06T16:17:37.999Z</time></trkpt><trkpt lat="43.06031986971197" lon="11.303359561668929"><ele>411.0</ele><time>2026-04-06T16:17:38.999Z</time></trkpt><trkpt lat="43.0602709956393" lon="11.303154215343842"><ele>411.0</ele><time>2026-04-06T16:17:39.999Z</time></trkpt><trkpt lat="43.060207812329885" lon="11.302957800782787"><ele>411.0</ele><time>2026-04-06T16:17:40.999Z</time></trkpt><trkpt lat="43.060130516332336" lon="11.302773384118185"><ele>410.33333333333337</ele><time>2026-04-06T16:17:41.999Z</time></trkpt><trkpt lat="43.06003248793404" lon="11.302605867678658"><ele>409.6666666666667</ele><time>2026-04-06T16:17:42.999Z</time></trkpt><trkpt lat="43.05995725764772" lon="11.302421960735636"><ele>409.0</ele><time>2026-04-06T16:17:43.999Z</time></trkpt><trkpt lat="43.0598603728137" lon="11.302281042377478"><ele>410.0</ele><time>2026-04-06T16:17:44.999Z</time></trkpt><trkpt lat="43.0597478221049" lon="11.30215911560192"><ele>411.0</ele><time>2026-04-06T16:17:45.999Z</time></trkpt><trkpt lat="43.05963345800671" lon="11.30205874071191"><ele>412.0</ele><time>2026-04-06T16:17:46.999Z</time></trkpt><trkpt lat="43.059509873496395" lon="11.3019584681226"><ele>413.0</ele><time>2026-04-06T16:17:47.999Z</time></trkpt><trkpt lat="43.059401214996804" lon="11.301857417580214"><ele>413.0</ele><time>2026-04-06T16:17:48.999Z</time></trkpt><trkpt lat="43.05930331683767" lon="11.301744763911394"><ele>413.0</ele><time>2026-04-06T16:17:49.999Z</time></trkpt><trkpt lat="43.05926174608746" lon="11.301579880139517"><ele>413.0</ele><time>2026-04-06T16:17:50.998Z</time></trkpt><trkpt lat="43.059210122440646" lon="11.301432347589854"><ele>413.0</ele><time>2026-04-06T16:17:51.998Z</time></trkpt><trkpt lat="43.0591906053961" lon="11.301260518476015"><ele>413.25</ele><time>2026-04-06T16:17:52.998Z</time></trkpt><trkpt lat="43.05916668596913" lon="11.301102200029991"><ele>413.5</ele><time>2026-04-06T16:17:53.998Z</time></trkpt><trkpt lat="43.05914913730049" lon="11.300937530762416"><ele>413.75</ele><time>2026-04-06T16:17:54.998Z</time></trkpt><trkpt lat="43.05914070852901" lon="11.300787809756768"><ele>414.0</ele><time>2026-04-06T16:17:55.998Z</time></trkpt><trkpt lat="43.05914439798482" lon="11.300649880862313"><ele>413.6</ele><time>2026-04-06T16:17:56.998Z</time></trkpt><trkpt lat="43.05913296850655" lon="11.300511244026136"><ele>413.2</ele><time>2026-04-06T16:17:57.998Z</time></trkpt><trkpt lat="43.05910521298766" lon="11.300367570666035"><ele>412.8</ele><time>2026-04-06T16:17:58.998Z</time></trkpt><trkpt lat="43.059063109950564" lon="11.300215576441598"><ele>412.40000000000003</ele><time>2026-04-06T16:17:59.998Z</time></trkpt><trkpt lat="43.05899553466267" lon="11.300088518260594"><ele>412.0</ele><time>2026-04-06T16:18:00.998Z</time></trkpt><trkpt lat="43.05896115169917" lon="11.29992501373655"><ele>412.0</ele><time>2026-04-06T16:18:01.998Z</time></trkpt><trkpt lat="43.05889905605089" lon="11.299781469354011"><ele>412.0</ele><time>2026-04-06T16:18:02.998Z</time></trkpt><trkpt lat="43.05883687220397" lon="11.299631388857199"><ele>412.0</ele><time>2026-04-06T16:18:03.998Z</time></trkpt><trkpt lat="43.058759984160815" lon="11.299484414715891"><ele>412.0</ele><time>2026-04-06T16:18:04.998Z</time></trkpt><trkpt lat="43.058675147527474" lon="11.299374090473298"><ele>412.0</ele><time>2026-04-06T16:18:05.998Z</time></trkpt><trkpt lat="43.058585161396046" lon="11.299260664839075"><ele>412.0</ele><time>2026-04-06T16:18:06.998Z</time></trkpt><trkpt lat="43.05849691741687" lon="11.299117584039296"><ele>412.0</ele><time>2026-04-06T16:18:07.998Z</time></trkpt><trkpt lat="43.05840170752454" lon="11.298971254669024"><ele>412.0</ele><time>2026-04-06T16:18:08.998Z</time></trkpt><trkpt lat="43.05829857073209" lon="11.298828339109422"><ele>410.0</ele><time>2026-04-06T16:18:09.998Z</time></trkpt><trkpt lat="43.05819381395913" lon="11.298708912107505"><ele>408.0</ele><time>2026-04-06T16:18:10.998Z</time></trkpt><trkpt lat="43.058100265633705" lon="11.298596900585128"><ele>406.0</ele><time>2026-04-06T16:18:11.998Z</time></trkpt><trkpt lat="43.05800957936887" lon="11.298476026804664"><ele>404.0</ele><time>2026-04-06T16:18:12.998Z</time></trkpt><trkpt lat="43.05792352861618" lon="11.298337815129884"><ele>404.0</ele><time>2026-04-06T16:18:13.998Z</time></trkpt><trkpt lat="43.05783648779824" lon="11.29820476946651"><ele>404.0</ele><time>2026-04-06T16:18:14.998Z</time></trkpt><trkpt lat="43.05774594834883" lon="11.298070802858295"><ele>404.0</ele><time>2026-04-06T16:18:15.998Z</time></trkpt><trkpt lat="43.057654440184365" lon="11.297932908945619"><ele>404.0</ele><time>2026-04-06T16:18:16.998Z</time></trkpt><trkpt lat="43.057559114549626" lon="11.29779213697132"><ele>404.5</ele><time>2026-04-06T16:18:17.998Z</time></trkpt><trkpt lat="43.05747407318336" lon="11.297650471252906"><ele>405.0</ele><time>2026-04-06T16:18:18.998Z</time></trkpt><trkpt lat="43.05738554601289" lon="11.297505131686092"><ele>405.5</ele><time>2026-04-06T16:18:19.998Z</time></trkpt><trkpt lat="43.057296885055905" lon="11.297366922581952"><ele>406.0</ele><time>2026-04-06T16:18:20.998Z</time></trkpt><trkpt lat="43.057205930127395" lon="11.297230890727464"><ele>403.5</ele><time>2026-04-06T16:18:21.998Z</time></trkpt><trkpt lat="43.05711534705929" lon="11.297118781418188"><ele>401.0</ele><time>2026-04-06T16:18:22.998Z</time></trkpt><trkpt lat="43.05701867846484" lon="11.297013477815359"><ele>398.5</ele><time>2026-04-06T16:18:23.998Z</time></trkpt><trkpt lat="43.05690858726974" lon="11.296921174308233"><ele>396.0</ele><time>2026-04-06T16:18:24.998Z</time></trkpt><trkpt lat="43.05677702458343" lon="11.296873646242384"><ele>396.0</ele><time>2026-04-06T16:18:25.998Z</time></trkpt><trkpt lat="43.05663877175743" lon="11.296824322413718"><ele>396.0</ele><time>2026-04-06T16:18:26.998Z</time></trkpt><trkpt lat="43.05649186576657" lon="11.296809692954268"><ele>396.0</ele><time>2026-04-06T16:18:27.998Z</time></trkpt><trkpt lat="43.05633852903428" lon="11.296796612153203"><ele>396.0</ele><time>2026-04-06T16:18:28.998Z</time></trkpt><trkpt lat="43.056181748464184" lon="11.296783536071793"><ele>393.25</ele><time>2026-04-06T16:18:30Z</time></trkpt><trkpt lat="43.056030132685834" lon="11.296764669094912"><ele>390.5</ele><time>2026-04-06T16:18:31Z</time></trkpt><trkpt lat="43.055893510850744" lon="11.29672289168178"><ele>387.75</ele><time>2026-04-06T16:18:32Z</time></trkpt><trkpt lat="43.05575036380101" lon="11.296706869567265"><ele>385.0</ele><time>2026-04-06T16:18:33Z</time></trkpt><trkpt lat="43.055610822240205" lon="11.296714504447325"><ele>381.75</ele><time>2026-04-06T16:18:34Z</time></trkpt><trkpt lat="43.05547394921206" lon="11.296710633306553"><ele>378.5</ele><time>2026-04-06T16:18:35Z</time></trkpt><trkpt lat="43.05534099375045" lon="11.296690391293824"><ele>375.25</ele><time>2026-04-06T16:18:36Z</time></trkpt><trkpt lat="43.05522157627579" lon="11.296650719114616"><ele>372.0</ele><time>2026-04-06T16:18:37Z</time></trkpt><trkpt lat="43.05510803936494" lon="11.2965769190974"><ele>372.0</ele><time>2026-04-06T16:18:38Z</time></trkpt><trkpt lat="43.05499001236823" lon="11.296458948255948"><ele>372.0</ele><time>2026-04-06T16:18:39Z</time></trkpt><trkpt lat="43.0548818297109" lon="11.29635925745138"><ele>372.0</ele><time>2026-04-06T16:18:40Z</time></trkpt><trkpt lat="43.054790065282766" lon="11.296255774302342"><ele>372.0</ele><time>2026-04-06T16:18:41Z</time></trkpt><trkpt lat="43.05465103886699" lon="11.296157797748188"><ele>369.5</ele><time>2026-04-06T16:18:42Z</time></trkpt><trkpt lat="43.054546968644104" lon="11.296054281399858"><ele>367.0</ele><time>2026-04-06T16:18:43Z</time></trkpt><trkpt lat="43.05443508047513" lon="11.295962728136189"><ele>364.5</ele><time>2026-04-06T16:18:44Z</time></trkpt><trkpt lat="43.05432576275075" lon="11.2958608343288"><ele>362.0</ele><time>2026-04-06T16:18:45Z</time></trkpt><trkpt lat="43.05422787681844" lon="11.295746652477414"><ele>362.0</ele><time>2026-04-06T16:18:46Z</time></trkpt><trkpt lat="43.05413973676718" lon="11.295605901332273"><ele>362.0</ele><time>2026-04-06T16:18:47Z</time></trkpt><trkpt lat="43.0540895109237" lon="11.29544724378926"><ele>362.0</ele><time>2026-04-06T16:18:48Z</time></trkpt><trkpt lat="43.054067782893256" lon="11.295274931168487"><ele>362.0</ele><time>2026-04-06T16:18:49Z</time></trkpt><trkpt lat="43.05406724976555" lon="11.29510779521506"><ele>361.20000000000005</ele><time>2026-04-06T16:18:50Z</time></trkpt><trkpt lat="43.05406871487488" lon="11.294949615270193"><ele>360.4</ele><time>2026-04-06T16:18:51Z</time></trkpt><trkpt lat="43.054027839422154" lon="11.294780775940307"><ele>359.6</ele><time>2026-04-06T16:18:52Z</time></trkpt><trkpt lat="43.05396060992304" lon="11.294658300816687"><ele>358.79999999999995</ele><time>2026-04-06T16:18:53Z</time></trkpt><trkpt lat="43.05388876601413" lon="11.294597077584909"><ele>358.0</ele><time>2026-04-06T16:18:54Z</time></trkpt><trkpt lat="43.05379391633947" lon="11.294555973965432"><ele>361.0</ele><time>2026-04-06T16:18:55Z</time></trkpt><trkpt lat="43.05369432095965" lon="11.294564357312082"><ele>364.0</ele><time>2026-04-06T16:18:56Z</time></trkpt><trkpt lat="43.0535884599641" lon="11.29460989150956"><ele>367.0</ele><time>2026-04-06T16:18:57Z</time></trkpt><trkpt lat="43.05347728209524" lon="11.29466244767661"><ele>370.0</ele><time>2026-04-06T16:18:58Z</time></trkpt><trkpt lat="43.05337503334748" lon="11.294719997978458"><ele>373.0</ele><time>2026-04-06T16:18:59Z</time></trkpt><trkpt lat="43.05326111658501" lon="11.2947333097023"><ele>370.0</ele><time>2026-04-06T16:19:00Z</time></trkpt><trkpt lat="43.053137818394454" lon="11.294776379914477"><ele>367.0</ele><time>2026-04-06T16:19:01Z</time></trkpt><trkpt lat="43.05302163059487" lon="11.2947923781283"><ele>364.0</ele><time>2026-04-06T16:19:02Z</time></trkpt><trkpt lat="43.05288144670307" lon="11.294819682078925"><ele>361.0</ele><time>2026-04-06T16:19:03Z</time></trkpt><trkpt lat="43.05271669628498" lon="11.294802263675622"><ele>361.0</ele><time>2026-04-06T16:19:04Z</time></trkpt><trkpt lat="43.052568912991234" lon="11.294810600593042"><ele>361.0</ele><time>2026-04-06T16:19:04.999Z</time></trkpt><trkpt lat="43.05242680755658" lon="11.294839401964136"><ele>361.0</ele><time>2026-04-06T16:19:05.999Z</time></trkpt><trkpt lat="43.05231295690575" lon="11.294841254422867"><ele>361.0</ele><time>2026-04-06T16:19:06.999Z</time></trkpt><trkpt lat="43.05218902667297" lon="11.294836755053318"><ele>361.0</ele><time>2026-04-06T16:19:07.999Z</time></trkpt><trkpt lat="43.05205754526687" lon="11.294811299427879"><ele>361.0</ele><time>2026-04-06T16:19:08.999Z</time></trkpt><trkpt lat="43.05194629907345" lon="11.29476277859405"><ele>361.0</ele><time>2026-04-06T16:19:09.999Z</time></trkpt><trkpt lat="43.05184971914364" lon="11.294681955247137"><ele>361.0</ele><time>2026-04-06T16:19:10.999Z</time></trkpt><trkpt lat="43.05175140772457" lon="11.294575021015465"><ele>363.75</ele><time>2026-04-06T16:19:11.999Z</time></trkpt><trkpt lat="43.0516515174382" lon="11.294503418249422"><ele>366.5</ele><time>2026-04-06T16:19:12.999Z</time></trkpt><trkpt lat="43.05154187044227" lon="11.29441020321092"><ele>369.25</ele><time>2026-04-06T16:19:13.999Z</time></trkpt><trkpt lat="43.05143093858036" lon="11.294325100101709"><ele>372.0</ele><time>2026-04-06T16:19:14.999Z</time></trkpt><trkpt lat="43.05132315650053" lon="11.294234792490355"><ele>372.0</ele><time>2026-04-06T16:19:15.999Z</time></trkpt><trkpt lat="43.05122431062008" lon="11.294141603163427"><ele>372.0</ele><time>2026-04-06T16:19:16.999Z</time></trkpt><trkpt lat="43.0511329921533" lon="11.294061993086657"><ele>372.0</ele><time>2026-04-06T16:19:17.999Z</time></trkpt><trkpt lat="43.051044488232144" lon="11.29398927231471"><ele>372.0</ele><time>2026-04-06T16:19:18.999Z</time></trkpt><trkpt lat="43.05094882158387" lon="11.293924132909696"><ele>372.0</ele><time>2026-04-06T16:19:19.999Z</time></trkpt><trkpt lat="43.050842881280694" lon="11.293878447367042"><ele>374.5</ele><time>2026-04-06T16:19:20.999Z</time></trkpt><trkpt lat="43.05073196429655" lon="11.29386714524142"><ele>377.0</ele><time>2026-04-06T16:19:21.999Z</time></trkpt><trkpt lat="43.050621918482264" lon="11.293901644403324"><ele>379.5</ele><time>2026-04-06T16:19:22.999Z</time></trkpt><trkpt lat="43.05052545550133" lon="11.29398164329102"><ele>382.0</ele><time>2026-04-06T16:19:23.999Z</time></trkpt><trkpt lat="43.050425907446346" lon="11.294078623597374"><ele>382.0</ele><time>2026-04-06T16:19:24.999Z</time></trkpt><trkpt lat="43.050310222911044" lon="11.294163658850941"><ele>382.0</ele><time>2026-04-06T16:19:25.999Z</time></trkpt><trkpt lat="43.050204465080434" lon="11.294259452681874"><ele>382.0</ele><time>2026-04-06T16:19:26.999Z</time></trkpt><trkpt lat="43.0501200825699" lon="11.29434991946838"><ele>382.0</ele><time>2026-04-06T16:19:27.999Z</time></trkpt><trkpt lat="43.050055210518295" lon="11.294440078175949"><ele>382.0</ele><time>2026-04-06T16:19:28.999Z</time></trkpt><trkpt lat="43.04997373567361" lon="11.294528573482669"><ele>382.0</ele><time>2026-04-06T16:19:29.999Z</time></trkpt><trkpt lat="43.04986412283814" lon="11.294602724170817"><ele>382.0</ele><time>2026-04-06T16:19:30.999Z</time></trkpt><trkpt lat="43.049759071517194" lon="11.294677643864851"><ele>382.0</ele><time>2026-04-06T16:19:31.999Z</time></trkpt><trkpt lat="43.04964375169086" lon="11.294736989585868"><ele>380.0</ele><time>2026-04-06T16:19:32.999Z</time></trkpt><trkpt lat="43.049520375406765" lon="11.294790149308126"><ele>378.0</ele><time>2026-04-06T16:19:33.999Z</time></trkpt><trkpt lat="43.04939363688552" lon="11.294841009464495"><ele>376.0</ele><time>2026-04-06T16:19:34.999Z</time></trkpt><trkpt lat="43.04926330657747" lon="11.294889010100887"><ele>374.0</ele><time>2026-04-06T16:19:35.999Z</time></trkpt><trkpt lat="43.04913391970182" lon="11.294942025192306"><ele>373.25</ele><time>2026-04-06T16:19:36.999Z</time></trkpt><trkpt lat="43.049008479168975" lon="11.295006076941945"><ele>372.5</ele><time>2026-04-06T16:19:37.999Z</time></trkpt><trkpt lat="43.04888848175994" lon="11.295079379307273"><ele>371.75</ele><time>2026-04-06T16:19:38.999Z</time></trkpt><trkpt lat="43.048778737843755" lon="11.295151630863662"><ele>371.0</ele><time>2026-04-06T16:19:39.999Z</time></trkpt><trkpt lat="43.048681169974365" lon="11.295223853708146"><ele>371.0</ele><time>2026-04-06T16:19:40.999Z</time></trkpt><trkpt lat="43.048594926216026" lon="11.295292414779576"><ele>371.0</ele><time>2026-04-06T16:19:41.999Z</time></trkpt><trkpt lat="43.04852279347135" lon="11.295353961050782"><ele>371.0</ele><time>2026-04-06T16:19:42.999Z</time></trkpt><trkpt lat="43.04845189760069" lon="11.295397523159613"><ele>371.0</ele><time>2026-04-06T16:19:43.999Z</time></trkpt><trkpt lat="43.04838882957075" lon="11.295415338042455"><ele>371.0</ele><time>2026-04-06T16:19:44.999Z</time></trkpt><trkpt lat="43.04830827531406" lon="11.29540576011238"><ele>371.0</ele><time>2026-04-06T16:19:46.999Z</time></trkpt><trkpt lat="43.04821214090997" lon="11.295408763563868"><ele>369.6</ele><time>2026-04-06T16:20:01.998Z</time></trkpt><trkpt lat="43.04810500981626" lon="11.295507529214062"><ele>368.20000000000005</ele><time>2026-04-06T16:20:03.998Z</time></trkpt><trkpt lat="43.048060053670966" lon="11.295605985704762"><ele>366.79999999999995</ele><time>2026-04-06T16:20:04.998Z</time></trkpt><trkpt lat="43.0480152684517" lon="11.295711245656644"><ele>365.4</ele><time>2026-04-06T16:20:05.998Z</time></trkpt><trkpt lat="43.047948889974705" lon="11.295821433048404"><ele>364.0</ele><time>2026-04-06T16:20:06.998Z</time></trkpt><trkpt lat="43.04785620384075" lon="11.295914270743927"><ele>364.0</ele><time>2026-04-06T16:20:07.998Z</time></trkpt><trkpt lat="43.047750197626385" lon="11.29599016980374"><ele>364.0</ele><time>2026-04-06T16:20:08.998Z</time></trkpt><trkpt lat="43.047633360081164" lon="11.296070879298215"><ele>364.0</ele><time>2026-04-06T16:20:09.998Z</time></trkpt><trkpt lat="43.0475170788288" lon="11.296160043309962"><ele>364.0</ele><time>2026-04-06T16:20:10.998Z</time></trkpt><trkpt lat="43.047405032154835" lon="11.296251379613807"><ele>364.25</ele><time>2026-04-06T16:20:11.998Z</time></trkpt><trkpt lat="43.047294731871" lon="11.296344644103037"><ele>364.5</ele><time>2026-04-06T16:20:12.998Z</time></trkpt><trkpt lat="43.04717749774858" lon="11.296443991337371"><ele>364.75</ele><time>2026-04-06T16:20:13.998Z</time></trkpt><trkpt lat="43.0470538583951" lon="11.29654628305321"><ele>365.0</ele><time>2026-04-06T16:20:14.998Z</time></trkpt><trkpt lat="43.046923182244406" lon="11.29664408238784"><ele>365.0</ele><time>2026-04-06T16:20:15.998Z</time></trkpt><trkpt lat="43.04678675127622" lon="11.296738181921183"><ele>365.0</ele><time>2026-04-06T16:20:16.998Z</time></trkpt><trkpt lat="43.04664818633472" lon="11.296839792672895"><ele>365.0</ele><time>2026-04-06T16:20:17.998Z</time></trkpt><trkpt lat="43.04650934904704" lon="11.29694404282866"><ele>365.6666666666667</ele><time>2026-04-06T16:20:18.998Z</time></trkpt><trkpt lat="43.04636834865403" lon="11.297033998037575"><ele>366.3333333333333</ele><time>2026-04-06T16:20:19.998Z</time></trkpt><trkpt lat="43.04623085648268" lon="11.297124975271197"><ele>367.0</ele><time>2026-04-06T16:20:20.998Z</time></trkpt><trkpt lat="43.046095872491044" lon="11.297228523195113"><ele>366.66666666666663</ele><time>2026-04-06T16:20:21.998Z</time></trkpt><trkpt lat="43.04595701084197" lon="11.297333698443538"><ele>366.3333333333333</ele><time>2026-04-06T16:20:22.998Z</time></trkpt><trkpt lat="43.04582354101062" lon="11.297439436558236"><ele>366.0</ele><time>2026-04-06T16:20:23.998Z</time></trkpt><trkpt lat="43.04569364380222" lon="11.29753961404587"><ele>367.25</ele><time>2026-04-06T16:20:24.998Z</time></trkpt><trkpt lat="43.04557366395885" lon="11.297629490679974"><ele>368.5</ele><time>2026-04-06T16:20:25.998Z</time></trkpt><trkpt lat="43.045441002634284" lon="11.297674408279814"><ele>369.75</ele><time>2026-04-06T16:20:26.998Z</time></trkpt><trkpt lat="43.045337903625196" lon="11.29774881383881"><ele>371.0</ele><time>2026-04-06T16:20:27.998Z</time></trkpt><trkpt lat="43.04524330120499" lon="11.297817087386415"><ele>371.0</ele><time>2026-04-06T16:20:28.998Z</time></trkpt><trkpt lat="43.045145122169124" lon="11.297897319424745"><ele>371.0</ele><time>2026-04-06T16:20:29.998Z</time></trkpt><trkpt lat="43.04504012602582" lon="11.297929827230881"><ele>371.0</ele><time>2026-04-06T16:20:30.998Z</time></trkpt><trkpt lat="43.044921390834205" lon="11.297959446774533"><ele>371.0</ele><time>2026-04-06T16:20:31.998Z</time></trkpt><trkpt lat="43.04479465647492" lon="11.298007121210219"><ele>371.5</ele><time>2026-04-06T16:20:32.998Z</time></trkpt><trkpt lat="43.04468143662628" lon="11.298030627622706"><ele>372.0</ele><time>2026-04-06T16:20:33.998Z</time></trkpt><trkpt lat="43.04455556516436" lon="11.298089060171694"><ele>372.5</ele><time>2026-04-06T16:20:34.998Z</time></trkpt><trkpt lat="43.044424804340444" lon="11.298119967166734"><ele>373.0</ele><time>2026-04-06T16:20:36Z</time></trkpt><trkpt lat="43.04428082853187" lon="11.298138268784994"><ele>375.0</ele><time>2026-04-06T16:20:37Z</time></trkpt><trkpt lat="43.04413973751982" lon="11.29813581486943"><ele>377.0</ele><time>2026-04-06T16:20:38Z</time></trkpt><trkpt lat="43.044020985639236" lon="11.298135698969112"><ele>379.0</ele><time>2026-04-06T16:20:39Z</time></trkpt><trkpt lat="43.04389391240584" lon="11.298097496203246"><ele>381.0</ele><time>2026-04-06T16:20:40Z</time></trkpt><trkpt lat="43.04377023840153" lon="11.298052648670593"><ele>381.75</ele><time>2026-04-06T16:20:41Z</time></trkpt><trkpt lat="43.04365463523769" lon="11.297994257172983"><ele>382.5</ele><time>2026-04-06T16:20:42Z</time></trkpt><trkpt lat="43.04353110996934" lon="11.297928911709938"><ele>383.25</ele><time>2026-04-06T16:20:43Z</time></trkpt><trkpt lat="43.04338311576435" lon="11.297899195941952"><ele>384.0</ele><time>2026-04-06T16:20:44Z</time></trkpt><trkpt lat="43.04324518529058" lon="11.297921270131086"><ele>387.0</ele><time>2026-04-06T16:20:45Z</time></trkpt><trkpt lat="43.04311485777765" lon="11.297957832252285"><ele>390.0</ele><time>2026-04-06T16:20:46Z</time></trkpt><trkpt lat="43.04298271681546" lon="11.29799707222443"><ele>393.0</ele><time>2026-04-06T16:20:47Z</time></trkpt><trkpt lat="43.04286150324826" lon="11.29802939474607"><ele>396.0</ele><time>2026-04-06T16:20:48Z</time></trkpt><trkpt lat="43.042721535755526" lon="11.29804357086064"><ele>396.0</ele><time>2026-04-06T16:20:49Z</time></trkpt><trkpt lat="43.042572629685054" lon="11.298024002742977"><ele>396.0</ele><time>2026-04-06T16:20:50Z</time></trkpt><trkpt lat="43.04246210971737" lon="11.2979883600397"><ele>396.0</ele><time>2026-04-06T16:20:51Z</time></trkpt><trkpt lat="43.042345866010635" lon="11.297935979548628"><ele>396.0</ele><time>2026-04-06T16:20:52Z</time></trkpt><trkpt lat="43.04224361777839" lon="11.297857467277417"><ele>400.75</ele><time>2026-04-06T16:20:53Z</time></trkpt><trkpt lat="43.04215819780563" lon="11.297746230964961"><ele>405.5</ele><time>2026-04-06T16:20:54Z</time></trkpt><trkpt lat="43.04206381135619" lon="11.297602560249787"><ele>410.25</ele><time>2026-04-06T16:20:55Z</time></trkpt><trkpt lat="43.04193829815718" lon="11.29751152693098"><ele>415.0</ele><time>2026-04-06T16:20:56Z</time></trkpt><trkpt lat="43.04182247628336" lon="11.297458900129037"><ele>415.0</ele><time>2026-04-06T16:20:57Z</time></trkpt><trkpt lat="43.04170591250255" lon="11.297403195635013"><ele>415.0</ele><time>2026-04-06T16:20:58Z</time></trkpt><trkpt lat="43.04165281402351" lon="11.297344678707903"><ele>415.0</ele><time>2026-04-06T16:20:59Z</time></trkpt><trkpt lat="43.04157295364608" lon="11.29724619343982"><ele>415.0</ele><time>2026-04-06T16:21:00Z</time></trkpt><trkpt lat="43.04146324209465" lon="11.29715402678745"><ele>415.0</ele><time>2026-04-06T16:21:01Z</time></trkpt><trkpt lat="43.041303192271116" lon="11.297117132161516"><ele>414.6</ele><time>2026-04-06T16:21:02Z</time></trkpt><trkpt lat="43.041146680896055" lon="11.297212998669064"><ele>414.2</ele><time>2026-04-06T16:21:03Z</time></trkpt><trkpt lat="43.041073579239466" lon="11.297262920139486"><ele>413.79999999999995</ele><time>2026-04-06T16:21:04Z</time></trkpt><trkpt lat="43.04100791231337" lon="11.297306176204689"><ele>413.4</ele><time>2026-04-06T16:21:05Z</time></trkpt><trkpt lat="43.04089467066004" lon="11.297309873703584"><ele>413.0</ele><time>2026-04-06T16:21:07Z</time></trkpt><trkpt lat="43.04077861507833" lon="11.297292755078598"><ele>416.0</ele><time>2026-04-06T16:21:08Z</time></trkpt><trkpt lat="43.04064374772126" lon="11.297272425396297"><ele>419.0</ele><time>2026-04-06T16:21:09Z</time></trkpt><trkpt lat="43.040505138211465" lon="11.297256076491331"><ele>422.0</ele><time>2026-04-06T16:21:10Z</time></trkpt><trkpt lat="43.04037798884204" lon="11.297246936448733"><ele>425.0</ele><time>2026-04-06T16:21:10.999Z</time></trkpt><trkpt lat="43.040232310925745" lon="11.297246667628333"><ele>425.0</ele><time>2026-04-06T16:21:11.999Z</time></trkpt><trkpt lat="43.04007642803279" lon="11.297263723714599"><ele>425.0</ele><time>2026-04-06T16:21:12.999Z</time></trkpt><trkpt lat="43.039904576851505" lon="11.297286186311672"><ele>425.0</ele><time>2026-04-06T16:21:13.999Z</time></trkpt><trkpt lat="43.03972771549539" lon="11.297317277880824"><ele>423.66666666666663</ele><time>2026-04-06T16:21:14.999Z</time></trkpt><trkpt lat="43.03955591981123" lon="11.29735810777289"><ele>422.33333333333337</ele><time>2026-04-06T16:21:15.999Z</time></trkpt><trkpt lat="43.039374565565176" lon="11.297423525384533"><ele>421.0</ele><time>2026-04-06T16:21:16.999Z</time></trkpt><trkpt lat="43.039218651497535" lon="11.297497094332623"><ele>416.6666666666667</ele><time>2026-04-06T16:21:17.999Z</time></trkpt><trkpt lat="43.0390651360177" lon="11.297571545548033"><ele>412.33333333333337</ele><time>2026-04-06T16:21:18.999Z</time></trkpt><trkpt lat="43.03890345109944" lon="11.297652169031739"><ele>408.0</ele><time>2026-04-06T16:21:19.999Z</time></trkpt><trkpt lat="43.03872906453244" lon="11.297748856828886"><ele>408.0</ele><time>2026-04-06T16:21:20.999Z</time></trkpt><trkpt lat="43.03857032345125" lon="11.297861644378164"><ele>408.0</ele><time>2026-04-06T16:21:21.999Z</time></trkpt><trkpt lat="43.03840089893843" lon="11.297987455908663"><ele>408.0</ele><time>2026-04-06T16:21:22.999Z</time></trkpt><trkpt lat="43.03823467178198" lon="11.298109890029215"><ele>405.33333333333337</ele><time>2026-04-06T16:21:23.999Z</time></trkpt><trkpt lat="43.03807033651135" lon="11.29822804354115"><ele>402.6666666666667</ele><time>2026-04-06T16:21:24.999Z</time></trkpt><trkpt lat="43.037905028098486" lon="11.29834490650113"><ele>400.0</ele><time>2026-04-06T16:21:25.999Z</time></trkpt><trkpt lat="43.037741812141434" lon="11.298453805384193"><ele>400.0</ele><time>2026-04-06T16:21:26.999Z</time></trkpt><trkpt lat="43.0375774794661" lon="11.298548277372921"><ele>400.0</ele><time>2026-04-06T16:21:27.999Z</time></trkpt><trkpt lat="43.03742174725413" lon="11.298636384579504"><ele>400.0</ele><time>2026-04-06T16:21:28.999Z</time></trkpt><trkpt lat="43.03726502999432" lon="11.298722433172053"><ele>397.0</ele><time>2026-04-06T16:21:29.999Z</time></trkpt><trkpt lat="43.037094963170986" lon="11.298781270462792"><ele>394.0</ele><time>2026-04-06T16:21:30.999Z</time></trkpt><trkpt lat="43.03693527623346" lon="11.29879591209617"><ele>391.0</ele><time>2026-04-06T16:21:31.999Z</time></trkpt><trkpt lat="43.03679146983288" lon="11.298811177009613"><ele>388.6666666666667</ele><time>2026-04-06T16:21:32.999Z</time></trkpt><trkpt lat="43.03661970069351" lon="11.298848338658628"><ele>386.33333333333337</ele><time>2026-04-06T16:21:33.999Z</time></trkpt><trkpt lat="43.03645121408048" lon="11.29889999058847"><ele>384.0</ele><time>2026-04-06T16:21:34.999Z</time></trkpt><trkpt lat="43.03629706192151" lon="11.298961573390924"><ele>384.0</ele><time>2026-04-06T16:21:35.999Z</time></trkpt><trkpt lat="43.03614078608665" lon="11.299025037185288"><ele>384.0</ele><time>2026-04-06T16:21:36.999Z</time></trkpt><trkpt lat="43.03595464139981" lon="11.299103636108896"><ele>384.0</ele><time>2026-04-06T16:21:37.999Z</time></trkpt><trkpt lat="43.03577327979422" lon="11.299211559662828"><ele>380.3333333333333</ele><time>2026-04-06T16:21:38.999Z</time></trkpt><trkpt lat="43.0355905233164" lon="11.299341620445743"><ele>376.66666666666663</ele><time>2026-04-06T16:21:39.999Z</time></trkpt><trkpt lat="43.03541204062909" lon="11.299478087517514"><ele>373.0</ele><time>2026-04-06T16:21:40.999Z</time></trkpt><trkpt lat="43.03522701277111" lon="11.299612936077128"><ele>373.0</ele><time>2026-04-06T16:21:41.999Z</time></trkpt><trkpt lat="43.035054579730925" lon="11.299735445388748"><ele>373.0</ele><time>2026-04-06T16:21:42.999Z</time></trkpt><trkpt lat="43.03488494487551" lon="11.299858935151669"><ele>373.0</ele><time>2026-04-06T16:21:43.999Z</time></trkpt><trkpt lat="43.03472106612188" lon="11.299978304799902"><ele>372.0</ele><time>2026-04-06T16:21:44.999Z</time></trkpt><trkpt lat="43.03456305968967" lon="11.300094040599964"><ele>371.0</ele><time>2026-04-06T16:21:45.999Z</time></trkpt><trkpt lat="43.03439721385625" lon="11.300208520299744"><ele>370.0</ele><time>2026-04-06T16:21:46.999Z</time></trkpt><trkpt lat="43.03422310069865" lon="11.3003156541432"><ele>368.66666666666663</ele><time>2026-04-06T16:21:47.999Z</time></trkpt><trkpt lat="43.03405223498281" lon="11.300412067299414"><ele>367.3333333333333</ele><time>2026-04-06T16:21:48.999Z</time></trkpt><trkpt lat="43.033880927805704" lon="11.300508040460748"><ele>366.0</ele><time>2026-04-06T16:21:49.999Z</time></trkpt><trkpt lat="43.0337073825421" lon="11.300599552458308"><ele>367.6666666666667</ele><time>2026-04-06T16:21:50.999Z</time></trkpt><trkpt lat="43.033522850287355" lon="11.300692479425026"><ele>369.33333333333337</ele><time>2026-04-06T16:21:51.999Z</time></trkpt><trkpt lat="43.03335768971" lon="11.300776992606323"><ele>371.0</ele><time>2026-04-06T16:21:52.999Z</time></trkpt><trkpt lat="43.033180295408926" lon="11.300871221134674"><ele>371.0</ele><time>2026-04-06T16:21:53.999Z</time></trkpt><trkpt lat="43.033016505805996" lon="11.300977091781087"><ele>371.0</ele><time>2026-04-06T16:21:54.999Z</time></trkpt><trkpt lat="43.03285571623561" lon="11.301051639837635"><ele>371.0</ele><time>2026-04-06T16:21:55.999Z</time></trkpt><trkpt lat="43.03274961718956" lon="11.301191199450885"><ele>371.0</ele><time>2026-04-06T16:21:56.999Z</time></trkpt><trkpt lat="43.032663562004814" lon="11.301336869118927"><ele>371.0</ele><time>2026-04-06T16:21:57.999Z</time></trkpt><trkpt lat="43.032585307021606" lon="11.301483129544737"><ele>371.0</ele><time>2026-04-06T16:21:58.999Z</time></trkpt><trkpt lat="43.03249875113244" lon="11.301653697804262"><ele>371.0</ele><time>2026-04-06T16:21:59.999Z</time></trkpt><trkpt lat="43.032377307434594" lon="11.301822364977237"><ele>372.33333333333337</ele><time>2026-04-06T16:22:00.999Z</time></trkpt><trkpt lat="43.03220118013799" lon="11.30198056362599"><ele>373.6666666666667</ele><time>2026-04-06T16:22:01.999Z</time></trkpt><trkpt lat="43.032043966918856" lon="11.302067091523423"><ele>375.0</ele><time>2026-04-06T16:22:02.999Z</time></trkpt><trkpt lat="43.031882576478345" lon="11.302119654638279"><ele>375.0</ele><time>2026-04-06T16:22:03.999Z</time></trkpt><trkpt lat="43.03173186320256" lon="11.302150883629091"><ele>375.0</ele><time>2026-04-06T16:22:04.999Z</time></trkpt><trkpt lat="43.03158005063662" lon="11.30219844245969"><ele>375.0</ele><time>2026-04-06T16:22:05.999Z</time></trkpt><trkpt lat="43.031384967071624" lon="11.302188923520369"><ele>375.3333333333333</ele><time>2026-04-06T16:22:06.998Z</time></trkpt><trkpt lat="43.03126533677022" lon="11.302195219860998"><ele>375.66666666666663</ele><time>2026-04-06T16:22:07.998Z</time></trkpt><trkpt lat="43.031083907424765" lon="11.30220469823143"><ele>376.0</ele><time>2026-04-06T16:22:08.998Z</time></trkpt><trkpt lat="43.03091712022873" lon="11.302217406835187"><ele>378.3333333333333</ele><time>2026-04-06T16:22:09.998Z</time></trkpt><trkpt lat="43.03076589634584" lon="11.30222549065395"><ele>380.6666666666667</ele><time>2026-04-06T16:22:10.998Z</time></trkpt><trkpt lat="43.03061053726828" lon="11.302226401865372"><ele>383.0</ele><time>2026-04-06T16:22:11.998Z</time></trkpt><trkpt lat="43.03044268963222" lon="11.302220151904205"><ele>383.0</ele><time>2026-04-06T16:22:12.998Z</time></trkpt><trkpt lat="43.03029167803833" lon="11.302217589404847"><ele>383.0</ele><time>2026-04-06T16:22:13.998Z</time></trkpt><trkpt lat="43.03014526515567" lon="11.302254066505673"><ele>383.0</ele><time>2026-04-06T16:22:14.998Z</time></trkpt><trkpt lat="43.03001152614163" lon="11.302294955946868"><ele>383.0</ele><time>2026-04-06T16:22:15.998Z</time></trkpt><trkpt lat="43.02991853276035" lon="11.302389668932326"><ele>381.0</ele><time>2026-04-06T16:22:16.998Z</time></trkpt><trkpt lat="43.02980898469831" lon="11.302504982477393"><ele>379.0</ele><time>2026-04-06T16:22:17.998Z</time></trkpt><trkpt lat="43.029685195276464" lon="11.302636528134455"><ele>377.0</ele><time>2026-04-06T16:22:18.998Z</time></trkpt><trkpt lat="43.02956302154174" lon="11.30276050811745"><ele>375.0</ele><time>2026-04-06T16:22:19.998Z</time></trkpt><trkpt lat="43.02944885592432" lon="11.302887001228777"><ele>375.0</ele><time>2026-04-06T16:22:20.998Z</time></trkpt><trkpt lat="43.02935104913513" lon="11.30299673586025"><ele>375.0</ele><time>2026-04-06T16:22:21.998Z</time></trkpt><trkpt lat="43.02923838784381" lon="11.303135967506261"><ele>375.0</ele><time>2026-04-06T16:22:22.998Z</time></trkpt><trkpt lat="43.02914259935444" lon="11.30328268209052"><ele>375.0</ele><time>2026-04-06T16:22:23.998Z</time></trkpt><trkpt lat="43.0290775834044" lon="11.30344287568864"><ele>371.25</ele><time>2026-04-06T16:22:24.998Z</time></trkpt><trkpt lat="43.029023344410355" lon="11.303607161072359"><ele>367.5</ele><time>2026-04-06T16:22:25.998Z</time></trkpt><trkpt lat="43.028991798235275" lon="11.303782496057869"><ele>363.75</ele><time>2026-04-06T16:22:26.998Z</time></trkpt><trkpt lat="43.02895595074609" lon="11.303952343358812"><ele>360.0</ele><time>2026-04-06T16:22:27.998Z</time></trkpt><trkpt lat="43.02888862162702" lon="11.304102153366511"><ele>360.0</ele><time>2026-04-06T16:22:28.998Z</time></trkpt><trkpt lat="43.02881633233566" lon="11.304242088759446"><ele>360.0</ele><time>2026-04-06T16:22:29.998Z</time></trkpt><trkpt lat="43.02876010707548" lon="11.304386927985885"><ele>360.0</ele><time>2026-04-06T16:22:30.998Z</time></trkpt><trkpt lat="43.0287297983221" lon="11.304539497094172"><ele>360.0</ele><time>2026-04-06T16:22:31.998Z</time></trkpt><trkpt lat="43.028739378821" lon="11.304705682086922"><ele>360.5</ele><time>2026-04-06T16:22:32.998Z</time></trkpt><trkpt lat="43.028767906222605" lon="11.3048826897951"><ele>361.0</ele><time>2026-04-06T16:22:33.998Z</time></trkpt><trkpt lat="43.028778338858295" lon="11.305072604725419"><ele>361.5</ele><time>2026-04-06T16:22:34.998Z</time></trkpt><trkpt lat="43.028752422214694" lon="11.305257569589065"><ele>362.0</ele><time>2026-04-06T16:22:35.998Z</time></trkpt><trkpt lat="43.02870277870028" lon="11.305430876976496"><ele>362.0</ele><time>2026-04-06T16:22:36.998Z</time></trkpt><trkpt lat="43.0286247753476" lon="11.305571212598103"><ele>362.0</ele><time>2026-04-06T16:22:37.998Z</time></trkpt><trkpt lat="43.02851087284645" lon="11.305648490395141"><ele>362.0</ele><time>2026-04-06T16:22:38.998Z</time></trkpt><trkpt lat="43.02840514708077" lon="11.305746396963714"><ele>362.0</ele><time>2026-04-06T16:22:39.998Z</time></trkpt><trkpt lat="43.028288529809906" lon="11.305853744701961"><ele>361.6666666666667</ele><time>2026-04-06T16:22:40.998Z</time></trkpt><trkpt lat="43.028159768740785" lon="11.305964947439358"><ele>361.3333333333333</ele><time>2026-04-06T16:22:42Z</time></trkpt><trkpt lat="43.028028858833466" lon="11.30607800599025"><ele>361.0</ele><time>2026-04-06T16:22:43Z</time></trkpt><trkpt lat="43.02790427681519" lon="11.306185282394901"><ele>361.0</ele><time>2026-04-06T16:22:44Z</time></trkpt><trkpt lat="43.02777758619686" lon="11.306283001805047"><ele>361.0</ele><time>2026-04-06T16:22:45Z</time></trkpt><trkpt lat="43.027666455725615" lon="11.306343713547546"><ele>361.0</ele><time>2026-04-06T16:22:46Z</time></trkpt><trkpt lat="43.02757549727583" lon="11.306347769449355"><ele>361.0</ele><time>2026-04-06T16:22:47Z</time></trkpt><trkpt lat="43.027491145061006" lon="11.306312619197756"><ele>361.0</ele><time>2026-04-06T16:22:48Z</time></trkpt><trkpt lat="43.027399893488656" lon="11.306227662649873"><ele>359.75</ele><time>2026-04-06T16:22:49Z</time></trkpt><trkpt lat="43.02725732167878" lon="11.3061926957462"><ele>358.5</ele><time>2026-04-06T16:22:50Z</time></trkpt><trkpt lat="43.02714206961652" lon="11.306212008686387"><ele>357.25</ele><time>2026-04-06T16:22:51Z</time></trkpt><trkpt lat="43.02701570212193" lon="11.306258139603067"><ele>356.0</ele><time>2026-04-06T16:22:52Z</time></trkpt><trkpt lat="43.026913933044995" lon="11.306322105212745"><ele>356.0</ele><time>2026-04-06T16:22:53Z</time></trkpt><trkpt lat="43.026762179953685" lon="11.306395066813458"><ele>356.0</ele><time>2026-04-06T16:22:54Z</time></trkpt><trkpt lat="43.02659124530694" lon="11.306510795209602"><ele>356.0</ele><time>2026-04-06T16:22:55Z</time></trkpt><trkpt lat="43.02644364446853" lon="11.306636121771824"><ele>355.6666666666667</ele><time>2026-04-06T16:22:56Z</time></trkpt><trkpt lat="43.02632559668067" lon="11.306816174352058"><ele>355.3333333333333</ele><time>2026-04-06T16:22:57Z</time></trkpt><trkpt lat="43.02624165781012" lon="11.306962424170356"><ele>355.0</ele><time>2026-04-06T16:22:58Z</time></trkpt><trkpt lat="43.026157271140846" lon="11.307111671503892"><ele>356.75</ele><time>2026-04-06T16:22:59Z</time></trkpt><trkpt lat="43.02601275089435" lon="11.307251978822238"><ele>358.5</ele><time>2026-04-06T16:23:00Z</time></trkpt><trkpt lat="43.025880677103835" lon="11.307277405994492"><ele>360.25</ele><time>2026-04-06T16:23:01Z</time></trkpt><trkpt lat="43.02580071018605" lon="11.307204580147616"><ele>362.0</ele><time>2026-04-06T16:23:03Z</time></trkpt><trkpt lat="43.025728169179374" lon="11.307172793108677"><ele>356.75</ele><time>2026-04-06T16:23:04Z</time></trkpt><trkpt lat="43.0256484907093" lon="11.307143236788614"><ele>351.5</ele><time>2026-04-06T16:23:05Z</time></trkpt><trkpt lat="43.02550894246257" lon="11.307097003721317"><ele>346.25</ele><time>2026-04-06T16:23:06Z</time></trkpt><trkpt lat="43.02538814400839" lon="11.307074534718378"><ele>341.0</ele><time>2026-04-06T16:23:07Z</time></trkpt><trkpt lat="43.02527220783987" lon="11.307082391284396"><ele>341.0</ele><time>2026-04-06T16:23:08Z</time></trkpt><trkpt lat="43.02511872492841" lon="11.307111978116417"><ele>341.0</ele><time>2026-04-06T16:23:09Z</time></trkpt><trkpt lat="43.02501794838102" lon="11.307151451611508"><ele>341.0</ele><time>2026-04-06T16:23:10Z</time></trkpt><trkpt lat="43.02485710490563" lon="11.30718368511646"><ele>341.0</ele><time>2026-04-06T16:23:11Z</time></trkpt><trkpt lat="43.02469656625338" lon="11.307262369769667"><ele>342.33333333333337</ele><time>2026-04-06T16:23:12Z</time></trkpt><trkpt lat="43.02453000247884" lon="11.307316299433166"><ele>343.6666666666667</ele><time>2026-04-06T16:23:13Z</time></trkpt><trkpt lat="43.02436728415643" lon="11.307372295553343"><ele>345.0</ele><time>2026-04-06T16:23:14Z</time></trkpt><trkpt lat="43.02419824115892" lon="11.307427144351399"><ele>341.6666666666667</ele><time>2026-04-06T16:23:15Z</time></trkpt><trkpt lat="43.02402902494149" lon="11.30746616147853"><ele>338.33333333333337</ele><time>2026-04-06T16:23:16Z</time></trkpt><trkpt lat="43.02383301274609" lon="11.307509343180438"><ele>335.0</ele><time>2026-04-06T16:23:17Z</time></trkpt><trkpt lat="43.02366078770391" lon="11.307549314549508"><ele>335.0</ele><time>2026-04-06T16:23:18Z</time></trkpt><trkpt lat="43.02349580198512" lon="11.307584344334675"><ele>335.0</ele><time>2026-04-06T16:23:19Z</time></trkpt><trkpt lat="43.023331071654376" lon="11.307611444899171"><ele>335.0</ele><time>2026-04-06T16:23:19.999Z</time></trkpt><trkpt lat="43.02317443340759" lon="11.307653538775119"><ele>333.0</ele><time>2026-04-06T16:23:20.999Z</time></trkpt><trkpt lat="43.02301205007039" lon="11.30771759160578"><ele>331.0</ele><time>2026-04-06T16:23:21.999Z</time></trkpt><trkpt lat="43.022875329967576" lon="11.30783801223539"><ele>329.0</ele><time>2026-04-06T16:23:22.999Z</time></trkpt><trkpt lat="43.02273982941929" lon="11.307959910155965"><ele>330.0</ele><time>2026-04-06T16:23:23.999Z</time></trkpt><trkpt lat="43.02259454194176" lon="11.30808239132781"><ele>331.0</ele><time>2026-04-06T16:23:24.999Z</time></trkpt><trkpt lat="43.022452717978176" lon="11.308171681400548"><ele>332.0</ele><time>2026-04-06T16:23:25.999Z</time></trkpt><trkpt lat="43.02232042133655" lon="11.308263520950707"><ele>329.33333333333337</ele><time>2026-04-06T16:23:26.999Z</time></trkpt><trkpt lat="43.02216433817922" lon="11.30831854492871"><ele>326.6666666666667</ele><time>2026-04-06T16:23:27.999Z</time></trkpt><trkpt lat="43.022016118813845" lon="11.3083709350005"><ele>324.0</ele><time>2026-04-06T16:23:28.999Z</time></trkpt><trkpt lat="43.02185608740571" lon="11.308420258029873"><ele>324.0</ele><time>2026-04-06T16:23:29.999Z</time></trkpt><trkpt lat="43.021699115283525" lon="11.308469501507869"><ele>324.0</ele><time>2026-04-06T16:23:30.999Z</time></trkpt><trkpt lat="43.02154819575573" lon="11.30851861087537"><ele>324.0</ele><time>2026-04-06T16:23:31.999Z</time></trkpt><trkpt lat="43.02140428942091" lon="11.30856739415383"><ele>322.5</ele><time>2026-04-06T16:23:32.999Z</time></trkpt><trkpt lat="43.021278284802754" lon="11.308637305429531"><ele>321.0</ele><time>2026-04-06T16:23:33.999Z</time></trkpt><trkpt lat="43.02117683494575" lon="11.308642143341027"><ele>319.5</ele><time>2026-04-06T16:23:34.999Z</time></trkpt><trkpt lat="43.02109244376888" lon="11.308672225688985"><ele>318.0</ele><time>2026-04-06T16:23:37.999Z</time></trkpt><trkpt lat="43.02115827266354" lon="11.308466216731718"><ele>318.0</ele><time>2026-04-06T16:23:39.999Z</time></trkpt><trkpt lat="43.021160234568114" lon="11.308364322471084"><ele>318.0</ele><time>2026-04-06T16:23:41.999Z</time></trkpt><trkpt lat="43.02116771591019" lon="11.308267137745865"><ele>318.0</ele><time>2026-04-06T16:23:43.999Z</time></trkpt><trkpt lat="43.02117570704618" lon="11.308150130603716"><ele>318.0</ele><time>2026-04-06T16:23:46.999Z</time></trkpt><trkpt lat="43.021189294052895" lon="11.308044894255385"><ele>318.0</ele><time>2026-04-06T16:23:48.999Z</time></trkpt><trkpt lat="43.02119868321329" lon="11.307889208444518"><ele>318.0</ele><time>2026-04-06T16:23:50.999Z</time></trkpt><trkpt lat="43.02119648374891" lon="11.30778622414864"><ele>316.2</ele><time>2026-04-06T16:23:51.999Z</time></trkpt><trkpt lat="43.02118698792706" lon="11.307667838663102"><ele>314.4</ele><time>2026-04-06T16:23:52.999Z</time></trkpt><trkpt lat="43.02114899100941" lon="11.307526570076982"><ele>312.59999999999997</ele><time>2026-04-06T16:23:53.999Z</time></trkpt><trkpt lat="43.021082528072334" lon="11.307379310246215"><ele>310.8</ele><time>2026-04-06T16:23:54.999Z</time></trkpt><trkpt lat="43.02099767301216" lon="11.307262068438435"><ele>309.0</ele><time>2026-04-06T16:23:55.999Z</time></trkpt><trkpt lat="43.02092943854449" lon="11.30717290798034"><ele>307.59999999999997</ele><time>2026-04-06T16:23:56.999Z</time></trkpt><trkpt lat="43.02085022129946" lon="11.307078184293486"><ele>306.2</ele><time>2026-04-06T16:23:57.999Z</time></trkpt><trkpt lat="43.0207696361714" lon="11.306991214778035"><ele>304.79999999999995</ele><time>2026-04-06T16:23:58.999Z</time></trkpt><trkpt lat="43.02068531454654" lon="11.306908887451373"><ele>303.4</ele><time>2026-04-06T16:23:59.999Z</time></trkpt><trkpt lat="43.02060320105477" lon="11.306840361257597"><ele>302.0</ele><time>2026-04-06T16:24:00.999Z</time></trkpt><trkpt lat="43.02051759965422" lon="11.306799383361255"><ele>301.0</ele><time>2026-04-06T16:24:01.999Z</time></trkpt><trkpt lat="43.02042864160826" lon="11.306787933456338"><ele>300.0</ele><time>2026-04-06T16:24:02.999Z</time></trkpt><trkpt lat="43.020347418201794" lon="11.306745590482155"><ele>299.0</ele><time>2026-04-06T16:24:03.999Z</time></trkpt><trkpt lat="43.020254189206014" lon="11.306711642295973"><ele>298.0</ele><time>2026-04-06T16:24:04.999Z</time></trkpt><trkpt lat="43.020134327686065" lon="11.306690076002454"><ele>297.0</ele><time>2026-04-06T16:24:05.999Z</time></trkpt><trkpt lat="43.02000783939891" lon="11.306593981819969"><ele>294.75</ele><time>2026-04-06T16:24:06.999Z</time></trkpt><trkpt lat="43.01990013474817" lon="11.306461227459543"><ele>292.5</ele><time>2026-04-06T16:24:07.999Z</time></trkpt><trkpt lat="43.01979187506001" lon="11.306347913389459"><ele>290.25</ele><time>2026-04-06T16:24:08.999Z</time></trkpt><trkpt lat="43.019737866728896" lon="11.306210519349323"><ele>288.0</ele><time>2026-04-06T16:24:09.999Z</time></trkpt><trkpt lat="43.019642859079724" lon="11.306099892165047"><ele>287.0</ele><time>2026-04-06T16:24:10.999Z</time></trkpt><trkpt lat="43.019536649824566" lon="11.305989259429197"><ele>286.0</ele><time>2026-04-06T16:24:11.999Z</time></trkpt><trkpt lat="43.01943150813587" lon="11.305890832833198"><ele>285.0</ele><time>2026-04-06T16:24:12.999Z</time></trkpt><trkpt lat="43.019327027997235" lon="11.305806968726934"><ele>284.0</ele><time>2026-04-06T16:24:13.998Z</time></trkpt><trkpt lat="43.01921655082829" lon="11.30574713606221"><ele>282.25</ele><time>2026-04-06T16:24:14.998Z</time></trkpt><trkpt lat="43.019110536908016" lon="11.305709975048904"><ele>280.5</ele><time>2026-04-06T16:24:15.998Z</time></trkpt><trkpt lat="43.01900238356403" lon="11.305741092879948"><ele>278.75</ele><time>2026-04-06T16:24:16.998Z</time></trkpt><trkpt lat="43.01889411991019" lon="11.305773576566084"><ele>277.0</ele><time>2026-04-06T16:24:17.998Z</time></trkpt><trkpt lat="43.01876574782664" lon="11.305809750991802"><ele>277.0</ele><time>2026-04-06T16:24:18.998Z</time></trkpt><trkpt lat="43.018653320715146" lon="11.305823401737431"><ele>277.0</ele><time>2026-04-06T16:24:19.998Z</time></trkpt><trkpt lat="43.01856699250036" lon="11.305814279292374"><ele>277.0</ele><time>2026-04-06T16:24:20.998Z</time></trkpt><trkpt lat="43.01844353959003" lon="11.305791267212612"><ele>277.0</ele><time>2026-04-06T16:24:21.998Z</time></trkpt><trkpt lat="43.01828844923822" lon="11.305778474420812"><ele>275.0</ele><time>2026-04-06T16:24:22.998Z</time></trkpt><trkpt lat="43.01815915964304" lon="11.305747171180355"><ele>273.0</ele><time>2026-04-06T16:24:23.998Z</time></trkpt><trkpt lat="43.01802599025206" lon="11.30569566379411"><ele>271.0</ele><time>2026-04-06T16:24:24.998Z</time></trkpt><trkpt lat="43.017913409407804" lon="11.305613604593987"><ele>269.0</ele><time>2026-04-06T16:24:25.998Z</time></trkpt><trkpt lat="43.01782292990857" lon="11.305526114603468"><ele>267.75</ele><time>2026-04-06T16:24:26.998Z</time></trkpt><trkpt lat="43.017709111309635" lon="11.305447712265979"><ele>266.5</ele><time>2026-04-06T16:24:27.998Z</time></trkpt><trkpt lat="43.017587924755425" lon="11.305406419515437"><ele>265.25</ele><time>2026-04-06T16:24:28.998Z</time></trkpt><trkpt lat="43.01747945612888" lon="11.305423843400414"><ele>264.0</ele><time>2026-04-06T16:24:29.998Z</time></trkpt><trkpt lat="43.01737041316971" lon="11.305428943614105"><ele>263.0</ele><time>2026-04-06T16:24:30.998Z</time></trkpt><trkpt lat="43.01724728499295" lon="11.30544813965524"><ele>262.0</ele><time>2026-04-06T16:24:31.998Z</time></trkpt><trkpt lat="43.01712997830525" lon="11.305461867978384"><ele>261.0</ele><time>2026-04-06T16:24:32.998Z</time></trkpt><trkpt lat="43.017006350182186" lon="11.30546295403028"><ele>260.0</ele><time>2026-04-06T16:24:33.998Z</time></trkpt><trkpt lat="43.0169243474292" lon="11.305459683776688"><ele>259.0</ele><time>2026-04-06T16:24:34.998Z</time></trkpt><trkpt lat="43.016848076098455" lon="11.305405019154557"><ele>259.0</ele><time>2026-04-06T16:24:35.998Z</time></trkpt><trkpt lat="43.016765503847985" lon="11.305354783812469"><ele>259.0</ele><time>2026-04-06T16:24:36.998Z</time></trkpt><trkpt lat="43.01668262297783" lon="11.305299672690332"><ele>259.0</ele><time>2026-04-06T16:24:37.998Z</time></trkpt><trkpt lat="43.01659497275926" lon="11.305222692431029"><ele>259.0</ele><time>2026-04-06T16:24:38.998Z</time></trkpt><trkpt lat="43.01652071323938" lon="11.305137381262808"><ele>259.0</ele><time>2026-04-06T16:24:39.998Z</time></trkpt><trkpt lat="43.01649068519006" lon="11.305053277148746"><ele>257.66666666666663</ele><time>2026-04-06T16:24:40.998Z</time></trkpt><trkpt lat="43.016466253288854" lon="11.304966374518628"><ele>256.3333333333333</ele><time>2026-04-06T16:24:41.998Z</time></trkpt><trkpt lat="43.016452886269796" lon="11.304865062987286"><ele>255.0</ele><time>2026-04-06T16:24:42.998Z</time></trkpt><trkpt lat="43.016413754889925" lon="11.304763743743472"><ele>253.66666666666669</ele><time>2026-04-06T16:24:43.998Z</time></trkpt><trkpt lat="43.01637908332846" lon="11.304684032695947"><ele>252.33333333333334</ele><time>2026-04-06T16:24:44.998Z</time></trkpt><trkpt lat="43.01630067140537" lon="11.304629868890009"><ele>251.0</ele><time>2026-04-06T16:24:45.998Z</time></trkpt><trkpt lat="43.01622924523116" lon="11.304578926305336"><ele>250.60000000000002</ele><time>2026-04-06T16:24:46.998Z</time></trkpt><trkpt lat="43.01614327759063" lon="11.304499292178921"><ele>250.20000000000002</ele><time>2026-04-06T16:24:49Z</time></trkpt><trkpt lat="43.016075284400166" lon="11.304574054179055"><ele>249.79999999999998</ele><time>2026-04-06T16:24:50Z</time></trkpt><trkpt lat="43.015965719531366" lon="11.30465765191622"><ele>249.39999999999998</ele><time>2026-04-06T16:24:52Z</time></trkpt><trkpt lat="43.01584782550271" lon="11.304704625254814"><ele>249.0</ele><time>2026-04-06T16:24:53Z</time></trkpt><trkpt lat="43.015704322453075" lon="11.304737345378479"><ele>247.66666666666669</ele><time>2026-04-06T16:24:54Z</time></trkpt><trkpt lat="43.015508382247766" lon="11.30474836161027"><ele>246.33333333333334</ele><time>2026-04-06T16:24:55Z</time></trkpt><trkpt lat="43.0153240883475" lon="11.304713290159153"><ele>245.0</ele><time>2026-04-06T16:24:56Z</time></trkpt><trkpt lat="43.015140169634606" lon="11.30463785296852"><ele>245.0</ele><time>2026-04-06T16:24:57Z</time></trkpt><trkpt lat="43.01501734369543" lon="11.304566138012213"><ele>245.0</ele><time>2026-04-06T16:24:58Z</time></trkpt><trkpt lat="43.01488347829644" lon="11.304495918866367"><ele>245.0</ele><time>2026-04-06T16:24:59Z</time></trkpt><trkpt lat="43.01478065311673" lon="11.30444341905234"><ele>245.0</ele><time>2026-04-06T16:25:00Z</time></trkpt><trkpt lat="43.014637012007036" lon="11.304370079657687"><ele>244.5</ele><time>2026-04-06T16:25:01Z</time></trkpt><trkpt lat="43.01450958346863" lon="11.30430501788493"><ele>244.0</ele><time>2026-04-06T16:25:02Z</time></trkpt><trkpt lat="43.01439258431443" lon="11.304245281217204"><ele>243.5</ele><time>2026-04-06T16:25:03Z</time></trkpt><trkpt lat="43.01426072301236" lon="11.304176195826972"><ele>243.0</ele><time>2026-04-06T16:25:04Z</time></trkpt><trkpt lat="43.01413334703264" lon="11.304094850533136"><ele>242.25</ele><time>2026-04-06T16:25:05Z</time></trkpt><trkpt lat="43.01401619043052" lon="11.303998155330548"><ele>241.5</ele><time>2026-04-06T16:25:06Z</time></trkpt><trkpt lat="43.01392226398472" lon="11.303901507792066"><ele>240.75</ele><time>2026-04-06T16:25:07Z</time></trkpt><trkpt lat="43.013811455676475" lon="11.303777422413953"><ele>240.0</ele><time>2026-04-06T16:25:08Z</time></trkpt><trkpt lat="43.013690508132086" lon="11.303638135149988"><ele>240.0</ele><time>2026-04-06T16:25:09Z</time></trkpt><trkpt lat="43.01357845756216" lon="11.303510093104817"><ele>240.0</ele><time>2026-04-06T16:25:10Z</time></trkpt><trkpt lat="43.0134724791441" lon="11.303396556964566"><ele>240.0</ele><time>2026-04-06T16:25:11Z</time></trkpt><trkpt lat="43.013327159698925" lon="11.303256588563679"><ele>237.75</ele><time>2026-04-06T16:25:12Z</time></trkpt><trkpt lat="43.013177782993374" lon="11.30315949226085"><ele>235.5</ele><time>2026-04-06T16:25:13Z</time></trkpt><trkpt lat="43.01304536447575" lon="11.303092681689849"><ele>233.25</ele><time>2026-04-06T16:25:14Z</time></trkpt><trkpt lat="43.01291189189323" lon="11.303024435681266"><ele>231.0</ele><time>2026-04-06T16:25:15Z</time></trkpt><trkpt lat="43.01277986616656" lon="11.302942398037224"><ele>230.75</ele><time>2026-04-06T16:25:16Z</time></trkpt><trkpt lat="43.01267923471409" lon="11.302861676410224"><ele>230.5</ele><time>2026-04-06T16:25:17Z</time></trkpt><trkpt lat="43.01257044945915" lon="11.302777320016826"><ele>230.25</ele><time>2026-04-06T16:25:18Z</time></trkpt><trkpt lat="43.012455438176886" lon="11.302697744587007"><ele>230.0</ele><time>2026-04-06T16:25:19Z</time></trkpt><trkpt lat="43.012327249032445" lon="11.302615180554028"><ele>229.33333333333334</ele><time>2026-04-06T16:25:20Z</time></trkpt><trkpt lat="43.012194532547056" lon="11.302534605138705"><ele>228.66666666666669</ele><time>2026-04-06T16:25:21Z</time></trkpt><trkpt lat="43.01204871912991" lon="11.302444710519309"><ele>228.0</ele><time>2026-04-06T16:25:22Z</time></trkpt><trkpt lat="43.01188945124083" lon="11.302333254703566"><ele>227.33333333333331</ele><time>2026-04-06T16:25:23Z</time></trkpt><trkpt lat="43.0117458470306" lon="11.302221563219925"><ele>226.66666666666666</ele><time>2026-04-06T16:25:23.999Z</time></trkpt><trkpt lat="43.01161796442253" lon="11.302095503419718"><ele>226.0</ele><time>2026-04-06T16:25:24.999Z</time></trkpt><trkpt lat="43.01150156801018" lon="11.301980877334435"><ele>226.0</ele><time>2026-04-06T16:25:25.999Z</time></trkpt><trkpt lat="43.01139444274535" lon="11.301891230195878"><ele>226.00000000000003</ele><time>2026-04-06T16:25:26.999Z</time></trkpt><trkpt lat="43.011297524522924" lon="11.301785152047513"><ele>226.00000000000003</ele><time>2026-04-06T16:25:27.999Z</time></trkpt><trkpt lat="43.01122639996322" lon="11.301703642435813"><ele>226.0</ele><time>2026-04-06T16:25:28.999Z</time></trkpt><trkpt lat="43.01117392437005" lon="11.301636826668283"><ele>226.0</ele><time>2026-04-06T16:25:29.999Z</time></trkpt><trkpt lat="43.01108958288965" lon="11.301511105615656"><ele>223.75</ele><time>2026-04-06T16:25:30.999Z</time></trkpt><trkpt lat="43.0110171007437" lon="11.301347160291666"><ele>221.5</ele><time>2026-04-06T16:25:31.999Z</time></trkpt><trkpt lat="43.01091080478405" lon="11.301193127744739"><ele>219.25</ele><time>2026-04-06T16:25:32.999Z</time></trkpt><trkpt lat="43.01080225629001" lon="11.301080289958248"><ele>217.0</ele><time>2026-04-06T16:25:33.999Z</time></trkpt><trkpt lat="43.01068969673006" lon="11.300995605390359"><ele>217.0</ele><time>2026-04-06T16:25:34.999Z</time></trkpt><trkpt lat="43.01057562565063" lon="11.300923449568762"><ele>217.0</ele><time>2026-04-06T16:25:35.999Z</time></trkpt><trkpt lat="43.01047511077916" lon="11.300860866827641"><ele>217.0</ele><time>2026-04-06T16:25:36.999Z</time></trkpt><trkpt lat="43.01035455901903" lon="11.300755198623351"><ele>217.0</ele><time>2026-04-06T16:25:37.999Z</time></trkpt><trkpt lat="43.01028722505442" lon="11.300652864917337"><ele>215.25</ele><time>2026-04-06T16:25:38.999Z</time></trkpt><trkpt lat="43.01022643661006" lon="11.300551292227272"><ele>213.5</ele><time>2026-04-06T16:25:39.999Z</time></trkpt><trkpt lat="43.01017930244113" lon="11.300446473138194"><ele>211.75</ele><time>2026-04-06T16:25:40.999Z</time></trkpt><trkpt lat="43.0101155118442" lon="11.300256913711918"><ele>210.0</ele><time>2026-04-06T16:25:42.999Z</time></trkpt><trkpt lat="43.01004478959518" lon="11.300079113394554"><ele>208.75</ele><time>2026-04-06T16:25:43.999Z</time></trkpt><trkpt lat="43.009957764756734" lon="11.299922689135299"><ele>207.5</ele><time>2026-04-06T16:25:44.999Z</time></trkpt><trkpt lat="43.009896630227985" lon="11.299759457911625"><ele>206.25</ele><time>2026-04-06T16:25:45.999Z</time></trkpt><trkpt lat="43.00989662552943" lon="11.299561939583953"><ele>205.0</ele><time>2026-04-06T16:25:46.999Z</time></trkpt><trkpt lat="43.0099135298551" lon="11.299439057810414"><ele>203.0</ele><time>2026-04-06T16:25:47.999Z</time></trkpt><trkpt lat="43.00996705219839" lon="11.299271123609145"><ele>201.0</ele><time>2026-04-06T16:25:48.999Z</time></trkpt><trkpt lat="43.00996015277529" lon="11.299072610600382"><ele>199.0</ele><time>2026-04-06T16:25:49.999Z</time></trkpt><trkpt lat="43.00989460408751" lon="11.298896364930636"><ele>197.0</ele><time>2026-04-06T16:25:50.999Z</time></trkpt><trkpt lat="43.00981613328515" lon="11.298755791424526"><ele>197.0</ele><time>2026-04-06T16:25:51.999Z</time></trkpt><trkpt lat="43.00971771497882" lon="11.298723673143863"><ele>197.0</ele><time>2026-04-06T16:25:52.999Z</time></trkpt><trkpt lat="43.00961423210219" lon="11.29872777219456"><ele>197.0</ele><time>2026-04-06T16:25:53.999Z</time></trkpt><trkpt lat="43.00960168882461" lon="11.29881686027048"><ele>197.0</ele><time>2026-04-06T16:25:55.999Z</time></trkpt><trkpt lat="43.009520426486375" lon="11.298888012818752"><ele>197.0</ele><time>2026-04-06T16:25:57.999Z</time></trkpt><trkpt lat="43.00942438247297" lon="11.29894624091141"><ele>197.0</ele><time>2026-04-06T16:25:59.999Z</time></trkpt><trkpt lat="43.0091878453776" lon="11.299052259822597"><ele>197.0</ele><time>2026-04-06T16:26:00.999Z</time></trkpt><trkpt lat="43.00906999899088" lon="11.299064490429465"><ele>197.0</ele><time>2026-04-06T16:26:02.999Z</time></trkpt><trkpt lat="43.00897326030556" lon="11.299096463637564"><ele>190.0</ele><time>2026-04-06T16:26:04.999Z</time></trkpt><trkpt lat="43.00877154738535" lon="11.29868347184066"><ele>183.0</ele><time>2026-04-06T16:26:05.999Z</time></trkpt><trkpt lat="43.008682357041366" lon="11.298848224648845"><ele>184.75</ele><time>2026-04-06T16:26:06.999Z</time></trkpt><trkpt lat="43.008546286013825" lon="11.299098755681802"><ele>186.5</ele><time>2026-04-06T16:26:07.999Z</time></trkpt><trkpt lat="43.0084406522943" lon="11.299205421081734"><ele>188.25</ele><time>2026-04-06T16:26:08.999Z</time></trkpt><trkpt lat="43.00838526039027" lon="11.299274895114218"><ele>190.0</ele><time>2026-04-06T16:26:09.999Z</time></trkpt><trkpt lat="43.00832747759051" lon="11.299231522503888"><ele>190.0</ele><time>2026-04-06T16:26:11.999Z</time></trkpt><trkpt lat="43.00832552366822" lon="11.299139545729313"><ele>190.0</ele><time>2026-04-06T16:26:12.999Z</time></trkpt><trkpt lat="43.00860336425349" lon="11.29916533518166"><ele>190.0</ele><time>2026-04-06T16:26:14.999Z</time></trkpt><trkpt lat="43.00865274805169" lon="11.299017306572786"><ele>188.25</ele><time>2026-04-06T16:26:15.999Z</time></trkpt><trkpt lat="43.0086997643468" lon="11.298866267711219"><ele>186.5</ele><time>2026-04-06T16:26:16.999Z</time></trkpt><trkpt lat="43.00874269023951" lon="11.298655326138347"><ele>184.75</ele><time>2026-04-06T16:26:17.998Z</time></trkpt><trkpt lat="43.0087421364086" lon="11.298425285478691"><ele>183.0</ele><time>2026-04-06T16:26:18.998Z</time></trkpt><trkpt lat="43.00873625227329" lon="11.29822055685664"><ele>183.0</ele><time>2026-04-06T16:26:19.998Z</time></trkpt><trkpt lat="43.00874256088279" lon="11.298118958749882"><ele>183.0</ele><time>2026-04-06T16:26:20.998Z</time></trkpt><trkpt lat="43.00876682570928" lon="11.297990144244853"><ele>183.0</ele><time>2026-04-06T16:26:21.998Z</time></trkpt><trkpt lat="43.00882041242409" lon="11.29785068039376"><ele>183.0</ele><time>2026-04-06T16:26:22.998Z</time></trkpt><trkpt lat="43.00895610143577" lon="11.29769694371245"><ele>180.5</ele><time>2026-04-06T16:26:23.998Z</time></trkpt><trkpt lat="43.00898040977095" lon="11.297572299557775"><ele>178.0</ele><time>2026-04-06T16:26:24.998Z</time></trkpt><trkpt lat="43.00900471999518" lon="11.297436162025463"><ele>175.5</ele><time>2026-04-06T16:26:25.998Z</time></trkpt><trkpt lat="43.00902439599464" lon="11.29722894467687"><ele>173.0</ele><time>2026-04-06T16:26:26.998Z</time></trkpt><trkpt lat="43.009007026636084" lon="11.296988033435067"><ele>171.2</ele><time>2026-04-06T16:26:27.998Z</time></trkpt><trkpt lat="43.00894306725468" lon="11.296791628133082"><ele>169.4</ele><time>2026-04-06T16:26:29.998Z</time></trkpt><trkpt lat="43.00892262375935" lon="11.296664029606184"><ele>167.6</ele><time>2026-04-06T16:26:30.998Z</time></trkpt><trkpt lat="43.00880235610452" lon="11.296631268820713"><ele>165.79999999999998</ele><time>2026-04-06T16:26:31.998Z</time></trkpt><trkpt lat="43.00885395372308" lon="11.296700879024026"><ele>164.0</ele><time>2026-04-06T16:26:33.998Z</time></trkpt><trkpt lat="43.00879848435365" lon="11.296765280358441"><ele>164.0</ele><time>2026-04-06T16:26:34.998Z</time></trkpt><trkpt lat="43.008777816506" lon="11.296926135090953"><ele>164.0</ele><time>2026-04-06T16:26:35.998Z</time></trkpt><trkpt lat="43.00870452831105" lon="11.296972892326503"><ele>164.0</ele><time>2026-04-06T16:26:36.998Z</time></trkpt><trkpt lat="43.00863016286738" lon="11.297024784179467"><ele>164.0</ele><time>2026-04-06T16:26:37.998Z</time></trkpt><trkpt lat="43.00860178266297" lon="11.297225942158903"><ele>164.0</ele><time>2026-04-06T16:26:38.998Z</time></trkpt><trkpt lat="43.00850903796954" lon="11.29729749934109"><ele>164.79999999999998</ele><time>2026-04-06T16:26:39.998Z</time></trkpt><trkpt lat="43.00840475324306" lon="11.29737344164929"><ele>165.6</ele><time>2026-04-06T16:26:40.998Z</time></trkpt><trkpt lat="43.00828349868454" lon="11.297420456943843"><ele>166.4</ele><time>2026-04-06T16:26:41.998Z</time></trkpt><trkpt lat="43.00816526195821" lon="11.297398755632495"><ele>167.2</ele><time>2026-04-06T16:26:42.998Z</time></trkpt><trkpt lat="43.00808961353863" lon="11.297369311832105"><ele>168.0</ele><time>2026-04-06T16:26:44.067Z</time></trkpt><trkpt lat="43.008011213607965" lon="11.297303241732086"><ele>168.0</ele><time>2026-04-06T16:26:45.039Z</time></trkpt><trkpt lat="43.00792094930175" lon="11.297294161878414"><ele>168.0</ele><time>2026-04-06T16:26:46.041Z</time></trkpt><trkpt lat="43.00779558144198" lon="11.297288916710752"><ele>168.0</ele><time>2026-04-06T16:26:47.04Z</time></trkpt><trkpt lat="43.00770143946998" lon="11.297288667692172"><ele>168.0</ele><time>2026-04-06T16:26:48.04Z</time></trkpt><trkpt lat="43.00758392628139" lon="11.297289800560645"><ele>168.0</ele><time>2026-04-06T16:26:49.035Z</time></trkpt><trkpt lat="43.007393214040746" lon="11.297289664207538"><ele>166.25</ele><time>2026-04-06T16:26:50.034Z</time></trkpt><trkpt lat="43.00726888425214" lon="11.297285601546587"><ele>164.5</ele><time>2026-04-06T16:26:51.038Z</time></trkpt><trkpt lat="43.00714740616958" lon="11.29726017798618"><ele>162.75</ele><time>2026-04-06T16:26:52.034Z</time></trkpt><trkpt lat="43.00701441994248" lon="11.297267001301906"><ele>161.0</ele><time>2026-04-06T16:26:53.032Z</time></trkpt><trkpt lat="43.00691769467419" lon="11.297269721305101"><ele>161.0</ele><time>2026-04-06T16:26:53.998Z</time></trkpt><trkpt lat="43.00682740175398" lon="11.297283289492828"><ele>161.0</ele><time>2026-04-06T16:26:54.998Z</time></trkpt><trkpt lat="43.006679532076745" lon="11.297308467401342"><ele>161.0</ele><time>2026-04-06T16:26:55.998Z</time></trkpt><trkpt lat="43.00659049605001" lon="11.297334206364487"><ele>161.0</ele><time>2026-04-06T16:26:56.998Z</time></trkpt><trkpt lat="43.006508019804286" lon="11.297386891899526"><ele>161.0</ele><time>2026-04-06T16:26:57.998Z</time></trkpt><trkpt lat="43.00640380503845" lon="11.297460451588018"><ele>159.5</ele><time>2026-04-06T16:26:58.998Z</time></trkpt><trkpt lat="43.00634107809911" lon="11.297471911506625"><ele>158.0</ele><time>2026-04-06T16:27:00Z</time></trkpt><trkpt lat="43.006257503490275" lon="11.297479481123316"><ele>156.5</ele><time>2026-04-06T16:27:01Z</time></trkpt><trkpt lat="43.00620965576096" lon="11.297404730506127"><ele>155.0</ele><time>2026-04-06T16:27:03Z</time></trkpt><trkpt lat="43.006220950057084" lon="11.297224185211775"><ele>153.5</ele><time>2026-04-06T16:27:05Z</time></trkpt><trkpt lat="43.00621758159318" lon="11.29709858369202"><ele>152.0</ele><time>2026-04-06T16:27:06Z</time></trkpt><trkpt lat="43.0062350360947" lon="11.296935713973461"><ele>151.0</ele><time>2026-04-06T16:27:07Z</time></trkpt><trkpt lat="43.00624693677988" lon="11.296824667502579"><ele>150.0</ele><time>2026-04-06T16:27:08Z</time></trkpt><trkpt lat="43.00625659550337" lon="11.296737370256059"><ele>149.0</ele><time>2026-04-06T16:27:09Z</time></trkpt><trkpt lat="43.006265396813696" lon="11.296642173564159"><ele>148.0</ele><time>2026-04-06T16:27:10Z</time></trkpt><trkpt lat="43.00629290133735" lon="11.296543445771643"><ele>147.0</ele><time>2026-04-06T16:27:11Z</time></trkpt><trkpt lat="43.00627964399695" lon="11.296382962451705"><ele>146.0</ele><time>2026-04-06T16:27:12Z</time></trkpt><trkpt lat="43.00614762592247" lon="11.296189727973706"><ele>145.75</ele><time>2026-04-06T16:27:13Z</time></trkpt><trkpt lat="43.00603938338287" lon="11.296111631691984"><ele>145.5</ele><time>2026-04-06T16:27:14Z</time></trkpt><trkpt lat="43.00592569860442" lon="11.29604752279483"><ele>145.25</ele><time>2026-04-06T16:27:15Z</time></trkpt><trkpt lat="43.00579688248361" lon="11.295989505043504"><ele>145.0</ele><time>2026-04-06T16:27:16Z</time></trkpt><trkpt lat="43.00566097570878" lon="11.29594058843784"><ele>144.2</ele><time>2026-04-06T16:27:17Z</time></trkpt><trkpt lat="43.00555984125152" lon="11.295866334814686"><ele>143.4</ele><time>2026-04-06T16:27:18Z</time></trkpt><trkpt lat="43.00545978846987" lon="11.295810765276691"><ele>142.6</ele><time>2026-04-06T16:27:19Z</time></trkpt><trkpt lat="43.00536035541003" lon="11.295761934089654"><ele>141.8</ele><time>2026-04-06T16:27:20Z</time></trkpt><trkpt lat="43.005282938169984" lon="11.295747980986215"><ele>141.0</ele><time>2026-04-06T16:27:21Z</time></trkpt><trkpt lat="43.0052073270845" lon="11.29570769754263"><ele>141.0</ele><time>2026-04-06T16:27:22Z</time></trkpt><trkpt lat="43.00513593314609" lon="11.295640954142897"><ele>141.0</ele><time>2026-04-06T16:27:23Z</time></trkpt><trkpt lat="43.00503151981084" lon="11.295560481835087"><ele>141.0</ele><time>2026-04-06T16:27:24Z</time></trkpt><trkpt lat="43.00493945604186" lon="11.295468561347727"><ele>141.0</ele><time>2026-04-06T16:27:25Z</time></trkpt><trkpt lat="43.00487913264522" lon="11.29539655866113"><ele>141.0</ele><time>2026-04-06T16:27:26Z</time></trkpt><trkpt lat="43.00478495700852" lon="11.2952769263067"><ele>142.33333333333334</ele><time>2026-04-06T16:27:28Z</time></trkpt><trkpt lat="43.00472840514142" lon="11.295215203240307"><ele>143.66666666666666</ele><time>2026-04-06T16:27:29Z</time></trkpt><trkpt lat="43.004666286372334" lon="11.295148085366684"><ele>145.0</ele><time>2026-04-06T16:27:30Z</time></trkpt><trkpt lat="43.00462076099898" lon="11.295063657253346"><ele>146.33333333333331</ele><time>2026-04-06T16:27:31Z</time></trkpt><trkpt lat="43.00459103708076" lon="11.294964926879889"><ele>147.66666666666666</ele><time>2026-04-06T16:27:32Z</time></trkpt><trkpt lat="43.004561515823006" lon="11.294862319831918"><ele>149.0</ele><time>2026-04-06T16:27:33Z</time></trkpt><trkpt lat="43.00455692122979" lon="11.294743295218545"><ele>150.5</ele><time>2026-04-06T16:27:34Z</time></trkpt><trkpt lat="43.00456558464988" lon="11.294618238446002"><ele>152.0</ele><time>2026-04-06T16:27:35Z</time></trkpt><trkpt lat="43.004577774934766" lon="11.294502932662086"><ele>153.5</ele><time>2026-04-06T16:27:36Z</time></trkpt><trkpt lat="43.00460392842433" lon="11.294411552555585"><ele>155.0</ele><time>2026-04-06T16:27:37Z</time></trkpt><trkpt lat="43.00461924072146" lon="11.294301226120709"><ele>156.5</ele><time>2026-04-06T16:27:37.999Z</time></trkpt><trkpt lat="43.004636249808364" lon="11.29419647422237"><ele>158.0</ele><time>2026-04-06T16:27:38.999Z</time></trkpt><trkpt lat="43.0046762118451" lon="11.294029138720235"><ele>159.16666666666666</ele><time>2026-04-06T16:27:39.999Z</time></trkpt><trkpt lat="43.004727063658976" lon="11.293916319060715"><ele>160.33333333333331</ele><time>2026-04-06T16:27:40.999Z</time></trkpt><trkpt lat="43.00477803808869" lon="11.293806747288158"><ele>161.5</ele><time>2026-04-06T16:27:41.999Z</time></trkpt><trkpt lat="43.004825961899435" lon="11.293699845513952"><ele>162.66666666666666</ele><time>2026-04-06T16:27:42.999Z</time></trkpt><trkpt lat="43.00485931574804" lon="11.293596890338556"><ele>163.83333333333334</ele><time>2026-04-06T16:27:43.999Z</time></trkpt><trkpt lat="43.00487903711372" lon="11.293498057100196"><ele>165.0</ele><time>2026-04-06T16:27:44.999Z</time></trkpt><trkpt lat="43.00486534606596" lon="11.29334265053073"><ele>165.0</ele><time>2026-04-06T16:27:46.999Z</time></trkpt><trkpt lat="43.004819080189215" lon="11.29325361951412"><ele>165.0</ele><time>2026-04-06T16:27:47.999Z</time></trkpt><trkpt lat="43.004743855941435" lon="11.293208293701886"><ele>165.0</ele><time>2026-04-06T16:27:48.999Z</time></trkpt><trkpt lat="43.004670043843426" lon="11.293187020582755"><ele>165.0</ele><time>2026-04-06T16:27:49.999Z</time></trkpt><trkpt lat="43.00455546099311" lon="11.293105754800532"><ele>165.0</ele><time>2026-04-06T16:27:51.999Z</time></trkpt><trkpt lat="43.004484993216636" lon="11.293050521562657"><ele>165.0</ele><time>2026-04-06T16:27:52.999Z</time></trkpt><trkpt lat="43.00447512177484" lon="11.292944334713424"><ele>166.33333333333334</ele><time>2026-04-06T16:27:53.999Z</time></trkpt><trkpt lat="43.00452013256301" lon="11.292833659250993"><ele>167.66666666666666</ele><time>2026-04-06T16:27:54.999Z</time></trkpt><trkpt lat="43.004558139178584" lon="11.292753877120708"><ele>169.0</ele><time>2026-04-06T16:27:55.999Z</time></trkpt><trkpt lat="43.00459424819275" lon="11.292671299616432"><ele>170.33333333333331</ele><time>2026-04-06T16:27:56.999Z</time></trkpt><trkpt lat="43.00462706790716" lon="11.292571853716266"><ele>171.66666666666666</ele><time>2026-04-06T16:27:57.999Z</time></trkpt><trkpt lat="43.00461652894018" lon="11.292468242268527"><ele>173.0</ele><time>2026-04-06T16:27:58.999Z</time></trkpt><trkpt lat="43.0045855264412" lon="11.292390686207867"><ele>173.0</ele><time>2026-04-06T16:27:59.999Z</time></trkpt><trkpt lat="43.004531255128356" lon="11.292258190576954"><ele>173.0</ele><time>2026-04-06T16:28:01.999Z</time></trkpt><trkpt lat="43.00443579412947" lon="11.292232308119596"><ele>173.0</ele><time>2026-04-06T16:28:02.999Z</time></trkpt><trkpt lat="43.004348644624216" lon="11.292267192524823"><ele>173.0</ele><time>2026-04-06T16:28:03.999Z</time></trkpt><trkpt lat="43.00427540375014" lon="11.292304464684548"><ele>173.0</ele><time>2026-04-06T16:28:04.999Z</time></trkpt><trkpt lat="43.00419830867585" lon="11.292340355488703"><ele>176.25</ele><time>2026-04-06T16:28:05.999Z</time></trkpt><trkpt lat="43.00408653682082" lon="11.292407778428506"><ele>179.5</ele><time>2026-04-06T16:28:06.999Z</time></trkpt><trkpt lat="43.00401919256453" lon="11.292480924556376"><ele>182.75</ele><time>2026-04-06T16:28:07.999Z</time></trkpt><trkpt lat="43.00392664668899" lon="11.292629636914317"><ele>186.0</ele><time>2026-04-06T16:28:09.999Z</time></trkpt><trkpt lat="43.00386353529055" lon="11.29275127839432"><ele>186.0</ele><time>2026-04-06T16:28:10.999Z</time></trkpt><trkpt lat="43.003788000697355" lon="11.292860385128844"><ele>186.0</ele><time>2026-04-06T16:28:11.999Z</time></trkpt><trkpt lat="43.00370245581227" lon="11.292901283849204"><ele>186.0</ele><time>2026-04-06T16:28:12.999Z</time></trkpt><trkpt lat="43.00359390716658" lon="11.292946664189559"><ele>186.0</ele><time>2026-04-06T16:28:13.999Z</time></trkpt><trkpt lat="43.0035020764491" lon="11.293020047370897"><ele>186.0</ele><time>2026-04-06T16:28:14.999Z</time></trkpt><trkpt lat="43.00342745514462" lon="11.29310104579537"><ele>184.8</ele><time>2026-04-06T16:28:15.999Z</time></trkpt><trkpt lat="43.003376006627136" lon="11.293152785136508"><ele>183.60000000000002</ele><time>2026-04-06T16:28:16.999Z</time></trkpt><trkpt lat="43.003262465673" lon="11.2930967758967"><ele>182.4</ele><time>2026-04-06T16:28:18.999Z</time></trkpt><trkpt lat="43.00322647801011" lon="11.292965766805816"><ele>181.2</ele><time>2026-04-06T16:28:19.999Z</time></trkpt><trkpt lat="43.00320748756581" lon="11.2928479029225"><ele>180.0</ele><time>2026-04-06T16:28:20.999Z</time></trkpt><trkpt lat="43.003190191152015" lon="11.29272767885345"><ele>180.0</ele><time>2026-04-06T16:28:21.999Z</time></trkpt><trkpt lat="43.00317331913757" lon="11.292605863174327"><ele>180.0</ele><time>2026-04-06T16:28:22.999Z</time></trkpt><trkpt lat="43.00316052296072" lon="11.292502540811855"><ele>180.0</ele><time>2026-04-06T16:28:23.999Z</time></trkpt><trkpt lat="43.00314932459501" lon="11.292393682453271"><ele>180.0</ele><time>2026-04-06T16:28:24.999Z</time></trkpt><trkpt lat="43.00314909380852" lon="11.29229280532583"><ele>180.0</ele><time>2026-04-06T16:28:25.999Z</time></trkpt><trkpt lat="43.003129693835746" lon="11.292173215989333"><ele>180.0</ele><time>2026-04-06T16:28:26.999Z</time></trkpt><trkpt lat="43.003123152480924" lon="11.292049402105935"><ele>181.8</ele><time>2026-04-06T16:28:27.999Z</time></trkpt><trkpt lat="43.00311209552927" lon="11.291915581127611"><ele>183.6</ele><time>2026-04-06T16:28:28.999Z</time></trkpt><trkpt lat="43.003095650193046" lon="11.291777680198543"><ele>185.39999999999998</ele><time>2026-04-06T16:28:29.999Z</time></trkpt><trkpt lat="43.003074605269056" lon="11.291637482887968"><ele>187.2</ele><time>2026-04-06T16:28:30.999Z</time></trkpt><trkpt lat="43.00304792309044" lon="11.291497365275784"><ele>189.0</ele><time>2026-04-06T16:28:31.999Z</time></trkpt><trkpt lat="43.00302308256023" lon="11.291353506912968"><ele>191.0</ele><time>2026-04-06T16:28:32.998Z</time></trkpt><trkpt lat="43.00299763073086" lon="11.291212532259658"><ele>193.0</ele><time>2026-04-06T16:28:33.998Z</time></trkpt><trkpt lat="43.00296460086583" lon="11.29107199237571"><ele>195.0</ele><time>2026-04-06T16:28:34.998Z</time></trkpt><trkpt lat="43.00293226915149" lon="11.290931132124383"><ele>197.0</ele><time>2026-04-06T16:28:35.998Z</time></trkpt><trkpt lat="43.00290144797773" lon="11.29078751963131"><ele>199.0</ele><time>2026-04-06T16:28:36.998Z</time></trkpt><trkpt lat="43.00287454714797" lon="11.290642970975595"><ele>202.0</ele><time>2026-04-06T16:28:37.998Z</time></trkpt><trkpt lat="43.00284849837026" lon="11.290499567127945"><ele>205.0</ele><time>2026-04-06T16:28:38.998Z</time></trkpt><trkpt lat="43.00282465109227" lon="11.290359025265413"><ele>207.99999999999997</ele><time>2026-04-06T16:28:39.998Z</time></trkpt><trkpt lat="43.00279750816839" lon="11.290221666606934"><ele>211.0</ele><time>2026-04-06T16:28:40.998Z</time></trkpt><trkpt lat="43.002755678138435" lon="11.290092891825616"><ele>214.0</ele><time>2026-04-06T16:28:41.998Z</time></trkpt><trkpt lat="43.0027045672069" lon="11.289978416539928"><ele>213.99999999999997</ele><time>2026-04-06T16:28:42.998Z</time></trkpt><trkpt lat="43.00265274142385" lon="11.28987526806265"><ele>214.0</ele><time>2026-04-06T16:28:43.998Z</time></trkpt><trkpt lat="43.002611055409524" lon="11.28977989378619"><ele>214.0</ele><time>2026-04-06T16:28:44.998Z</time></trkpt><trkpt lat="43.002565166101036" lon="11.28971099109381"><ele>214.0</ele><time>2026-04-06T16:28:45.998Z</time></trkpt><trkpt lat="43.00248215957373" lon="11.28960779352354"><ele>213.99999999999997</ele><time>2026-04-06T16:28:47.998Z</time></trkpt><trkpt lat="43.0024297508714" lon="11.289545807151475"><ele>214.0</ele><time>2026-04-06T16:28:50.998Z</time></trkpt><trkpt lat="43.00231715565728" lon="11.289497634113804"><ele>215.99999999999997</ele><time>2026-04-06T16:28:52.998Z</time></trkpt><trkpt lat="43.002256955509615" lon="11.289446416965768"><ele>218.0</ele><time>2026-04-06T16:28:53.998Z</time></trkpt><trkpt lat="43.00218048249621" lon="11.289408964613143"><ele>220.0</ele><time>2026-04-06T16:28:54.998Z</time></trkpt><trkpt lat="43.00209399069393" lon="11.289376159506903"><ele>222.0</ele><time>2026-04-06T16:28:55.998Z</time></trkpt><trkpt lat="43.002006902716055" lon="11.289336144009566"><ele>223.99999999999997</ele><time>2026-04-06T16:28:56.998Z</time></trkpt><trkpt lat="43.00193203648338" lon="11.289265239082491"><ele>226.0</ele><time>2026-04-06T16:28:57.998Z</time></trkpt><trkpt lat="43.001843629354596" lon="11.289205208042528"><ele>226.0</ele><time>2026-04-06T16:28:58.998Z</time></trkpt><trkpt lat="43.00174574078267" lon="11.289145237334862"><ele>226.0</ele><time>2026-04-06T16:28:59.998Z</time></trkpt><trkpt lat="43.001639003939715" lon="11.289090717754144"><ele>226.0</ele><time>2026-04-06T16:29:00.998Z</time></trkpt><trkpt lat="43.00152040727465" lon="11.289043372550445"><ele>226.0</ele><time>2026-04-06T16:29:01.998Z</time></trkpt><trkpt lat="43.00139275170826" lon="11.289006371155365"><ele>226.0</ele><time>2026-04-06T16:29:02.998Z</time></trkpt><trkpt lat="43.00125564090965" lon="11.28897866756384"><ele>226.0</ele><time>2026-04-06T16:29:03.998Z</time></trkpt><trkpt lat="43.00113792600246" lon="11.288963417226064"><ele>226.0</ele><time>2026-04-06T16:29:04.998Z</time></trkpt><trkpt lat="43.00103277147138" lon="11.288973859358164"><ele>226.0</ele><time>2026-04-06T16:29:06Z</time></trkpt><trkpt lat="43.00094385293078" lon="11.288948443035796"><ele>225.99999999999997</ele><time>2026-04-06T16:29:07Z</time></trkpt><trkpt lat="43.00085999361315" lon="11.288947357571347"><ele>226.0</ele><time>2026-04-06T16:29:08Z</time></trkpt><trkpt lat="43.000784191812095" lon="11.288946411077157"><ele>226.0</ele><time>2026-04-06T16:29:09Z</time></trkpt><trkpt lat="43.00070791941077" lon="11.288928493867909"><ele>226.0</ele><time>2026-04-06T16:29:10Z</time></trkpt><trkpt lat="43.00061853277768" lon="11.288924714459949"><ele>225.99999999999997</ele><time>2026-04-06T16:29:11Z</time></trkpt><trkpt lat="43.000530235662445" lon="11.28892605373288"><ele>226.0</ele><time>2026-04-06T16:29:12Z</time></trkpt><trkpt lat="43.00044183748159" lon="11.288933723655767"><ele>228.0</ele><time>2026-04-06T16:29:13Z</time></trkpt><trkpt lat="43.00034001983186" lon="11.288954861636244"><ele>230.00000000000003</ele><time>2026-04-06T16:29:14Z</time></trkpt><trkpt lat="43.000245290475654" lon="11.288966353699447"><ele>232.00000000000003</ele><time>2026-04-06T16:29:15Z</time></trkpt><trkpt lat="43.00016672476245" lon="11.288973344153293"><ele>234.0</ele><time>2026-04-06T16:29:16Z</time></trkpt><trkpt lat="43.00008722327539" lon="11.288915618408193"><ele>236.0</ele><time>2026-04-06T16:29:17Z</time></trkpt><trkpt lat="43.00001046209378" lon="11.28883752379985"><ele>237.50000000000003</ele><time>2026-04-06T16:29:18Z</time></trkpt><trkpt lat="42.999940858123" lon="11.288758291797649"><ele>239.0</ele><time>2026-04-06T16:29:19Z</time></trkpt><trkpt lat="42.999872518144564" lon="11.288681475979708"><ele>240.5</ele><time>2026-04-06T16:29:20Z</time></trkpt><trkpt lat="42.999805480807815" lon="11.288608065678964"><ele>242.0</ele><time>2026-04-06T16:29:21Z</time></trkpt><trkpt lat="42.999744483783466" lon="11.288532039449057"><ele>243.50000000000003</ele><time>2026-04-06T16:29:22Z</time></trkpt><trkpt lat="42.9996562426472" lon="11.288514538595493"><ele>245.0</ele><time>2026-04-06T16:29:23Z</time></trkpt><trkpt lat="42.99956830230685" lon="11.288534650109483"><ele>245.00000000000003</ele><time>2026-04-06T16:29:24Z</time></trkpt><trkpt lat="42.99949366300197" lon="11.288585777850694"><ele>245.0</ele><time>2026-04-06T16:29:25Z</time></trkpt><trkpt lat="42.99941855619893" lon="11.288560316666398"><ele>245.0</ele><time>2026-04-06T16:29:26Z</time></trkpt><trkpt lat="42.99935990772128" lon="11.288511336600504"><ele>245.0</ele><time>2026-04-06T16:29:27Z</time></trkpt><trkpt lat="42.99928492445113" lon="11.288474723256364"><ele>245.00000000000003</ele><time>2026-04-06T16:29:28Z</time></trkpt><trkpt lat="42.99921691961331" lon="11.288424654871523"><ele>245.0</ele><time>2026-04-06T16:29:29Z</time></trkpt><trkpt lat="42.99915370055008" lon="11.288362114310438"><ele>246.83333333333334</ele><time>2026-04-06T16:29:30Z</time></trkpt><trkpt lat="42.999072911307465" lon="11.288347595666254"><ele>248.66666666666669</ele><time>2026-04-06T16:29:31Z</time></trkpt><trkpt lat="42.999002666210316" lon="11.288329823307517"><ele>250.5</ele><time>2026-04-06T16:29:32Z</time></trkpt><trkpt lat="42.998937452768544" lon="11.288279763630223"><ele>252.33333333333331</ele><time>2026-04-06T16:29:33Z</time></trkpt><trkpt lat="42.998874540564756" lon="11.288214381504648"><ele>254.16666666666666</ele><time>2026-04-06T16:29:34Z</time></trkpt><trkpt lat="42.998836268013434" lon="11.288118439976122"><ele>256.0</ele><time>2026-04-06T16:29:35Z</time></trkpt><trkpt lat="42.99878825292921" lon="11.288027933509923"><ele>257.40000000000003</ele><time>2026-04-06T16:29:36Z</time></trkpt><trkpt lat="42.99871987735128" lon="11.287959952760135"><ele>258.8</ele><time>2026-04-06T16:29:37Z</time></trkpt><trkpt lat="42.99863102190609" lon="11.287912883632309"><ele>260.20000000000005</ele><time>2026-04-06T16:29:38Z</time></trkpt><trkpt lat="42.99853169154554" lon="11.287862712479912"><ele>261.6</ele><time>2026-04-06T16:29:39Z</time></trkpt><trkpt lat="42.99843696259091" lon="11.287813013347915"><ele>263.0</ele><time>2026-04-06T16:29:40Z</time></trkpt><trkpt lat="42.9983356767411" lon="11.28777729359057"><ele>263.2</ele><time>2026-04-06T16:29:41Z</time></trkpt><trkpt lat="42.99823575241384" lon="11.28777497009869"><ele>263.4</ele><time>2026-04-06T16:29:42Z</time></trkpt><trkpt lat="42.99813640517658" lon="11.287809087873953"><ele>263.59999999999997</ele><time>2026-04-06T16:29:43Z</time></trkpt><trkpt lat="42.99804172614486" lon="11.287878924149355"><ele>263.8</ele><time>2026-04-06T16:29:44Z</time></trkpt><trkpt lat="42.997958864187304" lon="11.287983610088288"><ele>264.0</ele><time>2026-04-06T16:29:45Z</time></trkpt><trkpt lat="42.99790253333861" lon="11.288107407226658"><ele>264.0</ele><time>2026-04-06T16:29:46Z</time></trkpt><trkpt lat="42.99785751800518" lon="11.288234040520445"><ele>264.0</ele><time>2026-04-06T16:29:47Z</time></trkpt><trkpt lat="42.99781426831811" lon="11.288361150056842"><ele>264.0</ele><time>2026-04-06T16:29:48Z</time></trkpt><trkpt lat="42.997782643206136" lon="11.28850099074615"><ele>264.0</ele><time>2026-04-06T16:29:48.999Z</time></trkpt><trkpt lat="42.99772373944014" lon="11.288626160689084"><ele>264.0</ele><time>2026-04-06T16:29:49.999Z</time></trkpt><trkpt lat="42.99765649451503" lon="11.288747715557674"><ele>264.0</ele><time>2026-04-06T16:29:50.999Z</time></trkpt><trkpt lat="42.997578832757085" lon="11.288851659630522"><ele>264.0</ele><time>2026-04-06T16:29:51.999Z</time></trkpt><trkpt lat="42.997492797564135" lon="11.288935383696732"><ele>264.0</ele><time>2026-04-06T16:29:52.999Z</time></trkpt><trkpt lat="42.997407058773135" lon="11.288999253777344"><ele>264.0</ele><time>2026-04-06T16:29:53.999Z</time></trkpt><trkpt lat="42.99732780820987" lon="11.289046051532052"><ele>264.0</ele><time>2026-04-06T16:29:54.999Z</time></trkpt><trkpt lat="42.997255992547494" lon="11.289076351759627"><ele>265.5</ele><time>2026-04-06T16:29:55.999Z</time></trkpt><trkpt lat="42.997181039820276" lon="11.289075822810192"><ele>267.0</ele><time>2026-04-06T16:29:56.999Z</time></trkpt><trkpt lat="42.99711784972002" lon="11.289039398328002"><ele>268.5</ele><time>2026-04-06T16:29:57.999Z</time></trkpt><trkpt lat="42.99706379524674" lon="11.288968176618551"><ele>270.0</ele><time>2026-04-06T16:29:58.999Z</time></trkpt><trkpt lat="42.996997308602964" lon="11.288889218473225"><ele>271.5</ele><time>2026-04-06T16:29:59.999Z</time></trkpt><trkpt lat="42.99691915958644" lon="11.28883537552556"><ele>273.0</ele><time>2026-04-06T16:30:00.999Z</time></trkpt><trkpt lat="42.996839919021646" lon="11.288819339391734"><ele>273.0</ele><time>2026-04-06T16:30:01.999Z</time></trkpt><trkpt lat="42.996754106207085" lon="11.288885133648595"><ele>273.0</ele><time>2026-04-06T16:30:02.999Z</time></trkpt><trkpt lat="42.996705626908636" lon="11.289007283350774"><ele>273.0</ele><time>2026-04-06T16:30:03.999Z</time></trkpt><trkpt lat="42.996672268999205" lon="11.289123732429365"><ele>273.0</ele><time>2026-04-06T16:30:04.999Z</time></trkpt><trkpt lat="42.99663881046986" lon="11.289235368324007"><ele>273.0</ele><time>2026-04-06T16:30:05.999Z</time></trkpt><trkpt lat="42.99656414725918" lon="11.289323570765472"><ele>273.6</ele><time>2026-04-06T16:30:06.999Z</time></trkpt><trkpt lat="42.9964854154401" lon="11.289318361548707"><ele>274.20000000000005</ele><time>2026-04-06T16:30:07.999Z</time></trkpt><trkpt lat="42.99638209558141" lon="11.289328068628295"><ele>274.8</ele><time>2026-04-06T16:30:08.999Z</time></trkpt><trkpt lat="42.99625767868015" lon="11.289340267546855"><ele>275.40000000000003</ele><time>2026-04-06T16:30:09.999Z</time></trkpt><trkpt lat="42.99612630494413" lon="11.289353148587995"><ele>276.0</ele><time>2026-04-06T16:30:10.999Z</time></trkpt><trkpt lat="42.99597595699975" lon="11.289380816878037"><ele>276.0</ele><time>2026-04-06T16:30:11.999Z</time></trkpt><trkpt lat="42.99582277106054" lon="11.289395021394254"><ele>276.0</ele><time>2026-04-06T16:30:12.999Z</time></trkpt><trkpt lat="42.99566079411481" lon="11.289407255661738"><ele>276.0</ele><time>2026-04-06T16:30:13.999Z</time></trkpt><trkpt lat="42.99548896291775" lon="11.289423835162383"><ele>276.0</ele><time>2026-04-06T16:30:14.999Z</time></trkpt><trkpt lat="42.995310361357724" lon="11.289429737274121"><ele>276.0</ele><time>2026-04-06T16:30:15.999Z</time></trkpt><trkpt lat="42.99513569514607" lon="11.289455847659362"><ele>276.0</ele><time>2026-04-06T16:30:16.999Z</time></trkpt><trkpt lat="42.99495208233145" lon="11.289473041989856"><ele>275.0</ele><time>2026-04-06T16:30:17.999Z</time></trkpt><trkpt lat="42.99476753694519" lon="11.28950053932278"><ele>274.0</ele><time>2026-04-06T16:30:18.999Z</time></trkpt><trkpt lat="42.99457653295318" lon="11.28953985663441"><ele>273.0</ele><time>2026-04-06T16:30:19.999Z</time></trkpt><trkpt lat="42.99438623112511" lon="11.28959281332141"><ele>273.0</ele><time>2026-04-06T16:30:20.999Z</time></trkpt><trkpt lat="42.99419296442393" lon="11.289645621375632"><ele>273.0</ele><time>2026-04-06T16:30:21.999Z</time></trkpt><trkpt lat="42.99399310396097" lon="11.289687375761511"><ele>273.0</ele><time>2026-04-06T16:30:22.999Z</time></trkpt><trkpt lat="42.99379430585089" lon="11.289678361766532"><ele>272.6666666666667</ele><time>2026-04-06T16:30:23.999Z</time></trkpt><trkpt lat="42.99359958686306" lon="11.289701023380665"><ele>272.33333333333337</ele><time>2026-04-06T16:30:24.999Z</time></trkpt><trkpt lat="42.99341021601216" lon="11.289693012181697"><ele>272.0</ele><time>2026-04-06T16:30:25.999Z</time></trkpt><trkpt lat="42.9932178890311" lon="11.289684002245751"><ele>272.0</ele><time>2026-04-06T16:30:26.999Z</time></trkpt><trkpt lat="42.99302301495692" lon="11.289670274635611"><ele>272.0</ele><time>2026-04-06T16:30:27.999Z</time></trkpt><trkpt lat="42.99282101257623" lon="11.289640029438791"><ele>272.0</ele><time>2026-04-06T16:30:28.999Z</time></trkpt><trkpt lat="42.9926128191512" lon="11.289588832252091"><ele>268.6666666666667</ele><time>2026-04-06T16:30:29.999Z</time></trkpt><trkpt lat="42.992403700769" lon="11.289522485095036"><ele>265.3333333333333</ele><time>2026-04-06T16:30:30.999Z</time></trkpt><trkpt lat="42.99219457522348" lon="11.28944311431454"><ele>262.0</ele><time>2026-04-06T16:30:31.999Z</time></trkpt><trkpt lat="42.99199007556115" lon="11.289354559660207"><ele>262.0</ele><time>2026-04-06T16:30:32.999Z</time></trkpt><trkpt lat="42.991796740696735" lon="11.289250790392135"><ele>262.0</ele><time>2026-04-06T16:30:33.999Z</time></trkpt><trkpt lat="42.99161713122195" lon="11.289134620247776"><ele>262.0</ele><time>2026-04-06T16:30:34.999Z</time></trkpt><trkpt lat="42.99144633171673" lon="11.289020493792533"><ele>260.3333333333333</ele><time>2026-04-06T16:30:35.999Z</time></trkpt><trkpt lat="42.99128910960856" lon="11.288878308082392"><ele>258.6666666666667</ele><time>2026-04-06T16:30:36.999Z</time></trkpt><trkpt lat="42.99113116929607" lon="11.288754272893138"><ele>257.0</ele><time>2026-04-06T16:30:37.999Z</time></trkpt><trkpt lat="42.99096824137196" lon="11.288635357821235"><ele>257.33333333333337</ele><time>2026-04-06T16:30:38.999Z</time></trkpt><trkpt lat="42.990794717162075" lon="11.288541397074924"><ele>257.6666666666667</ele><time>2026-04-06T16:30:39.999Z</time></trkpt><trkpt lat="42.99060306520291" lon="11.288466131961446"><ele>258.0</ele><time>2026-04-06T16:30:40.999Z</time></trkpt><trkpt lat="42.99040717323835" lon="11.288443633528171"><ele>258.0</ele><time>2026-04-06T16:30:41.999Z</time></trkpt><trkpt lat="42.990203094632015" lon="11.288413225532276"><ele>258.0</ele><time>2026-04-06T16:30:42.999Z</time></trkpt><trkpt lat="42.989989529315366" lon="11.288370652830139"><ele>258.0</ele><time>2026-04-06T16:30:43.999Z</time></trkpt><trkpt lat="42.98977342026461" lon="11.288345405024462"><ele>258.6666666666667</ele><time>2026-04-06T16:30:44.998Z</time></trkpt><trkpt lat="42.98955262062581" lon="11.28833859286316"><ele>259.33333333333337</ele><time>2026-04-06T16:30:45.998Z</time></trkpt><trkpt lat="42.98932825947752" lon="11.288310530124257"><ele>260.0</ele><time>2026-04-06T16:30:46.998Z</time></trkpt><trkpt lat="42.98910405763736" lon="11.288289342157483"><ele>260.5</ele><time>2026-04-06T16:30:47.998Z</time></trkpt><trkpt lat="42.98887611541151" lon="11.28825776166689"><ele>261.0</ele><time>2026-04-06T16:30:48.998Z</time></trkpt><trkpt lat="42.988647822596306" lon="11.288273130310095"><ele>261.0</ele><time>2026-04-06T16:30:49.998Z</time></trkpt><trkpt lat="42.988418976173364" lon="11.288267002990025"><ele>261.0</ele><time>2026-04-06T16:30:50.998Z</time></trkpt><trkpt lat="42.98818999479606" lon="11.288261667726756"><ele>262.0</ele><time>2026-04-06T16:30:51.998Z</time></trkpt><trkpt lat="42.987966864872924" lon="11.288248431248354"><ele>263.0</ele><time>2026-04-06T16:30:52.998Z</time></trkpt><trkpt lat="42.9877507160176" lon="11.288217129387169"><ele>264.0</ele><time>2026-04-06T16:30:53.998Z</time></trkpt><trkpt lat="42.987546425157824" lon="11.288154034835163"><ele>263.6666666666667</ele><time>2026-04-06T16:30:54.998Z</time></trkpt><trkpt lat="42.98736139280339" lon="11.288063850778487"><ele>263.33333333333337</ele><time>2026-04-06T16:30:55.998Z</time></trkpt><trkpt lat="42.98718301370553" lon="11.28794614951275"><ele>263.0</ele><time>2026-04-06T16:30:56.998Z</time></trkpt><trkpt lat="42.987000177307145" lon="11.287807989953627"><ele>263.0</ele><time>2026-04-06T16:30:57.998Z</time></trkpt><trkpt lat="42.98680882327918" lon="11.287703375258525"><ele>263.0</ele><time>2026-04-06T16:30:58.998Z</time></trkpt><trkpt lat="42.98661769377768" lon="11.28763307709747"><ele>263.0</ele><time>2026-04-06T16:30:59.998Z</time></trkpt><trkpt lat="42.986429328376246" lon="11.287603987876087"><ele>262.33333333333337</ele><time>2026-04-06T16:31:00.998Z</time></trkpt><trkpt lat="42.9862479403102" lon="11.287618743486622"><ele>261.6666666666667</ele><time>2026-04-06T16:31:01.998Z</time></trkpt><trkpt lat="42.98607098825118" lon="11.287669347084993"><ele>261.0</ele><time>2026-04-06T16:31:02.998Z</time></trkpt><trkpt lat="42.98590624637669" lon="11.287763392156526"><ele>259.0</ele><time>2026-04-06T16:31:03.998Z</time></trkpt><trkpt lat="42.98574651868453" lon="11.287898486482243"><ele>257.0</ele><time>2026-04-06T16:31:04.998Z</time></trkpt><trkpt lat="42.985569786103355" lon="11.2880062649298"><ele>255.0</ele><time>2026-04-06T16:31:05.998Z</time></trkpt><trkpt lat="42.98537674738669" lon="11.288085215741333"><ele>254.66666666666669</ele><time>2026-04-06T16:31:06.998Z</time></trkpt><trkpt lat="42.98519039183131" lon="11.288131500695236"><ele>254.33333333333334</ele><time>2026-04-06T16:31:07.998Z</time></trkpt><trkpt lat="42.98497349017358" lon="11.28814540589493"><ele>254.0</ele><time>2026-04-06T16:31:08.998Z</time></trkpt><trkpt lat="42.984753363822925" lon="11.288120107703007"><ele>247.5</ele><time>2026-04-06T16:31:09.998Z</time></trkpt><trkpt lat="42.98452859176704" lon="11.288055372752316"><ele>241.0</ele><time>2026-04-06T16:31:10.998Z</time></trkpt><trkpt lat="42.984305558071334" lon="11.287982800053486"><ele>239.0</ele><time>2026-04-06T16:31:12Z</time></trkpt><trkpt lat="42.984074469999925" lon="11.287922259015039"><ele>237.0</ele><time>2026-04-06T16:31:13Z</time></trkpt><trkpt lat="42.983836597596444" lon="11.287861574698884"><ele>237.0</ele><time>2026-04-06T16:31:14Z</time></trkpt><trkpt lat="42.983602128348416" lon="11.287777687180748"><ele>237.0</ele><time>2026-04-06T16:31:15Z</time></trkpt><trkpt lat="42.98339418044039" lon="11.28764429970008"><ele>237.0</ele><time>2026-04-06T16:31:16Z</time></trkpt><trkpt lat="42.983208032041624" lon="11.287507929523784"><ele>237.0</ele><time>2026-04-06T16:31:17Z</time></trkpt><trkpt lat="42.98299922279417" lon="11.28743055405972"><ele>237.0</ele><time>2026-04-06T16:31:18Z</time></trkpt><trkpt lat="42.98278838018693" lon="11.287394216858521"><ele>237.0</ele><time>2026-04-06T16:31:19Z</time></trkpt><trkpt lat="42.98257191479793" lon="11.287404797429577"><ele>237.0</ele><time>2026-04-06T16:31:20Z</time></trkpt><trkpt lat="42.982363000408206" lon="11.287414539339679"><ele>237.0</ele><time>2026-04-06T16:31:21Z</time></trkpt><trkpt lat="42.98216923077847" lon="11.287399184578483"><ele>235.66666666666669</ele><time>2026-04-06T16:31:22Z</time></trkpt><trkpt lat="42.98197419746949" lon="11.287333079242863"><ele>234.33333333333334</ele><time>2026-04-06T16:31:23Z</time></trkpt><trkpt lat="42.98178948435081" lon="11.287201846065829"><ele>233.0</ele><time>2026-04-06T16:31:24Z</time></trkpt><trkpt lat="42.98161151765933" lon="11.287028425741052"><ele>229.0</ele><time>2026-04-06T16:31:25Z</time></trkpt><trkpt lat="42.981452432314384" lon="11.286815300371519"><ele>225.0</ele><time>2026-04-06T16:31:26Z</time></trkpt><trkpt lat="42.981314181635064" lon="11.286578263643047"><ele>221.0</ele><time>2026-04-06T16:31:27Z</time></trkpt><trkpt lat="42.981171603200075" lon="11.286349188098864"><ele>217.0</ele><time>2026-04-06T16:31:28Z</time></trkpt><trkpt lat="42.98100727883937" lon="11.286143800299248"><ele>213.0</ele><time>2026-04-06T16:31:29Z</time></trkpt><trkpt lat="42.98081140189986" lon="11.285950768112277"><ele>210.5</ele><time>2026-04-06T16:31:30Z</time></trkpt><trkpt lat="42.98059700778278" lon="11.285781469744013"><ele>208.0</ele><time>2026-04-06T16:31:31Z</time></trkpt><trkpt lat="42.98038218488206" lon="11.285620323003156"><ele>205.5</ele><time>2026-04-06T16:31:32Z</time></trkpt><trkpt lat="42.98016753697416" lon="11.28549829350174"><ele>203.0</ele><time>2026-04-06T16:31:33Z</time></trkpt><trkpt lat="42.97995688529006" lon="11.285352163085838"><ele>200.5</ele><time>2026-04-06T16:31:34Z</time></trkpt><trkpt lat="42.97973881755493" lon="11.285208002141623"><ele>198.0</ele><time>2026-04-06T16:31:35Z</time></trkpt><trkpt lat="42.97950090580765" lon="11.285071543137727"><ele>198.0</ele><time>2026-04-06T16:31:36Z</time></trkpt><trkpt lat="42.979273424685196" lon="11.284939926459177"><ele>198.0</ele><time>2026-04-06T16:31:37Z</time></trkpt><trkpt lat="42.97905517583307" lon="11.284797631475818"><ele>195.5</ele><time>2026-04-06T16:31:38Z</time></trkpt><trkpt lat="42.97883769528684" lon="11.284636835849733"><ele>193.0</ele><time>2026-04-06T16:31:39Z</time></trkpt><trkpt lat="42.97861899599912" lon="11.284462104898354"><ele>193.0</ele><time>2026-04-06T16:31:40Z</time></trkpt><trkpt lat="42.97842958391079" lon="11.284278243254814"><ele>193.0</ele><time>2026-04-06T16:31:41Z</time></trkpt><trkpt lat="42.97822494192572" lon="11.284096682474814"><ele>192.5</ele><time>2026-04-06T16:31:42Z</time></trkpt><trkpt lat="42.978014042870136" lon="11.283913383462288"><ele>192.0</ele><time>2026-04-06T16:31:43Z</time></trkpt><trkpt lat="42.97780795783498" lon="11.283728882641173"><ele>192.0</ele><time>2026-04-06T16:31:44Z</time></trkpt><trkpt lat="42.9775972206669" lon="11.283542004649084"><ele>192.0</ele><time>2026-04-06T16:31:45Z</time></trkpt><trkpt lat="42.97737440241822" lon="11.283345472030016"><ele>188.0</ele><time>2026-04-06T16:31:46Z</time></trkpt><trkpt lat="42.9771699454275" lon="11.283152494043135"><ele>184.0</ele><time>2026-04-06T16:31:47Z</time></trkpt><trkpt lat="42.97698415253036" lon="11.28297540904726"><ele>184.0</ele><time>2026-04-06T16:31:48Z</time></trkpt><trkpt lat="42.97679608898583" lon="11.28282489568736"><ele>184.0</ele><time>2026-04-06T16:31:49Z</time></trkpt><trkpt lat="42.97662592051415" lon="11.282685081192044"><ele>184.0</ele><time>2026-04-06T16:31:50Z</time></trkpt><trkpt lat="42.97645505387836" lon="11.282526890093905"><ele>183.66666666666669</ele><time>2026-04-06T16:31:51Z</time></trkpt><trkpt lat="42.97628912652092" lon="11.282373269690877"><ele>183.33333333333334</ele><time>2026-04-06T16:31:52Z</time></trkpt><trkpt lat="42.97611117022278" lon="11.282214231128247"><ele>183.0</ele><time>2026-04-06T16:31:53Z</time></trkpt><trkpt lat="42.97593300341975" lon="11.282059081992427"><ele>181.66666666666666</ele><time>2026-04-06T16:31:54Z</time></trkpt><trkpt lat="42.97574667753751" lon="11.28190344983496"><ele>180.33333333333331</ele><time>2026-04-06T16:31:55Z</time></trkpt><trkpt lat="42.975555021496525" lon="11.28174826445312"><ele>179.0</ele><time>2026-04-06T16:31:55.999Z</time></trkpt><trkpt lat="42.975355327160614" lon="11.281592510372795"><ele>177.5</ele><time>2026-04-06T16:31:56.999Z</time></trkpt><trkpt lat="42.97514997037162" lon="11.281429292328006"><ele>176.0</ele><time>2026-04-06T16:31:57.999Z</time></trkpt><trkpt lat="42.9749412660156" lon="11.281257748908478"><ele>176.0</ele><time>2026-04-06T16:31:58.999Z</time></trkpt><trkpt lat="42.974731441646284" lon="11.281083652070688"><ele>176.0</ele><time>2026-04-06T16:31:59.999Z</time></trkpt><trkpt lat="42.9745160609999" lon="11.28090763557592"><ele>176.0</ele><time>2026-04-06T16:32:00.999Z</time></trkpt><trkpt lat="42.974299677360584" lon="11.280733400545289"><ele>176.0</ele><time>2026-04-06T16:32:01.999Z</time></trkpt><trkpt lat="42.97408027880961" lon="11.280559772676288"><ele>176.0</ele><time>2026-04-06T16:32:02.999Z</time></trkpt><trkpt lat="42.97385950964464" lon="11.280388668916677"><ele>176.0</ele><time>2026-04-06T16:32:03.999Z</time></trkpt><trkpt lat="42.9736381779558" lon="11.28021644573174"><ele>176.0</ele><time>2026-04-06T16:32:04.999Z</time></trkpt><trkpt lat="42.97342257563612" lon="11.280045246901585"><ele>176.0</ele><time>2026-04-06T16:32:05.999Z</time></trkpt><trkpt lat="42.97321257011108" lon="11.279877897158222"><ele>175.0</ele><time>2026-04-06T16:32:06.999Z</time></trkpt><trkpt lat="42.97300416482424" lon="11.27972420750805"><ele>174.0</ele><time>2026-04-06T16:32:07.999Z</time></trkpt><trkpt lat="42.97280091339756" lon="11.279589724436313"><ele>174.0</ele><time>2026-04-06T16:32:08.999Z</time></trkpt><trkpt lat="42.972601497420115" lon="11.27947718616226"><ele>174.0</ele><time>2026-04-06T16:32:09.999Z</time></trkpt><trkpt lat="42.972405109726736" lon="11.279376088051938"><ele>174.0</ele><time>2026-04-06T16:32:10.999Z</time></trkpt><trkpt lat="42.9722074059481" lon="11.279293577392583"><ele>176.33333333333334</ele><time>2026-04-06T16:32:11.999Z</time></trkpt><trkpt lat="42.9720044513479" lon="11.279228422668577"><ele>178.66666666666669</ele><time>2026-04-06T16:32:12.999Z</time></trkpt><trkpt lat="42.971801298961005" lon="11.279177141760554"><ele>181.0</ele><time>2026-04-06T16:32:13.999Z</time></trkpt><trkpt lat="42.971609207474856" lon="11.279141111844524"><ele>181.33333333333334</ele><time>2026-04-06T16:32:14.999Z</time></trkpt><trkpt lat="42.97141608424706" lon="11.279109586233309"><ele>181.66666666666666</ele><time>2026-04-06T16:32:15.999Z</time></trkpt><trkpt lat="42.97122192303668" lon="11.279105763783985"><ele>182.0</ele><time>2026-04-06T16:32:16.999Z</time></trkpt><trkpt lat="42.97102791800625" lon="11.279114547389469"><ele>180.33333333333331</ele><time>2026-04-06T16:32:17.999Z</time></trkpt><trkpt lat="42.97082801765283" lon="11.279135131626392"><ele>178.66666666666666</ele><time>2026-04-06T16:32:18.999Z</time></trkpt><trkpt lat="42.9706215902717" lon="11.279171090296833"><ele>177.0</ele><time>2026-04-06T16:32:19.999Z</time></trkpt><trkpt lat="42.97040344081337" lon="11.279225637757067"><ele>177.0</ele><time>2026-04-06T16:32:20.999Z</time></trkpt><trkpt lat="42.97017984229756" lon="11.279293981474456"><ele>177.0</ele><time>2026-04-06T16:32:21.999Z</time></trkpt><trkpt lat="42.969952843117106" lon="11.279386155984783"><ele>176.5</ele><time>2026-04-06T16:32:22.999Z</time></trkpt><trkpt lat="42.96972784451418" lon="11.279502415023865"><ele>176.0</ele><time>2026-04-06T16:32:23.999Z</time></trkpt><trkpt lat="42.969505872580235" lon="11.279643153793346"><ele>171.5</ele><time>2026-04-06T16:32:24.999Z</time></trkpt><trkpt lat="42.96928866943566" lon="11.279800255624576"><ele>167.0</ele><time>2026-04-06T16:32:25.999Z</time></trkpt><trkpt lat="42.96907189669781" lon="11.279970224309292"><ele>167.0</ele><time>2026-04-06T16:32:26.999Z</time></trkpt><trkpt lat="42.96885466976979" lon="11.280143656883736"><ele>167.0</ele><time>2026-04-06T16:32:27.999Z</time></trkpt><trkpt lat="42.968637327061934" lon="11.28032321692267"><ele>167.0</ele><time>2026-04-06T16:32:28.999Z</time></trkpt><trkpt lat="42.968417864666996" lon="11.280504071720326"><ele>167.0</ele><time>2026-04-06T16:32:29.999Z</time></trkpt><trkpt lat="42.968197230905105" lon="11.28068498424494"><ele>165.5</ele><time>2026-04-06T16:32:30.999Z</time></trkpt><trkpt lat="42.9679766765779" lon="11.280867870845324"><ele>164.0</ele><time>2026-04-06T16:32:31.999Z</time></trkpt><trkpt lat="42.96775737151829" lon="11.281051444419907"><ele>164.0</ele><time>2026-04-06T16:32:32.999Z</time></trkpt><trkpt lat="42.96754000898712" lon="11.281231736966673"><ele>164.0</ele><time>2026-04-06T16:32:33.999Z</time></trkpt><trkpt lat="42.967323699150214" lon="11.281411424477175"><ele>162.0</ele><time>2026-04-06T16:32:34.999Z</time></trkpt><trkpt lat="42.96710877061019" lon="11.28158958203756"><ele>160.0</ele><time>2026-04-06T16:32:35.999Z</time></trkpt><trkpt lat="42.966894062872605" lon="11.281765367092186"><ele>161.5</ele><time>2026-04-06T16:32:36.999Z</time></trkpt><trkpt lat="42.966676740209216" lon="11.281943159184324"><ele>163.0</ele><time>2026-04-06T16:32:37.999Z</time></trkpt><trkpt lat="42.96645897894759" lon="11.282125183001435"><ele>159.5</ele><time>2026-04-06T16:32:38.999Z</time></trkpt><trkpt lat="42.966237947930004" lon="11.282312209437725"><ele>156.0</ele><time>2026-04-06T16:32:39.999Z</time></trkpt><trkpt lat="42.966013716762276" lon="11.282499564750761"><ele>158.0</ele><time>2026-04-06T16:32:40.999Z</time></trkpt><trkpt lat="42.96578949812681" lon="11.28268810604641"><ele>160.0</ele><time>2026-04-06T16:32:41.999Z</time></trkpt><trkpt lat="42.96556417550348" lon="11.282875640846076"><ele>160.0</ele><time>2026-04-06T16:32:42.999Z</time></trkpt><trkpt lat="42.96533669582245" lon="11.283060727506642"><ele>160.0</ele><time>2026-04-06T16:32:43.999Z</time></trkpt><trkpt lat="42.96510358696312" lon="11.283235889530351"><ele>156.5</ele><time>2026-04-06T16:32:44.999Z</time></trkpt><trkpt lat="42.96486479667748" lon="11.283399953149193"><ele>153.0</ele><time>2026-04-06T16:32:45.999Z</time></trkpt><trkpt lat="42.96462245801857" lon="11.283547754296432"><ele>153.0</ele><time>2026-04-06T16:32:46.999Z</time></trkpt><trkpt lat="42.964379794272595" lon="11.283675110194675"><ele>153.0</ele><time>2026-04-06T16:32:47.999Z</time></trkpt><trkpt lat="42.964139893493325" lon="11.283782689420546"><ele>153.5</ele><time>2026-04-06T16:32:48.999Z</time></trkpt><trkpt lat="42.96390549578549" lon="11.283877545085888"><ele>154.0</ele><time>2026-04-06T16:32:49.998Z</time></trkpt><trkpt lat="42.9636672213402" lon="11.283953608349885"><ele>154.0</ele><time>2026-04-06T16:32:50.998Z</time></trkpt><trkpt lat="42.963427168062736" lon="11.284010172222759"><ele>154.0</ele><time>2026-04-06T16:32:51.998Z</time></trkpt><trkpt lat="42.96318816641808" lon="11.284054898618963"><ele>156.0</ele><time>2026-04-06T16:32:52.998Z</time></trkpt><trkpt lat="42.96294667488226" lon="11.284085792825534"><ele>158.0</ele><time>2026-04-06T16:32:53.998Z</time></trkpt><trkpt lat="42.96270357621454" lon="11.284102362745864"><ele>155.5</ele><time>2026-04-06T16:32:54.998Z</time></trkpt><trkpt lat="42.96245874741017" lon="11.284099935146704"><ele>153.0</ele><time>2026-04-06T16:32:55.998Z</time></trkpt><trkpt lat="42.96221477290696" lon="11.284082057391252"><ele>153.0</ele><time>2026-04-06T16:32:56.998Z</time></trkpt><trkpt lat="42.96196863043201" lon="11.284046759476386"><ele>153.0</ele><time>2026-04-06T16:32:57.998Z</time></trkpt><trkpt lat="42.96172551094371" lon="11.284002509217121"><ele>152.5</ele><time>2026-04-06T16:32:58.998Z</time></trkpt><trkpt lat="42.96148268869539" lon="11.283948712808648"><ele>152.0</ele><time>2026-04-06T16:32:59.998Z</time></trkpt><trkpt lat="42.96123966360636" lon="11.283895107682268"><ele>152.0</ele><time>2026-04-06T16:33:00.998Z</time></trkpt><trkpt lat="42.96099523364339" lon="11.283842543826621"><ele>152.0</ele><time>2026-04-06T16:33:01.998Z</time></trkpt><trkpt lat="42.96075054695686" lon="11.28379222729785"><ele>151.5</ele><time>2026-04-06T16:33:02.998Z</time></trkpt><trkpt lat="42.96050743152367" lon="11.283739226548027"><ele>151.0</ele><time>2026-04-06T16:33:03.998Z</time></trkpt><trkpt lat="42.96026336633299" lon="11.28368438169979"><ele>151.5</ele><time>2026-04-06T16:33:04.998Z</time></trkpt><trkpt lat="42.96002053986995" lon="11.283625358509576"><ele>152.0</ele><time>2026-04-06T16:33:05.998Z</time></trkpt><trkpt lat="42.959781457478435" lon="11.283564170639545"><ele>152.0</ele><time>2026-04-06T16:33:06.998Z</time></trkpt><trkpt lat="42.95954262992256" lon="11.283499716925423"><ele>152.0</ele><time>2026-04-06T16:33:07.998Z</time></trkpt><trkpt lat="42.95930508198926" lon="11.28342763439592"><ele>153.5</ele><time>2026-04-06T16:33:08.998Z</time></trkpt><trkpt lat="42.95906909649187" lon="11.283355443851962"><ele>155.0</ele><time>2026-04-06T16:33:09.998Z</time></trkpt><trkpt lat="42.958830362826646" lon="11.283281024858622"><ele>155.0</ele><time>2026-04-06T16:33:10.998Z</time></trkpt><trkpt lat="42.95859331858258" lon="11.283206491605869"><ele>155.0</ele><time>2026-04-06T16:33:11.998Z</time></trkpt><trkpt lat="42.958356759242015" lon="11.283130916316455"><ele>157.5</ele><time>2026-04-06T16:33:12.998Z</time></trkpt><trkpt lat="42.95812091249778" lon="11.283054566055991"><ele>160.0</ele><time>2026-04-06T16:33:13.998Z</time></trkpt><trkpt lat="42.95788953837748" lon="11.282972171115969"><ele>160.0</ele><time>2026-04-06T16:33:14.998Z</time></trkpt><trkpt lat="42.95766757174443" lon="11.28289605998431"><ele>160.0</ele><time>2026-04-06T16:33:15.998Z</time></trkpt><trkpt lat="42.95744938094311" lon="11.282841682579265"><ele>158.66666666666669</ele><time>2026-04-06T16:33:16.998Z</time></trkpt><trkpt lat="42.95723090273514" lon="11.282817868009296"><ele>157.33333333333334</ele><time>2026-04-06T16:33:18Z</time></trkpt><trkpt lat="42.95701981469749" lon="11.282795763506122"><ele>156.0</ele><time>2026-04-06T16:33:19Z</time></trkpt><trkpt lat="42.956814193368494" lon="11.282734738434579"><ele>154.66666666666666</ele><time>2026-04-06T16:33:20Z</time></trkpt><trkpt lat="42.95662374054616" lon="11.282631581685916"><ele>153.33333333333331</ele><time>2026-04-06T16:33:21Z</time></trkpt><trkpt lat="42.95644086996036" lon="11.282500159484503"><ele>152.0</ele><time>2026-04-06T16:33:22Z</time></trkpt><trkpt lat="42.95626680673067" lon="11.282356462835084"><ele>152.66666666666666</ele><time>2026-04-06T16:33:23Z</time></trkpt><trkpt lat="42.956095681683664" lon="11.28222733766009"><ele>153.33333333333334</ele><time>2026-04-06T16:33:24Z</time></trkpt><trkpt lat="42.95593701473559" lon="11.282105310064534"><ele>154.0</ele><time>2026-04-06T16:33:25Z</time></trkpt><trkpt lat="42.955744409643266" lon="11.282091142763319"><ele>154.0</ele><time>2026-04-06T16:33:26Z</time></trkpt><trkpt lat="42.955557217335496" lon="11.282085708347966"><ele>154.0</ele><time>2026-04-06T16:33:27Z</time></trkpt><trkpt lat="42.95537617024343" lon="11.282143410140023"><ele>154.0</ele><time>2026-04-06T16:33:28Z</time></trkpt><trkpt lat="42.955211206495754" lon="11.282269222202192"><ele>152.33333333333334</ele><time>2026-04-06T16:33:29Z</time></trkpt><trkpt lat="42.95506473016328" lon="11.282436127916519"><ele>150.66666666666666</ele><time>2026-04-06T16:33:30Z</time></trkpt><trkpt lat="42.95493978206977" lon="11.282642700522414"><ele>149.0</ele><time>2026-04-06T16:33:31Z</time></trkpt><trkpt lat="42.95484695914419" lon="11.282897853108532"><ele>147.0</ele><time>2026-04-06T16:33:32Z</time></trkpt><trkpt lat="42.95476843662173" lon="11.283164705036592"><ele>145.0</ele><time>2026-04-06T16:33:33Z</time></trkpt><trkpt lat="42.95469343766624" lon="11.283426228271429"><ele>143.0</ele><time>2026-04-06T16:33:34Z</time></trkpt><trkpt lat="42.9546015649763" lon="11.2836692008358"><ele>143.0</ele><time>2026-04-06T16:33:35Z</time></trkpt><trkpt lat="42.95449824987936" lon="11.283916320423035"><ele>143.0</ele><time>2026-04-06T16:33:36Z</time></trkpt><trkpt lat="42.95439138565854" lon="11.284164953305442"><ele>143.0</ele><time>2026-04-06T16:33:37Z</time></trkpt><trkpt lat="42.95428573959255" lon="11.284410605006734"><ele>142.33333333333331</ele><time>2026-04-06T16:33:38Z</time></trkpt><trkpt lat="42.95417762893673" lon="11.284652399807376"><ele>141.66666666666666</ele><time>2026-04-06T16:33:39Z</time></trkpt><trkpt lat="42.954071730066694" lon="11.284887455962979"><ele>141.0</ele><time>2026-04-06T16:33:40Z</time></trkpt><trkpt lat="42.95395841222525" lon="11.285119160890924"><ele>141.0</ele><time>2026-04-06T16:33:41Z</time></trkpt><trkpt lat="42.95383787618613" lon="11.285338736102872"><ele>141.0</ele><time>2026-04-06T16:33:42Z</time></trkpt><trkpt lat="42.95371178805238" lon="11.28555507662929"><ele>141.0</ele><time>2026-04-06T16:33:43Z</time></trkpt><trkpt lat="42.95358920475997" lon="11.285764568496138"><ele>141.33333333333334</ele><time>2026-04-06T16:33:44Z</time></trkpt><trkpt lat="42.95346736636218" lon="11.285966321420123"><ele>141.66666666666669</ele><time>2026-04-06T16:33:45Z</time></trkpt><trkpt lat="42.95334997045636" lon="11.286147529684548"><ele>142.0</ele><time>2026-04-06T16:33:46Z</time></trkpt><trkpt lat="42.953231968765024" lon="11.286305629259276"><ele>140.0</ele><time>2026-04-06T16:33:47Z</time></trkpt><trkpt lat="42.953116154554415" lon="11.286451142912483"><ele>138.0</ele><time>2026-04-06T16:33:48Z</time></trkpt><trkpt lat="42.952969124919015" lon="11.286585302305047"><ele>136.0</ele><time>2026-04-06T16:33:49Z</time></trkpt><trkpt lat="42.95283561887403" lon="11.286699962946866"><ele>136.0</ele><time>2026-04-06T16:33:50Z</time></trkpt><trkpt lat="42.952713987788044" lon="11.286800942438553"><ele>136.0</ele><time>2026-04-06T16:33:51Z</time></trkpt><trkpt lat="42.95257236475877" lon="11.286913217171232"><ele>136.0</ele><time>2026-04-06T16:33:52Z</time></trkpt><trkpt lat="42.952420851858484" lon="11.287004292681972"><ele>138.0</ele><time>2026-04-06T16:33:53Z</time></trkpt><trkpt lat="42.95226431965563" lon="11.287064910286233"><ele>140.0</ele><time>2026-04-06T16:33:54Z</time></trkpt><trkpt lat="42.952113701099144" lon="11.287128579251652"><ele>142.0</ele><time>2026-04-06T16:33:55Z</time></trkpt><trkpt lat="42.95196188294936" lon="11.287185528884859"><ele>142.0</ele><time>2026-04-06T16:33:56Z</time></trkpt><trkpt lat="42.95181448824428" lon="11.287229864465587"><ele>142.0</ele><time>2026-04-06T16:33:57Z</time></trkpt><trkpt lat="42.95165379574278" lon="11.287270412284936"><ele>142.0</ele><time>2026-04-06T16:33:58Z</time></trkpt><trkpt lat="42.951486162288376" lon="11.287260155017176"><ele>142.0</ele><time>2026-04-06T16:33:59Z</time></trkpt><trkpt lat="42.95128524356034" lon="11.28725522951598"><ele>142.0</ele><time>2026-04-06T16:34:00Z</time></trkpt><trkpt lat="42.95111507150908" lon="11.287249144512886"><ele>142.0</ele><time>2026-04-06T16:34:01Z</time></trkpt><trkpt lat="42.950940656723446" lon="11.287259467303835"><ele>137.0</ele><time>2026-04-06T16:34:01.999Z</time></trkpt><trkpt lat="42.9507874447511" lon="11.287270927514705"><ele>132.0</ele><time>2026-04-06T16:34:02.999Z</time></trkpt><trkpt lat="42.95061713193654" lon="11.287280960371756"><ele>127.0</ele><time>2026-04-06T16:34:03.999Z</time></trkpt><trkpt lat="42.95044796020533" lon="11.287298900637314"><ele>127.0</ele><time>2026-04-06T16:34:04.999Z</time></trkpt><trkpt lat="42.95029228936407" lon="11.287332157619716"><ele>127.0</ele><time>2026-04-06T16:34:05.999Z</time></trkpt><trkpt lat="42.95012992352179" lon="11.287380254831662"><ele>127.0</ele><time>2026-04-06T16:34:06.999Z</time></trkpt><trkpt lat="42.9499688010085" lon="11.287432614653314"><ele>124.33333333333334</ele><time>2026-04-06T16:34:07.999Z</time></trkpt><trkpt lat="42.94980439255846" lon="11.28750167192575"><ele>121.66666666666666</ele><time>2026-04-06T16:34:08.999Z</time></trkpt><trkpt lat="42.949579019832335" lon="11.287565314610767"><ele>119.0</ele><time>2026-04-06T16:34:09.999Z</time></trkpt><trkpt lat="42.94938968795857" lon="11.287633251343225"><ele>115.66666666666666</ele><time>2026-04-06T16:34:10.999Z</time></trkpt><trkpt lat="42.949208756262166" lon="11.287711830146138"><ele>112.33333333333334</ele><time>2026-04-06T16:34:11.999Z</time></trkpt><trkpt lat="42.949014600554506" lon="11.287807653448755"><ele>109.0</ele><time>2026-04-06T16:34:12.999Z</time></trkpt><trkpt lat="42.94884369370823" lon="11.28790324485092"><ele>109.0</ele><time>2026-04-06T16:34:13.999Z</time></trkpt><trkpt lat="42.94867971897188" lon="11.28799917454133"><ele>109.0</ele><time>2026-04-06T16:34:14.999Z</time></trkpt><trkpt lat="42.94850201477866" lon="11.288092674965757"><ele>109.0</ele><time>2026-04-06T16:34:15.999Z</time></trkpt><trkpt lat="42.948318215054776" lon="11.288182740844864"><ele>109.0</ele><time>2026-04-06T16:34:16.999Z</time></trkpt><trkpt lat="42.94814101686129" lon="11.2882606698197"><ele>109.0</ele><time>2026-04-06T16:34:17.999Z</time></trkpt><trkpt lat="42.94797645076689" lon="11.288344710952229"><ele>109.0</ele><time>2026-04-06T16:34:18.999Z</time></trkpt><trkpt lat="42.947824722213085" lon="11.288451788465919"><ele>109.0</ele><time>2026-04-06T16:34:19.999Z</time></trkpt><trkpt lat="42.94769299385154" lon="11.288537422905627"><ele>109.0</ele><time>2026-04-06T16:34:20.999Z</time></trkpt><trkpt lat="42.947585607658546" lon="11.28864091907601"><ele>109.0</ele><time>2026-04-06T16:34:21.999Z</time></trkpt><trkpt lat="42.94745394861766" lon="11.288766583837655"><ele>109.0</ele><time>2026-04-06T16:34:22.999Z</time></trkpt><trkpt lat="42.947326317360975" lon="11.288912498621382"><ele>107.66666666666667</ele><time>2026-04-06T16:34:23.999Z</time></trkpt><trkpt lat="42.94714121420869" lon="11.28903764273696"><ele>106.33333333333334</ele><time>2026-04-06T16:34:24.999Z</time></trkpt><trkpt lat="42.94705257980717" lon="11.289304588719355"><ele>105.0</ele><time>2026-04-06T16:34:25.999Z</time></trkpt><trkpt lat="42.94710512679931" lon="11.289551418148402"><ele>105.0</ele><time>2026-04-06T16:34:26.999Z</time></trkpt><trkpt lat="42.94701974499465" lon="11.289754019548461"><ele>105.0</ele><time>2026-04-06T16:34:27.999Z</time></trkpt><trkpt lat="42.94691585412651" lon="11.28994737604608"><ele>105.0</ele><time>2026-04-06T16:34:28.999Z</time></trkpt><trkpt lat="42.94680136089971" lon="11.290108778416693"><ele>103.25</ele><time>2026-04-06T16:34:29.999Z</time></trkpt><trkpt lat="42.946706017960935" lon="11.290253873580967"><ele>101.5</ele><time>2026-04-06T16:34:30.999Z</time></trkpt><trkpt lat="42.946595625575476" lon="11.290400711707157"><ele>99.75</ele><time>2026-04-06T16:34:31.999Z</time></trkpt><trkpt lat="42.94649403478071" lon="11.290499933982277"><ele>98.0</ele><time>2026-04-06T16:34:32.999Z</time></trkpt><trkpt lat="42.946383139468935" lon="11.290578043365205"><ele>99.4</ele><time>2026-04-06T16:34:33.999Z</time></trkpt><trkpt lat="42.9462820803569" lon="11.290621206934972"><ele>100.80000000000001</ele><time>2026-04-06T16:34:34.999Z</time></trkpt><trkpt lat="42.946181636886394" lon="11.290649413008124"><ele>102.2</ele><time>2026-04-06T16:34:35.999Z</time></trkpt><trkpt lat="42.946088512112254" lon="11.290677377507134"><ele>103.6</ele><time>2026-04-06T16:34:36.999Z</time></trkpt><trkpt lat="42.94598962849482" lon="11.290721690933646"><ele>105.0</ele><time>2026-04-06T16:34:37.999Z</time></trkpt><trkpt lat="42.94587581346115" lon="11.290791033747066"><ele>105.0</ele><time>2026-04-06T16:34:38.999Z</time></trkpt><trkpt lat="42.94578884160187" lon="11.290865773532708"><ele>105.0</ele><time>2026-04-06T16:34:39.999Z</time></trkpt><trkpt lat="42.94566286687304" lon="11.291018023621989"><ele>105.0</ele><time>2026-04-06T16:34:40.999Z</time></trkpt><trkpt lat="42.9455480556127" lon="11.291172583909523"><ele>105.0</ele><time>2026-04-06T16:34:41.999Z</time></trkpt><trkpt lat="42.94545362205789" lon="11.291301467690847"><ele>105.66666666666666</ele><time>2026-04-06T16:34:42.999Z</time></trkpt><trkpt lat="42.945340966719435" lon="11.291458685309978"><ele>106.33333333333333</ele><time>2026-04-06T16:34:43.999Z</time></trkpt><trkpt lat="42.94523772313689" lon="11.291638066590998"><ele>107.0</ele><time>2026-04-06T16:34:44.999Z</time></trkpt><trkpt lat="42.945121393032245" lon="11.291806377461482"><ele>102.33333333333333</ele><time>2026-04-06T16:34:45.999Z</time></trkpt><trkpt lat="42.944993281198265" lon="11.291952378955756"><ele>97.66666666666666</ele><time>2026-04-06T16:34:46.999Z</time></trkpt><trkpt lat="42.944868538544235" lon="11.292108173308515"><ele>93.0</ele><time>2026-04-06T16:34:47.999Z</time></trkpt><trkpt lat="42.944735380476125" lon="11.292263178314938"><ele>93.0</ele><time>2026-04-06T16:34:48.999Z</time></trkpt><trkpt lat="42.94461806318986" lon="11.292409050226288"><ele>93.0</ele><time>2026-04-06T16:34:49.999Z</time></trkpt><trkpt lat="42.94448728674392" lon="11.292545561343086"><ele>93.0</ele><time>2026-04-06T16:34:50.999Z</time></trkpt><trkpt lat="42.94435449433701" lon="11.292650113417892"><ele>93.0</ele><time>2026-04-06T16:34:51.999Z</time></trkpt><trkpt lat="42.944225995422784" lon="11.292775822146796"><ele>93.0</ele><time>2026-04-06T16:34:52.999Z</time></trkpt><trkpt lat="42.94409379502812" lon="11.292905238516465"><ele>93.0</ele><time>2026-04-06T16:34:53.999Z</time></trkpt><trkpt lat="42.94397733227407" lon="11.293016904686157"><ele>92.0</ele><time>2026-04-06T16:34:54.999Z</time></trkpt><trkpt lat="42.943861401101636" lon="11.293122946956846"><ele>91.0</ele><time>2026-04-06T16:34:55.999Z</time></trkpt><trkpt lat="42.94375861739683" lon="11.293195439261176"><ele>90.0</ele><time>2026-04-06T16:34:56.999Z</time></trkpt><trkpt lat="42.94368984620314" lon="11.293241339887839"><ele>89.0</ele><time>2026-04-06T16:34:57.998Z</time></trkpt><trkpt lat="42.94362169338467" lon="11.293212128990318"><ele>88.0</ele><time>2026-04-06T16:34:58.998Z</time></trkpt><trkpt lat="42.94354997877494" lon="11.293193037616648"><ele>88.0</ele><time>2026-04-06T16:34:59.998Z</time></trkpt><trkpt lat="42.943449281492384" lon="11.293149450804108"><ele>88.0</ele><time>2026-04-06T16:35:00.998Z</time></trkpt><trkpt lat="42.943347820917694" lon="11.293100030346386"><ele>88.0</ele><time>2026-04-06T16:35:01.998Z</time></trkpt><trkpt lat="42.943239256079075" lon="11.293042822460595"><ele>88.0</ele><time>2026-04-06T16:35:02.998Z</time></trkpt><trkpt lat="42.943121473936685" lon="11.292980281892866"><ele>88.0</ele><time>2026-04-06T16:35:03.998Z</time></trkpt><trkpt lat="42.942995010785744" lon="11.2929131318668"><ele>88.0</ele><time>2026-04-06T16:35:04.998Z</time></trkpt><trkpt lat="42.94286884550689" lon="11.292844431867492"><ele>88.0</ele><time>2026-04-06T16:35:05.998Z</time></trkpt><trkpt lat="42.942742829794824" lon="11.292774454963208"><ele>88.0</ele><time>2026-04-06T16:35:06.998Z</time></trkpt><trkpt lat="42.942618910058314" lon="11.29270214947311"><ele>87.0</ele><time>2026-04-06T16:35:07.998Z</time></trkpt><trkpt lat="42.94246290618182" lon="11.292606488063763"><ele>86.0</ele><time>2026-04-06T16:35:08.998Z</time></trkpt><trkpt lat="42.94231063597846" lon="11.29250985233552"><ele>85.0</ele><time>2026-04-06T16:35:09.998Z</time></trkpt><trkpt lat="42.942164160369295" lon="11.292415465458719"><ele>85.0</ele><time>2026-04-06T16:35:10.998Z</time></trkpt><trkpt lat="42.942019504114" lon="11.292322250894108"><ele>85.0</ele><time>2026-04-06T16:35:11.998Z</time></trkpt><trkpt lat="42.94189773063802" lon="11.292243781713937"><ele>85.0</ele><time>2026-04-06T16:35:12.998Z</time></trkpt><trkpt lat="42.941756710146464" lon="11.292158140048867"><ele>85.0</ele><time>2026-04-06T16:35:13.998Z</time></trkpt><trkpt lat="42.941611672304944" lon="11.292096391819339"><ele>84.2</ele><time>2026-04-06T16:35:14.998Z</time></trkpt><trkpt lat="42.94149863510661" lon="11.29207739342522"><ele>83.4</ele><time>2026-04-06T16:35:15.998Z</time></trkpt><trkpt lat="42.94139865357968" lon="11.292147206091057"><ele>82.6</ele><time>2026-04-06T16:35:16.998Z</time></trkpt><trkpt lat="42.941310250401344" lon="11.292157473236601"><ele>81.8</ele><time>2026-04-06T16:35:17.998Z</time></trkpt><trkpt lat="42.94123270371294" lon="11.292209792374612"><ele>81.0</ele><time>2026-04-06T16:35:18.998Z</time></trkpt><trkpt lat="42.941173513340665" lon="11.292266898898792"><ele>81.0</ele><time>2026-04-06T16:35:19.998Z</time></trkpt><trkpt lat="42.941100310675516" lon="11.29230229699751"><ele>81.0</ele><time>2026-04-06T16:35:20.998Z</time></trkpt><trkpt lat="42.94102698721609" lon="11.292328530098397"><ele>81.0</ele><time>2026-04-06T16:35:22.998Z</time></trkpt><trkpt lat="42.94094779676291" lon="11.292339876248844"><ele>81.0</ele><time>2026-04-06T16:35:25Z</time></trkpt><trkpt lat="42.940958507258536" lon="11.292234094302131"><ele>81.0</ele><time>2026-04-06T16:35:27Z</time></trkpt><trkpt lat="42.940930074243425" lon="11.292064278345554"><ele>81.0</ele><time>2026-04-06T16:35:29Z</time></trkpt><trkpt lat="42.940918170023174" lon="11.291960457951802"><ele>80.5</ele><time>2026-04-06T16:35:30Z</time></trkpt><trkpt lat="42.94090380000566" lon="11.291819597080021"><ele>80.0</ele><time>2026-04-06T16:35:31Z</time></trkpt><trkpt lat="42.94088868904016" lon="11.291641096070341"><ele>79.5</ele><time>2026-04-06T16:35:32Z</time></trkpt><trkpt lat="42.940874909444055" lon="11.291472458883684"><ele>79.0</ele><time>2026-04-06T16:35:33Z</time></trkpt><trkpt lat="42.94086196956336" lon="11.291301925030027"><ele>78.25</ele><time>2026-04-06T16:35:34Z</time></trkpt><trkpt lat="42.940850245407525" lon="11.291121554711237"><ele>77.5</ele><time>2026-04-06T16:35:35Z</time></trkpt><trkpt lat="42.94083941516665" lon="11.290928983138155"><ele>76.75</ele><time>2026-04-06T16:35:36Z</time></trkpt><trkpt lat="42.94081317512151" lon="11.29071588466578"><ele>76.0</ele><time>2026-04-06T16:35:37Z</time></trkpt><trkpt lat="42.94080451128516" lon="11.29050958531336"><ele>76.0</ele><time>2026-04-06T16:35:38Z</time></trkpt><trkpt lat="42.94079106161078" lon="11.29030164462832"><ele>76.0</ele><time>2026-04-06T16:35:39Z</time></trkpt><trkpt lat="42.94077778830824" lon="11.290089895980962"><ele>76.0</ele><time>2026-04-06T16:35:40Z</time></trkpt><trkpt lat="42.94078203693427" lon="11.28986598764893"><ele>75.33333333333333</ele><time>2026-04-06T16:35:41Z</time></trkpt><trkpt lat="42.94076933339552" lon="11.289638378321667"><ele>74.66666666666667</ele><time>2026-04-06T16:35:42Z</time></trkpt><trkpt lat="42.94075471915026" lon="11.289414627661225"><ele>74.0</ele><time>2026-04-06T16:35:43Z</time></trkpt><trkpt lat="42.940730530770374" lon="11.289184692419159"><ele>74.0</ele><time>2026-04-06T16:35:44Z</time></trkpt><trkpt lat="42.94069716551587" lon="11.288963030173164"><ele>74.0</ele><time>2026-04-06T16:35:45Z</time></trkpt><trkpt lat="42.94065181363075" lon="11.288732996173422"><ele>74.0</ele><time>2026-04-06T16:35:46Z</time></trkpt><trkpt lat="42.94059263206133" lon="11.288489438033098"><ele>74.0</ele><time>2026-04-06T16:35:47Z</time></trkpt><trkpt lat="42.94052481426841" lon="11.288261441000628"><ele>74.0</ele><time>2026-04-06T16:35:48Z</time></trkpt><trkpt lat="42.94044178738073" lon="11.288017833240804"><ele>74.0</ele><time>2026-04-06T16:35:49Z</time></trkpt><trkpt lat="42.940346339294685" lon="11.287762871901242"><ele>74.0</ele><time>2026-04-06T16:35:50Z</time></trkpt><trkpt lat="42.940243990848394" lon="11.287500556013997"><ele>74.0</ele><time>2026-04-06T16:35:51Z</time></trkpt><trkpt lat="42.940144572972244" lon="11.28724575105151"><ele>74.0</ele><time>2026-04-06T16:35:52Z</time></trkpt><trkpt lat="42.94004373942795" lon="11.286990013656144"><ele>73.0</ele><time>2026-04-06T16:35:53Z</time></trkpt><trkpt lat="42.93994053005606" lon="11.286730381414154"><ele>72.0</ele><time>2026-04-06T16:35:54Z</time></trkpt><trkpt lat="42.93980771496028" lon="11.286491784729431"><ele>71.0</ele><time>2026-04-06T16:35:55Z</time></trkpt><trkpt lat="42.9397153941999" lon="11.286231791726765"><ele>70.66666666666667</ele><time>2026-04-06T16:35:56Z</time></trkpt><trkpt lat="42.939629560016" lon="11.285986526636822"><ele>70.33333333333333</ele><time>2026-04-06T16:35:57Z</time></trkpt><trkpt lat="42.93954553237854" lon="11.285748560156128"><ele>70.0</ele><time>2026-04-06T16:35:58Z</time></trkpt><trkpt lat="42.93949693741784" lon="11.28550038975416"><ele>70.0</ele><time>2026-04-06T16:35:59Z</time></trkpt><trkpt lat="42.93942403902196" lon="11.285279332144937"><ele>70.0</ele><time>2026-04-06T16:36:00Z</time></trkpt><trkpt lat="42.93934723912456" lon="11.285069217238432"><ele>70.0</ele><time>2026-04-06T16:36:01Z</time></trkpt><trkpt lat="42.93930069552226" lon="11.284839886281642"><ele>70.0</ele><time>2026-04-06T16:36:02Z</time></trkpt><trkpt lat="42.93926272366066" lon="11.284608009480868"><ele>70.0</ele><time>2026-04-06T16:36:03Z</time></trkpt><trkpt lat="42.93922507296849" lon="11.284380089102624"><ele>70.0</ele><time>2026-04-06T16:36:04Z</time></trkpt><trkpt lat="42.93916181120563" lon="11.284159873915534"><ele>69.66666666666666</ele><time>2026-04-06T16:36:05Z</time></trkpt><trkpt lat="42.93907454805854" lon="11.283958733607173"><ele>69.33333333333333</ele><time>2026-04-06T16:36:06Z</time></trkpt><trkpt lat="42.938979466837125" lon="11.283784781378586"><ele>69.0</ele><time>2026-04-06T16:36:07Z</time></trkpt><trkpt lat="42.93888964937323" lon="11.283617473769821"><ele>70.0</ele><time>2026-04-06T16:36:08Z</time></trkpt><trkpt lat="42.938795607915715" lon="11.283454895170378"><ele>71.0</ele><time>2026-04-06T16:36:08.999Z</time></trkpt><trkpt lat="42.93870315082949" lon="11.28330741533801"><ele>72.0</ele><time>2026-04-06T16:36:09.999Z</time></trkpt><trkpt lat="42.93860844499142" lon="11.283149687892053"><ele>73.0</ele><time>2026-04-06T16:36:10.999Z</time></trkpt><trkpt lat="42.93851009295097" lon="11.282985567027282"><ele>73.33333333333333</ele><time>2026-04-06T16:36:11.999Z</time></trkpt><trkpt lat="42.938406827711916" lon="11.282829134797447"><ele>73.66666666666667</ele><time>2026-04-06T16:36:12.999Z</time></trkpt><trkpt lat="42.93829290121666" lon="11.282681703677545"><ele>74.0</ele><time>2026-04-06T16:36:13.999Z</time></trkpt><trkpt lat="42.938186902268846" lon="11.28254249301849"><ele>74.0</ele><time>2026-04-06T16:36:14.999Z</time></trkpt><trkpt lat="42.93808913438306" lon="11.282398305779717"><ele>74.0</ele><time>2026-04-06T16:36:15.999Z</time></trkpt><trkpt lat="42.937971590410115" lon="11.2822779819884"><ele>74.0</ele><time>2026-04-06T16:36:16.999Z</time></trkpt><trkpt lat="42.93787052178919" lon="11.282140402866595"><ele>74.0</ele><time>2026-04-06T16:36:17.999Z</time></trkpt><trkpt lat="42.93777000326972" lon="11.282010866432271"><ele>73.75</ele><time>2026-04-06T16:36:18.999Z</time></trkpt><trkpt lat="42.93767315542115" lon="11.281878320740319"><ele>73.5</ele><time>2026-04-06T16:36:19.999Z</time></trkpt><trkpt lat="42.937577746097155" lon="11.281736570543856"><ele>73.25</ele><time>2026-04-06T16:36:20.999Z</time></trkpt><trkpt lat="42.937481340977456" lon="11.281594612517463"><ele>73.0</ele><time>2026-04-06T16:36:21.999Z</time></trkpt><trkpt lat="42.937381342086084" lon="11.281461331571046"><ele>71.75</ele><time>2026-04-06T16:36:22.999Z</time></trkpt><trkpt lat="42.93728234022661" lon="11.281324661061783"><ele>70.5</ele><time>2026-04-06T16:36:23.999Z</time></trkpt><trkpt lat="42.9371875696083" lon="11.281184429662067"><ele>69.25</ele><time>2026-04-06T16:36:24.999Z</time></trkpt><trkpt lat="42.937093978400625" lon="11.281048649927572"><ele>68.0</ele><time>2026-04-06T16:36:25.999Z</time></trkpt><trkpt lat="42.93700306684008" lon="11.280912631061474"><ele>68.0</ele><time>2026-04-06T16:36:26.999Z</time></trkpt><trkpt lat="42.93691274070431" lon="11.280783151552919"><ele>68.0</ele><time>2026-04-06T16:36:27.999Z</time></trkpt><trkpt lat="42.93683032856327" lon="11.28064234329506"><ele>68.0</ele><time>2026-04-06T16:36:28.999Z</time></trkpt><trkpt lat="42.93675545083797" lon="11.280499174875269"><ele>68.0</ele><time>2026-04-06T16:36:29.999Z</time></trkpt><trkpt lat="42.93668332155793" lon="11.280356037971897"><ele>68.25</ele><time>2026-04-06T16:36:30.999Z</time></trkpt><trkpt lat="42.936623769928616" lon="11.280205218988888"><ele>68.5</ele><time>2026-04-06T16:36:31.999Z</time></trkpt><trkpt lat="42.93657616484306" lon="11.280055140418005"><ele>68.75</ele><time>2026-04-06T16:36:32.999Z</time></trkpt><trkpt lat="42.936543932351995" lon="11.279903342096969"><ele>69.0</ele><time>2026-04-06T16:36:33.999Z</time></trkpt><trkpt lat="42.93652018397814" lon="11.279750630247863"><ele>67.25</ele><time>2026-04-06T16:36:34.999Z</time></trkpt><trkpt lat="42.93649265555623" lon="11.279591917295793"><ele>65.5</ele><time>2026-04-06T16:36:35.999Z</time></trkpt><trkpt lat="42.93646177674185" lon="11.279427789828324"><ele>63.75</ele><time>2026-04-06T16:36:36.999Z</time></trkpt><trkpt lat="42.93643331965623" lon="11.279263249121877"><ele>62.0</ele><time>2026-04-06T16:36:37.999Z</time></trkpt><trkpt lat="42.93640130303196" lon="11.279090692820796"><ele>60.75</ele><time>2026-04-06T16:36:38.999Z</time></trkpt><trkpt lat="42.93637488728322" lon="11.278912826473602"><ele>59.5</ele><time>2026-04-06T16:36:39.999Z</time></trkpt><trkpt lat="42.9363508584283" lon="11.278740076122167"><ele>58.25</ele><time>2026-04-06T16:36:40.999Z</time></trkpt><trkpt lat="42.93632494024563" lon="11.27856307084269"><ele>57.0</ele><time>2026-04-06T16:36:41.999Z</time></trkpt><trkpt lat="42.93630283845634" lon="11.278387273529653"><ele>57.0</ele><time>2026-04-06T16:36:42.999Z</time></trkpt><trkpt lat="42.936282121704465" lon="11.278218519468576"><ele>57.0</ele><time>2026-04-06T16:36:43.999Z</time></trkpt><trkpt lat="42.93624988074264" lon="11.278047734128933"><ele>57.0</ele><time>2026-04-06T16:36:44.999Z</time></trkpt><trkpt lat="42.93622331001713" lon="11.2778782696148"><ele>57.0</ele><time>2026-04-06T16:36:45.999Z</time></trkpt><trkpt lat="42.93619347313574" lon="11.277721678449936"><ele>57.0</ele><time>2026-04-06T16:36:46.999Z</time></trkpt><trkpt lat="42.93618488810728" lon="11.277557030251206"><ele>57.0</ele><time>2026-04-06T16:36:47.999Z</time></trkpt><trkpt lat="42.93614857503903" lon="11.27741197126001"><ele>57.0</ele><time>2026-04-06T16:36:48.999Z</time></trkpt><trkpt lat="42.936130159037255" lon="11.277262123040122"><ele>57.0</ele><time>2026-04-06T16:36:49.999Z</time></trkpt><trkpt lat="42.93610936827449" lon="11.27712424369421"><ele>57.0</ele><time>2026-04-06T16:36:50.999Z</time></trkpt><trkpt lat="42.93608960733426" lon="11.276985880193193"><ele>57.0</ele><time>2026-04-06T16:36:51.999Z</time></trkpt><trkpt lat="42.9360747568605" lon="11.276854065644832"><ele>57.0</ele><time>2026-04-06T16:36:52.999Z</time></trkpt><trkpt lat="42.93605871194441" lon="11.276720711121321"><ele>57.0</ele><time>2026-04-06T16:36:53.999Z</time></trkpt><trkpt lat="42.93604436032467" lon="11.276604097314111"><ele>57.0</ele><time>2026-04-06T16:36:54.999Z</time></trkpt><trkpt lat="42.936028276226274" lon="11.27649788815705"><ele>57.0</ele><time>2026-04-06T16:36:55.999Z</time></trkpt><trkpt lat="42.93601298794339" lon="11.276397551446905"><ele>57.0</ele><time>2026-04-06T16:36:56.999Z</time></trkpt><trkpt lat="42.93600382639509" lon="11.276291163414312"><ele>56.71428571428571</ele><time>2026-04-06T16:36:57.999Z</time></trkpt><trkpt lat="42.93600484794153" lon="11.276191889509233"><ele>56.42857142857142</ele><time>2026-04-06T16:36:58.999Z</time></trkpt><trkpt lat="42.936020435891194" lon="11.27610235106978"><ele>56.14285714285714</ele><time>2026-04-06T16:36:59.999Z</time></trkpt><trkpt lat="42.936049017973936" lon="11.276023445857659"><ele>55.857142857142854</ele><time>2026-04-06T16:37:00.999Z</time></trkpt><trkpt lat="42.936091127643905" lon="11.275945529152187"><ele>55.57142857142857</ele><time>2026-04-06T16:37:01.999Z</time></trkpt><trkpt lat="42.93613137414714" lon="11.2758509045769"><ele>55.28571428571428</ele><time>2026-04-06T16:37:02.999Z</time></trkpt><trkpt lat="42.93614399496745" lon="11.275733281926213"><ele>55.0</ele><time>2026-04-06T16:37:03.998Z</time></trkpt><trkpt lat="42.936152186338255" lon="11.275594475558854"><ele>56.25</ele><time>2026-04-06T16:37:04.998Z</time></trkpt><trkpt lat="42.9361784078197" lon="11.275452133985903"><ele>57.5</ele><time>2026-04-06T16:37:05.998Z</time></trkpt><trkpt lat="42.93619149162845" lon="11.275313976106972"><ele>58.75</ele><time>2026-04-06T16:37:06.998Z</time></trkpt><trkpt lat="42.93633447799536" lon="11.27519655149649"><ele>60.0</ele><time>2026-04-06T16:37:07.998Z</time></trkpt><trkpt lat="42.936424571123574" lon="11.275084194648478"><ele>60.0</ele><time>2026-04-06T16:37:08.998Z</time></trkpt><trkpt lat="42.93652610919997" lon="11.274976268307018"><ele>60.0</ele><time>2026-04-06T16:37:09.998Z</time></trkpt><trkpt lat="42.936636909177146" lon="11.274879295867532"><ele>60.0</ele><time>2026-04-06T16:37:10.998Z</time></trkpt><trkpt lat="42.936764668880905" lon="11.2747902198171"><ele>60.0</ele><time>2026-04-06T16:37:11.998Z</time></trkpt><trkpt lat="42.936900770714615" lon="11.274718441079937"><ele>59.66666666666667</ele><time>2026-04-06T16:37:12.998Z</time></trkpt><trkpt lat="42.93703907190183" lon="11.274643786368117"><ele>59.333333333333336</ele><time>2026-04-06T16:37:13.998Z</time></trkpt><trkpt lat="42.9371766456837" lon="11.274547982325405"><ele>59.0</ele><time>2026-04-06T16:37:14.998Z</time></trkpt><trkpt lat="42.93731521003076" lon="11.274458981629829"><ele>59.0</ele><time>2026-04-06T16:37:15.998Z</time></trkpt><trkpt lat="42.937454287626935" lon="11.274370468720019"><ele>59.0</ele><time>2026-04-06T16:37:16.998Z</time></trkpt><trkpt lat="42.93758996418389" lon="11.274283876069484"><ele>59.0</ele><time>2026-04-06T16:37:17.998Z</time></trkpt><trkpt lat="42.937726405762376" lon="11.274197337672197"><ele>59.0</ele><time>2026-04-06T16:37:18.998Z</time></trkpt><trkpt lat="42.93785919534683" lon="11.274106166668755"><ele>59.0</ele><time>2026-04-06T16:37:19.998Z</time></trkpt><trkpt lat="42.9379859843591" lon="11.274006142209641"><ele>59.0</ele><time>2026-04-06T16:37:20.998Z</time></trkpt><trkpt lat="42.93809741147684" lon="11.273883886568528"><ele>59.0</ele><time>2026-04-06T16:37:21.998Z</time></trkpt><trkpt lat="42.938188629362436" lon="11.273749038483203"><ele>59.25</ele><time>2026-04-06T16:37:22.998Z</time></trkpt><trkpt lat="42.938267557278664" lon="11.273611387568687"><ele>59.5</ele><time>2026-04-06T16:37:23.998Z</time></trkpt><trkpt lat="42.938339309291365" lon="11.273465086650338"><ele>59.75</ele><time>2026-04-06T16:37:24.998Z</time></trkpt><trkpt lat="42.93839600273359" lon="11.273317716765478"><ele>60.0</ele><time>2026-04-06T16:37:25.998Z</time></trkpt><trkpt lat="42.938448524841924" lon="11.273172493191801"><ele>60.4</ele><time>2026-04-06T16:37:26.998Z</time></trkpt><trkpt lat="42.93849761466717" lon="11.273037119432582"><ele>60.8</ele><time>2026-04-06T16:37:27.998Z</time></trkpt><trkpt lat="42.93854503394913" lon="11.272917166695795"><ele>61.2</ele><time>2026-04-06T16:37:29Z</time></trkpt><trkpt lat="42.93861199207937" lon="11.2728207612163"><ele>61.6</ele><time>2026-04-06T16:37:30Z</time></trkpt><trkpt lat="42.93870444574301" lon="11.272737884552413"><ele>62.0</ele><time>2026-04-06T16:37:31Z</time></trkpt><trkpt lat="42.93881020422281" lon="11.272659205770458"><ele>62.0</ele><time>2026-04-06T16:37:32Z</time></trkpt><trkpt lat="42.9389243406726" lon="11.272603170859071"><ele>62.0</ele><time>2026-04-06T16:37:33Z</time></trkpt><trkpt lat="42.93904220718628" lon="11.272575924590804"><ele>62.0</ele><time>2026-04-06T16:37:34Z</time></trkpt><trkpt lat="42.939164606942036" lon="11.272572414671867"><ele>62.0</ele><time>2026-04-06T16:37:35Z</time></trkpt><trkpt lat="42.939280058743726" lon="11.272632390642126"><ele>62.0</ele><time>2026-04-06T16:37:36Z</time></trkpt><trkpt lat="42.93939107602026" lon="11.272700494888378"><ele>62.0</ele><time>2026-04-06T16:37:37Z</time></trkpt><trkpt lat="42.93950166817846" lon="11.272790394195823"><ele>62.0</ele><time>2026-04-06T16:37:38Z</time></trkpt><trkpt lat="42.93961674319694" lon="11.272887088714716"><ele>62.0</ele><time>2026-04-06T16:37:39Z</time></trkpt><trkpt lat="42.93973285624375" lon="11.272985262642921"><ele>62.0</ele><time>2026-04-06T16:37:40Z</time></trkpt><trkpt lat="42.93985993522294" lon="11.273092314588824"><ele>62.0</ele><time>2026-04-06T16:37:41Z</time></trkpt><trkpt lat="42.93998565802943" lon="11.273198033075172"><ele>62.0</ele><time>2026-04-06T16:37:42Z</time></trkpt><trkpt lat="42.940111824202866" lon="11.273303932262305"><ele>62.0</ele><time>2026-04-06T16:37:43Z</time></trkpt><trkpt lat="42.94023529164209" lon="11.273407181435571"><ele>62.5</ele><time>2026-04-06T16:37:44Z</time></trkpt><trkpt lat="42.94035465066126" lon="11.273507846875095"><ele>63.0</ele><time>2026-04-06T16:37:45Z</time></trkpt><trkpt lat="42.940471254827436" lon="11.273605960606742"><ele>63.5</ele><time>2026-04-06T16:37:46Z</time></trkpt><trkpt lat="42.940585059983306" lon="11.273701719251354"><ele>64.0</ele><time>2026-04-06T16:37:47Z</time></trkpt><trkpt lat="42.940697404693694" lon="11.273796248948681"><ele>64.0</ele><time>2026-04-06T16:37:48Z</time></trkpt><trkpt lat="42.940809661183565" lon="11.273890704418179"><ele>64.0</ele><time>2026-04-06T16:37:49Z</time></trkpt><trkpt lat="42.940922695820475" lon="11.27398544131437"><ele>64.0</ele><time>2026-04-06T16:37:50Z</time></trkpt><trkpt lat="42.94103528426806" lon="11.274079182941604"><ele>64.0</ele><time>2026-04-06T16:37:51Z</time></trkpt><trkpt lat="42.94114382634272" lon="11.274170177465955"><ele>66.5</ele><time>2026-04-06T16:37:52Z</time></trkpt><trkpt lat="42.94125010593984" lon="11.274260006259194"><ele>69.0</ele><time>2026-04-06T16:37:53Z</time></trkpt><trkpt lat="42.94135211073951" lon="11.27434621069493"><ele>71.5</ele><time>2026-04-06T16:37:54Z</time></trkpt><trkpt lat="42.9414507857315" lon="11.274430007164984"><ele>74.0</ele><time>2026-04-06T16:37:55Z</time></trkpt><trkpt lat="42.94154546405703" lon="11.27451167602372"><ele>74.0</ele><time>2026-04-06T16:37:56Z</time></trkpt><trkpt lat="42.94163834142674" lon="11.274592503260697"><ele>74.0</ele><time>2026-04-06T16:37:57Z</time></trkpt><trkpt lat="42.94172350987316" lon="11.27468182594954"><ele>74.0</ele><time>2026-04-06T16:37:58Z</time></trkpt><trkpt lat="42.94180052717129" lon="11.274782917884227"><ele>74.0</ele><time>2026-04-06T16:37:59Z</time></trkpt><trkpt lat="42.9418539854809" lon="11.274895098537922"><ele>74.0</ele><time>2026-04-06T16:38:00Z</time></trkpt><trkpt lat="42.94189353213813" lon="11.275021033861433"><ele>75.80000000000001</ele><time>2026-04-06T16:38:01Z</time></trkpt><trkpt lat="42.94191107744665" lon="11.275153064815068"><ele>77.60000000000001</ele><time>2026-04-06T16:38:02Z</time></trkpt><trkpt lat="42.94192326171575" lon="11.27529805668847"><ele>79.4</ele><time>2026-04-06T16:38:03Z</time></trkpt><trkpt lat="42.94192467376857" lon="11.275442732730749"><ele>81.2</ele><time>2026-04-06T16:38:04Z</time></trkpt><trkpt lat="42.94192729481791" lon="11.27559416663292"><ele>83.0</ele><time>2026-04-06T16:38:05Z</time></trkpt><trkpt lat="42.94193569932766" lon="11.275747306611995"><ele>83.25</ele><time>2026-04-06T16:38:06Z</time></trkpt><trkpt lat="42.941965713332166" lon="11.275897964886223"><ele>83.5</ele><time>2026-04-06T16:38:07Z</time></trkpt><trkpt lat="42.94201438186702" lon="11.276014537435973"><ele>83.75</ele><time>2026-04-06T16:38:08Z</time></trkpt><trkpt lat="42.94210800583951" lon="11.276115334494976"><ele>84.0</ele><time>2026-04-06T16:38:09Z</time></trkpt><trkpt lat="42.942222701016824" lon="11.276161693752451"><ele>84.0</ele><time>2026-04-06T16:38:10Z</time></trkpt><trkpt lat="42.94233153270086" lon="11.276166288465875"><ele>84.0</ele><time>2026-04-06T16:38:11Z</time></trkpt><trkpt lat="42.94241255693758" lon="11.276152775010353"><ele>84.0</ele><time>2026-04-06T16:38:12Z</time></trkpt><trkpt lat="42.942500976472715" lon="11.276146184614056"><ele>84.0</ele><time>2026-04-06T16:38:13Z</time></trkpt><trkpt lat="42.942564421303544" lon="11.276069530002477"><ele>84.0</ele><time>2026-04-06T16:38:14Z</time></trkpt><trkpt lat="42.94261198310997" lon="11.275975604357924"><ele>84.0</ele><time>2026-04-06T16:38:15Z</time></trkpt><trkpt lat="42.94265862812556" lon="11.27587399502602"><ele>85.6</ele><time>2026-04-06T16:38:16Z</time></trkpt><trkpt lat="42.9427098379671" lon="11.275756400581876"><ele>87.2</ele><time>2026-04-06T16:38:16.999Z</time></trkpt><trkpt lat="42.94276241170901" lon="11.275638555127111"><ele>88.8</ele><time>2026-04-06T16:38:17.999Z</time></trkpt><trkpt lat="42.94282928321583" lon="11.27549274194389"><ele>90.39999999999999</ele><time>2026-04-06T16:38:18.999Z</time></trkpt><trkpt lat="42.94287510958689" lon="11.275392566156654"><ele>92.0</ele><time>2026-04-06T16:38:19.999Z</time></trkpt><trkpt lat="42.94292074928538" lon="11.275291965843419"><ele>92.0</ele><time>2026-04-06T16:38:20.999Z</time></trkpt><trkpt lat="42.94297602431022" lon="11.275169375148371"><ele>92.0</ele><time>2026-04-06T16:38:21.999Z</time></trkpt><trkpt lat="42.94304403013044" lon="11.27501852320895"><ele>92.0</ele><time>2026-04-06T16:38:22.999Z</time></trkpt><trkpt lat="42.94310448537981" lon="11.274885538836212"><ele>92.0</ele><time>2026-04-06T16:38:23.999Z</time></trkpt><trkpt lat="42.94315130760132" lon="11.274781685493778"><ele>92.0</ele><time>2026-04-06T16:38:24.999Z</time></trkpt><trkpt lat="42.943206587417485" lon="11.274658858406351"><ele>91.6</ele><time>2026-04-06T16:38:25.999Z</time></trkpt><trkpt lat="42.94324147795439" lon="11.274533312162887"><ele>91.19999999999999</ele><time>2026-04-06T16:38:26.999Z</time></trkpt><trkpt lat="42.94325537971605" lon="11.2743928279301"><ele>90.8</ele><time>2026-04-06T16:38:27.999Z</time></trkpt><trkpt lat="42.943243380648205" lon="11.274282303351164"><ele>90.4</ele><time>2026-04-06T16:38:28.999Z</time></trkpt><trkpt lat="42.943208998917335" lon="11.274155280082475"><ele>90.0</ele><time>2026-04-06T16:38:29.999Z</time></trkpt><trkpt lat="42.94313714787298" lon="11.274051555744231"><ele>90.0</ele><time>2026-04-06T16:38:30.999Z</time></trkpt><trkpt lat="42.943028880327525" lon="11.274006942500485"><ele>90.0</ele><time>2026-04-06T16:38:31.999Z</time></trkpt><trkpt lat="42.942910532327794" lon="11.27395212047309"><ele>90.0</ele><time>2026-04-06T16:38:32.999Z</time></trkpt><trkpt lat="42.94275754062151" lon="11.273966552967504"><ele>90.0</ele><time>2026-04-06T16:38:33.999Z</time></trkpt><trkpt lat="42.942611552923786" lon="11.274050616689614"><ele>88.5</ele><time>2026-04-06T16:38:34.999Z</time></trkpt><trkpt lat="42.94249132168947" lon="11.274126132421317"><ele>87.0</ele><time>2026-04-06T16:38:35.999Z</time></trkpt><trkpt lat="42.94236792621501" lon="11.274197640784026"><ele>85.5</ele><time>2026-04-06T16:38:36.999Z</time></trkpt><trkpt lat="42.94225215504949" lon="11.274243154984095"><ele>84.0</ele><time>2026-04-06T16:38:37.999Z</time></trkpt><trkpt lat="42.94212470064759" lon="11.274254333516746"><ele>84.0</ele><time>2026-04-06T16:38:38.999Z</time></trkpt><trkpt lat="42.941981910258065" lon="11.274249666730748"><ele>84.0</ele><time>2026-04-06T16:38:39.999Z</time></trkpt><trkpt lat="42.94184277478326" lon="11.27415917655742"><ele>84.0</ele><time>2026-04-06T16:38:40.999Z</time></trkpt><trkpt lat="42.94171248660298" lon="11.274031304658811"><ele>78.66666666666667</ele><time>2026-04-06T16:38:41.999Z</time></trkpt><trkpt lat="42.94156524194408" lon="11.273886393144316"><ele>73.33333333333334</ele><time>2026-04-06T16:38:42.999Z</time></trkpt><trkpt lat="42.94139873033071" lon="11.273747413237233"><ele>68.0</ele><time>2026-04-06T16:38:43.999Z</time></trkpt><trkpt lat="42.9412226603361" lon="11.273596593894174"><ele>68.0</ele><time>2026-04-06T16:38:44.999Z</time></trkpt><trkpt lat="42.94104617007746" lon="11.273447679744823"><ele>68.0</ele><time>2026-04-06T16:38:45.999Z</time></trkpt><trkpt lat="42.940870690927824" lon="11.273297697195254"><ele>68.0</ele><time>2026-04-06T16:38:46.999Z</time></trkpt><trkpt lat="42.940686265230156" lon="11.273145347151775"><ele>63.5</ele><time>2026-04-06T16:38:47.999Z</time></trkpt><trkpt lat="42.9404959648998" lon="11.27298728025623"><ele>59.0</ele><time>2026-04-06T16:38:48.999Z</time></trkpt><trkpt lat="42.940303132014115" lon="11.27282394473959"><ele>59.0</ele><time>2026-04-06T16:38:49.999Z</time></trkpt><trkpt lat="42.94010351225136" lon="11.272657724023034"><ele>59.0</ele><time>2026-04-06T16:38:50.999Z</time></trkpt><trkpt lat="42.939899762163535" lon="11.272488069215797"><ele>60.5</ele><time>2026-04-06T16:38:51.999Z</time></trkpt><trkpt lat="42.939697689462406" lon="11.272318771557737"><ele>62.0</ele><time>2026-04-06T16:38:52.999Z</time></trkpt><trkpt lat="42.93949513457144" lon="11.272150603731824"><ele>62.0</ele><time>2026-04-06T16:38:53.999Z</time></trkpt><trkpt lat="42.93928988773521" lon="11.271980181237362"><ele>62.0</ele><time>2026-04-06T16:38:54.999Z</time></trkpt><trkpt lat="42.939082481617035" lon="11.271809313051124"><ele>62.0</ele><time>2026-04-06T16:38:55.999Z</time></trkpt><trkpt lat="42.938872946438046" lon="11.271633048701982"><ele>62.0</ele><time>2026-04-06T16:38:56.999Z</time></trkpt><trkpt lat="42.93866458266612" lon="11.271457752978792"><ele>62.0</ele><time>2026-04-06T16:38:57.999Z</time></trkpt><trkpt lat="42.93845421517772" lon="11.271280635044059"><ele>62.0</ele><time>2026-04-06T16:38:58.999Z</time></trkpt><trkpt lat="42.93824376920251" lon="11.271106589780263"><ele>62.0</ele><time>2026-04-06T16:38:59.999Z</time></trkpt><trkpt lat="42.938033914762705" lon="11.27093242431227"><ele>62.0</ele><time>2026-04-06T16:39:00.999Z</time></trkpt><trkpt lat="42.937824366570496" lon="11.27075681033663"><ele>63.5</ele><time>2026-04-06T16:39:01.999Z</time></trkpt><trkpt lat="42.93762100404999" lon="11.270579566005738"><ele>65.0</ele><time>2026-04-06T16:39:02.999Z</time></trkpt><trkpt lat="42.93741473121589" lon="11.27040379277896"><ele>65.0</ele><time>2026-04-06T16:39:03.999Z</time></trkpt><trkpt lat="42.93720934396042" lon="11.270227385301135"><ele>65.0</ele><time>2026-04-06T16:39:04.999Z</time></trkpt><trkpt lat="42.937002378625586" lon="11.270054282296847"><ele>65.0</ele><time>2026-04-06T16:39:05.999Z</time></trkpt><trkpt lat="42.936800328729866" lon="11.269884477306876"><ele>65.0</ele><time>2026-04-06T16:39:06.999Z</time></trkpt><trkpt lat="42.93660720201448" lon="11.26972283207661"><ele>65.33333333333334</ele><time>2026-04-06T16:39:07.999Z</time></trkpt><trkpt lat="42.9364219122238" lon="11.269572688654023"><ele>65.66666666666667</ele><time>2026-04-06T16:39:08.999Z</time></trkpt><trkpt lat="42.93624590455044" lon="11.269429093937017"><ele>66.0</ele><time>2026-04-06T16:39:09.999Z</time></trkpt><trkpt lat="42.936077679086786" lon="11.26929091578179"><ele>66.0</ele><time>2026-04-06T16:39:10.998Z</time></trkpt><trkpt lat="42.93591667063467" lon="11.269152224237278"><ele>66.0</ele><time>2026-04-06T16:39:11.998Z</time></trkpt><trkpt lat="42.93576111766252" lon="11.269000979202286"><ele>66.0</ele><time>2026-04-06T16:39:12.998Z</time></trkpt><trkpt lat="42.93562120618998" lon="11.268836633183053"><ele>66.33333333333333</ele><time>2026-04-06T16:39:13.998Z</time></trkpt><trkpt lat="42.93549752092395" lon="11.26866477371697"><ele>66.66666666666666</ele><time>2026-04-06T16:39:14.998Z</time></trkpt><trkpt lat="42.93545349033309" lon="11.268466368808468"><ele>67.0</ele><time>2026-04-06T16:39:15.998Z</time></trkpt><trkpt lat="42.935437655012755" lon="11.268264178925634"><ele>67.33333333333333</ele><time>2026-04-06T16:39:16.998Z</time></trkpt><trkpt lat="42.93544546241346" lon="11.268064451168012"><ele>67.66666666666667</ele><time>2026-04-06T16:39:17.998Z</time></trkpt><trkpt lat="42.93547278234611" lon="11.267855277012128"><ele>68.0</ele><time>2026-04-06T16:39:18.998Z</time></trkpt><trkpt lat="42.9355090240379" lon="11.267649010742915"><ele>68.0</ele><time>2026-04-06T16:39:19.998Z</time></trkpt><trkpt lat="42.93556346037465" lon="11.26750856457688"><ele>68.0</ele><time>2026-04-06T16:39:20.998Z</time></trkpt><trkpt lat="42.93560823509528" lon="11.26737295216462"><ele>68.0</ele><time>2026-04-06T16:39:21.998Z</time></trkpt><trkpt lat="42.93568837879757" lon="11.267284349344484"><ele>68.0</ele><time>2026-04-06T16:39:22.998Z</time></trkpt><trkpt lat="42.93577891780989" lon="11.267236888513633"><ele>68.0</ele><time>2026-04-06T16:39:23.998Z</time></trkpt><trkpt lat="42.93587044090699" lon="11.267203703133836"><ele>68.33333333333334</ele><time>2026-04-06T16:39:24.998Z</time></trkpt><trkpt lat="42.9359619929824" lon="11.267168680020207"><ele>68.66666666666667</ele><time>2026-04-06T16:39:25.998Z</time></trkpt><trkpt lat="42.936010214080675" lon="11.267015497531727"><ele>69.0</ele><time>2026-04-06T16:39:26.998Z</time></trkpt><trkpt lat="42.93605545265559" lon="11.266941547471212"><ele>69.33333333333333</ele><time>2026-04-06T16:39:27.998Z</time></trkpt><trkpt lat="42.93604081163895" lon="11.26683103327"><ele>69.66666666666666</ele><time>2026-04-06T16:39:28.998Z</time></trkpt><trkpt lat="42.936010985346854" lon="11.26673486648181"><ele>70.0</ele><time>2026-04-06T16:39:29.998Z</time></trkpt><trkpt lat="42.93595977023573" lon="11.26664048802806"><ele>69.2</ele><time>2026-04-06T16:39:30.998Z</time></trkpt><trkpt lat="42.9358789039037" lon="11.266609774554171"><ele>68.4</ele><time>2026-04-06T16:39:31.998Z</time></trkpt><trkpt lat="42.935781707761336" lon="11.266577182365939"><ele>67.6</ele><time>2026-04-06T16:39:32.998Z</time></trkpt><trkpt lat="42.935679929725424" lon="11.266415208455369"><ele>66.8</ele><time>2026-04-06T16:39:33.998Z</time></trkpt><trkpt lat="42.93565149415185" lon="11.266284472237356"><ele>66.0</ele><time>2026-04-06T16:39:35Z</time></trkpt><trkpt lat="42.9355830418503" lon="11.266142687209594"><ele>65.75</ele><time>2026-04-06T16:39:36Z</time></trkpt><trkpt lat="42.93549975924606" lon="11.266011271913106"><ele>65.5</ele><time>2026-04-06T16:39:37Z</time></trkpt><trkpt lat="42.93540427849473" lon="11.265904380168813"><ele>65.25</ele><time>2026-04-06T16:39:38Z</time></trkpt><trkpt lat="42.935298902217255" lon="11.26585335376519"><ele>65.0</ele><time>2026-04-06T16:39:39Z</time></trkpt><trkpt lat="42.935191068843515" lon="11.265838161630397"><ele>65.0</ele><time>2026-04-06T16:39:40Z</time></trkpt><trkpt lat="42.93506717869972" lon="11.265877242819004"><ele>65.0</ele><time>2026-04-06T16:39:41Z</time></trkpt><trkpt lat="42.93494793131496" lon="11.26595808980162"><ele>65.0</ele><time>2026-04-06T16:39:42Z</time></trkpt><trkpt lat="42.93482310114738" lon="11.266078018105171"><ele>65.0</ele><time>2026-04-06T16:39:43Z</time></trkpt><trkpt lat="42.934698080327394" lon="11.26622049280996"><ele>64.33333333333334</ele><time>2026-04-06T16:39:44Z</time></trkpt><trkpt lat="42.93458189190844" lon="11.266376529473597"><ele>63.66666666666667</ele><time>2026-04-06T16:39:45Z</time></trkpt><trkpt lat="42.934459239222704" lon="11.266518821580908"><ele>63.0</ele><time>2026-04-06T16:39:46Z</time></trkpt><trkpt lat="42.934323083001985" lon="11.266662177022248"><ele>62.66666666666667</ele><time>2026-04-06T16:39:47Z</time></trkpt><trkpt lat="42.934195927532016" lon="11.266800459988113"><ele>62.333333333333336</ele><time>2026-04-06T16:39:48Z</time></trkpt><trkpt lat="42.934054063651814" lon="11.266918175231579"><ele>62.0</ele><time>2026-04-06T16:39:49Z</time></trkpt><trkpt lat="42.93389390563229" lon="11.266996114429729"><ele>62.0</ele><time>2026-04-06T16:39:50Z</time></trkpt><trkpt lat="42.9336956094111" lon="11.267060725604239"><ele>62.0</ele><time>2026-04-06T16:39:52Z</time></trkpt><trkpt lat="42.933570104620394" lon="11.267064199120922"><ele>62.0</ele><time>2026-04-06T16:39:53Z</time></trkpt><trkpt lat="42.93334611232262" lon="11.26691710149122"><ele>61.333333333333336</ele><time>2026-04-06T16:39:54Z</time></trkpt><trkpt lat="42.93319060116348" lon="11.266788491486949"><ele>60.66666666666667</ele><time>2026-04-06T16:39:55Z</time></trkpt><trkpt lat="42.93303150415557" lon="11.26661908482229"><ele>60.0</ele><time>2026-04-06T16:39:56Z</time></trkpt><trkpt lat="42.932871415153436" lon="11.266463570248845"><ele>60.33333333333333</ele><time>2026-04-06T16:39:57Z</time></trkpt><trkpt lat="42.93268933705081" lon="11.266315807542385"><ele>60.666666666666664</ele><time>2026-04-06T16:39:58Z</time></trkpt><trkpt lat="42.932485572479294" lon="11.26618192670055"><ele>61.0</ele><time>2026-04-06T16:39:59Z</time></trkpt><trkpt lat="42.93228816276477" lon="11.266073774260011"><ele>61.0</ele><time>2026-04-06T16:40:00Z</time></trkpt><trkpt lat="42.93209690878283" lon="11.265961384541603"><ele>61.0</ele><time>2026-04-06T16:40:01Z</time></trkpt><trkpt lat="42.93190324120453" lon="11.265836817076869"><ele>61.0</ele><time>2026-04-06T16:40:02Z</time></trkpt><trkpt lat="42.931718381866936" lon="11.26571463759721"><ele>60.666666666666664</ele><time>2026-04-06T16:40:03Z</time></trkpt><trkpt lat="42.93158314787086" lon="11.265525398618083"><ele>60.33333333333333</ele><time>2026-04-06T16:40:04Z</time></trkpt><trkpt lat="42.93147319897154" lon="11.26536768671089"><ele>60.0</ele><time>2026-04-06T16:40:05Z</time></trkpt><trkpt lat="42.931372847192364" lon="11.265190145397664"><ele>60.0</ele><time>2026-04-06T16:40:06Z</time></trkpt><trkpt lat="42.93125886372705" lon="11.264974532528162"><ele>60.0</ele><time>2026-04-06T16:40:07Z</time></trkpt><trkpt lat="42.931145988899594" lon="11.264755555443966"><ele>60.0</ele><time>2026-04-06T16:40:08Z</time></trkpt><trkpt lat="42.931030832324375" lon="11.264535977768382"><ele>61.0</ele><time>2026-04-06T16:40:09Z</time></trkpt><trkpt lat="42.93090522262066" lon="11.264338590189128"><ele>62.0</ele><time>2026-04-06T16:40:10Z</time></trkpt><trkpt lat="42.93078661872652" lon="11.264186374912217"><ele>63.0</ele><time>2026-04-06T16:40:11Z</time></trkpt><trkpt lat="42.93066241611423" lon="11.264143361291751"><ele>64.0</ele><time>2026-04-06T16:40:12Z</time></trkpt><trkpt lat="42.9305580114136" lon="11.264107241906169"><ele>65.0</ele><time>2026-04-06T16:40:13Z</time></trkpt><trkpt lat="42.930400217862946" lon="11.26409640313294"><ele>66.0</ele><time>2026-04-06T16:40:14Z</time></trkpt><trkpt lat="42.930282194089884" lon="11.264077191007157"><ele>67.0</ele><time>2026-04-06T16:40:15Z</time></trkpt><trkpt lat="42.93010479196625" lon="11.264048940697132"><ele>67.33333333333333</ele><time>2026-04-06T16:40:16Z</time></trkpt><trkpt lat="42.92992899194918" lon="11.264020945436005"><ele>67.66666666666667</ele><time>2026-04-06T16:40:17Z</time></trkpt><trkpt lat="42.92974608237034" lon="11.263991818017573"><ele>68.0</ele><time>2026-04-06T16:40:18Z</time></trkpt><trkpt lat="42.929559607652344" lon="11.263950478148868"><ele>71.33333333333334</ele><time>2026-04-06T16:40:19Z</time></trkpt><trkpt lat="42.92938155058536" lon="11.263930148543588"><ele>74.66666666666667</ele><time>2026-04-06T16:40:20Z</time></trkpt><trkpt lat="42.92919439867436" lon="11.263911566866957"><ele>78.0</ele><time>2026-04-06T16:40:20.999Z</time></trkpt><trkpt lat="42.92903806855624" lon="11.263932703773156"><ele>76.0</ele><time>2026-04-06T16:40:21.999Z</time></trkpt><trkpt lat="42.928881487592946" lon="11.26396652978826"><ele>74.0</ele><time>2026-04-06T16:40:22.999Z</time></trkpt><trkpt lat="42.928740400669426" lon="11.26401974044129"><ele>72.0</ele><time>2026-04-06T16:40:23.999Z</time></trkpt><trkpt lat="42.9285618708045" lon="11.264088688755376"><ele>71.0</ele><time>2026-04-06T16:40:24.999Z</time></trkpt><trkpt lat="42.928393070045466" lon="11.26418423634781"><ele>70.0</ele><time>2026-04-06T16:40:25.999Z</time></trkpt><trkpt lat="42.928247296702565" lon="11.26425777703709"><ele>69.0</ele><time>2026-04-06T16:40:26.999Z</time></trkpt><trkpt lat="42.928083988565795" lon="11.264329554711775"><ele>69.0</ele><time>2026-04-06T16:40:27.999Z</time></trkpt><trkpt lat="42.92791932819584" lon="11.264375689780314"><ele>69.0</ele><time>2026-04-06T16:40:28.999Z</time></trkpt><trkpt lat="42.92769610873547" lon="11.26437583882436"><ele>69.0</ele><time>2026-04-06T16:40:29.999Z</time></trkpt><trkpt lat="42.92747126570813" lon="11.264349320968568"><ele>67.66666666666667</ele><time>2026-04-06T16:40:30.999Z</time></trkpt><trkpt lat="42.92724914289846" lon="11.264302456977875"><ele>66.33333333333334</ele><time>2026-04-06T16:40:31.999Z</time></trkpt><trkpt lat="42.92703757616631" lon="11.264255251782698"><ele>65.0</ele><time>2026-04-06T16:40:32.999Z</time></trkpt><trkpt lat="42.926836913092295" lon="11.264208393615045"><ele>64.0</ele><time>2026-04-06T16:40:33.999Z</time></trkpt><trkpt lat="42.92664881376633" lon="11.26416502133438"><ele>63.0</ele><time>2026-04-06T16:40:34.999Z</time></trkpt><trkpt lat="42.92646860780631" lon="11.264126020795688"><ele>62.0</ele><time>2026-04-06T16:40:35.999Z</time></trkpt><trkpt lat="42.92631784877024" lon="11.264110238816077"><ele>62.0</ele><time>2026-04-06T16:40:36.999Z</time></trkpt><trkpt lat="42.926224928682664" lon="11.264132559005176"><ele>62.0</ele><time>2026-04-06T16:40:37.999Z</time></trkpt><trkpt lat="42.92612944191708" lon="11.264243426391378"><ele>62.0</ele><time>2026-04-06T16:40:38.999Z</time></trkpt><trkpt lat="42.926011667213636" lon="11.264377420965355"><ele>62.0</ele><time>2026-04-06T16:40:39.999Z</time></trkpt><trkpt lat="42.925927435956716" lon="11.26446503254222"><ele>62.333333333333336</ele><time>2026-04-06T16:40:40.999Z</time></trkpt><trkpt lat="42.92578672257022" lon="11.264500030428877"><ele>62.66666666666667</ele><time>2026-04-06T16:40:41.999Z</time></trkpt><trkpt lat="42.925646169007116" lon="11.264461133351864"><ele>63.0</ele><time>2026-04-06T16:40:42.999Z</time></trkpt><trkpt lat="42.92548302029851" lon="11.264400123606261"><ele>63.0</ele><time>2026-04-06T16:40:43.999Z</time></trkpt><trkpt lat="42.92530507274746" lon="11.264333785464098"><ele>63.0</ele><time>2026-04-06T16:40:44.999Z</time></trkpt><trkpt lat="42.925123389252136" lon="11.264263509774281"><ele>63.0</ele><time>2026-04-06T16:40:45.999Z</time></trkpt><trkpt lat="42.924942065146745" lon="11.264186035199721"><ele>62.66666666666667</ele><time>2026-04-06T16:40:46.999Z</time></trkpt><trkpt lat="42.92477632336967" lon="11.264110594769273"><ele>62.333333333333336</ele><time>2026-04-06T16:40:47.999Z</time></trkpt><trkpt lat="42.92459849529196" lon="11.26401599037361"><ele>62.0</ele><time>2026-04-06T16:40:48.999Z</time></trkpt><trkpt lat="42.9244221337475" lon="11.263905547893467"><ele>61.333333333333336</ele><time>2026-04-06T16:40:49.999Z</time></trkpt><trkpt lat="42.92424600957125" lon="11.263781752937355"><ele>60.66666666666667</ele><time>2026-04-06T16:40:50.999Z</time></trkpt><trkpt lat="42.92406553985253" lon="11.26363627471141"><ele>60.0</ele><time>2026-04-06T16:40:51.999Z</time></trkpt><trkpt lat="42.92388756678254" lon="11.263478962984339"><ele>60.0</ele><time>2026-04-06T16:40:52.999Z</time></trkpt><trkpt lat="42.923710824231776" lon="11.263308223556246"><ele>60.0</ele><time>2026-04-06T16:40:53.999Z</time></trkpt><trkpt lat="42.92353149286087" lon="11.26312982847645"><ele>60.0</ele><time>2026-04-06T16:40:54.999Z</time></trkpt><trkpt lat="42.92335306005449" lon="11.262942904472212"><ele>58.0</ele><time>2026-04-06T16:40:55.999Z</time></trkpt><trkpt lat="42.923169768685504" lon="11.26275823876054"><ele>56.0</ele><time>2026-04-06T16:40:56.999Z</time></trkpt><trkpt lat="42.922983634749045" lon="11.262564325730736"><ele>56.0</ele><time>2026-04-06T16:40:57.999Z</time></trkpt><trkpt lat="42.9227956546121" lon="11.26236870778978"><ele>56.0</ele><time>2026-04-06T16:40:58.999Z</time></trkpt><trkpt lat="42.922605442691975" lon="11.262171683302734"><ele>56.0</ele><time>2026-04-06T16:40:59.999Z</time></trkpt><trkpt lat="42.92241638474838" lon="11.261972868495523"><ele>56.0</ele><time>2026-04-06T16:41:00.999Z</time></trkpt><trkpt lat="42.92222432464302" lon="11.261771509429435"><ele>56.0</ele><time>2026-04-06T16:41:01.999Z</time></trkpt><trkpt lat="42.922030152057594" lon="11.261564624792493"><ele>56.0</ele><time>2026-04-06T16:41:02.999Z</time></trkpt><trkpt lat="42.9218316308912" lon="11.261355690279158"><ele>56.0</ele><time>2026-04-06T16:41:03.999Z</time></trkpt><trkpt lat="42.92163183646602" lon="11.261147059541821"><ele>56.0</ele><time>2026-04-06T16:41:04.999Z</time></trkpt><trkpt lat="42.921430026897816" lon="11.26093829120347"><ele>56.0</ele><time>2026-04-06T16:41:05.999Z</time></trkpt><trkpt lat="42.92122887485429" lon="11.260733062023457"><ele>56.0</ele><time>2026-04-06T16:41:06.999Z</time></trkpt><trkpt lat="42.921025795235494" lon="11.260525260257156"><ele>56.5</ele><time>2026-04-06T16:41:07.999Z</time></trkpt><trkpt lat="42.92082554459505" lon="11.260317494028103"><ele>57.0</ele><time>2026-04-06T16:41:08.999Z</time></trkpt><trkpt lat="42.920633674473045" lon="11.260118548651185"><ele>57.0</ele><time>2026-04-06T16:41:09.999Z</time></trkpt><trkpt lat="42.92044459657572" lon="11.259918818787977"><ele>57.0</ele><time>2026-04-06T16:41:10.999Z</time></trkpt><trkpt lat="42.92026853988406" lon="11.25973507093917"><ele>57.33333333333333</ele><time>2026-04-06T16:41:11.999Z</time></trkpt><trkpt lat="42.920113799616495" lon="11.259552469417919"><ele>57.666666666666664</ele><time>2026-04-06T16:41:12.999Z</time></trkpt><trkpt lat="42.919969950852824" lon="11.259377383381608"><ele>58.0</ele><time>2026-04-06T16:41:13.999Z</time></trkpt><trkpt lat="42.919842639882106" lon="11.259204311138108"><ele>58.0</ele><time>2026-04-06T16:41:14.999Z</time></trkpt><trkpt lat="42.91975691218109" lon="11.258980515812882"><ele>58.0</ele><time>2026-04-06T16:41:15.998Z</time></trkpt><trkpt lat="42.91966276589667" lon="11.25876412717492"><ele>58.0</ele><time>2026-04-06T16:41:16.998Z</time></trkpt><trkpt lat="42.919579565805456" lon="11.25854521300366"><ele>58.666666666666664</ele><time>2026-04-06T16:41:17.998Z</time></trkpt><trkpt lat="42.91949485824992" lon="11.258334347792156"><ele>59.33333333333333</ele><time>2026-04-06T16:41:18.998Z</time></trkpt><trkpt lat="42.91938286210664" lon="11.258134400084257"><ele>60.0</ele><time>2026-04-06T16:41:19.998Z</time></trkpt><trkpt lat="42.91924961817691" lon="11.257934396260188"><ele>59.66666666666667</ele><time>2026-04-06T16:41:20.998Z</time></trkpt><trkpt lat="42.91910185490551" lon="11.257759532510242"><ele>59.333333333333336</ele><time>2026-04-06T16:41:21.998Z</time></trkpt><trkpt lat="42.918945603322015" lon="11.257581733364965"><ele>59.0</ele><time>2026-04-06T16:41:22.998Z</time></trkpt><trkpt lat="42.91877945782428" lon="11.257417184823545"><ele>59.66666666666667</ele><time>2026-04-06T16:41:23.998Z</time></trkpt><trkpt lat="42.91861344252013" lon="11.2572515179734"><ele>60.33333333333333</ele><time>2026-04-06T16:41:24.998Z</time></trkpt><trkpt lat="42.918442646570526" lon="11.257091123505274"><ele>61.0</ele><time>2026-04-06T16:41:25.998Z</time></trkpt><trkpt lat="42.918260234986704" lon="11.256951876211561"><ele>61.33333333333333</ele><time>2026-04-06T16:41:26.998Z</time></trkpt><trkpt lat="42.91806901905303" lon="11.256826548725718"><ele>61.66666666666667</ele><time>2026-04-06T16:41:27.998Z</time></trkpt><trkpt lat="42.91787834718372" lon="11.256707801653578"><ele>62.0</ele><time>2026-04-06T16:41:28.998Z</time></trkpt><trkpt lat="42.9176964220687" lon="11.256582955123136"><ele>64.66666666666667</ele><time>2026-04-06T16:41:29.998Z</time></trkpt><trkpt lat="42.917522679726176" lon="11.256444384899625"><ele>67.33333333333333</ele><time>2026-04-06T16:41:30.998Z</time></trkpt><trkpt lat="42.91735920735736" lon="11.256295573115636"><ele>70.0</ele><time>2026-04-06T16:41:31.998Z</time></trkpt><trkpt lat="42.917210267976856" lon="11.256111040841605"><ele>70.0</ele><time>2026-04-06T16:41:32.998Z</time></trkpt><trkpt lat="42.91706935822426" lon="11.255915531687668"><ele>70.0</ele><time>2026-04-06T16:41:33.998Z</time></trkpt><trkpt lat="42.916925586018884" lon="11.255723002901302"><ele>70.0</ele><time>2026-04-06T16:41:34.998Z</time></trkpt><trkpt lat="42.91679409880807" lon="11.255548784585194"><ele>70.0</ele><time>2026-04-06T16:41:35.998Z</time></trkpt><trkpt lat="42.916663976162766" lon="11.255385148976794"><ele>70.0</ele><time>2026-04-06T16:41:36.998Z</time></trkpt><trkpt lat="42.91651562887757" lon="11.255238006679788"><ele>70.0</ele><time>2026-04-06T16:41:37.998Z</time></trkpt><trkpt lat="42.91634982313157" lon="11.255144936966737"><ele>70.0</ele><time>2026-04-06T16:41:38.998Z</time></trkpt><trkpt lat="42.91615980561574" lon="11.25509916940474"><ele>70.0</ele><time>2026-04-06T16:41:40Z</time></trkpt><trkpt lat="42.91596748569764" lon="11.255049964833793"><ele>70.0</ele><time>2026-04-06T16:41:41Z</time></trkpt><trkpt lat="42.91575295550845" lon="11.254999319491267"><ele>70.0</ele><time>2026-04-06T16:41:42Z</time></trkpt><trkpt lat="42.91554752680277" lon="11.254927715003772"><ele>70.0</ele><time>2026-04-06T16:41:43Z</time></trkpt><trkpt lat="42.915344557512825" lon="11.254834506656717"><ele>70.0</ele><time>2026-04-06T16:41:44Z</time></trkpt><trkpt lat="42.91513466100955" lon="11.254721740857983"><ele>69.0</ele><time>2026-04-06T16:41:45Z</time></trkpt><trkpt lat="42.91492579245554" lon="11.254626460818141"><ele>68.0</ele><time>2026-04-06T16:41:46Z</time></trkpt><trkpt lat="42.9147062464888" lon="11.254498977108689"><ele>68.0</ele><time>2026-04-06T16:41:47Z</time></trkpt><trkpt lat="42.91449106853788" lon="11.254380698077386"><ele>68.0</ele><time>2026-04-06T16:41:48Z</time></trkpt><trkpt lat="42.91428261732849" lon="11.254267286624904"><ele>68.66666666666667</ele><time>2026-04-06T16:41:49Z</time></trkpt><trkpt lat="42.914079162283166" lon="11.254155898990819"><ele>69.33333333333333</ele><time>2026-04-06T16:41:50Z</time></trkpt><trkpt lat="42.913876234472056" lon="11.254053862478328"><ele>70.0</ele><time>2026-04-06T16:41:51Z</time></trkpt><trkpt lat="42.91367596383666" lon="11.253951356607805"><ele>71.0</ele><time>2026-04-06T16:41:52Z</time></trkpt><trkpt lat="42.913472464774195" lon="11.25384366459079"><ele>72.0</ele><time>2026-04-06T16:41:53Z</time></trkpt><trkpt lat="42.91326987685195" lon="11.253719894393317"><ele>73.0</ele><time>2026-04-06T16:41:54Z</time></trkpt><trkpt lat="42.91308460372417" lon="11.253557399062252"><ele>73.0</ele><time>2026-04-06T16:41:55Z</time></trkpt><trkpt lat="42.9128986430262" lon="11.25338202754389"><ele>73.0</ele><time>2026-04-06T16:41:56Z</time></trkpt><trkpt lat="42.91271189213274" lon="11.253180684178519"><ele>70.5</ele><time>2026-04-06T16:41:57Z</time></trkpt><trkpt lat="42.91254087563061" lon="11.252955542381242"><ele>68.0</ele><time>2026-04-06T16:41:58Z</time></trkpt><trkpt lat="42.91237317521705" lon="11.252739031165785"><ele>68.0</ele><time>2026-04-06T16:41:59Z</time></trkpt><trkpt lat="42.912236072613865" lon="11.25247402265012"><ele>68.0</ele><time>2026-04-06T16:42:00Z</time></trkpt><trkpt lat="42.91208856155757" lon="11.252218537237926"><ele>70.5</ele><time>2026-04-06T16:42:01Z</time></trkpt><trkpt lat="42.91193213588302" lon="11.251970257538774"><ele>73.0</ele><time>2026-04-06T16:42:02Z</time></trkpt><trkpt lat="42.91175699832055" lon="11.251739695344149"><ele>69.5</ele><time>2026-04-06T16:42:03Z</time></trkpt><trkpt lat="42.911578123224785" lon="11.251512891796374"><ele>66.0</ele><time>2026-04-06T16:42:04Z</time></trkpt><trkpt lat="42.91138710414554" lon="11.251299306278478"><ele>66.0</ele><time>2026-04-06T16:42:05Z</time></trkpt><trkpt lat="42.91119522221682" lon="11.2510792456418"><ele>66.0</ele><time>2026-04-06T16:42:06Z</time></trkpt><trkpt lat="42.91100798940714" lon="11.250852309442305"><ele>70.5</ele><time>2026-04-06T16:42:07Z</time></trkpt><trkpt lat="42.91082296807067" lon="11.250621107927845"><ele>75.0</ele><time>2026-04-06T16:42:08Z</time></trkpt><trkpt lat="42.9106404216738" lon="11.25039188408416"><ele>75.0</ele><time>2026-04-06T16:42:09Z</time></trkpt><trkpt lat="42.91045367967375" lon="11.250168645405054"><ele>75.0</ele><time>2026-04-06T16:42:10Z</time></trkpt><trkpt lat="42.91026218915431" lon="11.249942047047826"><ele>75.5</ele><time>2026-04-06T16:42:11Z</time></trkpt><trkpt lat="42.910071590009196" lon="11.249719928923286"><ele>76.0</ele><time>2026-04-06T16:42:12Z</time></trkpt><trkpt lat="42.90988195930786" lon="11.249496536944077"><ele>76.0</ele><time>2026-04-06T16:42:13Z</time></trkpt><trkpt lat="42.90969456036497" lon="11.249269740455546"><ele>76.0</ele><time>2026-04-06T16:42:14Z</time></trkpt><trkpt lat="42.909509168066045" lon="11.249039545464512"><ele>78.0</ele><time>2026-04-06T16:42:15Z</time></trkpt><trkpt lat="42.909323203153434" lon="11.248810232380702"><ele>80.0</ele><time>2026-04-06T16:42:16Z</time></trkpt><trkpt lat="42.90913634564647" lon="11.248580638201648"><ele>77.5</ele><time>2026-04-06T16:42:17Z</time></trkpt><trkpt lat="42.908947660754585" lon="11.248350747362004"><ele>75.0</ele><time>2026-04-06T16:42:18Z</time></trkpt><trkpt lat="42.90875638584897" lon="11.248123564029438"><ele>75.0</ele><time>2026-04-06T16:42:19Z</time></trkpt><trkpt lat="42.90856411529408" lon="11.247894246318207"><ele>75.0</ele><time>2026-04-06T16:42:20Z</time></trkpt><trkpt lat="42.90836864964198" lon="11.247659873297572"><ele>72.5</ele><time>2026-04-06T16:42:21Z</time></trkpt><trkpt lat="42.90817273028943" lon="11.247420599062655"><ele>70.0</ele><time>2026-04-06T16:42:22Z</time></trkpt><trkpt lat="42.907977660035186" lon="11.247182204321824"><ele>70.0</ele><time>2026-04-06T16:42:23Z</time></trkpt><trkpt lat="42.907778021155586" lon="11.246931230401486"><ele>70.0</ele><time>2026-04-06T16:42:24Z</time></trkpt><trkpt lat="42.9075788387086" lon="11.246680973513973"><ele>72.0</ele><time>2026-04-06T16:42:25Z</time></trkpt><trkpt lat="42.9073777017266" lon="11.246438440427081"><ele>74.0</ele><time>2026-04-06T16:42:26Z</time></trkpt><trkpt lat="42.90717634495296" lon="11.246196425107938"><ele>74.0</ele><time>2026-04-06T16:42:27Z</time></trkpt><trkpt lat="42.906975467441704" lon="11.245949085281568"><ele>74.0</ele><time>2026-04-06T16:42:28Z</time></trkpt><trkpt lat="42.90677468342887" lon="11.245702901612047"><ele>73.5</ele><time>2026-04-06T16:42:29Z</time></trkpt><trkpt lat="42.906573376354395" lon="11.245456109399088"><ele>73.0</ele><time>2026-04-06T16:42:30Z</time></trkpt><trkpt lat="42.90637309189522" lon="11.245214937541768"><ele>73.0</ele><time>2026-04-06T16:42:31Z</time></trkpt><trkpt lat="42.90617612877545" lon="11.244964163332122"><ele>73.0</ele><time>2026-04-06T16:42:31.999Z</time></trkpt><trkpt lat="42.905979805906085" lon="11.244723033689585"><ele>73.0</ele><time>2026-04-06T16:42:32.999Z</time></trkpt><trkpt lat="42.90578993245171" lon="11.244481807197568"><ele>73.0</ele><time>2026-04-06T16:42:33.999Z</time></trkpt><trkpt lat="42.90560186263952" lon="11.244243199378822"><ele>73.0</ele><time>2026-04-06T16:42:34.999Z</time></trkpt><trkpt lat="42.90541522830696" lon="11.244002028782676"><ele>73.0</ele><time>2026-04-06T16:42:35.999Z</time></trkpt><trkpt lat="42.90523716035433" lon="11.243776960978845"><ele>76.5</ele><time>2026-04-06T16:42:36.999Z</time></trkpt><trkpt lat="42.90506268562858" lon="11.243549283794426"><ele>80.0</ele><time>2026-04-06T16:42:37.999Z</time></trkpt><trkpt lat="42.90488534290039" lon="11.24331807938496"><ele>83.5</ele><time>2026-04-06T16:42:38.999Z</time></trkpt><trkpt lat="42.90470808925765" lon="11.24308760242244"><ele>87.0</ele><time>2026-04-06T16:42:39.999Z</time></trkpt><trkpt lat="42.90452944772058" lon="11.242857724904363"><ele>87.0</ele><time>2026-04-06T16:42:40.999Z</time></trkpt><trkpt lat="42.90434583651056" lon="11.242630273879534"><ele>87.0</ele><time>2026-04-06T16:42:41.999Z</time></trkpt><trkpt lat="42.90415446170781" lon="11.242412337580717"><ele>85.0</ele><time>2026-04-06T16:42:42.999Z</time></trkpt><trkpt lat="42.90396083088218" lon="11.242193355311548"><ele>83.0</ele><time>2026-04-06T16:42:43.999Z</time></trkpt><trkpt lat="42.90375871938514" lon="11.241986399355406"><ele>83.0</ele><time>2026-04-06T16:42:44.999Z</time></trkpt><trkpt lat="42.90355469044927" lon="11.241787963788287"><ele>83.0</ele><time>2026-04-06T16:42:45.999Z</time></trkpt><trkpt lat="42.90334194790396" lon="11.241596217736697"><ele>84.5</ele><time>2026-04-06T16:42:46.999Z</time></trkpt><trkpt lat="42.9031187456257" lon="11.241441012741648"><ele>86.0</ele><time>2026-04-06T16:42:47.999Z</time></trkpt><trkpt lat="42.9028852122925" lon="11.241285824153204"><ele>86.0</ele><time>2026-04-06T16:42:48.999Z</time></trkpt><trkpt lat="42.90263919955745" lon="11.241154250675578"><ele>86.0</ele><time>2026-04-06T16:42:49.999Z</time></trkpt><trkpt lat="42.902394949169924" lon="11.241024431987695"><ele>83.0</ele><time>2026-04-06T16:42:50.999Z</time></trkpt><trkpt lat="42.9021400108988" lon="11.240908104100752"><ele>80.0</ele><time>2026-04-06T16:42:51.999Z</time></trkpt><trkpt lat="42.9018826282536" lon="11.240801554537828"><ele>80.0</ele><time>2026-04-06T16:42:52.999Z</time></trkpt><trkpt lat="42.901624729727786" lon="11.24070062037038"><ele>80.0</ele><time>2026-04-06T16:42:53.999Z</time></trkpt><trkpt lat="42.90136566940678" lon="11.240605150494428"><ele>83.0</ele><time>2026-04-06T16:42:54.999Z</time></trkpt><trkpt lat="42.901109650583685" lon="11.240508628773528"><ele>86.0</ele><time>2026-04-06T16:42:55.999Z</time></trkpt><trkpt lat="42.90085465945129" lon="11.240414187474101"><ele>86.0</ele><time>2026-04-06T16:42:56.999Z</time></trkpt><trkpt lat="42.900603745024284" lon="11.240322504933866"><ele>86.0</ele><time>2026-04-06T16:42:57.999Z</time></trkpt><trkpt lat="42.90035784921895" lon="11.240234681556547"><ele>86.0</ele><time>2026-04-06T16:42:58.999Z</time></trkpt><trkpt lat="42.90011914604365" lon="11.240143608916483"><ele>86.0</ele><time>2026-04-06T16:42:59.999Z</time></trkpt><trkpt lat="42.899876746790596" lon="11.240054284578056"><ele>86.0</ele><time>2026-04-06T16:43:00.999Z</time></trkpt><trkpt lat="42.89963482521314" lon="11.239964403341881"><ele>86.0</ele><time>2026-04-06T16:43:01.999Z</time></trkpt><trkpt lat="42.899394007351916" lon="11.239876857162496"><ele>89.0</ele><time>2026-04-06T16:43:02.999Z</time></trkpt><trkpt lat="42.89915485546742" lon="11.239789553890581"><ele>92.0</ele><time>2026-04-06T16:43:03.999Z</time></trkpt><trkpt lat="42.89891715808265" lon="11.239701456867627"><ele>92.0</ele><time>2026-04-06T16:43:04.999Z</time></trkpt><trkpt lat="42.898683256889534" lon="11.239608432946731"><ele>92.0</ele><time>2026-04-06T16:43:05.999Z</time></trkpt><trkpt lat="42.898451735791504" lon="11.239518268245162"><ele>92.5</ele><time>2026-04-06T16:43:06.999Z</time></trkpt><trkpt lat="42.8982233936371" lon="11.239429348773612"><ele>93.0</ele><time>2026-04-06T16:43:07.999Z</time></trkpt><trkpt lat="42.89799499648016" lon="11.239341479143018"><ele>93.0</ele><time>2026-04-06T16:43:08.999Z</time></trkpt><trkpt lat="42.89776427830194" lon="11.23923395627396"><ele>93.0</ele><time>2026-04-06T16:43:09.999Z</time></trkpt><trkpt lat="42.89753479470075" lon="11.23909405640109"><ele>92.0</ele><time>2026-04-06T16:43:10.999Z</time></trkpt><trkpt lat="42.897312744748014" lon="11.23892775210131"><ele>91.0</ele><time>2026-04-06T16:43:11.999Z</time></trkpt><trkpt lat="42.89709531650754" lon="11.238752018569414"><ele>91.0</ele><time>2026-04-06T16:43:12.999Z</time></trkpt><trkpt lat="42.896882158740986" lon="11.238578722300792"><ele>91.0</ele><time>2026-04-06T16:43:13.999Z</time></trkpt><trkpt lat="42.89666766210996" lon="11.238419012091471"><ele>90.0</ele><time>2026-04-06T16:43:14.999Z</time></trkpt><trkpt lat="42.89645103304804" lon="11.238282877982972"><ele>89.0</ele><time>2026-04-06T16:43:15.999Z</time></trkpt><trkpt lat="42.8962207680486" lon="11.238180921043593"><ele>90.0</ele><time>2026-04-06T16:43:16.999Z</time></trkpt><trkpt lat="42.89598620738341" lon="11.238133537551668"><ele>91.0</ele><time>2026-04-06T16:43:17.999Z</time></trkpt><trkpt lat="42.89574679953724" lon="11.23807569518912"><ele>91.0</ele><time>2026-04-06T16:43:18.999Z</time></trkpt><trkpt lat="42.895517117135206" lon="11.238019776659176"><ele>91.0</ele><time>2026-04-06T16:43:19.999Z</time></trkpt><trkpt lat="42.895298652303644" lon="11.237964912586948"><ele>91.0</ele><time>2026-04-06T16:43:20.999Z</time></trkpt><trkpt lat="42.895088856421864" lon="11.237927796285051"><ele>91.0</ele><time>2026-04-06T16:43:21.999Z</time></trkpt><trkpt lat="42.894892204580685" lon="11.23791021699519"><ele>91.0</ele><time>2026-04-06T16:43:22.999Z</time></trkpt><trkpt lat="42.89470486021288" lon="11.237895203883726"><ele>91.66666666666666</ele><time>2026-04-06T16:43:23.999Z</time></trkpt><trkpt lat="42.894519998103924" lon="11.2378658692218"><ele>92.33333333333333</ele><time>2026-04-06T16:43:24.999Z</time></trkpt><trkpt lat="42.894330829336816" lon="11.237798361256093"><ele>93.0</ele><time>2026-04-06T16:43:25.999Z</time></trkpt><trkpt lat="42.894141135777524" lon="11.237695164634435"><ele>93.0</ele><time>2026-04-06T16:43:26.998Z</time></trkpt><trkpt lat="42.89395076407842" lon="11.237577429519316"><ele>93.0</ele><time>2026-04-06T16:43:27.998Z</time></trkpt><trkpt lat="42.89375613618134" lon="11.237465217446355"><ele>93.0</ele><time>2026-04-06T16:43:28.998Z</time></trkpt><trkpt lat="42.893556598112646" lon="11.237351933749641"><ele>92.66666666666667</ele><time>2026-04-06T16:43:29.998Z</time></trkpt><trkpt lat="42.89335288056269" lon="11.237235457755903"><ele>92.33333333333334</ele><time>2026-04-06T16:43:30.998Z</time></trkpt><trkpt lat="42.89314504434017" lon="11.237114804210643"><ele>92.0</ele><time>2026-04-06T16:43:31.998Z</time></trkpt><trkpt lat="42.89295094588016" lon="11.236974441755459"><ele>92.0</ele><time>2026-04-06T16:43:32.998Z</time></trkpt><trkpt lat="42.89276075991203" lon="11.236859014802722"><ele>92.0</ele><time>2026-04-06T16:43:33.998Z</time></trkpt><trkpt lat="42.89258291073859" lon="11.236745266265691"><ele>92.0</ele><time>2026-04-06T16:43:34.998Z</time></trkpt><trkpt lat="42.89242043366096" lon="11.236637634353709"><ele>92.5</ele><time>2026-04-06T16:43:35.998Z</time></trkpt><trkpt lat="42.8922852492731" lon="11.236523886347792"><ele>93.0</ele><time>2026-04-06T16:43:36.998Z</time></trkpt><trkpt lat="42.89217512233113" lon="11.236396547533143"><ele>93.5</ele><time>2026-04-06T16:43:37.998Z</time></trkpt><trkpt lat="42.89209507825595" lon="11.23625116452192"><ele>94.0</ele><time>2026-04-06T16:43:38.998Z</time></trkpt><trkpt lat="42.892027432433935" lon="11.236090108831377"><ele>94.5</ele><time>2026-04-06T16:43:39.998Z</time></trkpt><trkpt lat="42.891970722136314" lon="11.235924574365411"><ele>95.0</ele><time>2026-04-06T16:43:40.998Z</time></trkpt><trkpt lat="42.89190539197244" lon="11.235736660541743"><ele>95.5</ele><time>2026-04-06T16:43:41.998Z</time></trkpt><trkpt lat="42.89182283892013" lon="11.235560338700578"><ele>96.0</ele><time>2026-04-06T16:43:42.998Z</time></trkpt><trkpt lat="42.89171433026556" lon="11.235410226203502"><ele>97.33333333333334</ele><time>2026-04-06T16:43:43.998Z</time></trkpt><trkpt lat="42.891583934114536" lon="11.235272466025643"><ele>98.66666666666667</ele><time>2026-04-06T16:43:44.998Z</time></trkpt><trkpt lat="42.8914490607415" lon="11.235132277212845"><ele>100.0</ele><time>2026-04-06T16:43:46Z</time></trkpt><trkpt lat="42.89130555007787" lon="11.234984412804694"><ele>100.0</ele><time>2026-04-06T16:43:47Z</time></trkpt><trkpt lat="42.891172643788245" lon="11.234847139660404"><ele>100.0</ele><time>2026-04-06T16:43:48Z</time></trkpt><trkpt lat="42.891045569289226" lon="11.234718639376949"><ele>100.0</ele><time>2026-04-06T16:43:49Z</time></trkpt><trkpt lat="42.890916005448624" lon="11.234615292566764"><ele>100.5</ele><time>2026-04-06T16:43:50Z</time></trkpt><trkpt lat="42.890804484392376" lon="11.234513382238719"><ele>101.0</ele><time>2026-04-06T16:43:51Z</time></trkpt><trkpt lat="42.89067336040754" lon="11.23448012876482"><ele>101.5</ele><time>2026-04-06T16:43:52Z</time></trkpt><trkpt lat="42.89052946966966" lon="11.234508535242986"><ele>102.0</ele><time>2026-04-06T16:43:53Z</time></trkpt><trkpt lat="42.89039396847359" lon="11.234588022173575"><ele>102.0</ele><time>2026-04-06T16:43:54Z</time></trkpt><trkpt lat="42.89026184496256" lon="11.234677573326826"><ele>102.0</ele><time>2026-04-06T16:43:55Z</time></trkpt><trkpt lat="42.890123012002945" lon="11.234771614344597"><ele>102.0</ele><time>2026-04-06T16:43:56Z</time></trkpt><trkpt lat="42.889981389071856" lon="11.234868109338137"><ele>99.66666666666667</ele><time>2026-04-06T16:43:57Z</time></trkpt><trkpt lat="42.88984144807656" lon="11.234965182208267"><ele>97.33333333333334</ele><time>2026-04-06T16:43:58Z</time></trkpt><trkpt lat="42.889703840117576" lon="11.235046527385762"><ele>95.0</ele><time>2026-04-06T16:43:59Z</time></trkpt><trkpt lat="42.88956388321267" lon="11.23510179403941"><ele>95.0</ele><time>2026-04-06T16:44:00Z</time></trkpt><trkpt lat="42.88942517486438" lon="11.235058585615862"><ele>95.0</ele><time>2026-04-06T16:44:01Z</time></trkpt><trkpt lat="42.88930372631656" lon="11.234966805820003"><ele>95.0</ele><time>2026-04-06T16:44:02Z</time></trkpt><trkpt lat="42.88919537244632" lon="11.234801604578701"><ele>95.0</ele><time>2026-04-06T16:44:03Z</time></trkpt><trkpt lat="42.889066852533915" lon="11.234649830339817"><ele>96.0</ele><time>2026-04-06T16:44:04Z</time></trkpt><trkpt lat="42.88892974496181" lon="11.23448765957778"><ele>97.0</ele><time>2026-04-06T16:44:05Z</time></trkpt><trkpt lat="42.88880739396907" lon="11.234352053611415"><ele>98.0</ele><time>2026-04-06T16:44:06Z</time></trkpt><trkpt lat="42.888666293926676" lon="11.234202647451477"><ele>98.0</ele><time>2026-04-06T16:44:07Z</time></trkpt><trkpt lat="42.8885205943276" lon="11.234032311002423"><ele>98.0</ele><time>2026-04-06T16:44:08Z</time></trkpt><trkpt lat="42.88837090164214" lon="11.233854257922824"><ele>98.0</ele><time>2026-04-06T16:44:09Z</time></trkpt><trkpt lat="42.88823164659074" lon="11.233659581645934"><ele>98.33333333333333</ele><time>2026-04-06T16:44:10Z</time></trkpt><trkpt lat="42.88807372595709" lon="11.233493001220815"><ele>98.66666666666666</ele><time>2026-04-06T16:44:11Z</time></trkpt><trkpt lat="42.88795274603217" lon="11.233298780982349"><ele>99.0</ele><time>2026-04-06T16:44:12Z</time></trkpt><trkpt lat="42.88781995435048" lon="11.233112517105868"><ele>99.33333333333334</ele><time>2026-04-06T16:44:13Z</time></trkpt><trkpt lat="42.88773195987647" lon="11.23287243966278"><ele>99.66666666666667</ele><time>2026-04-06T16:44:14Z</time></trkpt><trkpt lat="42.887649755746" lon="11.232624714487192"><ele>100.0</ele><time>2026-04-06T16:44:15Z</time></trkpt><trkpt lat="42.88757740430125" lon="11.232368061083347"><ele>100.66666666666667</ele><time>2026-04-06T16:44:16Z</time></trkpt><trkpt lat="42.88754725522576" lon="11.232092130121524"><ele>101.33333333333334</ele><time>2026-04-06T16:44:17Z</time></trkpt><trkpt lat="42.88754065545303" lon="11.231809376277312"><ele>102.0</ele><time>2026-04-06T16:44:18Z</time></trkpt><trkpt lat="42.887558578686736" lon="11.231528984047642"><ele>102.0</ele><time>2026-04-06T16:44:19Z</time></trkpt><trkpt lat="42.88758781529252" lon="11.231246069339344"><ele>102.0</ele><time>2026-04-06T16:44:20Z</time></trkpt><trkpt lat="42.88761971761163" lon="11.230963536811508"><ele>102.0</ele><time>2026-04-06T16:44:21Z</time></trkpt><trkpt lat="42.88764274727556" lon="11.230663841742862"><ele>105.0</ele><time>2026-04-06T16:44:22Z</time></trkpt><trkpt lat="42.88768310761587" lon="11.230365348633708"><ele>108.0</ele><time>2026-04-06T16:44:23Z</time></trkpt><trkpt lat="42.887714304342765" lon="11.230067652808845"><ele>111.0</ele><time>2026-04-06T16:44:24Z</time></trkpt><trkpt lat="42.88774567552195" lon="11.229768293100511"><ele>111.0</ele><time>2026-04-06T16:44:25Z</time></trkpt><trkpt lat="42.88777617784306" lon="11.229477223237012"><ele>111.0</ele><time>2026-04-06T16:44:26Z</time></trkpt><trkpt lat="42.88780883542041" lon="11.229165587656023"><ele>111.0</ele><time>2026-04-06T16:44:27Z</time></trkpt><trkpt lat="42.88784151481893" lon="11.228853743223866"><ele>109.0</ele><time>2026-04-06T16:44:28Z</time></trkpt><trkpt lat="42.887874070072115" lon="11.228543083636787"><ele>107.0</ele><time>2026-04-06T16:44:29Z</time></trkpt><trkpt lat="42.88790691681085" lon="11.22822964249395"><ele>105.5</ele><time>2026-04-06T16:44:30Z</time></trkpt><trkpt lat="42.88792669997225" lon="11.227916895553955"><ele>104.0</ele><time>2026-04-06T16:44:31Z</time></trkpt><trkpt lat="42.887968383021565" lon="11.22760127667738"><ele>103.66666666666666</ele><time>2026-04-06T16:44:32Z</time></trkpt><trkpt lat="42.888005410110665" lon="11.227301519985327"><ele>103.33333333333334</ele><time>2026-04-06T16:44:33Z</time></trkpt><trkpt lat="42.88804167373818" lon="11.227015840631426"><ele>103.0</ele><time>2026-04-06T16:44:34Z</time></trkpt><trkpt lat="42.8880741800623" lon="11.22674855712658"><ele>103.0</ele><time>2026-04-06T16:44:35Z</time></trkpt><trkpt lat="42.88809523157188" lon="11.226492607912608"><ele>103.0</ele><time>2026-04-06T16:44:36Z</time></trkpt><trkpt lat="42.888103261573704" lon="11.226221586418323"><ele>103.0</ele><time>2026-04-06T16:44:37Z</time></trkpt><trkpt lat="42.88808308267349" lon="11.225958456861875"><ele>102.66666666666667</ele><time>2026-04-06T16:44:37.999Z</time></trkpt><trkpt lat="42.888040813517414" lon="11.225693929728612"><ele>102.33333333333334</ele><time>2026-04-06T16:44:38.999Z</time></trkpt><trkpt lat="42.88797788229757" lon="11.225426876597682"><ele>102.0</ele><time>2026-04-06T16:44:39.999Z</time></trkpt><trkpt lat="42.887885228842265" lon="11.225158949082719"><ele>102.0</ele><time>2026-04-06T16:44:40.999Z</time></trkpt><trkpt lat="42.88777289009859" lon="11.224901979012715"><ele>102.0</ele><time>2026-04-06T16:44:41.999Z</time></trkpt><trkpt lat="42.887652851824676" lon="11.224632802193533"><ele>103.0</ele><time>2026-04-06T16:44:42.999Z</time></trkpt><trkpt lat="42.88752878798012" lon="11.224364914902642"><ele>104.0</ele><time>2026-04-06T16:44:43.999Z</time></trkpt><trkpt lat="42.887401604660354" lon="11.224115603182959"><ele>108.0</ele><time>2026-04-06T16:44:44.999Z</time></trkpt><trkpt lat="42.88726848703667" lon="11.22385862671851"><ele>112.0</ele><time>2026-04-06T16:44:45.999Z</time></trkpt><trkpt lat="42.88712203545706" lon="11.223598120298726"><ele>112.0</ele><time>2026-04-06T16:44:46.999Z</time></trkpt><trkpt lat="42.886961796488364" lon="11.223350037124145"><ele>112.0</ele><time>2026-04-06T16:44:47.999Z</time></trkpt><trkpt lat="42.886789107108164" lon="11.223111615184783"><ele>113.0</ele><time>2026-04-06T16:44:48.999Z</time></trkpt><trkpt lat="42.886608255604216" lon="11.222874484206544"><ele>114.0</ele><time>2026-04-06T16:44:49.999Z</time></trkpt><trkpt lat="42.8864269763703" lon="11.222658100949435"><ele>114.0</ele><time>2026-04-06T16:44:50.999Z</time></trkpt><trkpt lat="42.88624689106314" lon="11.22244124617405"><ele>114.0</ele><time>2026-04-06T16:44:51.999Z</time></trkpt><trkpt lat="42.88607051362373" lon="11.222226459328155"><ele>116.5</ele><time>2026-04-06T16:44:52.999Z</time></trkpt><trkpt lat="42.8858976715804" lon="11.222022137334672"><ele>119.0</ele><time>2026-04-06T16:44:53.999Z</time></trkpt><trkpt lat="42.88572349948844" lon="11.221821467021782"><ele>119.0</ele><time>2026-04-06T16:44:54.999Z</time></trkpt><trkpt lat="42.88555150937901" lon="11.221626141137063"><ele>119.0</ele><time>2026-04-06T16:44:55.999Z</time></trkpt><trkpt lat="42.88537435908977" lon="11.22142978001171"><ele>120.0</ele><time>2026-04-06T16:44:56.999Z</time></trkpt><trkpt lat="42.88518918199949" lon="11.221237125275835"><ele>121.0</ele><time>2026-04-06T16:44:57.999Z</time></trkpt><trkpt lat="42.88500127720736" lon="11.221055762642147"><ele>121.0</ele><time>2026-04-06T16:44:58.999Z</time></trkpt><trkpt lat="42.88480586467282" lon="11.220879001188221"><ele>121.0</ele><time>2026-04-06T16:44:59.999Z</time></trkpt><trkpt lat="42.88460516487463" lon="11.220712345439178"><ele>122.5</ele><time>2026-04-06T16:45:00.999Z</time></trkpt><trkpt lat="42.88440356688323" lon="11.220542749344647"><ele>124.0</ele><time>2026-04-06T16:45:01.999Z</time></trkpt><trkpt lat="42.884201011663436" lon="11.2203719477096"><ele>126.5</ele><time>2026-04-06T16:45:02.999Z</time></trkpt><trkpt lat="42.883994268238105" lon="11.22019658572704"><ele>129.0</ele><time>2026-04-06T16:45:03.999Z</time></trkpt><trkpt lat="42.883783813573125" lon="11.22002085765186"><ele>129.0</ele><time>2026-04-06T16:45:04.999Z</time></trkpt><trkpt lat="42.88356976520611" lon="11.21984470174941"><ele>129.0</ele><time>2026-04-06T16:45:05.999Z</time></trkpt><trkpt lat="42.8833555379263" lon="11.219668444936778"><ele>127.5</ele><time>2026-04-06T16:45:06.999Z</time></trkpt><trkpt lat="42.883141026361294" lon="11.219498688977623"><ele>126.0</ele><time>2026-04-06T16:45:07.999Z</time></trkpt><trkpt lat="42.88292047713075" lon="11.219325355463903"><ele>126.0</ele><time>2026-04-06T16:45:08.999Z</time></trkpt><trkpt lat="42.882702494791424" lon="11.219153828318074"><ele>126.0</ele><time>2026-04-06T16:45:09.999Z</time></trkpt><trkpt lat="42.88248824417921" lon="11.218978489969901"><ele>128.5</ele><time>2026-04-06T16:45:10.999Z</time></trkpt><trkpt lat="42.8822796467513" lon="11.218801657093058"><ele>131.0</ele><time>2026-04-06T16:45:11.999Z</time></trkpt><trkpt lat="42.882073964183434" lon="11.218616503309986"><ele>131.0</ele><time>2026-04-06T16:45:12.999Z</time></trkpt><trkpt lat="42.881873270663704" lon="11.218422950484733"><ele>131.0</ele><time>2026-04-06T16:45:13.999Z</time></trkpt><trkpt lat="42.881675928658275" lon="11.218229699947234"><ele>133.0</ele><time>2026-04-06T16:45:14.999Z</time></trkpt><trkpt lat="42.88148074537814" lon="11.218042640980913"><ele>135.0</ele><time>2026-04-06T16:45:15.999Z</time></trkpt><trkpt lat="42.881290491615516" lon="11.217862965749129"><ele>135.0</ele><time>2026-04-06T16:45:16.999Z</time></trkpt><trkpt lat="42.88110355325998" lon="11.217674670429403"><ele>135.0</ele><time>2026-04-06T16:45:17.999Z</time></trkpt><trkpt lat="42.88092037598103" lon="11.217469765333071"><ele>133.0</ele><time>2026-04-06T16:45:18.999Z</time></trkpt><trkpt lat="42.88074412721188" lon="11.217250618310592"><ele>131.0</ele><time>2026-04-06T16:45:19.999Z</time></trkpt><trkpt lat="42.88057040237476" lon="11.217022358615441"><ele>131.0</ele><time>2026-04-06T16:45:20.999Z</time></trkpt><trkpt lat="42.88039374779782" lon="11.216803147997648"><ele>131.0</ele><time>2026-04-06T16:45:21.999Z</time></trkpt><trkpt lat="42.880211338396585" lon="11.216585118087737"><ele>130.5</ele><time>2026-04-06T16:45:22.999Z</time></trkpt><trkpt lat="42.88002946169014" lon="11.21635960525443"><ele>130.0</ele><time>2026-04-06T16:45:23.999Z</time></trkpt><trkpt lat="42.87984912974328" lon="11.216122812678657"><ele>130.0</ele><time>2026-04-06T16:45:24.999Z</time></trkpt><trkpt lat="42.879671962454346" lon="11.215883925538755"><ele>130.0</ele><time>2026-04-06T16:45:25.999Z</time></trkpt><trkpt lat="42.879497412339326" lon="11.215641846754247"><ele>130.5</ele><time>2026-04-06T16:45:26.999Z</time></trkpt><trkpt lat="42.87932955464656" lon="11.215402528902253"><ele>131.0</ele><time>2026-04-06T16:45:27.999Z</time></trkpt><trkpt lat="42.8791644801561" lon="11.215166423474287"><ele>131.0</ele><time>2026-04-06T16:45:28.999Z</time></trkpt><trkpt lat="42.87900052208062" lon="11.214935287764078"><ele>131.0</ele><time>2026-04-06T16:45:29.999Z</time></trkpt><trkpt lat="42.87884318527421" lon="11.214712267424606"><ele>131.0</ele><time>2026-04-06T16:45:30.999Z</time></trkpt><trkpt lat="42.87869343339709" lon="11.214503462981112"><ele>131.0</ele><time>2026-04-06T16:45:31.999Z</time></trkpt><trkpt lat="42.878552043513416" lon="11.214306809579591"><ele>131.0</ele><time>2026-04-06T16:45:32.998Z</time></trkpt><trkpt lat="42.878411269645476" lon="11.214105682760461"><ele>131.66666666666666</ele><time>2026-04-06T16:45:33.998Z</time></trkpt><trkpt lat="42.878273770372864" lon="11.213900663989895"><ele>132.33333333333334</ele><time>2026-04-06T16:45:34.998Z</time></trkpt><trkpt lat="42.87813526269301" lon="11.21369555490456"><ele>133.0</ele><time>2026-04-06T16:45:35.998Z</time></trkpt><trkpt lat="42.87800167132206" lon="11.213474872666813"><ele>133.0</ele><time>2026-04-06T16:45:36.998Z</time></trkpt><trkpt lat="42.87787578550578" lon="11.213233736432992"><ele>133.0</ele><time>2026-04-06T16:45:37.998Z</time></trkpt><trkpt lat="42.877747713976376" lon="11.212991057972758"><ele>133.0</ele><time>2026-04-06T16:45:38.998Z</time></trkpt><trkpt lat="42.87760592142558" lon="11.212752258341174"><ele>133.0</ele><time>2026-04-06T16:45:39.998Z</time></trkpt><trkpt lat="42.87745523849497" lon="11.21251295962324"><ele>133.0</ele><time>2026-04-06T16:45:40.998Z</time></trkpt><trkpt lat="42.87730263315931" lon="11.212268790595568"><ele>133.0</ele><time>2026-04-06T16:45:41.998Z</time></trkpt><trkpt lat="42.87714500285715" lon="11.212028243168428"><ele>133.0</ele><time>2026-04-06T16:45:42.998Z</time></trkpt><trkpt lat="42.87698846319501" lon="11.21178189310911"><ele>133.0</ele><time>2026-04-06T16:45:43.998Z</time></trkpt><trkpt lat="42.876829958496025" lon="11.211536864561154"><ele>133.0</ele><time>2026-04-06T16:45:44.998Z</time></trkpt><trkpt lat="42.87667231985458" lon="11.2112945776572"><ele>133.5</ele><time>2026-04-06T16:45:45.998Z</time></trkpt><trkpt lat="42.876514595037115" lon="11.211053694054266"><ele>134.0</ele><time>2026-04-06T16:45:46.998Z</time></trkpt><trkpt lat="42.87635739383379" lon="11.21080814669728"><ele>135.0</ele><time>2026-04-06T16:45:47.998Z</time></trkpt><trkpt lat="42.876205438850214" lon="11.210556302474476"><ele>136.0</ele><time>2026-04-06T16:45:48.998Z</time></trkpt><trkpt lat="42.876067898053364" lon="11.210288188667144"><ele>136.0</ele><time>2026-04-06T16:45:49.998Z</time></trkpt><trkpt lat="42.87594726427371" lon="11.21000324657459"><ele>136.0</ele><time>2026-04-06T16:45:50.998Z</time></trkpt><trkpt lat="42.875843945706904" lon="11.209706653698689"><ele>136.5</ele><time>2026-04-06T16:45:52Z</time></trkpt><trkpt lat="42.87575971889932" lon="11.209402060028461"><ele>137.0</ele><time>2026-04-06T16:45:53Z</time></trkpt><trkpt lat="42.8756912072465" lon="11.209087033974143"><ele>138.0</ele><time>2026-04-06T16:45:54Z</time></trkpt><trkpt lat="42.875638714484815" lon="11.208763001375845"><ele>139.0</ele><time>2026-04-06T16:45:55Z</time></trkpt><trkpt lat="42.87559873000613" lon="11.208437656689485"><ele>140.0</ele><time>2026-04-06T16:45:56Z</time></trkpt><trkpt lat="42.87556101271793" lon="11.208114162240838"><ele>141.0</ele><time>2026-04-06T16:45:57Z</time></trkpt><trkpt lat="42.87552499402773" lon="11.207798618096644"><ele>141.0</ele><time>2026-04-06T16:45:58Z</time></trkpt><trkpt lat="42.87549450249084" lon="11.20751247689891"><ele>141.0</ele><time>2026-04-06T16:45:59Z</time></trkpt><trkpt lat="42.87546471949679" lon="11.207253603626198"><ele>141.0</ele><time>2026-04-06T16:46:00Z</time></trkpt><trkpt lat="42.87542732627316" lon="11.207007075872378"><ele>142.0</ele><time>2026-04-06T16:46:01Z</time></trkpt><trkpt lat="42.87536024106165" lon="11.20676571429616"><ele>143.0</ele><time>2026-04-06T16:46:02Z</time></trkpt><trkpt lat="42.87526684852796" lon="11.206546067995353"><ele>144.0</ele><time>2026-04-06T16:46:03Z</time></trkpt><trkpt lat="42.87516125690813" lon="11.206362863533233"><ele>144.4</ele><time>2026-04-06T16:46:04Z</time></trkpt><trkpt lat="42.87506337222998" lon="11.206240589738147"><ele>144.8</ele><time>2026-04-06T16:46:05Z</time></trkpt><trkpt lat="42.87498885781509" lon="11.20614090302036"><ele>145.2</ele><time>2026-04-06T16:46:06Z</time></trkpt><trkpt lat="42.87494324884877" lon="11.206030595281048"><ele>145.6</ele><time>2026-04-06T16:46:07Z</time></trkpt><trkpt lat="42.87492742259749" lon="11.205894642493721"><ele>146.0</ele><time>2026-04-06T16:46:08Z</time></trkpt><trkpt lat="42.87492176466487" lon="11.205742668187838"><ele>147.0</ele><time>2026-04-06T16:46:09Z</time></trkpt><trkpt lat="42.874853216665635" lon="11.205615622412907"><ele>148.0</ele><time>2026-04-06T16:46:10Z</time></trkpt><trkpt lat="42.874796167008626" lon="11.205499441607458"><ele>149.0</ele><time>2026-04-06T16:46:11Z</time></trkpt><trkpt lat="42.874900204515676" lon="11.20531353816485"><ele>150.0</ele><time>2026-04-06T16:46:12Z</time></trkpt><trkpt lat="42.874913340130234" lon="11.20516106482768"><ele>150.0</ele><time>2026-04-06T16:46:13Z</time></trkpt><trkpt lat="42.87496011233719" lon="11.20502705185743"><ele>150.0</ele><time>2026-04-06T16:46:14Z</time></trkpt><trkpt lat="42.87500511526051" lon="11.204876366979072"><ele>150.0</ele><time>2026-04-06T16:46:15Z</time></trkpt><trkpt lat="42.875072164404706" lon="11.204719859989634"><ele>150.0</ele><time>2026-04-06T16:46:16Z</time></trkpt><trkpt lat="42.87517681838249" lon="11.204580299003705"><ele>151.0</ele><time>2026-04-06T16:46:17Z</time></trkpt><trkpt lat="42.875221069625965" lon="11.204403159601393"><ele>152.0</ele><time>2026-04-06T16:46:18Z</time></trkpt><trkpt lat="42.87525736596504" lon="11.204220306074157"><ele>153.0</ele><time>2026-04-06T16:46:19Z</time></trkpt><trkpt lat="42.87529314020847" lon="11.204038472456965"><ele>154.0</ele><time>2026-04-06T16:46:20Z</time></trkpt><trkpt lat="42.875330240718256" lon="11.203849897672155"><ele>154.25</ele><time>2026-04-06T16:46:21Z</time></trkpt><trkpt lat="42.875364677075204" lon="11.203662674625619"><ele>154.5</ele><time>2026-04-06T16:46:22Z</time></trkpt><trkpt lat="42.875395717691035" lon="11.20347066570108"><ele>154.75</ele><time>2026-04-06T16:46:23Z</time></trkpt><trkpt lat="42.875414581158864" lon="11.203261629777437"><ele>155.0</ele><time>2026-04-06T16:46:24Z</time></trkpt><trkpt lat="42.87537590932426" lon="11.203049902285994"><ele>157.33333333333331</ele><time>2026-04-06T16:46:25Z</time></trkpt><trkpt lat="42.875354804144294" lon="11.202848829685786"><ele>159.66666666666666</ele><time>2026-04-06T16:46:26Z</time></trkpt><trkpt lat="42.875347877798525" lon="11.202646070420272"><ele>162.0</ele><time>2026-04-06T16:46:27Z</time></trkpt><trkpt lat="42.875364823173875" lon="11.202438197075821"><ele>163.5</ele><time>2026-04-06T16:46:28Z</time></trkpt><trkpt lat="42.87539927353222" lon="11.202230946561201"><ele>165.0</ele><time>2026-04-06T16:46:29Z</time></trkpt><trkpt lat="42.875434346929616" lon="11.202035653516349"><ele>166.5</ele><time>2026-04-06T16:46:30Z</time></trkpt><trkpt lat="42.875484841898036" lon="11.201848122598365"><ele>168.0</ele><time>2026-04-06T16:46:31Z</time></trkpt><trkpt lat="42.87552437519659" lon="11.201666673767752"><ele>169.0</ele><time>2026-04-06T16:46:32Z</time></trkpt><trkpt lat="42.87557082666854" lon="11.20145347209927"><ele>170.0</ele><time>2026-04-06T16:46:33Z</time></trkpt><trkpt lat="42.8756132547578" lon="11.201258536763426"><ele>171.0</ele><time>2026-04-06T16:46:34Z</time></trkpt><trkpt lat="42.87565473085707" lon="11.201067913902145"><ele>171.0</ele><time>2026-04-06T16:46:35Z</time></trkpt><trkpt lat="42.875697192851256" lon="11.200872137006952"><ele>171.0</ele><time>2026-04-06T16:46:36Z</time></trkpt><trkpt lat="42.875731528533954" lon="11.200693910198746"><ele>171.0</ele><time>2026-04-06T16:46:37Z</time></trkpt><trkpt lat="42.875753882844364" lon="11.200512777217003"><ele>171.0</ele><time>2026-04-06T16:46:38Z</time></trkpt><trkpt lat="42.875740403923245" lon="11.200303904054433"><ele>175.66666666666666</ele><time>2026-04-06T16:46:39Z</time></trkpt><trkpt lat="42.87566539185058" lon="11.200090635568872"><ele>180.33333333333331</ele><time>2026-04-06T16:46:40Z</time></trkpt><trkpt lat="42.87556835067926" lon="11.199938500784198"><ele>185.0</ele><time>2026-04-06T16:46:41Z</time></trkpt><trkpt lat="42.8754809813393" lon="11.199798866259492"><ele>188.0</ele><time>2026-04-06T16:46:42Z</time></trkpt><trkpt lat="42.87539041408725" lon="11.199654120770862"><ele>191.0</ele><time>2026-04-06T16:46:42.999Z</time></trkpt><trkpt lat="42.875310257051" lon="11.199519197891814"><ele>194.0</ele><time>2026-04-06T16:46:43.999Z</time></trkpt><trkpt lat="42.87524920896099" lon="11.199376396431113"><ele>197.0</ele><time>2026-04-06T16:46:44.999Z</time></trkpt><trkpt lat="42.87519295354938" lon="11.199174542987219"><ele>194.66666666666669</ele><time>2026-04-06T16:46:45.999Z</time></trkpt><trkpt lat="42.875153191062985" lon="11.198985985481269"><ele>192.33333333333334</ele><time>2026-04-06T16:46:46.999Z</time></trkpt><trkpt lat="42.875098835575336" lon="11.198787342532224"><ele>190.0</ele><time>2026-04-06T16:46:47.999Z</time></trkpt><trkpt lat="42.87508385439771" lon="11.198574883403616"><ele>190.0</ele><time>2026-04-06T16:46:48.999Z</time></trkpt><trkpt lat="42.875067194317644" lon="11.198373137851897"><ele>190.0</ele><time>2026-04-06T16:46:49.999Z</time></trkpt><trkpt lat="42.875052536121466" lon="11.198169356085502"><ele>190.0</ele><time>2026-04-06T16:46:50.999Z</time></trkpt><trkpt lat="42.87503746154864" lon="11.197967169486857"><ele>190.0</ele><time>2026-04-06T16:46:51.999Z</time></trkpt><trkpt lat="42.87502125373764" lon="11.197770851131311"><ele>193.0</ele><time>2026-04-06T16:46:52.999Z</time></trkpt><trkpt lat="42.87499557405752" lon="11.197570121716872"><ele>196.0</ele><time>2026-04-06T16:46:53.999Z</time></trkpt><trkpt lat="42.87494956339721" lon="11.197372324529127"><ele>199.0</ele><time>2026-04-06T16:46:54.999Z</time></trkpt><trkpt lat="42.87488965108715" lon="11.197180081128499"><ele>202.0</ele><time>2026-04-06T16:46:55.999Z</time></trkpt><trkpt lat="42.87482097838433" lon="11.196994702180534"><ele>205.0</ele><time>2026-04-06T16:46:56.999Z</time></trkpt><trkpt lat="42.87479587414133" lon="11.196786895562326"><ele>208.0</ele><time>2026-04-06T16:46:57.999Z</time></trkpt><trkpt lat="42.874769898598835" lon="11.19658271276958"><ele>208.25</ele><time>2026-04-06T16:46:58.999Z</time></trkpt><trkpt lat="42.87474141140108" lon="11.196380339053249"><ele>208.5</ele><time>2026-04-06T16:46:59.999Z</time></trkpt><trkpt lat="42.87471183224791" lon="11.196186883497836"><ele>208.75</ele><time>2026-04-06T16:47:00.999Z</time></trkpt><trkpt lat="42.874696119531805" lon="11.195992354898605"><ele>209.0</ele><time>2026-04-06T16:47:01.999Z</time></trkpt><trkpt lat="42.874687109134754" lon="11.195794254300775"><ele>208.66666666666669</ele><time>2026-04-06T16:47:02.999Z</time></trkpt><trkpt lat="42.874682100590945" lon="11.195588577632654"><ele>208.33333333333331</ele><time>2026-04-06T16:47:03.999Z</time></trkpt><trkpt lat="42.87468076392856" lon="11.195369343636314"><ele>208.0</ele><time>2026-04-06T16:47:04.999Z</time></trkpt><trkpt lat="42.874683266162" lon="11.19515727775012"><ele>208.0</ele><time>2026-04-06T16:47:05.999Z</time></trkpt><trkpt lat="42.874683234443324" lon="11.194928393103192"><ele>208.0</ele><time>2026-04-06T16:47:06.999Z</time></trkpt><trkpt lat="42.874685050819906" lon="11.194698259126847"><ele>208.0</ele><time>2026-04-06T16:47:07.999Z</time></trkpt><trkpt lat="42.87468807838341" lon="11.194467534032329"><ele>207.66666666666666</ele><time>2026-04-06T16:47:08.999Z</time></trkpt><trkpt lat="42.87468619727099" lon="11.194240267215937"><ele>207.33333333333331</ele><time>2026-04-06T16:47:09.999Z</time></trkpt><trkpt lat="42.87468613557489" lon="11.194006001459183"><ele>207.0</ele><time>2026-04-06T16:47:10.999Z</time></trkpt><trkpt lat="42.87468772749653" lon="11.193760472260935"><ele>207.0</ele><time>2026-04-06T16:47:11.999Z</time></trkpt><trkpt lat="42.87468935633657" lon="11.193510652598562"><ele>207.0</ele><time>2026-04-06T16:47:12.999Z</time></trkpt><trkpt lat="42.87468727057087" lon="11.193259417011058"><ele>207.0</ele><time>2026-04-06T16:47:13.999Z</time></trkpt><trkpt lat="42.87468756067505" lon="11.193008014873113"><ele>207.0</ele><time>2026-04-06T16:47:14.999Z</time></trkpt><trkpt lat="42.874687497408395" lon="11.19275215992853"><ele>207.0</ele><time>2026-04-06T16:47:15.999Z</time></trkpt><trkpt lat="42.87468886626769" lon="11.192510729327815"><ele>207.0</ele><time>2026-04-06T16:47:16.999Z</time></trkpt><trkpt lat="42.87468395770908" lon="11.192280113352059"><ele>207.0</ele><time>2026-04-06T16:47:17.999Z</time></trkpt><trkpt lat="42.87468174156915" lon="11.192064360698605"><ele>207.0</ele><time>2026-04-06T16:47:18.999Z</time></trkpt><trkpt lat="42.874681688017404" lon="11.191858248704515"><ele>207.0</ele><time>2026-04-06T16:47:19.999Z</time></trkpt><trkpt lat="42.87467941486723" lon="11.191658482890634"><ele>205.33333333333331</ele><time>2026-04-06T16:47:20.999Z</time></trkpt><trkpt lat="42.87465199451598" lon="11.191438499183333"><ele>203.66666666666666</ele><time>2026-04-06T16:47:21.999Z</time></trkpt><trkpt lat="42.87461673419958" lon="11.191209510986036"><ele>202.0</ele><time>2026-04-06T16:47:22.999Z</time></trkpt><trkpt lat="42.874576344262024" lon="11.190960756059166"><ele>202.0</ele><time>2026-04-06T16:47:23.999Z</time></trkpt><trkpt lat="42.87453123917695" lon="11.190711379306174"><ele>202.0</ele><time>2026-04-06T16:47:24.999Z</time></trkpt><trkpt lat="42.874468108226054" lon="11.190467065070337"><ele>202.0</ele><time>2026-04-06T16:47:25.999Z</time></trkpt><trkpt lat="42.87440763848092" lon="11.190197118291739"><ele>200.66666666666666</ele><time>2026-04-06T16:47:26.999Z</time></trkpt><trkpt lat="42.87434163521954" lon="11.189929836978532"><ele>199.33333333333331</ele><time>2026-04-06T16:47:27.999Z</time></trkpt><trkpt lat="42.87426766166952" lon="11.189668334352588"><ele>198.0</ele><time>2026-04-06T16:47:28.999Z</time></trkpt><trkpt lat="42.8741922465755" lon="11.189393960478897"><ele>197.33333333333331</ele><time>2026-04-06T16:47:29.999Z</time></trkpt><trkpt lat="42.8741165200908" lon="11.189132360462294"><ele>196.66666666666666</ele><time>2026-04-06T16:47:30.999Z</time></trkpt><trkpt lat="42.87404353281703" lon="11.18888164910508"><ele>196.0</ele><time>2026-04-06T16:47:31.999Z</time></trkpt><trkpt lat="42.873974860636636" lon="11.188640642150746"><ele>196.0</ele><time>2026-04-06T16:47:32.999Z</time></trkpt><trkpt lat="42.87391735600714" lon="11.188404722135145"><ele>196.0</ele><time>2026-04-06T16:47:33.999Z</time></trkpt><trkpt lat="42.87387638101398" lon="11.188174804122479"><ele>196.0</ele><time>2026-04-06T16:47:34.999Z</time></trkpt><trkpt lat="42.8738594814698" lon="11.187946901105299"><ele>195.33333333333331</ele><time>2026-04-06T16:47:35.999Z</time></trkpt><trkpt lat="42.87386984929701" lon="11.187705720835575"><ele>194.66666666666669</ele><time>2026-04-06T16:47:36.999Z</time></trkpt><trkpt lat="42.87390509881404" lon="11.187472889169074"><ele>194.0</ele><time>2026-04-06T16:47:37.998Z</time></trkpt><trkpt lat="42.873942442891995" lon="11.187235740302759"><ele>193.33333333333334</ele><time>2026-04-06T16:47:38.998Z</time></trkpt><trkpt lat="42.87395253286782" lon="11.186990576304556"><ele>192.66666666666669</ele><time>2026-04-06T16:47:39.998Z</time></trkpt><trkpt lat="42.87393704742467" lon="11.186741242237925"><ele>192.0</ele><time>2026-04-06T16:47:40.998Z</time></trkpt><trkpt lat="42.873898155939926" lon="11.186492201194596"><ele>192.0</ele><time>2026-04-06T16:47:41.998Z</time></trkpt><trkpt lat="42.87383797836283" lon="11.186246121090715"><ele>192.0</ele><time>2026-04-06T16:47:42.998Z</time></trkpt><trkpt lat="42.87377394914416" lon="11.186008751300477"><ele>192.0</ele><time>2026-04-06T16:47:43.998Z</time></trkpt><trkpt lat="42.873713116757386" lon="11.185747476178646"><ele>193.0</ele><time>2026-04-06T16:47:44.998Z</time></trkpt><trkpt lat="42.873634933570386" lon="11.185499864004885"><ele>194.0</ele><time>2026-04-06T16:47:45.998Z</time></trkpt><trkpt lat="42.87356561297088" lon="11.185243056199482"><ele>195.0</ele><time>2026-04-06T16:47:46.998Z</time></trkpt><trkpt lat="42.87349483612338" lon="11.184991206348718"><ele>194.33333333333331</ele><time>2026-04-06T16:47:47.998Z</time></trkpt><trkpt lat="42.8734244461675" lon="11.184738511677274"><ele>193.66666666666666</ele><time>2026-04-06T16:47:48.998Z</time></trkpt><trkpt lat="42.87335194906257" lon="11.184493321975452"><ele>193.0</ele><time>2026-04-06T16:47:49.998Z</time></trkpt><trkpt lat="42.87328224847677" lon="11.184258645234987"><ele>193.0</ele><time>2026-04-06T16:47:50.998Z</time></trkpt><trkpt lat="42.873214350698454" lon="11.184023565488873"><ele>193.0</ele><time>2026-04-06T16:47:51.998Z</time></trkpt><trkpt lat="42.87316030851442" lon="11.183787530287283"><ele>193.0</ele><time>2026-04-06T16:47:52.998Z</time></trkpt><trkpt lat="42.87311315655281" lon="11.183557054505968"><ele>195.33333333333331</ele><time>2026-04-06T16:47:53.998Z</time></trkpt><trkpt lat="42.873079107424665" lon="11.183314758065187"><ele>197.66666666666669</ele><time>2026-04-06T16:47:54.998Z</time></trkpt><trkpt lat="42.87304653703252" lon="11.18307261097075"><ele>200.0</ele><time>2026-04-06T16:47:55.998Z</time></trkpt><trkpt lat="42.87301387019924" lon="11.182841746610928"><ele>200.66666666666669</ele><time>2026-04-06T16:47:56.998Z</time></trkpt><trkpt lat="42.87297271836214" lon="11.182608903998556"><ele>201.33333333333331</ele><time>2026-04-06T16:47:58Z</time></trkpt><trkpt lat="42.87292376820137" lon="11.18238447357118"><ele>202.0</ele><time>2026-04-06T16:47:59Z</time></trkpt><trkpt lat="42.87286183946507" lon="11.182164389615757"><ele>202.0</ele><time>2026-04-06T16:48:00Z</time></trkpt><trkpt lat="42.872783560836496" lon="11.181938577198151"><ele>202.0</ele><time>2026-04-06T16:48:01Z</time></trkpt><trkpt lat="42.87270123638966" lon="11.18170931450274"><ele>202.0</ele><time>2026-04-06T16:48:02Z</time></trkpt><trkpt lat="42.87261707152471" lon="11.18147784981521"><ele>200.33333333333331</ele><time>2026-04-06T16:48:03Z</time></trkpt><trkpt lat="42.87252799933175" lon="11.181234255302808"><ele>198.66666666666669</ele><time>2026-04-06T16:48:04Z</time></trkpt><trkpt lat="42.872434542730964" lon="11.18098815036371"><ele>197.0</ele><time>2026-04-06T16:48:05Z</time></trkpt><trkpt lat="42.87235008237375" lon="11.180756344390666"><ele>197.33333333333334</ele><time>2026-04-06T16:48:06Z</time></trkpt><trkpt lat="42.872258930015825" lon="11.180534238798664"><ele>197.66666666666669</ele><time>2026-04-06T16:48:07Z</time></trkpt><trkpt lat="42.872173358088084" lon="11.180334661244173"><ele>198.0</ele><time>2026-04-06T16:48:08Z</time></trkpt><trkpt lat="42.872101974235" lon="11.180137339370143"><ele>198.0</ele><time>2026-04-06T16:48:09Z</time></trkpt><trkpt lat="42.87206069088315" lon="11.179929723554691"><ele>198.0</ele><time>2026-04-06T16:48:10Z</time></trkpt><trkpt lat="42.87205732015956" lon="11.179733073690274"><ele>198.0</ele><time>2026-04-06T16:48:11Z</time></trkpt><trkpt lat="42.872093670555955" lon="11.179548999355818"><ele>198.0</ele><time>2026-04-06T16:48:12Z</time></trkpt><trkpt lat="42.87215620157028" lon="11.179371560552127"><ele>195.66666666666666</ele><time>2026-04-06T16:48:13Z</time></trkpt><trkpt lat="42.87224079556868" lon="11.17919003084843"><ele>193.33333333333331</ele><time>2026-04-06T16:48:14Z</time></trkpt><trkpt lat="42.87233178483439" lon="11.179025429348627"><ele>191.0</ele><time>2026-04-06T16:48:15Z</time></trkpt><trkpt lat="42.872456823979945" lon="11.178868154720652"><ele>188.33333333333331</ele><time>2026-04-06T16:48:16Z</time></trkpt><trkpt lat="42.872589265877174" lon="11.178721158828393"><ele>185.66666666666666</ele><time>2026-04-06T16:48:17Z</time></trkpt><trkpt lat="42.87272743708273" lon="11.178592045719896"><ele>183.0</ele><time>2026-04-06T16:48:18Z</time></trkpt><trkpt lat="42.87285523924643" lon="11.17847133644084"><ele>182.25</ele><time>2026-04-06T16:48:19Z</time></trkpt><trkpt lat="42.87298834798073" lon="11.178385890088341"><ele>181.5</ele><time>2026-04-06T16:48:20Z</time></trkpt><trkpt lat="42.87309901226444" lon="11.178292106609813"><ele>180.75</ele><time>2026-04-06T16:48:21Z</time></trkpt><trkpt lat="42.87317724082423" lon="11.178177431349326"><ele>180.0</ele><time>2026-04-06T16:48:22Z</time></trkpt><trkpt lat="42.873223054907385" lon="11.178013179254117"><ele>179.25</ele><time>2026-04-06T16:48:23Z</time></trkpt><trkpt lat="42.873229250447686" lon="11.177846118459067"><ele>178.5</ele><time>2026-04-06T16:48:24Z</time></trkpt><trkpt lat="42.873210624957366" lon="11.177708550067207"><ele>177.75</ele><time>2026-04-06T16:48:25Z</time></trkpt><trkpt lat="42.873150553688816" lon="11.177529665012623"><ele>177.0</ele><time>2026-04-06T16:48:26Z</time></trkpt><trkpt lat="42.87306084347965" lon="11.177366105000704"><ele>178.66666666666666</ele><time>2026-04-06T16:48:27Z</time></trkpt><trkpt lat="42.87293566640447" lon="11.177208464499673"><ele>180.33333333333331</ele><time>2026-04-06T16:48:28Z</time></trkpt><trkpt lat="42.87282201420383" lon="11.177006821267863"><ele>182.0</ele><time>2026-04-06T16:48:29Z</time></trkpt><trkpt lat="42.872706774382095" lon="11.176806789135616"><ele>179.33333333333331</ele><time>2026-04-06T16:48:30Z</time></trkpt><trkpt lat="42.872597464412735" lon="11.176597201737374"><ele>176.66666666666666</ele><time>2026-04-06T16:48:31Z</time></trkpt><trkpt lat="42.87248365479017" lon="11.17637155197493"><ele>174.0</ele><time>2026-04-06T16:48:32Z</time></trkpt><trkpt lat="42.872371067926" lon="11.176143183606966"><ele>174.0</ele><time>2026-04-06T16:48:33Z</time></trkpt><trkpt lat="42.87224705845369" lon="11.17591613083334"><ele>174.0</ele><time>2026-04-06T16:48:34Z</time></trkpt><trkpt lat="42.87212265770611" lon="11.175694902881691"><ele>174.0</ele><time>2026-04-06T16:48:35Z</time></trkpt><trkpt lat="42.87199462123816" lon="11.175469928366143"><ele>173.66666666666666</ele><time>2026-04-06T16:48:36Z</time></trkpt><trkpt lat="42.871869918391134" lon="11.175252266608982"><ele>173.33333333333331</ele><time>2026-04-06T16:48:37Z</time></trkpt><trkpt lat="42.87175238154819" lon="11.175046404740236"><ele>173.0</ele><time>2026-04-06T16:48:38Z</time></trkpt><trkpt lat="42.87163992773099" lon="11.174853225851749"><ele>173.0</ele><time>2026-04-06T16:48:39Z</time></trkpt><trkpt lat="42.871539579154735" lon="11.174663913327356"><ele>173.0</ele><time>2026-04-06T16:48:40Z</time></trkpt><trkpt lat="42.871444671642315" lon="11.174474058234424"><ele>173.0</ele><time>2026-04-06T16:48:41Z</time></trkpt><trkpt lat="42.87136255808869" lon="11.174281397263474"><ele>173.0</ele><time>2026-04-06T16:48:42Z</time></trkpt><trkpt lat="42.87130767635937" lon="11.174086293048925"><ele>173.0</ele><time>2026-04-06T16:48:43Z</time></trkpt><trkpt lat="42.87128418783314" lon="11.17387473409875"><ele>173.0</ele><time>2026-04-06T16:48:44Z</time></trkpt><trkpt lat="42.871284029640776" lon="11.173653171838946"><ele>172.66666666666666</ele><time>2026-04-06T16:48:45Z</time></trkpt><trkpt lat="42.87128786740231" lon="11.173429409896608"><ele>172.33333333333334</ele><time>2026-04-06T16:48:46Z</time></trkpt><trkpt lat="42.871284411398356" lon="11.173186370246084"><ele>172.0</ele><time>2026-04-06T16:48:47Z</time></trkpt><trkpt lat="42.87128262132928" lon="11.17295192100815"><ele>169.66666666666669</ele><time>2026-04-06T16:48:48Z</time></trkpt><trkpt lat="42.87130561872306" lon="11.172728884411923"><ele>167.33333333333334</ele><time>2026-04-06T16:48:49Z</time></trkpt><trkpt lat="42.871351417952695" lon="11.172515274098458"><ele>165.0</ele><time>2026-04-06T16:48:50Z</time></trkpt><trkpt lat="42.8713925900117" lon="11.172310476468423"><ele>163.25</ele><time>2026-04-06T16:48:50.999Z</time></trkpt><trkpt lat="42.87140565261387" lon="11.1721068564969"><ele>161.5</ele><time>2026-04-06T16:48:51.999Z</time></trkpt><trkpt lat="42.87140001071064" lon="11.171897840484327"><ele>159.75</ele><time>2026-04-06T16:48:52.999Z</time></trkpt><trkpt lat="42.87137979261544" lon="11.171713111256508"><ele>158.0</ele><time>2026-04-06T16:48:53.999Z</time></trkpt><trkpt lat="42.87134038644837" lon="11.171516728230452"><ele>155.75</ele><time>2026-04-06T16:48:54.999Z</time></trkpt><trkpt lat="42.87128260284048" lon="11.171331483500598"><ele>153.5</ele><time>2026-04-06T16:48:55.999Z</time></trkpt><trkpt lat="42.87121346523084" lon="11.171156522169424"><ele>151.25</ele><time>2026-04-06T16:48:56.999Z</time></trkpt><trkpt lat="42.871125079144406" lon="11.17098541369178"><ele>149.0</ele><time>2026-04-06T16:48:57.999Z</time></trkpt><trkpt lat="42.87100390220056" lon="11.170821204064415"><ele>148.33333333333331</ele><time>2026-04-06T16:48:58.999Z</time></trkpt><trkpt lat="42.870871644186224" lon="11.170660223469092"><ele>147.66666666666666</ele><time>2026-04-06T16:48:59.999Z</time></trkpt><trkpt lat="42.87073159683661" lon="11.170494982112707"><ele>147.0</ele><time>2026-04-06T16:49:00.999Z</time></trkpt><trkpt lat="42.87059888666578" lon="11.170324811379606"><ele>147.0</ele><time>2026-04-06T16:49:01.999Z</time></trkpt><trkpt lat="42.8704659526633" lon="11.170154430935492"><ele>147.0</ele><time>2026-04-06T16:49:02.999Z</time></trkpt><trkpt lat="42.8703302361996" lon="11.16998334093973"><ele>147.0</ele><time>2026-04-06T16:49:03.999Z</time></trkpt><trkpt lat="42.8701980225059" lon="11.169812231819758"><ele>145.66666666666666</ele><time>2026-04-06T16:49:04.999Z</time></trkpt><trkpt lat="42.87006219808126" lon="11.169652830582255"><ele>144.33333333333331</ele><time>2026-04-06T16:49:05.999Z</time></trkpt><trkpt lat="42.86992781553841" lon="11.169494770274166"><ele>143.0</ele><time>2026-04-06T16:49:06.999Z</time></trkpt><trkpt lat="42.869796777859335" lon="11.169334491114796"><ele>143.0</ele><time>2026-04-06T16:49:07.999Z</time></trkpt><trkpt lat="42.86968208544492" lon="11.16916430319547"><ele>143.0</ele><time>2026-04-06T16:49:08.999Z</time></trkpt><trkpt lat="42.869574402101314" lon="11.16900254967469"><ele>143.0</ele><time>2026-04-06T16:49:09.999Z</time></trkpt><trkpt lat="42.869477758105255" lon="11.168841499584"><ele>140.75</ele><time>2026-04-06T16:49:10.999Z</time></trkpt><trkpt lat="42.869418150684155" lon="11.168662372886587"><ele>138.5</ele><time>2026-04-06T16:49:11.999Z</time></trkpt><trkpt lat="42.869373450493654" lon="11.168480915722217"><ele>136.25</ele><time>2026-04-06T16:49:12.999Z</time></trkpt><trkpt lat="42.86934776847894" lon="11.168295674917573"><ele>134.0</ele><time>2026-04-06T16:49:13.999Z</time></trkpt><trkpt lat="42.86931742449262" lon="11.16811656203644"><ele>133.25</ele><time>2026-04-06T16:49:14.999Z</time></trkpt><trkpt lat="42.8692909187952" lon="11.16794063241863"><ele>132.5</ele><time>2026-04-06T16:49:15.999Z</time></trkpt><trkpt lat="42.86927210976439" lon="11.167783098637855"><ele>131.75</ele><time>2026-04-06T16:49:16.999Z</time></trkpt><trkpt lat="42.86924879798685" lon="11.167627270394151"><ele>131.0</ele><time>2026-04-06T16:49:17.999Z</time></trkpt><trkpt lat="42.86922620377989" lon="11.16747641249578"><ele>132.0</ele><time>2026-04-06T16:49:18.999Z</time></trkpt><trkpt lat="42.86919508365545" lon="11.16732000314903"><ele>133.0</ele><time>2026-04-06T16:49:19.999Z</time></trkpt><trkpt lat="42.869150476680666" lon="11.167162830560146"><ele>134.0</ele><time>2026-04-06T16:49:20.999Z</time></trkpt><trkpt lat="42.8690906462046" lon="11.16700682162335"><ele>135.0</ele><time>2026-04-06T16:49:21.999Z</time></trkpt><trkpt lat="42.86902968584113" lon="11.166830435778598"><ele>135.0</ele><time>2026-04-06T16:49:22.999Z</time></trkpt><trkpt lat="42.86896141739645" lon="11.16665539800812"><ele>135.0</ele><time>2026-04-06T16:49:23.999Z</time></trkpt><trkpt lat="42.868886709292575" lon="11.166487638957587"><ele>135.0</ele><time>2026-04-06T16:49:24.999Z</time></trkpt><trkpt lat="42.868796036297404" lon="11.166350404980516"><ele>135.0</ele><time>2026-04-06T16:49:25.999Z</time></trkpt><trkpt lat="42.86869249767957" lon="11.166227516955047"><ele>136.25</ele><time>2026-04-06T16:49:26.999Z</time></trkpt><trkpt lat="42.86860168967874" lon="11.166090963743713"><ele>137.5</ele><time>2026-04-06T16:49:27.999Z</time></trkpt><trkpt lat="42.86851666626917" lon="11.16595488923238"><ele>138.75</ele><time>2026-04-06T16:49:28.999Z</time></trkpt><trkpt lat="42.86842736438646" lon="11.16582784504341"><ele>140.0</ele><time>2026-04-06T16:49:29.999Z</time></trkpt><trkpt lat="42.86833265135923" lon="11.16568932153387"><ele>134.33333333333331</ele><time>2026-04-06T16:49:30.999Z</time></trkpt><trkpt lat="42.8682249255216" lon="11.165550606633134"><ele>128.66666666666666</ele><time>2026-04-06T16:49:31.999Z</time></trkpt><trkpt lat="42.86811997290544" lon="11.165403672032772"><ele>123.0</ele><time>2026-04-06T16:49:32.999Z</time></trkpt><trkpt lat="42.868010609396705" lon="11.165241602376542"><ele>123.0</ele><time>2026-04-06T16:49:33.999Z</time></trkpt><trkpt lat="42.8678968312775" lon="11.165100034956428"><ele>123.0</ele><time>2026-04-06T16:49:34.999Z</time></trkpt><trkpt lat="42.86777822999466" lon="11.164989594679747"><ele>123.0</ele><time>2026-04-06T16:49:35.999Z</time></trkpt><trkpt lat="42.867656868558015" lon="11.164856979475005"><ele>123.0</ele><time>2026-04-06T16:49:36.999Z</time></trkpt><trkpt lat="42.867545966755436" lon="11.164739679302947"><ele>123.0</ele><time>2026-04-06T16:49:37.999Z</time></trkpt><trkpt lat="42.86743049354785" lon="11.164638984570166"><ele>123.0</ele><time>2026-04-06T16:49:38.999Z</time></trkpt><trkpt lat="42.867298187441826" lon="11.164546591384333"><ele>123.0</ele><time>2026-04-06T16:49:39.999Z</time></trkpt><trkpt lat="42.867163696281494" lon="11.164470735753975"><ele>123.0</ele><time>2026-04-06T16:49:40.999Z</time></trkpt><trkpt lat="42.86701944147707" lon="11.164411816916456"><ele>123.0</ele><time>2026-04-06T16:49:41.999Z</time></trkpt><trkpt lat="42.86688907967136" lon="11.164357534749561"><ele>123.0</ele><time>2026-04-06T16:49:42.999Z</time></trkpt><trkpt lat="42.86674836729468" lon="11.164361953740865"><ele>123.0</ele><time>2026-04-06T16:49:43.999Z</time></trkpt><trkpt lat="42.86659668583157" lon="11.164378143675407"><ele>122.0</ele><time>2026-04-06T16:49:44.999Z</time></trkpt><trkpt lat="42.86644930758674" lon="11.164417055596108"><ele>121.0</ele><time>2026-04-06T16:49:45.999Z</time></trkpt><trkpt lat="42.86630798363276" lon="11.164481791564913"><ele>120.0</ele><time>2026-04-06T16:49:46.998Z</time></trkpt><trkpt lat="42.866169699801155" lon="11.164556572586521"><ele>119.0</ele><time>2026-04-06T16:49:47.998Z</time></trkpt><trkpt lat="42.866035165629704" lon="11.164645894815479"><ele>117.33333333333333</ele><time>2026-04-06T16:49:48.998Z</time></trkpt><trkpt lat="42.86589852402185" lon="11.164764464761637"><ele>115.66666666666666</ele><time>2026-04-06T16:49:49.998Z</time></trkpt><trkpt lat="42.86575586381974" lon="11.16487149649729"><ele>114.0</ele><time>2026-04-06T16:49:50.998Z</time></trkpt><trkpt lat="42.865614185957746" lon="11.16497082091217"><ele>117.66666666666666</ele><time>2026-04-06T16:49:51.998Z</time></trkpt><trkpt lat="42.86544548583362" lon="11.16503892972028"><ele>121.33333333333333</ele><time>2026-04-06T16:49:52.998Z</time></trkpt><trkpt lat="42.8652802930957" lon="11.165088554008687"><ele>125.0</ele><time>2026-04-06T16:49:53.998Z</time></trkpt><trkpt lat="42.86511312860409" lon="11.1651056657365"><ele>121.33333333333333</ele><time>2026-04-06T16:49:54.998Z</time></trkpt><trkpt lat="42.864939682076574" lon="11.165096503508773"><ele>117.66666666666666</ele><time>2026-04-06T16:49:55.998Z</time></trkpt><trkpt lat="42.86477121116857" lon="11.165079501565653"><ele>114.0</ele><time>2026-04-06T16:49:56.998Z</time></trkpt><trkpt lat="42.86459683684048" lon="11.165059556254876"><ele>114.0</ele><time>2026-04-06T16:49:57.998Z</time></trkpt><trkpt lat="42.86441909618948" lon="11.165051370137972"><ele>114.0</ele><time>2026-04-06T16:49:58.998Z</time></trkpt><trkpt lat="42.86424199241797" lon="11.16502841167744"><ele>114.0</ele><time>2026-04-06T16:49:59.998Z</time></trkpt><trkpt lat="42.86405696803668" lon="11.165012619489026"><ele>112.33333333333334</ele><time>2026-04-06T16:50:00.998Z</time></trkpt><trkpt lat="42.86386500709064" lon="11.165002583184457"><ele>110.66666666666667</ele><time>2026-04-06T16:50:01.998Z</time></trkpt><trkpt lat="42.86366590999789" lon="11.164990975778496"><ele>109.0</ele><time>2026-04-06T16:50:02.998Z</time></trkpt><trkpt lat="42.86347637194708" lon="11.164973451864148"><ele>108.66666666666667</ele><time>2026-04-06T16:50:04Z</time></trkpt><trkpt lat="42.863287928763924" lon="11.164950715164927"><ele>108.33333333333334</ele><time>2026-04-06T16:50:05Z</time></trkpt><trkpt lat="42.86311010530111" lon="11.164927652387545"><ele>108.0</ele><time>2026-04-06T16:50:06Z</time></trkpt><trkpt lat="42.862928973315064" lon="11.164898162941528"><ele>108.0</ele><time>2026-04-06T16:50:07Z</time></trkpt><trkpt lat="42.86274872568547" lon="11.16486287019421"><ele>108.0</ele><time>2026-04-06T16:50:08Z</time></trkpt><trkpt lat="42.862572084701505" lon="11.164818807658511"><ele>108.0</ele><time>2026-04-06T16:50:09Z</time></trkpt><trkpt lat="42.862390413041766" lon="11.164755083930485"><ele>106.0</ele><time>2026-04-06T16:50:10Z</time></trkpt><trkpt lat="42.862203838681715" lon="11.164681794838435"><ele>104.0</ele><time>2026-04-06T16:50:11Z</time></trkpt><trkpt lat="42.862017997198514" lon="11.16459292328358"><ele>102.0</ele><time>2026-04-06T16:50:12Z</time></trkpt><trkpt lat="42.861830536714336" lon="11.164489036036253"><ele>102.66666666666666</ele><time>2026-04-06T16:50:13Z</time></trkpt><trkpt lat="42.86163676392309" lon="11.16439510424122"><ele>103.33333333333333</ele><time>2026-04-06T16:50:14Z</time></trkpt><trkpt lat="42.86143573225245" lon="11.164296698634178"><ele>104.0</ele><time>2026-04-06T16:50:15Z</time></trkpt><trkpt lat="42.8612301048288" lon="11.164198794397478"><ele>104.0</ele><time>2026-04-06T16:50:16Z</time></trkpt><trkpt lat="42.86102853396902" lon="11.164098650563462"><ele>104.0</ele><time>2026-04-06T16:50:17Z</time></trkpt><trkpt lat="42.86082798336631" lon="11.1640019633267"><ele>104.0</ele><time>2026-04-06T16:50:18Z</time></trkpt><trkpt lat="42.86062563972311" lon="11.163900635634944"><ele>102.66666666666666</ele><time>2026-04-06T16:50:19Z</time></trkpt><trkpt lat="42.86041889094983" lon="11.163800895457795"><ele>101.33333333333334</ele><time>2026-04-06T16:50:20Z</time></trkpt><trkpt lat="42.860203174338196" lon="11.163695262724504"><ele>100.0</ele><time>2026-04-06T16:50:21Z</time></trkpt><trkpt lat="42.85999208637897" lon="11.163585294653089"><ele>99.5</ele><time>2026-04-06T16:50:22Z</time></trkpt><trkpt lat="42.85977664125693" lon="11.163473694118428"><ele>99.0</ele><time>2026-04-06T16:50:23Z</time></trkpt><trkpt lat="42.85956133613451" lon="11.163372732675242"><ele>99.0</ele><time>2026-04-06T16:50:24Z</time></trkpt><trkpt lat="42.859344953609245" lon="11.16326632129122"><ele>99.0</ele><time>2026-04-06T16:50:25Z</time></trkpt><trkpt lat="42.85912670163209" lon="11.16316128101308"><ele>95.5</ele><time>2026-04-06T16:50:26Z</time></trkpt><trkpt lat="42.858907406843045" lon="11.163054106291279"><ele>92.0</ele><time>2026-04-06T16:50:27Z</time></trkpt><trkpt lat="42.85868761643072" lon="11.162943696743433"><ele>92.0</ele><time>2026-04-06T16:50:28Z</time></trkpt><trkpt lat="42.858467656580515" lon="11.16283239397243"><ele>92.0</ele><time>2026-04-06T16:50:29Z</time></trkpt><trkpt lat="42.85824666235385" lon="11.162723374180903"><ele>91.0</ele><time>2026-04-06T16:50:30Z</time></trkpt><trkpt lat="42.858024427787136" lon="11.16261172238924"><ele>90.0</ele><time>2026-04-06T16:50:31Z</time></trkpt><trkpt lat="42.85780227369195" lon="11.162500574057967"><ele>88.0</ele><time>2026-04-06T16:50:32Z</time></trkpt><trkpt lat="42.85757964254205" lon="11.162389356406806"><ele>86.0</ele><time>2026-04-06T16:50:33Z</time></trkpt><trkpt lat="42.85735578208618" lon="11.162277340121614"><ele>85.5</ele><time>2026-04-06T16:50:34Z</time></trkpt><trkpt lat="42.85712878942666" lon="11.162162088068149"><ele>85.0</ele><time>2026-04-06T16:50:35Z</time></trkpt><trkpt lat="42.856901788646304" lon="11.162049304794195"><ele>84.0</ele><time>2026-04-06T16:50:36Z</time></trkpt><trkpt lat="42.85667375747572" lon="11.161941538219839"><ele>83.0</ele><time>2026-04-06T16:50:37Z</time></trkpt><trkpt lat="42.85643960649929" lon="11.161847218498748"><ele>83.0</ele><time>2026-04-06T16:50:38Z</time></trkpt><trkpt lat="42.856198158283114" lon="11.16177759053982"><ele>83.0</ele><time>2026-04-06T16:50:39Z</time></trkpt><trkpt lat="42.855951213610524" lon="11.161731898093054"><ele>82.5</ele><time>2026-04-06T16:50:40Z</time></trkpt><trkpt lat="42.85569987177468" lon="11.1616956881275"><ele>82.0</ele><time>2026-04-06T16:50:41Z</time></trkpt><trkpt lat="42.85544733296131" lon="11.16165882112995"><ele>82.0</ele><time>2026-04-06T16:50:42Z</time></trkpt><trkpt lat="42.85519564216961" lon="11.161617465305017"><ele>82.0</ele><time>2026-04-06T16:50:43Z</time></trkpt><trkpt lat="42.854950160714615" lon="11.161574822452417"><ele>82.0</ele><time>2026-04-06T16:50:44Z</time></trkpt><trkpt lat="42.85470675203825" lon="11.161528609351533"><ele>82.0</ele><time>2026-04-06T16:50:45Z</time></trkpt><trkpt lat="42.85446612096859" lon="11.161481469346999"><ele>81.0</ele><time>2026-04-06T16:50:46Z</time></trkpt><trkpt lat="42.854228714416024" lon="11.16143145362833"><ele>80.0</ele><time>2026-04-06T16:50:47Z</time></trkpt><trkpt lat="42.8539982019416" lon="11.161372973514997"><ele>80.0</ele><time>2026-04-06T16:50:48Z</time></trkpt><trkpt lat="42.85377361492099" lon="11.161288806332267"><ele>80.0</ele><time>2026-04-06T16:50:49Z</time></trkpt><trkpt lat="42.853553574138665" lon="11.161169116720322"><ele>79.0</ele><time>2026-04-06T16:50:50Z</time></trkpt><trkpt lat="42.8533389145434" lon="11.16102489678677"><ele>78.0</ele><time>2026-04-06T16:50:51Z</time></trkpt><trkpt lat="42.85313217564518" lon="11.160865008489521"><ele>78.0</ele><time>2026-04-06T16:50:52Z</time></trkpt><trkpt lat="42.85293754510173" lon="11.160694401524806"><ele>78.0</ele><time>2026-04-06T16:50:53Z</time></trkpt><trkpt lat="42.852746996652165" lon="11.160516388254631"><ele>76.5</ele><time>2026-04-06T16:50:54Z</time></trkpt><trkpt lat="42.85255522633322" lon="11.160327620319233"><ele>75.0</ele><time>2026-04-06T16:50:55Z</time></trkpt><trkpt lat="42.852364835651116" lon="11.16013561719445"><ele>75.0</ele><time>2026-04-06T16:50:56Z</time></trkpt><trkpt lat="42.85217629227168" lon="11.159942011570887"><ele>75.0</ele><time>2026-04-06T16:50:57Z</time></trkpt><trkpt lat="42.8519895039325" lon="11.159746902541483"><ele>74.5</ele><time>2026-04-06T16:50:58Z</time></trkpt><trkpt lat="42.85180263772469" lon="11.159549354152176"><ele>74.0</ele><time>2026-04-06T16:50:58.999Z</time></trkpt><trkpt lat="42.851616331925705" lon="11.159351895180556"><ele>74.0</ele><time>2026-04-06T16:50:59.999Z</time></trkpt><trkpt lat="42.85142865266413" lon="11.159156644240648"><ele>74.0</ele><time>2026-04-06T16:51:00.999Z</time></trkpt><trkpt lat="42.85123932972743" lon="11.158961856444394"><ele>74.0</ele><time>2026-04-06T16:51:01.999Z</time></trkpt><trkpt lat="42.85105034179377" lon="11.158764715839233"><ele>74.0</ele><time>2026-04-06T16:51:02.999Z</time></trkpt><trkpt lat="42.85086538404098" lon="11.158569548768872"><ele>72.5</ele><time>2026-04-06T16:51:03.999Z</time></trkpt><trkpt lat="42.85068088400227" lon="11.158374389381677"><ele>71.0</ele><time>2026-04-06T16:51:04.999Z</time></trkpt><trkpt lat="42.850494201206594" lon="11.15818384196941"><ele>71.0</ele><time>2026-04-06T16:51:05.999Z</time></trkpt><trkpt lat="42.85030579141502" lon="11.157995767215846"><ele>71.0</ele><time>2026-04-06T16:51:06.999Z</time></trkpt><trkpt lat="42.85011064583737" lon="11.157837883594299"><ele>69.0</ele><time>2026-04-06T16:51:07.999Z</time></trkpt><trkpt lat="42.84989422354713" lon="11.157723556777029"><ele>67.0</ele><time>2026-04-06T16:51:08.999Z</time></trkpt><trkpt lat="42.849658289321404" lon="11.157639534142703"><ele>67.0</ele><time>2026-04-06T16:51:09.999Z</time></trkpt><trkpt lat="42.849413545823836" lon="11.157578279498576"><ele>67.0</ele><time>2026-04-06T16:51:10.999Z</time></trkpt><trkpt lat="42.849163532767776" lon="11.157526449801782"><ele>65.5</ele><time>2026-04-06T16:51:11.999Z</time></trkpt><trkpt lat="42.84891411656402" lon="11.157462284716544"><ele>64.0</ele><time>2026-04-06T16:51:12.999Z</time></trkpt><trkpt lat="42.84866701081671" lon="11.157367726138872"><ele>63.0</ele><time>2026-04-06T16:51:13.999Z</time></trkpt><trkpt lat="42.84842454142983" lon="11.157249345434037"><ele>62.0</ele><time>2026-04-06T16:51:14.999Z</time></trkpt><trkpt lat="42.84819028214102" lon="11.15712073223014"><ele>62.0</ele><time>2026-04-06T16:51:15.999Z</time></trkpt><trkpt lat="42.84795553749784" lon="11.156986479754877"><ele>62.0</ele><time>2026-04-06T16:51:16.999Z</time></trkpt><trkpt lat="42.84772064732258" lon="11.156840600901761"><ele>60.5</ele><time>2026-04-06T16:51:17.999Z</time></trkpt><trkpt lat="42.84748401412148" lon="11.156690148822415"><ele>59.0</ele><time>2026-04-06T16:51:18.999Z</time></trkpt><trkpt lat="42.847244311435155" lon="11.156534231301611"><ele>59.0</ele><time>2026-04-06T16:51:19.999Z</time></trkpt><trkpt lat="42.84700527197203" lon="11.156382194842063"><ele>59.0</ele><time>2026-04-06T16:51:20.999Z</time></trkpt><trkpt lat="42.846765780972504" lon="11.15622792135665"><ele>58.0</ele><time>2026-04-06T16:51:21.999Z</time></trkpt><trkpt lat="42.84652728841277" lon="11.156074890182415"><ele>57.0</ele><time>2026-04-06T16:51:22.999Z</time></trkpt><trkpt lat="42.846286252765054" lon="11.155923998604829"><ele>57.0</ele><time>2026-04-06T16:51:23.999Z</time></trkpt><trkpt lat="42.84604425966206" lon="11.155773905361594"><ele>57.0</ele><time>2026-04-06T16:51:24.999Z</time></trkpt><trkpt lat="42.845803833624345" lon="11.155623283501525"><ele>56.5</ele><time>2026-04-06T16:51:25.999Z</time></trkpt><trkpt lat="42.845566043412454" lon="11.15547055575848"><ele>56.0</ele><time>2026-04-06T16:51:26.999Z</time></trkpt><trkpt lat="42.84532716415107" lon="11.155319122741384"><ele>56.0</ele><time>2026-04-06T16:51:27.999Z</time></trkpt><trkpt lat="42.84509064120755" lon="11.155166972446256"><ele>56.0</ele><time>2026-04-06T16:51:28.999Z</time></trkpt><trkpt lat="42.8448553079561" lon="11.155015026905925"><ele>56.0</ele><time>2026-04-06T16:51:29.999Z</time></trkpt><trkpt lat="42.84461995503372" lon="11.154866169986292"><ele>56.0</ele><time>2026-04-06T16:51:30.999Z</time></trkpt><trkpt lat="42.84438361282265" lon="11.154717561302842"><ele>56.0</ele><time>2026-04-06T16:51:31.999Z</time></trkpt><trkpt lat="42.84414219255766" lon="11.154566079568376"><ele>56.0</ele><time>2026-04-06T16:51:32.999Z</time></trkpt><trkpt lat="42.84390093951189" lon="11.15441251920334"><ele>56.0</ele><time>2026-04-06T16:51:33.999Z</time></trkpt><trkpt lat="42.84366072977485" lon="11.15425979772032"><ele>56.0</ele><time>2026-04-06T16:51:34.999Z</time></trkpt><trkpt lat="42.84341883962787" lon="11.15410299851397"><ele>55.5</ele><time>2026-04-06T16:51:35.999Z</time></trkpt><trkpt lat="42.84317724872679" lon="11.15394444756216"><ele>55.0</ele><time>2026-04-06T16:51:36.999Z</time></trkpt><trkpt lat="42.842933945504626" lon="11.153787801525095"><ele>55.0</ele><time>2026-04-06T16:51:37.999Z</time></trkpt><trkpt lat="42.842686987069065" lon="11.153631593562444"><ele>55.0</ele><time>2026-04-06T16:51:38.999Z</time></trkpt><trkpt lat="42.84244047090287" lon="11.153475423622869"><ele>54.0</ele><time>2026-04-06T16:51:39.999Z</time></trkpt><trkpt lat="42.842195025227014" lon="11.153313603395477"><ele>53.0</ele><time>2026-04-06T16:51:40.999Z</time></trkpt><trkpt lat="42.84194891673003" lon="11.153150358046451"><ele>54.0</ele><time>2026-04-06T16:51:41.999Z</time></trkpt><trkpt lat="42.84170261453002" lon="11.152985019587799"><ele>55.0</ele><time>2026-04-06T16:51:42.999Z</time></trkpt><trkpt lat="42.841456050648056" lon="11.152813696578036"><ele>55.0</ele><time>2026-04-06T16:51:43.999Z</time></trkpt><trkpt lat="42.841211161273264" lon="11.152636337730275"><ele>55.0</ele><time>2026-04-06T16:51:44.999Z</time></trkpt><trkpt lat="42.84097092837691" lon="11.152452896840463"><ele>55.0</ele><time>2026-04-06T16:51:45.999Z</time></trkpt><trkpt lat="42.84073434964378" lon="11.152258123403055"><ele>55.0</ele><time>2026-04-06T16:51:46.999Z</time></trkpt><trkpt lat="42.840501834629094" lon="11.152056314230856"><ele>55.0</ele><time>2026-04-06T16:51:47.999Z</time></trkpt><trkpt lat="42.84027319361084" lon="11.151853841460145"><ele>55.0</ele><time>2026-04-06T16:51:48.999Z</time></trkpt><trkpt lat="42.84004545898827" lon="11.151654561941253"><ele>59.0</ele><time>2026-04-06T16:51:49.999Z</time></trkpt><trkpt lat="42.83982078415585" lon="11.15145824854831"><ele>63.0</ele><time>2026-04-06T16:51:50.999Z</time></trkpt><trkpt lat="42.839596899322615" lon="11.151264485287458"><ele>63.0</ele><time>2026-04-06T16:51:51.999Z</time></trkpt><trkpt lat="42.83937468206431" lon="11.151073715683623"><ele>63.0</ele><time>2026-04-06T16:51:52.999Z</time></trkpt><trkpt lat="42.83915481214466" lon="11.15088458706983"><ele>62.5</ele><time>2026-04-06T16:51:53.998Z</time></trkpt><trkpt lat="42.8389374091606" lon="11.15069945916028"><ele>62.0</ele><time>2026-04-06T16:51:54.998Z</time></trkpt><trkpt lat="42.838720815548314" lon="11.150514910091513"><ele>62.0</ele><time>2026-04-06T16:51:55.999Z</time></trkpt><trkpt lat="42.838507758803445" lon="11.150328474149038"><ele>62.0</ele><time>2026-04-06T16:51:56.998Z</time></trkpt><trkpt lat="42.83829515552389" lon="11.150139397437632"><ele>57.0</ele><time>2026-04-06T16:51:57.998Z</time></trkpt><trkpt lat="42.83808783791639" lon="11.14994136335965"><ele>52.0</ele><time>2026-04-06T16:51:58.998Z</time></trkpt><trkpt lat="42.83789354254428" lon="11.14974101275555"><ele>52.0</ele><time>2026-04-06T16:51:59.998Z</time></trkpt><trkpt lat="42.83770933002515" lon="11.14954025180704"><ele>52.0</ele><time>2026-04-06T16:52:00.998Z</time></trkpt><trkpt lat="42.83754063506366" lon="11.149341180474426"><ele>50.666666666666664</ele><time>2026-04-06T16:52:01.998Z</time></trkpt><trkpt lat="42.83739163478045" lon="11.14914567325297"><ele>49.33333333333333</ele><time>2026-04-06T16:52:02.998Z</time></trkpt><trkpt lat="42.837254701059926" lon="11.148964153579849"><ele>48.0</ele><time>2026-04-06T16:52:03.998Z</time></trkpt><trkpt lat="42.837132529285526" lon="11.148787103782876"><ele>47.333333333333336</ele><time>2026-04-06T16:52:04.998Z</time></trkpt><trkpt lat="42.83703166833288" lon="11.148607991369223"><ele>46.66666666666667</ele><time>2026-04-06T16:52:05.998Z</time></trkpt><trkpt lat="42.836957605617286" lon="11.148422266017622"><ele>46.0</ele><time>2026-04-06T16:52:06.998Z</time></trkpt><trkpt lat="42.836914790435614" lon="11.14824794539096"><ele>46.599999999999994</ele><time>2026-04-06T16:52:07.998Z</time></trkpt><trkpt lat="42.836885009303494" lon="11.148095346155378"><ele>47.2</ele><time>2026-04-06T16:52:09Z</time></trkpt><trkpt lat="42.836856611103755" lon="11.147969714967456"><ele>47.8</ele><time>2026-04-06T16:52:10Z</time></trkpt><trkpt lat="42.83682584672079" lon="11.1478707814603"><ele>48.400000000000006</ele><time>2026-04-06T16:52:11Z</time></trkpt><trkpt lat="42.83678848814912" lon="11.147739965642014"><ele>49.0</ele><time>2026-04-06T16:52:13Z</time></trkpt><trkpt lat="42.836605041691314" lon="11.147717329605014"><ele>48.99999999999999</ele><time>2026-04-06T16:52:15Z</time></trkpt><trkpt lat="42.83652422968921" lon="11.14774830743067"><ele>49.0</ele><time>2026-04-06T16:52:16Z</time></trkpt><trkpt lat="42.83643023229895" lon="11.147792839786037"><ele>49.0</ele><time>2026-04-06T16:52:17Z</time></trkpt><trkpt lat="42.83635999518862" lon="11.147853204959562"><ele>49.0</ele><time>2026-04-06T16:52:18Z</time></trkpt><trkpt lat="42.83629499429763" lon="11.147929460184505"><ele>48.99999999999999</ele><time>2026-04-06T16:52:19Z</time></trkpt><trkpt lat="42.836245753716106" lon="11.147997587884246"><ele>49.0</ele><time>2026-04-06T16:52:20Z</time></trkpt><trkpt lat="42.83615869363962" lon="11.148102066885453"><ele>49.0</ele><time>2026-04-06T16:52:22Z</time></trkpt><trkpt lat="42.83602855399242" lon="11.14812376096274"><ele>49.0</ele><time>2026-04-06T16:52:24Z</time></trkpt><trkpt lat="42.83596490834594" lon="11.148040880818892"><ele>49.0</ele><time>2026-04-06T16:52:25Z</time></trkpt><trkpt lat="42.83587374821852" lon="11.147943050428616"><ele>49.0</ele><time>2026-04-06T16:52:26Z</time></trkpt><trkpt lat="42.8357838512472" lon="11.147898273045003"><ele>49.0</ele><time>2026-04-06T16:52:27Z</time></trkpt><trkpt lat="42.83568989939083" lon="11.14778023533272"><ele>48.33333333333333</ele><time>2026-04-06T16:52:28Z</time></trkpt><trkpt lat="42.83558099648831" lon="11.147624553015842"><ele>47.666666666666664</ele><time>2026-04-06T16:52:29Z</time></trkpt><trkpt lat="42.83546347665875" lon="11.147480028706726"><ele>47.0</ele><time>2026-04-06T16:52:30Z</time></trkpt><trkpt lat="42.83534094250208" lon="11.147334134902712"><ele>46.0</ele><time>2026-04-06T16:52:31Z</time></trkpt><trkpt lat="42.83521765270524" lon="11.147186141041308"><ele>45.0</ele><time>2026-04-06T16:52:32Z</time></trkpt><trkpt lat="42.83507963380794" lon="11.147031317845855"><ele>44.0</ele><time>2026-04-06T16:52:33Z</time></trkpt><trkpt lat="42.83493624882421" lon="11.146854183435286"><ele>44.0</ele><time>2026-04-06T16:52:34Z</time></trkpt><trkpt lat="42.83479622061836" lon="11.146677597483588"><ele>44.0</ele><time>2026-04-06T16:52:35Z</time></trkpt><trkpt lat="42.83464817135138" lon="11.146494793710552"><ele>44.0</ele><time>2026-04-06T16:52:36Z</time></trkpt><trkpt lat="42.83449386559436" lon="11.146308946597484"><ele>44.0</ele><time>2026-04-06T16:52:37Z</time></trkpt><trkpt lat="42.834334433848504" lon="11.146114491052861"><ele>44.0</ele><time>2026-04-06T16:52:38Z</time></trkpt><trkpt lat="42.83417664379334" lon="11.145918235626299"><ele>44.0</ele><time>2026-04-06T16:52:39Z</time></trkpt><trkpt lat="42.834017001274795" lon="11.145722803612376"><ele>45.0</ele><time>2026-04-06T16:52:40Z</time></trkpt><trkpt lat="42.83385935695484" lon="11.145531053957086"><ele>46.0</ele><time>2026-04-06T16:52:41Z</time></trkpt><trkpt lat="42.83369961729296" lon="11.145332216448411"><ele>47.0</ele><time>2026-04-06T16:52:42Z</time></trkpt><trkpt lat="42.83353860586027" lon="11.145130351272943"><ele>47.33333333333333</ele><time>2026-04-06T16:52:43Z</time></trkpt><trkpt lat="42.833374998137174" lon="11.144925385190303"><ele>47.666666666666664</ele><time>2026-04-06T16:52:44Z</time></trkpt><trkpt lat="42.83320503152916" lon="11.144721008418152"><ele>48.0</ele><time>2026-04-06T16:52:45Z</time></trkpt><trkpt lat="42.83303356571092" lon="11.144515378241834"><ele>48.0</ele><time>2026-04-06T16:52:46Z</time></trkpt><trkpt lat="42.83286292336374" lon="11.14430858040676"><ele>48.0</ele><time>2026-04-06T16:52:47Z</time></trkpt><trkpt lat="42.83268960635725" lon="11.14409916420077"><ele>46.0</ele><time>2026-04-06T16:52:48Z</time></trkpt><trkpt lat="42.83251905935888" lon="11.143894309744672"><ele>44.0</ele><time>2026-04-06T16:52:49Z</time></trkpt><trkpt lat="42.83234958825599" lon="11.143691016910811"><ele>44.0</ele><time>2026-04-06T16:52:50Z</time></trkpt><trkpt lat="42.8321822935332" lon="11.143489767105967"><ele>44.0</ele><time>2026-04-06T16:52:51Z</time></trkpt><trkpt lat="42.83201094485657" lon="11.143289933988498"><ele>44.0</ele><time>2026-04-06T16:52:52Z</time></trkpt><trkpt lat="42.83183685700705" lon="11.143093156963966"><ele>42.0</ele><time>2026-04-06T16:52:53Z</time></trkpt><trkpt lat="42.831660991233754" lon="11.142896671034276"><ele>40.0</ele><time>2026-04-06T16:52:54Z</time></trkpt><trkpt lat="42.83148493245992" lon="11.14270021786976"><ele>40.0</ele><time>2026-04-06T16:52:55Z</time></trkpt><trkpt lat="42.8313100460719" lon="11.142502333549592"><ele>40.0</ele><time>2026-04-06T16:52:56Z</time></trkpt><trkpt lat="42.83113303023662" lon="11.14230261808173"><ele>38.5</ele><time>2026-04-06T16:52:57Z</time></trkpt><trkpt lat="42.83095538920761" lon="11.142102790957289"><ele>37.0</ele><time>2026-04-06T16:52:58Z</time></trkpt><trkpt lat="42.830774014307494" lon="11.141906293323553"><ele>37.0</ele><time>2026-04-06T16:52:59Z</time></trkpt><trkpt lat="42.830588779915175" lon="11.14171274221778"><ele>37.0</ele><time>2026-04-06T16:53:00Z</time></trkpt><trkpt lat="42.83039972166124" lon="11.141525191300843"><ele>36.5</ele><time>2026-04-06T16:53:01Z</time></trkpt><trkpt lat="42.83021099458395" lon="11.141337466641543"><ele>36.0</ele><time>2026-04-06T16:53:02Z</time></trkpt><trkpt lat="42.8300216131891" lon="11.141149149213744"><ele>36.0</ele><time>2026-04-06T16:53:03Z</time></trkpt><trkpt lat="42.829833291280764" lon="11.140960921271256"><ele>36.0</ele><time>2026-04-06T16:53:04Z</time></trkpt><trkpt lat="42.82964540530532" lon="11.140773117778004"><ele>36.0</ele><time>2026-04-06T16:53:04.999Z</time></trkpt><trkpt lat="42.82945804902464" lon="11.14058518139117"><ele>36.0</ele><time>2026-04-06T16:53:05.999Z</time></trkpt><trkpt lat="42.82926764381968" lon="11.140398695051184"><ele>36.0</ele><time>2026-04-06T16:53:06.999Z</time></trkpt><trkpt lat="42.829072907608364" lon="11.14021974043814"><ele>36.0</ele><time>2026-04-06T16:53:07.999Z</time></trkpt><trkpt lat="42.828875251354965" lon="11.14004192701428"><ele>36.0</ele><time>2026-04-06T16:53:08.999Z</time></trkpt><trkpt lat="42.82867555239177" lon="11.13986419616032"><ele>36.0</ele><time>2026-04-06T16:53:09.999Z</time></trkpt><trkpt lat="42.82847357866395" lon="11.139688519131516"><ele>36.0</ele><time>2026-04-06T16:53:10.999Z</time></trkpt><trkpt lat="42.82827007692223" lon="11.139514042815474"><ele>36.0</ele><time>2026-04-06T16:53:11.999Z</time></trkpt><trkpt lat="42.828065242080896" lon="11.139340028148851"><ele>36.0</ele><time>2026-04-06T16:53:12.999Z</time></trkpt><trkpt lat="42.827860295638764" lon="11.139168955867357"><ele>36.0</ele><time>2026-04-06T16:53:13.999Z</time></trkpt><trkpt lat="42.827656786932145" lon="11.138996873883846"><ele>36.0</ele><time>2026-04-06T16:53:14.999Z</time></trkpt><trkpt lat="42.82745991642673" lon="11.138834703810897"><ele>36.0</ele><time>2026-04-06T16:53:15.999Z</time></trkpt><trkpt lat="42.827275611368854" lon="11.13868780360415"><ele>36.0</ele><time>2026-04-06T16:53:16.999Z</time></trkpt><trkpt lat="42.827109527729746" lon="11.138550309636122"><ele>36.0</ele><time>2026-04-06T16:53:17.999Z</time></trkpt><trkpt lat="42.82696131742771" lon="11.138420589989977"><ele>36.0</ele><time>2026-04-06T16:53:18.999Z</time></trkpt><trkpt lat="42.82682150833415" lon="11.13830968066703"><ele>36.0</ele><time>2026-04-06T16:53:19.999Z</time></trkpt><trkpt lat="42.8266772203125" lon="11.138236927340524"><ele>37.0</ele><time>2026-04-06T16:53:20.999Z</time></trkpt><trkpt lat="42.82653405107125" lon="11.13822673879787"><ele>38.0</ele><time>2026-04-06T16:53:21.999Z</time></trkpt><trkpt lat="42.826381573885314" lon="11.138264943590103"><ele>39.0</ele><time>2026-04-06T16:53:22.999Z</time></trkpt><trkpt lat="42.82623222268383" lon="11.138320151069614"><ele>39.0</ele><time>2026-04-06T16:53:23.999Z</time></trkpt><trkpt lat="42.82608119121782" lon="11.13835714071973"><ele>39.0</ele><time>2026-04-06T16:53:24.999Z</time></trkpt><trkpt lat="42.82593319722728" lon="11.138384051829423"><ele>39.0</ele><time>2026-04-06T16:53:25.999Z</time></trkpt><trkpt lat="42.825782218004306" lon="11.138306264087301"><ele>38.0</ele><time>2026-04-06T16:53:26.999Z</time></trkpt><trkpt lat="42.82563499823162" lon="11.138240429213026"><ele>37.0</ele><time>2026-04-06T16:53:27.999Z</time></trkpt><trkpt lat="42.82550526873591" lon="11.138109119498601"><ele>36.0</ele><time>2026-04-06T16:53:28.999Z</time></trkpt><trkpt lat="42.82536895622665" lon="11.13798328921071"><ele>36.0</ele><time>2026-04-06T16:53:29.999Z</time></trkpt><trkpt lat="42.82523715348397" lon="11.137864121683847"><ele>36.0</ele><time>2026-04-06T16:53:30.999Z</time></trkpt><trkpt lat="42.82509532597959" lon="11.137724150247548"><ele>36.0</ele><time>2026-04-06T16:53:31.999Z</time></trkpt><trkpt lat="42.824960558317116" lon="11.137546420016937"><ele>36.333333333333336</ele><time>2026-04-06T16:53:32.999Z</time></trkpt><trkpt lat="42.8248617499133" lon="11.13733283287707"><ele>36.66666666666667</ele><time>2026-04-06T16:53:33.999Z</time></trkpt><trkpt lat="42.82477898952601" lon="11.137108541578641"><ele>37.0</ele><time>2026-04-06T16:53:34.999Z</time></trkpt><trkpt lat="42.824691227009254" lon="11.13689024219491"><ele>37.0</ele><time>2026-04-06T16:53:35.999Z</time></trkpt><trkpt lat="42.824608121165646" lon="11.136678594582321"><ele>37.0</ele><time>2026-04-06T16:53:36.999Z</time></trkpt><trkpt lat="42.82449339531836" lon="11.136488732384803"><ele>37.0</ele><time>2026-04-06T16:53:37.999Z</time></trkpt><trkpt lat="42.82434860953271" lon="11.136330984517663"><ele>36.66666666666667</ele><time>2026-04-06T16:53:38.999Z</time></trkpt><trkpt lat="42.824205585248556" lon="11.136168302338561"><ele>36.333333333333336</ele><time>2026-04-06T16:53:39.999Z</time></trkpt><trkpt lat="42.824053394745675" lon="11.136025847373238"><ele>36.0</ele><time>2026-04-06T16:53:40.999Z</time></trkpt><trkpt lat="42.823903372659046" lon="11.135873498135735"><ele>36.0</ele><time>2026-04-06T16:53:41.999Z</time></trkpt><trkpt lat="42.82374456463056" lon="11.135729620543406"><ele>36.0</ele><time>2026-04-06T16:53:42.999Z</time></trkpt><trkpt lat="42.823575023149516" lon="11.135595890226892"><ele>36.0</ele><time>2026-04-06T16:53:43.999Z</time></trkpt><trkpt lat="42.82340799933139" lon="11.135460720226416"><ele>35.0</ele><time>2026-04-06T16:53:44.999Z</time></trkpt><trkpt lat="42.82324591902758" lon="11.135340915450522"><ele>34.0</ele><time>2026-04-06T16:53:45.999Z</time></trkpt><trkpt lat="42.8230872992669" lon="11.135243271500524"><ele>33.0</ele><time>2026-04-06T16:53:46.999Z</time></trkpt><trkpt lat="42.822933179047574" lon="11.135167565407182"><ele>33.0</ele><time>2026-04-06T16:53:47.999Z</time></trkpt><trkpt lat="42.822778462574036" lon="11.135101923551142"><ele>33.0</ele><time>2026-04-06T16:53:48.999Z</time></trkpt><trkpt lat="42.82263028821118" lon="11.135040958789965"><ele>33.0</ele><time>2026-04-06T16:53:49.999Z</time></trkpt><trkpt lat="42.82247609812003" lon="11.135003777989143"><ele>32.666666666666664</ele><time>2026-04-06T16:53:50.999Z</time></trkpt><trkpt lat="42.82232193624954" lon="11.134935736511913"><ele>32.33333333333333</ele><time>2026-04-06T16:53:51.999Z</time></trkpt><trkpt lat="42.82217487046209" lon="11.134903249097844"><ele>32.0</ele><time>2026-04-06T16:53:52.999Z</time></trkpt><trkpt lat="42.822029574758126" lon="11.134852998258882"><ele>31.5</ele><time>2026-04-06T16:53:53.999Z</time></trkpt><trkpt lat="42.8218898054268" lon="11.134805241981848"><ele>31.0</ele><time>2026-04-06T16:53:54.999Z</time></trkpt><trkpt lat="42.821757515951454" lon="11.134763549076252"><ele>30.5</ele><time>2026-04-06T16:53:55.999Z</time></trkpt><trkpt lat="42.82164240366406" lon="11.134721906045414"><ele>30.0</ele><time>2026-04-06T16:53:56.999Z</time></trkpt><trkpt lat="42.821539482152176" lon="11.134690448746543"><ele>30.0</ele><time>2026-04-06T16:53:57.999Z</time></trkpt><trkpt lat="42.821444374923225" lon="11.13466119462056"><ele>30.0</ele><time>2026-04-06T16:53:58.999Z</time></trkpt><trkpt lat="42.8213693196448" lon="11.134637418206077"><ele>30.0</ele><time>2026-04-06T16:53:59.999Z</time></trkpt><trkpt lat="42.821307901877375" lon="11.134611998173654"><ele>30.0</ele><time>2026-04-06T16:54:00.998Z</time></trkpt><trkpt lat="42.821232980897776" lon="11.134583713400756"><ele>30.0</ele><time>2026-04-06T16:54:02.998Z</time></trkpt><trkpt lat="42.821155197798724" lon="11.134556086882712"><ele>30.0</ele><time>2026-04-06T16:54:05.998Z</time></trkpt><trkpt lat="42.82107637207798" lon="11.134534982618609"><ele>30.0</ele><time>2026-04-06T16:54:09.998Z</time></trkpt><trkpt lat="42.820991392828574" lon="11.134510473539592"><ele>30.0</ele><time>2026-04-06T16:54:15Z</time></trkpt><trkpt lat="42.820869928231836" lon="11.13446961081813"><ele>30.0</ele><time>2026-04-06T16:54:17Z</time></trkpt><trkpt lat="42.82079481930943" lon="11.134442381476784"><ele>30.0</ele><time>2026-04-06T16:54:18Z</time></trkpt><trkpt lat="42.820725315491416" lon="11.134412588794962"><ele>30.0</ele><time>2026-04-06T16:54:19Z</time></trkpt><trkpt lat="42.82065586265637" lon="11.134393192017955"><ele>30.0</ele><time>2026-04-06T16:54:20Z</time></trkpt><trkpt lat="42.820589356598376" lon="11.134374006266487"><ele>29.8</ele><time>2026-04-06T16:54:21Z</time></trkpt><trkpt lat="42.82052533834299" lon="11.134361877019103"><ele>29.6</ele><time>2026-04-06T16:54:22Z</time></trkpt><trkpt lat="42.820404745369366" lon="11.134350992506555"><ele>29.4</ele><time>2026-04-06T16:54:24Z</time></trkpt><trkpt lat="42.82031520661529" lon="11.134362468088469"><ele>29.2</ele><time>2026-04-06T16:54:26Z</time></trkpt><trkpt lat="42.82021642517699" lon="11.134373552028844"><ele>29.0</ele><time>2026-04-06T16:54:28Z</time></trkpt><trkpt lat="42.82014160872965" lon="11.134381166580413"><ele>28.999999999999996</ele><time>2026-04-06T16:54:29Z</time></trkpt><trkpt lat="42.82005534144561" lon="11.134396502799994"><ele>29.0</ele><time>2026-04-06T16:54:30Z</time></trkpt><trkpt lat="42.81997549016238" lon="11.134418363278904"><ele>29.0</ele><time>2026-04-06T16:54:31Z</time></trkpt><trkpt lat="42.81988691774379" lon="11.134438411495891"><ele>29.0</ele><time>2026-04-06T16:54:32Z</time></trkpt><trkpt lat="42.81979490732973" lon="11.134446780683048"><ele>28.999999999999996</ele><time>2026-04-06T16:54:33Z</time></trkpt><trkpt lat="42.81969961664088" lon="11.13445478746317"><ele>29.0</ele><time>2026-04-06T16:54:34Z</time></trkpt><trkpt lat="42.8196006332862" lon="11.134472530520158"><ele>29.0</ele><time>2026-04-06T16:54:35Z</time></trkpt><trkpt lat="42.81949827818721" lon="11.134498351592038"><ele>29.0</ele><time>2026-04-06T16:54:36Z</time></trkpt><trkpt lat="42.81939315328515" lon="11.134521770180708"><ele>29.0</ele><time>2026-04-06T16:54:37Z</time></trkpt><trkpt lat="42.819284886084276" lon="11.134543006151967"><ele>29.0</ele><time>2026-04-06T16:54:38Z</time></trkpt><trkpt lat="42.81917844391494" lon="11.134563281349827"><ele>29.0</ele><time>2026-04-06T16:54:39Z</time></trkpt><trkpt lat="42.81907191333" lon="11.13458195597877"><ele>28.799999999999997</ele><time>2026-04-06T16:54:40Z</time></trkpt><trkpt lat="42.81896484906661" lon="11.134603766704094"><ele>28.599999999999998</ele><time>2026-04-06T16:54:41Z</time></trkpt><trkpt lat="42.81886035020321" lon="11.134624104814382"><ele>28.4</ele><time>2026-04-06T16:54:42Z</time></trkpt><trkpt lat="42.81876963683038" lon="11.134642178279307"><ele>28.2</ele><time>2026-04-06T16:54:43Z</time></trkpt><trkpt lat="42.8186834035042" lon="11.134656164703337"><ele>28.0</ele><time>2026-04-06T16:54:44Z</time></trkpt><trkpt lat="42.818603578618465" lon="11.134676110427977"><ele>28.000000000000004</ele><time>2026-04-06T16:54:45Z</time></trkpt><trkpt lat="42.81852327897363" lon="11.134686234766846"><ele>28.0</ele><time>2026-04-06T16:54:46Z</time></trkpt><trkpt lat="42.818446566823" lon="11.134690507809818"><ele>28.0</ele><time>2026-04-06T16:54:47Z</time></trkpt><trkpt lat="42.81835891172321" lon="11.134700647629991"><ele>28.0</ele><time>2026-04-06T16:54:48Z</time></trkpt><trkpt lat="42.81826327661231" lon="11.134713694473707"><ele>28.000000000000004</ele><time>2026-04-06T16:54:49Z</time></trkpt><trkpt lat="42.81815774503129" lon="11.134736509863812"><ele>28.0</ele><time>2026-04-06T16:54:50Z</time></trkpt><trkpt lat="42.818045829208465" lon="11.134758026572477"><ele>27.5</ele><time>2026-04-06T16:54:51Z</time></trkpt><trkpt lat="42.81793251020415" lon="11.134780623002067"><ele>27.0</ele><time>2026-04-06T16:54:52Z</time></trkpt><trkpt lat="42.81781506775445" lon="11.13479986478059"><ele>26.5</ele><time>2026-04-06T16:54:53Z</time></trkpt><trkpt lat="42.81769848370385" lon="11.134818627942495"><ele>26.0</ele><time>2026-04-06T16:54:54Z</time></trkpt><trkpt lat="42.81758289704939" lon="11.13483823283214"><ele>25.75</ele><time>2026-04-06T16:54:55Z</time></trkpt><trkpt lat="42.81746577271182" lon="11.134858459131705"><ele>25.5</ele><time>2026-04-06T16:54:56Z</time></trkpt><trkpt lat="42.81734357375144" lon="11.13487698767948"><ele>25.25</ele><time>2026-04-06T16:54:57Z</time></trkpt><trkpt lat="42.81721705077611" lon="11.134893480379661"><ele>25.0</ele><time>2026-04-06T16:54:58Z</time></trkpt><trkpt lat="42.81708776529377" lon="11.134911446741258"><ele>25.0</ele><time>2026-04-06T16:54:59Z</time></trkpt><trkpt lat="42.816961144842274" lon="11.134932927039584"><ele>25.0</ele><time>2026-04-06T16:55:00Z</time></trkpt><trkpt lat="42.81683595182571" lon="11.134955994495746"><ele>25.0</ele><time>2026-04-06T16:55:01Z</time></trkpt><trkpt lat="42.8167033611117" lon="11.134978813262588"><ele>25.0</ele><time>2026-04-06T16:55:02Z</time></trkpt><trkpt lat="42.8165635872271" lon="11.135003413343505"><ele>24.75</ele><time>2026-04-06T16:55:03Z</time></trkpt><trkpt lat="42.81642281167785" lon="11.135026755405612"><ele>24.5</ele><time>2026-04-06T16:55:04Z</time></trkpt><trkpt lat="42.81628214831212" lon="11.135050904826333"><ele>24.25</ele><time>2026-04-06T16:55:05Z</time></trkpt><trkpt lat="42.816139746026344" lon="11.13507432248572"><ele>24.0</ele><time>2026-04-06T16:55:06Z</time></trkpt><trkpt lat="42.815991685816435" lon="11.135099964932852"><ele>24.0</ele><time>2026-04-06T16:55:07Z</time></trkpt><trkpt lat="42.815852974098156" lon="11.135118795400915"><ele>24.0</ele><time>2026-04-06T16:55:08Z</time></trkpt><trkpt lat="42.8157208210176" lon="11.135142113076146"><ele>24.0</ele><time>2026-04-06T16:55:09Z</time></trkpt><trkpt lat="42.81559424461172" lon="11.135164898153414"><ele>24.0</ele><time>2026-04-06T16:55:10Z</time></trkpt><trkpt lat="42.81547213028966" lon="11.135184938362555"><ele>24.0</ele><time>2026-04-06T16:55:11Z</time></trkpt><trkpt lat="42.81534892539851" lon="11.135207016843042"><ele>24.0</ele><time>2026-04-06T16:55:12Z</time></trkpt><trkpt lat="42.81521901860444" lon="11.135227175732712"><ele>24.0</ele><time>2026-04-06T16:55:13Z</time></trkpt><trkpt lat="42.81508479432483" lon="11.13524483633243"><ele>24.0</ele><time>2026-04-06T16:55:14Z</time></trkpt><trkpt lat="42.81494705687878" lon="11.135260891619998"><ele>24.0</ele><time>2026-04-06T16:55:14.999Z</time></trkpt><trkpt lat="42.814804219404394" lon="11.135268502498281"><ele>24.0</ele><time>2026-04-06T16:55:15.999Z</time></trkpt><trkpt lat="42.81465991511012" lon="11.135288158232411"><ele>24.0</ele><time>2026-04-06T16:55:16.999Z</time></trkpt><trkpt lat="42.814507779903415" lon="11.13530456274448"><ele>24.0</ele><time>2026-04-06T16:55:17.999Z</time></trkpt><trkpt lat="42.8143560847311" lon="11.135331891086532"><ele>23.75</ele><time>2026-04-06T16:55:18.999Z</time></trkpt><trkpt lat="42.814205770513055" lon="11.135354538765592"><ele>23.5</ele><time>2026-04-06T16:55:19.999Z</time></trkpt><trkpt lat="42.81405891317878" lon="11.135382482926847"><ele>23.25</ele><time>2026-04-06T16:55:20.999Z</time></trkpt><trkpt lat="42.81391563642191" lon="11.135411226324125"><ele>23.0</ele><time>2026-04-06T16:55:21.999Z</time></trkpt><trkpt lat="42.81377686029638" lon="11.135431544121404"><ele>23.0</ele><time>2026-04-06T16:55:22.999Z</time></trkpt><trkpt lat="42.813635516475266" lon="11.135447169336828"><ele>23.0</ele><time>2026-04-06T16:55:23.999Z</time></trkpt><trkpt lat="42.813496912265485" lon="11.135469669826815"><ele>23.0</ele><time>2026-04-06T16:55:24.999Z</time></trkpt><trkpt lat="42.81335869558587" lon="11.135494578708801"><ele>23.0</ele><time>2026-04-06T16:55:25.999Z</time></trkpt><trkpt lat="42.81321772938566" lon="11.135523652346215"><ele>23.25</ele><time>2026-04-06T16:55:26.999Z</time></trkpt><trkpt lat="42.81307602792603" lon="11.13556714068726"><ele>23.5</ele><time>2026-04-06T16:55:27.999Z</time></trkpt><trkpt lat="42.812940784647616" lon="11.135641520741475"><ele>23.75</ele><time>2026-04-06T16:55:28.999Z</time></trkpt><trkpt lat="42.81281582970485" lon="11.135747748463881"><ele>24.0</ele><time>2026-04-06T16:55:29.999Z</time></trkpt><trkpt lat="42.812692010073214" lon="11.135863967189414"><ele>24.333333333333336</ele><time>2026-04-06T16:55:30.999Z</time></trkpt><trkpt lat="42.81256392710255" lon="11.13597784305337"><ele>24.666666666666668</ele><time>2026-04-06T16:55:31.999Z</time></trkpt><trkpt lat="42.81243199524609" lon="11.136094571722017"><ele>25.0</ele><time>2026-04-06T16:55:32.999Z</time></trkpt><trkpt lat="42.812299151251224" lon="11.136211743111524"><ele>25.0</ele><time>2026-04-06T16:55:33.999Z</time></trkpt><trkpt lat="42.81216429606767" lon="11.136328862210995"><ele>25.0</ele><time>2026-04-06T16:55:34.999Z</time></trkpt><trkpt lat="42.81202791053659" lon="11.136448162186754"><ele>25.0</ele><time>2026-04-06T16:55:35.999Z</time></trkpt><trkpt lat="42.81189157846167" lon="11.136568866261133"><ele>25.333333333333336</ele><time>2026-04-06T16:55:36.999Z</time></trkpt><trkpt lat="42.81175459313458" lon="11.136689143795357"><ele>25.666666666666664</ele><time>2026-04-06T16:55:37.999Z</time></trkpt><trkpt lat="42.811621787742325" lon="11.136803292225913"><ele>26.0</ele><time>2026-04-06T16:55:38.999Z</time></trkpt><trkpt lat="42.811495025469576" lon="11.13691599110611"><ele>26.0</ele><time>2026-04-06T16:55:39.999Z</time></trkpt><trkpt lat="42.81137195815737" lon="11.13702743161898"><ele>26.0</ele><time>2026-04-06T16:55:40.999Z</time></trkpt><trkpt lat="42.81124803421773" lon="11.137133665457515"><ele>26.0</ele><time>2026-04-06T16:55:41.999Z</time></trkpt><trkpt lat="42.811124357118466" lon="11.13723602331734"><ele>26.0</ele><time>2026-04-06T16:55:42.999Z</time></trkpt><trkpt lat="42.811003881822636" lon="11.137337495417917"><ele>26.25</ele><time>2026-04-06T16:55:43.999Z</time></trkpt><trkpt lat="42.810888290632036" lon="11.137441818722735"><ele>26.5</ele><time>2026-04-06T16:55:44.999Z</time></trkpt><trkpt lat="42.81077260388149" lon="11.137542821797684"><ele>26.75</ele><time>2026-04-06T16:55:45.999Z</time></trkpt><trkpt lat="42.81065881634235" lon="11.137642600648645"><ele>27.0</ele><time>2026-04-06T16:55:46.999Z</time></trkpt><trkpt lat="42.81054438109992" lon="11.137742487493425"><ele>27.0</ele><time>2026-04-06T16:55:47.999Z</time></trkpt><trkpt lat="42.81043345871389" lon="11.137842525236028"><ele>27.0</ele><time>2026-04-06T16:55:48.999Z</time></trkpt><trkpt lat="42.81031453016053" lon="11.137950567790446"><ele>27.0</ele><time>2026-04-06T16:55:49.999Z</time></trkpt><trkpt lat="42.81019864423217" lon="11.138057320205556"><ele>27.0</ele><time>2026-04-06T16:55:50.999Z</time></trkpt><trkpt lat="42.81008188832244" lon="11.13815233611228"><ele>26.5</ele><time>2026-04-06T16:55:51.999Z</time></trkpt><trkpt lat="42.80995310500065" lon="11.138232248481332"><ele>26.0</ele><time>2026-04-06T16:55:52.999Z</time></trkpt><trkpt lat="42.809819561961476" lon="11.13829167072656"><ele>25.5</ele><time>2026-04-06T16:55:53.999Z</time></trkpt><trkpt lat="42.8096838773302" lon="11.138328382096917"><ele>25.0</ele><time>2026-04-06T16:55:54.999Z</time></trkpt><trkpt lat="42.809546912003796" lon="11.138350568131688"><ele>25.0</ele><time>2026-04-06T16:55:55.999Z</time></trkpt><trkpt lat="42.8094091741697" lon="11.138366993339787"><ele>25.0</ele><time>2026-04-06T16:55:56.999Z</time></trkpt><trkpt lat="42.80927407138674" lon="11.138385615522973"><ele>25.0</ele><time>2026-04-06T16:55:57.999Z</time></trkpt><trkpt lat="42.80914014303466" lon="11.138404261467683"><ele>25.0</ele><time>2026-04-06T16:55:58.999Z</time></trkpt><trkpt lat="42.809005763478496" lon="11.138416465815054"><ele>25.0</ele><time>2026-04-06T16:55:59.999Z</time></trkpt><trkpt lat="42.80887799588664" lon="11.138426957270445"><ele>25.0</ele><time>2026-04-06T16:56:00.999Z</time></trkpt><trkpt lat="42.80875459206802" lon="11.138430623904583"><ele>25.0</ele><time>2026-04-06T16:56:01.999Z</time></trkpt><trkpt lat="42.808640736961486" lon="11.13842165465821"><ele>25.0</ele><time>2026-04-06T16:56:02.999Z</time></trkpt><trkpt lat="42.80853139335549" lon="11.13838941706407"><ele>24.8</ele><time>2026-04-06T16:56:03.999Z</time></trkpt><trkpt lat="42.80843266890065" lon="11.138352662911988"><ele>24.6</ele><time>2026-04-06T16:56:04.999Z</time></trkpt><trkpt lat="42.80834294084499" lon="11.1383307289295"><ele>24.4</ele><time>2026-04-06T16:56:05.999Z</time></trkpt><trkpt lat="42.808251607584594" lon="11.138273956521594"><ele>24.2</ele><time>2026-04-06T16:56:06.999Z</time></trkpt><trkpt lat="42.80815477109285" lon="11.13823334138513"><ele>24.0</ele><time>2026-04-06T16:56:07.999Z</time></trkpt><trkpt lat="42.808059380901355" lon="11.138192779035176"><ele>24.0</ele><time>2026-04-06T16:56:08.999Z</time></trkpt><trkpt lat="42.80796706603125" lon="11.138153524335939"><ele>24.0</ele><time>2026-04-06T16:56:09.999Z</time></trkpt><trkpt lat="42.80785797299501" lon="11.138106963757586"><ele>24.0</ele><time>2026-04-06T16:56:10.998Z</time></trkpt><trkpt lat="42.80775588181651" lon="11.138064062790036"><ele>24.0</ele><time>2026-04-06T16:56:11.998Z</time></trkpt><trkpt lat="42.8076520672284" lon="11.138020437711623"><ele>24.0</ele><time>2026-04-06T16:56:12.998Z</time></trkpt><trkpt lat="42.80754247384387" lon="11.13797438417985"><ele>24.0</ele><time>2026-04-06T16:56:13.998Z</time></trkpt><trkpt lat="42.807428588915904" lon="11.137927739018114"><ele>24.0</ele><time>2026-04-06T16:56:14.998Z</time></trkpt><trkpt lat="42.80730776104257" lon="11.137881094509257"><ele>24.0</ele><time>2026-04-06T16:56:15.998Z</time></trkpt><trkpt lat="42.80718431583388" lon="11.137839832752995"><ele>24.0</ele><time>2026-04-06T16:56:16.998Z</time></trkpt><trkpt lat="42.80704428815463" lon="11.13782395250831"><ele>24.0</ele><time>2026-04-06T16:56:17.998Z</time></trkpt><trkpt lat="42.80691538863061" lon="11.137775263116731"><ele>24.0</ele><time>2026-04-06T16:56:18.998Z</time></trkpt><trkpt lat="42.80673760659477" lon="11.137731527704572"><ele>24.0</ele><time>2026-04-06T16:56:19.998Z</time></trkpt><trkpt lat="42.80658038276601" lon="11.137673181408324"><ele>23.333333333333332</ele><time>2026-04-06T16:56:21Z</time></trkpt><trkpt lat="42.806431488436644" lon="11.137631702664919"><ele>22.666666666666664</ele><time>2026-04-06T16:56:22Z</time></trkpt><trkpt lat="42.80627147689896" lon="11.13758755896221"><ele>22.0</ele><time>2026-04-06T16:56:23Z</time></trkpt><trkpt lat="42.80611726743722" lon="11.137545015865145"><ele>21.666666666666664</ele><time>2026-04-06T16:56:24Z</time></trkpt><trkpt lat="42.80595996466091" lon="11.13750161941811"><ele>21.333333333333332</ele><time>2026-04-06T16:56:25Z</time></trkpt><trkpt lat="42.805806616568674" lon="11.137458376394632"><ele>21.0</ele><time>2026-04-06T16:56:26Z</time></trkpt><trkpt lat="42.80564812082435" lon="11.137414745776843"><ele>21.0</ele><time>2026-04-06T16:56:27Z</time></trkpt><trkpt lat="42.80548634467236" lon="11.137370212110481"><ele>21.0</ele><time>2026-04-06T16:56:28Z</time></trkpt><trkpt lat="42.80532223578494" lon="11.137324159200334"><ele>21.0</ele><time>2026-04-06T16:56:29Z</time></trkpt><trkpt lat="42.805153696106785" lon="11.137276488370237"><ele>21.0</ele><time>2026-04-06T16:56:30Z</time></trkpt><trkpt lat="42.80498694728729" lon="11.137229324107903"><ele>21.0</ele><time>2026-04-06T16:56:31Z</time></trkpt><trkpt lat="42.804823226722306" lon="11.137183016340188"><ele>21.0</ele><time>2026-04-06T16:56:32Z</time></trkpt><trkpt lat="42.804658055719" lon="11.137136298343218"><ele>21.0</ele><time>2026-04-06T16:56:33Z</time></trkpt><trkpt lat="42.80449621350941" lon="11.137090521861147"><ele>21.0</ele><time>2026-04-06T16:56:34Z</time></trkpt><trkpt lat="42.804334599333835" lon="11.137044809895494"><ele>21.0</ele><time>2026-04-06T16:56:35Z</time></trkpt><trkpt lat="42.804169650400134" lon="11.137007175624811"><ele>20.333333333333332</ele><time>2026-04-06T16:56:36Z</time></trkpt><trkpt lat="42.804012132407564" lon="11.136963226791343"><ele>19.666666666666664</ele><time>2026-04-06T16:56:37Z</time></trkpt><trkpt lat="42.80385356481299" lon="11.136919086161354"><ele>19.0</ele><time>2026-04-06T16:56:38Z</time></trkpt><trkpt lat="42.803692819491424" lon="11.13687184459169"><ele>19.0</ele><time>2026-04-06T16:56:39Z</time></trkpt><trkpt lat="42.80352965201824" lon="11.136818649171941"><ele>19.0</ele><time>2026-04-06T16:56:40Z</time></trkpt><trkpt lat="42.8033629741564" lon="11.136764216516005"><ele>19.0</ele><time>2026-04-06T16:56:41Z</time></trkpt><trkpt lat="42.803199147779885" lon="11.136713333229569"><ele>19.0</ele><time>2026-04-06T16:56:42Z</time></trkpt><trkpt lat="42.803036961517336" lon="11.136660559168515"><ele>19.0</ele><time>2026-04-06T16:56:43Z</time></trkpt><trkpt lat="42.80287704902093" lon="11.136608243212079"><ele>19.0</ele><time>2026-04-06T16:56:44Z</time></trkpt><trkpt lat="42.802714823466864" lon="11.136549507838094"><ele>18.333333333333332</ele><time>2026-04-06T16:56:45Z</time></trkpt><trkpt lat="42.80255104407525" lon="11.136478301630838"><ele>17.666666666666668</ele><time>2026-04-06T16:56:46Z</time></trkpt><trkpt lat="42.8023892192083" lon="11.136402319166466"><ele>17.0</ele><time>2026-04-06T16:56:47Z</time></trkpt><trkpt lat="42.80222305856666" lon="11.136313845242025"><ele>17.0</ele><time>2026-04-06T16:56:48Z</time></trkpt><trkpt lat="42.80205938817166" lon="11.136223659165303"><ele>17.0</ele><time>2026-04-06T16:56:49Z</time></trkpt><trkpt lat="42.801899456218706" lon="11.136144660403737"><ele>17.0</ele><time>2026-04-06T16:56:50Z</time></trkpt><trkpt lat="42.801741333093766" lon="11.136063209624117"><ele>16.666666666666668</ele><time>2026-04-06T16:56:51Z</time></trkpt><trkpt lat="42.801590604450155" lon="11.13598592924735"><ele>16.333333333333332</ele><time>2026-04-06T16:56:52Z</time></trkpt><trkpt lat="42.80144216921892" lon="11.13590765769449"><ele>16.0</ele><time>2026-04-06T16:56:53Z</time></trkpt><trkpt lat="42.8012969455451" lon="11.135832821578"><ele>16.0</ele><time>2026-04-06T16:56:54Z</time></trkpt><trkpt lat="42.80115993567819" lon="11.135770300048334"><ele>16.0</ele><time>2026-04-06T16:56:55Z</time></trkpt><trkpt lat="42.8010341508842" lon="11.135711357506104"><ele>16.0</ele><time>2026-04-06T16:56:56Z</time></trkpt><trkpt lat="42.800929438742116" lon="11.135647070750132"><ele>16.0</ele><time>2026-04-06T16:56:57Z</time></trkpt><trkpt lat="42.800837663101696" lon="11.135571006603117"><ele>16.2</ele><time>2026-04-06T16:56:58Z</time></trkpt><trkpt lat="42.80075605852854" lon="11.135481609289391"><ele>16.400000000000002</ele><time>2026-04-06T16:56:59Z</time></trkpt><trkpt lat="42.8006785940108" lon="11.13537661453709"><ele>16.6</ele><time>2026-04-06T16:57:00Z</time></trkpt><trkpt lat="42.80061024265299" lon="11.135258031893356"><ele>16.8</ele><time>2026-04-06T16:57:01Z</time></trkpt><trkpt lat="42.800544841142084" lon="11.135131143461926"><ele>17.0</ele><time>2026-04-06T16:57:02Z</time></trkpt><trkpt lat="42.800466622777364" lon="11.135023376481193"><ele>17.0</ele><time>2026-04-06T16:57:03Z</time></trkpt><trkpt lat="42.80036224498457" lon="11.134915740457537"><ele>17.0</ele><time>2026-04-06T16:57:04Z</time></trkpt><trkpt lat="42.80025486284438" lon="11.134836053752792"><ele>17.0</ele><time>2026-04-06T16:57:05Z</time></trkpt><trkpt lat="42.80013762850031" lon="11.1347822295155"><ele>17.0</ele><time>2026-04-06T16:57:06Z</time></trkpt><trkpt lat="42.80001270966669" lon="11.134760628270753"><ele>16.5</ele><time>2026-04-06T16:57:07Z</time></trkpt><trkpt lat="42.79987826539806" lon="11.134760737634265"><ele>16.0</ele><time>2026-04-06T16:57:08Z</time></trkpt><trkpt lat="42.799741270927605" lon="11.134775637296032"><ele>15.5</ele><time>2026-04-06T16:57:09Z</time></trkpt><trkpt lat="42.799599945159734" lon="11.134776362824061"><ele>15.0</ele><time>2026-04-06T16:57:10Z</time></trkpt><trkpt lat="42.79944983441473" lon="11.134754770936924"><ele>15.0</ele><time>2026-04-06T16:57:11Z</time></trkpt><trkpt lat="42.799292838225625" lon="11.134722657175935"><ele>15.0</ele><time>2026-04-06T16:57:12Z</time></trkpt><trkpt lat="42.79914693140712" lon="11.134675716284253"><ele>15.0</ele><time>2026-04-06T16:57:13Z</time></trkpt><trkpt lat="42.798985935890244" lon="11.134621896292945"><ele>15.0</ele><time>2026-04-06T16:57:14Z</time></trkpt><trkpt lat="42.79883252358969" lon="11.134568546619514"><ele>15.0</ele><time>2026-04-06T16:57:15Z</time></trkpt><trkpt lat="42.79867716428179" lon="11.134508294368834"><ele>15.0</ele><time>2026-04-06T16:57:16Z</time></trkpt><trkpt lat="42.79852532115171" lon="11.134446771749461"><ele>14.666666666666668</ele><time>2026-04-06T16:57:17Z</time></trkpt><trkpt lat="42.798371830634984" lon="11.134378962870493"><ele>14.333333333333334</ele><time>2026-04-06T16:57:18Z</time></trkpt><trkpt lat="42.79822797834492" lon="11.13428894259177"><ele>14.0</ele><time>2026-04-06T16:57:19Z</time></trkpt><trkpt lat="42.7980781769602" lon="11.134215727504918"><ele>14.0</ele><time>2026-04-06T16:57:20Z</time></trkpt><trkpt lat="42.79791797285104" lon="11.13417429309011"><ele>14.0</ele><time>2026-04-06T16:57:21Z</time></trkpt><trkpt lat="42.79777120771232" lon="11.134106854091291"><ele>14.0</ele><time>2026-04-06T16:57:21.999Z</time></trkpt><trkpt lat="42.797618054230725" lon="11.134023143967427"><ele>13.666666666666668</ele><time>2026-04-06T16:57:22.999Z</time></trkpt><trkpt lat="42.79747046186947" lon="11.133950102274733"><ele>13.333333333333332</ele><time>2026-04-06T16:57:23.999Z</time></trkpt><trkpt lat="42.797339201831385" lon="11.133847585921561"><ele>13.0</ele><time>2026-04-06T16:57:24.999Z</time></trkpt><trkpt lat="42.79719793270642" lon="11.133776725706099"><ele>13.0</ele><time>2026-04-06T16:57:25.999Z</time></trkpt><trkpt lat="42.79705729447904" lon="11.13370618037017"><ele>13.0</ele><time>2026-04-06T16:57:26.999Z</time></trkpt><trkpt lat="42.79691907635541" lon="11.133636848970825"><ele>13.0</ele><time>2026-04-06T16:57:27.999Z</time></trkpt><trkpt lat="42.796778594572885" lon="11.133587084963434"><ele>13.0</ele><time>2026-04-06T16:57:28.999Z</time></trkpt><trkpt lat="42.79665082363496" lon="11.133510658111406"><ele>13.0</ele><time>2026-04-06T16:57:29.999Z</time></trkpt><trkpt lat="42.79652278837095" lon="11.133453120260892"><ele>13.0</ele><time>2026-04-06T16:57:30.999Z</time></trkpt><trkpt lat="42.79640520553348" lon="11.133389098486623"><ele>13.0</ele><time>2026-04-06T16:57:31.999Z</time></trkpt><trkpt lat="42.79629090147519" lon="11.133330214733567"><ele>13.0</ele><time>2026-04-06T16:57:32.999Z</time></trkpt><trkpt lat="42.796181127966534" lon="11.133274951446099"><ele>13.0</ele><time>2026-04-06T16:57:33.999Z</time></trkpt><trkpt lat="42.796075700099735" lon="11.133221147059091"><ele>13.0</ele><time>2026-04-06T16:57:34.999Z</time></trkpt><trkpt lat="42.79597907662994" lon="11.13317078802471"><ele>13.0</ele><time>2026-04-06T16:57:35.999Z</time></trkpt><trkpt lat="42.79588335655367" lon="11.13312226780725"><ele>13.0</ele><time>2026-04-06T16:57:36.999Z</time></trkpt><trkpt lat="42.795795325060325" lon="11.133072575471314"><ele>13.0</ele><time>2026-04-06T16:57:37.999Z</time></trkpt><trkpt lat="42.795711437794516" lon="11.133027457330313"><ele>12.999999999999998</ele><time>2026-04-06T16:57:38.999Z</time></trkpt><trkpt lat="42.79563994777236" lon="11.132984663459288"><ele>13.0</ele><time>2026-04-06T16:57:39.999Z</time></trkpt><trkpt lat="42.79558691889119" lon="11.132926745945548"><ele>13.0</ele><time>2026-04-06T16:57:40.999Z</time></trkpt><trkpt lat="42.79551939825731" lon="11.132810565562133"><ele>13.0</ele><time>2026-04-06T16:57:42.999Z</time></trkpt><trkpt lat="42.795459341310384" lon="11.132736789043479"><ele>12.999999999999998</ele><time>2026-04-06T16:57:44.999Z</time></trkpt><trkpt lat="42.79539916356424" lon="11.132662543167175"><ele>13.0</ele><time>2026-04-06T16:57:47.999Z</time></trkpt><trkpt lat="42.79526419241361" lon="11.132755552064413"><ele>13.0</ele><time>2026-04-06T17:01:19Z</time></trkpt><trkpt lat="42.79517516326617" lon="11.13275692398424"><ele>13.0</ele><time>2026-04-06T17:01:20Z</time></trkpt><trkpt lat="42.79506834546788" lon="11.132733552884043"><ele>13.0</ele><time>2026-04-06T17:01:21Z</time></trkpt><trkpt lat="42.79496115157698" lon="11.132667441906284"><ele>13.0</ele><time>2026-04-06T17:01:22Z</time></trkpt><trkpt lat="42.79483845042517" lon="11.132589444568486"><ele>13.333333333333332</ele><time>2026-04-06T17:01:23Z</time></trkpt><trkpt lat="42.79470367264812" lon="11.132519842432986"><ele>13.666666666666668</ele><time>2026-04-06T17:01:24Z</time></trkpt><trkpt lat="42.79456196152497" lon="11.132452358470331"><ele>14.0</ele><time>2026-04-06T17:01:25Z</time></trkpt><trkpt lat="42.79441051960942" lon="11.132378577179894"><ele>13.666666666666668</ele><time>2026-04-06T17:01:26Z</time></trkpt><trkpt lat="42.79425628061922" lon="11.132306503680557"><ele>13.333333333333332</ele><time>2026-04-06T17:01:27Z</time></trkpt><trkpt lat="42.794109630744416" lon="11.132229122817444"><ele>13.0</ele><time>2026-04-06T17:01:28Z</time></trkpt><trkpt lat="42.7939473035676" lon="11.132149006727936"><ele>13.0</ele><time>2026-04-06T17:01:29Z</time></trkpt><trkpt lat="42.79379029940722" lon="11.13206366537644"><ele>13.0</ele><time>2026-04-06T17:01:30Z</time></trkpt><trkpt lat="42.793621547397336" lon="11.131980032010402"><ele>13.0</ele><time>2026-04-06T17:01:31Z</time></trkpt><trkpt lat="42.79344943611132" lon="11.131892267152573"><ele>13.0</ele><time>2026-04-06T17:01:32Z</time></trkpt><trkpt lat="42.793275326090765" lon="11.131810104915763"><ele>13.0</ele><time>2026-04-06T17:01:33Z</time></trkpt><trkpt lat="42.79309421092731" lon="11.131726741286226"><ele>13.0</ele><time>2026-04-06T17:01:33.999Z</time></trkpt><trkpt lat="42.7929102146065" lon="11.131645369828613"><ele>13.0</ele><time>2026-04-06T17:01:34.999Z</time></trkpt><trkpt lat="42.792722390911365" lon="11.131558957479896"><ele>13.0</ele><time>2026-04-06T17:01:35.999Z</time></trkpt><trkpt lat="42.792532039778955" lon="11.13146994980089"><ele>13.0</ele><time>2026-04-06T17:01:36.999Z</time></trkpt><trkpt lat="42.792342899926794" lon="11.131380457189067"><ele>13.0</ele><time>2026-04-06T17:01:37.999Z</time></trkpt><trkpt lat="42.79215708595517" lon="11.131289374321053"><ele>13.0</ele><time>2026-04-06T17:01:38.999Z</time></trkpt><trkpt lat="42.79197124370976" lon="11.13119264053339"><ele>13.0</ele><time>2026-04-06T17:01:39.999Z</time></trkpt><trkpt lat="42.79178655834179" lon="11.13109808629207"><ele>13.666666666666666</ele><time>2026-04-06T17:01:40.999Z</time></trkpt><trkpt lat="42.79160189877499" lon="11.131000297648495"><ele>14.333333333333332</ele><time>2026-04-06T17:01:41.999Z</time></trkpt><trkpt lat="42.79141604293801" lon="11.130901919637221"><ele>15.0</ele><time>2026-04-06T17:01:42.999Z</time></trkpt><trkpt lat="42.7912299086061" lon="11.130803216467756"><ele>14.666666666666668</ele><time>2026-04-06T17:01:43.999Z</time></trkpt><trkpt lat="42.79104664637332" lon="11.130699789108542"><ele>14.333333333333334</ele><time>2026-04-06T17:01:44.999Z</time></trkpt><trkpt lat="42.7908637959653" lon="11.130601049137095"><ele>14.0</ele><time>2026-04-06T17:01:45.999Z</time></trkpt><trkpt lat="42.79068109092427" lon="11.130507401541943"><ele>14.0</ele><time>2026-04-06T17:01:46.999Z</time></trkpt><trkpt lat="42.79049962346731" lon="11.130415582340838"><ele>14.0</ele><time>2026-04-06T17:01:47.999Z</time></trkpt><trkpt lat="42.790322165351924" lon="11.130322791289343"><ele>14.0</ele><time>2026-04-06T17:01:48.999Z</time></trkpt><trkpt lat="42.79014593942175" lon="11.130234010519947"><ele>15.0</ele><time>2026-04-06T17:01:49.999Z</time></trkpt><trkpt lat="42.789973561257" lon="11.130147449493045"><ele>16.0</ele><time>2026-04-06T17:01:50.999Z</time></trkpt><trkpt lat="42.78980257429712" lon="11.130061691531596"><ele>17.0</ele><time>2026-04-06T17:01:51.999Z</time></trkpt><trkpt lat="42.789635862451064" lon="11.129974193716476"><ele>17.0</ele><time>2026-04-06T17:01:52.999Z</time></trkpt><trkpt lat="42.789474877867654" lon="11.129888199017477"><ele>17.0</ele><time>2026-04-06T17:01:53.999Z</time></trkpt><trkpt lat="42.78931834079332" lon="11.129803576598887"><ele>17.0</ele><time>2026-04-06T17:01:54.999Z</time></trkpt><trkpt lat="42.78917015817913" lon="11.12971837985119"><ele>17.0</ele><time>2026-04-06T17:01:55.999Z</time></trkpt><trkpt lat="42.78902243433516" lon="11.129647594505022"><ele>17.0</ele><time>2026-04-06T17:01:56.999Z</time></trkpt><trkpt lat="42.78887920147452" lon="11.129574411978318"><ele>17.0</ele><time>2026-04-06T17:01:57.999Z</time></trkpt><trkpt lat="42.78873275973345" lon="11.129501201749745"><ele>17.0</ele><time>2026-04-06T17:01:58.999Z</time></trkpt><trkpt lat="42.78859139794575" lon="11.12942508061415"><ele>17.0</ele><time>2026-04-06T17:01:59.999Z</time></trkpt><trkpt lat="42.78844865292094" lon="11.129351946844679"><ele>17.0</ele><time>2026-04-06T17:02:00.999Z</time></trkpt><trkpt lat="42.78831258363033" lon="11.129277177048001"><ele>17.25</ele><time>2026-04-06T17:02:01.999Z</time></trkpt><trkpt lat="42.788179219910475" lon="11.12921159796628"><ele>17.5</ele><time>2026-04-06T17:02:02.999Z</time></trkpt><trkpt lat="42.78805312613621" lon="11.129144379314512"><ele>17.75</ele><time>2026-04-06T17:02:03.999Z</time></trkpt><trkpt lat="42.78793076719321" lon="11.129081425385795"><ele>18.0</ele><time>2026-04-06T17:02:04.999Z</time></trkpt><trkpt lat="42.787807300549325" lon="11.128996132283223"><ele>17.0</ele><time>2026-04-06T17:02:05.999Z</time></trkpt><trkpt lat="42.78766921136369" lon="11.128923673634235"><ele>16.0</ele><time>2026-04-06T17:02:06.999Z</time></trkpt><trkpt lat="42.78751946226446" lon="11.128845280065628"><ele>15.0</ele><time>2026-04-06T17:02:07.999Z</time></trkpt><trkpt lat="42.78735856395218" lon="11.128761069165375"><ele>15.0</ele><time>2026-04-06T17:02:08.999Z</time></trkpt><trkpt lat="42.787190115831876" lon="11.128671258948641"><ele>15.0</ele><time>2026-04-06T17:02:09.999Z</time></trkpt><trkpt lat="42.787015062729985" lon="11.128578994209672"><ele>15.0</ele><time>2026-04-06T17:02:10.999Z</time></trkpt><trkpt lat="42.78683387357441" lon="11.128499917256114"><ele>14.666666666666668</ele><time>2026-04-06T17:02:11.999Z</time></trkpt><trkpt lat="42.78665714626147" lon="11.128395828399032"><ele>14.333333333333334</ele><time>2026-04-06T17:02:12.999Z</time></trkpt><trkpt lat="42.78648053148321" lon="11.128296287626998"><ele>14.0</ele><time>2026-04-06T17:02:13.999Z</time></trkpt><trkpt lat="42.78630044400615" lon="11.128199301549461"><ele>13.666666666666668</ele><time>2026-04-06T17:02:14.999Z</time></trkpt><trkpt lat="42.786121398791046" lon="11.128102542959775"><ele>13.333333333333332</ele><time>2026-04-06T17:02:15.999Z</time></trkpt><trkpt lat="42.78594332990169" lon="11.128002528656586"><ele>13.0</ele><time>2026-04-06T17:02:16.999Z</time></trkpt><trkpt lat="42.78576426164815" lon="11.127904086532563"><ele>13.0</ele><time>2026-04-06T17:02:17.999Z</time></trkpt><trkpt lat="42.78558534588344" lon="11.12780670672235"><ele>13.0</ele><time>2026-04-06T17:02:18.999Z</time></trkpt><trkpt lat="42.78540946911251" lon="11.127714240329286"><ele>13.0</ele><time>2026-04-06T17:02:19.999Z</time></trkpt><trkpt lat="42.785237838267655" lon="11.12762467073017"><ele>12.666666666666666</ele><time>2026-04-06T17:02:20.999Z</time></trkpt><trkpt lat="42.785073409226" lon="11.127540149876623"><ele>12.333333333333332</ele><time>2026-04-06T17:02:21.999Z</time></trkpt><trkpt lat="42.784913332587735" lon="11.127454850177037"><ele>12.0</ele><time>2026-04-06T17:02:22.999Z</time></trkpt><trkpt lat="42.78475277842045" lon="11.12736850433284"><ele>12.0</ele><time>2026-04-06T17:02:23.999Z</time></trkpt><trkpt lat="42.78458789225292" lon="11.127283728940721"><ele>12.0</ele><time>2026-04-06T17:02:24.999Z</time></trkpt><trkpt lat="42.78441905656649" lon="11.12719987791721"><ele>12.0</ele><time>2026-04-06T17:02:25.999Z</time></trkpt><trkpt lat="42.78424716937452" lon="11.12710955342656"><ele>12.666666666666668</ele><time>2026-04-06T17:02:26.999Z</time></trkpt><trkpt lat="42.78407165885281" lon="11.127017616718847"><ele>13.333333333333334</ele><time>2026-04-06T17:02:27.999Z</time></trkpt><trkpt lat="42.783892084108956" lon="11.126925909369133"><ele>14.0</ele><time>2026-04-06T17:02:28.999Z</time></trkpt><trkpt lat="42.783709361735305" lon="11.126835231270437"><ele>14.0</ele><time>2026-04-06T17:02:29.999Z</time></trkpt><trkpt lat="42.783522879461124" lon="11.126742436661287"><ele>14.0</ele><time>2026-04-06T17:02:30.998Z</time></trkpt><trkpt lat="42.783331934583906" lon="11.126650934376357"><ele>14.0</ele><time>2026-04-06T17:02:31.998Z</time></trkpt><trkpt lat="42.78314690100072" lon="11.126536892923513"><ele>13.333333333333334</ele><time>2026-04-06T17:02:32.998Z</time></trkpt><trkpt lat="42.782956108930506" lon="11.126436161371196"><ele>12.666666666666668</ele><time>2026-04-06T17:02:33.998Z</time></trkpt><trkpt lat="42.78277011950523" lon="11.126337967084885"><ele>12.0</ele><time>2026-04-06T17:02:34.998Z</time></trkpt><trkpt lat="42.78258584114518" lon="11.126263711314628"><ele>12.0</ele><time>2026-04-06T17:02:35.998Z</time></trkpt><trkpt lat="42.782417086970575" lon="11.126167911285867"><ele>12.0</ele><time>2026-04-06T17:02:37Z</time></trkpt><trkpt lat="42.78225631043552" lon="11.12608147209031"><ele>12.0</ele><time>2026-04-06T17:02:38Z</time></trkpt><trkpt lat="42.782105108113086" lon="11.126000230596071"><ele>12.0</ele><time>2026-04-06T17:02:39Z</time></trkpt><trkpt lat="42.78196264274147" lon="11.125930048239248"><ele>12.0</ele><time>2026-04-06T17:02:40Z</time></trkpt><trkpt lat="42.781834125044895" lon="11.12586386045904"><ele>12.0</ele><time>2026-04-06T17:02:41Z</time></trkpt><trkpt lat="42.78170949116477" lon="11.125790244814374"><ele>12.0</ele><time>2026-04-06T17:02:42Z</time></trkpt><trkpt lat="42.78159403957617" lon="11.125717181728353"><ele>12.2</ele><time>2026-04-06T17:02:43Z</time></trkpt><trkpt lat="42.78148937361125" lon="11.125641863089864"><ele>12.399999999999999</ele><time>2026-04-06T17:02:44Z</time></trkpt><trkpt lat="42.78148747445284" lon="11.125525798370893"><ele>12.600000000000001</ele><time>2026-04-06T17:02:45Z</time></trkpt><trkpt lat="42.7814821095557" lon="11.125387897154956"><ele>12.8</ele><time>2026-04-06T17:02:47Z</time></trkpt><trkpt lat="42.781443966812475" lon="11.125290419506682"><ele>13.0</ele><time>2026-04-06T17:02:48Z</time></trkpt><trkpt lat="42.78137839143947" lon="11.125218754134131"><ele>13.0</ele><time>2026-04-06T17:02:49Z</time></trkpt><trkpt lat="42.78128095187006" lon="11.125212285497872"><ele>13.0</ele><time>2026-04-06T17:02:50Z</time></trkpt><trkpt lat="42.78121015102617" lon="11.1252004282188"><ele>13.0</ele><time>2026-04-06T17:02:51Z</time></trkpt><trkpt lat="42.781136692517954" lon="11.125225022613256"><ele>13.0</ele><time>2026-04-06T17:02:52Z</time></trkpt><trkpt lat="42.781042376800265" lon="11.125322219403532"><ele>13.0</ele><time>2026-04-06T17:02:54Z</time></trkpt><trkpt lat="42.78097294313582" lon="11.125433223318376"><ele>13.4</ele><time>2026-04-06T17:02:56Z</time></trkpt><trkpt lat="42.780868416216094" lon="11.125353106850257"><ele>13.8</ele><time>2026-04-06T17:02:57Z</time></trkpt><trkpt lat="42.78079744839772" lon="11.125313354803103"><ele>14.2</ele><time>2026-04-06T17:02:58Z</time></trkpt><trkpt lat="42.78071886844931" lon="11.125253848183823"><ele>14.6</ele><time>2026-04-06T17:02:59Z</time></trkpt><trkpt lat="42.78062700616823" lon="11.125204833344126"><ele>15.0</ele><time>2026-04-06T17:03:00Z</time></trkpt><trkpt lat="42.78050469239033" lon="11.1251399713832"><ele>15.0</ele><time>2026-04-06T17:03:01Z</time></trkpt><trkpt lat="42.78038728603721" lon="11.125077838723776"><ele>15.0</ele><time>2026-04-06T17:03:02Z</time></trkpt><trkpt lat="42.78027560339081" lon="11.125033113449163"><ele>15.0</ele><time>2026-04-06T17:03:03Z</time></trkpt><trkpt lat="42.780167852097385" lon="11.124972342375333"><ele>15.0</ele><time>2026-04-06T17:03:04Z</time></trkpt><trkpt lat="42.78004997546052" lon="11.124918363991078"><ele>14.0</ele><time>2026-04-06T17:03:05Z</time></trkpt><trkpt lat="42.779920044756665" lon="11.124830374304041"><ele>13.0</ele><time>2026-04-06T17:03:06Z</time></trkpt><trkpt lat="42.7797637251366" lon="11.12474818610302"><ele>12.0</ele><time>2026-04-06T17:03:07Z</time></trkpt><trkpt lat="42.77961160490673" lon="11.124683954623103"><ele>12.0</ele><time>2026-04-06T17:03:08Z</time></trkpt><trkpt lat="42.77945974783129" lon="11.124610759806206"><ele>12.0</ele><time>2026-04-06T17:03:09Z</time></trkpt><trkpt lat="42.77930188355847" lon="11.124540279438714"><ele>12.0</ele><time>2026-04-06T17:03:10Z</time></trkpt><trkpt lat="42.77915240227933" lon="11.124446434634246"><ele>12.333333333333332</ele><time>2026-04-06T17:03:11Z</time></trkpt><trkpt lat="42.77899691927811" lon="11.124348605224851"><ele>12.666666666666666</ele><time>2026-04-06T17:03:12Z</time></trkpt><trkpt lat="42.77883855621617" lon="11.124265256830519"><ele>13.0</ele><time>2026-04-06T17:03:13Z</time></trkpt><trkpt lat="42.77867715366064" lon="11.124180225411827"><ele>13.0</ele><time>2026-04-06T17:03:14Z</time></trkpt><trkpt lat="42.778521802569685" lon="11.124080442876354"><ele>13.0</ele><time>2026-04-06T17:03:15Z</time></trkpt><trkpt lat="42.77838312307725" lon="11.12396775303248"><ele>13.0</ele><time>2026-04-06T17:03:16Z</time></trkpt><trkpt lat="42.77825134744295" lon="11.123849553229078"><ele>13.666666666666666</ele><time>2026-04-06T17:03:17Z</time></trkpt><trkpt lat="42.77812365051732" lon="11.123735815798401"><ele>14.333333333333332</ele><time>2026-04-06T17:03:18Z</time></trkpt><trkpt lat="42.77798947658308" lon="11.123626620830024"><ele>15.0</ele><time>2026-04-06T17:03:19Z</time></trkpt><trkpt lat="42.77784679299421" lon="11.123538396404289"><ele>15.0</ele><time>2026-04-06T17:03:20Z</time></trkpt><trkpt lat="42.777697210060495" lon="11.12347450298456"><ele>15.0</ele><time>2026-04-06T17:03:21Z</time></trkpt><trkpt lat="42.77755584032102" lon="11.123433710397455"><ele>15.0</ele><time>2026-04-06T17:03:22Z</time></trkpt><trkpt lat="42.77741994541185" lon="11.123386507412308"><ele>15.0</ele><time>2026-04-06T17:03:23Z</time></trkpt><trkpt lat="42.77730740178696" lon="11.123333932352153"><ele>14.8</ele><time>2026-04-06T17:03:24Z</time></trkpt><trkpt lat="42.77719379942224" lon="11.123283515852203"><ele>14.6</ele><time>2026-04-06T17:03:25Z</time></trkpt><trkpt lat="42.77708940352606" lon="11.123243350499074"><ele>14.399999999999999</ele><time>2026-04-06T17:03:26Z</time></trkpt><trkpt lat="42.77699444822679" lon="11.12320539088512"><ele>14.2</ele><time>2026-04-06T17:03:27Z</time></trkpt><trkpt lat="42.776895842338504" lon="11.123188242729276"><ele>14.0</ele><time>2026-04-06T17:03:28Z</time></trkpt><trkpt lat="42.77681484173296" lon="11.123148390177708"><ele>14.333333333333334</ele><time>2026-04-06T17:03:29Z</time></trkpt><trkpt lat="42.776752554574074" lon="11.123091649065644"><ele>14.666666666666668</ele><time>2026-04-06T17:03:30Z</time></trkpt><trkpt lat="42.77665156186742" lon="11.1230471759695"><ele>15.0</ele><time>2026-04-06T17:03:32Z</time></trkpt><trkpt lat="42.77659166479736" lon="11.123005695242297"><ele>15.333333333333332</ele><time>2026-04-06T17:03:34Z</time></trkpt><trkpt lat="42.77652305346059" lon="11.122946087743566"><ele>15.666666666666666</ele><time>2026-04-06T17:03:37Z</time></trkpt><trkpt lat="42.776482054361914" lon="11.122853009821759"><ele>16.0</ele><time>2026-04-06T17:03:39Z</time></trkpt><trkpt lat="42.77643804514231" lon="11.122716736050805"><ele>16.0</ele><time>2026-04-06T17:03:41Z</time></trkpt><trkpt lat="42.77635321110159" lon="11.122593478334933"><ele>16.0</ele><time>2026-04-06T17:03:42.999Z</time></trkpt><trkpt lat="42.776289989046724" lon="11.122563047224235"><ele>16.0</ele><time>2026-04-06T17:03:43.999Z</time></trkpt><trkpt lat="42.776217564391246" lon="11.122579190326976"><ele>16.0</ele><time>2026-04-06T17:03:44.999Z</time></trkpt><trkpt lat="42.77614041529405" lon="11.122575419908584"><ele>16.0</ele><time>2026-04-06T17:03:45.999Z</time></trkpt><trkpt lat="42.77606450278416" lon="11.12246037035333"><ele>15.999999999999998</ele><time>2026-04-06T17:03:46.999Z</time></trkpt><trkpt lat="42.77598585887423" lon="11.12241136675434"><ele>16.0</ele><time>2026-04-06T17:03:47.999Z</time></trkpt><trkpt lat="42.77590348913919" lon="11.122382065060336"><ele>16.0</ele><time>2026-04-06T17:03:48.999Z</time></trkpt><trkpt lat="42.775833389976654" lon="11.12233395633446"><ele>16.0</ele><time>2026-04-06T17:03:49.999Z</time></trkpt><trkpt lat="42.77576514980149" lon="11.122290989524183"><ele>15.999999999999998</ele><time>2026-04-06T17:03:50.999Z</time></trkpt><trkpt lat="42.77569575240162" lon="11.122252293116277"><ele>16.0</ele><time>2026-04-06T17:03:52.999Z</time></trkpt><trkpt lat="42.7756188399165" lon="11.122201707345786"><ele>15.8</ele><time>2026-04-06T17:03:55.999Z</time></trkpt><trkpt lat="42.775544419156" lon="11.12212355731947"><ele>15.600000000000001</ele><time>2026-04-06T17:03:57.999Z</time></trkpt><trkpt lat="42.77545695552486" lon="11.122100443755132"><ele>15.4</ele><time>2026-04-06T17:03:59.999Z</time></trkpt><trkpt lat="42.775345000676026" lon="11.122154279020691"><ele>15.2</ele><time>2026-04-06T17:04:01.999Z</time></trkpt><trkpt lat="42.77526192603773" lon="11.122181206712419"><ele>15.0</ele><time>2026-04-06T17:04:02.999Z</time></trkpt><trkpt lat="42.77517037243082" lon="11.122183662061623"><ele>15.0</ele><time>2026-04-06T17:04:03.999Z</time></trkpt><trkpt lat="42.77507425747831" lon="11.122167292424486"><ele>15.0</ele><time>2026-04-06T17:04:04.999Z</time></trkpt><trkpt lat="42.774948209594505" lon="11.122119171271569"><ele>15.0</ele><time>2026-04-06T17:04:05.999Z</time></trkpt><trkpt lat="42.77481317423349" lon="11.12207307795934"><ele>15.0</ele><time>2026-04-06T17:04:06.999Z</time></trkpt><trkpt lat="42.774693125495276" lon="11.122017234923693"><ele>15.0</ele><time>2026-04-06T17:04:07.999Z</time></trkpt><trkpt lat="42.7745849347183" lon="11.121967274797473"><ele>15.0</ele><time>2026-04-06T17:04:08.999Z</time></trkpt><trkpt lat="42.77447123718334" lon="11.121923233526676"><ele>15.0</ele><time>2026-04-06T17:04:09.999Z</time></trkpt><trkpt lat="42.7743518519057" lon="11.121875998451848"><ele>15.0</ele><time>2026-04-06T17:04:10.999Z</time></trkpt><trkpt lat="42.7742518831487" lon="11.121830116770461"><ele>15.0</ele><time>2026-04-06T17:04:11.999Z</time></trkpt><trkpt lat="42.77413192711751" lon="11.12178355640827"><ele>15.0</ele><time>2026-04-06T17:04:12.999Z</time></trkpt><trkpt lat="42.77402520830046" lon="11.121740924237306"><ele>15.0</ele><time>2026-04-06T17:04:13.999Z</time></trkpt><trkpt lat="42.77389047608496" lon="11.121646036089865"><ele>15.0</ele><time>2026-04-06T17:04:14.999Z</time></trkpt><trkpt lat="42.773774939990865" lon="11.121585156237195"><ele>14.75</ele><time>2026-04-06T17:04:15.999Z</time></trkpt><trkpt lat="42.77366534178319" lon="11.12152943628027"><ele>14.5</ele><time>2026-04-06T17:04:16.999Z</time></trkpt><trkpt lat="42.77353247610669" lon="11.121459548575539"><ele>14.25</ele><time>2026-04-06T17:04:17.999Z</time></trkpt><trkpt lat="42.773427497208566" lon="11.12140353026779"><ele>14.0</ele><time>2026-04-06T17:04:18.999Z</time></trkpt><trkpt lat="42.773318052842015" lon="11.121343656341153"><ele>13.799999999999999</ele><time>2026-04-06T17:04:19.999Z</time></trkpt><trkpt lat="42.773207130282785" lon="11.12128273015624"><ele>13.599999999999998</ele><time>2026-04-06T17:04:20.999Z</time></trkpt><trkpt lat="42.77311320003172" lon="11.121230652659248"><ele>13.4</ele><time>2026-04-06T17:04:21.999Z</time></trkpt><trkpt lat="42.77301597743676" lon="11.121175073024782"><ele>13.2</ele><time>2026-04-06T17:04:22.999Z</time></trkpt><trkpt lat="42.77293497465495" lon="11.121121952623039"><ele>13.0</ele><time>2026-04-06T17:04:23.999Z</time></trkpt><trkpt lat="42.77287506188141" lon="11.121081688484075"><ele>12.999999999999998</ele><time>2026-04-06T17:04:24.999Z</time></trkpt><trkpt lat="42.772778445950244" lon="11.121013793479037"><ele>13.0</ele><time>2026-04-06T17:04:26.999Z</time></trkpt><trkpt lat="42.77272643040293" lon="11.120945417145824"><ele>13.0</ele><time>2026-04-06T17:04:32.999Z</time></trkpt><trkpt lat="42.77266113612756" lon="11.120869172103268"><ele>13.0</ele><time>2026-04-06T17:04:37.998Z</time></trkpt><trkpt lat="42.772592570444736" lon="11.120803309189554"><ele>12.999999999999998</ele><time>2026-04-06T17:04:39.998Z</time></trkpt><trkpt lat="42.77254060149497" lon="11.120709969068832"><ele>13.0</ele><time>2026-04-06T17:04:41.998Z</time></trkpt><trkpt lat="42.77243756630288" lon="11.12073973687944"><ele>12.833333333333332</ele><time>2026-04-06T17:04:44Z</time></trkpt><trkpt lat="42.77231917513086" lon="11.120762833292199"><ele>12.666666666666666</ele><time>2026-04-06T17:04:46Z</time></trkpt><trkpt lat="42.77225004180449" lon="11.120740582283057"><ele>12.5</ele><time>2026-04-06T17:04:47Z</time></trkpt><trkpt lat="42.772182826739936" lon="11.120708134865284"><ele>12.333333333333332</ele><time>2026-04-06T17:04:48Z</time></trkpt><trkpt lat="42.77210207124499" lon="11.120670696554601"><ele>12.166666666666666</ele><time>2026-04-06T17:04:49Z</time></trkpt><trkpt lat="42.77201721015976" lon="11.120639578469952"><ele>12.0</ele><time>2026-04-06T17:04:50Z</time></trkpt><trkpt lat="42.77188968035353" lon="11.120600057475773"><ele>12.75</ele><time>2026-04-06T17:04:51Z</time></trkpt><trkpt lat="42.771757802759424" lon="11.120533934677375"><ele>13.5</ele><time>2026-04-06T17:04:52Z</time></trkpt><trkpt lat="42.771620927450975" lon="11.120455206542767"><ele>14.25</ele><time>2026-04-06T17:04:53Z</time></trkpt><trkpt lat="42.7714974205561" lon="11.120381974571252"><ele>15.0</ele><time>2026-04-06T17:04:54Z</time></trkpt><trkpt lat="42.77137887678674" lon="11.12031018292815"><ele>15.0</ele><time>2026-04-06T17:04:55Z</time></trkpt><trkpt lat="42.7712638744348" lon="11.120250823702468"><ele>15.0</ele><time>2026-04-06T17:04:56Z</time></trkpt><trkpt lat="42.771152715366256" lon="11.120198627220967"><ele>15.0</ele><time>2026-04-06T17:04:57Z</time></trkpt><trkpt lat="42.771041442871464" lon="11.120157682866084"><ele>15.0</ele><time>2026-04-06T17:04:58Z</time></trkpt><trkpt lat="42.77095433852464" lon="11.12011944167338"><ele>15.0</ele><time>2026-04-06T17:04:59Z</time></trkpt><trkpt lat="42.77086967554133" lon="11.12008114431315"><ele>15.2</ele><time>2026-04-06T17:05:00Z</time></trkpt><trkpt lat="42.7707877162672" lon="11.12002992241097"><ele>15.4</ele><time>2026-04-06T17:05:01Z</time></trkpt><trkpt lat="42.770709265288524" lon="11.1199709066341"><ele>15.600000000000001</ele><time>2026-04-06T17:05:02Z</time></trkpt><trkpt lat="42.77061797547509" lon="11.11993173790969"><ele>15.8</ele><time>2026-04-06T17:05:03Z</time></trkpt><trkpt lat="42.77052714760663" lon="11.119913506783197"><ele>16.0</ele><time>2026-04-06T17:05:04Z</time></trkpt><trkpt lat="42.770451849060045" lon="11.119854125482117"><ele>16.2</ele><time>2026-04-06T17:05:05Z</time></trkpt><trkpt lat="42.77035440873083" lon="11.119814885921082"><ele>16.400000000000002</ele><time>2026-04-06T17:05:06Z</time></trkpt><trkpt lat="42.77026547251622" lon="11.119755712209212"><ele>16.6</ele><time>2026-04-06T17:05:07Z</time></trkpt><trkpt lat="42.7701845021325" lon="11.119720862914383"><ele>16.8</ele><time>2026-04-06T17:05:08Z</time></trkpt><trkpt lat="42.77009718258978" lon="11.119671750875078"><ele>17.0</ele><time>2026-04-06T17:05:09Z</time></trkpt><trkpt lat="42.770000392661565" lon="11.119638795143723"><ele>17.0</ele><time>2026-04-06T17:05:10Z</time></trkpt><trkpt lat="42.769917642908844" lon="11.119572681203435"><ele>17.0</ele><time>2026-04-06T17:05:11Z</time></trkpt><trkpt lat="42.769833393913146" lon="11.119531527201566"><ele>17.0</ele><time>2026-04-06T17:05:12Z</time></trkpt><trkpt lat="42.769757225277104" lon="11.119486097498687"><ele>17.0</ele><time>2026-04-06T17:05:13Z</time></trkpt><trkpt lat="42.76967754552921" lon="11.119422705879161"><ele>17.0</ele><time>2026-04-06T17:05:14Z</time></trkpt><trkpt lat="42.76961227162515" lon="11.119375330001443"><ele>17.0</ele><time>2026-04-06T17:05:15Z</time></trkpt><trkpt lat="42.76953291117367" lon="11.119305093841092"><ele>17.0</ele><time>2026-04-06T17:05:16Z</time></trkpt><trkpt lat="42.76953662708683" lon="11.119217130435608"><ele>17.0</ele><time>2026-04-06T17:05:18Z</time></trkpt><trkpt lat="42.76937568134272" lon="11.119258894427528"><ele>17.0</ele><time>2026-04-06T17:05:19Z</time></trkpt><trkpt lat="42.76930572444152" lon="11.119250373971154"><ele>17.0</ele><time>2026-04-06T17:05:20Z</time></trkpt><trkpt lat="42.76922113417475" lon="11.119235201923308"><ele>17.0</ele><time>2026-04-06T17:05:21Z</time></trkpt><trkpt lat="42.76913803781634" lon="11.11917080693243"><ele>17.0</ele><time>2026-04-06T17:05:22Z</time></trkpt><trkpt lat="42.769028865238866" lon="11.119133867061224"><ele>17.0</ele><time>2026-04-06T17:05:23Z</time></trkpt><trkpt lat="42.76892068257758" lon="11.119070642564651"><ele>17.0</ele><time>2026-04-06T17:05:24Z</time></trkpt><trkpt lat="42.76878899314895" lon="11.11898873720433"><ele>17.0</ele><time>2026-04-06T17:05:25Z</time></trkpt><trkpt lat="42.768643955332294" lon="11.118914981999525"><ele>17.666666666666668</ele><time>2026-04-06T17:05:26Z</time></trkpt><trkpt lat="42.76850341094692" lon="11.118841123680388"><ele>18.333333333333332</ele><time>2026-04-06T17:05:27Z</time></trkpt><trkpt lat="42.76835848975073" lon="11.118764431892965"><ele>19.0</ele><time>2026-04-06T17:05:28Z</time></trkpt><trkpt lat="42.76820179765478" lon="11.11868027983756"><ele>19.0</ele><time>2026-04-06T17:05:29Z</time></trkpt><trkpt lat="42.76801907409158" lon="11.118582900782444"><ele>19.0</ele><time>2026-04-06T17:05:30Z</time></trkpt><trkpt lat="42.76783714987788" lon="11.118486354505011"><ele>19.0</ele><time>2026-04-06T17:05:31Z</time></trkpt><trkpt lat="42.76765507750772" lon="11.118389729478771"><ele>17.666666666666664</ele><time>2026-04-06T17:05:32Z</time></trkpt><trkpt lat="42.767462931687334" lon="11.118305141800109"><ele>16.333333333333332</ele><time>2026-04-06T17:05:33Z</time></trkpt><trkpt lat="42.76729502777142" lon="11.118189062025944"><ele>15.0</ele><time>2026-04-06T17:05:34Z</time></trkpt><trkpt lat="42.76713808345575" lon="11.118093911738265"><ele>15.0</ele><time>2026-04-06T17:05:35Z</time></trkpt><trkpt lat="42.76698474940174" lon="11.118021218458537"><ele>15.0</ele><time>2026-04-06T17:05:36Z</time></trkpt><trkpt lat="42.76683573675685" lon="11.117940110227146"><ele>15.0</ele><time>2026-04-06T17:05:37Z</time></trkpt><trkpt lat="42.76670535753049" lon="11.117866213903557"><ele>14.5</ele><time>2026-04-06T17:05:38Z</time></trkpt><trkpt lat="42.76658470963269" lon="11.117791754527659"><ele>14.0</ele><time>2026-04-06T17:05:39Z</time></trkpt><trkpt lat="42.76645805236746" lon="11.11773103815966"><ele>13.5</ele><time>2026-04-06T17:05:40Z</time></trkpt><trkpt lat="42.76634497335432" lon="11.117674646368812"><ele>13.0</ele><time>2026-04-06T17:05:41Z</time></trkpt><trkpt lat="42.766239017255394" lon="11.117618962332415"><ele>13.0</ele><time>2026-04-06T17:05:42Z</time></trkpt><trkpt lat="42.76614761910055" lon="11.117551195304598"><ele>13.0</ele><time>2026-04-06T17:05:43Z</time></trkpt><trkpt lat="42.766076977877354" lon="11.117451506214788"><ele>13.0</ele><time>2026-04-06T17:05:44Z</time></trkpt><trkpt lat="42.766004003549824" lon="11.117357653362129"><ele>13.0</ele><time>2026-04-06T17:05:45Z</time></trkpt><trkpt lat="42.76590591213593" lon="11.117321845502042"><ele>13.0</ele><time>2026-04-06T17:05:46Z</time></trkpt><trkpt lat="42.76579581814673" lon="11.117257072380186"><ele>13.2</ele><time>2026-04-06T17:05:47Z</time></trkpt><trkpt lat="42.765696167422185" lon="11.117277288705372"><ele>13.4</ele><time>2026-04-06T17:05:48Z</time></trkpt><trkpt lat="42.76563041197882" lon="11.117203243771236"><ele>13.599999999999998</ele><time>2026-04-06T17:05:49Z</time></trkpt><trkpt lat="42.76559270869306" lon="11.117103175810513"><ele>13.799999999999999</ele><time>2026-04-06T17:05:49.999Z</time></trkpt><trkpt lat="42.765543023013436" lon="11.116983766704765"><ele>14.0</ele><time>2026-04-06T17:05:50.999Z</time></trkpt><trkpt lat="42.765490353678615" lon="11.116854331177992"><ele>14.0</ele><time>2026-04-06T17:05:51.999Z</time></trkpt><trkpt lat="42.765426022147494" lon="11.116693804386427"><ele>14.0</ele><time>2026-04-06T17:05:52.999Z</time></trkpt><trkpt lat="42.765369200800045" lon="11.116552017780029"><ele>14.0</ele><time>2026-04-06T17:05:53.999Z</time></trkpt><trkpt lat="42.765309803077315" lon="11.116400617075286"><ele>14.0</ele><time>2026-04-06T17:05:54.999Z</time></trkpt><trkpt lat="42.76524174763289" lon="11.116225900090546"><ele>14.666666666666668</ele><time>2026-04-06T17:05:55.999Z</time></trkpt><trkpt lat="42.765170918613116" lon="11.116044062557295"><ele>15.333333333333332</ele><time>2026-04-06T17:05:56.999Z</time></trkpt><trkpt lat="42.76508746155788" lon="11.115834829572027"><ele>16.0</ele><time>2026-04-06T17:05:57.999Z</time></trkpt><trkpt lat="42.76500288660861" lon="11.115633416135223"><ele>16.75</ele><time>2026-04-06T17:05:58.999Z</time></trkpt><trkpt lat="42.76492424309409" lon="11.115448071716067"><ele>17.5</ele><time>2026-04-06T17:05:59.999Z</time></trkpt><trkpt lat="42.76485455489035" lon="11.115281090432989"><ele>18.25</ele><time>2026-04-06T17:06:00.999Z</time></trkpt><trkpt lat="42.76478879461596" lon="11.1151224558411"><ele>19.0</ele><time>2026-04-06T17:06:01.999Z</time></trkpt><trkpt lat="42.76472922297353" lon="11.11497875017871"><ele>19.0</ele><time>2026-04-06T17:06:02.999Z</time></trkpt><trkpt lat="42.76467320364143" lon="11.114843613835342"><ele>19.0</ele><time>2026-04-06T17:06:03.999Z</time></trkpt><trkpt lat="42.76462678677181" lon="11.114729799425024"><ele>19.0</ele><time>2026-04-06T17:06:04.999Z</time></trkpt><trkpt lat="42.76458460186776" lon="11.114625686298305"><ele>19.0</ele><time>2026-04-06T17:06:05.999Z</time></trkpt><trkpt lat="42.76454267653034" lon="11.114518289038049"><ele>19.0</ele><time>2026-04-06T17:06:06.999Z</time></trkpt><trkpt lat="42.76448071677301" lon="11.114400468380536"><ele>19.0</ele><time>2026-04-06T17:06:07.999Z</time></trkpt><trkpt lat="42.764422944335934" lon="11.11425906499294"><ele>19.0</ele><time>2026-04-06T17:06:08.999Z</time></trkpt><trkpt lat="42.76436668671845" lon="11.114095989204031"><ele>19.0</ele><time>2026-04-06T17:06:09.999Z</time></trkpt><trkpt lat="42.76431971993382" lon="11.113917004693771"><ele>19.0</ele><time>2026-04-06T17:06:10.999Z</time></trkpt><trkpt lat="42.764253879145905" lon="11.113757786492094"><ele>18.5</ele><time>2026-04-06T17:06:11.999Z</time></trkpt><trkpt lat="42.76419094655159" lon="11.113605600955555"><ele>18.0</ele><time>2026-04-06T17:06:12.999Z</time></trkpt><trkpt lat="42.76412688096368" lon="11.113450675599049"><ele>17.5</ele><time>2026-04-06T17:06:13.999Z</time></trkpt><trkpt lat="42.76406253581906" lon="11.113295074198955"><ele>17.0</ele><time>2026-04-06T17:06:14.999Z</time></trkpt><trkpt lat="42.763997456229944" lon="11.113136782687286"><ele>16.4</ele><time>2026-04-06T17:06:15.999Z</time></trkpt><trkpt lat="42.76393725173955" lon="11.112990002705141"><ele>15.799999999999999</ele><time>2026-04-06T17:06:16.999Z</time></trkpt><trkpt lat="42.763881114030035" lon="11.112852251063565"><ele>15.2</ele><time>2026-04-06T17:06:17.999Z</time></trkpt><trkpt lat="42.763833812209356" lon="11.112736169086729"><ele>14.6</ele><time>2026-04-06T17:06:18.999Z</time></trkpt><trkpt lat="42.76379272737034" lon="11.112633206342005"><ele>14.0</ele><time>2026-04-06T17:06:19.999Z</time></trkpt><trkpt lat="42.763754676194914" lon="11.112529431488014"><ele>14.000000000000002</ele><time>2026-04-06T17:06:20.999Z</time></trkpt><trkpt lat="42.763688490313044" lon="11.11245377036143"><ele>14.0</ele><time>2026-04-06T17:06:21.999Z</time></trkpt><trkpt lat="42.76368876754294" lon="11.112348744170356"><ele>14.0</ele><time>2026-04-06T17:06:22.999Z</time></trkpt><trkpt lat="42.76366381614503" lon="11.112248727527186"><ele>14.0</ele><time>2026-04-06T17:06:23.999Z</time></trkpt><trkpt lat="42.763626852782174" lon="11.112163373171477"><ele>14.000000000000002</ele><time>2026-04-06T17:06:24.999Z</time></trkpt><trkpt lat="42.763572452120286" lon="11.112104747233786"><ele>14.0</ele><time>2026-04-06T17:06:25.999Z</time></trkpt><trkpt lat="42.763509047417905" lon="11.112167614109193"><ele>14.5</ele><time>2026-04-06T17:06:27.999Z</time></trkpt><trkpt lat="42.76346801858501" lon="11.112321519742792"><ele>15.0</ele><time>2026-04-06T17:06:30.999Z</time></trkpt><trkpt lat="42.76333570556927" lon="11.112456746940206"><ele>15.5</ele><time>2026-04-06T17:06:31.999Z</time></trkpt><trkpt lat="42.76325336036418" lon="11.112500933716536"><ele>16.0</ele><time>2026-04-06T17:06:32.999Z</time></trkpt><trkpt lat="42.76316063945368" lon="11.112550684283066"><ele>16.0</ele><time>2026-04-06T17:06:33.999Z</time></trkpt><trkpt lat="42.763078964240215" lon="11.112595237863536"><ele>16.0</ele><time>2026-04-06T17:06:34.999Z</time></trkpt><trkpt lat="42.76296443259648" lon="11.11265578481503"><ele>16.0</ele><time>2026-04-06T17:06:36.999Z</time></trkpt><trkpt lat="42.762903125783915" lon="11.112693006877823"><ele>16.0</ele><time>2026-04-06T17:06:37.999Z</time></trkpt><trkpt lat="42.762788591026705" lon="11.112644374822663"><ele>16.0</ele><time>2026-04-06T17:06:38.999Z</time></trkpt><trkpt lat="42.76273672287783" lon="11.112459458788965"><ele>16.0</ele><time>2026-04-06T17:06:40.999Z</time></trkpt><trkpt lat="42.762715468961744" lon="11.11234667783597"><ele>16.0</ele><time>2026-04-06T17:06:41.999Z</time></trkpt><trkpt lat="42.762732043728384" lon="11.11215743154549"><ele>16.0</ele><time>2026-04-06T17:06:42.999Z</time></trkpt><trkpt lat="42.762749752763696" lon="11.11202396622996"><ele>16.0</ele><time>2026-04-06T17:06:43.999Z</time></trkpt><trkpt lat="42.76277403846825" lon="11.111857756406184"><ele>16.0</ele><time>2026-04-06T17:06:44.998Z</time></trkpt><trkpt lat="42.762760282640215" lon="11.111705046858111"><ele>16.0</ele><time>2026-04-06T17:06:45.998Z</time></trkpt><trkpt lat="42.762732749327384" lon="11.111583871973695"><ele>16.0</ele><time>2026-04-06T17:06:46.998Z</time></trkpt><trkpt lat="42.76273564433307" lon="11.111446630401684"><ele>16.0</ele><time>2026-04-06T17:06:47.998Z</time></trkpt><trkpt lat="42.76272731267568" lon="11.11131899116356"><ele>16.0</ele><time>2026-04-06T17:06:49.001Z</time></trkpt><trkpt lat="42.76272148566399" lon="11.111196520670626"><ele>16.0</ele><time>2026-04-06T17:06:50.001Z</time></trkpt><trkpt lat="42.762717239360605" lon="11.111091220950442"><ele>15.5</ele><time>2026-04-06T17:06:51Z</time></trkpt><trkpt lat="42.762715574603824" lon="11.110978230960292"><ele>15.0</ele><time>2026-04-06T17:06:52.001Z</time></trkpt><trkpt lat="42.76268596192475" lon="11.110762334919091"><ele>14.5</ele><time>2026-04-06T17:06:53.001Z</time></trkpt><trkpt lat="42.76253407085399" lon="11.110650411083627"><ele>14.0</ele><time>2026-04-06T17:06:54.001Z</time></trkpt><trkpt lat="42.76241274988895" lon="11.110627650502767"><ele>14.0</ele><time>2026-04-06T17:06:55.001Z</time></trkpt><trkpt lat="42.762321362197255" lon="11.110611673650011"><ele>14.0</ele><time>2026-04-06T17:06:56.001Z</time></trkpt><trkpt lat="42.76222098581444" lon="11.1105925896061"><ele>14.0</ele><time>2026-04-06T17:06:57.001Z</time></trkpt><trkpt lat="42.762100632461916" lon="11.11079021498005"><ele>14.0</ele><time>2026-04-06T17:06:58.001Z</time></trkpt><trkpt lat="42.761995826049024" lon="11.11074722892572"><ele>14.0</ele><time>2026-04-06T17:06:59.001Z</time></trkpt><trkpt lat="42.761883451819735" lon="11.110701528403236"><ele>13.999999999999998</ele><time>2026-04-06T17:07:00.001Z</time></trkpt><trkpt lat="42.76178139330469" lon="11.11065471793827"><ele>13.999999999999998</ele><time>2026-04-06T17:07:01.001Z</time></trkpt><trkpt lat="42.76169866114828" lon="11.110499431066811"><ele>14.0</ele><time>2026-04-06T17:07:02.001Z</time></trkpt><trkpt lat="42.76162065624725" lon="11.11048598061989"><ele>14.0</ele><time>2026-04-06T17:07:03.001Z</time></trkpt><trkpt lat="42.761543724013336" lon="11.110450807615502"><ele>13.5</ele><time>2026-04-06T17:07:04Z</time></trkpt><trkpt lat="42.76144729861327" lon="11.110435388752597"><ele>13.0</ele><time>2026-04-06T17:07:05Z</time></trkpt><trkpt lat="42.76134154281882" lon="11.110400473322601"><ele>12.5</ele><time>2026-04-06T17:07:06Z</time></trkpt><trkpt lat="42.761237925159755" lon="11.110198384176403"><ele>12.0</ele><time>2026-04-06T17:07:07Z</time></trkpt><trkpt lat="42.76118654536915" lon="11.110116692801416"><ele>12.0</ele><time>2026-04-06T17:07:08Z</time></trkpt><trkpt lat="42.76112525637197" lon="11.110038227408314"><ele>12.0</ele><time>2026-04-06T17:07:09Z</time></trkpt><trkpt lat="42.76104283807061" lon="11.10993599384518"><ele>12.0</ele><time>2026-04-06T17:07:10Z</time></trkpt><trkpt lat="42.76100794836742" lon="11.10980882413562"><ele>12.0</ele><time>2026-04-06T17:07:12Z</time></trkpt><trkpt lat="42.76099793743255" lon="11.109702118853216"><ele>12.0</ele><time>2026-04-06T17:07:13Z</time></trkpt><trkpt lat="42.76098910601724" lon="11.109552350172063"><ele>11.25</ele><time>2026-04-06T17:07:14Z</time></trkpt><trkpt lat="42.76094073965634" lon="11.10941918537046"><ele>10.5</ele><time>2026-04-06T17:07:16Z</time></trkpt><trkpt lat="42.760919646136074" lon="11.109259739801042"><ele>9.75</ele><time>2026-04-06T17:07:18Z</time></trkpt><trkpt lat="42.76103572905053" lon="11.10909397058528"><ele>9.0</ele><time>2026-04-06T17:07:19Z</time></trkpt><trkpt lat="42.76113676444891" lon="11.109059059448569"><ele>9.0</ele><time>2026-04-06T17:07:20Z</time></trkpt><trkpt lat="42.761245767331204" lon="11.109022177914055"><ele>9.0</ele><time>2026-04-06T17:07:21Z</time></trkpt><trkpt lat="42.76139345998007" lon="11.108972663667227"><ele>9.0</ele><time>2026-04-06T17:07:22Z</time></trkpt><trkpt lat="42.76155361674143" lon="11.108923910182243"><ele>9.0</ele><time>2026-04-06T17:07:23Z</time></trkpt><trkpt lat="42.761681599302925" lon="11.108872652336359"><ele>9.0</ele><time>2026-04-06T17:07:24Z</time></trkpt><trkpt lat="42.76181750655982" lon="11.108827814126128"><ele>9.0</ele><time>2026-04-06T17:07:25Z</time></trkpt><trkpt lat="42.76194912231407" lon="11.108794518126178"><ele>9.0</ele><time>2026-04-06T17:07:26Z</time></trkpt><trkpt lat="42.762053282240885" lon="11.108762164979224"><ele>9.0</ele><time>2026-04-06T17:07:27Z</time></trkpt><trkpt lat="42.7621383151177" lon="11.10871656831816"><ele>9.4</ele><time>2026-04-06T17:07:28Z</time></trkpt><trkpt lat="42.76220569497382" lon="11.10870741420634"><ele>9.8</ele><time>2026-04-06T17:07:29Z</time></trkpt><trkpt lat="42.76229056540882" lon="11.108705422064393"><ele>10.200000000000001</ele><time>2026-04-06T17:07:30Z</time></trkpt><trkpt lat="42.76222205230512" lon="11.108456014827842"><ele>10.600000000000001</ele><time>2026-04-06T17:07:31Z</time></trkpt><trkpt lat="42.76220279706188" lon="11.108348046631761"><ele>11.0</ele><time>2026-04-06T17:07:32Z</time></trkpt><trkpt lat="42.76218352033423" lon="11.108249983634261"><ele>11.0</ele><time>2026-04-06T17:07:33Z</time></trkpt><trkpt lat="42.762179180219384" lon="11.108120552513933"><ele>11.0</ele><time>2026-04-06T17:07:34Z</time></trkpt><trkpt lat="42.76216187861237" lon="11.107985735583943"><ele>11.0</ele><time>2026-04-06T17:07:35Z</time></trkpt><trkpt lat="42.762200408946484" lon="11.107817677885837"><ele>11.0</ele><time>2026-04-06T17:07:36Z</time></trkpt><trkpt lat="42.76221712180702" lon="11.107632909655672"><ele>11.0</ele><time>2026-04-06T17:07:37Z</time></trkpt><trkpt lat="42.76228931243644" lon="11.107455834319003"><ele>11.0</ele><time>2026-04-06T17:07:38Z</time></trkpt><trkpt lat="42.76236590032498" lon="11.107274991983173"><ele>11.0</ele><time>2026-04-06T17:07:39Z</time></trkpt><trkpt lat="42.76244447900926" lon="11.107089397398227"><ele>11.0</ele><time>2026-04-06T17:07:40Z</time></trkpt><trkpt lat="42.762530478409595" lon="11.106887541479315"><ele>11.0</ele><time>2026-04-06T17:07:41Z</time></trkpt><trkpt lat="42.76260194613685" lon="11.106677827205338"><ele>11.0</ele><time>2026-04-06T17:07:42Z</time></trkpt><trkpt lat="42.762686624509584" lon="11.106472322521892"><ele>11.5</ele><time>2026-04-06T17:07:43Z</time></trkpt><trkpt lat="42.76276506175104" lon="11.106295747783776"><ele>12.0</ele><time>2026-04-06T17:07:44Z</time></trkpt><trkpt lat="42.76282022515926" lon="11.106177442647779"><ele>12.5</ele><time>2026-04-06T17:07:45Z</time></trkpt><trkpt lat="42.76287598120681" lon="11.106042979246562"><ele>13.0</ele><time>2026-04-06T17:07:46Z</time></trkpt><trkpt lat="42.76295524271309" lon="11.105900787539861"><ele>13.0</ele><time>2026-04-06T17:07:47Z</time></trkpt><trkpt lat="42.76303112534654" lon="11.105757970148778"><ele>13.0</ele><time>2026-04-06T17:07:48Z</time></trkpt><trkpt lat="42.76311697895075" lon="11.105616228450225"><ele>13.0</ele><time>2026-04-06T17:07:49Z</time></trkpt><trkpt lat="42.76320764199558" lon="11.105443789076501"><ele>13.0</ele><time>2026-04-06T17:07:50Z</time></trkpt><trkpt lat="42.76330560962184" lon="11.10525588307718"><ele>13.333333333333332</ele><time>2026-04-06T17:07:51Z</time></trkpt><trkpt lat="42.76340249201239" lon="11.105081724633083"><ele>13.666666666666668</ele><time>2026-04-06T17:07:52Z</time></trkpt><trkpt lat="42.76349776352659" lon="11.104902911472516"><ele>14.0</ele><time>2026-04-06T17:07:53Z</time></trkpt><trkpt lat="42.763604957313916" lon="11.104738726826183"><ele>14.0</ele><time>2026-04-06T17:07:54Z</time></trkpt><trkpt lat="42.76370152748257" lon="11.104556193807506"><ele>14.0</ele><time>2026-04-06T17:07:55Z</time></trkpt><trkpt lat="42.7638040513208" lon="11.10436213418936"><ele>14.0</ele><time>2026-04-06T17:07:56Z</time></trkpt><trkpt lat="42.76390572688687" lon="11.104157971525204"><ele>14.0</ele><time>2026-04-06T17:07:57Z</time></trkpt><trkpt lat="42.76399322167883" lon="11.103987420862968"><ele>14.0</ele><time>2026-04-06T17:07:58Z</time></trkpt><trkpt lat="42.76411137806324" lon="11.103768216673052"><ele>14.0</ele><time>2026-04-06T17:07:58.999Z</time></trkpt><trkpt lat="42.76420861580017" lon="11.103591961748988"><ele>14.0</ele><time>2026-04-06T17:07:59.999Z</time></trkpt><trkpt lat="42.76428111066447" lon="11.10343988636726"><ele>14.0</ele><time>2026-04-06T17:08:00.999Z</time></trkpt><trkpt lat="42.76437406747449" lon="11.103273731010635"><ele>14.0</ele><time>2026-04-06T17:08:01.999Z</time></trkpt><trkpt lat="42.764449679467944" lon="11.103129260200385"><ele>14.0</ele><time>2026-04-06T17:08:02.999Z</time></trkpt><trkpt lat="42.76454736262871" lon="11.10298749935349"><ele>13.25</ele><time>2026-04-06T17:08:03.999Z</time></trkpt><trkpt lat="42.7646440907619" lon="11.102874220150591"><ele>12.5</ele><time>2026-04-06T17:08:04.999Z</time></trkpt><trkpt lat="42.76471934847222" lon="11.102795894486842"><ele>11.75</ele><time>2026-04-06T17:08:05.999Z</time></trkpt><trkpt lat="42.76482171233283" lon="11.10269880374206"><ele>11.0</ele><time>2026-04-06T17:08:06.999Z</time></trkpt><trkpt lat="42.76496473726456" lon="11.102738345577576"><ele>11.0</ele><time>2026-04-06T17:08:07.999Z</time></trkpt><trkpt lat="42.765113153449924" lon="11.102720232474569"><ele>11.0</ele><time>2026-04-06T17:08:08.999Z</time></trkpt><trkpt lat="42.76521084095147" lon="11.102704093548695"><ele>11.0</ele><time>2026-04-06T17:08:09.999Z</time></trkpt><trkpt lat="42.76531381698275" lon="11.102682483193915"><ele>11.0</ele><time>2026-04-06T17:08:10.999Z</time></trkpt><trkpt lat="42.76543254755097" lon="11.102646159757517"><ele>11.25</ele><time>2026-04-06T17:08:11.999Z</time></trkpt><trkpt lat="42.76556231459429" lon="11.10261139898226"><ele>11.5</ele><time>2026-04-06T17:08:12.999Z</time></trkpt><trkpt lat="42.76567992160899" lon="11.102580117006694"><ele>11.75</ele><time>2026-04-06T17:08:13.999Z</time></trkpt><trkpt lat="42.765789134534316" lon="11.102548890606855"><ele>12.0</ele><time>2026-04-06T17:08:14.999Z</time></trkpt><trkpt lat="42.76588733051794" lon="11.102519911027844"><ele>12.0</ele><time>2026-04-06T17:08:15.999Z</time></trkpt><trkpt lat="42.76596227587298" lon="11.102495793640774"><ele>12.0</ele><time>2026-04-06T17:08:16.999Z</time></trkpt><trkpt lat="42.7660539678366" lon="11.102463047324676"><ele>12.0</ele><time>2026-04-06T17:08:18.999Z</time></trkpt><trkpt lat="42.76614030335838" lon="11.102412180678632"><ele>12.0</ele><time>2026-04-06T17:08:22.999Z</time></trkpt><trkpt lat="42.76611598413586" lon="11.102263236748499"><ele>12.0</ele><time>2026-04-06T17:08:24.999Z</time></trkpt><trkpt lat="42.766102585778285" lon="11.102101114966311"><ele>11.833333333333334</ele><time>2026-04-06T17:08:26.999Z</time></trkpt><trkpt lat="42.7661215798939" lon="11.101998492206937"><ele>11.666666666666666</ele><time>2026-04-06T17:08:27.999Z</time></trkpt><trkpt lat="42.76615165019514" lon="11.101910009517088"><ele>11.5</ele><time>2026-04-06T17:08:28.999Z</time></trkpt><trkpt lat="42.76617787026613" lon="11.10182820325849"><ele>11.333333333333332</ele><time>2026-04-06T17:08:29.999Z</time></trkpt><trkpt lat="42.7662259631225" lon="11.101684596409294"><ele>11.166666666666666</ele><time>2026-04-06T17:08:31.999Z</time></trkpt><trkpt lat="42.76626436522155" lon="11.101593589377623"><ele>11.0</ele><time>2026-04-06T17:08:32.999Z</time></trkpt><trkpt lat="42.76630335104009" lon="11.101463878103317"><ele>11.0</ele><time>2026-04-06T17:08:34.999Z</time></trkpt><trkpt lat="42.76618792268235" lon="11.101286225490153"><ele>11.0</ele><time>2026-04-06T17:08:37.999Z</time></trkpt><trkpt lat="42.76612557057157" lon="11.101245665059597"><ele>11.0</ele><time>2026-04-06T17:08:38.999Z</time></trkpt><trkpt lat="42.76602676889113" lon="11.101180584536237"><ele>11.0</ele><time>2026-04-06T17:08:40.999Z</time></trkpt><trkpt lat="42.765903212153084" lon="11.101139980066623"><ele>11.200000000000001</ele><time>2026-04-06T17:08:45.999Z</time></trkpt><trkpt lat="42.76587421052567" lon="11.101223087901637"><ele>11.4</ele><time>2026-04-06T17:08:47.999Z</time></trkpt><trkpt lat="42.765850610782444" lon="11.101313994685226"><ele>11.6</ele><time>2026-04-06T17:08:50.999Z</time></trkpt><trkpt lat="42.765795373343394" lon="11.101375269012683"><ele>11.8</ele><time>2026-04-06T17:08:55.001Z</time></trkpt><trkpt lat="42.765686429309845" lon="11.10159581938046"><ele>12.0</ele><time>2026-04-06T17:09:05.001Z</time></trkpt><trkpt lat="42.76566231467698" lon="11.101689030028531"><ele>12.0</ele><time>2026-04-06T17:09:07.001Z</time></trkpt><trkpt lat="42.765641588855885" lon="11.101770972535107"><ele>12.0</ele><time>2026-04-06T17:09:09.001Z</time></trkpt><trkpt lat="42.765559844176295" lon="11.10184769445201"><ele>12.0</ele><time>2026-04-06T17:14:37.998Z</time></trkpt><trkpt lat="42.76565621874651" lon="11.101790043971778"><ele>12.0</ele><time>2026-04-06T17:19:35Z</time></trkpt><trkpt lat="42.76569205948946" lon="11.101714010471639"><ele>12.0</ele><time>2026-04-06T17:19:41Z</time></trkpt><trkpt lat="42.76570602870459" lon="11.101625751851003"><ele>12.0</ele><time>2026-04-06T17:19:47.999Z</time></trkpt><trkpt lat="42.76573472055649" lon="11.101544984857084"><ele>11.999999999999998</ele><time>2026-04-06T17:19:53.999Z</time></trkpt><trkpt lat="42.76577430936449" lon="11.101476775305823"><ele>12.0</ele><time>2026-04-06T17:19:59.999Z</time></trkpt><trkpt lat="42.765803403338495" lon="11.101384678019164"><ele>12.0</ele><time>2026-04-06T17:20:06.999Z</time></trkpt><trkpt lat="42.76581733963957" lon="11.101297051707563"><ele>12.0</ele><time>2026-04-06T17:20:14.998Z</time></trkpt><trkpt lat="42.76585246800663" lon="11.101217754695591"><ele>12.0</ele><time>2026-04-06T17:20:19.998Z</time></trkpt><trkpt lat="42.76580587354996" lon="11.101150424064288"><ele>11.999999999999998</ele><time>2026-04-06T17:20:27.998Z</time></trkpt><trkpt lat="42.76574302634557" lon="11.101110665954108"><ele>12.0</ele><time>2026-04-06T17:20:33.998Z</time></trkpt><trkpt lat="42.76567856966454" lon="11.101065200909046"><ele>11.999999999999998</ele><time>2026-04-06T17:20:39.998Z</time></trkpt><trkpt lat="42.76561559096768" lon="11.101026683379942"><ele>12.0</ele><time>2026-04-06T17:20:46.998Z</time></trkpt><trkpt lat="42.76555114754486" lon="11.100984982880746"><ele>12.0</ele><time>2026-04-06T17:20:53.998Z</time></trkpt><trkpt lat="42.76548480706709" lon="11.100946103019336"><ele>12.0</ele><time>2026-04-06T17:21:00.998Z</time></trkpt><trkpt lat="42.76543009755474" lon="11.100896303965833"><ele>12.0</ele><time>2026-04-06T17:21:07.997Z</time></trkpt><trkpt lat="42.76536512158601" lon="11.1008524098257"><ele>11.999999999999998</ele><time>2026-04-06T17:21:14.997Z</time></trkpt><trkpt lat="42.76530130394186" lon="11.100817875832881"><ele>12.0</ele><time>2026-04-06T17:21:20.997Z</time></trkpt><trkpt lat="42.76524228258325" lon="11.100776582661036"><ele>11.714285714285714</ele><time>2026-04-06T17:21:27.997Z</time></trkpt><trkpt lat="42.76518220162836" lon="11.100725272500485"><ele>11.428571428571429</ele><time>2026-04-06T17:21:34.999Z</time></trkpt><trkpt lat="42.765120172492445" lon="11.100690318871075"><ele>11.142857142857142</ele><time>2026-04-06T17:21:40.999Z</time></trkpt><trkpt lat="42.765053561346384" lon="11.100654497065742"><ele>10.857142857142858</ele><time>2026-04-06T17:21:46.999Z</time></trkpt><trkpt lat="42.76498903639308" lon="11.100618156858229"><ele>10.571428571428571</ele><time>2026-04-06T17:21:52.999Z</time></trkpt><trkpt lat="42.764931686779406" lon="11.100567467065067"><ele>10.285714285714285</ele><time>2026-04-06T17:21:58.999Z</time></trkpt><trkpt lat="42.764866413617746" lon="11.100529014640793"><ele>10.0</ele><time>2026-04-06T17:22:04.999Z</time></trkpt><trkpt lat="42.76480603048842" lon="11.100480490568398"><ele>10.0</ele><time>2026-04-06T17:22:11.999Z</time></trkpt><trkpt lat="42.764747859215525" lon="11.100438137773926"><ele>10.0</ele><time>2026-04-06T17:22:18.999Z</time></trkpt><trkpt lat="42.764692049425754" lon="11.100398018749233"><ele>10.0</ele><time>2026-04-06T17:22:27.999Z</time></trkpt><trkpt lat="42.764631780630175" lon="11.100357395829157"><ele>10.0</ele><time>2026-04-06T17:22:47.999Z</time></trkpt><trkpt lat="42.76457266069483" lon="11.100315095315022"><ele>10.0</ele><time>2026-04-06T17:22:55.998Z</time></trkpt><trkpt lat="42.76450809351974" lon="11.10028076035978"><ele>10.0</ele><time>2026-04-06T17:23:03.998Z</time></trkpt><trkpt lat="42.764449856467" lon="11.100237890969323"><ele>10.0</ele><time>2026-04-06T17:23:10.998Z</time></trkpt><trkpt lat="42.76438998135159" lon="11.100200801551098"><ele>9.857142857142858</ele><time>2026-04-06T17:23:35.998Z</time></trkpt><trkpt lat="42.76433989159029" lon="11.100252832787058"><ele>9.714285714285715</ele><time>2026-04-06T17:23:47Z</time></trkpt><trkpt lat="42.764315690934566" lon="11.100337615277734"><ele>9.571428571428573</ele><time>2026-04-06T17:23:55Z</time></trkpt><trkpt lat="42.76426350701591" lon="11.100387448346522"><ele>9.428571428571429</ele><time>2026-04-06T17:25:03.998Z</time></trkpt><trkpt lat="42.76422903230594" lon="11.100470420450945"><ele>9.285714285714286</ele><time>2026-04-06T17:25:10.998Z</time></trkpt><trkpt lat="42.76421339386763" lon="11.100555951888937"><ele>9.142857142857144</ele><time>2026-04-06T17:25:17.998Z</time></trkpt><trkpt lat="42.76418528440875" lon="11.100644703057336"><ele>9.0</ele><time>2026-04-06T17:25:25.998Z</time></trkpt><trkpt lat="42.76416183885766" lon="11.100727754225371"><ele>9.142857142857144</ele><time>2026-04-06T17:25:33.998Z</time></trkpt><trkpt lat="42.76412490599056" lon="11.100803605253994"><ele>9.285714285714286</ele><time>2026-04-06T17:25:42.999Z</time></trkpt><trkpt lat="42.764105280058274" lon="11.10088690031643"><ele>9.428571428571429</ele><time>2026-04-06T17:25:59.999Z</time></trkpt><trkpt lat="42.764080235473465" lon="11.100978651865729"><ele>9.571428571428573</ele><time>2026-04-06T17:26:10.999Z</time></trkpt><trkpt lat="42.764051788835744" lon="11.101062210092794"><ele>9.714285714285715</ele><time>2026-04-06T17:26:19.999Z</time></trkpt><trkpt lat="42.76401920978672" lon="11.10114257768265"><ele>9.857142857142858</ele><time>2026-04-06T17:26:27.999Z</time></trkpt><trkpt lat="42.76399497780126" lon="11.101228987303097"><ele>10.0</ele><time>2026-04-06T17:26:35.999Z</time></trkpt><trkpt lat="42.76396555305538" lon="11.101307866941582"><ele>10.0</ele><time>2026-04-06T17:26:44.999Z</time></trkpt><trkpt lat="42.76390961218241" lon="11.101407770750699"><ele>10.0</ele><time>2026-04-06T17:28:17.999Z</time></trkpt><trkpt lat="42.76389000828498" lon="11.101502764605508"><ele>10.0</ele><time>2026-04-06T17:28:26.999Z</time></trkpt><trkpt lat="42.76392164618644" lon="11.101586782638886"><ele>10.0</ele><time>2026-04-06T17:28:39.999Z</time></trkpt><trkpt lat="42.76398345872155" lon="11.10161420917968"><ele>10.0</ele><time>2026-04-06T17:28:47.999Z</time></trkpt><trkpt lat="42.764037184187934" lon="11.101663433344331"><ele>10.0</ele><time>2026-04-06T17:28:55.999Z</time></trkpt><trkpt lat="42.76410078793685" lon="11.10169741803707"><ele>10.0</ele><time>2026-04-06T17:29:05.998Z</time></trkpt><trkpt lat="42.76416765816311" lon="11.101729013024753"><ele>10.142857142857142</ele><time>2026-04-06T17:29:14.998Z</time></trkpt><trkpt lat="42.76422387068204" lon="11.101772348634412"><ele>10.285714285714286</ele><time>2026-04-06T17:29:22.998Z</time></trkpt><trkpt lat="42.76428295637576" lon="11.101805420794337"><ele>10.428571428571429</ele><time>2026-04-06T17:29:29.998Z</time></trkpt><trkpt lat="42.76434160866415" lon="11.101845008398278"><ele>10.571428571428571</ele><time>2026-04-06T17:29:37.998Z</time></trkpt><trkpt lat="42.76439856672426" lon="11.101886284978708"><ele>10.714285714285714</ele><time>2026-04-06T17:29:46.998Z</time></trkpt><trkpt lat="42.76446098785546" lon="11.101937561673493"><ele>10.857142857142858</ele><time>2026-04-06T17:29:54.999Z</time></trkpt><trkpt lat="42.76452859251243" lon="11.101971470732137"><ele>11.0</ele><time>2026-04-06T17:30:03Z</time></trkpt><trkpt lat="42.76458721480661" lon="11.102007522047082"><ele>11.142857142857142</ele><time>2026-04-06T17:30:10Z</time></trkpt><trkpt lat="42.764644470960306" lon="11.102045167681743"><ele>11.285714285714285</ele><time>2026-04-06T17:30:17.999Z</time></trkpt><trkpt lat="42.76471111609191" lon="11.10208371908384"><ele>11.428571428571427</ele><time>2026-04-06T17:30:25.999Z</time></trkpt><trkpt lat="42.76477411072261" lon="11.102117790911018"><ele>11.571428571428571</ele><time>2026-04-06T17:30:32.999Z</time></trkpt><trkpt lat="42.764832191694346" lon="11.102167020246938"><ele>11.714285714285714</ele><time>2026-04-06T17:30:39.999Z</time></trkpt><trkpt lat="42.76489597275825" lon="11.10220916255672"><ele>11.857142857142856</ele><time>2026-04-06T17:30:46.999Z</time></trkpt><trkpt lat="42.76495730544638" lon="11.102250043538639"><ele>12.0</ele><time>2026-04-06T17:30:52.999Z</time></trkpt><trkpt lat="42.76501134969972" lon="11.10229675173793"><ele>11.999999999999998</ele><time>2026-04-06T17:31:00.999Z</time></trkpt><trkpt lat="42.76507208454147" lon="11.102339692502353"><ele>12.0</ele><time>2026-04-06T17:31:07.999Z</time></trkpt><trkpt lat="42.76513244064424" lon="11.102372805449514"><ele>12.0</ele><time>2026-04-06T17:31:14.999Z</time></trkpt><trkpt lat="42.76519322049527" lon="11.102399533860869"><ele>12.0</ele><time>2026-04-06T17:31:21.998Z</time></trkpt><trkpt lat="42.76525054981708" lon="11.102434976319156"><ele>12.0</ele><time>2026-04-06T17:31:28.998Z</time></trkpt><trkpt lat="42.765305009144015" lon="11.10247922606303"><ele>11.999999999999998</ele><time>2026-04-06T17:31:34.998Z</time></trkpt><trkpt lat="42.76536932308479" lon="11.102489962528153"><ele>12.0</ele><time>2026-04-06T17:31:40.998Z</time></trkpt><trkpt lat="42.765434132313636" lon="11.10247574699835"><ele>11.999999999999998</ele><time>2026-04-06T17:31:47.998Z</time></trkpt><trkpt lat="42.7655019445122" lon="11.102458145890473"><ele>12.0</ele><time>2026-04-06T17:31:54.998Z</time></trkpt><trkpt lat="42.76556400648126" lon="11.102438038493647"><ele>12.0</ele><time>2026-04-06T17:32:03Z</time></trkpt><trkpt lat="42.765625766821266" lon="11.102415304897551"><ele>12.0</ele><time>2026-04-06T17:32:25Z</time></trkpt><trkpt lat="42.76567638377046" lon="11.10236141185916"><ele>12.0</ele><time>2026-04-06T17:32:38.999Z</time></trkpt><trkpt lat="42.76567467824727" lon="11.102275395211459"><ele>11.999999999999998</ele><time>2026-04-06T17:32:45.999Z</time></trkpt><trkpt lat="42.76568506873487" lon="11.102178244728336"><ele>12.0</ele><time>2026-04-06T17:32:55.999Z</time></trkpt><trkpt lat="42.765671048130535" lon="11.102086750439502"><ele>12.0</ele><time>2026-04-06T17:33:02.999Z</time></trkpt><trkpt lat="42.76564333943278" lon="11.102007650753814"><ele>12.0</ele><time>2026-04-06T17:33:07.999Z</time></trkpt><trkpt lat="42.76562379608353" lon="11.1019107666673"><ele>12.0</ele><time>2026-04-06T17:33:13.999Z</time></trkpt><trkpt lat="42.76560119676189" lon="11.101823739511808"><ele>12.0</ele><time>2026-04-06T17:33:25.999Z</time></trkpt></trkseg></trk></gpx>